<?xml version="1.0" encoding="UTF-8" standalone="no" ?>
<gpx xmlns="http://www.topografix.com/GPX/1/1" xmlns:xsi="http://www.w3.org/2001/XMLSchema-instance" xsi:schemaLocation="http://www.topografix.com/GPX/1/1 http://www.topografix.com/GPX/1/1/gpx.xsd" version="1.1" creator="VisuGPX - https://www.visugpx.com">
  <metadata>
    <name>Launay -Sermaise</name>
  </metadata>
  <trk>
    <name><![CDATA[Launay -Sermaise_1]]></name>
    <trkseg>
      <trkpt lat="48.61496" lon="2.1077">
        <ele>105</ele>
        <time>2021-03-07T09:25:35.982Z</time>
      </trkpt>
      <trkpt lat="48.61496" lon="2.1077">
        <ele>105</ele>
        <time>2021-03-07T09:25:36.982Z</time>
      </trkpt>
      <trkpt lat="48.61497" lon="2.10768">
        <ele>105</ele>
        <time>2021-03-07T09:25:37.982Z</time>
      </trkpt>
      <trkpt lat="48.61498" lon="2.10767">
        <ele>105</ele>
        <time>2021-03-07T09:25:38.981Z</time>
      </trkpt>
      <trkpt lat="48.61498" lon="2.10765">
        <ele>105</ele>
        <time>2021-03-07T09:25:39.982Z</time>
      </trkpt>
      <trkpt lat="48.61499" lon="2.10763">
        <ele>105</ele>
        <time>2021-03-07T09:25:40.982Z</time>
      </trkpt>
      <trkpt lat="48.61499" lon="2.10761">
        <ele>105</ele>
        <time>2021-03-07T09:25:41.982Z</time>
      </trkpt>
      <trkpt lat="48.61499" lon="2.10759">
        <ele>105</ele>
        <time>2021-03-07T09:25:42.982Z</time>
      </trkpt>
      <trkpt lat="48.61499" lon="2.10757">
        <ele>105</ele>
        <time>2021-03-07T09:25:43.982Z</time>
      </trkpt>
      <trkpt lat="48.61499" lon="2.10755">
        <ele>105</ele>
        <time>2021-03-07T09:25:44.982Z</time>
      </trkpt>
      <trkpt lat="48.61499" lon="2.10753">
        <ele>105</ele>
        <time>2021-03-07T09:25:45.981Z</time>
      </trkpt>
      <trkpt lat="48.615" lon="2.10751">
        <ele>105</ele>
        <time>2021-03-07T09:25:46.981Z</time>
      </trkpt>
      <trkpt lat="48.615" lon="2.1075">
        <ele>105</ele>
        <time>2021-03-07T09:25:47.982Z</time>
      </trkpt>
      <trkpt lat="48.615" lon="2.10748">
        <ele>105</ele>
        <time>2021-03-07T09:25:48.982Z</time>
      </trkpt>
      <trkpt lat="48.61501" lon="2.10746">
        <ele>105</ele>
        <time>2021-03-07T09:25:49.981Z</time>
      </trkpt>
      <trkpt lat="48.61501" lon="2.10744">
        <ele>105</ele>
        <time>2021-03-07T09:25:50.981Z</time>
      </trkpt>
      <trkpt lat="48.61501" lon="2.10743">
        <ele>105</ele>
        <time>2021-03-07T09:25:51.981Z</time>
      </trkpt>
      <trkpt lat="48.61502" lon="2.1074">
        <ele>105</ele>
        <time>2021-03-07T09:25:52.982Z</time>
      </trkpt>
      <trkpt lat="48.61502" lon="2.10738">
        <ele>105</ele>
        <time>2021-03-07T09:25:53.981Z</time>
      </trkpt>
      <trkpt lat="48.61503" lon="2.10736">
        <ele>106</ele>
        <time>2021-03-07T09:25:54.982Z</time>
      </trkpt>
      <trkpt lat="48.61504" lon="2.10734">
        <ele>106</ele>
        <time>2021-03-07T09:25:55.981Z</time>
      </trkpt>
      <trkpt lat="48.61504" lon="2.10733">
        <ele>106</ele>
        <time>2021-03-07T09:25:56.981Z</time>
      </trkpt>
      <trkpt lat="48.61505" lon="2.10732">
        <ele>106</ele>
        <time>2021-03-07T09:25:57.982Z</time>
      </trkpt>
      <trkpt lat="48.61507" lon="2.1073">
        <ele>106</ele>
        <time>2021-03-07T09:25:58.982Z</time>
      </trkpt>
      <trkpt lat="48.61508" lon="2.10729">
        <ele>106</ele>
        <time>2021-03-07T09:25:59.982Z</time>
      </trkpt>
      <trkpt lat="48.61509" lon="2.10728">
        <ele>106</ele>
        <time>2021-03-07T09:26:00.982Z</time>
      </trkpt>
      <trkpt lat="48.6151" lon="2.10727">
        <ele>106</ele>
        <time>2021-03-07T09:26:01.981Z</time>
      </trkpt>
      <trkpt lat="48.61512" lon="2.10725">
        <ele>106</ele>
        <time>2021-03-07T09:26:02.982Z</time>
      </trkpt>
      <trkpt lat="48.61514" lon="2.10724">
        <ele>106</ele>
        <time>2021-03-07T09:26:03.981Z</time>
      </trkpt>
      <trkpt lat="48.61515" lon="2.10723">
        <ele>106</ele>
        <time>2021-03-07T09:26:04.981Z</time>
      </trkpt>
      <trkpt lat="48.61515" lon="2.10722">
        <ele>106</ele>
        <time>2021-03-07T09:26:05.982Z</time>
      </trkpt>
      <trkpt lat="48.61515" lon="2.1072">
        <ele>106</ele>
        <time>2021-03-07T09:26:06.981Z</time>
      </trkpt>
      <trkpt lat="48.61515" lon="2.10718">
        <ele>106</ele>
        <time>2021-03-07T09:26:07.981Z</time>
      </trkpt>
      <trkpt lat="48.61514" lon="2.10716">
        <ele>105</ele>
        <time>2021-03-07T09:26:08.982Z</time>
      </trkpt>
      <trkpt lat="48.61512" lon="2.10714">
        <ele>105</ele>
        <time>2021-03-07T09:26:09.982Z</time>
      </trkpt>
      <trkpt lat="48.6151" lon="2.10712">
        <ele>105</ele>
        <time>2021-03-07T09:26:10.981Z</time>
      </trkpt>
      <trkpt lat="48.6151" lon="2.10711">
        <ele>105</ele>
        <time>2021-03-07T09:26:11.982Z</time>
      </trkpt>
      <trkpt lat="48.61509" lon="2.1071">
        <ele>104</ele>
        <time>2021-03-07T09:26:12.982Z</time>
      </trkpt>
      <trkpt lat="48.61507" lon="2.10709">
        <ele>104</ele>
        <time>2021-03-07T09:26:13.982Z</time>
      </trkpt>
      <trkpt lat="48.61506" lon="2.10708">
        <ele>104</ele>
        <time>2021-03-07T09:26:14.982Z</time>
      </trkpt>
      <trkpt lat="48.61505" lon="2.10707">
        <ele>103</ele>
        <time>2021-03-07T09:26:15.982Z</time>
      </trkpt>
      <trkpt lat="48.61504" lon="2.10706">
        <ele>103</ele>
        <time>2021-03-07T09:26:16.981Z</time>
      </trkpt>
      <trkpt lat="48.61502" lon="2.10705">
        <ele>103</ele>
        <time>2021-03-07T09:26:17.981Z</time>
      </trkpt>
      <trkpt lat="48.61501" lon="2.10705">
        <ele>102</ele>
        <time>2021-03-07T09:26:18.982Z</time>
      </trkpt>
      <trkpt lat="48.61499" lon="2.10704">
        <ele>101</ele>
        <time>2021-03-07T09:26:19.982Z</time>
      </trkpt>
      <trkpt lat="48.61498" lon="2.10703">
        <ele>101</ele>
        <time>2021-03-07T09:26:20.982Z</time>
      </trkpt>
      <trkpt lat="48.61496" lon="2.10703">
        <ele>101</ele>
        <time>2021-03-07T09:26:21.982Z</time>
      </trkpt>
      <trkpt lat="48.61495" lon="2.10702">
        <ele>101</ele>
        <time>2021-03-07T09:26:22.982Z</time>
      </trkpt>
      <trkpt lat="48.61493" lon="2.10701">
        <ele>100</ele>
        <time>2021-03-07T09:26:23.982Z</time>
      </trkpt>
      <trkpt lat="48.61492" lon="2.10701">
        <ele>100</ele>
        <time>2021-03-07T09:26:24.982Z</time>
      </trkpt>
      <trkpt lat="48.6149" lon="2.107">
        <ele>100</ele>
        <time>2021-03-07T09:26:25.982Z</time>
      </trkpt>
      <trkpt lat="48.61489" lon="2.10699">
        <ele>100</ele>
        <time>2021-03-07T09:26:26.982Z</time>
      </trkpt>
      <trkpt lat="48.61486" lon="2.10699">
        <ele>100</ele>
        <time>2021-03-07T09:26:27.982Z</time>
      </trkpt>
      <trkpt lat="48.61484" lon="2.10698">
        <ele>100</ele>
        <time>2021-03-07T09:26:28.982Z</time>
      </trkpt>
      <trkpt lat="48.61482" lon="2.10697">
        <ele>99</ele>
        <time>2021-03-07T09:26:29.981Z</time>
      </trkpt>
      <trkpt lat="48.61481" lon="2.10696">
        <ele>99</ele>
        <time>2021-03-07T09:26:30.982Z</time>
      </trkpt>
      <trkpt lat="48.6148" lon="2.10696">
        <ele>99</ele>
        <time>2021-03-07T09:26:31.982Z</time>
      </trkpt>
      <trkpt lat="48.61478" lon="2.10694">
        <ele>99</ele>
        <time>2021-03-07T09:26:32.982Z</time>
      </trkpt>
      <trkpt lat="48.61477" lon="2.10694">
        <ele>98</ele>
        <time>2021-03-07T09:26:33.982Z</time>
      </trkpt>
      <trkpt lat="48.61476" lon="2.10693">
        <ele>98</ele>
        <time>2021-03-07T09:26:34.982Z</time>
      </trkpt>
      <trkpt lat="48.61476" lon="2.10692">
        <ele>98</ele>
        <time>2021-03-07T09:26:35.982Z</time>
      </trkpt>
      <trkpt lat="48.61475" lon="2.1069">
        <ele>99</ele>
        <time>2021-03-07T09:26:36.982Z</time>
      </trkpt>
      <trkpt lat="48.61474" lon="2.10689">
        <ele>99</ele>
        <time>2021-03-07T09:26:37.982Z</time>
      </trkpt>
      <trkpt lat="48.61473" lon="2.10687">
        <ele>100</ele>
        <time>2021-03-07T09:26:38.982Z</time>
      </trkpt>
      <trkpt lat="48.61472" lon="2.10686">
        <ele>100</ele>
        <time>2021-03-07T09:26:39.981Z</time>
      </trkpt>
      <trkpt lat="48.61471" lon="2.10685">
        <ele>101</ele>
        <time>2021-03-07T09:26:40.981Z</time>
      </trkpt>
      <trkpt lat="48.6147" lon="2.10685">
        <ele>101</ele>
        <time>2021-03-07T09:26:41.981Z</time>
      </trkpt>
      <trkpt lat="48.6147" lon="2.10683">
        <ele>102</ele>
        <time>2021-03-07T09:26:42.981Z</time>
      </trkpt>
      <trkpt lat="48.6147" lon="2.10682">
        <ele>103</ele>
        <time>2021-03-07T09:26:43.982Z</time>
      </trkpt>
      <trkpt lat="48.61468" lon="2.10681">
        <ele>103</ele>
        <time>2021-03-07T09:26:44.982Z</time>
      </trkpt>
      <trkpt lat="48.61467" lon="2.10679">
        <ele>104</ele>
        <time>2021-03-07T09:26:45.981Z</time>
      </trkpt>
      <trkpt lat="48.61467" lon="2.10678">
        <ele>104</ele>
        <time>2021-03-07T09:26:46.981Z</time>
      </trkpt>
      <trkpt lat="48.61466" lon="2.10676">
        <ele>105</ele>
        <time>2021-03-07T09:26:47.981Z</time>
      </trkpt>
      <trkpt lat="48.61466" lon="2.10675">
        <ele>105</ele>
        <time>2021-03-07T09:26:48.982Z</time>
      </trkpt>
      <trkpt lat="48.61465" lon="2.10674">
        <ele>105</ele>
        <time>2021-03-07T09:26:49.982Z</time>
      </trkpt>
      <trkpt lat="48.61464" lon="2.10673">
        <ele>105</ele>
        <time>2021-03-07T09:26:50.981Z</time>
      </trkpt>
      <trkpt lat="48.61463" lon="2.10671">
        <ele>105</ele>
        <time>2021-03-07T09:26:51.981Z</time>
      </trkpt>
      <trkpt lat="48.61462" lon="2.10669">
        <ele>105</ele>
        <time>2021-03-07T09:26:52.981Z</time>
      </trkpt>
      <trkpt lat="48.61461" lon="2.10667">
        <ele>105</ele>
        <time>2021-03-07T09:26:53.981Z</time>
      </trkpt>
      <trkpt lat="48.6146" lon="2.10665">
        <ele>105</ele>
        <time>2021-03-07T09:26:54.982Z</time>
      </trkpt>
      <trkpt lat="48.61458" lon="2.10663">
        <ele>106</ele>
        <time>2021-03-07T09:26:55.982Z</time>
      </trkpt>
      <trkpt lat="48.61458" lon="2.10662">
        <ele>106</ele>
        <time>2021-03-07T09:26:56.982Z</time>
      </trkpt>
      <trkpt lat="48.61457" lon="2.10661">
        <ele>107</ele>
        <time>2021-03-07T09:26:57.982Z</time>
      </trkpt>
      <trkpt lat="48.61456" lon="2.10659">
        <ele>107</ele>
        <time>2021-03-07T09:26:58.982Z</time>
      </trkpt>
      <trkpt lat="48.61455" lon="2.10658">
        <ele>107</ele>
        <time>2021-03-07T09:26:59.982Z</time>
      </trkpt>
      <trkpt lat="48.61454" lon="2.10657">
        <ele>107</ele>
        <time>2021-03-07T09:27:00.982Z</time>
      </trkpt>
      <trkpt lat="48.61453" lon="2.10655">
        <ele>107</ele>
        <time>2021-03-07T09:27:01.982Z</time>
      </trkpt>
      <trkpt lat="48.61452" lon="2.10654">
        <ele>107</ele>
        <time>2021-03-07T09:27:02.982Z</time>
      </trkpt>
      <trkpt lat="48.61451" lon="2.10653">
        <ele>107</ele>
        <time>2021-03-07T09:27:03.982Z</time>
      </trkpt>
      <trkpt lat="48.6145" lon="2.10652">
        <ele>107</ele>
        <time>2021-03-07T09:27:04.982Z</time>
      </trkpt>
      <trkpt lat="48.61449" lon="2.1065">
        <ele>107</ele>
        <time>2021-03-07T09:27:05.982Z</time>
      </trkpt>
      <trkpt lat="48.61448" lon="2.10649">
        <ele>107</ele>
        <time>2021-03-07T09:27:06.981Z</time>
      </trkpt>
      <trkpt lat="48.61447" lon="2.10648">
        <ele>107</ele>
        <time>2021-03-07T09:27:07.981Z</time>
      </trkpt>
      <trkpt lat="48.61446" lon="2.10646">
        <ele>107</ele>
        <time>2021-03-07T09:27:08.981Z</time>
      </trkpt>
      <trkpt lat="48.61445" lon="2.10645">
        <ele>107</ele>
        <time>2021-03-07T09:27:09.982Z</time>
      </trkpt>
      <trkpt lat="48.61444" lon="2.10643">
        <ele>107</ele>
        <time>2021-03-07T09:27:10.982Z</time>
      </trkpt>
      <trkpt lat="48.61443" lon="2.10642">
        <ele>107</ele>
        <time>2021-03-07T09:27:11.982Z</time>
      </trkpt>
      <trkpt lat="48.61442" lon="2.10641">
        <ele>107</ele>
        <time>2021-03-07T09:27:12.981Z</time>
      </trkpt>
      <trkpt lat="48.61441" lon="2.1064">
        <ele>107</ele>
        <time>2021-03-07T09:27:13.982Z</time>
      </trkpt>
      <trkpt lat="48.61441" lon="2.10639">
        <ele>108</ele>
        <time>2021-03-07T09:27:14.982Z</time>
      </trkpt>
      <trkpt lat="48.6144" lon="2.10637">
        <ele>108</ele>
        <time>2021-03-07T09:27:15.981Z</time>
      </trkpt>
      <trkpt lat="48.61439" lon="2.10636">
        <ele>109</ele>
        <time>2021-03-07T09:27:16.982Z</time>
      </trkpt>
      <trkpt lat="48.61439" lon="2.10635">
        <ele>109</ele>
        <time>2021-03-07T09:27:17.982Z</time>
      </trkpt>
      <trkpt lat="48.61438" lon="2.10633">
        <ele>110</ele>
        <time>2021-03-07T09:27:18.982Z</time>
      </trkpt>
      <trkpt lat="48.61437" lon="2.10632">
        <ele>110</ele>
        <time>2021-03-07T09:27:19.982Z</time>
      </trkpt>
      <trkpt lat="48.61437" lon="2.10631">
        <ele>111</ele>
        <time>2021-03-07T09:27:20.982Z</time>
      </trkpt>
      <trkpt lat="48.61436" lon="2.10629">
        <ele>112</ele>
        <time>2021-03-07T09:27:21.982Z</time>
      </trkpt>
      <trkpt lat="48.61435" lon="2.10628">
        <ele>112</ele>
        <time>2021-03-07T09:27:22.982Z</time>
      </trkpt>
      <trkpt lat="48.61434" lon="2.10626">
        <ele>112</ele>
        <time>2021-03-07T09:27:23.982Z</time>
      </trkpt>
      <trkpt lat="48.61433" lon="2.10624">
        <ele>111</ele>
        <time>2021-03-07T09:27:24.982Z</time>
      </trkpt>
      <trkpt lat="48.61431" lon="2.10623">
        <ele>111</ele>
        <time>2021-03-07T09:27:25.982Z</time>
      </trkpt>
      <trkpt lat="48.6143" lon="2.10621">
        <ele>110</ele>
        <time>2021-03-07T09:27:26.981Z</time>
      </trkpt>
      <trkpt lat="48.61429" lon="2.1062">
        <ele>109</ele>
        <time>2021-03-07T09:27:27.982Z</time>
      </trkpt>
      <trkpt lat="48.61428" lon="2.10619">
        <ele>109</ele>
        <time>2021-03-07T09:27:28.982Z</time>
      </trkpt>
      <trkpt lat="48.61428" lon="2.10617">
        <ele>108</ele>
        <time>2021-03-07T09:27:29.981Z</time>
      </trkpt>
      <trkpt lat="48.61427" lon="2.10617">
        <ele>107</ele>
        <time>2021-03-07T09:27:30.981Z</time>
      </trkpt>
      <trkpt lat="48.61426" lon="2.10616">
        <ele>106</ele>
        <time>2021-03-07T09:27:31.981Z</time>
      </trkpt>
      <trkpt lat="48.61425" lon="2.10615">
        <ele>106</ele>
        <time>2021-03-07T09:27:32.982Z</time>
      </trkpt>
      <trkpt lat="48.61424" lon="2.10613">
        <ele>106</ele>
        <time>2021-03-07T09:27:33.982Z</time>
      </trkpt>
      <trkpt lat="48.61424" lon="2.10611">
        <ele>106</ele>
        <time>2021-03-07T09:27:34.981Z</time>
      </trkpt>
      <trkpt lat="48.61423" lon="2.1061">
        <ele>106</ele>
        <time>2021-03-07T09:27:35.982Z</time>
      </trkpt>
      <trkpt lat="48.61422" lon="2.10608">
        <ele>106</ele>
        <time>2021-03-07T09:27:36.982Z</time>
      </trkpt>
      <trkpt lat="48.61421" lon="2.10607">
        <ele>106</ele>
        <time>2021-03-07T09:27:37.982Z</time>
      </trkpt>
      <trkpt lat="48.6142" lon="2.10605">
        <ele>106</ele>
        <time>2021-03-07T09:27:38.982Z</time>
      </trkpt>
      <trkpt lat="48.6142" lon="2.10604">
        <ele>106</ele>
        <time>2021-03-07T09:27:39.981Z</time>
      </trkpt>
      <trkpt lat="48.61419" lon="2.10602">
        <ele>106</ele>
        <time>2021-03-07T09:27:40.981Z</time>
      </trkpt>
      <trkpt lat="48.61418" lon="2.10601">
        <ele>106</ele>
        <time>2021-03-07T09:27:41.981Z</time>
      </trkpt>
      <trkpt lat="48.61417" lon="2.10599">
        <ele>106</ele>
        <time>2021-03-07T09:27:42.982Z</time>
      </trkpt>
      <trkpt lat="48.61416" lon="2.10597">
        <ele>106</ele>
        <time>2021-03-07T09:27:43.982Z</time>
      </trkpt>
      <trkpt lat="48.61415" lon="2.10596">
        <ele>106</ele>
        <time>2021-03-07T09:27:44.981Z</time>
      </trkpt>
      <trkpt lat="48.61414" lon="2.10594">
        <ele>105</ele>
        <time>2021-03-07T09:27:45.981Z</time>
      </trkpt>
      <trkpt lat="48.61413" lon="2.10593">
        <ele>105</ele>
        <time>2021-03-07T09:27:46.982Z</time>
      </trkpt>
      <trkpt lat="48.61413" lon="2.10591">
        <ele>105</ele>
        <time>2021-03-07T09:27:47.982Z</time>
      </trkpt>
      <trkpt lat="48.61412" lon="2.1059">
        <ele>105</ele>
        <time>2021-03-07T09:27:48.982Z</time>
      </trkpt>
      <trkpt lat="48.61411" lon="2.10588">
        <ele>105</ele>
        <time>2021-03-07T09:27:49.981Z</time>
      </trkpt>
      <trkpt lat="48.6141" lon="2.10587">
        <ele>105</ele>
        <time>2021-03-07T09:27:50.982Z</time>
      </trkpt>
      <trkpt lat="48.61409" lon="2.10585">
        <ele>105</ele>
        <time>2021-03-07T09:27:51.982Z</time>
      </trkpt>
      <trkpt lat="48.61408" lon="2.10584">
        <ele>105</ele>
        <time>2021-03-07T09:27:52.982Z</time>
      </trkpt>
      <trkpt lat="48.61407" lon="2.10582">
        <ele>105</ele>
        <time>2021-03-07T09:27:53.981Z</time>
      </trkpt>
      <trkpt lat="48.61406" lon="2.10581">
        <ele>105</ele>
        <time>2021-03-07T09:27:54.981Z</time>
      </trkpt>
      <trkpt lat="48.61405" lon="2.1058">
        <ele>105</ele>
        <time>2021-03-07T09:27:55.982Z</time>
      </trkpt>
      <trkpt lat="48.61404" lon="2.10579">
        <ele>105</ele>
        <time>2021-03-07T09:27:56.982Z</time>
      </trkpt>
      <trkpt lat="48.61403" lon="2.10577">
        <ele>105</ele>
        <time>2021-03-07T09:27:57.981Z</time>
      </trkpt>
      <trkpt lat="48.61403" lon="2.10577">
        <ele>105</ele>
        <time>2021-03-07T09:27:58.981Z</time>
      </trkpt>
      <trkpt lat="48.61401" lon="2.10575">
        <ele>105</ele>
        <time>2021-03-07T09:27:59.981Z</time>
      </trkpt>
      <trkpt lat="48.614" lon="2.10574">
        <ele>105</ele>
        <time>2021-03-07T09:28:00.982Z</time>
      </trkpt>
      <trkpt lat="48.61398" lon="2.10573">
        <ele>105</ele>
        <time>2021-03-07T09:28:01.982Z</time>
      </trkpt>
      <trkpt lat="48.61396" lon="2.10571">
        <ele>106</ele>
        <time>2021-03-07T09:28:02.982Z</time>
      </trkpt>
      <trkpt lat="48.61395" lon="2.1057">
        <ele>106</ele>
        <time>2021-03-07T09:28:03.981Z</time>
      </trkpt>
      <trkpt lat="48.61395" lon="2.10569">
        <ele>106</ele>
        <time>2021-03-07T09:28:04.981Z</time>
      </trkpt>
      <trkpt lat="48.61394" lon="2.10567">
        <ele>106</ele>
        <time>2021-03-07T09:28:05.982Z</time>
      </trkpt>
      <trkpt lat="48.61393" lon="2.10566">
        <ele>107</ele>
        <time>2021-03-07T09:28:06.982Z</time>
      </trkpt>
      <trkpt lat="48.61392" lon="2.10565">
        <ele>107</ele>
        <time>2021-03-07T09:28:07.981Z</time>
      </trkpt>
      <trkpt lat="48.61391" lon="2.10564">
        <ele>107</ele>
        <time>2021-03-07T09:28:08.982Z</time>
      </trkpt>
      <trkpt lat="48.6139" lon="2.10563">
        <ele>107</ele>
        <time>2021-03-07T09:28:09.982Z</time>
      </trkpt>
      <trkpt lat="48.61389" lon="2.10562">
        <ele>107</ele>
        <time>2021-03-07T09:28:10.982Z</time>
      </trkpt>
      <trkpt lat="48.61388" lon="2.10561">
        <ele>107</ele>
        <time>2021-03-07T09:28:11.982Z</time>
      </trkpt>
      <trkpt lat="48.61387" lon="2.1056">
        <ele>107</ele>
        <time>2021-03-07T09:28:12.981Z</time>
      </trkpt>
      <trkpt lat="48.61386" lon="2.10559">
        <ele>107</ele>
        <time>2021-03-07T09:28:13.981Z</time>
      </trkpt>
      <trkpt lat="48.61385" lon="2.10558">
        <ele>107</ele>
        <time>2021-03-07T09:28:14.982Z</time>
      </trkpt>
      <trkpt lat="48.61384" lon="2.10557">
        <ele>106</ele>
        <time>2021-03-07T09:28:15.982Z</time>
      </trkpt>
      <trkpt lat="48.61384" lon="2.10556">
        <ele>106</ele>
        <time>2021-03-07T09:28:16.982Z</time>
      </trkpt>
      <trkpt lat="48.61383" lon="2.10555">
        <ele>106</ele>
        <time>2021-03-07T09:28:17.981Z</time>
      </trkpt>
      <trkpt lat="48.61381" lon="2.10554">
        <ele>106</ele>
        <time>2021-03-07T09:28:18.982Z</time>
      </trkpt>
      <trkpt lat="48.6138" lon="2.10553">
        <ele>106</ele>
        <time>2021-03-07T09:28:19.982Z</time>
      </trkpt>
      <trkpt lat="48.61379" lon="2.10552">
        <ele>105</ele>
        <time>2021-03-07T09:28:20.981Z</time>
      </trkpt>
      <trkpt lat="48.61378" lon="2.10551">
        <ele>105</ele>
        <time>2021-03-07T09:28:21.981Z</time>
      </trkpt>
      <trkpt lat="48.61377" lon="2.1055">
        <ele>105</ele>
        <time>2021-03-07T09:28:22.982Z</time>
      </trkpt>
      <trkpt lat="48.61376" lon="2.10549">
        <ele>105</ele>
        <time>2021-03-07T09:28:23.982Z</time>
      </trkpt>
      <trkpt lat="48.61375" lon="2.10548">
        <ele>105</ele>
        <time>2021-03-07T09:28:24.982Z</time>
      </trkpt>
      <trkpt lat="48.61374" lon="2.10547">
        <ele>105</ele>
        <time>2021-03-07T09:28:25.982Z</time>
      </trkpt>
      <trkpt lat="48.61374" lon="2.10547">
        <ele>105</ele>
        <time>2021-03-07T09:28:26.981Z</time>
      </trkpt>
      <trkpt lat="48.61373" lon="2.10546">
        <ele>106</ele>
        <time>2021-03-07T09:28:27.982Z</time>
      </trkpt>
      <trkpt lat="48.61372" lon="2.10545">
        <ele>106</ele>
        <time>2021-03-07T09:28:28.982Z</time>
      </trkpt>
      <trkpt lat="48.61371" lon="2.10545">
        <ele>106</ele>
        <time>2021-03-07T09:28:29.982Z</time>
      </trkpt>
      <trkpt lat="48.61369" lon="2.10544">
        <ele>106</ele>
        <time>2021-03-07T09:28:30.982Z</time>
      </trkpt>
      <trkpt lat="48.61368" lon="2.10543">
        <ele>106</ele>
        <time>2021-03-07T09:28:31.981Z</time>
      </trkpt>
      <trkpt lat="48.61367" lon="2.10543">
        <ele>107</ele>
        <time>2021-03-07T09:28:32.982Z</time>
      </trkpt>
      <trkpt lat="48.61366" lon="2.10542">
        <ele>107</ele>
        <time>2021-03-07T09:28:33.981Z</time>
      </trkpt>
      <trkpt lat="48.61365" lon="2.10542">
        <ele>108</ele>
        <time>2021-03-07T09:28:34.981Z</time>
      </trkpt>
      <trkpt lat="48.61364" lon="2.10541">
        <ele>109</ele>
        <time>2021-03-07T09:28:35.982Z</time>
      </trkpt>
      <trkpt lat="48.61363" lon="2.1054">
        <ele>110</ele>
        <time>2021-03-07T09:28:36.981Z</time>
      </trkpt>
      <trkpt lat="48.61362" lon="2.1054">
        <ele>111</ele>
        <time>2021-03-07T09:28:37.982Z</time>
      </trkpt>
      <trkpt lat="48.61361" lon="2.1054">
        <ele>110</ele>
        <time>2021-03-07T09:28:38.982Z</time>
      </trkpt>
      <trkpt lat="48.6136" lon="2.1054">
        <ele>110</ele>
        <time>2021-03-07T09:28:39.982Z</time>
      </trkpt>
      <trkpt lat="48.61359" lon="2.1054">
        <ele>110</ele>
        <time>2021-03-07T09:28:40.982Z</time>
      </trkpt>
      <trkpt lat="48.61358" lon="2.10539">
        <ele>110</ele>
        <time>2021-03-07T09:28:41.982Z</time>
      </trkpt>
      <trkpt lat="48.61357" lon="2.10539">
        <ele>110</ele>
        <time>2021-03-07T09:28:42.982Z</time>
      </trkpt>
      <trkpt lat="48.61356" lon="2.10538">
        <ele>110</ele>
        <time>2021-03-07T09:28:43.981Z</time>
      </trkpt>
      <trkpt lat="48.61355" lon="2.10538">
        <ele>110</ele>
        <time>2021-03-07T09:28:44.982Z</time>
      </trkpt>
      <trkpt lat="48.61354" lon="2.10538">
        <ele>110</ele>
        <time>2021-03-07T09:28:45.982Z</time>
      </trkpt>
      <trkpt lat="48.61353" lon="2.10537">
        <ele>110</ele>
        <time>2021-03-07T09:28:46.982Z</time>
      </trkpt>
      <trkpt lat="48.61352" lon="2.10537">
        <ele>110</ele>
        <time>2021-03-07T09:28:47.982Z</time>
      </trkpt>
      <trkpt lat="48.61351" lon="2.10536">
        <ele>110</ele>
        <time>2021-03-07T09:28:48.982Z</time>
      </trkpt>
      <trkpt lat="48.6135" lon="2.10536">
        <ele>109</ele>
        <time>2021-03-07T09:28:49.982Z</time>
      </trkpt>
      <trkpt lat="48.61349" lon="2.10535">
        <ele>109</ele>
        <time>2021-03-07T09:28:50.982Z</time>
      </trkpt>
      <trkpt lat="48.61348" lon="2.10535">
        <ele>109</ele>
        <time>2021-03-07T09:28:51.982Z</time>
      </trkpt>
      <trkpt lat="48.61347" lon="2.10535">
        <ele>110</ele>
        <time>2021-03-07T09:28:52.982Z</time>
      </trkpt>
      <trkpt lat="48.61346" lon="2.10534">
        <ele>110</ele>
        <time>2021-03-07T09:28:53.982Z</time>
      </trkpt>
      <trkpt lat="48.61344" lon="2.10534">
        <ele>111</ele>
        <time>2021-03-07T09:28:54.982Z</time>
      </trkpt>
      <trkpt lat="48.61343" lon="2.10534">
        <ele>111</ele>
        <time>2021-03-07T09:28:55.982Z</time>
      </trkpt>
      <trkpt lat="48.61342" lon="2.10534">
        <ele>111</ele>
        <time>2021-03-07T09:28:56.981Z</time>
      </trkpt>
      <trkpt lat="48.61341" lon="2.10534">
        <ele>111</ele>
        <time>2021-03-07T09:28:57.982Z</time>
      </trkpt>
      <trkpt lat="48.61339" lon="2.10533">
        <ele>111</ele>
        <time>2021-03-07T09:28:58.982Z</time>
      </trkpt>
      <trkpt lat="48.61338" lon="2.10533">
        <ele>110</ele>
        <time>2021-03-07T09:28:59.982Z</time>
      </trkpt>
      <trkpt lat="48.61337" lon="2.10533">
        <ele>110</ele>
        <time>2021-03-07T09:29:00.982Z</time>
      </trkpt>
      <trkpt lat="48.61335" lon="2.10533">
        <ele>110</ele>
        <time>2021-03-07T09:29:01.982Z</time>
      </trkpt>
      <trkpt lat="48.61334" lon="2.10533">
        <ele>110</ele>
        <time>2021-03-07T09:29:02.982Z</time>
      </trkpt>
      <trkpt lat="48.61333" lon="2.10532">
        <ele>110</ele>
        <time>2021-03-07T09:29:03.982Z</time>
      </trkpt>
      <trkpt lat="48.61332" lon="2.10532">
        <ele>110</ele>
        <time>2021-03-07T09:29:04.981Z</time>
      </trkpt>
      <trkpt lat="48.61331" lon="2.10532">
        <ele>111</ele>
        <time>2021-03-07T09:29:05.982Z</time>
      </trkpt>
      <trkpt lat="48.61329" lon="2.10533">
        <ele>111</ele>
        <time>2021-03-07T09:29:06.981Z</time>
      </trkpt>
      <trkpt lat="48.61328" lon="2.10533">
        <ele>111</ele>
        <time>2021-03-07T09:29:07.982Z</time>
      </trkpt>
      <trkpt lat="48.61327" lon="2.10533">
        <ele>111</ele>
        <time>2021-03-07T09:29:08.981Z</time>
      </trkpt>
      <trkpt lat="48.61326" lon="2.10533">
        <ele>110</ele>
        <time>2021-03-07T09:29:09.982Z</time>
      </trkpt>
      <trkpt lat="48.61324" lon="2.10533">
        <ele>110</ele>
        <time>2021-03-07T09:29:10.982Z</time>
      </trkpt>
      <trkpt lat="48.61323" lon="2.10533">
        <ele>110</ele>
        <time>2021-03-07T09:29:11.982Z</time>
      </trkpt>
      <trkpt lat="48.61322" lon="2.10533">
        <ele>110</ele>
        <time>2021-03-07T09:29:12.982Z</time>
      </trkpt>
      <trkpt lat="48.61321" lon="2.10532">
        <ele>110</ele>
        <time>2021-03-07T09:29:13.982Z</time>
      </trkpt>
      <trkpt lat="48.6132" lon="2.10532">
        <ele>110</ele>
        <time>2021-03-07T09:29:14.981Z</time>
      </trkpt>
      <trkpt lat="48.61318" lon="2.10533">
        <ele>110</ele>
        <time>2021-03-07T09:29:15.982Z</time>
      </trkpt>
      <trkpt lat="48.61317" lon="2.10533">
        <ele>110</ele>
        <time>2021-03-07T09:29:16.982Z</time>
      </trkpt>
      <trkpt lat="48.61316" lon="2.10534">
        <ele>110</ele>
        <time>2021-03-07T09:29:17.981Z</time>
      </trkpt>
      <trkpt lat="48.61314" lon="2.10534">
        <ele>110</ele>
        <time>2021-03-07T09:29:18.982Z</time>
      </trkpt>
      <trkpt lat="48.61313" lon="2.10534">
        <ele>111</ele>
        <time>2021-03-07T09:29:19.981Z</time>
      </trkpt>
      <trkpt lat="48.61312" lon="2.10534">
        <ele>112</ele>
        <time>2021-03-07T09:29:20.982Z</time>
      </trkpt>
      <trkpt lat="48.61311" lon="2.10534">
        <ele>112</ele>
        <time>2021-03-07T09:29:21.982Z</time>
      </trkpt>
      <trkpt lat="48.6131" lon="2.10534">
        <ele>113</ele>
        <time>2021-03-07T09:29:22.982Z</time>
      </trkpt>
      <trkpt lat="48.61309" lon="2.10533">
        <ele>114</ele>
        <time>2021-03-07T09:29:23.982Z</time>
      </trkpt>
      <trkpt lat="48.61307" lon="2.10533">
        <ele>115</ele>
        <time>2021-03-07T09:29:24.982Z</time>
      </trkpt>
      <trkpt lat="48.61306" lon="2.10533">
        <ele>115</ele>
        <time>2021-03-07T09:29:25.982Z</time>
      </trkpt>
      <trkpt lat="48.61305" lon="2.10533">
        <ele>117</ele>
        <time>2021-03-07T09:29:26.982Z</time>
      </trkpt>
      <trkpt lat="48.61304" lon="2.10534">
        <ele>118</ele>
        <time>2021-03-07T09:29:27.982Z</time>
      </trkpt>
      <trkpt lat="48.61303" lon="2.10534">
        <ele>118</ele>
        <time>2021-03-07T09:29:28.981Z</time>
      </trkpt>
      <trkpt lat="48.61302" lon="2.10534">
        <ele>119</ele>
        <time>2021-03-07T09:29:29.982Z</time>
      </trkpt>
      <trkpt lat="48.61301" lon="2.10534">
        <ele>120</ele>
        <time>2021-03-07T09:29:30.981Z</time>
      </trkpt>
      <trkpt lat="48.61299" lon="2.10534">
        <ele>120</ele>
        <time>2021-03-07T09:29:31.982Z</time>
      </trkpt>
      <trkpt lat="48.61298" lon="2.10535">
        <ele>121</ele>
        <time>2021-03-07T09:29:32.982Z</time>
      </trkpt>
      <trkpt lat="48.61297" lon="2.10535">
        <ele>121</ele>
        <time>2021-03-07T09:29:33.981Z</time>
      </trkpt>
      <trkpt lat="48.61296" lon="2.10535">
        <ele>121</ele>
        <time>2021-03-07T09:29:34.982Z</time>
      </trkpt>
      <trkpt lat="48.61295" lon="2.10536">
        <ele>121</ele>
        <time>2021-03-07T09:29:35.981Z</time>
      </trkpt>
      <trkpt lat="48.61294" lon="2.10536">
        <ele>121</ele>
        <time>2021-03-07T09:29:36.982Z</time>
      </trkpt>
      <trkpt lat="48.61293" lon="2.10536">
        <ele>121</ele>
        <time>2021-03-07T09:29:37.981Z</time>
      </trkpt>
      <trkpt lat="48.61291" lon="2.10535">
        <ele>121</ele>
        <time>2021-03-07T09:29:38.982Z</time>
      </trkpt>
      <trkpt lat="48.6129" lon="2.10535">
        <ele>121</ele>
        <time>2021-03-07T09:29:39.982Z</time>
      </trkpt>
      <trkpt lat="48.61289" lon="2.10535">
        <ele>120</ele>
        <time>2021-03-07T09:29:40.982Z</time>
      </trkpt>
      <trkpt lat="48.61287" lon="2.10534">
        <ele>120</ele>
        <time>2021-03-07T09:29:41.982Z</time>
      </trkpt>
      <trkpt lat="48.61286" lon="2.10534">
        <ele>119</ele>
        <time>2021-03-07T09:29:42.982Z</time>
      </trkpt>
      <trkpt lat="48.61285" lon="2.10533">
        <ele>119</ele>
        <time>2021-03-07T09:29:43.982Z</time>
      </trkpt>
      <trkpt lat="48.61284" lon="2.10533">
        <ele>119</ele>
        <time>2021-03-07T09:29:44.982Z</time>
      </trkpt>
      <trkpt lat="48.61283" lon="2.10532">
        <ele>119</ele>
        <time>2021-03-07T09:29:45.982Z</time>
      </trkpt>
      <trkpt lat="48.61281" lon="2.10532">
        <ele>119</ele>
        <time>2021-03-07T09:29:46.981Z</time>
      </trkpt>
      <trkpt lat="48.6128" lon="2.10531">
        <ele>119</ele>
        <time>2021-03-07T09:29:47.982Z</time>
      </trkpt>
      <trkpt lat="48.61278" lon="2.10531">
        <ele>119</ele>
        <time>2021-03-07T09:29:48.982Z</time>
      </trkpt>
      <trkpt lat="48.61277" lon="2.10531">
        <ele>119</ele>
        <time>2021-03-07T09:29:49.982Z</time>
      </trkpt>
      <trkpt lat="48.61276" lon="2.10531">
        <ele>119</ele>
        <time>2021-03-07T09:29:50.981Z</time>
      </trkpt>
      <trkpt lat="48.61275" lon="2.10532">
        <ele>119</ele>
        <time>2021-03-07T09:29:51.982Z</time>
      </trkpt>
      <trkpt lat="48.61274" lon="2.10532">
        <ele>119</ele>
        <time>2021-03-07T09:29:52.982Z</time>
      </trkpt>
      <trkpt lat="48.61273" lon="2.10532">
        <ele>120</ele>
        <time>2021-03-07T09:29:53.981Z</time>
      </trkpt>
      <trkpt lat="48.61272" lon="2.10532">
        <ele>120</ele>
        <time>2021-03-07T09:29:54.981Z</time>
      </trkpt>
      <trkpt lat="48.61271" lon="2.10531">
        <ele>120</ele>
        <time>2021-03-07T09:29:55.982Z</time>
      </trkpt>
      <trkpt lat="48.6127" lon="2.1053">
        <ele>119</ele>
        <time>2021-03-07T09:29:56.981Z</time>
      </trkpt>
      <trkpt lat="48.61269" lon="2.1053">
        <ele>118</ele>
        <time>2021-03-07T09:29:57.982Z</time>
      </trkpt>
      <trkpt lat="48.61267" lon="2.1053">
        <ele>117</ele>
        <time>2021-03-07T09:29:58.981Z</time>
      </trkpt>
      <trkpt lat="48.61266" lon="2.1053">
        <ele>116</ele>
        <time>2021-03-07T09:29:59.982Z</time>
      </trkpt>
      <trkpt lat="48.61265" lon="2.1053">
        <ele>115</ele>
        <time>2021-03-07T09:30:00.982Z</time>
      </trkpt>
      <trkpt lat="48.61264" lon="2.1053">
        <ele>115</ele>
        <time>2021-03-07T09:30:01.982Z</time>
      </trkpt>
      <trkpt lat="48.61262" lon="2.1053">
        <ele>115</ele>
        <time>2021-03-07T09:30:02.982Z</time>
      </trkpt>
      <trkpt lat="48.61261" lon="2.1053">
        <ele>115</ele>
        <time>2021-03-07T09:30:03.982Z</time>
      </trkpt>
      <trkpt lat="48.6126" lon="2.1053">
        <ele>114</ele>
        <time>2021-03-07T09:30:04.981Z</time>
      </trkpt>
      <trkpt lat="48.61258" lon="2.1053">
        <ele>114</ele>
        <time>2021-03-07T09:30:05.981Z</time>
      </trkpt>
      <trkpt lat="48.61257" lon="2.10529">
        <ele>113</ele>
        <time>2021-03-07T09:30:06.982Z</time>
      </trkpt>
      <trkpt lat="48.61256" lon="2.10529">
        <ele>113</ele>
        <time>2021-03-07T09:30:07.982Z</time>
      </trkpt>
      <trkpt lat="48.61254" lon="2.10529">
        <ele>112</ele>
        <time>2021-03-07T09:30:08.982Z</time>
      </trkpt>
      <trkpt lat="48.61253" lon="2.10529">
        <ele>111</ele>
        <time>2021-03-07T09:30:09.982Z</time>
      </trkpt>
      <trkpt lat="48.61252" lon="2.10528">
        <ele>111</ele>
        <time>2021-03-07T09:30:10.981Z</time>
      </trkpt>
      <trkpt lat="48.61251" lon="2.10528">
        <ele>110</ele>
        <time>2021-03-07T09:30:11.982Z</time>
      </trkpt>
      <trkpt lat="48.6125" lon="2.10528">
        <ele>110</ele>
        <time>2021-03-07T09:30:12.982Z</time>
      </trkpt>
      <trkpt lat="48.61249" lon="2.10528">
        <ele>110</ele>
        <time>2021-03-07T09:30:13.981Z</time>
      </trkpt>
      <trkpt lat="48.61247" lon="2.10528">
        <ele>110</ele>
        <time>2021-03-07T09:30:14.981Z</time>
      </trkpt>
      <trkpt lat="48.61246" lon="2.10528">
        <ele>111</ele>
        <time>2021-03-07T09:30:15.981Z</time>
      </trkpt>
      <trkpt lat="48.61245" lon="2.10527">
        <ele>111</ele>
        <time>2021-03-07T09:30:16.982Z</time>
      </trkpt>
      <trkpt lat="48.61243" lon="2.10527">
        <ele>111</ele>
        <time>2021-03-07T09:30:17.982Z</time>
      </trkpt>
      <trkpt lat="48.61242" lon="2.10527">
        <ele>111</ele>
        <time>2021-03-07T09:30:18.982Z</time>
      </trkpt>
      <trkpt lat="48.61241" lon="2.10527">
        <ele>112</ele>
        <time>2021-03-07T09:30:19.982Z</time>
      </trkpt>
      <trkpt lat="48.6124" lon="2.10528">
        <ele>112</ele>
        <time>2021-03-07T09:30:20.982Z</time>
      </trkpt>
      <trkpt lat="48.61238" lon="2.10528">
        <ele>112</ele>
        <time>2021-03-07T09:30:21.982Z</time>
      </trkpt>
      <trkpt lat="48.61237" lon="2.10527">
        <ele>112</ele>
        <time>2021-03-07T09:30:22.981Z</time>
      </trkpt>
      <trkpt lat="48.61236" lon="2.10527">
        <ele>112</ele>
        <time>2021-03-07T09:30:23.982Z</time>
      </trkpt>
      <trkpt lat="48.61235" lon="2.10527">
        <ele>112</ele>
        <time>2021-03-07T09:30:24.981Z</time>
      </trkpt>
      <trkpt lat="48.61233" lon="2.10527">
        <ele>112</ele>
        <time>2021-03-07T09:30:25.982Z</time>
      </trkpt>
      <trkpt lat="48.61232" lon="2.10527">
        <ele>112</ele>
        <time>2021-03-07T09:30:26.981Z</time>
      </trkpt>
      <trkpt lat="48.61231" lon="2.10527">
        <ele>111</ele>
        <time>2021-03-07T09:30:27.982Z</time>
      </trkpt>
      <trkpt lat="48.61229" lon="2.10527">
        <ele>112</ele>
        <time>2021-03-07T09:30:28.982Z</time>
      </trkpt>
      <trkpt lat="48.61228" lon="2.10527">
        <ele>112</ele>
        <time>2021-03-07T09:30:29.982Z</time>
      </trkpt>
      <trkpt lat="48.61227" lon="2.10527">
        <ele>112</ele>
        <time>2021-03-07T09:30:30.981Z</time>
      </trkpt>
      <trkpt lat="48.61226" lon="2.10528">
        <ele>112</ele>
        <time>2021-03-07T09:30:31.982Z</time>
      </trkpt>
      <trkpt lat="48.61224" lon="2.10528">
        <ele>113</ele>
        <time>2021-03-07T09:30:32.982Z</time>
      </trkpt>
      <trkpt lat="48.61223" lon="2.10528">
        <ele>113</ele>
        <time>2021-03-07T09:30:33.981Z</time>
      </trkpt>
      <trkpt lat="48.61222" lon="2.10528">
        <ele>113</ele>
        <time>2021-03-07T09:30:34.982Z</time>
      </trkpt>
      <trkpt lat="48.6122" lon="2.10528">
        <ele>113</ele>
        <time>2021-03-07T09:30:35.982Z</time>
      </trkpt>
      <trkpt lat="48.61219" lon="2.10528">
        <ele>114</ele>
        <time>2021-03-07T09:30:36.982Z</time>
      </trkpt>
      <trkpt lat="48.61218" lon="2.10528">
        <ele>114</ele>
        <time>2021-03-07T09:30:37.982Z</time>
      </trkpt>
      <trkpt lat="48.61216" lon="2.10528">
        <ele>114</ele>
        <time>2021-03-07T09:30:38.981Z</time>
      </trkpt>
      <trkpt lat="48.61215" lon="2.10529">
        <ele>115</ele>
        <time>2021-03-07T09:30:39.982Z</time>
      </trkpt>
      <trkpt lat="48.61214" lon="2.10529">
        <ele>115</ele>
        <time>2021-03-07T09:30:40.981Z</time>
      </trkpt>
      <trkpt lat="48.61213" lon="2.10529">
        <ele>115</ele>
        <time>2021-03-07T09:30:41.982Z</time>
      </trkpt>
      <trkpt lat="48.61211" lon="2.10528">
        <ele>115</ele>
        <time>2021-03-07T09:30:42.982Z</time>
      </trkpt>
      <trkpt lat="48.6121" lon="2.10528">
        <ele>115</ele>
        <time>2021-03-07T09:30:43.982Z</time>
      </trkpt>
      <trkpt lat="48.61209" lon="2.10528">
        <ele>115</ele>
        <time>2021-03-07T09:30:44.982Z</time>
      </trkpt>
      <trkpt lat="48.61208" lon="2.10528">
        <ele>115</ele>
        <time>2021-03-07T09:30:45.982Z</time>
      </trkpt>
      <trkpt lat="48.61207" lon="2.10528">
        <ele>115</ele>
        <time>2021-03-07T09:30:46.982Z</time>
      </trkpt>
      <trkpt lat="48.61205" lon="2.10528">
        <ele>115</ele>
        <time>2021-03-07T09:30:47.982Z</time>
      </trkpt>
      <trkpt lat="48.61204" lon="2.10528">
        <ele>115</ele>
        <time>2021-03-07T09:30:48.982Z</time>
      </trkpt>
      <trkpt lat="48.61203" lon="2.10528">
        <ele>116</ele>
        <time>2021-03-07T09:30:49.981Z</time>
      </trkpt>
      <trkpt lat="48.61202" lon="2.10527">
        <ele>116</ele>
        <time>2021-03-07T09:30:50.982Z</time>
      </trkpt>
      <trkpt lat="48.61201" lon="2.10527">
        <ele>116</ele>
        <time>2021-03-07T09:30:51.981Z</time>
      </trkpt>
      <trkpt lat="48.612" lon="2.10527">
        <ele>116</ele>
        <time>2021-03-07T09:30:52.982Z</time>
      </trkpt>
      <trkpt lat="48.61198" lon="2.10527">
        <ele>116</ele>
        <time>2021-03-07T09:30:53.982Z</time>
      </trkpt>
      <trkpt lat="48.61197" lon="2.10527">
        <ele>116</ele>
        <time>2021-03-07T09:30:54.982Z</time>
      </trkpt>
      <trkpt lat="48.61196" lon="2.10526">
        <ele>116</ele>
        <time>2021-03-07T09:30:55.981Z</time>
      </trkpt>
      <trkpt lat="48.61195" lon="2.10526">
        <ele>116</ele>
        <time>2021-03-07T09:30:56.982Z</time>
      </trkpt>
      <trkpt lat="48.61194" lon="2.10526">
        <ele>116</ele>
        <time>2021-03-07T09:30:57.981Z</time>
      </trkpt>
      <trkpt lat="48.61192" lon="2.10525">
        <ele>116</ele>
        <time>2021-03-07T09:30:58.982Z</time>
      </trkpt>
      <trkpt lat="48.61191" lon="2.10525">
        <ele>115</ele>
        <time>2021-03-07T09:30:59.982Z</time>
      </trkpt>
      <trkpt lat="48.6119" lon="2.10525">
        <ele>115</ele>
        <time>2021-03-07T09:31:00.982Z</time>
      </trkpt>
      <trkpt lat="48.61188" lon="2.10525">
        <ele>115</ele>
        <time>2021-03-07T09:31:01.982Z</time>
      </trkpt>
      <trkpt lat="48.61187" lon="2.10525">
        <ele>115</ele>
        <time>2021-03-07T09:31:02.981Z</time>
      </trkpt>
      <trkpt lat="48.61186" lon="2.10525">
        <ele>115</ele>
        <time>2021-03-07T09:31:03.982Z</time>
      </trkpt>
      <trkpt lat="48.61185" lon="2.10525">
        <ele>115</ele>
        <time>2021-03-07T09:31:04.981Z</time>
      </trkpt>
      <trkpt lat="48.61184" lon="2.10525">
        <ele>116</ele>
        <time>2021-03-07T09:31:05.982Z</time>
      </trkpt>
      <trkpt lat="48.61183" lon="2.10524">
        <ele>116</ele>
        <time>2021-03-07T09:31:06.982Z</time>
      </trkpt>
      <trkpt lat="48.61181" lon="2.10524">
        <ele>116</ele>
        <time>2021-03-07T09:31:07.982Z</time>
      </trkpt>
      <trkpt lat="48.6118" lon="2.10524">
        <ele>116</ele>
        <time>2021-03-07T09:31:08.982Z</time>
      </trkpt>
      <trkpt lat="48.61179" lon="2.10524">
        <ele>116</ele>
        <time>2021-03-07T09:31:09.981Z</time>
      </trkpt>
      <trkpt lat="48.61178" lon="2.10523">
        <ele>116</ele>
        <time>2021-03-07T09:31:10.982Z</time>
      </trkpt>
      <trkpt lat="48.61176" lon="2.10523">
        <ele>116</ele>
        <time>2021-03-07T09:31:11.982Z</time>
      </trkpt>
      <trkpt lat="48.61175" lon="2.10523">
        <ele>116</ele>
        <time>2021-03-07T09:31:12.981Z</time>
      </trkpt>
      <trkpt lat="48.61174" lon="2.10523">
        <ele>117</ele>
        <time>2021-03-07T09:31:13.981Z</time>
      </trkpt>
      <trkpt lat="48.61172" lon="2.10523">
        <ele>117</ele>
        <time>2021-03-07T09:31:14.982Z</time>
      </trkpt>
      <trkpt lat="48.6117" lon="2.10523">
        <ele>117</ele>
        <time>2021-03-07T09:31:15.981Z</time>
      </trkpt>
      <trkpt lat="48.61169" lon="2.10523">
        <ele>117</ele>
        <time>2021-03-07T09:31:16.982Z</time>
      </trkpt>
      <trkpt lat="48.61168" lon="2.10523">
        <ele>117</ele>
        <time>2021-03-07T09:31:17.982Z</time>
      </trkpt>
      <trkpt lat="48.61166" lon="2.10522">
        <ele>116</ele>
        <time>2021-03-07T09:31:18.982Z</time>
      </trkpt>
      <trkpt lat="48.61165" lon="2.10522">
        <ele>116</ele>
        <time>2021-03-07T09:31:19.982Z</time>
      </trkpt>
      <trkpt lat="48.61164" lon="2.10521">
        <ele>116</ele>
        <time>2021-03-07T09:31:20.982Z</time>
      </trkpt>
      <trkpt lat="48.61163" lon="2.10521">
        <ele>115</ele>
        <time>2021-03-07T09:31:21.982Z</time>
      </trkpt>
      <trkpt lat="48.61161" lon="2.10521">
        <ele>115</ele>
        <time>2021-03-07T09:31:22.981Z</time>
      </trkpt>
      <trkpt lat="48.6116" lon="2.10521">
        <ele>116</ele>
        <time>2021-03-07T09:31:23.982Z</time>
      </trkpt>
      <trkpt lat="48.61158" lon="2.10521">
        <ele>116</ele>
        <time>2021-03-07T09:31:24.982Z</time>
      </trkpt>
      <trkpt lat="48.61157" lon="2.10521">
        <ele>116</ele>
        <time>2021-03-07T09:31:25.982Z</time>
      </trkpt>
      <trkpt lat="48.61156" lon="2.10521">
        <ele>117</ele>
        <time>2021-03-07T09:31:26.982Z</time>
      </trkpt>
      <trkpt lat="48.61154" lon="2.10521">
        <ele>117</ele>
        <time>2021-03-07T09:31:27.982Z</time>
      </trkpt>
      <trkpt lat="48.61153" lon="2.10521">
        <ele>118</ele>
        <time>2021-03-07T09:31:28.982Z</time>
      </trkpt>
      <trkpt lat="48.61152" lon="2.10521">
        <ele>118</ele>
        <time>2021-03-07T09:31:29.982Z</time>
      </trkpt>
      <trkpt lat="48.61151" lon="2.10521">
        <ele>118</ele>
        <time>2021-03-07T09:31:30.981Z</time>
      </trkpt>
      <trkpt lat="48.61149" lon="2.10522">
        <ele>119</ele>
        <time>2021-03-07T09:31:31.982Z</time>
      </trkpt>
      <trkpt lat="48.61148" lon="2.10522">
        <ele>119</ele>
        <time>2021-03-07T09:31:32.982Z</time>
      </trkpt>
      <trkpt lat="48.61147" lon="2.10521">
        <ele>119</ele>
        <time>2021-03-07T09:31:33.982Z</time>
      </trkpt>
      <trkpt lat="48.61146" lon="2.10521">
        <ele>119</ele>
        <time>2021-03-07T09:31:34.982Z</time>
      </trkpt>
      <trkpt lat="48.61145" lon="2.1052">
        <ele>119</ele>
        <time>2021-03-07T09:31:35.981Z</time>
      </trkpt>
      <trkpt lat="48.61144" lon="2.1052">
        <ele>119</ele>
        <time>2021-03-07T09:31:36.982Z</time>
      </trkpt>
      <trkpt lat="48.61143" lon="2.10519">
        <ele>119</ele>
        <time>2021-03-07T09:31:37.982Z</time>
      </trkpt>
      <trkpt lat="48.61141" lon="2.10518">
        <ele>118</ele>
        <time>2021-03-07T09:31:38.982Z</time>
      </trkpt>
      <trkpt lat="48.6114" lon="2.10518">
        <ele>118</ele>
        <time>2021-03-07T09:31:39.982Z</time>
      </trkpt>
      <trkpt lat="48.61139" lon="2.10518">
        <ele>118</ele>
        <time>2021-03-07T09:31:40.982Z</time>
      </trkpt>
      <trkpt lat="48.61138" lon="2.10518">
        <ele>117</ele>
        <time>2021-03-07T09:31:41.981Z</time>
      </trkpt>
      <trkpt lat="48.61136" lon="2.10518">
        <ele>117</ele>
        <time>2021-03-07T09:31:42.982Z</time>
      </trkpt>
      <trkpt lat="48.61135" lon="2.10518">
        <ele>116</ele>
        <time>2021-03-07T09:31:43.981Z</time>
      </trkpt>
      <trkpt lat="48.61134" lon="2.10518">
        <ele>116</ele>
        <time>2021-03-07T09:31:44.981Z</time>
      </trkpt>
      <trkpt lat="48.61133" lon="2.10518">
        <ele>116</ele>
        <time>2021-03-07T09:31:45.982Z</time>
      </trkpt>
      <trkpt lat="48.61131" lon="2.10518">
        <ele>116</ele>
        <time>2021-03-07T09:31:46.982Z</time>
      </trkpt>
      <trkpt lat="48.6113" lon="2.10518">
        <ele>116</ele>
        <time>2021-03-07T09:31:47.982Z</time>
      </trkpt>
      <trkpt lat="48.61129" lon="2.10518">
        <ele>116</ele>
        <time>2021-03-07T09:31:48.982Z</time>
      </trkpt>
      <trkpt lat="48.61127" lon="2.10517">
        <ele>116</ele>
        <time>2021-03-07T09:31:49.982Z</time>
      </trkpt>
      <trkpt lat="48.61126" lon="2.10517">
        <ele>115</ele>
        <time>2021-03-07T09:31:50.982Z</time>
      </trkpt>
      <trkpt lat="48.61125" lon="2.10517">
        <ele>115</ele>
        <time>2021-03-07T09:31:51.982Z</time>
      </trkpt>
      <trkpt lat="48.61124" lon="2.10517">
        <ele>116</ele>
        <time>2021-03-07T09:31:52.982Z</time>
      </trkpt>
      <trkpt lat="48.61122" lon="2.10517">
        <ele>116</ele>
        <time>2021-03-07T09:31:53.982Z</time>
      </trkpt>
      <trkpt lat="48.61121" lon="2.10516">
        <ele>116</ele>
        <time>2021-03-07T09:31:54.981Z</time>
      </trkpt>
      <trkpt lat="48.6112" lon="2.10516">
        <ele>117</ele>
        <time>2021-03-07T09:31:55.982Z</time>
      </trkpt>
      <trkpt lat="48.61118" lon="2.10516">
        <ele>117</ele>
        <time>2021-03-07T09:31:56.982Z</time>
      </trkpt>
      <trkpt lat="48.61117" lon="2.10516">
        <ele>116</ele>
        <time>2021-03-07T09:31:57.982Z</time>
      </trkpt>
      <trkpt lat="48.61116" lon="2.10515">
        <ele>116</ele>
        <time>2021-03-07T09:31:58.982Z</time>
      </trkpt>
      <trkpt lat="48.61114" lon="2.10516">
        <ele>116</ele>
        <time>2021-03-07T09:31:59.982Z</time>
      </trkpt>
      <trkpt lat="48.61113" lon="2.10516">
        <ele>116</ele>
        <time>2021-03-07T09:32:00.981Z</time>
      </trkpt>
      <trkpt lat="48.61112" lon="2.10516">
        <ele>116</ele>
        <time>2021-03-07T09:32:01.982Z</time>
      </trkpt>
      <trkpt lat="48.61111" lon="2.10516">
        <ele>116</ele>
        <time>2021-03-07T09:32:02.981Z</time>
      </trkpt>
      <trkpt lat="48.6111" lon="2.10516">
        <ele>116</ele>
        <time>2021-03-07T09:32:03.982Z</time>
      </trkpt>
      <trkpt lat="48.61108" lon="2.10516">
        <ele>116</ele>
        <time>2021-03-07T09:32:04.982Z</time>
      </trkpt>
      <trkpt lat="48.61107" lon="2.10516">
        <ele>116</ele>
        <time>2021-03-07T09:32:05.982Z</time>
      </trkpt>
      <trkpt lat="48.61105" lon="2.10516">
        <ele>116</ele>
        <time>2021-03-07T09:32:06.982Z</time>
      </trkpt>
      <trkpt lat="48.61104" lon="2.10516">
        <ele>116</ele>
        <time>2021-03-07T09:32:07.982Z</time>
      </trkpt>
      <trkpt lat="48.61103" lon="2.10516">
        <ele>116</ele>
        <time>2021-03-07T09:32:08.982Z</time>
      </trkpt>
      <trkpt lat="48.61102" lon="2.10516">
        <ele>116</ele>
        <time>2021-03-07T09:32:09.981Z</time>
      </trkpt>
      <trkpt lat="48.61101" lon="2.10516">
        <ele>117</ele>
        <time>2021-03-07T09:32:10.982Z</time>
      </trkpt>
      <trkpt lat="48.611" lon="2.10516">
        <ele>117</ele>
        <time>2021-03-07T09:32:11.982Z</time>
      </trkpt>
      <trkpt lat="48.61098" lon="2.10516">
        <ele>118</ele>
        <time>2021-03-07T09:32:12.981Z</time>
      </trkpt>
      <trkpt lat="48.61097" lon="2.10516">
        <ele>118</ele>
        <time>2021-03-07T09:32:13.982Z</time>
      </trkpt>
      <trkpt lat="48.61096" lon="2.10516">
        <ele>118</ele>
        <time>2021-03-07T09:32:14.982Z</time>
      </trkpt>
      <trkpt lat="48.61094" lon="2.10516">
        <ele>118</ele>
        <time>2021-03-07T09:32:15.982Z</time>
      </trkpt>
      <trkpt lat="48.61094" lon="2.10516">
        <ele>118</ele>
        <time>2021-03-07T09:32:16.982Z</time>
      </trkpt>
      <trkpt lat="48.61092" lon="2.10515">
        <ele>118</ele>
        <time>2021-03-07T09:32:17.982Z</time>
      </trkpt>
      <trkpt lat="48.61091" lon="2.10515">
        <ele>117</ele>
        <time>2021-03-07T09:32:18.981Z</time>
      </trkpt>
      <trkpt lat="48.6109" lon="2.10515">
        <ele>116</ele>
        <time>2021-03-07T09:32:19.981Z</time>
      </trkpt>
      <trkpt lat="48.61089" lon="2.10514">
        <ele>116</ele>
        <time>2021-03-07T09:32:20.982Z</time>
      </trkpt>
      <trkpt lat="48.61088" lon="2.10514">
        <ele>117</ele>
        <time>2021-03-07T09:32:21.982Z</time>
      </trkpt>
      <trkpt lat="48.61087" lon="2.10514">
        <ele>117</ele>
        <time>2021-03-07T09:32:22.982Z</time>
      </trkpt>
      <trkpt lat="48.61086" lon="2.10514">
        <ele>117</ele>
        <time>2021-03-07T09:32:23.982Z</time>
      </trkpt>
      <trkpt lat="48.61085" lon="2.10514">
        <ele>117</ele>
        <time>2021-03-07T09:32:24.981Z</time>
      </trkpt>
      <trkpt lat="48.61083" lon="2.10514">
        <ele>117</ele>
        <time>2021-03-07T09:32:25.982Z</time>
      </trkpt>
      <trkpt lat="48.61082" lon="2.10514">
        <ele>118</ele>
        <time>2021-03-07T09:32:26.981Z</time>
      </trkpt>
      <trkpt lat="48.61081" lon="2.10514">
        <ele>117</ele>
        <time>2021-03-07T09:32:27.982Z</time>
      </trkpt>
      <trkpt lat="48.6108" lon="2.10514">
        <ele>117</ele>
        <time>2021-03-07T09:32:28.981Z</time>
      </trkpt>
      <trkpt lat="48.61079" lon="2.10514">
        <ele>117</ele>
        <time>2021-03-07T09:32:29.982Z</time>
      </trkpt>
      <trkpt lat="48.61077" lon="2.10513">
        <ele>116</ele>
        <time>2021-03-07T09:32:30.982Z</time>
      </trkpt>
      <trkpt lat="48.61077" lon="2.10513">
        <ele>117</ele>
        <time>2021-03-07T09:32:31.982Z</time>
      </trkpt>
      <trkpt lat="48.61076" lon="2.10513">
        <ele>117</ele>
        <time>2021-03-07T09:32:32.982Z</time>
      </trkpt>
      <trkpt lat="48.61074" lon="2.10513">
        <ele>117</ele>
        <time>2021-03-07T09:32:33.982Z</time>
      </trkpt>
      <trkpt lat="48.61073" lon="2.10513">
        <ele>117</ele>
        <time>2021-03-07T09:32:34.982Z</time>
      </trkpt>
      <trkpt lat="48.61072" lon="2.10513">
        <ele>117</ele>
        <time>2021-03-07T09:32:35.982Z</time>
      </trkpt>
      <trkpt lat="48.61071" lon="2.10513">
        <ele>117</ele>
        <time>2021-03-07T09:32:36.982Z</time>
      </trkpt>
      <trkpt lat="48.6107" lon="2.10512">
        <ele>117</ele>
        <time>2021-03-07T09:32:37.981Z</time>
      </trkpt>
      <trkpt lat="48.61068" lon="2.10512">
        <ele>117</ele>
        <time>2021-03-07T09:32:38.981Z</time>
      </trkpt>
      <trkpt lat="48.61067" lon="2.10511">
        <ele>117</ele>
        <time>2021-03-07T09:32:39.981Z</time>
      </trkpt>
      <trkpt lat="48.61066" lon="2.10511">
        <ele>117</ele>
        <time>2021-03-07T09:32:40.981Z</time>
      </trkpt>
      <trkpt lat="48.61064" lon="2.10511">
        <ele>117</ele>
        <time>2021-03-07T09:32:41.982Z</time>
      </trkpt>
      <trkpt lat="48.61063" lon="2.10511">
        <ele>117</ele>
        <time>2021-03-07T09:32:42.981Z</time>
      </trkpt>
      <trkpt lat="48.61062" lon="2.10512">
        <ele>117</ele>
        <time>2021-03-07T09:32:43.982Z</time>
      </trkpt>
      <trkpt lat="48.6106" lon="2.10512">
        <ele>117</ele>
        <time>2021-03-07T09:32:44.981Z</time>
      </trkpt>
      <trkpt lat="48.61059" lon="2.10512">
        <ele>117</ele>
        <time>2021-03-07T09:32:45.982Z</time>
      </trkpt>
      <trkpt lat="48.61058" lon="2.10512">
        <ele>117</ele>
        <time>2021-03-07T09:32:46.982Z</time>
      </trkpt>
      <trkpt lat="48.61056" lon="2.10512">
        <ele>117</ele>
        <time>2021-03-07T09:32:47.982Z</time>
      </trkpt>
      <trkpt lat="48.61055" lon="2.10512">
        <ele>117</ele>
        <time>2021-03-07T09:32:48.982Z</time>
      </trkpt>
      <trkpt lat="48.61054" lon="2.10512">
        <ele>117</ele>
        <time>2021-03-07T09:32:49.982Z</time>
      </trkpt>
      <trkpt lat="48.61053" lon="2.10512">
        <ele>117</ele>
        <time>2021-03-07T09:32:50.982Z</time>
      </trkpt>
      <trkpt lat="48.61052" lon="2.10511">
        <ele>117</ele>
        <time>2021-03-07T09:32:51.981Z</time>
      </trkpt>
      <trkpt lat="48.61051" lon="2.10511">
        <ele>117</ele>
        <time>2021-03-07T09:32:52.982Z</time>
      </trkpt>
      <trkpt lat="48.6105" lon="2.10511">
        <ele>117</ele>
        <time>2021-03-07T09:32:53.982Z</time>
      </trkpt>
      <trkpt lat="48.61048" lon="2.10511">
        <ele>117</ele>
        <time>2021-03-07T09:32:54.982Z</time>
      </trkpt>
      <trkpt lat="48.61047" lon="2.1051">
        <ele>117</ele>
        <time>2021-03-07T09:32:55.982Z</time>
      </trkpt>
      <trkpt lat="48.61046" lon="2.1051">
        <ele>117</ele>
        <time>2021-03-07T09:32:56.982Z</time>
      </trkpt>
      <trkpt lat="48.61045" lon="2.1051">
        <ele>117</ele>
        <time>2021-03-07T09:32:57.982Z</time>
      </trkpt>
      <trkpt lat="48.61043" lon="2.1051">
        <ele>117</ele>
        <time>2021-03-07T09:32:58.981Z</time>
      </trkpt>
      <trkpt lat="48.61042" lon="2.10511">
        <ele>118</ele>
        <time>2021-03-07T09:32:59.982Z</time>
      </trkpt>
      <trkpt lat="48.61041" lon="2.10511">
        <ele>118</ele>
        <time>2021-03-07T09:33:00.982Z</time>
      </trkpt>
      <trkpt lat="48.6104" lon="2.10511">
        <ele>119</ele>
        <time>2021-03-07T09:33:01.982Z</time>
      </trkpt>
      <trkpt lat="48.61038" lon="2.10511">
        <ele>119</ele>
        <time>2021-03-07T09:33:02.981Z</time>
      </trkpt>
      <trkpt lat="48.61037" lon="2.10511">
        <ele>120</ele>
        <time>2021-03-07T09:33:03.982Z</time>
      </trkpt>
      <trkpt lat="48.61036" lon="2.10511">
        <ele>120</ele>
        <time>2021-03-07T09:33:04.982Z</time>
      </trkpt>
      <trkpt lat="48.61034" lon="2.10511">
        <ele>120</ele>
        <time>2021-03-07T09:33:05.982Z</time>
      </trkpt>
      <trkpt lat="48.61033" lon="2.1051">
        <ele>120</ele>
        <time>2021-03-07T09:33:06.982Z</time>
      </trkpt>
      <trkpt lat="48.61031" lon="2.1051">
        <ele>120</ele>
        <time>2021-03-07T09:33:07.982Z</time>
      </trkpt>
      <trkpt lat="48.6103" lon="2.1051">
        <ele>120</ele>
        <time>2021-03-07T09:33:08.981Z</time>
      </trkpt>
      <trkpt lat="48.61029" lon="2.1051">
        <ele>120</ele>
        <time>2021-03-07T09:33:09.982Z</time>
      </trkpt>
      <trkpt lat="48.61027" lon="2.1051">
        <ele>120</ele>
        <time>2021-03-07T09:33:10.981Z</time>
      </trkpt>
      <trkpt lat="48.61026" lon="2.1051">
        <ele>120</ele>
        <time>2021-03-07T09:33:11.982Z</time>
      </trkpt>
      <trkpt lat="48.61025" lon="2.1051">
        <ele>120</ele>
        <time>2021-03-07T09:33:12.982Z</time>
      </trkpt>
      <trkpt lat="48.61024" lon="2.10509">
        <ele>120</ele>
        <time>2021-03-07T09:33:13.982Z</time>
      </trkpt>
      <trkpt lat="48.61023" lon="2.10509">
        <ele>120</ele>
        <time>2021-03-07T09:33:14.982Z</time>
      </trkpt>
      <trkpt lat="48.61021" lon="2.10509">
        <ele>120</ele>
        <time>2021-03-07T09:33:15.982Z</time>
      </trkpt>
      <trkpt lat="48.6102" lon="2.10509">
        <ele>120</ele>
        <time>2021-03-07T09:33:16.982Z</time>
      </trkpt>
      <trkpt lat="48.61018" lon="2.10509">
        <ele>120</ele>
        <time>2021-03-07T09:33:17.982Z</time>
      </trkpt>
      <trkpt lat="48.61017" lon="2.10508">
        <ele>119</ele>
        <time>2021-03-07T09:33:18.982Z</time>
      </trkpt>
      <trkpt lat="48.61016" lon="2.10508">
        <ele>119</ele>
        <time>2021-03-07T09:33:19.982Z</time>
      </trkpt>
      <trkpt lat="48.61015" lon="2.10508">
        <ele>119</ele>
        <time>2021-03-07T09:33:20.982Z</time>
      </trkpt>
      <trkpt lat="48.61013" lon="2.10507">
        <ele>118</ele>
        <time>2021-03-07T09:33:21.982Z</time>
      </trkpt>
      <trkpt lat="48.61011" lon="2.10507">
        <ele>118</ele>
        <time>2021-03-07T09:33:22.982Z</time>
      </trkpt>
      <trkpt lat="48.6101" lon="2.10507">
        <ele>117</ele>
        <time>2021-03-07T09:33:23.982Z</time>
      </trkpt>
      <trkpt lat="48.61009" lon="2.10507">
        <ele>117</ele>
        <time>2021-03-07T09:33:24.982Z</time>
      </trkpt>
      <trkpt lat="48.61007" lon="2.10507">
        <ele>117</ele>
        <time>2021-03-07T09:33:25.981Z</time>
      </trkpt>
      <trkpt lat="48.61006" lon="2.10507">
        <ele>117</ele>
        <time>2021-03-07T09:33:26.982Z</time>
      </trkpt>
      <trkpt lat="48.61005" lon="2.10507">
        <ele>117</ele>
        <time>2021-03-07T09:33:27.982Z</time>
      </trkpt>
      <trkpt lat="48.61003" lon="2.10507">
        <ele>117</ele>
        <time>2021-03-07T09:33:28.982Z</time>
      </trkpt>
      <trkpt lat="48.61002" lon="2.10507">
        <ele>117</ele>
        <time>2021-03-07T09:33:29.982Z</time>
      </trkpt>
      <trkpt lat="48.61" lon="2.10507">
        <ele>117</ele>
        <time>2021-03-07T09:33:30.981Z</time>
      </trkpt>
      <trkpt lat="48.60999" lon="2.10506">
        <ele>117</ele>
        <time>2021-03-07T09:33:31.982Z</time>
      </trkpt>
      <trkpt lat="48.60997" lon="2.10506">
        <ele>116</ele>
        <time>2021-03-07T09:33:32.982Z</time>
      </trkpt>
      <trkpt lat="48.60996" lon="2.10506">
        <ele>116</ele>
        <time>2021-03-07T09:33:33.982Z</time>
      </trkpt>
      <trkpt lat="48.60995" lon="2.10506">
        <ele>116</ele>
        <time>2021-03-07T09:33:34.981Z</time>
      </trkpt>
      <trkpt lat="48.60994" lon="2.10506">
        <ele>116</ele>
        <time>2021-03-07T09:33:35.982Z</time>
      </trkpt>
      <trkpt lat="48.60992" lon="2.10506">
        <ele>116</ele>
        <time>2021-03-07T09:33:36.982Z</time>
      </trkpt>
      <trkpt lat="48.60991" lon="2.10505">
        <ele>116</ele>
        <time>2021-03-07T09:33:37.981Z</time>
      </trkpt>
      <trkpt lat="48.60989" lon="2.10505">
        <ele>116</ele>
        <time>2021-03-07T09:33:38.981Z</time>
      </trkpt>
      <trkpt lat="48.60987" lon="2.10505">
        <ele>116</ele>
        <time>2021-03-07T09:33:39.981Z</time>
      </trkpt>
      <trkpt lat="48.60986" lon="2.10505">
        <ele>116</ele>
        <time>2021-03-07T09:33:40.982Z</time>
      </trkpt>
      <trkpt lat="48.60984" lon="2.10504">
        <ele>116</ele>
        <time>2021-03-07T09:33:41.981Z</time>
      </trkpt>
      <trkpt lat="48.60983" lon="2.10504">
        <ele>116</ele>
        <time>2021-03-07T09:33:42.982Z</time>
      </trkpt>
      <trkpt lat="48.60981" lon="2.10504">
        <ele>116</ele>
        <time>2021-03-07T09:33:43.982Z</time>
      </trkpt>
      <trkpt lat="48.60979" lon="2.10504">
        <ele>116</ele>
        <time>2021-03-07T09:33:44.982Z</time>
      </trkpt>
      <trkpt lat="48.60978" lon="2.10504">
        <ele>116</ele>
        <time>2021-03-07T09:33:45.982Z</time>
      </trkpt>
      <trkpt lat="48.60976" lon="2.10504">
        <ele>116</ele>
        <time>2021-03-07T09:33:46.982Z</time>
      </trkpt>
      <trkpt lat="48.60975" lon="2.10503">
        <ele>116</ele>
        <time>2021-03-07T09:33:47.981Z</time>
      </trkpt>
      <trkpt lat="48.60973" lon="2.10503">
        <ele>116</ele>
        <time>2021-03-07T09:33:48.981Z</time>
      </trkpt>
      <trkpt lat="48.60972" lon="2.10503">
        <ele>116</ele>
        <time>2021-03-07T09:33:49.982Z</time>
      </trkpt>
      <trkpt lat="48.6097" lon="2.10502">
        <ele>116</ele>
        <time>2021-03-07T09:33:50.982Z</time>
      </trkpt>
      <trkpt lat="48.60969" lon="2.10502">
        <ele>116</ele>
        <time>2021-03-07T09:33:51.982Z</time>
      </trkpt>
      <trkpt lat="48.60967" lon="2.10502">
        <ele>116</ele>
        <time>2021-03-07T09:33:52.982Z</time>
      </trkpt>
      <trkpt lat="48.60966" lon="2.10502">
        <ele>116</ele>
        <time>2021-03-07T09:33:53.982Z</time>
      </trkpt>
      <trkpt lat="48.60964" lon="2.10502">
        <ele>116</ele>
        <time>2021-03-07T09:33:54.982Z</time>
      </trkpt>
      <trkpt lat="48.60963" lon="2.10501">
        <ele>116</ele>
        <time>2021-03-07T09:33:55.982Z</time>
      </trkpt>
      <trkpt lat="48.60961" lon="2.10501">
        <ele>117</ele>
        <time>2021-03-07T09:33:56.982Z</time>
      </trkpt>
      <trkpt lat="48.6096" lon="2.10501">
        <ele>117</ele>
        <time>2021-03-07T09:33:57.982Z</time>
      </trkpt>
      <trkpt lat="48.60958" lon="2.10501">
        <ele>117</ele>
        <time>2021-03-07T09:33:58.982Z</time>
      </trkpt>
      <trkpt lat="48.60957" lon="2.10501">
        <ele>118</ele>
        <time>2021-03-07T09:33:59.981Z</time>
      </trkpt>
      <trkpt lat="48.60955" lon="2.10501">
        <ele>118</ele>
        <time>2021-03-07T09:34:00.981Z</time>
      </trkpt>
      <trkpt lat="48.60954" lon="2.10501">
        <ele>118</ele>
        <time>2021-03-07T09:34:01.981Z</time>
      </trkpt>
      <trkpt lat="48.60952" lon="2.10501">
        <ele>118</ele>
        <time>2021-03-07T09:34:02.982Z</time>
      </trkpt>
      <trkpt lat="48.60951" lon="2.10501">
        <ele>118</ele>
        <time>2021-03-07T09:34:03.982Z</time>
      </trkpt>
      <trkpt lat="48.6095" lon="2.105">
        <ele>117</ele>
        <time>2021-03-07T09:34:04.982Z</time>
      </trkpt>
      <trkpt lat="48.60948" lon="2.105">
        <ele>118</ele>
        <time>2021-03-07T09:34:05.982Z</time>
      </trkpt>
      <trkpt lat="48.60947" lon="2.105">
        <ele>118</ele>
        <time>2021-03-07T09:34:06.982Z</time>
      </trkpt>
      <trkpt lat="48.60946" lon="2.105">
        <ele>118</ele>
        <time>2021-03-07T09:34:07.982Z</time>
      </trkpt>
      <trkpt lat="48.60944" lon="2.10499">
        <ele>118</ele>
        <time>2021-03-07T09:34:08.981Z</time>
      </trkpt>
      <trkpt lat="48.60943" lon="2.10499">
        <ele>118</ele>
        <time>2021-03-07T09:34:09.982Z</time>
      </trkpt>
      <trkpt lat="48.60942" lon="2.10499">
        <ele>118</ele>
        <time>2021-03-07T09:34:10.982Z</time>
      </trkpt>
      <trkpt lat="48.60941" lon="2.10498">
        <ele>118</ele>
        <time>2021-03-07T09:34:11.981Z</time>
      </trkpt>
      <trkpt lat="48.60939" lon="2.10498">
        <ele>118</ele>
        <time>2021-03-07T09:34:12.982Z</time>
      </trkpt>
      <trkpt lat="48.60938" lon="2.10497">
        <ele>118</ele>
        <time>2021-03-07T09:34:13.982Z</time>
      </trkpt>
      <trkpt lat="48.60936" lon="2.10497">
        <ele>118</ele>
        <time>2021-03-07T09:34:14.982Z</time>
      </trkpt>
      <trkpt lat="48.60935" lon="2.10497">
        <ele>118</ele>
        <time>2021-03-07T09:34:15.981Z</time>
      </trkpt>
      <trkpt lat="48.60934" lon="2.10496">
        <ele>117</ele>
        <time>2021-03-07T09:34:16.981Z</time>
      </trkpt>
      <trkpt lat="48.60933" lon="2.10496">
        <ele>117</ele>
        <time>2021-03-07T09:34:17.981Z</time>
      </trkpt>
      <trkpt lat="48.60932" lon="2.10495">
        <ele>116</ele>
        <time>2021-03-07T09:34:18.981Z</time>
      </trkpt>
      <trkpt lat="48.6093" lon="2.10495">
        <ele>116</ele>
        <time>2021-03-07T09:34:19.982Z</time>
      </trkpt>
      <trkpt lat="48.60929" lon="2.10494">
        <ele>116</ele>
        <time>2021-03-07T09:34:20.982Z</time>
      </trkpt>
      <trkpt lat="48.60927" lon="2.10494">
        <ele>116</ele>
        <time>2021-03-07T09:34:21.982Z</time>
      </trkpt>
      <trkpt lat="48.60926" lon="2.10493">
        <ele>116</ele>
        <time>2021-03-07T09:34:22.982Z</time>
      </trkpt>
      <trkpt lat="48.60924" lon="2.10493">
        <ele>116</ele>
        <time>2021-03-07T09:34:23.982Z</time>
      </trkpt>
      <trkpt lat="48.60923" lon="2.10493">
        <ele>116</ele>
        <time>2021-03-07T09:34:24.982Z</time>
      </trkpt>
      <trkpt lat="48.60922" lon="2.10492">
        <ele>115</ele>
        <time>2021-03-07T09:34:25.981Z</time>
      </trkpt>
      <trkpt lat="48.60921" lon="2.1049">
        <ele>115</ele>
        <time>2021-03-07T09:34:26.981Z</time>
      </trkpt>
      <trkpt lat="48.6092" lon="2.10489">
        <ele>114</ele>
        <time>2021-03-07T09:34:27.982Z</time>
      </trkpt>
      <trkpt lat="48.60919" lon="2.10487">
        <ele>114</ele>
        <time>2021-03-07T09:34:28.982Z</time>
      </trkpt>
      <trkpt lat="48.60919" lon="2.10486">
        <ele>114</ele>
        <time>2021-03-07T09:34:29.982Z</time>
      </trkpt>
      <trkpt lat="48.60918" lon="2.10484">
        <ele>114</ele>
        <time>2021-03-07T09:34:30.981Z</time>
      </trkpt>
      <trkpt lat="48.60918" lon="2.10482">
        <ele>114</ele>
        <time>2021-03-07T09:34:31.981Z</time>
      </trkpt>
      <trkpt lat="48.60917" lon="2.1048">
        <ele>114</ele>
        <time>2021-03-07T09:34:32.981Z</time>
      </trkpt>
      <trkpt lat="48.60917" lon="2.10478">
        <ele>114</ele>
        <time>2021-03-07T09:34:33.982Z</time>
      </trkpt>
      <trkpt lat="48.60917" lon="2.10476">
        <ele>114</ele>
        <time>2021-03-07T09:34:34.982Z</time>
      </trkpt>
      <trkpt lat="48.60918" lon="2.10474">
        <ele>114</ele>
        <time>2021-03-07T09:34:35.982Z</time>
      </trkpt>
      <trkpt lat="48.60918" lon="2.10472">
        <ele>114</ele>
        <time>2021-03-07T09:34:36.982Z</time>
      </trkpt>
      <trkpt lat="48.60918" lon="2.1047">
        <ele>115</ele>
        <time>2021-03-07T09:34:37.981Z</time>
      </trkpt>
      <trkpt lat="48.60918" lon="2.10468">
        <ele>115</ele>
        <time>2021-03-07T09:34:38.982Z</time>
      </trkpt>
      <trkpt lat="48.60918" lon="2.10467">
        <ele>115</ele>
        <time>2021-03-07T09:34:39.982Z</time>
      </trkpt>
      <trkpt lat="48.60918" lon="2.10465">
        <ele>114</ele>
        <time>2021-03-07T09:34:40.982Z</time>
      </trkpt>
      <trkpt lat="48.60918" lon="2.10463">
        <ele>114</ele>
        <time>2021-03-07T09:34:41.982Z</time>
      </trkpt>
      <trkpt lat="48.60918" lon="2.10461">
        <ele>114</ele>
        <time>2021-03-07T09:34:42.982Z</time>
      </trkpt>
      <trkpt lat="48.60918" lon="2.10459">
        <ele>115</ele>
        <time>2021-03-07T09:34:43.981Z</time>
      </trkpt>
      <trkpt lat="48.60919" lon="2.10457">
        <ele>115</ele>
        <time>2021-03-07T09:34:44.982Z</time>
      </trkpt>
      <trkpt lat="48.60919" lon="2.10455">
        <ele>115</ele>
        <time>2021-03-07T09:34:45.982Z</time>
      </trkpt>
      <trkpt lat="48.60919" lon="2.10454">
        <ele>115</ele>
        <time>2021-03-07T09:34:46.981Z</time>
      </trkpt>
      <trkpt lat="48.60919" lon="2.10452">
        <ele>115</ele>
        <time>2021-03-07T09:34:47.982Z</time>
      </trkpt>
      <trkpt lat="48.60918" lon="2.10449">
        <ele>115</ele>
        <time>2021-03-07T09:34:48.982Z</time>
      </trkpt>
      <trkpt lat="48.60918" lon="2.10448">
        <ele>115</ele>
        <time>2021-03-07T09:34:49.982Z</time>
      </trkpt>
      <trkpt lat="48.60918" lon="2.10446">
        <ele>115</ele>
        <time>2021-03-07T09:34:50.982Z</time>
      </trkpt>
      <trkpt lat="48.60918" lon="2.10444">
        <ele>115</ele>
        <time>2021-03-07T09:34:51.982Z</time>
      </trkpt>
      <trkpt lat="48.60918" lon="2.10442">
        <ele>115</ele>
        <time>2021-03-07T09:34:52.981Z</time>
      </trkpt>
      <trkpt lat="48.60918" lon="2.1044">
        <ele>115</ele>
        <time>2021-03-07T09:34:53.982Z</time>
      </trkpt>
      <trkpt lat="48.60918" lon="2.10438">
        <ele>115</ele>
        <time>2021-03-07T09:34:54.982Z</time>
      </trkpt>
      <trkpt lat="48.60918" lon="2.10436">
        <ele>115</ele>
        <time>2021-03-07T09:34:55.981Z</time>
      </trkpt>
      <trkpt lat="48.60918" lon="2.10435">
        <ele>115</ele>
        <time>2021-03-07T09:34:56.982Z</time>
      </trkpt>
      <trkpt lat="48.60917" lon="2.10433">
        <ele>115</ele>
        <time>2021-03-07T09:34:57.982Z</time>
      </trkpt>
      <trkpt lat="48.60917" lon="2.1043">
        <ele>115</ele>
        <time>2021-03-07T09:34:58.982Z</time>
      </trkpt>
      <trkpt lat="48.60917" lon="2.10428">
        <ele>114</ele>
        <time>2021-03-07T09:34:59.982Z</time>
      </trkpt>
      <trkpt lat="48.60917" lon="2.10426">
        <ele>114</ele>
        <time>2021-03-07T09:35:00.982Z</time>
      </trkpt>
      <trkpt lat="48.60917" lon="2.10424">
        <ele>114</ele>
        <time>2021-03-07T09:35:01.982Z</time>
      </trkpt>
      <trkpt lat="48.60916" lon="2.10422">
        <ele>115</ele>
        <time>2021-03-07T09:35:02.982Z</time>
      </trkpt>
      <trkpt lat="48.60916" lon="2.1042">
        <ele>115</ele>
        <time>2021-03-07T09:35:03.981Z</time>
      </trkpt>
      <trkpt lat="48.60916" lon="2.10419">
        <ele>115</ele>
        <time>2021-03-07T09:35:04.981Z</time>
      </trkpt>
      <trkpt lat="48.60915" lon="2.10417">
        <ele>115</ele>
        <time>2021-03-07T09:35:05.982Z</time>
      </trkpt>
      <trkpt lat="48.60915" lon="2.10415">
        <ele>115</ele>
        <time>2021-03-07T09:35:06.982Z</time>
      </trkpt>
      <trkpt lat="48.60915" lon="2.10413">
        <ele>115</ele>
        <time>2021-03-07T09:35:07.982Z</time>
      </trkpt>
      <trkpt lat="48.60915" lon="2.10411">
        <ele>115</ele>
        <time>2021-03-07T09:35:08.982Z</time>
      </trkpt>
      <trkpt lat="48.60914" lon="2.10409">
        <ele>116</ele>
        <time>2021-03-07T09:35:09.982Z</time>
      </trkpt>
      <trkpt lat="48.60914" lon="2.10407">
        <ele>116</ele>
        <time>2021-03-07T09:35:10.981Z</time>
      </trkpt>
      <trkpt lat="48.60914" lon="2.10405">
        <ele>116</ele>
        <time>2021-03-07T09:35:11.982Z</time>
      </trkpt>
      <trkpt lat="48.60914" lon="2.10403">
        <ele>117</ele>
        <time>2021-03-07T09:35:12.982Z</time>
      </trkpt>
      <trkpt lat="48.60913" lon="2.10401">
        <ele>117</ele>
        <time>2021-03-07T09:35:13.981Z</time>
      </trkpt>
      <trkpt lat="48.60913" lon="2.104">
        <ele>117</ele>
        <time>2021-03-07T09:35:14.981Z</time>
      </trkpt>
      <trkpt lat="48.60913" lon="2.10398">
        <ele>117</ele>
        <time>2021-03-07T09:35:15.981Z</time>
      </trkpt>
      <trkpt lat="48.60913" lon="2.10396">
        <ele>117</ele>
        <time>2021-03-07T09:35:16.982Z</time>
      </trkpt>
      <trkpt lat="48.60913" lon="2.10393">
        <ele>117</ele>
        <time>2021-03-07T09:35:17.982Z</time>
      </trkpt>
      <trkpt lat="48.60913" lon="2.10392">
        <ele>117</ele>
        <time>2021-03-07T09:35:18.982Z</time>
      </trkpt>
      <trkpt lat="48.60912" lon="2.1039">
        <ele>117</ele>
        <time>2021-03-07T09:35:19.981Z</time>
      </trkpt>
      <trkpt lat="48.60912" lon="2.10388">
        <ele>117</ele>
        <time>2021-03-07T09:35:20.981Z</time>
      </trkpt>
      <trkpt lat="48.60911" lon="2.10386">
        <ele>118</ele>
        <time>2021-03-07T09:35:21.981Z</time>
      </trkpt>
      <trkpt lat="48.60911" lon="2.10384">
        <ele>118</ele>
        <time>2021-03-07T09:35:22.982Z</time>
      </trkpt>
      <trkpt lat="48.60911" lon="2.10382">
        <ele>118</ele>
        <time>2021-03-07T09:35:23.982Z</time>
      </trkpt>
      <trkpt lat="48.60911" lon="2.1038">
        <ele>118</ele>
        <time>2021-03-07T09:35:24.981Z</time>
      </trkpt>
      <trkpt lat="48.60911" lon="2.10378">
        <ele>118</ele>
        <time>2021-03-07T09:35:25.982Z</time>
      </trkpt>
      <trkpt lat="48.60911" lon="2.10376">
        <ele>117</ele>
        <time>2021-03-07T09:35:26.982Z</time>
      </trkpt>
      <trkpt lat="48.60911" lon="2.10374">
        <ele>117</ele>
        <time>2021-03-07T09:35:27.981Z</time>
      </trkpt>
      <trkpt lat="48.6091" lon="2.10372">
        <ele>117</ele>
        <time>2021-03-07T09:35:28.981Z</time>
      </trkpt>
      <trkpt lat="48.6091" lon="2.1037">
        <ele>117</ele>
        <time>2021-03-07T09:35:29.982Z</time>
      </trkpt>
      <trkpt lat="48.6091" lon="2.10369">
        <ele>117</ele>
        <time>2021-03-07T09:35:30.982Z</time>
      </trkpt>
      <trkpt lat="48.60909" lon="2.10367">
        <ele>117</ele>
        <time>2021-03-07T09:35:31.981Z</time>
      </trkpt>
      <trkpt lat="48.60909" lon="2.10365">
        <ele>117</ele>
        <time>2021-03-07T09:35:32.982Z</time>
      </trkpt>
      <trkpt lat="48.60909" lon="2.10363">
        <ele>118</ele>
        <time>2021-03-07T09:35:33.982Z</time>
      </trkpt>
      <trkpt lat="48.60909" lon="2.10361">
        <ele>117</ele>
        <time>2021-03-07T09:35:34.982Z</time>
      </trkpt>
      <trkpt lat="48.60909" lon="2.10359">
        <ele>117</ele>
        <time>2021-03-07T09:35:35.981Z</time>
      </trkpt>
      <trkpt lat="48.60908" lon="2.10357">
        <ele>118</ele>
        <time>2021-03-07T09:35:36.981Z</time>
      </trkpt>
      <trkpt lat="48.60908" lon="2.10355">
        <ele>118</ele>
        <time>2021-03-07T09:35:37.982Z</time>
      </trkpt>
      <trkpt lat="48.60908" lon="2.10353">
        <ele>118</ele>
        <time>2021-03-07T09:35:38.982Z</time>
      </trkpt>
      <trkpt lat="48.60908" lon="2.10351">
        <ele>118</ele>
        <time>2021-03-07T09:35:39.981Z</time>
      </trkpt>
      <trkpt lat="48.60907" lon="2.10349">
        <ele>119</ele>
        <time>2021-03-07T09:35:40.982Z</time>
      </trkpt>
      <trkpt lat="48.60907" lon="2.10347">
        <ele>119</ele>
        <time>2021-03-07T09:35:41.982Z</time>
      </trkpt>
      <trkpt lat="48.60907" lon="2.10345">
        <ele>119</ele>
        <time>2021-03-07T09:35:42.982Z</time>
      </trkpt>
      <trkpt lat="48.60907" lon="2.10344">
        <ele>120</ele>
        <time>2021-03-07T09:35:43.981Z</time>
      </trkpt>
      <trkpt lat="48.60907" lon="2.10342">
        <ele>120</ele>
        <time>2021-03-07T09:35:44.982Z</time>
      </trkpt>
      <trkpt lat="48.60907" lon="2.1034">
        <ele>119</ele>
        <time>2021-03-07T09:35:45.981Z</time>
      </trkpt>
      <trkpt lat="48.60907" lon="2.10339">
        <ele>119</ele>
        <time>2021-03-07T09:35:46.981Z</time>
      </trkpt>
      <trkpt lat="48.60907" lon="2.10337">
        <ele>118</ele>
        <time>2021-03-07T09:35:47.981Z</time>
      </trkpt>
      <trkpt lat="48.60907" lon="2.10335">
        <ele>118</ele>
        <time>2021-03-07T09:35:48.981Z</time>
      </trkpt>
      <trkpt lat="48.60906" lon="2.10333">
        <ele>118</ele>
        <time>2021-03-07T09:35:49.982Z</time>
      </trkpt>
      <trkpt lat="48.60906" lon="2.10331">
        <ele>118</ele>
        <time>2021-03-07T09:35:50.982Z</time>
      </trkpt>
      <trkpt lat="48.60906" lon="2.10329">
        <ele>118</ele>
        <time>2021-03-07T09:35:51.982Z</time>
      </trkpt>
      <trkpt lat="48.60905" lon="2.10327">
        <ele>118</ele>
        <time>2021-03-07T09:35:52.982Z</time>
      </trkpt>
      <trkpt lat="48.60905" lon="2.10325">
        <ele>119</ele>
        <time>2021-03-07T09:35:53.982Z</time>
      </trkpt>
      <trkpt lat="48.60904" lon="2.10323">
        <ele>119</ele>
        <time>2021-03-07T09:35:54.982Z</time>
      </trkpt>
      <trkpt lat="48.60904" lon="2.10321">
        <ele>119</ele>
        <time>2021-03-07T09:35:55.982Z</time>
      </trkpt>
      <trkpt lat="48.60904" lon="2.10319">
        <ele>120</ele>
        <time>2021-03-07T09:35:56.982Z</time>
      </trkpt>
      <trkpt lat="48.60903" lon="2.10318">
        <ele>120</ele>
        <time>2021-03-07T09:35:57.982Z</time>
      </trkpt>
      <trkpt lat="48.60903" lon="2.10317">
        <ele>120</ele>
        <time>2021-03-07T09:35:58.982Z</time>
      </trkpt>
      <trkpt lat="48.60903" lon="2.10315">
        <ele>120</ele>
        <time>2021-03-07T09:35:59.982Z</time>
      </trkpt>
      <trkpt lat="48.60902" lon="2.10313">
        <ele>120</ele>
        <time>2021-03-07T09:36:00.982Z</time>
      </trkpt>
      <trkpt lat="48.60902" lon="2.10311">
        <ele>120</ele>
        <time>2021-03-07T09:36:01.981Z</time>
      </trkpt>
      <trkpt lat="48.60901" lon="2.10309">
        <ele>120</ele>
        <time>2021-03-07T09:36:02.982Z</time>
      </trkpt>
      <trkpt lat="48.60901" lon="2.10307">
        <ele>119</ele>
        <time>2021-03-07T09:36:03.982Z</time>
      </trkpt>
      <trkpt lat="48.60901" lon="2.10306">
        <ele>120</ele>
        <time>2021-03-07T09:36:04.982Z</time>
      </trkpt>
      <trkpt lat="48.60901" lon="2.10304">
        <ele>120</ele>
        <time>2021-03-07T09:36:05.982Z</time>
      </trkpt>
      <trkpt lat="48.609" lon="2.10302">
        <ele>121</ele>
        <time>2021-03-07T09:36:06.982Z</time>
      </trkpt>
      <trkpt lat="48.609" lon="2.103">
        <ele>121</ele>
        <time>2021-03-07T09:36:07.982Z</time>
      </trkpt>
      <trkpt lat="48.60899" lon="2.10298">
        <ele>121</ele>
        <time>2021-03-07T09:36:08.982Z</time>
      </trkpt>
      <trkpt lat="48.60899" lon="2.10296">
        <ele>121</ele>
        <time>2021-03-07T09:36:09.981Z</time>
      </trkpt>
      <trkpt lat="48.60899" lon="2.10294">
        <ele>121</ele>
        <time>2021-03-07T09:36:10.981Z</time>
      </trkpt>
      <trkpt lat="48.60898" lon="2.10292">
        <ele>121</ele>
        <time>2021-03-07T09:36:11.981Z</time>
      </trkpt>
      <trkpt lat="48.60898" lon="2.1029">
        <ele>121</ele>
        <time>2021-03-07T09:36:12.982Z</time>
      </trkpt>
      <trkpt lat="48.60898" lon="2.10289">
        <ele>121</ele>
        <time>2021-03-07T09:36:13.982Z</time>
      </trkpt>
      <trkpt lat="48.60897" lon="2.10287">
        <ele>121</ele>
        <time>2021-03-07T09:36:14.982Z</time>
      </trkpt>
      <trkpt lat="48.60897" lon="2.10285">
        <ele>121</ele>
        <time>2021-03-07T09:36:15.981Z</time>
      </trkpt>
      <trkpt lat="48.60897" lon="2.10283">
        <ele>121</ele>
        <time>2021-03-07T09:36:16.982Z</time>
      </trkpt>
      <trkpt lat="48.60896" lon="2.10281">
        <ele>121</ele>
        <time>2021-03-07T09:36:17.982Z</time>
      </trkpt>
      <trkpt lat="48.60896" lon="2.10279">
        <ele>121</ele>
        <time>2021-03-07T09:36:18.982Z</time>
      </trkpt>
      <trkpt lat="48.60895" lon="2.10277">
        <ele>122</ele>
        <time>2021-03-07T09:36:19.981Z</time>
      </trkpt>
      <trkpt lat="48.60895" lon="2.10275">
        <ele>122</ele>
        <time>2021-03-07T09:36:20.982Z</time>
      </trkpt>
      <trkpt lat="48.60895" lon="2.10273">
        <ele>122</ele>
        <time>2021-03-07T09:36:21.981Z</time>
      </trkpt>
      <trkpt lat="48.60895" lon="2.10272">
        <ele>122</ele>
        <time>2021-03-07T09:36:22.981Z</time>
      </trkpt>
      <trkpt lat="48.60894" lon="2.10269">
        <ele>121</ele>
        <time>2021-03-07T09:36:23.982Z</time>
      </trkpt>
      <trkpt lat="48.60894" lon="2.10268">
        <ele>121</ele>
        <time>2021-03-07T09:36:24.981Z</time>
      </trkpt>
      <trkpt lat="48.60894" lon="2.10266">
        <ele>120</ele>
        <time>2021-03-07T09:36:25.981Z</time>
      </trkpt>
      <trkpt lat="48.60894" lon="2.10264">
        <ele>120</ele>
        <time>2021-03-07T09:36:26.982Z</time>
      </trkpt>
      <trkpt lat="48.60894" lon="2.10262">
        <ele>120</ele>
        <time>2021-03-07T09:36:27.982Z</time>
      </trkpt>
      <trkpt lat="48.60894" lon="2.10261">
        <ele>119</ele>
        <time>2021-03-07T09:36:28.982Z</time>
      </trkpt>
      <trkpt lat="48.60894" lon="2.10259">
        <ele>119</ele>
        <time>2021-03-07T09:36:29.981Z</time>
      </trkpt>
      <trkpt lat="48.60894" lon="2.10257">
        <ele>119</ele>
        <time>2021-03-07T09:36:30.981Z</time>
      </trkpt>
      <trkpt lat="48.60894" lon="2.10255">
        <ele>119</ele>
        <time>2021-03-07T09:36:31.982Z</time>
      </trkpt>
      <trkpt lat="48.60893" lon="2.10253">
        <ele>119</ele>
        <time>2021-03-07T09:36:32.982Z</time>
      </trkpt>
      <trkpt lat="48.60893" lon="2.10251">
        <ele>119</ele>
        <time>2021-03-07T09:36:33.982Z</time>
      </trkpt>
      <trkpt lat="48.60893" lon="2.10249">
        <ele>119</ele>
        <time>2021-03-07T09:36:34.982Z</time>
      </trkpt>
      <trkpt lat="48.60892" lon="2.10247">
        <ele>118</ele>
        <time>2021-03-07T09:36:35.982Z</time>
      </trkpt>
      <trkpt lat="48.60892" lon="2.10245">
        <ele>118</ele>
        <time>2021-03-07T09:36:36.981Z</time>
      </trkpt>
      <trkpt lat="48.60891" lon="2.10244">
        <ele>118</ele>
        <time>2021-03-07T09:36:37.982Z</time>
      </trkpt>
      <trkpt lat="48.60891" lon="2.10242">
        <ele>117</ele>
        <time>2021-03-07T09:36:38.982Z</time>
      </trkpt>
      <trkpt lat="48.6089" lon="2.10241">
        <ele>117</ele>
        <time>2021-03-07T09:36:39.982Z</time>
      </trkpt>
      <trkpt lat="48.60889" lon="2.10239">
        <ele>117</ele>
        <time>2021-03-07T09:36:40.981Z</time>
      </trkpt>
      <trkpt lat="48.60889" lon="2.10237">
        <ele>117</ele>
        <time>2021-03-07T09:36:41.981Z</time>
      </trkpt>
      <trkpt lat="48.60888" lon="2.10236">
        <ele>117</ele>
        <time>2021-03-07T09:36:42.982Z</time>
      </trkpt>
      <trkpt lat="48.60888" lon="2.10234">
        <ele>117</ele>
        <time>2021-03-07T09:36:43.981Z</time>
      </trkpt>
      <trkpt lat="48.60887" lon="2.10233">
        <ele>117</ele>
        <time>2021-03-07T09:36:44.982Z</time>
      </trkpt>
      <trkpt lat="48.60886" lon="2.10231">
        <ele>117</ele>
        <time>2021-03-07T09:36:45.982Z</time>
      </trkpt>
      <trkpt lat="48.60886" lon="2.10229">
        <ele>117</ele>
        <time>2021-03-07T09:36:46.982Z</time>
      </trkpt>
      <trkpt lat="48.60885" lon="2.10227">
        <ele>117</ele>
        <time>2021-03-07T09:36:47.982Z</time>
      </trkpt>
      <trkpt lat="48.60885" lon="2.10226">
        <ele>117</ele>
        <time>2021-03-07T09:36:48.982Z</time>
      </trkpt>
      <trkpt lat="48.60884" lon="2.10224">
        <ele>117</ele>
        <time>2021-03-07T09:36:49.982Z</time>
      </trkpt>
      <trkpt lat="48.60884" lon="2.10222">
        <ele>118</ele>
        <time>2021-03-07T09:36:50.982Z</time>
      </trkpt>
      <trkpt lat="48.60884" lon="2.1022">
        <ele>118</ele>
        <time>2021-03-07T09:36:51.982Z</time>
      </trkpt>
      <trkpt lat="48.60883" lon="2.10218">
        <ele>118</ele>
        <time>2021-03-07T09:36:52.982Z</time>
      </trkpt>
      <trkpt lat="48.60883" lon="2.10217">
        <ele>118</ele>
        <time>2021-03-07T09:36:53.982Z</time>
      </trkpt>
      <trkpt lat="48.60882" lon="2.10215">
        <ele>118</ele>
        <time>2021-03-07T09:36:54.982Z</time>
      </trkpt>
      <trkpt lat="48.60882" lon="2.10213">
        <ele>118</ele>
        <time>2021-03-07T09:36:55.982Z</time>
      </trkpt>
      <trkpt lat="48.60881" lon="2.10211">
        <ele>118</ele>
        <time>2021-03-07T09:36:56.982Z</time>
      </trkpt>
      <trkpt lat="48.60881" lon="2.10209">
        <ele>119</ele>
        <time>2021-03-07T09:36:57.982Z</time>
      </trkpt>
      <trkpt lat="48.6088" lon="2.10207">
        <ele>119</ele>
        <time>2021-03-07T09:36:58.981Z</time>
      </trkpt>
      <trkpt lat="48.6088" lon="2.10206">
        <ele>119</ele>
        <time>2021-03-07T09:36:59.981Z</time>
      </trkpt>
      <trkpt lat="48.60879" lon="2.10204">
        <ele>119</ele>
        <time>2021-03-07T09:37:00.981Z</time>
      </trkpt>
      <trkpt lat="48.60879" lon="2.10202">
        <ele>119</ele>
        <time>2021-03-07T09:37:01.982Z</time>
      </trkpt>
      <trkpt lat="48.60879" lon="2.102">
        <ele>119</ele>
        <time>2021-03-07T09:37:02.982Z</time>
      </trkpt>
      <trkpt lat="48.60878" lon="2.10198">
        <ele>119</ele>
        <time>2021-03-07T09:37:03.982Z</time>
      </trkpt>
      <trkpt lat="48.60878" lon="2.10196">
        <ele>119</ele>
        <time>2021-03-07T09:37:04.982Z</time>
      </trkpt>
      <trkpt lat="48.60877" lon="2.10194">
        <ele>119</ele>
        <time>2021-03-07T09:37:05.981Z</time>
      </trkpt>
      <trkpt lat="48.60877" lon="2.10193">
        <ele>119</ele>
        <time>2021-03-07T09:37:06.982Z</time>
      </trkpt>
      <trkpt lat="48.60877" lon="2.10191">
        <ele>119</ele>
        <time>2021-03-07T09:37:07.982Z</time>
      </trkpt>
      <trkpt lat="48.60876" lon="2.10189">
        <ele>119</ele>
        <time>2021-03-07T09:37:08.982Z</time>
      </trkpt>
      <trkpt lat="48.60876" lon="2.10187">
        <ele>119</ele>
        <time>2021-03-07T09:37:09.982Z</time>
      </trkpt>
      <trkpt lat="48.60875" lon="2.10185">
        <ele>119</ele>
        <time>2021-03-07T09:37:10.981Z</time>
      </trkpt>
      <trkpt lat="48.60875" lon="2.10183">
        <ele>119</ele>
        <time>2021-03-07T09:37:11.982Z</time>
      </trkpt>
      <trkpt lat="48.60875" lon="2.10182">
        <ele>119</ele>
        <time>2021-03-07T09:37:12.982Z</time>
      </trkpt>
      <trkpt lat="48.60875" lon="2.1018">
        <ele>118</ele>
        <time>2021-03-07T09:37:13.982Z</time>
      </trkpt>
      <trkpt lat="48.60874" lon="2.10178">
        <ele>118</ele>
        <time>2021-03-07T09:37:14.981Z</time>
      </trkpt>
      <trkpt lat="48.60874" lon="2.10177">
        <ele>118</ele>
        <time>2021-03-07T09:37:15.981Z</time>
      </trkpt>
      <trkpt lat="48.60873" lon="2.10175">
        <ele>118</ele>
        <time>2021-03-07T09:37:16.981Z</time>
      </trkpt>
      <trkpt lat="48.60873" lon="2.10173">
        <ele>118</ele>
        <time>2021-03-07T09:37:17.982Z</time>
      </trkpt>
      <trkpt lat="48.60873" lon="2.10172">
        <ele>118</ele>
        <time>2021-03-07T09:37:18.981Z</time>
      </trkpt>
      <trkpt lat="48.60873" lon="2.1017">
        <ele>118</ele>
        <time>2021-03-07T09:37:19.982Z</time>
      </trkpt>
      <trkpt lat="48.60872" lon="2.10168">
        <ele>119</ele>
        <time>2021-03-07T09:37:20.982Z</time>
      </trkpt>
      <trkpt lat="48.60872" lon="2.10167">
        <ele>119</ele>
        <time>2021-03-07T09:37:21.982Z</time>
      </trkpt>
      <trkpt lat="48.60872" lon="2.10165">
        <ele>119</ele>
        <time>2021-03-07T09:37:22.982Z</time>
      </trkpt>
      <trkpt lat="48.60872" lon="2.10162">
        <ele>119</ele>
        <time>2021-03-07T09:37:23.982Z</time>
      </trkpt>
      <trkpt lat="48.60871" lon="2.10161">
        <ele>119</ele>
        <time>2021-03-07T09:37:24.981Z</time>
      </trkpt>
      <trkpt lat="48.60871" lon="2.10159">
        <ele>119</ele>
        <time>2021-03-07T09:37:25.982Z</time>
      </trkpt>
      <trkpt lat="48.6087" lon="2.10157">
        <ele>120</ele>
        <time>2021-03-07T09:37:26.982Z</time>
      </trkpt>
      <trkpt lat="48.6087" lon="2.10155">
        <ele>120</ele>
        <time>2021-03-07T09:37:27.982Z</time>
      </trkpt>
      <trkpt lat="48.60869" lon="2.10153">
        <ele>120</ele>
        <time>2021-03-07T09:37:28.982Z</time>
      </trkpt>
      <trkpt lat="48.60868" lon="2.10151">
        <ele>120</ele>
        <time>2021-03-07T09:37:29.982Z</time>
      </trkpt>
      <trkpt lat="48.60868" lon="2.10149">
        <ele>120</ele>
        <time>2021-03-07T09:37:30.982Z</time>
      </trkpt>
      <trkpt lat="48.60868" lon="2.10147">
        <ele>120</ele>
        <time>2021-03-07T09:37:31.982Z</time>
      </trkpt>
      <trkpt lat="48.60867" lon="2.10145">
        <ele>120</ele>
        <time>2021-03-07T09:37:32.982Z</time>
      </trkpt>
      <trkpt lat="48.60867" lon="2.10144">
        <ele>119</ele>
        <time>2021-03-07T09:37:33.982Z</time>
      </trkpt>
      <trkpt lat="48.60866" lon="2.10142">
        <ele>119</ele>
        <time>2021-03-07T09:37:34.981Z</time>
      </trkpt>
      <trkpt lat="48.60865" lon="2.1014">
        <ele>119</ele>
        <time>2021-03-07T09:37:35.982Z</time>
      </trkpt>
      <trkpt lat="48.60865" lon="2.10138">
        <ele>119</ele>
        <time>2021-03-07T09:37:36.981Z</time>
      </trkpt>
      <trkpt lat="48.60865" lon="2.10137">
        <ele>119</ele>
        <time>2021-03-07T09:37:37.981Z</time>
      </trkpt>
      <trkpt lat="48.60864" lon="2.10135">
        <ele>119</ele>
        <time>2021-03-07T09:37:38.982Z</time>
      </trkpt>
      <trkpt lat="48.60864" lon="2.10133">
        <ele>118</ele>
        <time>2021-03-07T09:37:39.981Z</time>
      </trkpt>
      <trkpt lat="48.60863" lon="2.10131">
        <ele>118</ele>
        <time>2021-03-07T09:37:40.982Z</time>
      </trkpt>
      <trkpt lat="48.60863" lon="2.10129">
        <ele>118</ele>
        <time>2021-03-07T09:37:41.982Z</time>
      </trkpt>
      <trkpt lat="48.60863" lon="2.10128">
        <ele>118</ele>
        <time>2021-03-07T09:37:42.982Z</time>
      </trkpt>
      <trkpt lat="48.60862" lon="2.10126">
        <ele>118</ele>
        <time>2021-03-07T09:37:43.981Z</time>
      </trkpt>
      <trkpt lat="48.60862" lon="2.10124">
        <ele>118</ele>
        <time>2021-03-07T09:37:44.982Z</time>
      </trkpt>
      <trkpt lat="48.60861" lon="2.10122">
        <ele>118</ele>
        <time>2021-03-07T09:37:45.982Z</time>
      </trkpt>
      <trkpt lat="48.60861" lon="2.10121">
        <ele>118</ele>
        <time>2021-03-07T09:37:46.982Z</time>
      </trkpt>
      <trkpt lat="48.6086" lon="2.10119">
        <ele>118</ele>
        <time>2021-03-07T09:37:47.982Z</time>
      </trkpt>
      <trkpt lat="48.60859" lon="2.10117">
        <ele>119</ele>
        <time>2021-03-07T09:37:48.982Z</time>
      </trkpt>
      <trkpt lat="48.60858" lon="2.10115">
        <ele>119</ele>
        <time>2021-03-07T09:37:49.982Z</time>
      </trkpt>
      <trkpt lat="48.60858" lon="2.10113">
        <ele>119</ele>
        <time>2021-03-07T09:37:50.982Z</time>
      </trkpt>
      <trkpt lat="48.60857" lon="2.10111">
        <ele>119</ele>
        <time>2021-03-07T09:37:51.982Z</time>
      </trkpt>
      <trkpt lat="48.60857" lon="2.10109">
        <ele>119</ele>
        <time>2021-03-07T09:37:52.981Z</time>
      </trkpt>
      <trkpt lat="48.60856" lon="2.10108">
        <ele>119</ele>
        <time>2021-03-07T09:37:53.981Z</time>
      </trkpt>
      <trkpt lat="48.60855" lon="2.10106">
        <ele>119</ele>
        <time>2021-03-07T09:37:54.982Z</time>
      </trkpt>
      <trkpt lat="48.60855" lon="2.10104">
        <ele>119</ele>
        <time>2021-03-07T09:37:55.982Z</time>
      </trkpt>
      <trkpt lat="48.60855" lon="2.10102">
        <ele>119</ele>
        <time>2021-03-07T09:37:56.982Z</time>
      </trkpt>
      <trkpt lat="48.60854" lon="2.101">
        <ele>119</ele>
        <time>2021-03-07T09:37:57.982Z</time>
      </trkpt>
      <trkpt lat="48.60854" lon="2.10098">
        <ele>119</ele>
        <time>2021-03-07T09:37:58.982Z</time>
      </trkpt>
      <trkpt lat="48.60854" lon="2.10096">
        <ele>119</ele>
        <time>2021-03-07T09:37:59.981Z</time>
      </trkpt>
      <trkpt lat="48.60854" lon="2.10094">
        <ele>119</ele>
        <time>2021-03-07T09:38:00.982Z</time>
      </trkpt>
      <trkpt lat="48.60853" lon="2.10092">
        <ele>119</ele>
        <time>2021-03-07T09:38:01.982Z</time>
      </trkpt>
      <trkpt lat="48.60853" lon="2.1009">
        <ele>119</ele>
        <time>2021-03-07T09:38:02.982Z</time>
      </trkpt>
      <trkpt lat="48.60853" lon="2.10088">
        <ele>119</ele>
        <time>2021-03-07T09:38:03.982Z</time>
      </trkpt>
      <trkpt lat="48.60852" lon="2.10087">
        <ele>118</ele>
        <time>2021-03-07T09:38:04.982Z</time>
      </trkpt>
      <trkpt lat="48.60852" lon="2.10085">
        <ele>118</ele>
        <time>2021-03-07T09:38:05.982Z</time>
      </trkpt>
      <trkpt lat="48.60851" lon="2.10083">
        <ele>118</ele>
        <time>2021-03-07T09:38:06.981Z</time>
      </trkpt>
      <trkpt lat="48.6085" lon="2.10081">
        <ele>119</ele>
        <time>2021-03-07T09:38:07.981Z</time>
      </trkpt>
      <trkpt lat="48.6085" lon="2.10079">
        <ele>119</ele>
        <time>2021-03-07T09:38:08.982Z</time>
      </trkpt>
      <trkpt lat="48.60849" lon="2.10078">
        <ele>119</ele>
        <time>2021-03-07T09:38:09.982Z</time>
      </trkpt>
      <trkpt lat="48.60848" lon="2.10076">
        <ele>119</ele>
        <time>2021-03-07T09:38:10.982Z</time>
      </trkpt>
      <trkpt lat="48.60848" lon="2.10074">
        <ele>119</ele>
        <time>2021-03-07T09:38:11.981Z</time>
      </trkpt>
      <trkpt lat="48.60847" lon="2.10072">
        <ele>119</ele>
        <time>2021-03-07T09:38:12.981Z</time>
      </trkpt>
      <trkpt lat="48.60847" lon="2.1007">
        <ele>119</ele>
        <time>2021-03-07T09:38:13.981Z</time>
      </trkpt>
      <trkpt lat="48.60846" lon="2.10069">
        <ele>118</ele>
        <time>2021-03-07T09:38:14.981Z</time>
      </trkpt>
      <trkpt lat="48.60846" lon="2.10067">
        <ele>118</ele>
        <time>2021-03-07T09:38:15.982Z</time>
      </trkpt>
      <trkpt lat="48.60845" lon="2.10065">
        <ele>119</ele>
        <time>2021-03-07T09:38:16.981Z</time>
      </trkpt>
      <trkpt lat="48.60844" lon="2.10064">
        <ele>119</ele>
        <time>2021-03-07T09:38:17.981Z</time>
      </trkpt>
      <trkpt lat="48.60844" lon="2.10062">
        <ele>119</ele>
        <time>2021-03-07T09:38:18.981Z</time>
      </trkpt>
      <trkpt lat="48.60842" lon="2.10061">
        <ele>118</ele>
        <time>2021-03-07T09:38:19.982Z</time>
      </trkpt>
      <trkpt lat="48.60842" lon="2.10059">
        <ele>118</ele>
        <time>2021-03-07T09:38:20.982Z</time>
      </trkpt>
      <trkpt lat="48.60841" lon="2.10058">
        <ele>119</ele>
        <time>2021-03-07T09:38:21.982Z</time>
      </trkpt>
      <trkpt lat="48.6084" lon="2.10057">
        <ele>118</ele>
        <time>2021-03-07T09:38:22.982Z</time>
      </trkpt>
      <trkpt lat="48.60838" lon="2.10055">
        <ele>118</ele>
        <time>2021-03-07T09:38:23.982Z</time>
      </trkpt>
      <trkpt lat="48.60837" lon="2.10054">
        <ele>118</ele>
        <time>2021-03-07T09:38:24.982Z</time>
      </trkpt>
      <trkpt lat="48.60836" lon="2.10053">
        <ele>118</ele>
        <time>2021-03-07T09:38:25.982Z</time>
      </trkpt>
      <trkpt lat="48.60834" lon="2.10053">
        <ele>118</ele>
        <time>2021-03-07T09:38:26.982Z</time>
      </trkpt>
      <trkpt lat="48.60833" lon="2.10053">
        <ele>117</ele>
        <time>2021-03-07T09:38:27.982Z</time>
      </trkpt>
      <trkpt lat="48.60831" lon="2.10053">
        <ele>117</ele>
        <time>2021-03-07T09:38:28.982Z</time>
      </trkpt>
      <trkpt lat="48.60829" lon="2.10052">
        <ele>117</ele>
        <time>2021-03-07T09:38:29.982Z</time>
      </trkpt>
      <trkpt lat="48.60828" lon="2.10052">
        <ele>118</ele>
        <time>2021-03-07T09:38:30.982Z</time>
      </trkpt>
      <trkpt lat="48.60827" lon="2.10051">
        <ele>118</ele>
        <time>2021-03-07T09:38:31.982Z</time>
      </trkpt>
      <trkpt lat="48.60825" lon="2.1005">
        <ele>118</ele>
        <time>2021-03-07T09:38:32.982Z</time>
      </trkpt>
      <trkpt lat="48.60824" lon="2.10049">
        <ele>118</ele>
        <time>2021-03-07T09:38:33.982Z</time>
      </trkpt>
      <trkpt lat="48.60823" lon="2.10048">
        <ele>117</ele>
        <time>2021-03-07T09:38:34.982Z</time>
      </trkpt>
      <trkpt lat="48.60822" lon="2.10047">
        <ele>117</ele>
        <time>2021-03-07T09:38:35.982Z</time>
      </trkpt>
      <trkpt lat="48.60821" lon="2.10045">
        <ele>117</ele>
        <time>2021-03-07T09:38:36.982Z</time>
      </trkpt>
      <trkpt lat="48.6082" lon="2.10044">
        <ele>116</ele>
        <time>2021-03-07T09:38:37.982Z</time>
      </trkpt>
      <trkpt lat="48.60819" lon="2.10042">
        <ele>116</ele>
        <time>2021-03-07T09:38:38.982Z</time>
      </trkpt>
      <trkpt lat="48.60818" lon="2.10041">
        <ele>116</ele>
        <time>2021-03-07T09:38:39.982Z</time>
      </trkpt>
      <trkpt lat="48.60817" lon="2.10039">
        <ele>116</ele>
        <time>2021-03-07T09:38:40.982Z</time>
      </trkpt>
      <trkpt lat="48.60817" lon="2.10037">
        <ele>116</ele>
        <time>2021-03-07T09:38:41.981Z</time>
      </trkpt>
      <trkpt lat="48.60816" lon="2.10035">
        <ele>116</ele>
        <time>2021-03-07T09:38:42.982Z</time>
      </trkpt>
      <trkpt lat="48.60816" lon="2.10034">
        <ele>116</ele>
        <time>2021-03-07T09:38:43.982Z</time>
      </trkpt>
      <trkpt lat="48.60815" lon="2.10032">
        <ele>116</ele>
        <time>2021-03-07T09:38:44.982Z</time>
      </trkpt>
      <trkpt lat="48.60815" lon="2.1003">
        <ele>116</ele>
        <time>2021-03-07T09:38:45.982Z</time>
      </trkpt>
      <trkpt lat="48.60815" lon="2.10027">
        <ele>116</ele>
        <time>2021-03-07T09:38:46.982Z</time>
      </trkpt>
      <trkpt lat="48.60814" lon="2.10025">
        <ele>116</ele>
        <time>2021-03-07T09:38:47.981Z</time>
      </trkpt>
      <trkpt lat="48.60814" lon="2.10023">
        <ele>116</ele>
        <time>2021-03-07T09:38:48.981Z</time>
      </trkpt>
      <trkpt lat="48.60813" lon="2.10021">
        <ele>116</ele>
        <time>2021-03-07T09:38:49.981Z</time>
      </trkpt>
      <trkpt lat="48.60813" lon="2.10019">
        <ele>116</ele>
        <time>2021-03-07T09:38:50.982Z</time>
      </trkpt>
      <trkpt lat="48.60813" lon="2.10017">
        <ele>116</ele>
        <time>2021-03-07T09:38:51.982Z</time>
      </trkpt>
      <trkpt lat="48.60812" lon="2.10015">
        <ele>116</ele>
        <time>2021-03-07T09:38:52.982Z</time>
      </trkpt>
      <trkpt lat="48.60812" lon="2.10013">
        <ele>116</ele>
        <time>2021-03-07T09:38:53.982Z</time>
      </trkpt>
      <trkpt lat="48.60811" lon="2.10011">
        <ele>116</ele>
        <time>2021-03-07T09:38:54.982Z</time>
      </trkpt>
      <trkpt lat="48.60811" lon="2.10009">
        <ele>116</ele>
        <time>2021-03-07T09:38:55.982Z</time>
      </trkpt>
      <trkpt lat="48.60811" lon="2.10007">
        <ele>117</ele>
        <time>2021-03-07T09:38:56.982Z</time>
      </trkpt>
      <trkpt lat="48.6081" lon="2.10005">
        <ele>116</ele>
        <time>2021-03-07T09:38:57.981Z</time>
      </trkpt>
      <trkpt lat="48.6081" lon="2.10004">
        <ele>116</ele>
        <time>2021-03-07T09:38:58.982Z</time>
      </trkpt>
      <trkpt lat="48.6081" lon="2.10002">
        <ele>116</ele>
        <time>2021-03-07T09:38:59.981Z</time>
      </trkpt>
      <trkpt lat="48.60809" lon="2.1">
        <ele>117</ele>
        <time>2021-03-07T09:39:00.982Z</time>
      </trkpt>
      <trkpt lat="48.60809" lon="2.09998">
        <ele>117</ele>
        <time>2021-03-07T09:39:01.981Z</time>
      </trkpt>
      <trkpt lat="48.60809" lon="2.09996">
        <ele>117</ele>
        <time>2021-03-07T09:39:02.982Z</time>
      </trkpt>
      <trkpt lat="48.60808" lon="2.09995">
        <ele>117</ele>
        <time>2021-03-07T09:39:03.982Z</time>
      </trkpt>
      <trkpt lat="48.60808" lon="2.09993">
        <ele>117</ele>
        <time>2021-03-07T09:39:04.982Z</time>
      </trkpt>
      <trkpt lat="48.60807" lon="2.09991">
        <ele>117</ele>
        <time>2021-03-07T09:39:05.982Z</time>
      </trkpt>
      <trkpt lat="48.60807" lon="2.09989">
        <ele>117</ele>
        <time>2021-03-07T09:39:06.982Z</time>
      </trkpt>
      <trkpt lat="48.60807" lon="2.09987">
        <ele>117</ele>
        <time>2021-03-07T09:39:07.982Z</time>
      </trkpt>
      <trkpt lat="48.60806" lon="2.09986">
        <ele>117</ele>
        <time>2021-03-07T09:39:08.982Z</time>
      </trkpt>
      <trkpt lat="48.60806" lon="2.09984">
        <ele>117</ele>
        <time>2021-03-07T09:39:09.982Z</time>
      </trkpt>
      <trkpt lat="48.60806" lon="2.09982">
        <ele>117</ele>
        <time>2021-03-07T09:39:10.981Z</time>
      </trkpt>
      <trkpt lat="48.60806" lon="2.0998">
        <ele>117</ele>
        <time>2021-03-07T09:39:11.982Z</time>
      </trkpt>
      <trkpt lat="48.60806" lon="2.09978">
        <ele>117</ele>
        <time>2021-03-07T09:39:12.982Z</time>
      </trkpt>
      <trkpt lat="48.60806" lon="2.09977">
        <ele>117</ele>
        <time>2021-03-07T09:39:13.982Z</time>
      </trkpt>
      <trkpt lat="48.60806" lon="2.09975">
        <ele>117</ele>
        <time>2021-03-07T09:39:14.982Z</time>
      </trkpt>
      <trkpt lat="48.60806" lon="2.09973">
        <ele>117</ele>
        <time>2021-03-07T09:39:15.982Z</time>
      </trkpt>
      <trkpt lat="48.60806" lon="2.09972">
        <ele>116</ele>
        <time>2021-03-07T09:39:16.982Z</time>
      </trkpt>
      <trkpt lat="48.60806" lon="2.0997">
        <ele>116</ele>
        <time>2021-03-07T09:39:17.982Z</time>
      </trkpt>
      <trkpt lat="48.60806" lon="2.09968">
        <ele>116</ele>
        <time>2021-03-07T09:39:18.982Z</time>
      </trkpt>
      <trkpt lat="48.60806" lon="2.09967">
        <ele>117</ele>
        <time>2021-03-07T09:39:19.982Z</time>
      </trkpt>
      <trkpt lat="48.60806" lon="2.09965">
        <ele>117</ele>
        <time>2021-03-07T09:39:20.981Z</time>
      </trkpt>
      <trkpt lat="48.60805" lon="2.09963">
        <ele>118</ele>
        <time>2021-03-07T09:39:21.982Z</time>
      </trkpt>
      <trkpt lat="48.60805" lon="2.09962">
        <ele>118</ele>
        <time>2021-03-07T09:39:22.982Z</time>
      </trkpt>
      <trkpt lat="48.60805" lon="2.0996">
        <ele>119</ele>
        <time>2021-03-07T09:39:23.982Z</time>
      </trkpt>
      <trkpt lat="48.60804" lon="2.09958">
        <ele>119</ele>
        <time>2021-03-07T09:39:24.982Z</time>
      </trkpt>
      <trkpt lat="48.60804" lon="2.09956">
        <ele>119</ele>
        <time>2021-03-07T09:39:25.982Z</time>
      </trkpt>
      <trkpt lat="48.60804" lon="2.09954">
        <ele>119</ele>
        <time>2021-03-07T09:39:26.982Z</time>
      </trkpt>
      <trkpt lat="48.60804" lon="2.09952">
        <ele>119</ele>
        <time>2021-03-07T09:39:27.982Z</time>
      </trkpt>
      <trkpt lat="48.60803" lon="2.0995">
        <ele>119</ele>
        <time>2021-03-07T09:39:28.982Z</time>
      </trkpt>
      <trkpt lat="48.60803" lon="2.09948">
        <ele>119</ele>
        <time>2021-03-07T09:39:29.981Z</time>
      </trkpt>
      <trkpt lat="48.60802" lon="2.09946">
        <ele>119</ele>
        <time>2021-03-07T09:39:30.981Z</time>
      </trkpt>
      <trkpt lat="48.60802" lon="2.09945">
        <ele>119</ele>
        <time>2021-03-07T09:39:31.981Z</time>
      </trkpt>
      <trkpt lat="48.60801" lon="2.09943">
        <ele>119</ele>
        <time>2021-03-07T09:39:32.982Z</time>
      </trkpt>
      <trkpt lat="48.60801" lon="2.09942">
        <ele>119</ele>
        <time>2021-03-07T09:39:33.982Z</time>
      </trkpt>
      <trkpt lat="48.60801" lon="2.0994">
        <ele>119</ele>
        <time>2021-03-07T09:39:34.982Z</time>
      </trkpt>
      <trkpt lat="48.60801" lon="2.09938">
        <ele>119</ele>
        <time>2021-03-07T09:39:35.981Z</time>
      </trkpt>
      <trkpt lat="48.60801" lon="2.09936">
        <ele>119</ele>
        <time>2021-03-07T09:39:36.982Z</time>
      </trkpt>
      <trkpt lat="48.60801" lon="2.09934">
        <ele>119</ele>
        <time>2021-03-07T09:39:37.982Z</time>
      </trkpt>
      <trkpt lat="48.608" lon="2.09932">
        <ele>119</ele>
        <time>2021-03-07T09:39:38.982Z</time>
      </trkpt>
      <trkpt lat="48.608" lon="2.0993">
        <ele>119</ele>
        <time>2021-03-07T09:39:39.981Z</time>
      </trkpt>
      <trkpt lat="48.60799" lon="2.09928">
        <ele>119</ele>
        <time>2021-03-07T09:39:40.981Z</time>
      </trkpt>
      <trkpt lat="48.60798" lon="2.09927">
        <ele>119</ele>
        <time>2021-03-07T09:39:41.981Z</time>
      </trkpt>
      <trkpt lat="48.60798" lon="2.09925">
        <ele>120</ele>
        <time>2021-03-07T09:39:42.981Z</time>
      </trkpt>
      <trkpt lat="48.60797" lon="2.09924">
        <ele>120</ele>
        <time>2021-03-07T09:39:43.982Z</time>
      </trkpt>
      <trkpt lat="48.60796" lon="2.09923">
        <ele>120</ele>
        <time>2021-03-07T09:39:44.982Z</time>
      </trkpt>
      <trkpt lat="48.60795" lon="2.09921">
        <ele>119</ele>
        <time>2021-03-07T09:39:45.982Z</time>
      </trkpt>
      <trkpt lat="48.60794" lon="2.0992">
        <ele>119</ele>
        <time>2021-03-07T09:39:46.982Z</time>
      </trkpt>
      <trkpt lat="48.60793" lon="2.09919">
        <ele>119</ele>
        <time>2021-03-07T09:39:47.982Z</time>
      </trkpt>
      <trkpt lat="48.60793" lon="2.09917">
        <ele>118</ele>
        <time>2021-03-07T09:39:48.982Z</time>
      </trkpt>
      <trkpt lat="48.60792" lon="2.09916">
        <ele>118</ele>
        <time>2021-03-07T09:39:49.982Z</time>
      </trkpt>
      <trkpt lat="48.60792" lon="2.09914">
        <ele>118</ele>
        <time>2021-03-07T09:39:50.982Z</time>
      </trkpt>
      <trkpt lat="48.60791" lon="2.09913">
        <ele>118</ele>
        <time>2021-03-07T09:39:51.982Z</time>
      </trkpt>
      <trkpt lat="48.60791" lon="2.09911">
        <ele>118</ele>
        <time>2021-03-07T09:39:52.982Z</time>
      </trkpt>
      <trkpt lat="48.60791" lon="2.09909">
        <ele>117</ele>
        <time>2021-03-07T09:39:53.981Z</time>
      </trkpt>
      <trkpt lat="48.6079" lon="2.09907">
        <ele>117</ele>
        <time>2021-03-07T09:39:54.981Z</time>
      </trkpt>
      <trkpt lat="48.60789" lon="2.09906">
        <ele>116</ele>
        <time>2021-03-07T09:39:55.982Z</time>
      </trkpt>
      <trkpt lat="48.60788" lon="2.09904">
        <ele>116</ele>
        <time>2021-03-07T09:39:56.982Z</time>
      </trkpt>
      <trkpt lat="48.60788" lon="2.09903">
        <ele>116</ele>
        <time>2021-03-07T09:39:57.982Z</time>
      </trkpt>
      <trkpt lat="48.60786" lon="2.09902">
        <ele>116</ele>
        <time>2021-03-07T09:39:58.982Z</time>
      </trkpt>
      <trkpt lat="48.60785" lon="2.09902">
        <ele>116</ele>
        <time>2021-03-07T09:39:59.981Z</time>
      </trkpt>
      <trkpt lat="48.60784" lon="2.09901">
        <ele>116</ele>
        <time>2021-03-07T09:40:00.982Z</time>
      </trkpt>
      <trkpt lat="48.60783" lon="2.099">
        <ele>116</ele>
        <time>2021-03-07T09:40:01.982Z</time>
      </trkpt>
      <trkpt lat="48.60782" lon="2.099">
        <ele>116</ele>
        <time>2021-03-07T09:40:02.982Z</time>
      </trkpt>
      <trkpt lat="48.60781" lon="2.09899">
        <ele>115</ele>
        <time>2021-03-07T09:40:03.981Z</time>
      </trkpt>
      <trkpt lat="48.6078" lon="2.09898">
        <ele>115</ele>
        <time>2021-03-07T09:40:04.982Z</time>
      </trkpt>
      <trkpt lat="48.60779" lon="2.09898">
        <ele>115</ele>
        <time>2021-03-07T09:40:05.982Z</time>
      </trkpt>
      <trkpt lat="48.60777" lon="2.09897">
        <ele>115</ele>
        <time>2021-03-07T09:40:06.982Z</time>
      </trkpt>
      <trkpt lat="48.60776" lon="2.09896">
        <ele>116</ele>
        <time>2021-03-07T09:40:07.982Z</time>
      </trkpt>
      <trkpt lat="48.60775" lon="2.09896">
        <ele>116</ele>
        <time>2021-03-07T09:40:08.982Z</time>
      </trkpt>
      <trkpt lat="48.60774" lon="2.09895">
        <ele>116</ele>
        <time>2021-03-07T09:40:09.982Z</time>
      </trkpt>
      <trkpt lat="48.60773" lon="2.09894">
        <ele>116</ele>
        <time>2021-03-07T09:40:10.982Z</time>
      </trkpt>
      <trkpt lat="48.60772" lon="2.09893">
        <ele>116</ele>
        <time>2021-03-07T09:40:11.982Z</time>
      </trkpt>
      <trkpt lat="48.60771" lon="2.09893">
        <ele>116</ele>
        <time>2021-03-07T09:40:12.982Z</time>
      </trkpt>
      <trkpt lat="48.6077" lon="2.09893">
        <ele>115</ele>
        <time>2021-03-07T09:40:13.982Z</time>
      </trkpt>
      <trkpt lat="48.60769" lon="2.09892">
        <ele>115</ele>
        <time>2021-03-07T09:40:14.981Z</time>
      </trkpt>
      <trkpt lat="48.60768" lon="2.09893">
        <ele>115</ele>
        <time>2021-03-07T09:40:15.982Z</time>
      </trkpt>
      <trkpt lat="48.60766" lon="2.09893">
        <ele>114</ele>
        <time>2021-03-07T09:40:16.982Z</time>
      </trkpt>
      <trkpt lat="48.60765" lon="2.09893">
        <ele>114</ele>
        <time>2021-03-07T09:40:17.982Z</time>
      </trkpt>
      <trkpt lat="48.60764" lon="2.09893">
        <ele>114</ele>
        <time>2021-03-07T09:40:18.982Z</time>
      </trkpt>
      <trkpt lat="48.60762" lon="2.09893">
        <ele>114</ele>
        <time>2021-03-07T09:40:19.982Z</time>
      </trkpt>
      <trkpt lat="48.60761" lon="2.09894">
        <ele>114</ele>
        <time>2021-03-07T09:40:20.982Z</time>
      </trkpt>
      <trkpt lat="48.6076" lon="2.09894">
        <ele>114</ele>
        <time>2021-03-07T09:40:21.982Z</time>
      </trkpt>
      <trkpt lat="48.60758" lon="2.09895">
        <ele>115</ele>
        <time>2021-03-07T09:40:22.982Z</time>
      </trkpt>
      <trkpt lat="48.60757" lon="2.09895">
        <ele>115</ele>
        <time>2021-03-07T09:40:23.982Z</time>
      </trkpt>
      <trkpt lat="48.60756" lon="2.09896">
        <ele>116</ele>
        <time>2021-03-07T09:40:24.982Z</time>
      </trkpt>
      <trkpt lat="48.60755" lon="2.09897">
        <ele>116</ele>
        <time>2021-03-07T09:40:25.982Z</time>
      </trkpt>
      <trkpt lat="48.60753" lon="2.09897">
        <ele>116</ele>
        <time>2021-03-07T09:40:26.982Z</time>
      </trkpt>
      <trkpt lat="48.60752" lon="2.09898">
        <ele>116</ele>
        <time>2021-03-07T09:40:27.982Z</time>
      </trkpt>
      <trkpt lat="48.60751" lon="2.09899">
        <ele>116</ele>
        <time>2021-03-07T09:40:28.982Z</time>
      </trkpt>
      <trkpt lat="48.6075" lon="2.09899">
        <ele>116</ele>
        <time>2021-03-07T09:40:29.981Z</time>
      </trkpt>
      <trkpt lat="48.60748" lon="2.099">
        <ele>116</ele>
        <time>2021-03-07T09:40:30.981Z</time>
      </trkpt>
      <trkpt lat="48.60747" lon="2.09901">
        <ele>116</ele>
        <time>2021-03-07T09:40:31.981Z</time>
      </trkpt>
      <trkpt lat="48.60746" lon="2.09902">
        <ele>116</ele>
        <time>2021-03-07T09:40:32.981Z</time>
      </trkpt>
      <trkpt lat="48.60745" lon="2.09903">
        <ele>116</ele>
        <time>2021-03-07T09:40:33.981Z</time>
      </trkpt>
      <trkpt lat="48.60744" lon="2.09904">
        <ele>115</ele>
        <time>2021-03-07T09:40:34.982Z</time>
      </trkpt>
      <trkpt lat="48.60742" lon="2.09905">
        <ele>115</ele>
        <time>2021-03-07T09:40:35.982Z</time>
      </trkpt>
      <trkpt lat="48.60741" lon="2.09906">
        <ele>115</ele>
        <time>2021-03-07T09:40:36.982Z</time>
      </trkpt>
      <trkpt lat="48.6074" lon="2.09907">
        <ele>116</ele>
        <time>2021-03-07T09:40:37.982Z</time>
      </trkpt>
      <trkpt lat="48.60738" lon="2.09908">
        <ele>116</ele>
        <time>2021-03-07T09:40:38.982Z</time>
      </trkpt>
      <trkpt lat="48.60737" lon="2.09909">
        <ele>116</ele>
        <time>2021-03-07T09:40:39.982Z</time>
      </trkpt>
      <trkpt lat="48.60736" lon="2.09909">
        <ele>116</ele>
        <time>2021-03-07T09:40:40.982Z</time>
      </trkpt>
      <trkpt lat="48.60734" lon="2.0991">
        <ele>115</ele>
        <time>2021-03-07T09:40:41.981Z</time>
      </trkpt>
      <trkpt lat="48.60733" lon="2.09911">
        <ele>115</ele>
        <time>2021-03-07T09:40:42.981Z</time>
      </trkpt>
      <trkpt lat="48.60732" lon="2.09912">
        <ele>115</ele>
        <time>2021-03-07T09:40:43.982Z</time>
      </trkpt>
      <trkpt lat="48.6073" lon="2.09913">
        <ele>115</ele>
        <time>2021-03-07T09:40:44.982Z</time>
      </trkpt>
      <trkpt lat="48.60729" lon="2.09914">
        <ele>115</ele>
        <time>2021-03-07T09:40:45.981Z</time>
      </trkpt>
      <trkpt lat="48.60728" lon="2.09915">
        <ele>115</ele>
        <time>2021-03-07T09:40:46.982Z</time>
      </trkpt>
      <trkpt lat="48.60727" lon="2.09915">
        <ele>114</ele>
        <time>2021-03-07T09:40:47.982Z</time>
      </trkpt>
      <trkpt lat="48.60725" lon="2.09916">
        <ele>114</ele>
        <time>2021-03-07T09:40:48.982Z</time>
      </trkpt>
      <trkpt lat="48.60724" lon="2.09916">
        <ele>114</ele>
        <time>2021-03-07T09:40:49.981Z</time>
      </trkpt>
      <trkpt lat="48.60723" lon="2.09917">
        <ele>114</ele>
        <time>2021-03-07T09:40:50.981Z</time>
      </trkpt>
      <trkpt lat="48.60722" lon="2.09918">
        <ele>114</ele>
        <time>2021-03-07T09:40:51.982Z</time>
      </trkpt>
      <trkpt lat="48.6072" lon="2.09919">
        <ele>114</ele>
        <time>2021-03-07T09:40:52.981Z</time>
      </trkpt>
      <trkpt lat="48.60719" lon="2.09919">
        <ele>113</ele>
        <time>2021-03-07T09:40:53.981Z</time>
      </trkpt>
      <trkpt lat="48.60718" lon="2.0992">
        <ele>113</ele>
        <time>2021-03-07T09:40:54.981Z</time>
      </trkpt>
      <trkpt lat="48.60716" lon="2.09921">
        <ele>113</ele>
        <time>2021-03-07T09:40:55.981Z</time>
      </trkpt>
      <trkpt lat="48.60715" lon="2.09921">
        <ele>113</ele>
        <time>2021-03-07T09:40:56.982Z</time>
      </trkpt>
      <trkpt lat="48.60714" lon="2.09922">
        <ele>113</ele>
        <time>2021-03-07T09:40:57.982Z</time>
      </trkpt>
      <trkpt lat="48.60713" lon="2.09923">
        <ele>113</ele>
        <time>2021-03-07T09:40:58.982Z</time>
      </trkpt>
      <trkpt lat="48.60711" lon="2.09923">
        <ele>112</ele>
        <time>2021-03-07T09:40:59.982Z</time>
      </trkpt>
      <trkpt lat="48.6071" lon="2.09924">
        <ele>112</ele>
        <time>2021-03-07T09:41:00.982Z</time>
      </trkpt>
      <trkpt lat="48.60709" lon="2.09925">
        <ele>112</ele>
        <time>2021-03-07T09:41:01.982Z</time>
      </trkpt>
      <trkpt lat="48.60708" lon="2.09925">
        <ele>112</ele>
        <time>2021-03-07T09:41:02.982Z</time>
      </trkpt>
      <trkpt lat="48.60707" lon="2.09926">
        <ele>112</ele>
        <time>2021-03-07T09:41:03.982Z</time>
      </trkpt>
      <trkpt lat="48.60706" lon="2.09927">
        <ele>113</ele>
        <time>2021-03-07T09:41:04.982Z</time>
      </trkpt>
      <trkpt lat="48.60704" lon="2.09928">
        <ele>113</ele>
        <time>2021-03-07T09:41:05.982Z</time>
      </trkpt>
      <trkpt lat="48.60703" lon="2.09929">
        <ele>113</ele>
        <time>2021-03-07T09:41:06.982Z</time>
      </trkpt>
      <trkpt lat="48.60702" lon="2.0993">
        <ele>113</ele>
        <time>2021-03-07T09:41:07.981Z</time>
      </trkpt>
      <trkpt lat="48.60701" lon="2.09931">
        <ele>114</ele>
        <time>2021-03-07T09:41:08.981Z</time>
      </trkpt>
      <trkpt lat="48.60699" lon="2.09932">
        <ele>114</ele>
        <time>2021-03-07T09:41:09.982Z</time>
      </trkpt>
      <trkpt lat="48.60698" lon="2.09933">
        <ele>114</ele>
        <time>2021-03-07T09:41:10.982Z</time>
      </trkpt>
      <trkpt lat="48.60697" lon="2.09934">
        <ele>114</ele>
        <time>2021-03-07T09:41:11.982Z</time>
      </trkpt>
      <trkpt lat="48.60696" lon="2.09935">
        <ele>114</ele>
        <time>2021-03-07T09:41:12.982Z</time>
      </trkpt>
      <trkpt lat="48.60694" lon="2.09936">
        <ele>113</ele>
        <time>2021-03-07T09:41:13.981Z</time>
      </trkpt>
      <trkpt lat="48.60693" lon="2.09936">
        <ele>113</ele>
        <time>2021-03-07T09:41:14.981Z</time>
      </trkpt>
      <trkpt lat="48.60692" lon="2.09937">
        <ele>114</ele>
        <time>2021-03-07T09:41:15.982Z</time>
      </trkpt>
      <trkpt lat="48.6069" lon="2.09937">
        <ele>114</ele>
        <time>2021-03-07T09:41:16.982Z</time>
      </trkpt>
      <trkpt lat="48.60689" lon="2.09937">
        <ele>114</ele>
        <time>2021-03-07T09:41:17.982Z</time>
      </trkpt>
      <trkpt lat="48.60688" lon="2.09937">
        <ele>114</ele>
        <time>2021-03-07T09:41:18.982Z</time>
      </trkpt>
      <trkpt lat="48.60686" lon="2.09936">
        <ele>114</ele>
        <time>2021-03-07T09:41:19.982Z</time>
      </trkpt>
      <trkpt lat="48.60685" lon="2.09935">
        <ele>114</ele>
        <time>2021-03-07T09:41:20.982Z</time>
      </trkpt>
      <trkpt lat="48.60683" lon="2.09934">
        <ele>114</ele>
        <time>2021-03-07T09:41:21.982Z</time>
      </trkpt>
      <trkpt lat="48.60682" lon="2.09932">
        <ele>114</ele>
        <time>2021-03-07T09:41:22.981Z</time>
      </trkpt>
      <trkpt lat="48.60681" lon="2.09931">
        <ele>114</ele>
        <time>2021-03-07T09:41:23.981Z</time>
      </trkpt>
      <trkpt lat="48.6068" lon="2.09929">
        <ele>113</ele>
        <time>2021-03-07T09:41:24.981Z</time>
      </trkpt>
      <trkpt lat="48.60679" lon="2.09928">
        <ele>113</ele>
        <time>2021-03-07T09:41:25.982Z</time>
      </trkpt>
      <trkpt lat="48.60678" lon="2.09926">
        <ele>113</ele>
        <time>2021-03-07T09:41:26.982Z</time>
      </trkpt>
      <trkpt lat="48.60677" lon="2.09924">
        <ele>113</ele>
        <time>2021-03-07T09:41:27.982Z</time>
      </trkpt>
      <trkpt lat="48.60676" lon="2.09922">
        <ele>113</ele>
        <time>2021-03-07T09:41:28.981Z</time>
      </trkpt>
      <trkpt lat="48.60675" lon="2.09921">
        <ele>113</ele>
        <time>2021-03-07T09:41:29.982Z</time>
      </trkpt>
      <trkpt lat="48.60674" lon="2.0992">
        <ele>113</ele>
        <time>2021-03-07T09:41:30.982Z</time>
      </trkpt>
      <trkpt lat="48.60673" lon="2.09918">
        <ele>113</ele>
        <time>2021-03-07T09:41:31.981Z</time>
      </trkpt>
      <trkpt lat="48.60672" lon="2.09917">
        <ele>113</ele>
        <time>2021-03-07T09:41:32.981Z</time>
      </trkpt>
      <trkpt lat="48.60671" lon="2.09915">
        <ele>113</ele>
        <time>2021-03-07T09:41:33.981Z</time>
      </trkpt>
      <trkpt lat="48.6067" lon="2.09914">
        <ele>113</ele>
        <time>2021-03-07T09:41:34.982Z</time>
      </trkpt>
      <trkpt lat="48.6067" lon="2.09912">
        <ele>113</ele>
        <time>2021-03-07T09:41:35.981Z</time>
      </trkpt>
      <trkpt lat="48.60669" lon="2.09911">
        <ele>113</ele>
        <time>2021-03-07T09:41:36.982Z</time>
      </trkpt>
      <trkpt lat="48.60668" lon="2.09909">
        <ele>113</ele>
        <time>2021-03-07T09:41:37.982Z</time>
      </trkpt>
      <trkpt lat="48.60667" lon="2.09908">
        <ele>113</ele>
        <time>2021-03-07T09:41:38.982Z</time>
      </trkpt>
      <trkpt lat="48.60666" lon="2.09906">
        <ele>113</ele>
        <time>2021-03-07T09:41:39.982Z</time>
      </trkpt>
      <trkpt lat="48.60665" lon="2.09905">
        <ele>113</ele>
        <time>2021-03-07T09:41:40.982Z</time>
      </trkpt>
      <trkpt lat="48.60664" lon="2.09904">
        <ele>113</ele>
        <time>2021-03-07T09:41:41.982Z</time>
      </trkpt>
      <trkpt lat="48.60663" lon="2.09902">
        <ele>113</ele>
        <time>2021-03-07T09:41:42.982Z</time>
      </trkpt>
      <trkpt lat="48.60662" lon="2.09901">
        <ele>113</ele>
        <time>2021-03-07T09:41:43.982Z</time>
      </trkpt>
      <trkpt lat="48.60661" lon="2.099">
        <ele>113</ele>
        <time>2021-03-07T09:41:44.982Z</time>
      </trkpt>
      <trkpt lat="48.6066" lon="2.09898">
        <ele>113</ele>
        <time>2021-03-07T09:41:45.982Z</time>
      </trkpt>
      <trkpt lat="48.6066" lon="2.09897">
        <ele>113</ele>
        <time>2021-03-07T09:41:46.981Z</time>
      </trkpt>
      <trkpt lat="48.60659" lon="2.09895">
        <ele>113</ele>
        <time>2021-03-07T09:41:47.981Z</time>
      </trkpt>
      <trkpt lat="48.60658" lon="2.09894">
        <ele>114</ele>
        <time>2021-03-07T09:41:48.981Z</time>
      </trkpt>
      <trkpt lat="48.60656" lon="2.09893">
        <ele>114</ele>
        <time>2021-03-07T09:41:49.982Z</time>
      </trkpt>
      <trkpt lat="48.60655" lon="2.09892">
        <ele>113</ele>
        <time>2021-03-07T09:41:50.982Z</time>
      </trkpt>
      <trkpt lat="48.60654" lon="2.0989">
        <ele>113</ele>
        <time>2021-03-07T09:41:51.982Z</time>
      </trkpt>
      <trkpt lat="48.60653" lon="2.09889">
        <ele>114</ele>
        <time>2021-03-07T09:41:52.981Z</time>
      </trkpt>
      <trkpt lat="48.60652" lon="2.09888">
        <ele>114</ele>
        <time>2021-03-07T09:41:53.982Z</time>
      </trkpt>
      <trkpt lat="48.60651" lon="2.09886">
        <ele>114</ele>
        <time>2021-03-07T09:41:54.982Z</time>
      </trkpt>
      <trkpt lat="48.6065" lon="2.09885">
        <ele>114</ele>
        <time>2021-03-07T09:41:55.981Z</time>
      </trkpt>
      <trkpt lat="48.6065" lon="2.09884">
        <ele>113</ele>
        <time>2021-03-07T09:41:56.981Z</time>
      </trkpt>
      <trkpt lat="48.60649" lon="2.09883">
        <ele>114</ele>
        <time>2021-03-07T09:41:57.981Z</time>
      </trkpt>
      <trkpt lat="48.60648" lon="2.09881">
        <ele>114</ele>
        <time>2021-03-07T09:41:58.981Z</time>
      </trkpt>
      <trkpt lat="48.60646" lon="2.0988">
        <ele>114</ele>
        <time>2021-03-07T09:41:59.981Z</time>
      </trkpt>
      <trkpt lat="48.60645" lon="2.09879">
        <ele>114</ele>
        <time>2021-03-07T09:42:00.981Z</time>
      </trkpt>
      <trkpt lat="48.60645" lon="2.09877">
        <ele>115</ele>
        <time>2021-03-07T09:42:01.981Z</time>
      </trkpt>
      <trkpt lat="48.60644" lon="2.09876">
        <ele>115</ele>
        <time>2021-03-07T09:42:02.981Z</time>
      </trkpt>
      <trkpt lat="48.60642" lon="2.09875">
        <ele>115</ele>
        <time>2021-03-07T09:42:03.981Z</time>
      </trkpt>
      <trkpt lat="48.60641" lon="2.09874">
        <ele>115</ele>
        <time>2021-03-07T09:42:04.981Z</time>
      </trkpt>
      <trkpt lat="48.6064" lon="2.09872">
        <ele>115</ele>
        <time>2021-03-07T09:42:05.982Z</time>
      </trkpt>
      <trkpt lat="48.60639" lon="2.09871">
        <ele>115</ele>
        <time>2021-03-07T09:42:06.982Z</time>
      </trkpt>
      <trkpt lat="48.60638" lon="2.0987">
        <ele>115</ele>
        <time>2021-03-07T09:42:07.982Z</time>
      </trkpt>
      <trkpt lat="48.60637" lon="2.09869">
        <ele>115</ele>
        <time>2021-03-07T09:42:08.981Z</time>
      </trkpt>
      <trkpt lat="48.60636" lon="2.09868">
        <ele>115</ele>
        <time>2021-03-07T09:42:09.981Z</time>
      </trkpt>
      <trkpt lat="48.60635" lon="2.09866">
        <ele>115</ele>
        <time>2021-03-07T09:42:10.982Z</time>
      </trkpt>
      <trkpt lat="48.60634" lon="2.09865">
        <ele>115</ele>
        <time>2021-03-07T09:42:11.981Z</time>
      </trkpt>
      <trkpt lat="48.60633" lon="2.09863">
        <ele>115</ele>
        <time>2021-03-07T09:42:12.982Z</time>
      </trkpt>
      <trkpt lat="48.60632" lon="2.09862">
        <ele>114</ele>
        <time>2021-03-07T09:42:13.982Z</time>
      </trkpt>
      <trkpt lat="48.60632" lon="2.09861">
        <ele>114</ele>
        <time>2021-03-07T09:42:14.982Z</time>
      </trkpt>
      <trkpt lat="48.60631" lon="2.0986">
        <ele>114</ele>
        <time>2021-03-07T09:42:15.982Z</time>
      </trkpt>
      <trkpt lat="48.6063" lon="2.09859">
        <ele>114</ele>
        <time>2021-03-07T09:42:16.981Z</time>
      </trkpt>
      <trkpt lat="48.60629" lon="2.09858">
        <ele>114</ele>
        <time>2021-03-07T09:42:17.981Z</time>
      </trkpt>
      <trkpt lat="48.60628" lon="2.09856">
        <ele>113</ele>
        <time>2021-03-07T09:42:18.982Z</time>
      </trkpt>
      <trkpt lat="48.60626" lon="2.09855">
        <ele>114</ele>
        <time>2021-03-07T09:42:19.981Z</time>
      </trkpt>
      <trkpt lat="48.60625" lon="2.09853">
        <ele>113</ele>
        <time>2021-03-07T09:42:20.982Z</time>
      </trkpt>
      <trkpt lat="48.60624" lon="2.09852">
        <ele>113</ele>
        <time>2021-03-07T09:42:21.982Z</time>
      </trkpt>
      <trkpt lat="48.60624" lon="2.09851">
        <ele>113</ele>
        <time>2021-03-07T09:42:22.982Z</time>
      </trkpt>
      <trkpt lat="48.60623" lon="2.09849">
        <ele>113</ele>
        <time>2021-03-07T09:42:23.982Z</time>
      </trkpt>
      <trkpt lat="48.60622" lon="2.09848">
        <ele>113</ele>
        <time>2021-03-07T09:42:24.981Z</time>
      </trkpt>
      <trkpt lat="48.60621" lon="2.09846">
        <ele>112</ele>
        <time>2021-03-07T09:42:25.982Z</time>
      </trkpt>
      <trkpt lat="48.6062" lon="2.09845">
        <ele>112</ele>
        <time>2021-03-07T09:42:26.981Z</time>
      </trkpt>
      <trkpt lat="48.60619" lon="2.09843">
        <ele>112</ele>
        <time>2021-03-07T09:42:27.981Z</time>
      </trkpt>
      <trkpt lat="48.60618" lon="2.09842">
        <ele>111</ele>
        <time>2021-03-07T09:42:28.982Z</time>
      </trkpt>
      <trkpt lat="48.60617" lon="2.09841">
        <ele>111</ele>
        <time>2021-03-07T09:42:29.982Z</time>
      </trkpt>
      <trkpt lat="48.60616" lon="2.0984">
        <ele>111</ele>
        <time>2021-03-07T09:42:30.981Z</time>
      </trkpt>
      <trkpt lat="48.60615" lon="2.09838">
        <ele>111</ele>
        <time>2021-03-07T09:42:31.981Z</time>
      </trkpt>
      <trkpt lat="48.60614" lon="2.09837">
        <ele>111</ele>
        <time>2021-03-07T09:42:32.981Z</time>
      </trkpt>
      <trkpt lat="48.60613" lon="2.09836">
        <ele>111</ele>
        <time>2021-03-07T09:42:33.982Z</time>
      </trkpt>
      <trkpt lat="48.60612" lon="2.09834">
        <ele>111</ele>
        <time>2021-03-07T09:42:34.982Z</time>
      </trkpt>
      <trkpt lat="48.60611" lon="2.09833">
        <ele>111</ele>
        <time>2021-03-07T09:42:35.982Z</time>
      </trkpt>
      <trkpt lat="48.6061" lon="2.09832">
        <ele>112</ele>
        <time>2021-03-07T09:42:36.982Z</time>
      </trkpt>
      <trkpt lat="48.60609" lon="2.09831">
        <ele>112</ele>
        <time>2021-03-07T09:42:37.982Z</time>
      </trkpt>
      <trkpt lat="48.60608" lon="2.09829">
        <ele>112</ele>
        <time>2021-03-07T09:42:38.981Z</time>
      </trkpt>
      <trkpt lat="48.60607" lon="2.09828">
        <ele>112</ele>
        <time>2021-03-07T09:42:39.982Z</time>
      </trkpt>
      <trkpt lat="48.60606" lon="2.09826">
        <ele>112</ele>
        <time>2021-03-07T09:42:40.981Z</time>
      </trkpt>
      <trkpt lat="48.60605" lon="2.09825">
        <ele>112</ele>
        <time>2021-03-07T09:42:41.981Z</time>
      </trkpt>
      <trkpt lat="48.60604" lon="2.09823">
        <ele>112</ele>
        <time>2021-03-07T09:42:42.981Z</time>
      </trkpt>
      <trkpt lat="48.60603" lon="2.09822">
        <ele>112</ele>
        <time>2021-03-07T09:42:43.982Z</time>
      </trkpt>
      <trkpt lat="48.60602" lon="2.09821">
        <ele>112</ele>
        <time>2021-03-07T09:42:44.981Z</time>
      </trkpt>
      <trkpt lat="48.60602" lon="2.09819">
        <ele>112</ele>
        <time>2021-03-07T09:42:45.981Z</time>
      </trkpt>
      <trkpt lat="48.60601" lon="2.09818">
        <ele>112</ele>
        <time>2021-03-07T09:42:46.982Z</time>
      </trkpt>
      <trkpt lat="48.606" lon="2.09817">
        <ele>112</ele>
        <time>2021-03-07T09:42:47.982Z</time>
      </trkpt>
      <trkpt lat="48.60599" lon="2.09815">
        <ele>111</ele>
        <time>2021-03-07T09:42:48.982Z</time>
      </trkpt>
      <trkpt lat="48.60598" lon="2.09814">
        <ele>111</ele>
        <time>2021-03-07T09:42:49.982Z</time>
      </trkpt>
      <trkpt lat="48.60597" lon="2.09813">
        <ele>111</ele>
        <time>2021-03-07T09:42:50.982Z</time>
      </trkpt>
      <trkpt lat="48.60596" lon="2.09812">
        <ele>110</ele>
        <time>2021-03-07T09:42:51.982Z</time>
      </trkpt>
      <trkpt lat="48.60595" lon="2.09811">
        <ele>110</ele>
        <time>2021-03-07T09:42:52.982Z</time>
      </trkpt>
      <trkpt lat="48.60594" lon="2.09809">
        <ele>111</ele>
        <time>2021-03-07T09:42:53.982Z</time>
      </trkpt>
      <trkpt lat="48.60594" lon="2.09808">
        <ele>111</ele>
        <time>2021-03-07T09:42:54.981Z</time>
      </trkpt>
      <trkpt lat="48.60593" lon="2.09806">
        <ele>111</ele>
        <time>2021-03-07T09:42:55.982Z</time>
      </trkpt>
      <trkpt lat="48.60592" lon="2.09805">
        <ele>112</ele>
        <time>2021-03-07T09:42:56.982Z</time>
      </trkpt>
      <trkpt lat="48.60591" lon="2.09803">
        <ele>112</ele>
        <time>2021-03-07T09:42:57.982Z</time>
      </trkpt>
      <trkpt lat="48.6059" lon="2.09801">
        <ele>112</ele>
        <time>2021-03-07T09:42:58.981Z</time>
      </trkpt>
      <trkpt lat="48.60589" lon="2.098">
        <ele>112</ele>
        <time>2021-03-07T09:42:59.981Z</time>
      </trkpt>
      <trkpt lat="48.60589" lon="2.09798">
        <ele>112</ele>
        <time>2021-03-07T09:43:00.982Z</time>
      </trkpt>
      <trkpt lat="48.60588" lon="2.09796">
        <ele>112</ele>
        <time>2021-03-07T09:43:01.982Z</time>
      </trkpt>
      <trkpt lat="48.60587" lon="2.09794">
        <ele>113</ele>
        <time>2021-03-07T09:43:02.982Z</time>
      </trkpt>
      <trkpt lat="48.60586" lon="2.09792">
        <ele>113</ele>
        <time>2021-03-07T09:43:03.982Z</time>
      </trkpt>
      <trkpt lat="48.60586" lon="2.0979">
        <ele>113</ele>
        <time>2021-03-07T09:43:04.981Z</time>
      </trkpt>
      <trkpt lat="48.60585" lon="2.09788">
        <ele>114</ele>
        <time>2021-03-07T09:43:05.981Z</time>
      </trkpt>
      <trkpt lat="48.60585" lon="2.09786">
        <ele>114</ele>
        <time>2021-03-07T09:43:06.982Z</time>
      </trkpt>
      <trkpt lat="48.60585" lon="2.09784">
        <ele>114</ele>
        <time>2021-03-07T09:43:07.982Z</time>
      </trkpt>
      <trkpt lat="48.60585" lon="2.09781">
        <ele>114</ele>
        <time>2021-03-07T09:43:08.981Z</time>
      </trkpt>
      <trkpt lat="48.60584" lon="2.09779">
        <ele>114</ele>
        <time>2021-03-07T09:43:09.982Z</time>
      </trkpt>
      <trkpt lat="48.60584" lon="2.09777">
        <ele>114</ele>
        <time>2021-03-07T09:43:10.981Z</time>
      </trkpt>
      <trkpt lat="48.60583" lon="2.09774">
        <ele>114</ele>
        <time>2021-03-07T09:43:11.981Z</time>
      </trkpt>
      <trkpt lat="48.60583" lon="2.09772">
        <ele>114</ele>
        <time>2021-03-07T09:43:12.982Z</time>
      </trkpt>
      <trkpt lat="48.60583" lon="2.0977">
        <ele>114</ele>
        <time>2021-03-07T09:43:13.982Z</time>
      </trkpt>
      <trkpt lat="48.60582" lon="2.09768">
        <ele>114</ele>
        <time>2021-03-07T09:43:14.981Z</time>
      </trkpt>
      <trkpt lat="48.60582" lon="2.09766">
        <ele>113</ele>
        <time>2021-03-07T09:43:15.982Z</time>
      </trkpt>
      <trkpt lat="48.60582" lon="2.09764">
        <ele>113</ele>
        <time>2021-03-07T09:43:16.982Z</time>
      </trkpt>
      <trkpt lat="48.60581" lon="2.09762">
        <ele>113</ele>
        <time>2021-03-07T09:43:17.981Z</time>
      </trkpt>
      <trkpt lat="48.60581" lon="2.0976">
        <ele>113</ele>
        <time>2021-03-07T09:43:18.981Z</time>
      </trkpt>
      <trkpt lat="48.60581" lon="2.09759">
        <ele>113</ele>
        <time>2021-03-07T09:43:19.981Z</time>
      </trkpt>
      <trkpt lat="48.60581" lon="2.09756">
        <ele>113</ele>
        <time>2021-03-07T09:43:20.981Z</time>
      </trkpt>
      <trkpt lat="48.6058" lon="2.09754">
        <ele>113</ele>
        <time>2021-03-07T09:43:21.981Z</time>
      </trkpt>
      <trkpt lat="48.6058" lon="2.09752">
        <ele>114</ele>
        <time>2021-03-07T09:43:22.981Z</time>
      </trkpt>
      <trkpt lat="48.60579" lon="2.0975">
        <ele>114</ele>
        <time>2021-03-07T09:43:23.982Z</time>
      </trkpt>
      <trkpt lat="48.60579" lon="2.09748">
        <ele>114</ele>
        <time>2021-03-07T09:43:24.981Z</time>
      </trkpt>
      <trkpt lat="48.60579" lon="2.09746">
        <ele>113</ele>
        <time>2021-03-07T09:43:25.982Z</time>
      </trkpt>
      <trkpt lat="48.60578" lon="2.09744">
        <ele>113</ele>
        <time>2021-03-07T09:43:26.982Z</time>
      </trkpt>
      <trkpt lat="48.60577" lon="2.09743">
        <ele>113</ele>
        <time>2021-03-07T09:43:27.982Z</time>
      </trkpt>
      <trkpt lat="48.60577" lon="2.09741">
        <ele>113</ele>
        <time>2021-03-07T09:43:28.982Z</time>
      </trkpt>
      <trkpt lat="48.60577" lon="2.09738">
        <ele>113</ele>
        <time>2021-03-07T09:43:29.981Z</time>
      </trkpt>
      <trkpt lat="48.60577" lon="2.09736">
        <ele>113</ele>
        <time>2021-03-07T09:43:30.982Z</time>
      </trkpt>
      <trkpt lat="48.60577" lon="2.09735">
        <ele>113</ele>
        <time>2021-03-07T09:43:31.981Z</time>
      </trkpt>
      <trkpt lat="48.60576" lon="2.09733">
        <ele>113</ele>
        <time>2021-03-07T09:43:32.982Z</time>
      </trkpt>
      <trkpt lat="48.60576" lon="2.09731">
        <ele>114</ele>
        <time>2021-03-07T09:43:33.982Z</time>
      </trkpt>
      <trkpt lat="48.60575" lon="2.09729">
        <ele>114</ele>
        <time>2021-03-07T09:43:34.982Z</time>
      </trkpt>
      <trkpt lat="48.60575" lon="2.09726">
        <ele>115</ele>
        <time>2021-03-07T09:43:35.982Z</time>
      </trkpt>
      <trkpt lat="48.60574" lon="2.09724">
        <ele>115</ele>
        <time>2021-03-07T09:43:36.981Z</time>
      </trkpt>
      <trkpt lat="48.60573" lon="2.09722">
        <ele>115</ele>
        <time>2021-03-07T09:43:37.982Z</time>
      </trkpt>
      <trkpt lat="48.60573" lon="2.0972">
        <ele>115</ele>
        <time>2021-03-07T09:43:38.982Z</time>
      </trkpt>
      <trkpt lat="48.60572" lon="2.09719">
        <ele>115</ele>
        <time>2021-03-07T09:43:39.981Z</time>
      </trkpt>
      <trkpt lat="48.60572" lon="2.09717">
        <ele>115</ele>
        <time>2021-03-07T09:43:40.982Z</time>
      </trkpt>
      <trkpt lat="48.60571" lon="2.09715">
        <ele>115</ele>
        <time>2021-03-07T09:43:41.982Z</time>
      </trkpt>
      <trkpt lat="48.60571" lon="2.09713">
        <ele>115</ele>
        <time>2021-03-07T09:43:42.982Z</time>
      </trkpt>
      <trkpt lat="48.6057" lon="2.09711">
        <ele>115</ele>
        <time>2021-03-07T09:43:43.981Z</time>
      </trkpt>
      <trkpt lat="48.60569" lon="2.09709">
        <ele>116</ele>
        <time>2021-03-07T09:43:44.982Z</time>
      </trkpt>
      <trkpt lat="48.60569" lon="2.09707">
        <ele>116</ele>
        <time>2021-03-07T09:43:45.981Z</time>
      </trkpt>
      <trkpt lat="48.60568" lon="2.09705">
        <ele>116</ele>
        <time>2021-03-07T09:43:46.982Z</time>
      </trkpt>
      <trkpt lat="48.60568" lon="2.09703">
        <ele>116</ele>
        <time>2021-03-07T09:43:47.982Z</time>
      </trkpt>
      <trkpt lat="48.60568" lon="2.09701">
        <ele>116</ele>
        <time>2021-03-07T09:43:48.982Z</time>
      </trkpt>
      <trkpt lat="48.60567" lon="2.09699">
        <ele>116</ele>
        <time>2021-03-07T09:43:49.982Z</time>
      </trkpt>
      <trkpt lat="48.60567" lon="2.09697">
        <ele>116</ele>
        <time>2021-03-07T09:43:50.981Z</time>
      </trkpt>
      <trkpt lat="48.60567" lon="2.09695">
        <ele>117</ele>
        <time>2021-03-07T09:43:51.982Z</time>
      </trkpt>
      <trkpt lat="48.60566" lon="2.09694">
        <ele>117</ele>
        <time>2021-03-07T09:43:52.981Z</time>
      </trkpt>
      <trkpt lat="48.60566" lon="2.09692">
        <ele>117</ele>
        <time>2021-03-07T09:43:53.981Z</time>
      </trkpt>
      <trkpt lat="48.60565" lon="2.0969">
        <ele>117</ele>
        <time>2021-03-07T09:43:54.982Z</time>
      </trkpt>
      <trkpt lat="48.60565" lon="2.09688">
        <ele>117</ele>
        <time>2021-03-07T09:43:55.982Z</time>
      </trkpt>
      <trkpt lat="48.60565" lon="2.09687">
        <ele>117</ele>
        <time>2021-03-07T09:43:56.982Z</time>
      </trkpt>
      <trkpt lat="48.60565" lon="2.09685">
        <ele>117</ele>
        <time>2021-03-07T09:43:57.982Z</time>
      </trkpt>
      <trkpt lat="48.60565" lon="2.09683">
        <ele>118</ele>
        <time>2021-03-07T09:43:58.982Z</time>
      </trkpt>
      <trkpt lat="48.60565" lon="2.09681">
        <ele>117</ele>
        <time>2021-03-07T09:43:59.982Z</time>
      </trkpt>
      <trkpt lat="48.60565" lon="2.09679">
        <ele>117</ele>
        <time>2021-03-07T09:44:00.982Z</time>
      </trkpt>
      <trkpt lat="48.60564" lon="2.09677">
        <ele>117</ele>
        <time>2021-03-07T09:44:01.982Z</time>
      </trkpt>
      <trkpt lat="48.60564" lon="2.09675">
        <ele>116</ele>
        <time>2021-03-07T09:44:02.982Z</time>
      </trkpt>
      <trkpt lat="48.60563" lon="2.09673">
        <ele>116</ele>
        <time>2021-03-07T09:44:03.982Z</time>
      </trkpt>
      <trkpt lat="48.60562" lon="2.09671">
        <ele>116</ele>
        <time>2021-03-07T09:44:04.982Z</time>
      </trkpt>
      <trkpt lat="48.60561" lon="2.09669">
        <ele>116</ele>
        <time>2021-03-07T09:44:05.982Z</time>
      </trkpt>
      <trkpt lat="48.60561" lon="2.09667">
        <ele>116</ele>
        <time>2021-03-07T09:44:06.982Z</time>
      </trkpt>
      <trkpt lat="48.60561" lon="2.09665">
        <ele>116</ele>
        <time>2021-03-07T09:44:07.982Z</time>
      </trkpt>
      <trkpt lat="48.60561" lon="2.09664">
        <ele>116</ele>
        <time>2021-03-07T09:44:08.982Z</time>
      </trkpt>
      <trkpt lat="48.60561" lon="2.09662">
        <ele>116</ele>
        <time>2021-03-07T09:44:09.982Z</time>
      </trkpt>
      <trkpt lat="48.6056" lon="2.0966">
        <ele>117</ele>
        <time>2021-03-07T09:44:10.982Z</time>
      </trkpt>
      <trkpt lat="48.6056" lon="2.09659">
        <ele>117</ele>
        <time>2021-03-07T09:44:11.982Z</time>
      </trkpt>
      <trkpt lat="48.60559" lon="2.09657">
        <ele>117</ele>
        <time>2021-03-07T09:44:12.981Z</time>
      </trkpt>
      <trkpt lat="48.60559" lon="2.09654">
        <ele>117</ele>
        <time>2021-03-07T09:44:13.982Z</time>
      </trkpt>
      <trkpt lat="48.60559" lon="2.09653">
        <ele>117</ele>
        <time>2021-03-07T09:44:14.981Z</time>
      </trkpt>
      <trkpt lat="48.60559" lon="2.09651">
        <ele>117</ele>
        <time>2021-03-07T09:44:15.981Z</time>
      </trkpt>
      <trkpt lat="48.60558" lon="2.09649">
        <ele>117</ele>
        <time>2021-03-07T09:44:16.981Z</time>
      </trkpt>
      <trkpt lat="48.60558" lon="2.09647">
        <ele>117</ele>
        <time>2021-03-07T09:44:17.982Z</time>
      </trkpt>
      <trkpt lat="48.60558" lon="2.09645">
        <ele>118</ele>
        <time>2021-03-07T09:44:18.982Z</time>
      </trkpt>
      <trkpt lat="48.60557" lon="2.09643">
        <ele>118</ele>
        <time>2021-03-07T09:44:19.982Z</time>
      </trkpt>
      <trkpt lat="48.60557" lon="2.09641">
        <ele>118</ele>
        <time>2021-03-07T09:44:20.981Z</time>
      </trkpt>
      <trkpt lat="48.60556" lon="2.09639">
        <ele>117</ele>
        <time>2021-03-07T09:44:21.982Z</time>
      </trkpt>
      <trkpt lat="48.60556" lon="2.09637">
        <ele>117</ele>
        <time>2021-03-07T09:44:22.982Z</time>
      </trkpt>
      <trkpt lat="48.60555" lon="2.09636">
        <ele>117</ele>
        <time>2021-03-07T09:44:23.982Z</time>
      </trkpt>
      <trkpt lat="48.60554" lon="2.09634">
        <ele>118</ele>
        <time>2021-03-07T09:44:24.982Z</time>
      </trkpt>
      <trkpt lat="48.60554" lon="2.09632">
        <ele>118</ele>
        <time>2021-03-07T09:44:25.982Z</time>
      </trkpt>
      <trkpt lat="48.60553" lon="2.09631">
        <ele>118</ele>
        <time>2021-03-07T09:44:26.982Z</time>
      </trkpt>
      <trkpt lat="48.60553" lon="2.09629">
        <ele>118</ele>
        <time>2021-03-07T09:44:27.982Z</time>
      </trkpt>
      <trkpt lat="48.60553" lon="2.09627">
        <ele>118</ele>
        <time>2021-03-07T09:44:28.982Z</time>
      </trkpt>
      <trkpt lat="48.60552" lon="2.09625">
        <ele>118</ele>
        <time>2021-03-07T09:44:29.982Z</time>
      </trkpt>
      <trkpt lat="48.60552" lon="2.09623">
        <ele>118</ele>
        <time>2021-03-07T09:44:30.982Z</time>
      </trkpt>
      <trkpt lat="48.60552" lon="2.09621">
        <ele>118</ele>
        <time>2021-03-07T09:44:31.982Z</time>
      </trkpt>
      <trkpt lat="48.60551" lon="2.09619">
        <ele>118</ele>
        <time>2021-03-07T09:44:32.982Z</time>
      </trkpt>
      <trkpt lat="48.60551" lon="2.09617">
        <ele>117</ele>
        <time>2021-03-07T09:44:33.982Z</time>
      </trkpt>
      <trkpt lat="48.6055" lon="2.09616">
        <ele>117</ele>
        <time>2021-03-07T09:44:34.981Z</time>
      </trkpt>
      <trkpt lat="48.6055" lon="2.09614">
        <ele>118</ele>
        <time>2021-03-07T09:44:35.981Z</time>
      </trkpt>
      <trkpt lat="48.60549" lon="2.09612">
        <ele>118</ele>
        <time>2021-03-07T09:44:36.982Z</time>
      </trkpt>
      <trkpt lat="48.60549" lon="2.0961">
        <ele>119</ele>
        <time>2021-03-07T09:44:37.982Z</time>
      </trkpt>
      <trkpt lat="48.60549" lon="2.09608">
        <ele>119</ele>
        <time>2021-03-07T09:44:38.982Z</time>
      </trkpt>
      <trkpt lat="48.60549" lon="2.09606">
        <ele>120</ele>
        <time>2021-03-07T09:44:39.982Z</time>
      </trkpt>
      <trkpt lat="48.60549" lon="2.09604">
        <ele>120</ele>
        <time>2021-03-07T09:44:40.982Z</time>
      </trkpt>
      <trkpt lat="48.60548" lon="2.09603">
        <ele>121</ele>
        <time>2021-03-07T09:44:41.981Z</time>
      </trkpt>
      <trkpt lat="48.60548" lon="2.09601">
        <ele>122</ele>
        <time>2021-03-07T09:44:42.982Z</time>
      </trkpt>
      <trkpt lat="48.60548" lon="2.09599">
        <ele>122</ele>
        <time>2021-03-07T09:44:43.982Z</time>
      </trkpt>
      <trkpt lat="48.60548" lon="2.09597">
        <ele>122</ele>
        <time>2021-03-07T09:44:44.982Z</time>
      </trkpt>
      <trkpt lat="48.60548" lon="2.09595">
        <ele>122</ele>
        <time>2021-03-07T09:44:45.981Z</time>
      </trkpt>
      <trkpt lat="48.60548" lon="2.09593">
        <ele>122</ele>
        <time>2021-03-07T09:44:46.981Z</time>
      </trkpt>
      <trkpt lat="48.60548" lon="2.09591">
        <ele>123</ele>
        <time>2021-03-07T09:44:47.982Z</time>
      </trkpt>
      <trkpt lat="48.60548" lon="2.09589">
        <ele>123</ele>
        <time>2021-03-07T09:44:48.982Z</time>
      </trkpt>
      <trkpt lat="48.60548" lon="2.09587">
        <ele>123</ele>
        <time>2021-03-07T09:44:49.982Z</time>
      </trkpt>
      <trkpt lat="48.60548" lon="2.09585">
        <ele>123</ele>
        <time>2021-03-07T09:44:50.982Z</time>
      </trkpt>
      <trkpt lat="48.60548" lon="2.09584">
        <ele>123</ele>
        <time>2021-03-07T09:44:51.982Z</time>
      </trkpt>
      <trkpt lat="48.60549" lon="2.09582">
        <ele>123</ele>
        <time>2021-03-07T09:44:52.982Z</time>
      </trkpt>
      <trkpt lat="48.60549" lon="2.0958">
        <ele>122</ele>
        <time>2021-03-07T09:44:53.982Z</time>
      </trkpt>
      <trkpt lat="48.60549" lon="2.09578">
        <ele>122</ele>
        <time>2021-03-07T09:44:54.982Z</time>
      </trkpt>
      <trkpt lat="48.60549" lon="2.09576">
        <ele>122</ele>
        <time>2021-03-07T09:44:55.982Z</time>
      </trkpt>
      <trkpt lat="48.6055" lon="2.09575">
        <ele>122</ele>
        <time>2021-03-07T09:44:56.982Z</time>
      </trkpt>
      <trkpt lat="48.6055" lon="2.09574">
        <ele>122</ele>
        <time>2021-03-07T09:44:57.982Z</time>
      </trkpt>
      <trkpt lat="48.60551" lon="2.09573">
        <ele>122</ele>
        <time>2021-03-07T09:44:58.982Z</time>
      </trkpt>
      <trkpt lat="48.60551" lon="2.09571">
        <ele>122</ele>
        <time>2021-03-07T09:44:59.981Z</time>
      </trkpt>
      <trkpt lat="48.60552" lon="2.09569">
        <ele>121</ele>
        <time>2021-03-07T09:45:00.981Z</time>
      </trkpt>
      <trkpt lat="48.60553" lon="2.09568">
        <ele>121</ele>
        <time>2021-03-07T09:45:01.981Z</time>
      </trkpt>
      <trkpt lat="48.60553" lon="2.09566">
        <ele>121</ele>
        <time>2021-03-07T09:45:02.981Z</time>
      </trkpt>
      <trkpt lat="48.60554" lon="2.09564">
        <ele>121</ele>
        <time>2021-03-07T09:45:03.982Z</time>
      </trkpt>
      <trkpt lat="48.60554" lon="2.09561">
        <ele>120</ele>
        <time>2021-03-07T09:45:04.982Z</time>
      </trkpt>
      <trkpt lat="48.60554" lon="2.09558">
        <ele>120</ele>
        <time>2021-03-07T09:45:05.982Z</time>
      </trkpt>
      <trkpt lat="48.60555" lon="2.09556">
        <ele>120</ele>
        <time>2021-03-07T09:45:06.982Z</time>
      </trkpt>
      <trkpt lat="48.60555" lon="2.09553">
        <ele>121</ele>
        <time>2021-03-07T09:45:07.981Z</time>
      </trkpt>
      <trkpt lat="48.60555" lon="2.09552">
        <ele>121</ele>
        <time>2021-03-07T09:45:08.982Z</time>
      </trkpt>
      <trkpt lat="48.60555" lon="2.0955">
        <ele>122</ele>
        <time>2021-03-07T09:45:09.982Z</time>
      </trkpt>
      <trkpt lat="48.60555" lon="2.09548">
        <ele>123</ele>
        <time>2021-03-07T09:45:10.982Z</time>
      </trkpt>
      <trkpt lat="48.60555" lon="2.09546">
        <ele>123</ele>
        <time>2021-03-07T09:45:11.982Z</time>
      </trkpt>
      <trkpt lat="48.60556" lon="2.09545">
        <ele>124</ele>
        <time>2021-03-07T09:45:12.981Z</time>
      </trkpt>
      <trkpt lat="48.60556" lon="2.09544">
        <ele>124</ele>
        <time>2021-03-07T09:45:13.982Z</time>
      </trkpt>
      <trkpt lat="48.60556" lon="2.09543">
        <ele>123</ele>
        <time>2021-03-07T09:45:14.982Z</time>
      </trkpt>
      <trkpt lat="48.60556" lon="2.09542">
        <ele>122</ele>
        <time>2021-03-07T09:45:15.981Z</time>
      </trkpt>
      <trkpt lat="48.60556" lon="2.09541">
        <ele>122</ele>
        <time>2021-03-07T09:45:16.981Z</time>
      </trkpt>
      <trkpt lat="48.60556" lon="2.09539">
        <ele>121</ele>
        <time>2021-03-07T09:45:17.982Z</time>
      </trkpt>
      <trkpt lat="48.60555" lon="2.09538">
        <ele>121</ele>
        <time>2021-03-07T09:45:18.982Z</time>
      </trkpt>
      <trkpt lat="48.60555" lon="2.09536">
        <ele>121</ele>
        <time>2021-03-07T09:45:19.982Z</time>
      </trkpt>
      <trkpt lat="48.60554" lon="2.09534">
        <ele>120</ele>
        <time>2021-03-07T09:45:20.982Z</time>
      </trkpt>
      <trkpt lat="48.60554" lon="2.09532">
        <ele>120</ele>
        <time>2021-03-07T09:45:21.982Z</time>
      </trkpt>
      <trkpt lat="48.60553" lon="2.0953">
        <ele>120</ele>
        <time>2021-03-07T09:45:22.982Z</time>
      </trkpt>
      <trkpt lat="48.60553" lon="2.09529">
        <ele>120</ele>
        <time>2021-03-07T09:45:23.981Z</time>
      </trkpt>
      <trkpt lat="48.60553" lon="2.09527">
        <ele>120</ele>
        <time>2021-03-07T09:45:24.982Z</time>
      </trkpt>
      <trkpt lat="48.60553" lon="2.09526">
        <ele>120</ele>
        <time>2021-03-07T09:45:25.982Z</time>
      </trkpt>
      <trkpt lat="48.60553" lon="2.09525">
        <ele>120</ele>
        <time>2021-03-07T09:45:26.982Z</time>
      </trkpt>
      <trkpt lat="48.60553" lon="2.09523">
        <ele>120</ele>
        <time>2021-03-07T09:45:27.982Z</time>
      </trkpt>
      <trkpt lat="48.60553" lon="2.09522">
        <ele>119</ele>
        <time>2021-03-07T09:45:28.982Z</time>
      </trkpt>
      <trkpt lat="48.60552" lon="2.0952">
        <ele>119</ele>
        <time>2021-03-07T09:45:29.982Z</time>
      </trkpt>
      <trkpt lat="48.60552" lon="2.09518">
        <ele>119</ele>
        <time>2021-03-07T09:45:30.981Z</time>
      </trkpt>
      <trkpt lat="48.60552" lon="2.09516">
        <ele>119</ele>
        <time>2021-03-07T09:45:31.981Z</time>
      </trkpt>
      <trkpt lat="48.60551" lon="2.09514">
        <ele>119</ele>
        <time>2021-03-07T09:45:32.982Z</time>
      </trkpt>
      <trkpt lat="48.60551" lon="2.09511">
        <ele>119</ele>
        <time>2021-03-07T09:45:33.982Z</time>
      </trkpt>
      <trkpt lat="48.6055" lon="2.09508">
        <ele>120</ele>
        <time>2021-03-07T09:45:34.982Z</time>
      </trkpt>
      <trkpt lat="48.6055" lon="2.09505">
        <ele>120</ele>
        <time>2021-03-07T09:45:35.982Z</time>
      </trkpt>
      <trkpt lat="48.6055" lon="2.09502">
        <ele>120</ele>
        <time>2021-03-07T09:45:36.981Z</time>
      </trkpt>
      <trkpt lat="48.6055" lon="2.095">
        <ele>120</ele>
        <time>2021-03-07T09:45:37.982Z</time>
      </trkpt>
      <trkpt lat="48.6055" lon="2.09498">
        <ele>121</ele>
        <time>2021-03-07T09:45:38.982Z</time>
      </trkpt>
      <trkpt lat="48.6055" lon="2.09496">
        <ele>121</ele>
        <time>2021-03-07T09:45:39.982Z</time>
      </trkpt>
      <trkpt lat="48.6055" lon="2.09495">
        <ele>121</ele>
        <time>2021-03-07T09:45:40.982Z</time>
      </trkpt>
      <trkpt lat="48.6055" lon="2.09494">
        <ele>121</ele>
        <time>2021-03-07T09:45:41.982Z</time>
      </trkpt>
      <trkpt lat="48.6055" lon="2.09492">
        <ele>122</ele>
        <time>2021-03-07T09:45:42.982Z</time>
      </trkpt>
      <trkpt lat="48.60551" lon="2.0949">
        <ele>122</ele>
        <time>2021-03-07T09:45:43.981Z</time>
      </trkpt>
      <trkpt lat="48.60551" lon="2.09488">
        <ele>122</ele>
        <time>2021-03-07T09:45:44.981Z</time>
      </trkpt>
      <trkpt lat="48.60552" lon="2.09486">
        <ele>123</ele>
        <time>2021-03-07T09:45:45.981Z</time>
      </trkpt>
      <trkpt lat="48.60552" lon="2.09484">
        <ele>123</ele>
        <time>2021-03-07T09:45:46.982Z</time>
      </trkpt>
      <trkpt lat="48.60552" lon="2.09482">
        <ele>123</ele>
        <time>2021-03-07T09:45:47.982Z</time>
      </trkpt>
      <trkpt lat="48.60553" lon="2.09481">
        <ele>123</ele>
        <time>2021-03-07T09:45:48.982Z</time>
      </trkpt>
      <trkpt lat="48.60553" lon="2.09478">
        <ele>123</ele>
        <time>2021-03-07T09:45:49.981Z</time>
      </trkpt>
      <trkpt lat="48.60554" lon="2.09476">
        <ele>123</ele>
        <time>2021-03-07T09:45:50.981Z</time>
      </trkpt>
      <trkpt lat="48.60555" lon="2.09474">
        <ele>124</ele>
        <time>2021-03-07T09:45:51.982Z</time>
      </trkpt>
      <trkpt lat="48.60555" lon="2.09471">
        <ele>124</ele>
        <time>2021-03-07T09:45:52.982Z</time>
      </trkpt>
      <trkpt lat="48.60556" lon="2.09469">
        <ele>124</ele>
        <time>2021-03-07T09:45:53.982Z</time>
      </trkpt>
      <trkpt lat="48.60557" lon="2.09467">
        <ele>125</ele>
        <time>2021-03-07T09:45:54.982Z</time>
      </trkpt>
      <trkpt lat="48.60558" lon="2.09465">
        <ele>125</ele>
        <time>2021-03-07T09:45:55.982Z</time>
      </trkpt>
      <trkpt lat="48.60559" lon="2.09464">
        <ele>124</ele>
        <time>2021-03-07T09:45:56.982Z</time>
      </trkpt>
      <trkpt lat="48.6056" lon="2.09463">
        <ele>124</ele>
        <time>2021-03-07T09:45:57.982Z</time>
      </trkpt>
      <trkpt lat="48.60561" lon="2.09462">
        <ele>123</ele>
        <time>2021-03-07T09:45:58.982Z</time>
      </trkpt>
      <trkpt lat="48.60563" lon="2.09462">
        <ele>123</ele>
        <time>2021-03-07T09:45:59.981Z</time>
      </trkpt>
      <trkpt lat="48.60564" lon="2.09461">
        <ele>122</ele>
        <time>2021-03-07T09:46:00.982Z</time>
      </trkpt>
      <trkpt lat="48.60565" lon="2.0946">
        <ele>122</ele>
        <time>2021-03-07T09:46:01.981Z</time>
      </trkpt>
      <trkpt lat="48.60567" lon="2.0946">
        <ele>121</ele>
        <time>2021-03-07T09:46:02.982Z</time>
      </trkpt>
      <trkpt lat="48.60568" lon="2.09459">
        <ele>121</ele>
        <time>2021-03-07T09:46:03.982Z</time>
      </trkpt>
      <trkpt lat="48.6057" lon="2.09458">
        <ele>120</ele>
        <time>2021-03-07T09:46:04.981Z</time>
      </trkpt>
      <trkpt lat="48.60572" lon="2.09457">
        <ele>120</ele>
        <time>2021-03-07T09:46:05.981Z</time>
      </trkpt>
      <trkpt lat="48.60573" lon="2.09457">
        <ele>119</ele>
        <time>2021-03-07T09:46:06.981Z</time>
      </trkpt>
      <trkpt lat="48.60574" lon="2.09457">
        <ele>119</ele>
        <time>2021-03-07T09:46:07.982Z</time>
      </trkpt>
      <trkpt lat="48.60576" lon="2.09457">
        <ele>118</ele>
        <time>2021-03-07T09:46:08.982Z</time>
      </trkpt>
      <trkpt lat="48.60577" lon="2.09457">
        <ele>118</ele>
        <time>2021-03-07T09:46:09.982Z</time>
      </trkpt>
      <trkpt lat="48.60578" lon="2.09457">
        <ele>118</ele>
        <time>2021-03-07T09:46:10.982Z</time>
      </trkpt>
      <trkpt lat="48.60579" lon="2.09457">
        <ele>118</ele>
        <time>2021-03-07T09:46:11.982Z</time>
      </trkpt>
      <trkpt lat="48.6058" lon="2.09457">
        <ele>118</ele>
        <time>2021-03-07T09:46:12.982Z</time>
      </trkpt>
      <trkpt lat="48.60581" lon="2.09456">
        <ele>118</ele>
        <time>2021-03-07T09:46:13.982Z</time>
      </trkpt>
      <trkpt lat="48.60583" lon="2.09456">
        <ele>118</ele>
        <time>2021-03-07T09:46:14.982Z</time>
      </trkpt>
      <trkpt lat="48.60584" lon="2.09456">
        <ele>118</ele>
        <time>2021-03-07T09:46:15.982Z</time>
      </trkpt>
      <trkpt lat="48.60585" lon="2.09456">
        <ele>118</ele>
        <time>2021-03-07T09:46:16.981Z</time>
      </trkpt>
      <trkpt lat="48.60587" lon="2.09455">
        <ele>118</ele>
        <time>2021-03-07T09:46:17.982Z</time>
      </trkpt>
      <trkpt lat="48.60588" lon="2.09454">
        <ele>118</ele>
        <time>2021-03-07T09:46:18.982Z</time>
      </trkpt>
      <trkpt lat="48.60589" lon="2.09453">
        <ele>118</ele>
        <time>2021-03-07T09:46:19.981Z</time>
      </trkpt>
      <trkpt lat="48.6059" lon="2.09452">
        <ele>118</ele>
        <time>2021-03-07T09:46:20.982Z</time>
      </trkpt>
      <trkpt lat="48.60592" lon="2.0945">
        <ele>118</ele>
        <time>2021-03-07T09:46:21.981Z</time>
      </trkpt>
      <trkpt lat="48.60593" lon="2.09449">
        <ele>117</ele>
        <time>2021-03-07T09:46:22.982Z</time>
      </trkpt>
      <trkpt lat="48.60594" lon="2.09448">
        <ele>117</ele>
        <time>2021-03-07T09:46:23.981Z</time>
      </trkpt>
      <trkpt lat="48.60595" lon="2.09446">
        <ele>116</ele>
        <time>2021-03-07T09:46:24.981Z</time>
      </trkpt>
      <trkpt lat="48.60596" lon="2.09445">
        <ele>116</ele>
        <time>2021-03-07T09:46:25.981Z</time>
      </trkpt>
      <trkpt lat="48.60596" lon="2.09443">
        <ele>115</ele>
        <time>2021-03-07T09:46:26.982Z</time>
      </trkpt>
      <trkpt lat="48.60597" lon="2.09442">
        <ele>115</ele>
        <time>2021-03-07T09:46:27.982Z</time>
      </trkpt>
      <trkpt lat="48.60597" lon="2.0944">
        <ele>115</ele>
        <time>2021-03-07T09:46:28.982Z</time>
      </trkpt>
      <trkpt lat="48.60597" lon="2.09439">
        <ele>115</ele>
        <time>2021-03-07T09:46:29.982Z</time>
      </trkpt>
      <trkpt lat="48.60598" lon="2.09437">
        <ele>115</ele>
        <time>2021-03-07T09:46:30.982Z</time>
      </trkpt>
      <trkpt lat="48.60599" lon="2.09436">
        <ele>114</ele>
        <time>2021-03-07T09:46:31.981Z</time>
      </trkpt>
      <trkpt lat="48.606" lon="2.09434">
        <ele>115</ele>
        <time>2021-03-07T09:46:32.981Z</time>
      </trkpt>
      <trkpt lat="48.606" lon="2.09433">
        <ele>115</ele>
        <time>2021-03-07T09:46:33.982Z</time>
      </trkpt>
      <trkpt lat="48.60601" lon="2.09431">
        <ele>115</ele>
        <time>2021-03-07T09:46:34.982Z</time>
      </trkpt>
      <trkpt lat="48.60601" lon="2.0943">
        <ele>116</ele>
        <time>2021-03-07T09:46:35.982Z</time>
      </trkpt>
      <trkpt lat="48.60601" lon="2.09428">
        <ele>116</ele>
        <time>2021-03-07T09:46:36.982Z</time>
      </trkpt>
      <trkpt lat="48.60601" lon="2.09427">
        <ele>116</ele>
        <time>2021-03-07T09:46:37.982Z</time>
      </trkpt>
      <trkpt lat="48.60601" lon="2.09426">
        <ele>116</ele>
        <time>2021-03-07T09:46:38.982Z</time>
      </trkpt>
      <trkpt lat="48.60601" lon="2.09425">
        <ele>117</ele>
        <time>2021-03-07T09:46:39.982Z</time>
      </trkpt>
      <trkpt lat="48.60601" lon="2.09424">
        <ele>118</ele>
        <time>2021-03-07T09:46:40.981Z</time>
      </trkpt>
      <trkpt lat="48.606" lon="2.09422">
        <ele>118</ele>
        <time>2021-03-07T09:46:41.981Z</time>
      </trkpt>
      <trkpt lat="48.606" lon="2.09421">
        <ele>119</ele>
        <time>2021-03-07T09:46:42.981Z</time>
      </trkpt>
      <trkpt lat="48.606" lon="2.09419">
        <ele>120</ele>
        <time>2021-03-07T09:46:43.981Z</time>
      </trkpt>
      <trkpt lat="48.60599" lon="2.09418">
        <ele>121</ele>
        <time>2021-03-07T09:46:44.982Z</time>
      </trkpt>
      <trkpt lat="48.60599" lon="2.09416">
        <ele>121</ele>
        <time>2021-03-07T09:46:45.982Z</time>
      </trkpt>
      <trkpt lat="48.60599" lon="2.09414">
        <ele>121</ele>
        <time>2021-03-07T09:46:46.982Z</time>
      </trkpt>
      <trkpt lat="48.60598" lon="2.09412">
        <ele>122</ele>
        <time>2021-03-07T09:46:47.981Z</time>
      </trkpt>
      <trkpt lat="48.60598" lon="2.0941">
        <ele>122</ele>
        <time>2021-03-07T09:46:48.981Z</time>
      </trkpt>
      <trkpt lat="48.60598" lon="2.09407">
        <ele>122</ele>
        <time>2021-03-07T09:46:49.982Z</time>
      </trkpt>
      <trkpt lat="48.60599" lon="2.09406">
        <ele>121</ele>
        <time>2021-03-07T09:46:50.982Z</time>
      </trkpt>
      <trkpt lat="48.60599" lon="2.09404">
        <ele>121</ele>
        <time>2021-03-07T09:46:51.982Z</time>
      </trkpt>
      <trkpt lat="48.60598" lon="2.09402">
        <ele>121</ele>
        <time>2021-03-07T09:46:52.982Z</time>
      </trkpt>
      <trkpt lat="48.60598" lon="2.094">
        <ele>122</ele>
        <time>2021-03-07T09:46:53.982Z</time>
      </trkpt>
      <trkpt lat="48.60597" lon="2.09399">
        <ele>122</ele>
        <time>2021-03-07T09:46:54.982Z</time>
      </trkpt>
      <trkpt lat="48.60597" lon="2.09396">
        <ele>121</ele>
        <time>2021-03-07T09:46:55.982Z</time>
      </trkpt>
      <trkpt lat="48.60597" lon="2.09395">
        <ele>122</ele>
        <time>2021-03-07T09:46:56.982Z</time>
      </trkpt>
      <trkpt lat="48.60596" lon="2.09392">
        <ele>122</ele>
        <time>2021-03-07T09:46:57.982Z</time>
      </trkpt>
      <trkpt lat="48.60596" lon="2.0939">
        <ele>122</ele>
        <time>2021-03-07T09:46:58.982Z</time>
      </trkpt>
      <trkpt lat="48.60596" lon="2.09388">
        <ele>122</ele>
        <time>2021-03-07T09:46:59.982Z</time>
      </trkpt>
      <trkpt lat="48.60596" lon="2.09386">
        <ele>122</ele>
        <time>2021-03-07T09:47:00.982Z</time>
      </trkpt>
      <trkpt lat="48.60595" lon="2.09385">
        <ele>122</ele>
        <time>2021-03-07T09:47:01.982Z</time>
      </trkpt>
      <trkpt lat="48.60595" lon="2.09383">
        <ele>122</ele>
        <time>2021-03-07T09:47:02.981Z</time>
      </trkpt>
      <trkpt lat="48.60595" lon="2.09381">
        <ele>122</ele>
        <time>2021-03-07T09:47:03.981Z</time>
      </trkpt>
      <trkpt lat="48.60595" lon="2.09379">
        <ele>121</ele>
        <time>2021-03-07T09:47:04.982Z</time>
      </trkpt>
      <trkpt lat="48.60594" lon="2.09378">
        <ele>121</ele>
        <time>2021-03-07T09:47:05.982Z</time>
      </trkpt>
      <trkpt lat="48.60594" lon="2.09376">
        <ele>121</ele>
        <time>2021-03-07T09:47:06.982Z</time>
      </trkpt>
      <trkpt lat="48.60594" lon="2.09374">
        <ele>121</ele>
        <time>2021-03-07T09:47:07.981Z</time>
      </trkpt>
      <trkpt lat="48.60594" lon="2.09372">
        <ele>121</ele>
        <time>2021-03-07T09:47:08.981Z</time>
      </trkpt>
      <trkpt lat="48.60594" lon="2.0937">
        <ele>121</ele>
        <time>2021-03-07T09:47:09.982Z</time>
      </trkpt>
      <trkpt lat="48.60594" lon="2.09368">
        <ele>121</ele>
        <time>2021-03-07T09:47:10.982Z</time>
      </trkpt>
      <trkpt lat="48.60594" lon="2.09366">
        <ele>121</ele>
        <time>2021-03-07T09:47:11.982Z</time>
      </trkpt>
      <trkpt lat="48.60593" lon="2.09365">
        <ele>121</ele>
        <time>2021-03-07T09:47:12.982Z</time>
      </trkpt>
      <trkpt lat="48.60593" lon="2.09363">
        <ele>121</ele>
        <time>2021-03-07T09:47:13.982Z</time>
      </trkpt>
      <trkpt lat="48.60593" lon="2.09362">
        <ele>122</ele>
        <time>2021-03-07T09:47:14.981Z</time>
      </trkpt>
      <trkpt lat="48.60593" lon="2.0936">
        <ele>122</ele>
        <time>2021-03-07T09:47:15.982Z</time>
      </trkpt>
      <trkpt lat="48.60593" lon="2.09358">
        <ele>121</ele>
        <time>2021-03-07T09:47:16.982Z</time>
      </trkpt>
      <trkpt lat="48.60592" lon="2.09356">
        <ele>121</ele>
        <time>2021-03-07T09:47:17.982Z</time>
      </trkpt>
      <trkpt lat="48.60592" lon="2.09354">
        <ele>121</ele>
        <time>2021-03-07T09:47:18.981Z</time>
      </trkpt>
      <trkpt lat="48.60592" lon="2.09352">
        <ele>121</ele>
        <time>2021-03-07T09:47:19.981Z</time>
      </trkpt>
      <trkpt lat="48.60592" lon="2.0935">
        <ele>120</ele>
        <time>2021-03-07T09:47:20.982Z</time>
      </trkpt>
      <trkpt lat="48.60591" lon="2.09348">
        <ele>120</ele>
        <time>2021-03-07T09:47:21.982Z</time>
      </trkpt>
      <trkpt lat="48.60591" lon="2.09346">
        <ele>120</ele>
        <time>2021-03-07T09:47:22.982Z</time>
      </trkpt>
      <trkpt lat="48.60591" lon="2.09344">
        <ele>120</ele>
        <time>2021-03-07T09:47:23.982Z</time>
      </trkpt>
      <trkpt lat="48.6059" lon="2.09343">
        <ele>119</ele>
        <time>2021-03-07T09:47:24.982Z</time>
      </trkpt>
      <trkpt lat="48.60589" lon="2.09341">
        <ele>119</ele>
        <time>2021-03-07T09:47:25.981Z</time>
      </trkpt>
      <trkpt lat="48.60588" lon="2.09339">
        <ele>118</ele>
        <time>2021-03-07T09:47:26.981Z</time>
      </trkpt>
      <trkpt lat="48.60587" lon="2.09338">
        <ele>118</ele>
        <time>2021-03-07T09:47:27.981Z</time>
      </trkpt>
      <trkpt lat="48.60586" lon="2.09338">
        <ele>118</ele>
        <time>2021-03-07T09:47:28.981Z</time>
      </trkpt>
      <trkpt lat="48.60584" lon="2.09338">
        <ele>118</ele>
        <time>2021-03-07T09:47:29.982Z</time>
      </trkpt>
      <trkpt lat="48.60583" lon="2.09338">
        <ele>117</ele>
        <time>2021-03-07T09:47:30.982Z</time>
      </trkpt>
      <trkpt lat="48.60582" lon="2.09338">
        <ele>117</ele>
        <time>2021-03-07T09:47:31.982Z</time>
      </trkpt>
      <trkpt lat="48.60581" lon="2.09338">
        <ele>117</ele>
        <time>2021-03-07T09:47:32.981Z</time>
      </trkpt>
      <trkpt lat="48.60579" lon="2.09339">
        <ele>117</ele>
        <time>2021-03-07T09:47:33.981Z</time>
      </trkpt>
      <trkpt lat="48.60578" lon="2.09339">
        <ele>117</ele>
        <time>2021-03-07T09:47:34.981Z</time>
      </trkpt>
      <trkpt lat="48.60576" lon="2.0934">
        <ele>117</ele>
        <time>2021-03-07T09:47:35.982Z</time>
      </trkpt>
      <trkpt lat="48.60575" lon="2.09341">
        <ele>117</ele>
        <time>2021-03-07T09:47:36.982Z</time>
      </trkpt>
      <trkpt lat="48.60574" lon="2.09341">
        <ele>117</ele>
        <time>2021-03-07T09:47:37.981Z</time>
      </trkpt>
      <trkpt lat="48.60573" lon="2.09342">
        <ele>117</ele>
        <time>2021-03-07T09:47:38.982Z</time>
      </trkpt>
      <trkpt lat="48.60572" lon="2.09343">
        <ele>117</ele>
        <time>2021-03-07T09:47:39.981Z</time>
      </trkpt>
      <trkpt lat="48.6057" lon="2.09343">
        <ele>117</ele>
        <time>2021-03-07T09:47:40.982Z</time>
      </trkpt>
      <trkpt lat="48.60569" lon="2.09344">
        <ele>117</ele>
        <time>2021-03-07T09:47:41.981Z</time>
      </trkpt>
      <trkpt lat="48.60568" lon="2.09344">
        <ele>117</ele>
        <time>2021-03-07T09:47:42.981Z</time>
      </trkpt>
      <trkpt lat="48.60567" lon="2.09344">
        <ele>117</ele>
        <time>2021-03-07T09:47:43.981Z</time>
      </trkpt>
      <trkpt lat="48.60565" lon="2.09344">
        <ele>118</ele>
        <time>2021-03-07T09:47:44.981Z</time>
      </trkpt>
      <trkpt lat="48.60564" lon="2.09344">
        <ele>118</ele>
        <time>2021-03-07T09:47:45.981Z</time>
      </trkpt>
      <trkpt lat="48.60563" lon="2.09345">
        <ele>119</ele>
        <time>2021-03-07T09:47:46.981Z</time>
      </trkpt>
      <trkpt lat="48.60562" lon="2.09346">
        <ele>119</ele>
        <time>2021-03-07T09:47:47.981Z</time>
      </trkpt>
      <trkpt lat="48.6056" lon="2.09347">
        <ele>119</ele>
        <time>2021-03-07T09:47:48.981Z</time>
      </trkpt>
      <trkpt lat="48.60559" lon="2.09347">
        <ele>119</ele>
        <time>2021-03-07T09:47:49.981Z</time>
      </trkpt>
      <trkpt lat="48.60557" lon="2.09347">
        <ele>119</ele>
        <time>2021-03-07T09:47:50.981Z</time>
      </trkpt>
      <trkpt lat="48.60556" lon="2.09347">
        <ele>119</ele>
        <time>2021-03-07T09:47:51.981Z</time>
      </trkpt>
      <trkpt lat="48.60554" lon="2.09347">
        <ele>119</ele>
        <time>2021-03-07T09:47:52.981Z</time>
      </trkpt>
      <trkpt lat="48.60553" lon="2.09347">
        <ele>119</ele>
        <time>2021-03-07T09:47:53.981Z</time>
      </trkpt>
      <trkpt lat="48.60551" lon="2.09348">
        <ele>119</ele>
        <time>2021-03-07T09:47:54.982Z</time>
      </trkpt>
      <trkpt lat="48.6055" lon="2.09348">
        <ele>119</ele>
        <time>2021-03-07T09:47:55.981Z</time>
      </trkpt>
      <trkpt lat="48.60549" lon="2.09348">
        <ele>118</ele>
        <time>2021-03-07T09:47:56.981Z</time>
      </trkpt>
      <trkpt lat="48.60548" lon="2.09348">
        <ele>118</ele>
        <time>2021-03-07T09:47:57.981Z</time>
      </trkpt>
      <trkpt lat="48.60547" lon="2.09349">
        <ele>118</ele>
        <time>2021-03-07T09:47:58.981Z</time>
      </trkpt>
      <trkpt lat="48.60546" lon="2.09349">
        <ele>117</ele>
        <time>2021-03-07T09:47:59.982Z</time>
      </trkpt>
      <trkpt lat="48.60544" lon="2.09349">
        <ele>117</ele>
        <time>2021-03-07T09:48:00.981Z</time>
      </trkpt>
      <trkpt lat="48.60543" lon="2.0935">
        <ele>116</ele>
        <time>2021-03-07T09:48:01.981Z</time>
      </trkpt>
      <trkpt lat="48.60542" lon="2.0935">
        <ele>116</ele>
        <time>2021-03-07T09:48:02.982Z</time>
      </trkpt>
      <trkpt lat="48.60541" lon="2.0935">
        <ele>115</ele>
        <time>2021-03-07T09:48:03.982Z</time>
      </trkpt>
      <trkpt lat="48.60539" lon="2.0935">
        <ele>115</ele>
        <time>2021-03-07T09:48:04.982Z</time>
      </trkpt>
      <trkpt lat="48.60538" lon="2.09351">
        <ele>115</ele>
        <time>2021-03-07T09:48:05.982Z</time>
      </trkpt>
      <trkpt lat="48.60536" lon="2.09351">
        <ele>115</ele>
        <time>2021-03-07T09:48:06.981Z</time>
      </trkpt>
      <trkpt lat="48.60535" lon="2.09351">
        <ele>115</ele>
        <time>2021-03-07T09:48:07.981Z</time>
      </trkpt>
      <trkpt lat="48.60534" lon="2.09351">
        <ele>116</ele>
        <time>2021-03-07T09:48:08.981Z</time>
      </trkpt>
      <trkpt lat="48.60533" lon="2.09352">
        <ele>116</ele>
        <time>2021-03-07T09:48:09.982Z</time>
      </trkpt>
      <trkpt lat="48.60532" lon="2.09352">
        <ele>116</ele>
        <time>2021-03-07T09:48:10.982Z</time>
      </trkpt>
      <trkpt lat="48.6053" lon="2.09352">
        <ele>117</ele>
        <time>2021-03-07T09:48:11.982Z</time>
      </trkpt>
      <trkpt lat="48.60529" lon="2.09353">
        <ele>117</ele>
        <time>2021-03-07T09:48:12.982Z</time>
      </trkpt>
      <trkpt lat="48.60528" lon="2.09353">
        <ele>117</ele>
        <time>2021-03-07T09:48:13.982Z</time>
      </trkpt>
      <trkpt lat="48.60527" lon="2.09353">
        <ele>117</ele>
        <time>2021-03-07T09:48:14.982Z</time>
      </trkpt>
      <trkpt lat="48.60525" lon="2.09352">
        <ele>116</ele>
        <time>2021-03-07T09:48:15.981Z</time>
      </trkpt>
      <trkpt lat="48.60524" lon="2.09352">
        <ele>116</ele>
        <time>2021-03-07T09:48:16.981Z</time>
      </trkpt>
      <trkpt lat="48.60523" lon="2.09353">
        <ele>117</ele>
        <time>2021-03-07T09:48:17.982Z</time>
      </trkpt>
      <trkpt lat="48.60522" lon="2.09353">
        <ele>117</ele>
        <time>2021-03-07T09:48:18.982Z</time>
      </trkpt>
      <trkpt lat="48.60521" lon="2.09353">
        <ele>117</ele>
        <time>2021-03-07T09:48:19.982Z</time>
      </trkpt>
      <trkpt lat="48.60519" lon="2.09354">
        <ele>117</ele>
        <time>2021-03-07T09:48:20.981Z</time>
      </trkpt>
      <trkpt lat="48.60518" lon="2.09354">
        <ele>117</ele>
        <time>2021-03-07T09:48:21.981Z</time>
      </trkpt>
      <trkpt lat="48.60517" lon="2.09355">
        <ele>116</ele>
        <time>2021-03-07T09:48:22.981Z</time>
      </trkpt>
      <trkpt lat="48.60516" lon="2.09355">
        <ele>116</ele>
        <time>2021-03-07T09:48:23.982Z</time>
      </trkpt>
      <trkpt lat="48.60515" lon="2.09355">
        <ele>115</ele>
        <time>2021-03-07T09:48:24.982Z</time>
      </trkpt>
      <trkpt lat="48.60514" lon="2.09354">
        <ele>115</ele>
        <time>2021-03-07T09:48:25.981Z</time>
      </trkpt>
      <trkpt lat="48.60513" lon="2.09354">
        <ele>114</ele>
        <time>2021-03-07T09:48:26.981Z</time>
      </trkpt>
      <trkpt lat="48.60512" lon="2.09353">
        <ele>113</ele>
        <time>2021-03-07T09:48:27.982Z</time>
      </trkpt>
      <trkpt lat="48.60511" lon="2.09353">
        <ele>113</ele>
        <time>2021-03-07T09:48:28.982Z</time>
      </trkpt>
      <trkpt lat="48.6051" lon="2.09354">
        <ele>112</ele>
        <time>2021-03-07T09:48:29.982Z</time>
      </trkpt>
      <trkpt lat="48.60509" lon="2.09354">
        <ele>112</ele>
        <time>2021-03-07T09:48:30.981Z</time>
      </trkpt>
      <trkpt lat="48.60507" lon="2.09354">
        <ele>112</ele>
        <time>2021-03-07T09:48:31.982Z</time>
      </trkpt>
      <trkpt lat="48.60506" lon="2.09355">
        <ele>112</ele>
        <time>2021-03-07T09:48:32.982Z</time>
      </trkpt>
      <trkpt lat="48.60505" lon="2.09355">
        <ele>111</ele>
        <time>2021-03-07T09:48:33.982Z</time>
      </trkpt>
      <trkpt lat="48.60504" lon="2.09356">
        <ele>111</ele>
        <time>2021-03-07T09:48:34.982Z</time>
      </trkpt>
      <trkpt lat="48.60503" lon="2.09356">
        <ele>111</ele>
        <time>2021-03-07T09:48:35.982Z</time>
      </trkpt>
      <trkpt lat="48.60501" lon="2.09356">
        <ele>111</ele>
        <time>2021-03-07T09:48:36.981Z</time>
      </trkpt>
      <trkpt lat="48.605" lon="2.09356">
        <ele>111</ele>
        <time>2021-03-07T09:48:37.982Z</time>
      </trkpt>
      <trkpt lat="48.60499" lon="2.09357">
        <ele>111</ele>
        <time>2021-03-07T09:48:38.982Z</time>
      </trkpt>
      <trkpt lat="48.60497" lon="2.09357">
        <ele>111</ele>
        <time>2021-03-07T09:48:39.982Z</time>
      </trkpt>
      <trkpt lat="48.60496" lon="2.09358">
        <ele>112</ele>
        <time>2021-03-07T09:48:40.982Z</time>
      </trkpt>
      <trkpt lat="48.60494" lon="2.09358">
        <ele>112</ele>
        <time>2021-03-07T09:48:41.982Z</time>
      </trkpt>
      <trkpt lat="48.60493" lon="2.09358">
        <ele>112</ele>
        <time>2021-03-07T09:48:42.982Z</time>
      </trkpt>
      <trkpt lat="48.60491" lon="2.09358">
        <ele>113</ele>
        <time>2021-03-07T09:48:43.982Z</time>
      </trkpt>
      <trkpt lat="48.6049" lon="2.09359">
        <ele>113</ele>
        <time>2021-03-07T09:48:44.982Z</time>
      </trkpt>
      <trkpt lat="48.60489" lon="2.09359">
        <ele>113</ele>
        <time>2021-03-07T09:48:45.981Z</time>
      </trkpt>
      <trkpt lat="48.60488" lon="2.0936">
        <ele>113</ele>
        <time>2021-03-07T09:48:46.982Z</time>
      </trkpt>
      <trkpt lat="48.60487" lon="2.0936">
        <ele>114</ele>
        <time>2021-03-07T09:48:47.982Z</time>
      </trkpt>
      <trkpt lat="48.60485" lon="2.09361">
        <ele>114</ele>
        <time>2021-03-07T09:48:48.982Z</time>
      </trkpt>
      <trkpt lat="48.60484" lon="2.09362">
        <ele>114</ele>
        <time>2021-03-07T09:48:49.981Z</time>
      </trkpt>
      <trkpt lat="48.60482" lon="2.09362">
        <ele>114</ele>
        <time>2021-03-07T09:48:50.981Z</time>
      </trkpt>
      <trkpt lat="48.60481" lon="2.09363">
        <ele>115</ele>
        <time>2021-03-07T09:48:51.981Z</time>
      </trkpt>
      <trkpt lat="48.60479" lon="2.09363">
        <ele>115</ele>
        <time>2021-03-07T09:48:52.981Z</time>
      </trkpt>
      <trkpt lat="48.60477" lon="2.09364">
        <ele>115</ele>
        <time>2021-03-07T09:48:53.982Z</time>
      </trkpt>
      <trkpt lat="48.60476" lon="2.09364">
        <ele>115</ele>
        <time>2021-03-07T09:48:54.982Z</time>
      </trkpt>
      <trkpt lat="48.60474" lon="2.09365">
        <ele>115</ele>
        <time>2021-03-07T09:48:55.982Z</time>
      </trkpt>
      <trkpt lat="48.60473" lon="2.09365">
        <ele>115</ele>
        <time>2021-03-07T09:48:56.982Z</time>
      </trkpt>
      <trkpt lat="48.60471" lon="2.09366">
        <ele>115</ele>
        <time>2021-03-07T09:48:57.982Z</time>
      </trkpt>
      <trkpt lat="48.6047" lon="2.09367">
        <ele>115</ele>
        <time>2021-03-07T09:48:58.982Z</time>
      </trkpt>
      <trkpt lat="48.60468" lon="2.09367">
        <ele>116</ele>
        <time>2021-03-07T09:48:59.982Z</time>
      </trkpt>
      <trkpt lat="48.60467" lon="2.09367">
        <ele>116</ele>
        <time>2021-03-07T09:49:00.981Z</time>
      </trkpt>
      <trkpt lat="48.60466" lon="2.09367">
        <ele>116</ele>
        <time>2021-03-07T09:49:01.981Z</time>
      </trkpt>
      <trkpt lat="48.60465" lon="2.09368">
        <ele>116</ele>
        <time>2021-03-07T09:49:02.982Z</time>
      </trkpt>
      <trkpt lat="48.60463" lon="2.09368">
        <ele>115</ele>
        <time>2021-03-07T09:49:03.982Z</time>
      </trkpt>
      <trkpt lat="48.60462" lon="2.09368">
        <ele>115</ele>
        <time>2021-03-07T09:49:04.982Z</time>
      </trkpt>
      <trkpt lat="48.60461" lon="2.09368">
        <ele>115</ele>
        <time>2021-03-07T09:49:05.982Z</time>
      </trkpt>
      <trkpt lat="48.6046" lon="2.09368">
        <ele>115</ele>
        <time>2021-03-07T09:49:06.981Z</time>
      </trkpt>
      <trkpt lat="48.60459" lon="2.09368">
        <ele>116</ele>
        <time>2021-03-07T09:49:07.982Z</time>
      </trkpt>
      <trkpt lat="48.60457" lon="2.09368">
        <ele>116</ele>
        <time>2021-03-07T09:49:08.982Z</time>
      </trkpt>
      <trkpt lat="48.60456" lon="2.09369">
        <ele>116</ele>
        <time>2021-03-07T09:49:09.981Z</time>
      </trkpt>
      <trkpt lat="48.60455" lon="2.09369">
        <ele>116</ele>
        <time>2021-03-07T09:49:10.982Z</time>
      </trkpt>
      <trkpt lat="48.60454" lon="2.09369">
        <ele>116</ele>
        <time>2021-03-07T09:49:11.981Z</time>
      </trkpt>
      <trkpt lat="48.60452" lon="2.09369">
        <ele>116</ele>
        <time>2021-03-07T09:49:12.982Z</time>
      </trkpt>
      <trkpt lat="48.60451" lon="2.0937">
        <ele>116</ele>
        <time>2021-03-07T09:49:13.982Z</time>
      </trkpt>
      <trkpt lat="48.6045" lon="2.0937">
        <ele>116</ele>
        <time>2021-03-07T09:49:14.982Z</time>
      </trkpt>
      <trkpt lat="48.60448" lon="2.0937">
        <ele>116</ele>
        <time>2021-03-07T09:49:15.982Z</time>
      </trkpt>
      <trkpt lat="48.60447" lon="2.0937">
        <ele>116</ele>
        <time>2021-03-07T09:49:16.982Z</time>
      </trkpt>
      <trkpt lat="48.60446" lon="2.09371">
        <ele>116</ele>
        <time>2021-03-07T09:49:17.982Z</time>
      </trkpt>
      <trkpt lat="48.60445" lon="2.09371">
        <ele>116</ele>
        <time>2021-03-07T09:49:18.982Z</time>
      </trkpt>
      <trkpt lat="48.60443" lon="2.09372">
        <ele>117</ele>
        <time>2021-03-07T09:49:19.982Z</time>
      </trkpt>
      <trkpt lat="48.60442" lon="2.09373">
        <ele>117</ele>
        <time>2021-03-07T09:49:20.981Z</time>
      </trkpt>
      <trkpt lat="48.6044" lon="2.09373">
        <ele>117</ele>
        <time>2021-03-07T09:49:21.981Z</time>
      </trkpt>
      <trkpt lat="48.60439" lon="2.09374">
        <ele>118</ele>
        <time>2021-03-07T09:49:22.981Z</time>
      </trkpt>
      <trkpt lat="48.60437" lon="2.09374">
        <ele>118</ele>
        <time>2021-03-07T09:49:23.982Z</time>
      </trkpt>
      <trkpt lat="48.60436" lon="2.09374">
        <ele>118</ele>
        <time>2021-03-07T09:49:24.982Z</time>
      </trkpt>
      <trkpt lat="48.60435" lon="2.09375">
        <ele>118</ele>
        <time>2021-03-07T09:49:25.981Z</time>
      </trkpt>
      <trkpt lat="48.60434" lon="2.09375">
        <ele>119</ele>
        <time>2021-03-07T09:49:26.981Z</time>
      </trkpt>
      <trkpt lat="48.60433" lon="2.09375">
        <ele>119</ele>
        <time>2021-03-07T09:49:27.981Z</time>
      </trkpt>
      <trkpt lat="48.60431" lon="2.09375">
        <ele>119</ele>
        <time>2021-03-07T09:49:28.982Z</time>
      </trkpt>
      <trkpt lat="48.60429" lon="2.09375">
        <ele>119</ele>
        <time>2021-03-07T09:49:29.982Z</time>
      </trkpt>
      <trkpt lat="48.60428" lon="2.09376">
        <ele>119</ele>
        <time>2021-03-07T09:49:30.982Z</time>
      </trkpt>
      <trkpt lat="48.60427" lon="2.09376">
        <ele>119</ele>
        <time>2021-03-07T09:49:31.982Z</time>
      </trkpt>
      <trkpt lat="48.60425" lon="2.09376">
        <ele>118</ele>
        <time>2021-03-07T09:49:32.982Z</time>
      </trkpt>
      <trkpt lat="48.60424" lon="2.09377">
        <ele>118</ele>
        <time>2021-03-07T09:49:33.982Z</time>
      </trkpt>
      <trkpt lat="48.60423" lon="2.09378">
        <ele>118</ele>
        <time>2021-03-07T09:49:34.982Z</time>
      </trkpt>
      <trkpt lat="48.60421" lon="2.09379">
        <ele>118</ele>
        <time>2021-03-07T09:49:35.982Z</time>
      </trkpt>
      <trkpt lat="48.6042" lon="2.09379">
        <ele>117</ele>
        <time>2021-03-07T09:49:36.982Z</time>
      </trkpt>
      <trkpt lat="48.60419" lon="2.09378">
        <ele>117</ele>
        <time>2021-03-07T09:49:37.982Z</time>
      </trkpt>
      <trkpt lat="48.60417" lon="2.09378">
        <ele>116</ele>
        <time>2021-03-07T09:49:38.981Z</time>
      </trkpt>
      <trkpt lat="48.60416" lon="2.09378">
        <ele>116</ele>
        <time>2021-03-07T09:49:39.981Z</time>
      </trkpt>
      <trkpt lat="48.60415" lon="2.09378">
        <ele>116</ele>
        <time>2021-03-07T09:49:40.981Z</time>
      </trkpt>
      <trkpt lat="48.60413" lon="2.09379">
        <ele>116</ele>
        <time>2021-03-07T09:49:41.981Z</time>
      </trkpt>
      <trkpt lat="48.60412" lon="2.09379">
        <ele>117</ele>
        <time>2021-03-07T09:49:42.982Z</time>
      </trkpt>
      <trkpt lat="48.60411" lon="2.09379">
        <ele>117</ele>
        <time>2021-03-07T09:49:43.982Z</time>
      </trkpt>
      <trkpt lat="48.6041" lon="2.0938">
        <ele>117</ele>
        <time>2021-03-07T09:49:44.982Z</time>
      </trkpt>
      <trkpt lat="48.60408" lon="2.0938">
        <ele>117</ele>
        <time>2021-03-07T09:49:45.981Z</time>
      </trkpt>
      <trkpt lat="48.60407" lon="2.0938">
        <ele>117</ele>
        <time>2021-03-07T09:49:46.981Z</time>
      </trkpt>
      <trkpt lat="48.60406" lon="2.0938">
        <ele>117</ele>
        <time>2021-03-07T09:49:47.981Z</time>
      </trkpt>
      <trkpt lat="48.60405" lon="2.0938">
        <ele>116</ele>
        <time>2021-03-07T09:49:48.981Z</time>
      </trkpt>
      <trkpt lat="48.60404" lon="2.0938">
        <ele>116</ele>
        <time>2021-03-07T09:49:49.982Z</time>
      </trkpt>
      <trkpt lat="48.60402" lon="2.0938">
        <ele>115</ele>
        <time>2021-03-07T09:49:50.982Z</time>
      </trkpt>
      <trkpt lat="48.60401" lon="2.0938">
        <ele>115</ele>
        <time>2021-03-07T09:49:51.982Z</time>
      </trkpt>
      <trkpt lat="48.604" lon="2.0938">
        <ele>115</ele>
        <time>2021-03-07T09:49:52.982Z</time>
      </trkpt>
      <trkpt lat="48.60399" lon="2.0938">
        <ele>115</ele>
        <time>2021-03-07T09:49:53.982Z</time>
      </trkpt>
      <trkpt lat="48.60397" lon="2.09381">
        <ele>115</ele>
        <time>2021-03-07T09:49:54.982Z</time>
      </trkpt>
      <trkpt lat="48.60396" lon="2.09382">
        <ele>115</ele>
        <time>2021-03-07T09:49:55.982Z</time>
      </trkpt>
      <trkpt lat="48.60395" lon="2.09382">
        <ele>115</ele>
        <time>2021-03-07T09:49:56.981Z</time>
      </trkpt>
      <trkpt lat="48.60393" lon="2.09383">
        <ele>114</ele>
        <time>2021-03-07T09:49:57.981Z</time>
      </trkpt>
      <trkpt lat="48.60392" lon="2.09383">
        <ele>115</ele>
        <time>2021-03-07T09:49:58.981Z</time>
      </trkpt>
      <trkpt lat="48.60391" lon="2.09384">
        <ele>115</ele>
        <time>2021-03-07T09:49:59.981Z</time>
      </trkpt>
      <trkpt lat="48.6039" lon="2.09384">
        <ele>115</ele>
        <time>2021-03-07T09:50:00.982Z</time>
      </trkpt>
      <trkpt lat="48.60389" lon="2.09384">
        <ele>115</ele>
        <time>2021-03-07T09:50:01.982Z</time>
      </trkpt>
      <trkpt lat="48.60388" lon="2.09384">
        <ele>115</ele>
        <time>2021-03-07T09:50:02.982Z</time>
      </trkpt>
      <trkpt lat="48.60386" lon="2.09384">
        <ele>115</ele>
        <time>2021-03-07T09:50:03.981Z</time>
      </trkpt>
      <trkpt lat="48.60384" lon="2.09384">
        <ele>114</ele>
        <time>2021-03-07T09:50:04.981Z</time>
      </trkpt>
      <trkpt lat="48.60383" lon="2.09385">
        <ele>114</ele>
        <time>2021-03-07T09:50:05.981Z</time>
      </trkpt>
      <trkpt lat="48.60382" lon="2.09385">
        <ele>114</ele>
        <time>2021-03-07T09:50:06.982Z</time>
      </trkpt>
      <trkpt lat="48.6038" lon="2.09385">
        <ele>114</ele>
        <time>2021-03-07T09:50:07.982Z</time>
      </trkpt>
      <trkpt lat="48.60379" lon="2.09385">
        <ele>114</ele>
        <time>2021-03-07T09:50:08.982Z</time>
      </trkpt>
      <trkpt lat="48.60377" lon="2.09386">
        <ele>114</ele>
        <time>2021-03-07T09:50:09.982Z</time>
      </trkpt>
      <trkpt lat="48.60376" lon="2.09386">
        <ele>114</ele>
        <time>2021-03-07T09:50:10.981Z</time>
      </trkpt>
      <trkpt lat="48.60375" lon="2.09386">
        <ele>113</ele>
        <time>2021-03-07T09:50:11.982Z</time>
      </trkpt>
      <trkpt lat="48.60374" lon="2.09387">
        <ele>113</ele>
        <time>2021-03-07T09:50:12.982Z</time>
      </trkpt>
      <trkpt lat="48.60372" lon="2.09387">
        <ele>113</ele>
        <time>2021-03-07T09:50:13.982Z</time>
      </trkpt>
      <trkpt lat="48.60371" lon="2.09387">
        <ele>112</ele>
        <time>2021-03-07T09:50:14.982Z</time>
      </trkpt>
      <trkpt lat="48.6037" lon="2.09387">
        <ele>112</ele>
        <time>2021-03-07T09:50:15.982Z</time>
      </trkpt>
      <trkpt lat="48.60369" lon="2.09387">
        <ele>111</ele>
        <time>2021-03-07T09:50:16.981Z</time>
      </trkpt>
      <trkpt lat="48.60367" lon="2.09387">
        <ele>110</ele>
        <time>2021-03-07T09:50:17.982Z</time>
      </trkpt>
      <trkpt lat="48.60366" lon="2.09388">
        <ele>110</ele>
        <time>2021-03-07T09:50:18.982Z</time>
      </trkpt>
      <trkpt lat="48.60365" lon="2.09388">
        <ele>110</ele>
        <time>2021-03-07T09:50:19.982Z</time>
      </trkpt>
      <trkpt lat="48.60363" lon="2.09388">
        <ele>109</ele>
        <time>2021-03-07T09:50:20.981Z</time>
      </trkpt>
      <trkpt lat="48.60362" lon="2.09389">
        <ele>109</ele>
        <time>2021-03-07T09:50:21.982Z</time>
      </trkpt>
      <trkpt lat="48.6036" lon="2.09389">
        <ele>109</ele>
        <time>2021-03-07T09:50:22.982Z</time>
      </trkpt>
      <trkpt lat="48.60359" lon="2.0939">
        <ele>108</ele>
        <time>2021-03-07T09:50:23.982Z</time>
      </trkpt>
      <trkpt lat="48.60358" lon="2.0939">
        <ele>108</ele>
        <time>2021-03-07T09:50:24.982Z</time>
      </trkpt>
      <trkpt lat="48.60357" lon="2.09391">
        <ele>108</ele>
        <time>2021-03-07T09:50:25.982Z</time>
      </trkpt>
      <trkpt lat="48.60355" lon="2.09391">
        <ele>108</ele>
        <time>2021-03-07T09:50:26.981Z</time>
      </trkpt>
      <trkpt lat="48.60354" lon="2.09392">
        <ele>108</ele>
        <time>2021-03-07T09:50:27.982Z</time>
      </trkpt>
      <trkpt lat="48.60352" lon="2.09392">
        <ele>109</ele>
        <time>2021-03-07T09:50:28.981Z</time>
      </trkpt>
      <trkpt lat="48.60351" lon="2.09392">
        <ele>109</ele>
        <time>2021-03-07T09:50:29.982Z</time>
      </trkpt>
      <trkpt lat="48.6035" lon="2.09393">
        <ele>109</ele>
        <time>2021-03-07T09:50:30.982Z</time>
      </trkpt>
      <trkpt lat="48.60348" lon="2.09393">
        <ele>108</ele>
        <time>2021-03-07T09:50:31.982Z</time>
      </trkpt>
      <trkpt lat="48.60347" lon="2.09394">
        <ele>109</ele>
        <time>2021-03-07T09:50:32.982Z</time>
      </trkpt>
      <trkpt lat="48.60346" lon="2.09394">
        <ele>108</ele>
        <time>2021-03-07T09:50:33.981Z</time>
      </trkpt>
      <trkpt lat="48.60345" lon="2.09395">
        <ele>108</ele>
        <time>2021-03-07T09:50:34.982Z</time>
      </trkpt>
      <trkpt lat="48.60344" lon="2.09396">
        <ele>109</ele>
        <time>2021-03-07T09:50:35.982Z</time>
      </trkpt>
      <trkpt lat="48.60343" lon="2.09397">
        <ele>108</ele>
        <time>2021-03-07T09:50:36.982Z</time>
      </trkpt>
      <trkpt lat="48.60342" lon="2.09399">
        <ele>109</ele>
        <time>2021-03-07T09:50:37.981Z</time>
      </trkpt>
      <trkpt lat="48.60341" lon="2.094">
        <ele>109</ele>
        <time>2021-03-07T09:50:38.982Z</time>
      </trkpt>
      <trkpt lat="48.60341" lon="2.09402">
        <ele>109</ele>
        <time>2021-03-07T09:50:39.982Z</time>
      </trkpt>
      <trkpt lat="48.6034" lon="2.09404">
        <ele>110</ele>
        <time>2021-03-07T09:50:40.982Z</time>
      </trkpt>
      <trkpt lat="48.60339" lon="2.09406">
        <ele>110</ele>
        <time>2021-03-07T09:50:41.981Z</time>
      </trkpt>
      <trkpt lat="48.60339" lon="2.09408">
        <ele>110</ele>
        <time>2021-03-07T09:50:42.981Z</time>
      </trkpt>
      <trkpt lat="48.60338" lon="2.09409">
        <ele>111</ele>
        <time>2021-03-07T09:50:43.982Z</time>
      </trkpt>
      <trkpt lat="48.60338" lon="2.09411">
        <ele>111</ele>
        <time>2021-03-07T09:50:44.982Z</time>
      </trkpt>
      <trkpt lat="48.60337" lon="2.09413">
        <ele>111</ele>
        <time>2021-03-07T09:50:45.982Z</time>
      </trkpt>
      <trkpt lat="48.60336" lon="2.09415">
        <ele>112</ele>
        <time>2021-03-07T09:50:46.982Z</time>
      </trkpt>
      <trkpt lat="48.60335" lon="2.09416">
        <ele>112</ele>
        <time>2021-03-07T09:50:47.982Z</time>
      </trkpt>
      <trkpt lat="48.60334" lon="2.09417">
        <ele>112</ele>
        <time>2021-03-07T09:50:48.982Z</time>
      </trkpt>
      <trkpt lat="48.60333" lon="2.09418">
        <ele>113</ele>
        <time>2021-03-07T09:50:49.982Z</time>
      </trkpt>
      <trkpt lat="48.60332" lon="2.09419">
        <ele>113</ele>
        <time>2021-03-07T09:50:50.981Z</time>
      </trkpt>
      <trkpt lat="48.6033" lon="2.0942">
        <ele>113</ele>
        <time>2021-03-07T09:50:51.982Z</time>
      </trkpt>
      <trkpt lat="48.60329" lon="2.0942">
        <ele>113</ele>
        <time>2021-03-07T09:50:52.982Z</time>
      </trkpt>
      <trkpt lat="48.60328" lon="2.09421">
        <ele>112</ele>
        <time>2021-03-07T09:50:53.982Z</time>
      </trkpt>
      <trkpt lat="48.60327" lon="2.09422">
        <ele>112</ele>
        <time>2021-03-07T09:50:54.982Z</time>
      </trkpt>
      <trkpt lat="48.60325" lon="2.09422">
        <ele>112</ele>
        <time>2021-03-07T09:50:55.982Z</time>
      </trkpt>
      <trkpt lat="48.60324" lon="2.09423">
        <ele>112</ele>
        <time>2021-03-07T09:50:56.982Z</time>
      </trkpt>
      <trkpt lat="48.60323" lon="2.09423">
        <ele>112</ele>
        <time>2021-03-07T09:50:57.981Z</time>
      </trkpt>
      <trkpt lat="48.60322" lon="2.09424">
        <ele>112</ele>
        <time>2021-03-07T09:50:58.982Z</time>
      </trkpt>
      <trkpt lat="48.6032" lon="2.09425">
        <ele>112</ele>
        <time>2021-03-07T09:50:59.982Z</time>
      </trkpt>
      <trkpt lat="48.60319" lon="2.09425">
        <ele>113</ele>
        <time>2021-03-07T09:51:00.982Z</time>
      </trkpt>
      <trkpt lat="48.60318" lon="2.09426">
        <ele>113</ele>
        <time>2021-03-07T09:51:01.982Z</time>
      </trkpt>
      <trkpt lat="48.60317" lon="2.09426">
        <ele>113</ele>
        <time>2021-03-07T09:51:02.982Z</time>
      </trkpt>
      <trkpt lat="48.60315" lon="2.09427">
        <ele>113</ele>
        <time>2021-03-07T09:51:03.982Z</time>
      </trkpt>
      <trkpt lat="48.60314" lon="2.09428">
        <ele>113</ele>
        <time>2021-03-07T09:51:04.982Z</time>
      </trkpt>
      <trkpt lat="48.60313" lon="2.09428">
        <ele>112</ele>
        <time>2021-03-07T09:51:05.982Z</time>
      </trkpt>
      <trkpt lat="48.60312" lon="2.09429">
        <ele>112</ele>
        <time>2021-03-07T09:51:06.982Z</time>
      </trkpt>
      <trkpt lat="48.6031" lon="2.0943">
        <ele>112</ele>
        <time>2021-03-07T09:51:07.982Z</time>
      </trkpt>
      <trkpt lat="48.60309" lon="2.0943">
        <ele>112</ele>
        <time>2021-03-07T09:51:08.982Z</time>
      </trkpt>
      <trkpt lat="48.60307" lon="2.09431">
        <ele>111</ele>
        <time>2021-03-07T09:51:09.982Z</time>
      </trkpt>
      <trkpt lat="48.60306" lon="2.09431">
        <ele>111</ele>
        <time>2021-03-07T09:51:10.982Z</time>
      </trkpt>
      <trkpt lat="48.60305" lon="2.09432">
        <ele>111</ele>
        <time>2021-03-07T09:51:11.981Z</time>
      </trkpt>
      <trkpt lat="48.60304" lon="2.09432">
        <ele>112</ele>
        <time>2021-03-07T09:51:12.981Z</time>
      </trkpt>
      <trkpt lat="48.60303" lon="2.09432">
        <ele>112</ele>
        <time>2021-03-07T09:51:13.982Z</time>
      </trkpt>
      <trkpt lat="48.60302" lon="2.09433">
        <ele>113</ele>
        <time>2021-03-07T09:51:14.982Z</time>
      </trkpt>
      <trkpt lat="48.603" lon="2.09433">
        <ele>114</ele>
        <time>2021-03-07T09:51:15.982Z</time>
      </trkpt>
      <trkpt lat="48.60299" lon="2.09434">
        <ele>114</ele>
        <time>2021-03-07T09:51:16.982Z</time>
      </trkpt>
      <trkpt lat="48.60297" lon="2.09434">
        <ele>115</ele>
        <time>2021-03-07T09:51:17.982Z</time>
      </trkpt>
      <trkpt lat="48.60295" lon="2.09435">
        <ele>115</ele>
        <time>2021-03-07T09:51:18.982Z</time>
      </trkpt>
      <trkpt lat="48.60294" lon="2.09435">
        <ele>115</ele>
        <time>2021-03-07T09:51:19.982Z</time>
      </trkpt>
      <trkpt lat="48.60292" lon="2.09435">
        <ele>115</ele>
        <time>2021-03-07T09:51:20.982Z</time>
      </trkpt>
      <trkpt lat="48.60291" lon="2.09436">
        <ele>115</ele>
        <time>2021-03-07T09:51:21.982Z</time>
      </trkpt>
      <trkpt lat="48.60289" lon="2.09436">
        <ele>115</ele>
        <time>2021-03-07T09:51:22.982Z</time>
      </trkpt>
      <trkpt lat="48.60288" lon="2.09437">
        <ele>115</ele>
        <time>2021-03-07T09:51:23.982Z</time>
      </trkpt>
      <trkpt lat="48.60286" lon="2.09437">
        <ele>115</ele>
        <time>2021-03-07T09:51:24.981Z</time>
      </trkpt>
      <trkpt lat="48.60285" lon="2.09437">
        <ele>114</ele>
        <time>2021-03-07T09:51:25.982Z</time>
      </trkpt>
      <trkpt lat="48.60283" lon="2.09437">
        <ele>114</ele>
        <time>2021-03-07T09:51:26.982Z</time>
      </trkpt>
      <trkpt lat="48.60282" lon="2.09437">
        <ele>115</ele>
        <time>2021-03-07T09:51:27.981Z</time>
      </trkpt>
      <trkpt lat="48.6028" lon="2.09438">
        <ele>115</ele>
        <time>2021-03-07T09:51:28.982Z</time>
      </trkpt>
      <trkpt lat="48.60279" lon="2.09438">
        <ele>115</ele>
        <time>2021-03-07T09:51:29.981Z</time>
      </trkpt>
      <trkpt lat="48.60277" lon="2.09438">
        <ele>115</ele>
        <time>2021-03-07T09:51:30.982Z</time>
      </trkpt>
      <trkpt lat="48.60276" lon="2.09438">
        <ele>114</ele>
        <time>2021-03-07T09:51:31.982Z</time>
      </trkpt>
      <trkpt lat="48.60275" lon="2.09439">
        <ele>114</ele>
        <time>2021-03-07T09:51:32.982Z</time>
      </trkpt>
      <trkpt lat="48.60273" lon="2.09439">
        <ele>113</ele>
        <time>2021-03-07T09:51:33.982Z</time>
      </trkpt>
      <trkpt lat="48.60272" lon="2.09439">
        <ele>113</ele>
        <time>2021-03-07T09:51:34.982Z</time>
      </trkpt>
      <trkpt lat="48.60271" lon="2.09439">
        <ele>112</ele>
        <time>2021-03-07T09:51:35.982Z</time>
      </trkpt>
      <trkpt lat="48.60269" lon="2.0944">
        <ele>112</ele>
        <time>2021-03-07T09:51:36.982Z</time>
      </trkpt>
      <trkpt lat="48.60268" lon="2.0944">
        <ele>111</ele>
        <time>2021-03-07T09:51:37.982Z</time>
      </trkpt>
      <trkpt lat="48.60267" lon="2.09441">
        <ele>111</ele>
        <time>2021-03-07T09:51:38.982Z</time>
      </trkpt>
      <trkpt lat="48.60266" lon="2.09441">
        <ele>111</ele>
        <time>2021-03-07T09:51:39.982Z</time>
      </trkpt>
      <trkpt lat="48.60265" lon="2.09442">
        <ele>111</ele>
        <time>2021-03-07T09:51:40.982Z</time>
      </trkpt>
      <trkpt lat="48.60263" lon="2.09443">
        <ele>111</ele>
        <time>2021-03-07T09:51:41.981Z</time>
      </trkpt>
      <trkpt lat="48.60262" lon="2.09444">
        <ele>111</ele>
        <time>2021-03-07T09:51:42.981Z</time>
      </trkpt>
      <trkpt lat="48.60261" lon="2.09444">
        <ele>111</ele>
        <time>2021-03-07T09:51:43.982Z</time>
      </trkpt>
      <trkpt lat="48.6026" lon="2.09445">
        <ele>111</ele>
        <time>2021-03-07T09:51:44.982Z</time>
      </trkpt>
      <trkpt lat="48.60258" lon="2.09446">
        <ele>111</ele>
        <time>2021-03-07T09:51:45.982Z</time>
      </trkpt>
      <trkpt lat="48.60257" lon="2.09446">
        <ele>111</ele>
        <time>2021-03-07T09:51:46.982Z</time>
      </trkpt>
      <trkpt lat="48.60256" lon="2.09446">
        <ele>111</ele>
        <time>2021-03-07T09:51:47.982Z</time>
      </trkpt>
      <trkpt lat="48.60254" lon="2.09446">
        <ele>111</ele>
        <time>2021-03-07T09:51:48.981Z</time>
      </trkpt>
      <trkpt lat="48.60253" lon="2.09447">
        <ele>111</ele>
        <time>2021-03-07T09:51:49.982Z</time>
      </trkpt>
      <trkpt lat="48.60252" lon="2.09447">
        <ele>111</ele>
        <time>2021-03-07T09:51:50.982Z</time>
      </trkpt>
      <trkpt lat="48.60251" lon="2.09448">
        <ele>111</ele>
        <time>2021-03-07T09:51:51.981Z</time>
      </trkpt>
      <trkpt lat="48.60249" lon="2.09448">
        <ele>112</ele>
        <time>2021-03-07T09:51:52.982Z</time>
      </trkpt>
      <trkpt lat="48.60248" lon="2.09449">
        <ele>112</ele>
        <time>2021-03-07T09:51:53.982Z</time>
      </trkpt>
      <trkpt lat="48.60246" lon="2.09449">
        <ele>113</ele>
        <time>2021-03-07T09:51:54.982Z</time>
      </trkpt>
      <trkpt lat="48.60245" lon="2.0945">
        <ele>113</ele>
        <time>2021-03-07T09:51:55.981Z</time>
      </trkpt>
      <trkpt lat="48.60244" lon="2.0945">
        <ele>113</ele>
        <time>2021-03-07T09:51:56.982Z</time>
      </trkpt>
      <trkpt lat="48.60242" lon="2.0945">
        <ele>113</ele>
        <time>2021-03-07T09:51:57.982Z</time>
      </trkpt>
      <trkpt lat="48.6024" lon="2.09451">
        <ele>113</ele>
        <time>2021-03-07T09:51:58.981Z</time>
      </trkpt>
      <trkpt lat="48.60239" lon="2.09451">
        <ele>113</ele>
        <time>2021-03-07T09:51:59.981Z</time>
      </trkpt>
      <trkpt lat="48.60238" lon="2.09452">
        <ele>113</ele>
        <time>2021-03-07T09:52:00.982Z</time>
      </trkpt>
      <trkpt lat="48.60237" lon="2.09452">
        <ele>113</ele>
        <time>2021-03-07T09:52:01.982Z</time>
      </trkpt>
      <trkpt lat="48.60235" lon="2.09452">
        <ele>113</ele>
        <time>2021-03-07T09:52:02.982Z</time>
      </trkpt>
      <trkpt lat="48.60234" lon="2.09452">
        <ele>113</ele>
        <time>2021-03-07T09:52:03.981Z</time>
      </trkpt>
      <trkpt lat="48.60233" lon="2.09452">
        <ele>114</ele>
        <time>2021-03-07T09:52:04.982Z</time>
      </trkpt>
      <trkpt lat="48.60232" lon="2.09452">
        <ele>114</ele>
        <time>2021-03-07T09:52:05.982Z</time>
      </trkpt>
      <trkpt lat="48.6023" lon="2.09452">
        <ele>114</ele>
        <time>2021-03-07T09:52:06.982Z</time>
      </trkpt>
      <trkpt lat="48.60229" lon="2.09453">
        <ele>114</ele>
        <time>2021-03-07T09:52:07.982Z</time>
      </trkpt>
      <trkpt lat="48.60228" lon="2.09454">
        <ele>113</ele>
        <time>2021-03-07T09:52:08.982Z</time>
      </trkpt>
      <trkpt lat="48.60227" lon="2.09454">
        <ele>113</ele>
        <time>2021-03-07T09:52:09.982Z</time>
      </trkpt>
      <trkpt lat="48.60226" lon="2.09455">
        <ele>113</ele>
        <time>2021-03-07T09:52:10.982Z</time>
      </trkpt>
      <trkpt lat="48.60224" lon="2.09456">
        <ele>113</ele>
        <time>2021-03-07T09:52:11.982Z</time>
      </trkpt>
      <trkpt lat="48.60223" lon="2.09457">
        <ele>113</ele>
        <time>2021-03-07T09:52:12.982Z</time>
      </trkpt>
      <trkpt lat="48.60222" lon="2.09458">
        <ele>113</ele>
        <time>2021-03-07T09:52:13.982Z</time>
      </trkpt>
      <trkpt lat="48.60221" lon="2.09459">
        <ele>113</ele>
        <time>2021-03-07T09:52:14.982Z</time>
      </trkpt>
      <trkpt lat="48.60219" lon="2.09459">
        <ele>113</ele>
        <time>2021-03-07T09:52:15.982Z</time>
      </trkpt>
      <trkpt lat="48.60218" lon="2.09459">
        <ele>113</ele>
        <time>2021-03-07T09:52:16.982Z</time>
      </trkpt>
      <trkpt lat="48.60216" lon="2.0946">
        <ele>113</ele>
        <time>2021-03-07T09:52:17.982Z</time>
      </trkpt>
      <trkpt lat="48.60215" lon="2.0946">
        <ele>112</ele>
        <time>2021-03-07T09:52:18.982Z</time>
      </trkpt>
      <trkpt lat="48.60214" lon="2.0946">
        <ele>112</ele>
        <time>2021-03-07T09:52:19.982Z</time>
      </trkpt>
      <trkpt lat="48.60212" lon="2.09461">
        <ele>112</ele>
        <time>2021-03-07T09:52:20.981Z</time>
      </trkpt>
      <trkpt lat="48.60211" lon="2.09462">
        <ele>111</ele>
        <time>2021-03-07T09:52:21.982Z</time>
      </trkpt>
      <trkpt lat="48.6021" lon="2.09462">
        <ele>111</ele>
        <time>2021-03-07T09:52:22.981Z</time>
      </trkpt>
      <trkpt lat="48.60208" lon="2.09463">
        <ele>110</ele>
        <time>2021-03-07T09:52:23.982Z</time>
      </trkpt>
      <trkpt lat="48.60207" lon="2.09463">
        <ele>109</ele>
        <time>2021-03-07T09:52:24.982Z</time>
      </trkpt>
      <trkpt lat="48.60206" lon="2.09464">
        <ele>109</ele>
        <time>2021-03-07T09:52:25.982Z</time>
      </trkpt>
      <trkpt lat="48.60204" lon="2.09464">
        <ele>108</ele>
        <time>2021-03-07T09:52:26.982Z</time>
      </trkpt>
      <trkpt lat="48.60203" lon="2.09465">
        <ele>109</ele>
        <time>2021-03-07T09:52:27.981Z</time>
      </trkpt>
      <trkpt lat="48.60202" lon="2.09465">
        <ele>109</ele>
        <time>2021-03-07T09:52:28.981Z</time>
      </trkpt>
      <trkpt lat="48.60201" lon="2.09466">
        <ele>109</ele>
        <time>2021-03-07T09:52:29.981Z</time>
      </trkpt>
      <trkpt lat="48.60199" lon="2.09466">
        <ele>109</ele>
        <time>2021-03-07T09:52:30.981Z</time>
      </trkpt>
      <trkpt lat="48.60198" lon="2.09467">
        <ele>110</ele>
        <time>2021-03-07T09:52:31.981Z</time>
      </trkpt>
      <trkpt lat="48.60197" lon="2.09468">
        <ele>110</ele>
        <time>2021-03-07T09:52:32.981Z</time>
      </trkpt>
      <trkpt lat="48.60195" lon="2.09468">
        <ele>110</ele>
        <time>2021-03-07T09:52:33.981Z</time>
      </trkpt>
      <trkpt lat="48.60194" lon="2.09469">
        <ele>111</ele>
        <time>2021-03-07T09:52:34.981Z</time>
      </trkpt>
      <trkpt lat="48.60193" lon="2.09469">
        <ele>111</ele>
        <time>2021-03-07T09:52:35.981Z</time>
      </trkpt>
      <trkpt lat="48.60191" lon="2.09469">
        <ele>111</ele>
        <time>2021-03-07T09:52:36.981Z</time>
      </trkpt>
      <trkpt lat="48.6019" lon="2.0947">
        <ele>110</ele>
        <time>2021-03-07T09:52:37.981Z</time>
      </trkpt>
      <trkpt lat="48.60188" lon="2.0947">
        <ele>110</ele>
        <time>2021-03-07T09:52:38.982Z</time>
      </trkpt>
      <trkpt lat="48.60187" lon="2.09471">
        <ele>110</ele>
        <time>2021-03-07T09:52:39.982Z</time>
      </trkpt>
      <trkpt lat="48.60185" lon="2.09471">
        <ele>110</ele>
        <time>2021-03-07T09:52:40.982Z</time>
      </trkpt>
      <trkpt lat="48.60184" lon="2.09472">
        <ele>110</ele>
        <time>2021-03-07T09:52:41.981Z</time>
      </trkpt>
      <trkpt lat="48.60182" lon="2.09472">
        <ele>110</ele>
        <time>2021-03-07T09:52:42.982Z</time>
      </trkpt>
      <trkpt lat="48.60181" lon="2.09473">
        <ele>110</ele>
        <time>2021-03-07T09:52:43.982Z</time>
      </trkpt>
      <trkpt lat="48.6018" lon="2.09473">
        <ele>109</ele>
        <time>2021-03-07T09:52:44.981Z</time>
      </trkpt>
      <trkpt lat="48.60178" lon="2.09474">
        <ele>109</ele>
        <time>2021-03-07T09:52:45.982Z</time>
      </trkpt>
      <trkpt lat="48.60177" lon="2.09474">
        <ele>109</ele>
        <time>2021-03-07T09:52:46.982Z</time>
      </trkpt>
      <trkpt lat="48.60175" lon="2.09474">
        <ele>109</ele>
        <time>2021-03-07T09:52:47.982Z</time>
      </trkpt>
      <trkpt lat="48.60174" lon="2.09474">
        <ele>109</ele>
        <time>2021-03-07T09:52:48.982Z</time>
      </trkpt>
      <trkpt lat="48.60172" lon="2.09475">
        <ele>110</ele>
        <time>2021-03-07T09:52:49.982Z</time>
      </trkpt>
      <trkpt lat="48.60171" lon="2.09475">
        <ele>109</ele>
        <time>2021-03-07T09:52:50.981Z</time>
      </trkpt>
      <trkpt lat="48.6017" lon="2.09476">
        <ele>109</ele>
        <time>2021-03-07T09:52:51.981Z</time>
      </trkpt>
      <trkpt lat="48.60168" lon="2.09476">
        <ele>109</ele>
        <time>2021-03-07T09:52:52.981Z</time>
      </trkpt>
      <trkpt lat="48.60167" lon="2.09477">
        <ele>109</ele>
        <time>2021-03-07T09:52:53.981Z</time>
      </trkpt>
      <trkpt lat="48.60166" lon="2.09477">
        <ele>110</ele>
        <time>2021-03-07T09:52:54.981Z</time>
      </trkpt>
      <trkpt lat="48.60164" lon="2.09478">
        <ele>110</ele>
        <time>2021-03-07T09:52:55.982Z</time>
      </trkpt>
      <trkpt lat="48.60163" lon="2.09478">
        <ele>110</ele>
        <time>2021-03-07T09:52:56.982Z</time>
      </trkpt>
      <trkpt lat="48.60161" lon="2.09479">
        <ele>110</ele>
        <time>2021-03-07T09:52:57.982Z</time>
      </trkpt>
      <trkpt lat="48.6016" lon="2.09479">
        <ele>110</ele>
        <time>2021-03-07T09:52:58.982Z</time>
      </trkpt>
      <trkpt lat="48.60158" lon="2.09479">
        <ele>110</ele>
        <time>2021-03-07T09:52:59.981Z</time>
      </trkpt>
      <trkpt lat="48.60157" lon="2.0948">
        <ele>111</ele>
        <time>2021-03-07T09:53:00.981Z</time>
      </trkpt>
      <trkpt lat="48.60155" lon="2.09481">
        <ele>111</ele>
        <time>2021-03-07T09:53:01.982Z</time>
      </trkpt>
      <trkpt lat="48.60154" lon="2.09481">
        <ele>111</ele>
        <time>2021-03-07T09:53:02.981Z</time>
      </trkpt>
      <trkpt lat="48.60152" lon="2.09481">
        <ele>111</ele>
        <time>2021-03-07T09:53:03.982Z</time>
      </trkpt>
      <trkpt lat="48.60151" lon="2.09482">
        <ele>111</ele>
        <time>2021-03-07T09:53:04.982Z</time>
      </trkpt>
      <trkpt lat="48.6015" lon="2.09482">
        <ele>111</ele>
        <time>2021-03-07T09:53:05.982Z</time>
      </trkpt>
      <trkpt lat="48.60148" lon="2.09482">
        <ele>111</ele>
        <time>2021-03-07T09:53:06.982Z</time>
      </trkpt>
      <trkpt lat="48.60147" lon="2.09482">
        <ele>111</ele>
        <time>2021-03-07T09:53:07.981Z</time>
      </trkpt>
      <trkpt lat="48.60145" lon="2.09482">
        <ele>111</ele>
        <time>2021-03-07T09:53:08.982Z</time>
      </trkpt>
      <trkpt lat="48.60144" lon="2.09483">
        <ele>111</ele>
        <time>2021-03-07T09:53:09.982Z</time>
      </trkpt>
      <trkpt lat="48.60142" lon="2.09483">
        <ele>111</ele>
        <time>2021-03-07T09:53:10.981Z</time>
      </trkpt>
      <trkpt lat="48.60141" lon="2.09483">
        <ele>111</ele>
        <time>2021-03-07T09:53:11.982Z</time>
      </trkpt>
      <trkpt lat="48.60139" lon="2.09483">
        <ele>111</ele>
        <time>2021-03-07T09:53:12.982Z</time>
      </trkpt>
      <trkpt lat="48.60138" lon="2.09483">
        <ele>111</ele>
        <time>2021-03-07T09:53:13.982Z</time>
      </trkpt>
      <trkpt lat="48.60136" lon="2.09484">
        <ele>111</ele>
        <time>2021-03-07T09:53:14.982Z</time>
      </trkpt>
      <trkpt lat="48.60135" lon="2.09484">
        <ele>111</ele>
        <time>2021-03-07T09:53:15.981Z</time>
      </trkpt>
      <trkpt lat="48.60133" lon="2.09484">
        <ele>111</ele>
        <time>2021-03-07T09:53:16.982Z</time>
      </trkpt>
      <trkpt lat="48.60132" lon="2.09485">
        <ele>111</ele>
        <time>2021-03-07T09:53:17.981Z</time>
      </trkpt>
      <trkpt lat="48.6013" lon="2.09485">
        <ele>111</ele>
        <time>2021-03-07T09:53:18.982Z</time>
      </trkpt>
      <trkpt lat="48.60129" lon="2.09485">
        <ele>111</ele>
        <time>2021-03-07T09:53:19.982Z</time>
      </trkpt>
      <trkpt lat="48.60127" lon="2.09485">
        <ele>110</ele>
        <time>2021-03-07T09:53:20.981Z</time>
      </trkpt>
      <trkpt lat="48.60126" lon="2.09485">
        <ele>110</ele>
        <time>2021-03-07T09:53:21.982Z</time>
      </trkpt>
      <trkpt lat="48.60124" lon="2.09485">
        <ele>109</ele>
        <time>2021-03-07T09:53:22.982Z</time>
      </trkpt>
      <trkpt lat="48.60123" lon="2.09485">
        <ele>109</ele>
        <time>2021-03-07T09:53:23.982Z</time>
      </trkpt>
      <trkpt lat="48.60121" lon="2.09485">
        <ele>109</ele>
        <time>2021-03-07T09:53:24.982Z</time>
      </trkpt>
      <trkpt lat="48.6012" lon="2.09485">
        <ele>110</ele>
        <time>2021-03-07T09:53:25.981Z</time>
      </trkpt>
      <trkpt lat="48.60119" lon="2.09486">
        <ele>110</ele>
        <time>2021-03-07T09:53:26.982Z</time>
      </trkpt>
      <trkpt lat="48.60117" lon="2.09486">
        <ele>111</ele>
        <time>2021-03-07T09:53:27.982Z</time>
      </trkpt>
      <trkpt lat="48.60116" lon="2.09486">
        <ele>111</ele>
        <time>2021-03-07T09:53:28.982Z</time>
      </trkpt>
      <trkpt lat="48.60114" lon="2.09486">
        <ele>111</ele>
        <time>2021-03-07T09:53:29.981Z</time>
      </trkpt>
      <trkpt lat="48.60113" lon="2.09487">
        <ele>111</ele>
        <time>2021-03-07T09:53:30.982Z</time>
      </trkpt>
      <trkpt lat="48.60111" lon="2.09487">
        <ele>111</ele>
        <time>2021-03-07T09:53:31.982Z</time>
      </trkpt>
      <trkpt lat="48.6011" lon="2.09487">
        <ele>111</ele>
        <time>2021-03-07T09:53:32.982Z</time>
      </trkpt>
      <trkpt lat="48.60109" lon="2.09487">
        <ele>111</ele>
        <time>2021-03-07T09:53:33.981Z</time>
      </trkpt>
      <trkpt lat="48.60107" lon="2.09487">
        <ele>111</ele>
        <time>2021-03-07T09:53:34.982Z</time>
      </trkpt>
      <trkpt lat="48.60105" lon="2.09487">
        <ele>111</ele>
        <time>2021-03-07T09:53:35.982Z</time>
      </trkpt>
      <trkpt lat="48.60104" lon="2.09487">
        <ele>110</ele>
        <time>2021-03-07T09:53:36.982Z</time>
      </trkpt>
      <trkpt lat="48.60102" lon="2.09488">
        <ele>110</ele>
        <time>2021-03-07T09:53:37.982Z</time>
      </trkpt>
      <trkpt lat="48.601" lon="2.09488">
        <ele>110</ele>
        <time>2021-03-07T09:53:38.982Z</time>
      </trkpt>
      <trkpt lat="48.60099" lon="2.09488">
        <ele>110</ele>
        <time>2021-03-07T09:53:39.981Z</time>
      </trkpt>
      <trkpt lat="48.60097" lon="2.09488">
        <ele>110</ele>
        <time>2021-03-07T09:53:40.982Z</time>
      </trkpt>
      <trkpt lat="48.60095" lon="2.09488">
        <ele>110</ele>
        <time>2021-03-07T09:53:41.982Z</time>
      </trkpt>
      <trkpt lat="48.60093" lon="2.09489">
        <ele>111</ele>
        <time>2021-03-07T09:53:42.982Z</time>
      </trkpt>
      <trkpt lat="48.6009" lon="2.09489">
        <ele>111</ele>
        <time>2021-03-07T09:53:43.981Z</time>
      </trkpt>
      <trkpt lat="48.60089" lon="2.0949">
        <ele>111</ele>
        <time>2021-03-07T09:53:44.981Z</time>
      </trkpt>
      <trkpt lat="48.60087" lon="2.0949">
        <ele>111</ele>
        <time>2021-03-07T09:53:45.981Z</time>
      </trkpt>
      <trkpt lat="48.60086" lon="2.09491">
        <ele>110</ele>
        <time>2021-03-07T09:53:46.981Z</time>
      </trkpt>
      <trkpt lat="48.60084" lon="2.09491">
        <ele>110</ele>
        <time>2021-03-07T09:53:47.982Z</time>
      </trkpt>
      <trkpt lat="48.60083" lon="2.09491">
        <ele>110</ele>
        <time>2021-03-07T09:53:48.982Z</time>
      </trkpt>
      <trkpt lat="48.60082" lon="2.09491">
        <ele>110</ele>
        <time>2021-03-07T09:53:49.982Z</time>
      </trkpt>
      <trkpt lat="48.6008" lon="2.09491">
        <ele>110</ele>
        <time>2021-03-07T09:53:50.982Z</time>
      </trkpt>
      <trkpt lat="48.60079" lon="2.09491">
        <ele>110</ele>
        <time>2021-03-07T09:53:51.981Z</time>
      </trkpt>
      <trkpt lat="48.60077" lon="2.09492">
        <ele>110</ele>
        <time>2021-03-07T09:53:52.981Z</time>
      </trkpt>
      <trkpt lat="48.60075" lon="2.09493">
        <ele>109</ele>
        <time>2021-03-07T09:53:53.982Z</time>
      </trkpt>
      <trkpt lat="48.60073" lon="2.09493">
        <ele>109</ele>
        <time>2021-03-07T09:53:54.982Z</time>
      </trkpt>
      <trkpt lat="48.60071" lon="2.09494">
        <ele>109</ele>
        <time>2021-03-07T09:53:55.982Z</time>
      </trkpt>
      <trkpt lat="48.60069" lon="2.09494">
        <ele>109</ele>
        <time>2021-03-07T09:53:56.982Z</time>
      </trkpt>
      <trkpt lat="48.60067" lon="2.09494">
        <ele>110</ele>
        <time>2021-03-07T09:53:57.982Z</time>
      </trkpt>
      <trkpt lat="48.60066" lon="2.09494">
        <ele>110</ele>
        <time>2021-03-07T09:53:58.982Z</time>
      </trkpt>
      <trkpt lat="48.60064" lon="2.09494">
        <ele>111</ele>
        <time>2021-03-07T09:53:59.981Z</time>
      </trkpt>
      <trkpt lat="48.60063" lon="2.09495">
        <ele>111</ele>
        <time>2021-03-07T09:54:00.982Z</time>
      </trkpt>
      <trkpt lat="48.60061" lon="2.09495">
        <ele>112</ele>
        <time>2021-03-07T09:54:01.982Z</time>
      </trkpt>
      <trkpt lat="48.60059" lon="2.09495">
        <ele>111</ele>
        <time>2021-03-07T09:54:02.982Z</time>
      </trkpt>
      <trkpt lat="48.60058" lon="2.09495">
        <ele>111</ele>
        <time>2021-03-07T09:54:03.982Z</time>
      </trkpt>
      <trkpt lat="48.60057" lon="2.09495">
        <ele>111</ele>
        <time>2021-03-07T09:54:04.982Z</time>
      </trkpt>
      <trkpt lat="48.60055" lon="2.09495">
        <ele>111</ele>
        <time>2021-03-07T09:54:05.982Z</time>
      </trkpt>
      <trkpt lat="48.60054" lon="2.09495">
        <ele>112</ele>
        <time>2021-03-07T09:54:06.981Z</time>
      </trkpt>
      <trkpt lat="48.60052" lon="2.09496">
        <ele>111</ele>
        <time>2021-03-07T09:54:07.982Z</time>
      </trkpt>
      <trkpt lat="48.60051" lon="2.09496">
        <ele>111</ele>
        <time>2021-03-07T09:54:08.982Z</time>
      </trkpt>
      <trkpt lat="48.60049" lon="2.09496">
        <ele>111</ele>
        <time>2021-03-07T09:54:09.982Z</time>
      </trkpt>
      <trkpt lat="48.60048" lon="2.09495">
        <ele>110</ele>
        <time>2021-03-07T09:54:10.982Z</time>
      </trkpt>
      <trkpt lat="48.60046" lon="2.09495">
        <ele>110</ele>
        <time>2021-03-07T09:54:11.982Z</time>
      </trkpt>
      <trkpt lat="48.60045" lon="2.09495">
        <ele>110</ele>
        <time>2021-03-07T09:54:12.981Z</time>
      </trkpt>
      <trkpt lat="48.60043" lon="2.09495">
        <ele>109</ele>
        <time>2021-03-07T09:54:13.981Z</time>
      </trkpt>
      <trkpt lat="48.60042" lon="2.09495">
        <ele>109</ele>
        <time>2021-03-07T09:54:14.981Z</time>
      </trkpt>
      <trkpt lat="48.6004" lon="2.09495">
        <ele>109</ele>
        <time>2021-03-07T09:54:15.981Z</time>
      </trkpt>
      <trkpt lat="48.60039" lon="2.09495">
        <ele>109</ele>
        <time>2021-03-07T09:54:16.981Z</time>
      </trkpt>
      <trkpt lat="48.60037" lon="2.09495">
        <ele>109</ele>
        <time>2021-03-07T09:54:17.982Z</time>
      </trkpt>
      <trkpt lat="48.60036" lon="2.09495">
        <ele>109</ele>
        <time>2021-03-07T09:54:18.982Z</time>
      </trkpt>
      <trkpt lat="48.60034" lon="2.09495">
        <ele>109</ele>
        <time>2021-03-07T09:54:19.982Z</time>
      </trkpt>
      <trkpt lat="48.60033" lon="2.09495">
        <ele>108</ele>
        <time>2021-03-07T09:54:20.981Z</time>
      </trkpt>
      <trkpt lat="48.60031" lon="2.09494">
        <ele>108</ele>
        <time>2021-03-07T09:54:21.982Z</time>
      </trkpt>
      <trkpt lat="48.6003" lon="2.09494">
        <ele>108</ele>
        <time>2021-03-07T09:54:22.982Z</time>
      </trkpt>
      <trkpt lat="48.60029" lon="2.09494">
        <ele>108</ele>
        <time>2021-03-07T09:54:23.982Z</time>
      </trkpt>
      <trkpt lat="48.60027" lon="2.09493">
        <ele>108</ele>
        <time>2021-03-07T09:54:24.981Z</time>
      </trkpt>
      <trkpt lat="48.60025" lon="2.09493">
        <ele>108</ele>
        <time>2021-03-07T09:54:25.982Z</time>
      </trkpt>
      <trkpt lat="48.60024" lon="2.09493">
        <ele>108</ele>
        <time>2021-03-07T09:54:26.982Z</time>
      </trkpt>
      <trkpt lat="48.60022" lon="2.09492">
        <ele>108</ele>
        <time>2021-03-07T09:54:27.982Z</time>
      </trkpt>
      <trkpt lat="48.60021" lon="2.09492">
        <ele>108</ele>
        <time>2021-03-07T09:54:28.982Z</time>
      </trkpt>
      <trkpt lat="48.60019" lon="2.09492">
        <ele>108</ele>
        <time>2021-03-07T09:54:29.981Z</time>
      </trkpt>
      <trkpt lat="48.60018" lon="2.09491">
        <ele>108</ele>
        <time>2021-03-07T09:54:30.982Z</time>
      </trkpt>
      <trkpt lat="48.60016" lon="2.09491">
        <ele>108</ele>
        <time>2021-03-07T09:54:31.982Z</time>
      </trkpt>
      <trkpt lat="48.60015" lon="2.09491">
        <ele>107</ele>
        <time>2021-03-07T09:54:32.982Z</time>
      </trkpt>
      <trkpt lat="48.60013" lon="2.0949">
        <ele>107</ele>
        <time>2021-03-07T09:54:33.981Z</time>
      </trkpt>
      <trkpt lat="48.60012" lon="2.0949">
        <ele>107</ele>
        <time>2021-03-07T09:54:34.981Z</time>
      </trkpt>
      <trkpt lat="48.6001" lon="2.09489">
        <ele>107</ele>
        <time>2021-03-07T09:54:35.982Z</time>
      </trkpt>
      <trkpt lat="48.60009" lon="2.09489">
        <ele>107</ele>
        <time>2021-03-07T09:54:36.982Z</time>
      </trkpt>
      <trkpt lat="48.60008" lon="2.09488">
        <ele>107</ele>
        <time>2021-03-07T09:54:37.981Z</time>
      </trkpt>
      <trkpt lat="48.60006" lon="2.09488">
        <ele>107</ele>
        <time>2021-03-07T09:54:38.982Z</time>
      </trkpt>
      <trkpt lat="48.60005" lon="2.09488">
        <ele>107</ele>
        <time>2021-03-07T09:54:39.981Z</time>
      </trkpt>
      <trkpt lat="48.60003" lon="2.09488">
        <ele>107</ele>
        <time>2021-03-07T09:54:40.981Z</time>
      </trkpt>
      <trkpt lat="48.60001" lon="2.09488">
        <ele>107</ele>
        <time>2021-03-07T09:54:41.981Z</time>
      </trkpt>
      <trkpt lat="48.6" lon="2.09487">
        <ele>107</ele>
        <time>2021-03-07T09:54:42.982Z</time>
      </trkpt>
      <trkpt lat="48.59998" lon="2.09487">
        <ele>108</ele>
        <time>2021-03-07T09:54:43.982Z</time>
      </trkpt>
      <trkpt lat="48.59997" lon="2.09486">
        <ele>108</ele>
        <time>2021-03-07T09:54:44.982Z</time>
      </trkpt>
      <trkpt lat="48.59995" lon="2.09486">
        <ele>108</ele>
        <time>2021-03-07T09:54:45.981Z</time>
      </trkpt>
      <trkpt lat="48.59993" lon="2.09485">
        <ele>108</ele>
        <time>2021-03-07T09:54:46.982Z</time>
      </trkpt>
      <trkpt lat="48.59992" lon="2.09485">
        <ele>108</ele>
        <time>2021-03-07T09:54:47.982Z</time>
      </trkpt>
      <trkpt lat="48.5999" lon="2.09484">
        <ele>109</ele>
        <time>2021-03-07T09:54:48.982Z</time>
      </trkpt>
      <trkpt lat="48.59989" lon="2.09484">
        <ele>109</ele>
        <time>2021-03-07T09:54:49.982Z</time>
      </trkpt>
      <trkpt lat="48.59987" lon="2.09483">
        <ele>109</ele>
        <time>2021-03-07T09:54:50.982Z</time>
      </trkpt>
      <trkpt lat="48.59986" lon="2.09483">
        <ele>109</ele>
        <time>2021-03-07T09:54:51.981Z</time>
      </trkpt>
      <trkpt lat="48.59984" lon="2.09483">
        <ele>109</ele>
        <time>2021-03-07T09:54:52.982Z</time>
      </trkpt>
      <trkpt lat="48.59983" lon="2.09483">
        <ele>110</ele>
        <time>2021-03-07T09:54:53.982Z</time>
      </trkpt>
      <trkpt lat="48.59981" lon="2.09482">
        <ele>110</ele>
        <time>2021-03-07T09:54:54.981Z</time>
      </trkpt>
      <trkpt lat="48.59979" lon="2.09482">
        <ele>110</ele>
        <time>2021-03-07T09:54:55.982Z</time>
      </trkpt>
      <trkpt lat="48.59978" lon="2.09481">
        <ele>110</ele>
        <time>2021-03-07T09:54:56.982Z</time>
      </trkpt>
      <trkpt lat="48.59977" lon="2.09481">
        <ele>110</ele>
        <time>2021-03-07T09:54:57.982Z</time>
      </trkpt>
      <trkpt lat="48.59975" lon="2.09481">
        <ele>109</ele>
        <time>2021-03-07T09:54:58.982Z</time>
      </trkpt>
      <trkpt lat="48.59973" lon="2.0948">
        <ele>109</ele>
        <time>2021-03-07T09:54:59.982Z</time>
      </trkpt>
      <trkpt lat="48.59971" lon="2.09479">
        <ele>109</ele>
        <time>2021-03-07T09:55:00.981Z</time>
      </trkpt>
      <trkpt lat="48.59969" lon="2.09478">
        <ele>109</ele>
        <time>2021-03-07T09:55:01.981Z</time>
      </trkpt>
      <trkpt lat="48.59965" lon="2.09477">
        <ele>109</ele>
        <time>2021-03-07T09:55:02.982Z</time>
      </trkpt>
      <trkpt lat="48.59962" lon="2.09476">
        <ele>110</ele>
        <time>2021-03-07T09:55:03.982Z</time>
      </trkpt>
      <trkpt lat="48.59959" lon="2.09475">
        <ele>110</ele>
        <time>2021-03-07T09:55:04.982Z</time>
      </trkpt>
      <trkpt lat="48.59956" lon="2.09474">
        <ele>110</ele>
        <time>2021-03-07T09:55:05.982Z</time>
      </trkpt>
      <trkpt lat="48.59953" lon="2.09473">
        <ele>110</ele>
        <time>2021-03-07T09:55:06.982Z</time>
      </trkpt>
      <trkpt lat="48.5995" lon="2.09473">
        <ele>110</ele>
        <time>2021-03-07T09:55:07.981Z</time>
      </trkpt>
      <trkpt lat="48.59947" lon="2.09472">
        <ele>110</ele>
        <time>2021-03-07T09:55:08.982Z</time>
      </trkpt>
      <trkpt lat="48.59943" lon="2.09471">
        <ele>110</ele>
        <time>2021-03-07T09:55:09.982Z</time>
      </trkpt>
      <trkpt lat="48.59941" lon="2.0947">
        <ele>109</ele>
        <time>2021-03-07T09:55:10.981Z</time>
      </trkpt>
      <trkpt lat="48.59938" lon="2.09469">
        <ele>109</ele>
        <time>2021-03-07T09:55:11.982Z</time>
      </trkpt>
      <trkpt lat="48.59935" lon="2.09469">
        <ele>109</ele>
        <time>2021-03-07T09:55:12.982Z</time>
      </trkpt>
      <trkpt lat="48.59932" lon="2.09468">
        <ele>109</ele>
        <time>2021-03-07T09:55:13.982Z</time>
      </trkpt>
      <trkpt lat="48.59929" lon="2.09467">
        <ele>109</ele>
        <time>2021-03-07T09:55:14.982Z</time>
      </trkpt>
      <trkpt lat="48.59926" lon="2.09466">
        <ele>109</ele>
        <time>2021-03-07T09:55:15.982Z</time>
      </trkpt>
      <trkpt lat="48.59923" lon="2.09466">
        <ele>109</ele>
        <time>2021-03-07T09:55:16.982Z</time>
      </trkpt>
      <trkpt lat="48.5992" lon="2.09465">
        <ele>109</ele>
        <time>2021-03-07T09:55:17.982Z</time>
      </trkpt>
      <trkpt lat="48.59917" lon="2.09465">
        <ele>109</ele>
        <time>2021-03-07T09:55:18.982Z</time>
      </trkpt>
      <trkpt lat="48.59914" lon="2.09465">
        <ele>109</ele>
        <time>2021-03-07T09:55:19.982Z</time>
      </trkpt>
      <trkpt lat="48.59911" lon="2.09464">
        <ele>109</ele>
        <time>2021-03-07T09:55:20.981Z</time>
      </trkpt>
      <trkpt lat="48.59908" lon="2.09463">
        <ele>110</ele>
        <time>2021-03-07T09:55:21.981Z</time>
      </trkpt>
      <trkpt lat="48.59906" lon="2.09462">
        <ele>109</ele>
        <time>2021-03-07T09:55:22.981Z</time>
      </trkpt>
      <trkpt lat="48.59903" lon="2.09461">
        <ele>109</ele>
        <time>2021-03-07T09:55:23.982Z</time>
      </trkpt>
      <trkpt lat="48.599" lon="2.09459">
        <ele>109</ele>
        <time>2021-03-07T09:55:24.982Z</time>
      </trkpt>
      <trkpt lat="48.59898" lon="2.09458">
        <ele>109</ele>
        <time>2021-03-07T09:55:25.982Z</time>
      </trkpt>
      <trkpt lat="48.59895" lon="2.09456">
        <ele>108</ele>
        <time>2021-03-07T09:55:26.982Z</time>
      </trkpt>
      <trkpt lat="48.59893" lon="2.09455">
        <ele>108</ele>
        <time>2021-03-07T09:55:27.982Z</time>
      </trkpt>
      <trkpt lat="48.5989" lon="2.09454">
        <ele>108</ele>
        <time>2021-03-07T09:55:28.982Z</time>
      </trkpt>
      <trkpt lat="48.59887" lon="2.09452">
        <ele>108</ele>
        <time>2021-03-07T09:55:29.981Z</time>
      </trkpt>
      <trkpt lat="48.59884" lon="2.09451">
        <ele>108</ele>
        <time>2021-03-07T09:55:30.982Z</time>
      </trkpt>
      <trkpt lat="48.59881" lon="2.0945">
        <ele>108</ele>
        <time>2021-03-07T09:55:31.982Z</time>
      </trkpt>
      <trkpt lat="48.59878" lon="2.0945">
        <ele>109</ele>
        <time>2021-03-07T09:55:32.982Z</time>
      </trkpt>
      <trkpt lat="48.59875" lon="2.09449">
        <ele>109</ele>
        <time>2021-03-07T09:55:33.982Z</time>
      </trkpt>
      <trkpt lat="48.59872" lon="2.09448">
        <ele>109</ele>
        <time>2021-03-07T09:55:34.982Z</time>
      </trkpt>
      <trkpt lat="48.5987" lon="2.09447">
        <ele>109</ele>
        <time>2021-03-07T09:55:35.982Z</time>
      </trkpt>
      <trkpt lat="48.59867" lon="2.09447">
        <ele>109</ele>
        <time>2021-03-07T09:55:36.982Z</time>
      </trkpt>
      <trkpt lat="48.59864" lon="2.09446">
        <ele>109</ele>
        <time>2021-03-07T09:55:37.982Z</time>
      </trkpt>
      <trkpt lat="48.59861" lon="2.09446">
        <ele>110</ele>
        <time>2021-03-07T09:55:38.982Z</time>
      </trkpt>
      <trkpt lat="48.59858" lon="2.09446">
        <ele>109</ele>
        <time>2021-03-07T09:55:39.981Z</time>
      </trkpt>
      <trkpt lat="48.59855" lon="2.09446">
        <ele>109</ele>
        <time>2021-03-07T09:55:40.982Z</time>
      </trkpt>
      <trkpt lat="48.59852" lon="2.09445">
        <ele>108</ele>
        <time>2021-03-07T09:55:41.982Z</time>
      </trkpt>
      <trkpt lat="48.5985" lon="2.09445">
        <ele>108</ele>
        <time>2021-03-07T09:55:42.982Z</time>
      </trkpt>
      <trkpt lat="48.59847" lon="2.09445">
        <ele>108</ele>
        <time>2021-03-07T09:55:43.981Z</time>
      </trkpt>
      <trkpt lat="48.59844" lon="2.09445">
        <ele>107</ele>
        <time>2021-03-07T09:55:44.982Z</time>
      </trkpt>
      <trkpt lat="48.59842" lon="2.09444">
        <ele>107</ele>
        <time>2021-03-07T09:55:45.982Z</time>
      </trkpt>
      <trkpt lat="48.59839" lon="2.09443">
        <ele>107</ele>
        <time>2021-03-07T09:55:46.982Z</time>
      </trkpt>
      <trkpt lat="48.59836" lon="2.09443">
        <ele>106</ele>
        <time>2021-03-07T09:55:47.982Z</time>
      </trkpt>
      <trkpt lat="48.59831" lon="2.09442">
        <ele>106</ele>
        <time>2021-03-07T09:55:48.981Z</time>
      </trkpt>
      <trkpt lat="48.59828" lon="2.09442">
        <ele>106</ele>
        <time>2021-03-07T09:55:49.982Z</time>
      </trkpt>
      <trkpt lat="48.59824" lon="2.09442">
        <ele>105</ele>
        <time>2021-03-07T09:55:50.982Z</time>
      </trkpt>
      <trkpt lat="48.59821" lon="2.09442">
        <ele>105</ele>
        <time>2021-03-07T09:55:51.981Z</time>
      </trkpt>
      <trkpt lat="48.59819" lon="2.09441">
        <ele>106</ele>
        <time>2021-03-07T09:55:52.982Z</time>
      </trkpt>
      <trkpt lat="48.59816" lon="2.0944">
        <ele>106</ele>
        <time>2021-03-07T09:55:53.982Z</time>
      </trkpt>
      <trkpt lat="48.59814" lon="2.09439">
        <ele>106</ele>
        <time>2021-03-07T09:55:54.982Z</time>
      </trkpt>
      <trkpt lat="48.59811" lon="2.09439">
        <ele>106</ele>
        <time>2021-03-07T09:55:55.982Z</time>
      </trkpt>
      <trkpt lat="48.59809" lon="2.09438">
        <ele>106</ele>
        <time>2021-03-07T09:55:56.982Z</time>
      </trkpt>
      <trkpt lat="48.59806" lon="2.09437">
        <ele>106</ele>
        <time>2021-03-07T09:55:57.982Z</time>
      </trkpt>
      <trkpt lat="48.59803" lon="2.09436">
        <ele>106</ele>
        <time>2021-03-07T09:55:58.982Z</time>
      </trkpt>
      <trkpt lat="48.59801" lon="2.09435">
        <ele>105</ele>
        <time>2021-03-07T09:55:59.982Z</time>
      </trkpt>
      <trkpt lat="48.59798" lon="2.09434">
        <ele>105</ele>
        <time>2021-03-07T09:56:00.982Z</time>
      </trkpt>
      <trkpt lat="48.59795" lon="2.09433">
        <ele>105</ele>
        <time>2021-03-07T09:56:01.982Z</time>
      </trkpt>
      <trkpt lat="48.59792" lon="2.09432">
        <ele>105</ele>
        <time>2021-03-07T09:56:02.982Z</time>
      </trkpt>
      <trkpt lat="48.5979" lon="2.09431">
        <ele>105</ele>
        <time>2021-03-07T09:56:03.982Z</time>
      </trkpt>
      <trkpt lat="48.59787" lon="2.0943">
        <ele>106</ele>
        <time>2021-03-07T09:56:04.982Z</time>
      </trkpt>
      <trkpt lat="48.59785" lon="2.0943">
        <ele>106</ele>
        <time>2021-03-07T09:56:05.982Z</time>
      </trkpt>
      <trkpt lat="48.59782" lon="2.09429">
        <ele>106</ele>
        <time>2021-03-07T09:56:06.982Z</time>
      </trkpt>
      <trkpt lat="48.59779" lon="2.09428">
        <ele>106</ele>
        <time>2021-03-07T09:56:07.981Z</time>
      </trkpt>
      <trkpt lat="48.59776" lon="2.09427">
        <ele>106</ele>
        <time>2021-03-07T09:56:08.981Z</time>
      </trkpt>
      <trkpt lat="48.59773" lon="2.09426">
        <ele>106</ele>
        <time>2021-03-07T09:56:09.982Z</time>
      </trkpt>
      <trkpt lat="48.5977" lon="2.09425">
        <ele>106</ele>
        <time>2021-03-07T09:56:10.982Z</time>
      </trkpt>
      <trkpt lat="48.59768" lon="2.09424">
        <ele>106</ele>
        <time>2021-03-07T09:56:11.982Z</time>
      </trkpt>
      <trkpt lat="48.59765" lon="2.09423">
        <ele>106</ele>
        <time>2021-03-07T09:56:12.981Z</time>
      </trkpt>
      <trkpt lat="48.59762" lon="2.09421">
        <ele>106</ele>
        <time>2021-03-07T09:56:13.981Z</time>
      </trkpt>
      <trkpt lat="48.59759" lon="2.0942">
        <ele>106</ele>
        <time>2021-03-07T09:56:14.982Z</time>
      </trkpt>
      <trkpt lat="48.59757" lon="2.09418">
        <ele>106</ele>
        <time>2021-03-07T09:56:15.982Z</time>
      </trkpt>
      <trkpt lat="48.59754" lon="2.09416">
        <ele>107</ele>
        <time>2021-03-07T09:56:16.982Z</time>
      </trkpt>
      <trkpt lat="48.59751" lon="2.09415">
        <ele>107</ele>
        <time>2021-03-07T09:56:17.982Z</time>
      </trkpt>
      <trkpt lat="48.59749" lon="2.09413">
        <ele>107</ele>
        <time>2021-03-07T09:56:18.981Z</time>
      </trkpt>
      <trkpt lat="48.59746" lon="2.09412">
        <ele>107</ele>
        <time>2021-03-07T09:56:19.981Z</time>
      </trkpt>
      <trkpt lat="48.59744" lon="2.0941">
        <ele>107</ele>
        <time>2021-03-07T09:56:20.981Z</time>
      </trkpt>
      <trkpt lat="48.59742" lon="2.09409">
        <ele>107</ele>
        <time>2021-03-07T09:56:21.981Z</time>
      </trkpt>
      <trkpt lat="48.5974" lon="2.09408">
        <ele>107</ele>
        <time>2021-03-07T09:56:22.982Z</time>
      </trkpt>
      <trkpt lat="48.59737" lon="2.09407">
        <ele>107</ele>
        <time>2021-03-07T09:56:23.982Z</time>
      </trkpt>
      <trkpt lat="48.59735" lon="2.09405">
        <ele>106</ele>
        <time>2021-03-07T09:56:24.982Z</time>
      </trkpt>
      <trkpt lat="48.59733" lon="2.09404">
        <ele>106</ele>
        <time>2021-03-07T09:56:25.982Z</time>
      </trkpt>
      <trkpt lat="48.59731" lon="2.09403">
        <ele>106</ele>
        <time>2021-03-07T09:56:26.981Z</time>
      </trkpt>
      <trkpt lat="48.59729" lon="2.09402">
        <ele>106</ele>
        <time>2021-03-07T09:56:27.981Z</time>
      </trkpt>
      <trkpt lat="48.59727" lon="2.09401">
        <ele>106</ele>
        <time>2021-03-07T09:56:28.982Z</time>
      </trkpt>
      <trkpt lat="48.59725" lon="2.094">
        <ele>106</ele>
        <time>2021-03-07T09:56:29.982Z</time>
      </trkpt>
      <trkpt lat="48.59724" lon="2.09399">
        <ele>106</ele>
        <time>2021-03-07T09:56:30.982Z</time>
      </trkpt>
      <trkpt lat="48.59722" lon="2.09398">
        <ele>106</ele>
        <time>2021-03-07T09:56:31.982Z</time>
      </trkpt>
      <trkpt lat="48.59721" lon="2.09397">
        <ele>106</ele>
        <time>2021-03-07T09:56:32.982Z</time>
      </trkpt>
      <trkpt lat="48.59719" lon="2.09396">
        <ele>105</ele>
        <time>2021-03-07T09:56:33.982Z</time>
      </trkpt>
      <trkpt lat="48.59718" lon="2.09395">
        <ele>105</ele>
        <time>2021-03-07T09:56:34.982Z</time>
      </trkpt>
      <trkpt lat="48.59716" lon="2.09395">
        <ele>104</ele>
        <time>2021-03-07T09:56:35.982Z</time>
      </trkpt>
      <trkpt lat="48.59715" lon="2.09394">
        <ele>104</ele>
        <time>2021-03-07T09:56:36.982Z</time>
      </trkpt>
      <trkpt lat="48.59714" lon="2.09393">
        <ele>104</ele>
        <time>2021-03-07T09:56:37.982Z</time>
      </trkpt>
      <trkpt lat="48.59713" lon="2.09392">
        <ele>104</ele>
        <time>2021-03-07T09:56:38.982Z</time>
      </trkpt>
      <trkpt lat="48.59711" lon="2.09391">
        <ele>105</ele>
        <time>2021-03-07T09:56:39.982Z</time>
      </trkpt>
      <trkpt lat="48.5971" lon="2.0939">
        <ele>105</ele>
        <time>2021-03-07T09:56:40.981Z</time>
      </trkpt>
      <trkpt lat="48.59709" lon="2.09389">
        <ele>104</ele>
        <time>2021-03-07T09:56:41.982Z</time>
      </trkpt>
      <trkpt lat="48.59707" lon="2.09388">
        <ele>104</ele>
        <time>2021-03-07T09:56:42.982Z</time>
      </trkpt>
      <trkpt lat="48.59706" lon="2.09387">
        <ele>104</ele>
        <time>2021-03-07T09:56:43.981Z</time>
      </trkpt>
      <trkpt lat="48.59704" lon="2.09386">
        <ele>104</ele>
        <time>2021-03-07T09:56:44.982Z</time>
      </trkpt>
      <trkpt lat="48.59702" lon="2.09385">
        <ele>104</ele>
        <time>2021-03-07T09:56:45.982Z</time>
      </trkpt>
      <trkpt lat="48.59699" lon="2.09384">
        <ele>104</ele>
        <time>2021-03-07T09:56:46.982Z</time>
      </trkpt>
      <trkpt lat="48.59696" lon="2.09382">
        <ele>104</ele>
        <time>2021-03-07T09:56:47.982Z</time>
      </trkpt>
      <trkpt lat="48.59693" lon="2.09381">
        <ele>104</ele>
        <time>2021-03-07T09:56:48.981Z</time>
      </trkpt>
      <trkpt lat="48.5969" lon="2.09378">
        <ele>104</ele>
        <time>2021-03-07T09:56:49.982Z</time>
      </trkpt>
      <trkpt lat="48.59687" lon="2.09376">
        <ele>104</ele>
        <time>2021-03-07T09:56:50.982Z</time>
      </trkpt>
      <trkpt lat="48.59683" lon="2.09374">
        <ele>104</ele>
        <time>2021-03-07T09:56:51.982Z</time>
      </trkpt>
      <trkpt lat="48.5968" lon="2.09372">
        <ele>104</ele>
        <time>2021-03-07T09:56:52.982Z</time>
      </trkpt>
      <trkpt lat="48.59677" lon="2.09369">
        <ele>103</ele>
        <time>2021-03-07T09:56:53.982Z</time>
      </trkpt>
      <trkpt lat="48.59674" lon="2.09368">
        <ele>103</ele>
        <time>2021-03-07T09:56:54.981Z</time>
      </trkpt>
      <trkpt lat="48.59671" lon="2.09365">
        <ele>103</ele>
        <time>2021-03-07T09:56:55.982Z</time>
      </trkpt>
      <trkpt lat="48.59668" lon="2.09364">
        <ele>103</ele>
        <time>2021-03-07T09:56:56.981Z</time>
      </trkpt>
      <trkpt lat="48.59665" lon="2.09362">
        <ele>104</ele>
        <time>2021-03-07T09:56:57.982Z</time>
      </trkpt>
      <trkpt lat="48.59663" lon="2.09361">
        <ele>104</ele>
        <time>2021-03-07T09:56:58.982Z</time>
      </trkpt>
      <trkpt lat="48.5966" lon="2.09359">
        <ele>104</ele>
        <time>2021-03-07T09:56:59.982Z</time>
      </trkpt>
      <trkpt lat="48.59658" lon="2.09358">
        <ele>104</ele>
        <time>2021-03-07T09:57:00.982Z</time>
      </trkpt>
      <trkpt lat="48.59654" lon="2.09357">
        <ele>103</ele>
        <time>2021-03-07T09:57:01.982Z</time>
      </trkpt>
      <trkpt lat="48.59652" lon="2.09355">
        <ele>103</ele>
        <time>2021-03-07T09:57:02.982Z</time>
      </trkpt>
      <trkpt lat="48.59649" lon="2.09354">
        <ele>102</ele>
        <time>2021-03-07T09:57:03.981Z</time>
      </trkpt>
      <trkpt lat="48.59646" lon="2.09352">
        <ele>102</ele>
        <time>2021-03-07T09:57:04.982Z</time>
      </trkpt>
      <trkpt lat="48.59643" lon="2.09351">
        <ele>102</ele>
        <time>2021-03-07T09:57:05.982Z</time>
      </trkpt>
      <trkpt lat="48.5964" lon="2.09349">
        <ele>101</ele>
        <time>2021-03-07T09:57:06.982Z</time>
      </trkpt>
      <trkpt lat="48.59638" lon="2.09348">
        <ele>101</ele>
        <time>2021-03-07T09:57:07.982Z</time>
      </trkpt>
      <trkpt lat="48.59635" lon="2.09346">
        <ele>101</ele>
        <time>2021-03-07T09:57:08.981Z</time>
      </trkpt>
      <trkpt lat="48.59632" lon="2.09344">
        <ele>101</ele>
        <time>2021-03-07T09:57:09.982Z</time>
      </trkpt>
      <trkpt lat="48.59629" lon="2.09342">
        <ele>101</ele>
        <time>2021-03-07T09:57:10.982Z</time>
      </trkpt>
      <trkpt lat="48.59626" lon="2.09339">
        <ele>101</ele>
        <time>2021-03-07T09:57:11.982Z</time>
      </trkpt>
      <trkpt lat="48.59623" lon="2.09337">
        <ele>102</ele>
        <time>2021-03-07T09:57:12.981Z</time>
      </trkpt>
      <trkpt lat="48.59622" lon="2.09334">
        <ele>102</ele>
        <time>2021-03-07T09:57:13.982Z</time>
      </trkpt>
      <trkpt lat="48.5962" lon="2.0933">
        <ele>102</ele>
        <time>2021-03-07T09:57:14.981Z</time>
      </trkpt>
      <trkpt lat="48.59618" lon="2.09326">
        <ele>102</ele>
        <time>2021-03-07T09:57:15.982Z</time>
      </trkpt>
      <trkpt lat="48.59616" lon="2.09322">
        <ele>101</ele>
        <time>2021-03-07T09:57:16.982Z</time>
      </trkpt>
      <trkpt lat="48.59613" lon="2.09319">
        <ele>101</ele>
        <time>2021-03-07T09:57:17.982Z</time>
      </trkpt>
      <trkpt lat="48.59611" lon="2.09316">
        <ele>100</ele>
        <time>2021-03-07T09:57:18.982Z</time>
      </trkpt>
      <trkpt lat="48.59608" lon="2.09313">
        <ele>100</ele>
        <time>2021-03-07T09:57:19.982Z</time>
      </trkpt>
      <trkpt lat="48.59606" lon="2.09311">
        <ele>100</ele>
        <time>2021-03-07T09:57:20.982Z</time>
      </trkpt>
      <trkpt lat="48.59602" lon="2.0931">
        <ele>101</ele>
        <time>2021-03-07T09:57:21.981Z</time>
      </trkpt>
      <trkpt lat="48.59599" lon="2.09309">
        <ele>101</ele>
        <time>2021-03-07T09:57:22.981Z</time>
      </trkpt>
      <trkpt lat="48.59596" lon="2.09309">
        <ele>101</ele>
        <time>2021-03-07T09:57:23.981Z</time>
      </trkpt>
      <trkpt lat="48.59593" lon="2.09308">
        <ele>101</ele>
        <time>2021-03-07T09:57:24.982Z</time>
      </trkpt>
      <trkpt lat="48.59589" lon="2.09308">
        <ele>101</ele>
        <time>2021-03-07T09:57:25.982Z</time>
      </trkpt>
      <trkpt lat="48.59586" lon="2.09307">
        <ele>101</ele>
        <time>2021-03-07T09:57:26.982Z</time>
      </trkpt>
      <trkpt lat="48.59582" lon="2.09307">
        <ele>102</ele>
        <time>2021-03-07T09:57:27.982Z</time>
      </trkpt>
      <trkpt lat="48.59579" lon="2.09306">
        <ele>102</ele>
        <time>2021-03-07T09:57:28.982Z</time>
      </trkpt>
      <trkpt lat="48.59576" lon="2.09306">
        <ele>102</ele>
        <time>2021-03-07T09:57:29.982Z</time>
      </trkpt>
      <trkpt lat="48.59573" lon="2.09305">
        <ele>102</ele>
        <time>2021-03-07T09:57:30.982Z</time>
      </trkpt>
      <trkpt lat="48.5957" lon="2.09305">
        <ele>102</ele>
        <time>2021-03-07T09:57:31.982Z</time>
      </trkpt>
      <trkpt lat="48.59567" lon="2.09304">
        <ele>102</ele>
        <time>2021-03-07T09:57:32.982Z</time>
      </trkpt>
      <trkpt lat="48.59564" lon="2.09304">
        <ele>103</ele>
        <time>2021-03-07T09:57:33.981Z</time>
      </trkpt>
      <trkpt lat="48.5956" lon="2.09303">
        <ele>103</ele>
        <time>2021-03-07T09:57:34.982Z</time>
      </trkpt>
      <trkpt lat="48.59557" lon="2.09303">
        <ele>103</ele>
        <time>2021-03-07T09:57:35.981Z</time>
      </trkpt>
      <trkpt lat="48.59554" lon="2.09302">
        <ele>103</ele>
        <time>2021-03-07T09:57:36.982Z</time>
      </trkpt>
      <trkpt lat="48.5955" lon="2.09301">
        <ele>103</ele>
        <time>2021-03-07T09:57:37.982Z</time>
      </trkpt>
      <trkpt lat="48.59546" lon="2.09301">
        <ele>103</ele>
        <time>2021-03-07T09:57:38.982Z</time>
      </trkpt>
      <trkpt lat="48.59543" lon="2.093">
        <ele>103</ele>
        <time>2021-03-07T09:57:39.982Z</time>
      </trkpt>
      <trkpt lat="48.5954" lon="2.093">
        <ele>103</ele>
        <time>2021-03-07T09:57:40.982Z</time>
      </trkpt>
      <trkpt lat="48.59536" lon="2.09299">
        <ele>103</ele>
        <time>2021-03-07T09:57:41.982Z</time>
      </trkpt>
      <trkpt lat="48.59533" lon="2.09298">
        <ele>103</ele>
        <time>2021-03-07T09:57:42.982Z</time>
      </trkpt>
      <trkpt lat="48.59529" lon="2.09298">
        <ele>103</ele>
        <time>2021-03-07T09:57:43.982Z</time>
      </trkpt>
      <trkpt lat="48.59526" lon="2.09297">
        <ele>102</ele>
        <time>2021-03-07T09:57:44.982Z</time>
      </trkpt>
      <trkpt lat="48.59523" lon="2.09296">
        <ele>102</ele>
        <time>2021-03-07T09:57:45.982Z</time>
      </trkpt>
      <trkpt lat="48.59519" lon="2.09296">
        <ele>102</ele>
        <time>2021-03-07T09:57:46.982Z</time>
      </trkpt>
      <trkpt lat="48.59516" lon="2.09295">
        <ele>102</ele>
        <time>2021-03-07T09:57:47.982Z</time>
      </trkpt>
      <trkpt lat="48.59511" lon="2.09294">
        <ele>103</ele>
        <time>2021-03-07T09:57:48.982Z</time>
      </trkpt>
      <trkpt lat="48.59508" lon="2.09294">
        <ele>103</ele>
        <time>2021-03-07T09:57:49.982Z</time>
      </trkpt>
      <trkpt lat="48.59505" lon="2.09294">
        <ele>103</ele>
        <time>2021-03-07T09:57:50.982Z</time>
      </trkpt>
      <trkpt lat="48.59502" lon="2.09293">
        <ele>103</ele>
        <time>2021-03-07T09:57:51.981Z</time>
      </trkpt>
      <trkpt lat="48.59497" lon="2.09292">
        <ele>103</ele>
        <time>2021-03-07T09:57:52.982Z</time>
      </trkpt>
      <trkpt lat="48.59494" lon="2.09292">
        <ele>103</ele>
        <time>2021-03-07T09:57:53.982Z</time>
      </trkpt>
      <trkpt lat="48.5949" lon="2.09291">
        <ele>103</ele>
        <time>2021-03-07T09:57:54.982Z</time>
      </trkpt>
      <trkpt lat="48.59488" lon="2.09291">
        <ele>102</ele>
        <time>2021-03-07T09:57:55.982Z</time>
      </trkpt>
      <trkpt lat="48.59484" lon="2.0929">
        <ele>102</ele>
        <time>2021-03-07T09:57:56.982Z</time>
      </trkpt>
      <trkpt lat="48.5948" lon="2.0929">
        <ele>103</ele>
        <time>2021-03-07T09:57:57.982Z</time>
      </trkpt>
      <trkpt lat="48.59477" lon="2.09289">
        <ele>102</ele>
        <time>2021-03-07T09:57:58.982Z</time>
      </trkpt>
      <trkpt lat="48.59473" lon="2.09289">
        <ele>102</ele>
        <time>2021-03-07T09:57:59.982Z</time>
      </trkpt>
      <trkpt lat="48.5947" lon="2.09288">
        <ele>102</ele>
        <time>2021-03-07T09:58:00.982Z</time>
      </trkpt>
      <trkpt lat="48.59466" lon="2.09288">
        <ele>101</ele>
        <time>2021-03-07T09:58:01.981Z</time>
      </trkpt>
      <trkpt lat="48.59463" lon="2.09287">
        <ele>101</ele>
        <time>2021-03-07T09:58:02.982Z</time>
      </trkpt>
      <trkpt lat="48.59459" lon="2.09287">
        <ele>101</ele>
        <time>2021-03-07T09:58:03.982Z</time>
      </trkpt>
      <trkpt lat="48.59456" lon="2.09286">
        <ele>101</ele>
        <time>2021-03-07T09:58:04.982Z</time>
      </trkpt>
      <trkpt lat="48.59452" lon="2.09286">
        <ele>101</ele>
        <time>2021-03-07T09:58:05.981Z</time>
      </trkpt>
      <trkpt lat="48.59449" lon="2.09285">
        <ele>101</ele>
        <time>2021-03-07T09:58:06.982Z</time>
      </trkpt>
      <trkpt lat="48.59445" lon="2.09285">
        <ele>102</ele>
        <time>2021-03-07T09:58:07.982Z</time>
      </trkpt>
      <trkpt lat="48.59442" lon="2.09284">
        <ele>102</ele>
        <time>2021-03-07T09:58:08.981Z</time>
      </trkpt>
      <trkpt lat="48.59438" lon="2.09283">
        <ele>102</ele>
        <time>2021-03-07T09:58:09.981Z</time>
      </trkpt>
      <trkpt lat="48.59435" lon="2.09283">
        <ele>102</ele>
        <time>2021-03-07T09:58:10.982Z</time>
      </trkpt>
      <trkpt lat="48.59432" lon="2.09282">
        <ele>102</ele>
        <time>2021-03-07T09:58:11.981Z</time>
      </trkpt>
      <trkpt lat="48.59429" lon="2.09282">
        <ele>103</ele>
        <time>2021-03-07T09:58:12.982Z</time>
      </trkpt>
      <trkpt lat="48.59426" lon="2.09281">
        <ele>103</ele>
        <time>2021-03-07T09:58:13.982Z</time>
      </trkpt>
      <trkpt lat="48.59422" lon="2.09281">
        <ele>103</ele>
        <time>2021-03-07T09:58:14.982Z</time>
      </trkpt>
      <trkpt lat="48.59419" lon="2.0928">
        <ele>103</ele>
        <time>2021-03-07T09:58:15.982Z</time>
      </trkpt>
      <trkpt lat="48.59416" lon="2.09279">
        <ele>104</ele>
        <time>2021-03-07T09:58:16.982Z</time>
      </trkpt>
      <trkpt lat="48.59412" lon="2.09279">
        <ele>104</ele>
        <time>2021-03-07T09:58:17.982Z</time>
      </trkpt>
      <trkpt lat="48.59409" lon="2.09278">
        <ele>104</ele>
        <time>2021-03-07T09:58:18.981Z</time>
      </trkpt>
      <trkpt lat="48.59406" lon="2.09278">
        <ele>104</ele>
        <time>2021-03-07T09:58:19.981Z</time>
      </trkpt>
      <trkpt lat="48.59402" lon="2.09277">
        <ele>105</ele>
        <time>2021-03-07T09:58:20.982Z</time>
      </trkpt>
      <trkpt lat="48.59399" lon="2.09276">
        <ele>105</ele>
        <time>2021-03-07T09:58:21.981Z</time>
      </trkpt>
      <trkpt lat="48.59395" lon="2.09276">
        <ele>105</ele>
        <time>2021-03-07T09:58:22.982Z</time>
      </trkpt>
      <trkpt lat="48.59393" lon="2.09275">
        <ele>106</ele>
        <time>2021-03-07T09:58:23.982Z</time>
      </trkpt>
      <trkpt lat="48.5939" lon="2.09275">
        <ele>106</ele>
        <time>2021-03-07T09:58:24.982Z</time>
      </trkpt>
      <trkpt lat="48.59386" lon="2.09274">
        <ele>106</ele>
        <time>2021-03-07T09:58:25.982Z</time>
      </trkpt>
      <trkpt lat="48.59382" lon="2.09274">
        <ele>107</ele>
        <time>2021-03-07T09:58:26.982Z</time>
      </trkpt>
      <trkpt lat="48.59379" lon="2.09273">
        <ele>107</ele>
        <time>2021-03-07T09:58:27.982Z</time>
      </trkpt>
      <trkpt lat="48.59376" lon="2.09273">
        <ele>106</ele>
        <time>2021-03-07T09:58:28.982Z</time>
      </trkpt>
      <trkpt lat="48.59373" lon="2.09272">
        <ele>106</ele>
        <time>2021-03-07T09:58:29.982Z</time>
      </trkpt>
      <trkpt lat="48.59369" lon="2.09272">
        <ele>106</ele>
        <time>2021-03-07T09:58:30.982Z</time>
      </trkpt>
      <trkpt lat="48.59365" lon="2.09271">
        <ele>106</ele>
        <time>2021-03-07T09:58:31.981Z</time>
      </trkpt>
      <trkpt lat="48.59362" lon="2.0927">
        <ele>106</ele>
        <time>2021-03-07T09:58:32.982Z</time>
      </trkpt>
      <trkpt lat="48.59359" lon="2.0927">
        <ele>106</ele>
        <time>2021-03-07T09:58:33.982Z</time>
      </trkpt>
      <trkpt lat="48.59356" lon="2.09269">
        <ele>105</ele>
        <time>2021-03-07T09:58:34.982Z</time>
      </trkpt>
      <trkpt lat="48.59352" lon="2.09269">
        <ele>105</ele>
        <time>2021-03-07T09:58:35.981Z</time>
      </trkpt>
      <trkpt lat="48.59349" lon="2.09268">
        <ele>105</ele>
        <time>2021-03-07T09:58:36.981Z</time>
      </trkpt>
      <trkpt lat="48.59346" lon="2.09267">
        <ele>104</ele>
        <time>2021-03-07T09:58:37.982Z</time>
      </trkpt>
      <trkpt lat="48.59343" lon="2.09267">
        <ele>104</ele>
        <time>2021-03-07T09:58:38.981Z</time>
      </trkpt>
      <trkpt lat="48.5934" lon="2.09266">
        <ele>104</ele>
        <time>2021-03-07T09:58:39.982Z</time>
      </trkpt>
      <trkpt lat="48.59336" lon="2.09265">
        <ele>104</ele>
        <time>2021-03-07T09:58:40.982Z</time>
      </trkpt>
      <trkpt lat="48.59333" lon="2.09265">
        <ele>104</ele>
        <time>2021-03-07T09:58:41.982Z</time>
      </trkpt>
      <trkpt lat="48.5933" lon="2.09264">
        <ele>104</ele>
        <time>2021-03-07T09:58:42.982Z</time>
      </trkpt>
      <trkpt lat="48.59327" lon="2.09264">
        <ele>104</ele>
        <time>2021-03-07T09:58:43.982Z</time>
      </trkpt>
      <trkpt lat="48.59324" lon="2.09263">
        <ele>104</ele>
        <time>2021-03-07T09:58:44.982Z</time>
      </trkpt>
      <trkpt lat="48.5932" lon="2.09263">
        <ele>104</ele>
        <time>2021-03-07T09:58:45.982Z</time>
      </trkpt>
      <trkpt lat="48.59317" lon="2.09263">
        <ele>104</ele>
        <time>2021-03-07T09:58:46.982Z</time>
      </trkpt>
      <trkpt lat="48.59314" lon="2.09263">
        <ele>104</ele>
        <time>2021-03-07T09:58:47.981Z</time>
      </trkpt>
      <trkpt lat="48.5931" lon="2.09263">
        <ele>104</ele>
        <time>2021-03-07T09:58:48.982Z</time>
      </trkpt>
      <trkpt lat="48.59307" lon="2.09262">
        <ele>104</ele>
        <time>2021-03-07T09:58:49.981Z</time>
      </trkpt>
      <trkpt lat="48.59304" lon="2.09262">
        <ele>104</ele>
        <time>2021-03-07T09:58:50.982Z</time>
      </trkpt>
      <trkpt lat="48.593" lon="2.09262">
        <ele>105</ele>
        <time>2021-03-07T09:58:51.981Z</time>
      </trkpt>
      <trkpt lat="48.59297" lon="2.09262">
        <ele>105</ele>
        <time>2021-03-07T09:58:52.982Z</time>
      </trkpt>
      <trkpt lat="48.59293" lon="2.09261">
        <ele>105</ele>
        <time>2021-03-07T09:58:53.982Z</time>
      </trkpt>
      <trkpt lat="48.5929" lon="2.09261">
        <ele>104</ele>
        <time>2021-03-07T09:58:54.982Z</time>
      </trkpt>
      <trkpt lat="48.59286" lon="2.09261">
        <ele>105</ele>
        <time>2021-03-07T09:58:55.981Z</time>
      </trkpt>
      <trkpt lat="48.59283" lon="2.09261">
        <ele>105</ele>
        <time>2021-03-07T09:58:56.982Z</time>
      </trkpt>
      <trkpt lat="48.5928" lon="2.09261">
        <ele>104</ele>
        <time>2021-03-07T09:58:57.981Z</time>
      </trkpt>
      <trkpt lat="48.59276" lon="2.09261">
        <ele>104</ele>
        <time>2021-03-07T09:58:58.982Z</time>
      </trkpt>
      <trkpt lat="48.59273" lon="2.09262">
        <ele>104</ele>
        <time>2021-03-07T09:58:59.981Z</time>
      </trkpt>
      <trkpt lat="48.5927" lon="2.09262">
        <ele>104</ele>
        <time>2021-03-07T09:59:00.981Z</time>
      </trkpt>
      <trkpt lat="48.59266" lon="2.09262">
        <ele>104</ele>
        <time>2021-03-07T09:59:01.982Z</time>
      </trkpt>
      <trkpt lat="48.59263" lon="2.09263">
        <ele>104</ele>
        <time>2021-03-07T09:59:02.981Z</time>
      </trkpt>
      <trkpt lat="48.5926" lon="2.09263">
        <ele>104</ele>
        <time>2021-03-07T09:59:03.982Z</time>
      </trkpt>
      <trkpt lat="48.59256" lon="2.09263">
        <ele>105</ele>
        <time>2021-03-07T09:59:04.981Z</time>
      </trkpt>
      <trkpt lat="48.59253" lon="2.09263">
        <ele>105</ele>
        <time>2021-03-07T09:59:05.982Z</time>
      </trkpt>
      <trkpt lat="48.5925" lon="2.09263">
        <ele>105</ele>
        <time>2021-03-07T09:59:06.981Z</time>
      </trkpt>
      <trkpt lat="48.59246" lon="2.09263">
        <ele>105</ele>
        <time>2021-03-07T09:59:07.982Z</time>
      </trkpt>
      <trkpt lat="48.59243" lon="2.09263">
        <ele>105</ele>
        <time>2021-03-07T09:59:08.981Z</time>
      </trkpt>
      <trkpt lat="48.5924" lon="2.09264">
        <ele>106</ele>
        <time>2021-03-07T09:59:09.982Z</time>
      </trkpt>
      <trkpt lat="48.59237" lon="2.09264">
        <ele>106</ele>
        <time>2021-03-07T09:59:10.982Z</time>
      </trkpt>
      <trkpt lat="48.59233" lon="2.09264">
        <ele>106</ele>
        <time>2021-03-07T09:59:11.982Z</time>
      </trkpt>
      <trkpt lat="48.5923" lon="2.09264">
        <ele>107</ele>
        <time>2021-03-07T09:59:12.982Z</time>
      </trkpt>
      <trkpt lat="48.59227" lon="2.09264">
        <ele>107</ele>
        <time>2021-03-07T09:59:13.982Z</time>
      </trkpt>
      <trkpt lat="48.59223" lon="2.09264">
        <ele>107</ele>
        <time>2021-03-07T09:59:14.982Z</time>
      </trkpt>
      <trkpt lat="48.5922" lon="2.09265">
        <ele>107</ele>
        <time>2021-03-07T09:59:15.982Z</time>
      </trkpt>
      <trkpt lat="48.59217" lon="2.09265">
        <ele>107</ele>
        <time>2021-03-07T09:59:16.981Z</time>
      </trkpt>
      <trkpt lat="48.59214" lon="2.09265">
        <ele>108</ele>
        <time>2021-03-07T09:59:17.982Z</time>
      </trkpt>
      <trkpt lat="48.5921" lon="2.09265">
        <ele>108</ele>
        <time>2021-03-07T09:59:18.981Z</time>
      </trkpt>
      <trkpt lat="48.59207" lon="2.09266">
        <ele>108</ele>
        <time>2021-03-07T09:59:19.982Z</time>
      </trkpt>
      <trkpt lat="48.59204" lon="2.09266">
        <ele>108</ele>
        <time>2021-03-07T09:59:20.981Z</time>
      </trkpt>
      <trkpt lat="48.59201" lon="2.09266">
        <ele>108</ele>
        <time>2021-03-07T09:59:21.982Z</time>
      </trkpt>
      <trkpt lat="48.59197" lon="2.09266">
        <ele>108</ele>
        <time>2021-03-07T09:59:22.982Z</time>
      </trkpt>
      <trkpt lat="48.59194" lon="2.09266">
        <ele>108</ele>
        <time>2021-03-07T09:59:23.981Z</time>
      </trkpt>
      <trkpt lat="48.59191" lon="2.09266">
        <ele>108</ele>
        <time>2021-03-07T09:59:24.981Z</time>
      </trkpt>
      <trkpt lat="48.59188" lon="2.09267">
        <ele>108</ele>
        <time>2021-03-07T09:59:25.981Z</time>
      </trkpt>
      <trkpt lat="48.59185" lon="2.09267">
        <ele>107</ele>
        <time>2021-03-07T09:59:26.982Z</time>
      </trkpt>
      <trkpt lat="48.59181" lon="2.09268">
        <ele>107</ele>
        <time>2021-03-07T09:59:27.982Z</time>
      </trkpt>
      <trkpt lat="48.59178" lon="2.09268">
        <ele>107</ele>
        <time>2021-03-07T09:59:28.982Z</time>
      </trkpt>
      <trkpt lat="48.59175" lon="2.09269">
        <ele>107</ele>
        <time>2021-03-07T09:59:29.982Z</time>
      </trkpt>
      <trkpt lat="48.59172" lon="2.09269">
        <ele>107</ele>
        <time>2021-03-07T09:59:30.982Z</time>
      </trkpt>
      <trkpt lat="48.59168" lon="2.0927">
        <ele>106</ele>
        <time>2021-03-07T09:59:31.982Z</time>
      </trkpt>
      <trkpt lat="48.59165" lon="2.0927">
        <ele>106</ele>
        <time>2021-03-07T09:59:32.982Z</time>
      </trkpt>
      <trkpt lat="48.59161" lon="2.0927">
        <ele>106</ele>
        <time>2021-03-07T09:59:33.982Z</time>
      </trkpt>
      <trkpt lat="48.59158" lon="2.09271">
        <ele>106</ele>
        <time>2021-03-07T09:59:34.982Z</time>
      </trkpt>
      <trkpt lat="48.59155" lon="2.09271">
        <ele>106</ele>
        <time>2021-03-07T09:59:35.982Z</time>
      </trkpt>
      <trkpt lat="48.59151" lon="2.09272">
        <ele>106</ele>
        <time>2021-03-07T09:59:36.982Z</time>
      </trkpt>
      <trkpt lat="48.59148" lon="2.09272">
        <ele>106</ele>
        <time>2021-03-07T09:59:37.982Z</time>
      </trkpt>
      <trkpt lat="48.59145" lon="2.09272">
        <ele>106</ele>
        <time>2021-03-07T09:59:38.982Z</time>
      </trkpt>
      <trkpt lat="48.59142" lon="2.09272">
        <ele>106</ele>
        <time>2021-03-07T09:59:39.982Z</time>
      </trkpt>
      <trkpt lat="48.59138" lon="2.09273">
        <ele>106</ele>
        <time>2021-03-07T09:59:40.982Z</time>
      </trkpt>
      <trkpt lat="48.59135" lon="2.09273">
        <ele>106</ele>
        <time>2021-03-07T09:59:41.981Z</time>
      </trkpt>
      <trkpt lat="48.59132" lon="2.09273">
        <ele>106</ele>
        <time>2021-03-07T09:59:42.981Z</time>
      </trkpt>
      <trkpt lat="48.59128" lon="2.09274">
        <ele>106</ele>
        <time>2021-03-07T09:59:43.982Z</time>
      </trkpt>
      <trkpt lat="48.59125" lon="2.09274">
        <ele>106</ele>
        <time>2021-03-07T09:59:44.982Z</time>
      </trkpt>
      <trkpt lat="48.59122" lon="2.09275">
        <ele>107</ele>
        <time>2021-03-07T09:59:45.982Z</time>
      </trkpt>
      <trkpt lat="48.59119" lon="2.09275">
        <ele>107</ele>
        <time>2021-03-07T09:59:46.981Z</time>
      </trkpt>
      <trkpt lat="48.59116" lon="2.09275">
        <ele>107</ele>
        <time>2021-03-07T09:59:47.982Z</time>
      </trkpt>
      <trkpt lat="48.59113" lon="2.09276">
        <ele>107</ele>
        <time>2021-03-07T09:59:48.981Z</time>
      </trkpt>
      <trkpt lat="48.5911" lon="2.09276">
        <ele>107</ele>
        <time>2021-03-07T09:59:49.982Z</time>
      </trkpt>
      <trkpt lat="48.59107" lon="2.09276">
        <ele>107</ele>
        <time>2021-03-07T09:59:50.982Z</time>
      </trkpt>
      <trkpt lat="48.59104" lon="2.09276">
        <ele>106</ele>
        <time>2021-03-07T09:59:51.982Z</time>
      </trkpt>
      <trkpt lat="48.591" lon="2.09277">
        <ele>106</ele>
        <time>2021-03-07T09:59:52.981Z</time>
      </trkpt>
      <trkpt lat="48.59097" lon="2.09277">
        <ele>106</ele>
        <time>2021-03-07T09:59:53.981Z</time>
      </trkpt>
      <trkpt lat="48.59094" lon="2.09277">
        <ele>105</ele>
        <time>2021-03-07T09:59:54.982Z</time>
      </trkpt>
      <trkpt lat="48.59091" lon="2.09277">
        <ele>105</ele>
        <time>2021-03-07T09:59:55.981Z</time>
      </trkpt>
      <trkpt lat="48.59088" lon="2.09278">
        <ele>105</ele>
        <time>2021-03-07T09:59:56.982Z</time>
      </trkpt>
      <trkpt lat="48.59085" lon="2.09278">
        <ele>104</ele>
        <time>2021-03-07T09:59:57.982Z</time>
      </trkpt>
      <trkpt lat="48.59081" lon="2.09278">
        <ele>104</ele>
        <time>2021-03-07T09:59:58.982Z</time>
      </trkpt>
      <trkpt lat="48.59078" lon="2.09278">
        <ele>105</ele>
        <time>2021-03-07T09:59:59.982Z</time>
      </trkpt>
      <trkpt lat="48.59075" lon="2.09278">
        <ele>105</ele>
        <time>2021-03-07T10:00:00.981Z</time>
      </trkpt>
      <trkpt lat="48.59071" lon="2.09279">
        <ele>105</ele>
        <time>2021-03-07T10:00:01.981Z</time>
      </trkpt>
      <trkpt lat="48.59068" lon="2.09279">
        <ele>105</ele>
        <time>2021-03-07T10:00:02.981Z</time>
      </trkpt>
      <trkpt lat="48.59065" lon="2.09279">
        <ele>105</ele>
        <time>2021-03-07T10:00:03.981Z</time>
      </trkpt>
      <trkpt lat="48.59062" lon="2.09279">
        <ele>104</ele>
        <time>2021-03-07T10:00:04.981Z</time>
      </trkpt>
      <trkpt lat="48.59058" lon="2.0928">
        <ele>104</ele>
        <time>2021-03-07T10:00:05.981Z</time>
      </trkpt>
      <trkpt lat="48.59055" lon="2.0928">
        <ele>104</ele>
        <time>2021-03-07T10:00:06.981Z</time>
      </trkpt>
      <trkpt lat="48.59052" lon="2.0928">
        <ele>104</ele>
        <time>2021-03-07T10:00:07.981Z</time>
      </trkpt>
      <trkpt lat="48.59049" lon="2.0928">
        <ele>104</ele>
        <time>2021-03-07T10:00:08.982Z</time>
      </trkpt>
      <trkpt lat="48.59046" lon="2.09281">
        <ele>104</ele>
        <time>2021-03-07T10:00:09.982Z</time>
      </trkpt>
      <trkpt lat="48.59043" lon="2.09281">
        <ele>104</ele>
        <time>2021-03-07T10:00:10.982Z</time>
      </trkpt>
      <trkpt lat="48.59039" lon="2.09281">
        <ele>104</ele>
        <time>2021-03-07T10:00:11.982Z</time>
      </trkpt>
      <trkpt lat="48.59036" lon="2.09281">
        <ele>104</ele>
        <time>2021-03-07T10:00:12.982Z</time>
      </trkpt>
      <trkpt lat="48.59033" lon="2.09282">
        <ele>104</ele>
        <time>2021-03-07T10:00:13.981Z</time>
      </trkpt>
      <trkpt lat="48.5903" lon="2.09282">
        <ele>105</ele>
        <time>2021-03-07T10:00:14.982Z</time>
      </trkpt>
      <trkpt lat="48.59027" lon="2.09282">
        <ele>105</ele>
        <time>2021-03-07T10:00:15.981Z</time>
      </trkpt>
      <trkpt lat="48.59024" lon="2.09283">
        <ele>105</ele>
        <time>2021-03-07T10:00:16.981Z</time>
      </trkpt>
      <trkpt lat="48.59021" lon="2.09283">
        <ele>105</ele>
        <time>2021-03-07T10:00:17.981Z</time>
      </trkpt>
      <trkpt lat="48.59018" lon="2.09284">
        <ele>105</ele>
        <time>2021-03-07T10:00:18.981Z</time>
      </trkpt>
      <trkpt lat="48.59015" lon="2.09284">
        <ele>105</ele>
        <time>2021-03-07T10:00:19.982Z</time>
      </trkpt>
      <trkpt lat="48.59012" lon="2.09284">
        <ele>105</ele>
        <time>2021-03-07T10:00:20.982Z</time>
      </trkpt>
      <trkpt lat="48.59009" lon="2.09285">
        <ele>105</ele>
        <time>2021-03-07T10:00:21.982Z</time>
      </trkpt>
      <trkpt lat="48.59007" lon="2.09285">
        <ele>104</ele>
        <time>2021-03-07T10:00:22.982Z</time>
      </trkpt>
      <trkpt lat="48.59003" lon="2.09286">
        <ele>104</ele>
        <time>2021-03-07T10:00:23.982Z</time>
      </trkpt>
      <trkpt lat="48.59" lon="2.09286">
        <ele>105</ele>
        <time>2021-03-07T10:00:24.982Z</time>
      </trkpt>
      <trkpt lat="48.58997" lon="2.09287">
        <ele>105</ele>
        <time>2021-03-07T10:00:25.982Z</time>
      </trkpt>
      <trkpt lat="48.58994" lon="2.09288">
        <ele>105</ele>
        <time>2021-03-07T10:00:26.982Z</time>
      </trkpt>
      <trkpt lat="48.58991" lon="2.09288">
        <ele>105</ele>
        <time>2021-03-07T10:00:27.982Z</time>
      </trkpt>
      <trkpt lat="48.58988" lon="2.09289">
        <ele>105</ele>
        <time>2021-03-07T10:00:28.982Z</time>
      </trkpt>
      <trkpt lat="48.58985" lon="2.0929">
        <ele>105</ele>
        <time>2021-03-07T10:00:29.982Z</time>
      </trkpt>
      <trkpt lat="48.58982" lon="2.09291">
        <ele>106</ele>
        <time>2021-03-07T10:00:30.982Z</time>
      </trkpt>
      <trkpt lat="48.58979" lon="2.09292">
        <ele>106</ele>
        <time>2021-03-07T10:00:31.982Z</time>
      </trkpt>
      <trkpt lat="48.58976" lon="2.09293">
        <ele>106</ele>
        <time>2021-03-07T10:00:32.981Z</time>
      </trkpt>
      <trkpt lat="48.58973" lon="2.09294">
        <ele>107</ele>
        <time>2021-03-07T10:00:33.981Z</time>
      </trkpt>
      <trkpt lat="48.5897" lon="2.09295">
        <ele>107</ele>
        <time>2021-03-07T10:00:34.981Z</time>
      </trkpt>
      <trkpt lat="48.58967" lon="2.09296">
        <ele>107</ele>
        <time>2021-03-07T10:00:35.982Z</time>
      </trkpt>
      <trkpt lat="48.58965" lon="2.09297">
        <ele>107</ele>
        <time>2021-03-07T10:00:36.981Z</time>
      </trkpt>
      <trkpt lat="48.58962" lon="2.09298">
        <ele>108</ele>
        <time>2021-03-07T10:00:37.982Z</time>
      </trkpt>
      <trkpt lat="48.5896" lon="2.09299">
        <ele>108</ele>
        <time>2021-03-07T10:00:38.982Z</time>
      </trkpt>
      <trkpt lat="48.58957" lon="2.09301">
        <ele>107</ele>
        <time>2021-03-07T10:00:39.982Z</time>
      </trkpt>
      <trkpt lat="48.58954" lon="2.09302">
        <ele>107</ele>
        <time>2021-03-07T10:00:40.982Z</time>
      </trkpt>
      <trkpt lat="48.58952" lon="2.09303">
        <ele>106</ele>
        <time>2021-03-07T10:00:41.982Z</time>
      </trkpt>
      <trkpt lat="48.58949" lon="2.09304">
        <ele>106</ele>
        <time>2021-03-07T10:00:42.982Z</time>
      </trkpt>
      <trkpt lat="48.58946" lon="2.09306">
        <ele>106</ele>
        <time>2021-03-07T10:00:43.982Z</time>
      </trkpt>
      <trkpt lat="48.58943" lon="2.09307">
        <ele>106</ele>
        <time>2021-03-07T10:00:44.982Z</time>
      </trkpt>
      <trkpt lat="48.58941" lon="2.09308">
        <ele>105</ele>
        <time>2021-03-07T10:00:45.982Z</time>
      </trkpt>
      <trkpt lat="48.58938" lon="2.0931">
        <ele>105</ele>
        <time>2021-03-07T10:00:46.981Z</time>
      </trkpt>
      <trkpt lat="48.58935" lon="2.09311">
        <ele>105</ele>
        <time>2021-03-07T10:00:47.981Z</time>
      </trkpt>
      <trkpt lat="48.58932" lon="2.09313">
        <ele>106</ele>
        <time>2021-03-07T10:00:48.981Z</time>
      </trkpt>
      <trkpt lat="48.58929" lon="2.09314">
        <ele>106</ele>
        <time>2021-03-07T10:00:49.982Z</time>
      </trkpt>
      <trkpt lat="48.58927" lon="2.09315">
        <ele>106</ele>
        <time>2021-03-07T10:00:50.982Z</time>
      </trkpt>
      <trkpt lat="48.58924" lon="2.09317">
        <ele>106</ele>
        <time>2021-03-07T10:00:51.982Z</time>
      </trkpt>
      <trkpt lat="48.58921" lon="2.09319">
        <ele>106</ele>
        <time>2021-03-07T10:00:52.982Z</time>
      </trkpt>
      <trkpt lat="48.58918" lon="2.0932">
        <ele>106</ele>
        <time>2021-03-07T10:00:53.982Z</time>
      </trkpt>
      <trkpt lat="48.58916" lon="2.09322">
        <ele>107</ele>
        <time>2021-03-07T10:00:54.981Z</time>
      </trkpt>
      <trkpt lat="48.58913" lon="2.09323">
        <ele>107</ele>
        <time>2021-03-07T10:00:55.982Z</time>
      </trkpt>
      <trkpt lat="48.5891" lon="2.09324">
        <ele>107</ele>
        <time>2021-03-07T10:00:56.982Z</time>
      </trkpt>
      <trkpt lat="48.58908" lon="2.09326">
        <ele>107</ele>
        <time>2021-03-07T10:00:57.981Z</time>
      </trkpt>
      <trkpt lat="48.58905" lon="2.09327">
        <ele>107</ele>
        <time>2021-03-07T10:00:58.982Z</time>
      </trkpt>
      <trkpt lat="48.58903" lon="2.09328">
        <ele>107</ele>
        <time>2021-03-07T10:00:59.982Z</time>
      </trkpt>
      <trkpt lat="48.58901" lon="2.09329">
        <ele>107</ele>
        <time>2021-03-07T10:01:00.981Z</time>
      </trkpt>
      <trkpt lat="48.58899" lon="2.09329">
        <ele>106</ele>
        <time>2021-03-07T10:01:01.982Z</time>
      </trkpt>
      <trkpt lat="48.58896" lon="2.0933">
        <ele>106</ele>
        <time>2021-03-07T10:01:02.982Z</time>
      </trkpt>
      <trkpt lat="48.58894" lon="2.09331">
        <ele>106</ele>
        <time>2021-03-07T10:01:03.981Z</time>
      </trkpt>
      <trkpt lat="48.58892" lon="2.09332">
        <ele>107</ele>
        <time>2021-03-07T10:01:04.982Z</time>
      </trkpt>
      <trkpt lat="48.58889" lon="2.09332">
        <ele>107</ele>
        <time>2021-03-07T10:01:05.982Z</time>
      </trkpt>
      <trkpt lat="48.58886" lon="2.09333">
        <ele>107</ele>
        <time>2021-03-07T10:01:06.982Z</time>
      </trkpt>
      <trkpt lat="48.58883" lon="2.09334">
        <ele>107</ele>
        <time>2021-03-07T10:01:07.982Z</time>
      </trkpt>
      <trkpt lat="48.5888" lon="2.09335">
        <ele>107</ele>
        <time>2021-03-07T10:01:08.982Z</time>
      </trkpt>
      <trkpt lat="48.58878" lon="2.09336">
        <ele>107</ele>
        <time>2021-03-07T10:01:09.981Z</time>
      </trkpt>
      <trkpt lat="48.58875" lon="2.09337">
        <ele>107</ele>
        <time>2021-03-07T10:01:10.982Z</time>
      </trkpt>
      <trkpt lat="48.58872" lon="2.09339">
        <ele>107</ele>
        <time>2021-03-07T10:01:11.982Z</time>
      </trkpt>
      <trkpt lat="48.58869" lon="2.0934">
        <ele>107</ele>
        <time>2021-03-07T10:01:12.982Z</time>
      </trkpt>
      <trkpt lat="48.58867" lon="2.09341">
        <ele>107</ele>
        <time>2021-03-07T10:01:13.982Z</time>
      </trkpt>
      <trkpt lat="48.58864" lon="2.09342">
        <ele>107</ele>
        <time>2021-03-07T10:01:14.982Z</time>
      </trkpt>
      <trkpt lat="48.58861" lon="2.09343">
        <ele>107</ele>
        <time>2021-03-07T10:01:15.982Z</time>
      </trkpt>
      <trkpt lat="48.58859" lon="2.09344">
        <ele>107</ele>
        <time>2021-03-07T10:01:16.981Z</time>
      </trkpt>
      <trkpt lat="48.58856" lon="2.09345">
        <ele>106</ele>
        <time>2021-03-07T10:01:17.982Z</time>
      </trkpt>
      <trkpt lat="48.58854" lon="2.09347">
        <ele>106</ele>
        <time>2021-03-07T10:01:18.982Z</time>
      </trkpt>
      <trkpt lat="48.58852" lon="2.09348">
        <ele>106</ele>
        <time>2021-03-07T10:01:19.982Z</time>
      </trkpt>
      <trkpt lat="48.5885" lon="2.09349">
        <ele>106</ele>
        <time>2021-03-07T10:01:20.982Z</time>
      </trkpt>
      <trkpt lat="48.58848" lon="2.0935">
        <ele>106</ele>
        <time>2021-03-07T10:01:21.982Z</time>
      </trkpt>
      <trkpt lat="48.58847" lon="2.09351">
        <ele>106</ele>
        <time>2021-03-07T10:01:22.982Z</time>
      </trkpt>
      <trkpt lat="48.58845" lon="2.09351">
        <ele>106</ele>
        <time>2021-03-07T10:01:23.981Z</time>
      </trkpt>
      <trkpt lat="48.58844" lon="2.09352">
        <ele>106</ele>
        <time>2021-03-07T10:01:24.981Z</time>
      </trkpt>
      <trkpt lat="48.58843" lon="2.09353">
        <ele>106</ele>
        <time>2021-03-07T10:01:25.982Z</time>
      </trkpt>
      <trkpt lat="48.58842" lon="2.09354">
        <ele>107</ele>
        <time>2021-03-07T10:01:26.981Z</time>
      </trkpt>
      <trkpt lat="48.58841" lon="2.09355">
        <ele>107</ele>
        <time>2021-03-07T10:01:27.981Z</time>
      </trkpt>
      <trkpt lat="48.58839" lon="2.09356">
        <ele>108</ele>
        <time>2021-03-07T10:01:28.982Z</time>
      </trkpt>
      <trkpt lat="48.58838" lon="2.09356">
        <ele>108</ele>
        <time>2021-03-07T10:01:29.981Z</time>
      </trkpt>
      <trkpt lat="48.58837" lon="2.09357">
        <ele>107</ele>
        <time>2021-03-07T10:01:30.982Z</time>
      </trkpt>
      <trkpt lat="48.58836" lon="2.09357">
        <ele>108</ele>
        <time>2021-03-07T10:01:31.982Z</time>
      </trkpt>
      <trkpt lat="48.58835" lon="2.09358">
        <ele>108</ele>
        <time>2021-03-07T10:01:32.982Z</time>
      </trkpt>
      <trkpt lat="48.58834" lon="2.09358">
        <ele>108</ele>
        <time>2021-03-07T10:01:33.982Z</time>
      </trkpt>
      <trkpt lat="48.58833" lon="2.09358">
        <ele>108</ele>
        <time>2021-03-07T10:01:34.981Z</time>
      </trkpt>
      <trkpt lat="48.58832" lon="2.09359">
        <ele>108</ele>
        <time>2021-03-07T10:01:35.982Z</time>
      </trkpt>
      <trkpt lat="48.58831" lon="2.0936">
        <ele>108</ele>
        <time>2021-03-07T10:01:36.982Z</time>
      </trkpt>
      <trkpt lat="48.5883" lon="2.0936">
        <ele>109</ele>
        <time>2021-03-07T10:01:37.982Z</time>
      </trkpt>
      <trkpt lat="48.58829" lon="2.09361">
        <ele>109</ele>
        <time>2021-03-07T10:01:38.982Z</time>
      </trkpt>
      <trkpt lat="48.58828" lon="2.09361">
        <ele>108</ele>
        <time>2021-03-07T10:01:39.982Z</time>
      </trkpt>
      <trkpt lat="48.58827" lon="2.09362">
        <ele>108</ele>
        <time>2021-03-07T10:01:40.982Z</time>
      </trkpt>
      <trkpt lat="48.58826" lon="2.09363">
        <ele>108</ele>
        <time>2021-03-07T10:01:41.982Z</time>
      </trkpt>
      <trkpt lat="48.58825" lon="2.09364">
        <ele>108</ele>
        <time>2021-03-07T10:01:42.982Z</time>
      </trkpt>
      <trkpt lat="48.58825" lon="2.09364">
        <ele>107</ele>
        <time>2021-03-07T10:01:43.982Z</time>
      </trkpt>
      <trkpt lat="48.58824" lon="2.09364">
        <ele>107</ele>
        <time>2021-03-07T10:01:44.982Z</time>
      </trkpt>
      <trkpt lat="48.58823" lon="2.09365">
        <ele>107</ele>
        <time>2021-03-07T10:01:45.982Z</time>
      </trkpt>
      <trkpt lat="48.58822" lon="2.09365">
        <ele>106</ele>
        <time>2021-03-07T10:01:46.981Z</time>
      </trkpt>
      <trkpt lat="48.5882" lon="2.09366">
        <ele>106</ele>
        <time>2021-03-07T10:01:47.981Z</time>
      </trkpt>
      <trkpt lat="48.58819" lon="2.09366">
        <ele>105</ele>
        <time>2021-03-07T10:01:48.981Z</time>
      </trkpt>
      <trkpt lat="48.58818" lon="2.09366">
        <ele>105</ele>
        <time>2021-03-07T10:01:49.982Z</time>
      </trkpt>
      <trkpt lat="48.58816" lon="2.09367">
        <ele>105</ele>
        <time>2021-03-07T10:01:50.982Z</time>
      </trkpt>
      <trkpt lat="48.58815" lon="2.09368">
        <ele>105</ele>
        <time>2021-03-07T10:01:51.982Z</time>
      </trkpt>
      <trkpt lat="48.58814" lon="2.09368">
        <ele>104</ele>
        <time>2021-03-07T10:01:52.982Z</time>
      </trkpt>
      <trkpt lat="48.58812" lon="2.09369">
        <ele>104</ele>
        <time>2021-03-07T10:01:53.982Z</time>
      </trkpt>
      <trkpt lat="48.58811" lon="2.0937">
        <ele>104</ele>
        <time>2021-03-07T10:01:54.982Z</time>
      </trkpt>
      <trkpt lat="48.58809" lon="2.0937">
        <ele>104</ele>
        <time>2021-03-07T10:01:55.981Z</time>
      </trkpt>
      <trkpt lat="48.58808" lon="2.09372">
        <ele>104</ele>
        <time>2021-03-07T10:01:56.982Z</time>
      </trkpt>
      <trkpt lat="48.58806" lon="2.09372">
        <ele>104</ele>
        <time>2021-03-07T10:01:57.982Z</time>
      </trkpt>
      <trkpt lat="48.58805" lon="2.09373">
        <ele>104</ele>
        <time>2021-03-07T10:01:58.981Z</time>
      </trkpt>
      <trkpt lat="48.58804" lon="2.09374">
        <ele>104</ele>
        <time>2021-03-07T10:01:59.982Z</time>
      </trkpt>
      <trkpt lat="48.58802" lon="2.09375">
        <ele>104</ele>
        <time>2021-03-07T10:02:00.982Z</time>
      </trkpt>
      <trkpt lat="48.58801" lon="2.09376">
        <ele>104</ele>
        <time>2021-03-07T10:02:01.982Z</time>
      </trkpt>
      <trkpt lat="48.588" lon="2.09377">
        <ele>104</ele>
        <time>2021-03-07T10:02:02.982Z</time>
      </trkpt>
      <trkpt lat="48.58798" lon="2.09378">
        <ele>104</ele>
        <time>2021-03-07T10:02:03.982Z</time>
      </trkpt>
      <trkpt lat="48.58797" lon="2.09379">
        <ele>104</ele>
        <time>2021-03-07T10:02:04.982Z</time>
      </trkpt>
      <trkpt lat="48.58796" lon="2.0938">
        <ele>104</ele>
        <time>2021-03-07T10:02:05.982Z</time>
      </trkpt>
      <trkpt lat="48.58794" lon="2.0938">
        <ele>104</ele>
        <time>2021-03-07T10:02:06.981Z</time>
      </trkpt>
      <trkpt lat="48.58793" lon="2.09381">
        <ele>105</ele>
        <time>2021-03-07T10:02:07.982Z</time>
      </trkpt>
      <trkpt lat="48.58792" lon="2.09382">
        <ele>105</ele>
        <time>2021-03-07T10:02:08.982Z</time>
      </trkpt>
      <trkpt lat="48.5879" lon="2.09383">
        <ele>105</ele>
        <time>2021-03-07T10:02:09.982Z</time>
      </trkpt>
      <trkpt lat="48.58789" lon="2.09384">
        <ele>106</ele>
        <time>2021-03-07T10:02:10.982Z</time>
      </trkpt>
      <trkpt lat="48.58788" lon="2.09385">
        <ele>107</ele>
        <time>2021-03-07T10:02:11.982Z</time>
      </trkpt>
      <trkpt lat="48.58786" lon="2.09386">
        <ele>107</ele>
        <time>2021-03-07T10:02:12.981Z</time>
      </trkpt>
      <trkpt lat="48.58785" lon="2.09387">
        <ele>107</ele>
        <time>2021-03-07T10:02:13.982Z</time>
      </trkpt>
      <trkpt lat="48.58784" lon="2.09387">
        <ele>107</ele>
        <time>2021-03-07T10:02:14.982Z</time>
      </trkpt>
      <trkpt lat="48.58782" lon="2.09388">
        <ele>107</ele>
        <time>2021-03-07T10:02:15.982Z</time>
      </trkpt>
      <trkpt lat="48.58781" lon="2.09389">
        <ele>107</ele>
        <time>2021-03-07T10:02:16.982Z</time>
      </trkpt>
      <trkpt lat="48.5878" lon="2.09389">
        <ele>107</ele>
        <time>2021-03-07T10:02:17.981Z</time>
      </trkpt>
      <trkpt lat="48.58778" lon="2.0939">
        <ele>106</ele>
        <time>2021-03-07T10:02:18.981Z</time>
      </trkpt>
      <trkpt lat="48.58777" lon="2.09391">
        <ele>106</ele>
        <time>2021-03-07T10:02:19.982Z</time>
      </trkpt>
      <trkpt lat="48.58776" lon="2.09392">
        <ele>106</ele>
        <time>2021-03-07T10:02:20.982Z</time>
      </trkpt>
      <trkpt lat="48.58774" lon="2.09393">
        <ele>106</ele>
        <time>2021-03-07T10:02:21.981Z</time>
      </trkpt>
      <trkpt lat="48.58773" lon="2.09393">
        <ele>106</ele>
        <time>2021-03-07T10:02:22.981Z</time>
      </trkpt>
      <trkpt lat="48.58772" lon="2.09394">
        <ele>106</ele>
        <time>2021-03-07T10:02:23.982Z</time>
      </trkpt>
      <trkpt lat="48.5877" lon="2.09395">
        <ele>107</ele>
        <time>2021-03-07T10:02:24.981Z</time>
      </trkpt>
      <trkpt lat="48.58769" lon="2.09395">
        <ele>107</ele>
        <time>2021-03-07T10:02:25.982Z</time>
      </trkpt>
      <trkpt lat="48.58768" lon="2.09396">
        <ele>106</ele>
        <time>2021-03-07T10:02:26.982Z</time>
      </trkpt>
      <trkpt lat="48.58767" lon="2.09396">
        <ele>105</ele>
        <time>2021-03-07T10:02:27.982Z</time>
      </trkpt>
      <trkpt lat="48.58766" lon="2.09397">
        <ele>105</ele>
        <time>2021-03-07T10:02:28.982Z</time>
      </trkpt>
      <trkpt lat="48.58765" lon="2.09397">
        <ele>105</ele>
        <time>2021-03-07T10:02:29.982Z</time>
      </trkpt>
      <trkpt lat="48.58764" lon="2.09398">
        <ele>105</ele>
        <time>2021-03-07T10:02:30.982Z</time>
      </trkpt>
      <trkpt lat="48.58762" lon="2.09399">
        <ele>105</ele>
        <time>2021-03-07T10:02:31.982Z</time>
      </trkpt>
      <trkpt lat="48.58761" lon="2.094">
        <ele>105</ele>
        <time>2021-03-07T10:02:32.982Z</time>
      </trkpt>
      <trkpt lat="48.5876" lon="2.09401">
        <ele>105</ele>
        <time>2021-03-07T10:02:33.982Z</time>
      </trkpt>
      <trkpt lat="48.58759" lon="2.09402">
        <ele>105</ele>
        <time>2021-03-07T10:02:34.982Z</time>
      </trkpt>
      <trkpt lat="48.58757" lon="2.09403">
        <ele>105</ele>
        <time>2021-03-07T10:02:35.981Z</time>
      </trkpt>
      <trkpt lat="48.58756" lon="2.09403">
        <ele>105</ele>
        <time>2021-03-07T10:02:36.981Z</time>
      </trkpt>
      <trkpt lat="48.58755" lon="2.09404">
        <ele>106</ele>
        <time>2021-03-07T10:02:37.982Z</time>
      </trkpt>
      <trkpt lat="48.58754" lon="2.09405">
        <ele>106</ele>
        <time>2021-03-07T10:02:38.982Z</time>
      </trkpt>
      <trkpt lat="48.58752" lon="2.09405">
        <ele>106</ele>
        <time>2021-03-07T10:02:39.982Z</time>
      </trkpt>
      <trkpt lat="48.58751" lon="2.09406">
        <ele>107</ele>
        <time>2021-03-07T10:02:40.982Z</time>
      </trkpt>
      <trkpt lat="48.5875" lon="2.09407">
        <ele>107</ele>
        <time>2021-03-07T10:02:41.982Z</time>
      </trkpt>
      <trkpt lat="48.58749" lon="2.09408">
        <ele>107</ele>
        <time>2021-03-07T10:02:42.982Z</time>
      </trkpt>
      <trkpt lat="48.58747" lon="2.09409">
        <ele>107</ele>
        <time>2021-03-07T10:02:43.982Z</time>
      </trkpt>
      <trkpt lat="48.58746" lon="2.0941">
        <ele>107</ele>
        <time>2021-03-07T10:02:44.982Z</time>
      </trkpt>
      <trkpt lat="48.58745" lon="2.0941">
        <ele>107</ele>
        <time>2021-03-07T10:02:45.982Z</time>
      </trkpt>
      <trkpt lat="48.58744" lon="2.09411">
        <ele>107</ele>
        <time>2021-03-07T10:02:46.982Z</time>
      </trkpt>
      <trkpt lat="48.58742" lon="2.09412">
        <ele>106</ele>
        <time>2021-03-07T10:02:47.982Z</time>
      </trkpt>
      <trkpt lat="48.58741" lon="2.09413">
        <ele>106</ele>
        <time>2021-03-07T10:02:48.982Z</time>
      </trkpt>
      <trkpt lat="48.5874" lon="2.09413">
        <ele>105</ele>
        <time>2021-03-07T10:02:49.981Z</time>
      </trkpt>
      <trkpt lat="48.58738" lon="2.09414">
        <ele>105</ele>
        <time>2021-03-07T10:02:50.981Z</time>
      </trkpt>
      <trkpt lat="48.58737" lon="2.09415">
        <ele>105</ele>
        <time>2021-03-07T10:02:51.981Z</time>
      </trkpt>
      <trkpt lat="48.58736" lon="2.09416">
        <ele>105</ele>
        <time>2021-03-07T10:02:52.982Z</time>
      </trkpt>
      <trkpt lat="48.58734" lon="2.09416">
        <ele>105</ele>
        <time>2021-03-07T10:02:53.982Z</time>
      </trkpt>
      <trkpt lat="48.58733" lon="2.09417">
        <ele>105</ele>
        <time>2021-03-07T10:02:54.982Z</time>
      </trkpt>
      <trkpt lat="48.58732" lon="2.09418">
        <ele>105</ele>
        <time>2021-03-07T10:02:55.981Z</time>
      </trkpt>
      <trkpt lat="48.58731" lon="2.09418">
        <ele>105</ele>
        <time>2021-03-07T10:02:56.981Z</time>
      </trkpt>
      <trkpt lat="48.58729" lon="2.09419">
        <ele>105</ele>
        <time>2021-03-07T10:02:57.981Z</time>
      </trkpt>
      <trkpt lat="48.58728" lon="2.09419">
        <ele>105</ele>
        <time>2021-03-07T10:02:58.982Z</time>
      </trkpt>
      <trkpt lat="48.58727" lon="2.0942">
        <ele>105</ele>
        <time>2021-03-07T10:02:59.982Z</time>
      </trkpt>
      <trkpt lat="48.58725" lon="2.0942">
        <ele>104</ele>
        <time>2021-03-07T10:03:00.982Z</time>
      </trkpt>
      <trkpt lat="48.58724" lon="2.09421">
        <ele>104</ele>
        <time>2021-03-07T10:03:01.982Z</time>
      </trkpt>
      <trkpt lat="48.58723" lon="2.09421">
        <ele>104</ele>
        <time>2021-03-07T10:03:02.981Z</time>
      </trkpt>
      <trkpt lat="48.58721" lon="2.09422">
        <ele>104</ele>
        <time>2021-03-07T10:03:03.982Z</time>
      </trkpt>
      <trkpt lat="48.5872" lon="2.09422">
        <ele>105</ele>
        <time>2021-03-07T10:03:04.982Z</time>
      </trkpt>
      <trkpt lat="48.58718" lon="2.09423">
        <ele>105</ele>
        <time>2021-03-07T10:03:05.982Z</time>
      </trkpt>
      <trkpt lat="48.58717" lon="2.09424">
        <ele>105</ele>
        <time>2021-03-07T10:03:06.982Z</time>
      </trkpt>
      <trkpt lat="48.58716" lon="2.09424">
        <ele>105</ele>
        <time>2021-03-07T10:03:07.982Z</time>
      </trkpt>
      <trkpt lat="48.58714" lon="2.09424">
        <ele>104</ele>
        <time>2021-03-07T10:03:08.982Z</time>
      </trkpt>
      <trkpt lat="48.58713" lon="2.09425">
        <ele>104</ele>
        <time>2021-03-07T10:03:09.982Z</time>
      </trkpt>
      <trkpt lat="48.58712" lon="2.09426">
        <ele>103</ele>
        <time>2021-03-07T10:03:10.982Z</time>
      </trkpt>
      <trkpt lat="48.58711" lon="2.09428">
        <ele>103</ele>
        <time>2021-03-07T10:03:11.982Z</time>
      </trkpt>
      <trkpt lat="48.5871" lon="2.09429">
        <ele>104</ele>
        <time>2021-03-07T10:03:12.981Z</time>
      </trkpt>
      <trkpt lat="48.58709" lon="2.0943">
        <ele>104</ele>
        <time>2021-03-07T10:03:13.981Z</time>
      </trkpt>
      <trkpt lat="48.58707" lon="2.09431">
        <ele>104</ele>
        <time>2021-03-07T10:03:14.982Z</time>
      </trkpt>
      <trkpt lat="48.58706" lon="2.09432">
        <ele>104</ele>
        <time>2021-03-07T10:03:15.982Z</time>
      </trkpt>
      <trkpt lat="48.58705" lon="2.09433">
        <ele>105</ele>
        <time>2021-03-07T10:03:16.982Z</time>
      </trkpt>
      <trkpt lat="48.58704" lon="2.09434">
        <ele>105</ele>
        <time>2021-03-07T10:03:17.982Z</time>
      </trkpt>
      <trkpt lat="48.58703" lon="2.09435">
        <ele>105</ele>
        <time>2021-03-07T10:03:18.982Z</time>
      </trkpt>
      <trkpt lat="48.58702" lon="2.09436">
        <ele>105</ele>
        <time>2021-03-07T10:03:19.982Z</time>
      </trkpt>
      <trkpt lat="48.587" lon="2.09436">
        <ele>105</ele>
        <time>2021-03-07T10:03:20.982Z</time>
      </trkpt>
      <trkpt lat="48.58699" lon="2.09437">
        <ele>105</ele>
        <time>2021-03-07T10:03:21.982Z</time>
      </trkpt>
      <trkpt lat="48.58698" lon="2.09438">
        <ele>105</ele>
        <time>2021-03-07T10:03:22.982Z</time>
      </trkpt>
      <trkpt lat="48.58697" lon="2.09438">
        <ele>105</ele>
        <time>2021-03-07T10:03:23.982Z</time>
      </trkpt>
      <trkpt lat="48.58696" lon="2.09439">
        <ele>105</ele>
        <time>2021-03-07T10:03:24.982Z</time>
      </trkpt>
      <trkpt lat="48.58694" lon="2.09439">
        <ele>105</ele>
        <time>2021-03-07T10:03:25.982Z</time>
      </trkpt>
      <trkpt lat="48.58693" lon="2.0944">
        <ele>105</ele>
        <time>2021-03-07T10:03:26.981Z</time>
      </trkpt>
      <trkpt lat="48.58692" lon="2.0944">
        <ele>106</ele>
        <time>2021-03-07T10:03:27.982Z</time>
      </trkpt>
      <trkpt lat="48.58691" lon="2.09441">
        <ele>106</ele>
        <time>2021-03-07T10:03:28.982Z</time>
      </trkpt>
      <trkpt lat="48.58689" lon="2.09441">
        <ele>106</ele>
        <time>2021-03-07T10:03:29.981Z</time>
      </trkpt>
      <trkpt lat="48.58688" lon="2.09441">
        <ele>106</ele>
        <time>2021-03-07T10:03:30.981Z</time>
      </trkpt>
      <trkpt lat="48.58687" lon="2.09441">
        <ele>106</ele>
        <time>2021-03-07T10:03:31.981Z</time>
      </trkpt>
      <trkpt lat="48.58686" lon="2.09441">
        <ele>106</ele>
        <time>2021-03-07T10:03:32.981Z</time>
      </trkpt>
      <trkpt lat="48.58684" lon="2.09441">
        <ele>105</ele>
        <time>2021-03-07T10:03:33.981Z</time>
      </trkpt>
      <trkpt lat="48.58683" lon="2.09442">
        <ele>105</ele>
        <time>2021-03-07T10:03:34.982Z</time>
      </trkpt>
      <trkpt lat="48.58682" lon="2.09442">
        <ele>105</ele>
        <time>2021-03-07T10:03:35.982Z</time>
      </trkpt>
      <trkpt lat="48.5868" lon="2.09442">
        <ele>105</ele>
        <time>2021-03-07T10:03:36.981Z</time>
      </trkpt>
      <trkpt lat="48.58679" lon="2.09442">
        <ele>105</ele>
        <time>2021-03-07T10:03:37.982Z</time>
      </trkpt>
      <trkpt lat="48.58678" lon="2.09442">
        <ele>104</ele>
        <time>2021-03-07T10:03:38.982Z</time>
      </trkpt>
      <trkpt lat="48.58676" lon="2.09442">
        <ele>104</ele>
        <time>2021-03-07T10:03:39.982Z</time>
      </trkpt>
      <trkpt lat="48.58675" lon="2.09441">
        <ele>104</ele>
        <time>2021-03-07T10:03:40.982Z</time>
      </trkpt>
      <trkpt lat="48.58674" lon="2.09441">
        <ele>104</ele>
        <time>2021-03-07T10:03:41.982Z</time>
      </trkpt>
      <trkpt lat="48.58672" lon="2.09441">
        <ele>104</ele>
        <time>2021-03-07T10:03:42.981Z</time>
      </trkpt>
      <trkpt lat="48.58671" lon="2.09441">
        <ele>104</ele>
        <time>2021-03-07T10:03:43.982Z</time>
      </trkpt>
      <trkpt lat="48.5867" lon="2.0944">
        <ele>104</ele>
        <time>2021-03-07T10:03:44.982Z</time>
      </trkpt>
      <trkpt lat="48.58669" lon="2.0944">
        <ele>103</ele>
        <time>2021-03-07T10:03:45.982Z</time>
      </trkpt>
      <trkpt lat="48.58667" lon="2.0944">
        <ele>103</ele>
        <time>2021-03-07T10:03:46.982Z</time>
      </trkpt>
      <trkpt lat="48.58666" lon="2.0944">
        <ele>104</ele>
        <time>2021-03-07T10:03:47.982Z</time>
      </trkpt>
      <trkpt lat="48.58665" lon="2.0944">
        <ele>104</ele>
        <time>2021-03-07T10:03:48.981Z</time>
      </trkpt>
      <trkpt lat="48.58664" lon="2.0944">
        <ele>105</ele>
        <time>2021-03-07T10:03:49.982Z</time>
      </trkpt>
      <trkpt lat="48.58662" lon="2.09439">
        <ele>105</ele>
        <time>2021-03-07T10:03:50.982Z</time>
      </trkpt>
      <trkpt lat="48.58661" lon="2.09439">
        <ele>105</ele>
        <time>2021-03-07T10:03:51.982Z</time>
      </trkpt>
      <trkpt lat="48.5866" lon="2.09439">
        <ele>106</ele>
        <time>2021-03-07T10:03:52.982Z</time>
      </trkpt>
      <trkpt lat="48.58659" lon="2.09439">
        <ele>106</ele>
        <time>2021-03-07T10:03:53.982Z</time>
      </trkpt>
      <trkpt lat="48.58657" lon="2.09439">
        <ele>106</ele>
        <time>2021-03-07T10:03:54.982Z</time>
      </trkpt>
      <trkpt lat="48.58656" lon="2.09439">
        <ele>107</ele>
        <time>2021-03-07T10:03:55.981Z</time>
      </trkpt>
      <trkpt lat="48.58655" lon="2.09439">
        <ele>107</ele>
        <time>2021-03-07T10:03:56.982Z</time>
      </trkpt>
      <trkpt lat="48.58654" lon="2.09439">
        <ele>107</ele>
        <time>2021-03-07T10:03:57.982Z</time>
      </trkpt>
      <trkpt lat="48.58652" lon="2.09439">
        <ele>106</ele>
        <time>2021-03-07T10:03:58.981Z</time>
      </trkpt>
      <trkpt lat="48.58651" lon="2.09439">
        <ele>106</ele>
        <time>2021-03-07T10:03:59.981Z</time>
      </trkpt>
      <trkpt lat="48.5865" lon="2.09439">
        <ele>107</ele>
        <time>2021-03-07T10:04:00.982Z</time>
      </trkpt>
      <trkpt lat="48.58649" lon="2.09439">
        <ele>107</ele>
        <time>2021-03-07T10:04:01.982Z</time>
      </trkpt>
      <trkpt lat="48.58648" lon="2.09439">
        <ele>108</ele>
        <time>2021-03-07T10:04:02.982Z</time>
      </trkpt>
      <trkpt lat="48.58647" lon="2.09439">
        <ele>108</ele>
        <time>2021-03-07T10:04:03.982Z</time>
      </trkpt>
      <trkpt lat="48.58645" lon="2.09438">
        <ele>107</ele>
        <time>2021-03-07T10:04:04.982Z</time>
      </trkpt>
      <trkpt lat="48.58644" lon="2.09438">
        <ele>107</ele>
        <time>2021-03-07T10:04:05.982Z</time>
      </trkpt>
      <trkpt lat="48.58643" lon="2.09437">
        <ele>106</ele>
        <time>2021-03-07T10:04:06.982Z</time>
      </trkpt>
      <trkpt lat="48.58642" lon="2.09436">
        <ele>105</ele>
        <time>2021-03-07T10:04:07.981Z</time>
      </trkpt>
      <trkpt lat="48.58641" lon="2.09436">
        <ele>104</ele>
        <time>2021-03-07T10:04:08.982Z</time>
      </trkpt>
      <trkpt lat="48.5864" lon="2.09436">
        <ele>104</ele>
        <time>2021-03-07T10:04:09.982Z</time>
      </trkpt>
      <trkpt lat="48.58639" lon="2.09436">
        <ele>104</ele>
        <time>2021-03-07T10:04:10.982Z</time>
      </trkpt>
      <trkpt lat="48.58638" lon="2.09435">
        <ele>104</ele>
        <time>2021-03-07T10:04:11.982Z</time>
      </trkpt>
      <trkpt lat="48.58637" lon="2.09435">
        <ele>104</ele>
        <time>2021-03-07T10:04:12.981Z</time>
      </trkpt>
      <trkpt lat="48.58635" lon="2.09435">
        <ele>104</ele>
        <time>2021-03-07T10:04:13.982Z</time>
      </trkpt>
      <trkpt lat="48.58634" lon="2.09435">
        <ele>104</ele>
        <time>2021-03-07T10:04:14.982Z</time>
      </trkpt>
      <trkpt lat="48.58633" lon="2.09434">
        <ele>104</ele>
        <time>2021-03-07T10:04:15.982Z</time>
      </trkpt>
      <trkpt lat="48.58632" lon="2.09434">
        <ele>104</ele>
        <time>2021-03-07T10:04:16.982Z</time>
      </trkpt>
      <trkpt lat="48.5863" lon="2.09434">
        <ele>104</ele>
        <time>2021-03-07T10:04:17.982Z</time>
      </trkpt>
      <trkpt lat="48.58629" lon="2.09433">
        <ele>104</ele>
        <time>2021-03-07T10:04:18.981Z</time>
      </trkpt>
      <trkpt lat="48.58628" lon="2.09433">
        <ele>104</ele>
        <time>2021-03-07T10:04:19.982Z</time>
      </trkpt>
      <trkpt lat="48.58627" lon="2.09432">
        <ele>104</ele>
        <time>2021-03-07T10:04:20.982Z</time>
      </trkpt>
      <trkpt lat="48.58625" lon="2.09432">
        <ele>103</ele>
        <time>2021-03-07T10:04:21.981Z</time>
      </trkpt>
      <trkpt lat="48.58624" lon="2.09431">
        <ele>103</ele>
        <time>2021-03-07T10:04:22.982Z</time>
      </trkpt>
      <trkpt lat="48.58623" lon="2.09431">
        <ele>102</ele>
        <time>2021-03-07T10:04:23.982Z</time>
      </trkpt>
      <trkpt lat="48.58622" lon="2.09431">
        <ele>102</ele>
        <time>2021-03-07T10:04:24.981Z</time>
      </trkpt>
      <trkpt lat="48.5862" lon="2.0943">
        <ele>102</ele>
        <time>2021-03-07T10:04:25.982Z</time>
      </trkpt>
      <trkpt lat="48.58619" lon="2.0943">
        <ele>101</ele>
        <time>2021-03-07T10:04:26.982Z</time>
      </trkpt>
      <trkpt lat="48.58618" lon="2.0943">
        <ele>101</ele>
        <time>2021-03-07T10:04:27.982Z</time>
      </trkpt>
      <trkpt lat="48.58616" lon="2.0943">
        <ele>101</ele>
        <time>2021-03-07T10:04:28.982Z</time>
      </trkpt>
      <trkpt lat="48.58615" lon="2.0943">
        <ele>101</ele>
        <time>2021-03-07T10:04:29.982Z</time>
      </trkpt>
      <trkpt lat="48.58614" lon="2.09429">
        <ele>102</ele>
        <time>2021-03-07T10:04:30.982Z</time>
      </trkpt>
      <trkpt lat="48.58613" lon="2.09429">
        <ele>102</ele>
        <time>2021-03-07T10:04:31.982Z</time>
      </trkpt>
      <trkpt lat="48.58611" lon="2.09428">
        <ele>101</ele>
        <time>2021-03-07T10:04:32.982Z</time>
      </trkpt>
      <trkpt lat="48.5861" lon="2.09428">
        <ele>101</ele>
        <time>2021-03-07T10:04:33.982Z</time>
      </trkpt>
      <trkpt lat="48.58609" lon="2.09427">
        <ele>101</ele>
        <time>2021-03-07T10:04:34.982Z</time>
      </trkpt>
      <trkpt lat="48.58608" lon="2.09427">
        <ele>100</ele>
        <time>2021-03-07T10:04:35.982Z</time>
      </trkpt>
      <trkpt lat="48.58606" lon="2.09427">
        <ele>100</ele>
        <time>2021-03-07T10:04:36.982Z</time>
      </trkpt>
      <trkpt lat="48.58605" lon="2.09426">
        <ele>100</ele>
        <time>2021-03-07T10:04:37.982Z</time>
      </trkpt>
      <trkpt lat="48.58604" lon="2.09426">
        <ele>100</ele>
        <time>2021-03-07T10:04:38.982Z</time>
      </trkpt>
      <trkpt lat="48.58603" lon="2.09426">
        <ele>100</ele>
        <time>2021-03-07T10:04:39.982Z</time>
      </trkpt>
      <trkpt lat="48.58602" lon="2.09426">
        <ele>100</ele>
        <time>2021-03-07T10:04:40.982Z</time>
      </trkpt>
      <trkpt lat="48.586" lon="2.09426">
        <ele>100</ele>
        <time>2021-03-07T10:04:41.982Z</time>
      </trkpt>
      <trkpt lat="48.58599" lon="2.09425">
        <ele>100</ele>
        <time>2021-03-07T10:04:42.982Z</time>
      </trkpt>
      <trkpt lat="48.58598" lon="2.09424">
        <ele>100</ele>
        <time>2021-03-07T10:04:43.981Z</time>
      </trkpt>
      <trkpt lat="48.58597" lon="2.09424">
        <ele>99</ele>
        <time>2021-03-07T10:04:44.981Z</time>
      </trkpt>
      <trkpt lat="48.58596" lon="2.09423">
        <ele>99</ele>
        <time>2021-03-07T10:04:45.981Z</time>
      </trkpt>
      <trkpt lat="48.58594" lon="2.09422">
        <ele>99</ele>
        <time>2021-03-07T10:04:46.982Z</time>
      </trkpt>
      <trkpt lat="48.58593" lon="2.09422">
        <ele>99</ele>
        <time>2021-03-07T10:04:47.982Z</time>
      </trkpt>
      <trkpt lat="48.58592" lon="2.09422">
        <ele>99</ele>
        <time>2021-03-07T10:04:48.981Z</time>
      </trkpt>
      <trkpt lat="48.58591" lon="2.09422">
        <ele>100</ele>
        <time>2021-03-07T10:04:49.982Z</time>
      </trkpt>
      <trkpt lat="48.5859" lon="2.09422">
        <ele>99</ele>
        <time>2021-03-07T10:04:50.982Z</time>
      </trkpt>
      <trkpt lat="48.58588" lon="2.09422">
        <ele>99</ele>
        <time>2021-03-07T10:04:51.981Z</time>
      </trkpt>
      <trkpt lat="48.58587" lon="2.09422">
        <ele>99</ele>
        <time>2021-03-07T10:04:52.982Z</time>
      </trkpt>
      <trkpt lat="48.58586" lon="2.09422">
        <ele>99</ele>
        <time>2021-03-07T10:04:53.981Z</time>
      </trkpt>
      <trkpt lat="48.58584" lon="2.09422">
        <ele>99</ele>
        <time>2021-03-07T10:04:54.982Z</time>
      </trkpt>
      <trkpt lat="48.58583" lon="2.09421">
        <ele>99</ele>
        <time>2021-03-07T10:04:55.982Z</time>
      </trkpt>
      <trkpt lat="48.58582" lon="2.09421">
        <ele>99</ele>
        <time>2021-03-07T10:04:56.982Z</time>
      </trkpt>
      <trkpt lat="48.58581" lon="2.09421">
        <ele>99</ele>
        <time>2021-03-07T10:04:57.981Z</time>
      </trkpt>
      <trkpt lat="48.58579" lon="2.0942">
        <ele>99</ele>
        <time>2021-03-07T10:04:58.982Z</time>
      </trkpt>
      <trkpt lat="48.58578" lon="2.0942">
        <ele>99</ele>
        <time>2021-03-07T10:04:59.982Z</time>
      </trkpt>
      <trkpt lat="48.58577" lon="2.09419">
        <ele>99</ele>
        <time>2021-03-07T10:05:00.982Z</time>
      </trkpt>
      <trkpt lat="48.58576" lon="2.09419">
        <ele>100</ele>
        <time>2021-03-07T10:05:01.982Z</time>
      </trkpt>
      <trkpt lat="48.58575" lon="2.09419">
        <ele>100</ele>
        <time>2021-03-07T10:05:02.982Z</time>
      </trkpt>
      <trkpt lat="48.58573" lon="2.09418">
        <ele>101</ele>
        <time>2021-03-07T10:05:03.982Z</time>
      </trkpt>
      <trkpt lat="48.58572" lon="2.09418">
        <ele>101</ele>
        <time>2021-03-07T10:05:04.982Z</time>
      </trkpt>
      <trkpt lat="48.58571" lon="2.09418">
        <ele>101</ele>
        <time>2021-03-07T10:05:05.982Z</time>
      </trkpt>
      <trkpt lat="48.5857" lon="2.09418">
        <ele>101</ele>
        <time>2021-03-07T10:05:06.982Z</time>
      </trkpt>
      <trkpt lat="48.58568" lon="2.09417">
        <ele>101</ele>
        <time>2021-03-07T10:05:07.982Z</time>
      </trkpt>
      <trkpt lat="48.58567" lon="2.09417">
        <ele>101</ele>
        <time>2021-03-07T10:05:08.981Z</time>
      </trkpt>
      <trkpt lat="48.58566" lon="2.09417">
        <ele>101</ele>
        <time>2021-03-07T10:05:09.982Z</time>
      </trkpt>
      <trkpt lat="48.58565" lon="2.09417">
        <ele>102</ele>
        <time>2021-03-07T10:05:10.982Z</time>
      </trkpt>
      <trkpt lat="48.58564" lon="2.09416">
        <ele>102</ele>
        <time>2021-03-07T10:05:11.982Z</time>
      </trkpt>
      <trkpt lat="48.58563" lon="2.09416">
        <ele>102</ele>
        <time>2021-03-07T10:05:12.981Z</time>
      </trkpt>
      <trkpt lat="48.58561" lon="2.09416">
        <ele>102</ele>
        <time>2021-03-07T10:05:13.981Z</time>
      </trkpt>
      <trkpt lat="48.5856" lon="2.09415">
        <ele>102</ele>
        <time>2021-03-07T10:05:14.982Z</time>
      </trkpt>
      <trkpt lat="48.58559" lon="2.09415">
        <ele>102</ele>
        <time>2021-03-07T10:05:15.982Z</time>
      </trkpt>
      <trkpt lat="48.58557" lon="2.09415">
        <ele>102</ele>
        <time>2021-03-07T10:05:16.982Z</time>
      </trkpt>
      <trkpt lat="48.58556" lon="2.09415">
        <ele>103</ele>
        <time>2021-03-07T10:05:17.982Z</time>
      </trkpt>
      <trkpt lat="48.58555" lon="2.09415">
        <ele>103</ele>
        <time>2021-03-07T10:05:18.981Z</time>
      </trkpt>
      <trkpt lat="48.58554" lon="2.09415">
        <ele>103</ele>
        <time>2021-03-07T10:05:19.982Z</time>
      </trkpt>
      <trkpt lat="48.58553" lon="2.09415">
        <ele>103</ele>
        <time>2021-03-07T10:05:20.982Z</time>
      </trkpt>
      <trkpt lat="48.58551" lon="2.09414">
        <ele>103</ele>
        <time>2021-03-07T10:05:21.982Z</time>
      </trkpt>
      <trkpt lat="48.5855" lon="2.09414">
        <ele>103</ele>
        <time>2021-03-07T10:05:22.981Z</time>
      </trkpt>
      <trkpt lat="48.58549" lon="2.09414">
        <ele>102</ele>
        <time>2021-03-07T10:05:23.982Z</time>
      </trkpt>
      <trkpt lat="48.58548" lon="2.09413">
        <ele>102</ele>
        <time>2021-03-07T10:05:24.982Z</time>
      </trkpt>
      <trkpt lat="48.58547" lon="2.09413">
        <ele>101</ele>
        <time>2021-03-07T10:05:25.982Z</time>
      </trkpt>
      <trkpt lat="48.58545" lon="2.09413">
        <ele>101</ele>
        <time>2021-03-07T10:05:26.981Z</time>
      </trkpt>
      <trkpt lat="48.58544" lon="2.09412">
        <ele>100</ele>
        <time>2021-03-07T10:05:27.981Z</time>
      </trkpt>
      <trkpt lat="48.58543" lon="2.09412">
        <ele>100</ele>
        <time>2021-03-07T10:05:28.982Z</time>
      </trkpt>
      <trkpt lat="48.58542" lon="2.09411">
        <ele>100</ele>
        <time>2021-03-07T10:05:29.982Z</time>
      </trkpt>
      <trkpt lat="48.5854" lon="2.09411">
        <ele>99</ele>
        <time>2021-03-07T10:05:30.982Z</time>
      </trkpt>
      <trkpt lat="48.58539" lon="2.09411">
        <ele>99</ele>
        <time>2021-03-07T10:05:31.982Z</time>
      </trkpt>
      <trkpt lat="48.58538" lon="2.0941">
        <ele>99</ele>
        <time>2021-03-07T10:05:32.982Z</time>
      </trkpt>
      <trkpt lat="48.58536" lon="2.0941">
        <ele>98</ele>
        <time>2021-03-07T10:05:33.981Z</time>
      </trkpt>
      <trkpt lat="48.58535" lon="2.09409">
        <ele>98</ele>
        <time>2021-03-07T10:05:34.982Z</time>
      </trkpt>
      <trkpt lat="48.58534" lon="2.09409">
        <ele>98</ele>
        <time>2021-03-07T10:05:35.982Z</time>
      </trkpt>
      <trkpt lat="48.58533" lon="2.09409">
        <ele>98</ele>
        <time>2021-03-07T10:05:36.982Z</time>
      </trkpt>
      <trkpt lat="48.58532" lon="2.09408">
        <ele>98</ele>
        <time>2021-03-07T10:05:37.981Z</time>
      </trkpt>
      <trkpt lat="48.58531" lon="2.09408">
        <ele>98</ele>
        <time>2021-03-07T10:05:38.982Z</time>
      </trkpt>
      <trkpt lat="48.58529" lon="2.09408">
        <ele>98</ele>
        <time>2021-03-07T10:05:39.982Z</time>
      </trkpt>
      <trkpt lat="48.58528" lon="2.09408">
        <ele>98</ele>
        <time>2021-03-07T10:05:40.982Z</time>
      </trkpt>
      <trkpt lat="48.58527" lon="2.09408">
        <ele>98</ele>
        <time>2021-03-07T10:05:41.982Z</time>
      </trkpt>
      <trkpt lat="48.58525" lon="2.09407">
        <ele>98</ele>
        <time>2021-03-07T10:05:42.982Z</time>
      </trkpt>
      <trkpt lat="48.58524" lon="2.09407">
        <ele>98</ele>
        <time>2021-03-07T10:05:43.982Z</time>
      </trkpt>
      <trkpt lat="48.58523" lon="2.09407">
        <ele>98</ele>
        <time>2021-03-07T10:05:44.982Z</time>
      </trkpt>
      <trkpt lat="48.58521" lon="2.09406">
        <ele>97</ele>
        <time>2021-03-07T10:05:45.982Z</time>
      </trkpt>
      <trkpt lat="48.5852" lon="2.09406">
        <ele>97</ele>
        <time>2021-03-07T10:05:46.982Z</time>
      </trkpt>
      <trkpt lat="48.58519" lon="2.09405">
        <ele>98</ele>
        <time>2021-03-07T10:05:47.982Z</time>
      </trkpt>
      <trkpt lat="48.58518" lon="2.09405">
        <ele>98</ele>
        <time>2021-03-07T10:05:48.982Z</time>
      </trkpt>
      <trkpt lat="48.58516" lon="2.09405">
        <ele>98</ele>
        <time>2021-03-07T10:05:49.982Z</time>
      </trkpt>
      <trkpt lat="48.58515" lon="2.09405">
        <ele>98</ele>
        <time>2021-03-07T10:05:50.982Z</time>
      </trkpt>
      <trkpt lat="48.58514" lon="2.09405">
        <ele>99</ele>
        <time>2021-03-07T10:05:51.982Z</time>
      </trkpt>
      <trkpt lat="48.58513" lon="2.09405">
        <ele>99</ele>
        <time>2021-03-07T10:05:52.982Z</time>
      </trkpt>
      <trkpt lat="48.58512" lon="2.09405">
        <ele>100</ele>
        <time>2021-03-07T10:05:53.982Z</time>
      </trkpt>
      <trkpt lat="48.58511" lon="2.09405">
        <ele>101</ele>
        <time>2021-03-07T10:05:54.981Z</time>
      </trkpt>
      <trkpt lat="48.58509" lon="2.09406">
        <ele>101</ele>
        <time>2021-03-07T10:05:55.981Z</time>
      </trkpt>
      <trkpt lat="48.58508" lon="2.09406">
        <ele>102</ele>
        <time>2021-03-07T10:05:56.982Z</time>
      </trkpt>
      <trkpt lat="48.58507" lon="2.09406">
        <ele>102</ele>
        <time>2021-03-07T10:05:57.981Z</time>
      </trkpt>
      <trkpt lat="48.58506" lon="2.09406">
        <ele>102</ele>
        <time>2021-03-07T10:05:58.981Z</time>
      </trkpt>
      <trkpt lat="48.58505" lon="2.09406">
        <ele>101</ele>
        <time>2021-03-07T10:05:59.981Z</time>
      </trkpt>
      <trkpt lat="48.58503" lon="2.09406">
        <ele>101</ele>
        <time>2021-03-07T10:06:00.982Z</time>
      </trkpt>
      <trkpt lat="48.58502" lon="2.09406">
        <ele>101</ele>
        <time>2021-03-07T10:06:01.982Z</time>
      </trkpt>
      <trkpt lat="48.58501" lon="2.09406">
        <ele>101</ele>
        <time>2021-03-07T10:06:02.981Z</time>
      </trkpt>
      <trkpt lat="48.585" lon="2.09406">
        <ele>101</ele>
        <time>2021-03-07T10:06:03.982Z</time>
      </trkpt>
      <trkpt lat="48.58498" lon="2.09406">
        <ele>100</ele>
        <time>2021-03-07T10:06:04.982Z</time>
      </trkpt>
      <trkpt lat="48.58497" lon="2.09406">
        <ele>100</ele>
        <time>2021-03-07T10:06:05.982Z</time>
      </trkpt>
      <trkpt lat="48.58496" lon="2.09405">
        <ele>100</ele>
        <time>2021-03-07T10:06:06.982Z</time>
      </trkpt>
      <trkpt lat="48.58495" lon="2.09405">
        <ele>100</ele>
        <time>2021-03-07T10:06:07.982Z</time>
      </trkpt>
      <trkpt lat="48.58494" lon="2.09405">
        <ele>100</ele>
        <time>2021-03-07T10:06:08.982Z</time>
      </trkpt>
      <trkpt lat="48.58492" lon="2.09405">
        <ele>100</ele>
        <time>2021-03-07T10:06:09.982Z</time>
      </trkpt>
      <trkpt lat="48.58491" lon="2.09405">
        <ele>99</ele>
        <time>2021-03-07T10:06:10.982Z</time>
      </trkpt>
      <trkpt lat="48.58489" lon="2.09405">
        <ele>99</ele>
        <time>2021-03-07T10:06:11.982Z</time>
      </trkpt>
      <trkpt lat="48.58488" lon="2.09405">
        <ele>99</ele>
        <time>2021-03-07T10:06:12.981Z</time>
      </trkpt>
      <trkpt lat="48.58487" lon="2.09404">
        <ele>99</ele>
        <time>2021-03-07T10:06:13.981Z</time>
      </trkpt>
      <trkpt lat="48.58486" lon="2.09404">
        <ele>98</ele>
        <time>2021-03-07T10:06:14.981Z</time>
      </trkpt>
      <trkpt lat="48.58484" lon="2.09403">
        <ele>98</ele>
        <time>2021-03-07T10:06:15.981Z</time>
      </trkpt>
      <trkpt lat="48.58483" lon="2.09403">
        <ele>98</ele>
        <time>2021-03-07T10:06:16.981Z</time>
      </trkpt>
      <trkpt lat="48.58481" lon="2.09403">
        <ele>97</ele>
        <time>2021-03-07T10:06:17.982Z</time>
      </trkpt>
      <trkpt lat="48.5848" lon="2.09402">
        <ele>97</ele>
        <time>2021-03-07T10:06:18.982Z</time>
      </trkpt>
      <trkpt lat="48.58479" lon="2.09402">
        <ele>96</ele>
        <time>2021-03-07T10:06:19.982Z</time>
      </trkpt>
      <trkpt lat="48.58478" lon="2.09402">
        <ele>96</ele>
        <time>2021-03-07T10:06:20.982Z</time>
      </trkpt>
      <trkpt lat="48.58477" lon="2.09401">
        <ele>96</ele>
        <time>2021-03-07T10:06:21.982Z</time>
      </trkpt>
      <trkpt lat="48.58475" lon="2.09401">
        <ele>96</ele>
        <time>2021-03-07T10:06:22.982Z</time>
      </trkpt>
      <trkpt lat="48.58474" lon="2.094">
        <ele>96</ele>
        <time>2021-03-07T10:06:23.982Z</time>
      </trkpt>
      <trkpt lat="48.58473" lon="2.094">
        <ele>96</ele>
        <time>2021-03-07T10:06:24.982Z</time>
      </trkpt>
      <trkpt lat="48.58472" lon="2.094">
        <ele>96</ele>
        <time>2021-03-07T10:06:25.982Z</time>
      </trkpt>
      <trkpt lat="48.58471" lon="2.094">
        <ele>96</ele>
        <time>2021-03-07T10:06:26.981Z</time>
      </trkpt>
      <trkpt lat="48.58469" lon="2.094">
        <ele>95</ele>
        <time>2021-03-07T10:06:27.982Z</time>
      </trkpt>
      <trkpt lat="48.58468" lon="2.09399">
        <ele>95</ele>
        <time>2021-03-07T10:06:28.981Z</time>
      </trkpt>
      <trkpt lat="48.58467" lon="2.09399">
        <ele>94</ele>
        <time>2021-03-07T10:06:29.982Z</time>
      </trkpt>
      <trkpt lat="48.58466" lon="2.09398">
        <ele>94</ele>
        <time>2021-03-07T10:06:30.982Z</time>
      </trkpt>
      <trkpt lat="48.58465" lon="2.09398">
        <ele>93</ele>
        <time>2021-03-07T10:06:31.981Z</time>
      </trkpt>
      <trkpt lat="48.58464" lon="2.09398">
        <ele>93</ele>
        <time>2021-03-07T10:06:32.982Z</time>
      </trkpt>
      <trkpt lat="48.58463" lon="2.09397">
        <ele>93</ele>
        <time>2021-03-07T10:06:33.982Z</time>
      </trkpt>
      <trkpt lat="48.58462" lon="2.09397">
        <ele>93</ele>
        <time>2021-03-07T10:06:34.982Z</time>
      </trkpt>
      <trkpt lat="48.5846" lon="2.09397">
        <ele>94</ele>
        <time>2021-03-07T10:06:35.982Z</time>
      </trkpt>
      <trkpt lat="48.58459" lon="2.09397">
        <ele>94</ele>
        <time>2021-03-07T10:06:36.982Z</time>
      </trkpt>
      <trkpt lat="48.58458" lon="2.09396">
        <ele>93</ele>
        <time>2021-03-07T10:06:37.982Z</time>
      </trkpt>
      <trkpt lat="48.58457" lon="2.09396">
        <ele>93</ele>
        <time>2021-03-07T10:06:38.982Z</time>
      </trkpt>
      <trkpt lat="48.58456" lon="2.09396">
        <ele>93</ele>
        <time>2021-03-07T10:06:39.982Z</time>
      </trkpt>
      <trkpt lat="48.58455" lon="2.09396">
        <ele>93</ele>
        <time>2021-03-07T10:06:40.982Z</time>
      </trkpt>
      <trkpt lat="48.58453" lon="2.09396">
        <ele>93</ele>
        <time>2021-03-07T10:06:41.982Z</time>
      </trkpt>
      <trkpt lat="48.58452" lon="2.09396">
        <ele>93</ele>
        <time>2021-03-07T10:06:42.982Z</time>
      </trkpt>
      <trkpt lat="48.58451" lon="2.09396">
        <ele>92</ele>
        <time>2021-03-07T10:06:43.982Z</time>
      </trkpt>
      <trkpt lat="48.5845" lon="2.09396">
        <ele>92</ele>
        <time>2021-03-07T10:06:44.982Z</time>
      </trkpt>
      <trkpt lat="48.58449" lon="2.09396">
        <ele>91</ele>
        <time>2021-03-07T10:06:45.982Z</time>
      </trkpt>
      <trkpt lat="48.58447" lon="2.09395">
        <ele>91</ele>
        <time>2021-03-07T10:06:46.982Z</time>
      </trkpt>
      <trkpt lat="48.58447" lon="2.09395">
        <ele>92</ele>
        <time>2021-03-07T10:06:47.982Z</time>
      </trkpt>
      <trkpt lat="48.58446" lon="2.09394">
        <ele>92</ele>
        <time>2021-03-07T10:06:48.981Z</time>
      </trkpt>
      <trkpt lat="48.58444" lon="2.09394">
        <ele>92</ele>
        <time>2021-03-07T10:06:49.982Z</time>
      </trkpt>
      <trkpt lat="48.58443" lon="2.09393">
        <ele>93</ele>
        <time>2021-03-07T10:06:50.982Z</time>
      </trkpt>
      <trkpt lat="48.58442" lon="2.09393">
        <ele>93</ele>
        <time>2021-03-07T10:06:51.982Z</time>
      </trkpt>
      <trkpt lat="48.58441" lon="2.09392">
        <ele>93</ele>
        <time>2021-03-07T10:06:52.981Z</time>
      </trkpt>
      <trkpt lat="48.5844" lon="2.09392">
        <ele>92</ele>
        <time>2021-03-07T10:06:53.982Z</time>
      </trkpt>
      <trkpt lat="48.58439" lon="2.09392">
        <ele>92</ele>
        <time>2021-03-07T10:06:54.981Z</time>
      </trkpt>
      <trkpt lat="48.58438" lon="2.09391">
        <ele>92</ele>
        <time>2021-03-07T10:06:55.982Z</time>
      </trkpt>
      <trkpt lat="48.58436" lon="2.09391">
        <ele>92</ele>
        <time>2021-03-07T10:06:56.982Z</time>
      </trkpt>
      <trkpt lat="48.58435" lon="2.09391">
        <ele>92</ele>
        <time>2021-03-07T10:06:57.981Z</time>
      </trkpt>
      <trkpt lat="48.58434" lon="2.0939">
        <ele>92</ele>
        <time>2021-03-07T10:06:58.982Z</time>
      </trkpt>
      <trkpt lat="48.58434" lon="2.0939">
        <ele>92</ele>
        <time>2021-03-07T10:06:59.981Z</time>
      </trkpt>
      <trkpt lat="48.58432" lon="2.0939">
        <ele>91</ele>
        <time>2021-03-07T10:07:00.982Z</time>
      </trkpt>
      <trkpt lat="48.58431" lon="2.09389">
        <ele>91</ele>
        <time>2021-03-07T10:07:01.982Z</time>
      </trkpt>
      <trkpt lat="48.58431" lon="2.09389">
        <ele>90</ele>
        <time>2021-03-07T10:07:02.982Z</time>
      </trkpt>
      <trkpt lat="48.5843" lon="2.09388">
        <ele>90</ele>
        <time>2021-03-07T10:07:03.982Z</time>
      </trkpt>
      <trkpt lat="48.58428" lon="2.09388">
        <ele>90</ele>
        <time>2021-03-07T10:07:04.981Z</time>
      </trkpt>
      <trkpt lat="48.58427" lon="2.09387">
        <ele>90</ele>
        <time>2021-03-07T10:07:05.982Z</time>
      </trkpt>
      <trkpt lat="48.58426" lon="2.09387">
        <ele>90</ele>
        <time>2021-03-07T10:07:06.981Z</time>
      </trkpt>
      <trkpt lat="48.58425" lon="2.09387">
        <ele>91</ele>
        <time>2021-03-07T10:07:07.982Z</time>
      </trkpt>
      <trkpt lat="48.58424" lon="2.09387">
        <ele>91</ele>
        <time>2021-03-07T10:07:08.982Z</time>
      </trkpt>
      <trkpt lat="48.58423" lon="2.09387">
        <ele>90</ele>
        <time>2021-03-07T10:07:09.981Z</time>
      </trkpt>
      <trkpt lat="48.58423" lon="2.09387">
        <ele>90</ele>
        <time>2021-03-07T10:07:10.982Z</time>
      </trkpt>
      <trkpt lat="48.58422" lon="2.09386">
        <ele>90</ele>
        <time>2021-03-07T10:07:11.982Z</time>
      </trkpt>
      <trkpt lat="48.5842" lon="2.09386">
        <ele>91</ele>
        <time>2021-03-07T10:07:12.981Z</time>
      </trkpt>
      <trkpt lat="48.58419" lon="2.09386">
        <ele>91</ele>
        <time>2021-03-07T10:07:13.982Z</time>
      </trkpt>
      <trkpt lat="48.58418" lon="2.09386">
        <ele>91</ele>
        <time>2021-03-07T10:07:14.982Z</time>
      </trkpt>
      <trkpt lat="48.58416" lon="2.09385">
        <ele>91</ele>
        <time>2021-03-07T10:07:15.981Z</time>
      </trkpt>
      <trkpt lat="48.58415" lon="2.09385">
        <ele>91</ele>
        <time>2021-03-07T10:07:16.981Z</time>
      </trkpt>
      <trkpt lat="48.58414" lon="2.09386">
        <ele>92</ele>
        <time>2021-03-07T10:07:17.982Z</time>
      </trkpt>
      <trkpt lat="48.58413" lon="2.09386">
        <ele>92</ele>
        <time>2021-03-07T10:07:18.981Z</time>
      </trkpt>
      <trkpt lat="48.58413" lon="2.09386">
        <ele>92</ele>
        <time>2021-03-07T10:07:19.981Z</time>
      </trkpt>
      <trkpt lat="48.58412" lon="2.09385">
        <ele>91</ele>
        <time>2021-03-07T10:07:20.982Z</time>
      </trkpt>
      <trkpt lat="48.58411" lon="2.09384">
        <ele>90</ele>
        <time>2021-03-07T10:07:21.982Z</time>
      </trkpt>
      <trkpt lat="48.58408" lon="2.09384">
        <ele>89</ele>
        <time>2021-03-07T10:07:22.982Z</time>
      </trkpt>
      <trkpt lat="48.58407" lon="2.09383">
        <ele>88</ele>
        <time>2021-03-07T10:07:23.982Z</time>
      </trkpt>
      <trkpt lat="48.58406" lon="2.09383">
        <ele>88</ele>
        <time>2021-03-07T10:07:24.982Z</time>
      </trkpt>
      <trkpt lat="48.58404" lon="2.09383">
        <ele>88</ele>
        <time>2021-03-07T10:07:25.982Z</time>
      </trkpt>
      <trkpt lat="48.58403" lon="2.09383">
        <ele>88</ele>
        <time>2021-03-07T10:07:26.982Z</time>
      </trkpt>
      <trkpt lat="48.58401" lon="2.09383">
        <ele>88</ele>
        <time>2021-03-07T10:07:27.981Z</time>
      </trkpt>
      <trkpt lat="48.584" lon="2.09382">
        <ele>88</ele>
        <time>2021-03-07T10:07:28.982Z</time>
      </trkpt>
      <trkpt lat="48.58399" lon="2.09382">
        <ele>88</ele>
        <time>2021-03-07T10:07:29.981Z</time>
      </trkpt>
      <trkpt lat="48.58398" lon="2.09382">
        <ele>88</ele>
        <time>2021-03-07T10:07:30.981Z</time>
      </trkpt>
      <trkpt lat="48.58397" lon="2.09382">
        <ele>87</ele>
        <time>2021-03-07T10:07:31.982Z</time>
      </trkpt>
      <trkpt lat="48.58396" lon="2.09381">
        <ele>87</ele>
        <time>2021-03-07T10:07:32.981Z</time>
      </trkpt>
      <trkpt lat="48.58395" lon="2.09381">
        <ele>87</ele>
        <time>2021-03-07T10:07:33.982Z</time>
      </trkpt>
      <trkpt lat="48.58394" lon="2.09381">
        <ele>87</ele>
        <time>2021-03-07T10:07:34.982Z</time>
      </trkpt>
      <trkpt lat="48.58392" lon="2.09381">
        <ele>87</ele>
        <time>2021-03-07T10:07:35.982Z</time>
      </trkpt>
      <trkpt lat="48.58391" lon="2.09381">
        <ele>87</ele>
        <time>2021-03-07T10:07:36.982Z</time>
      </trkpt>
      <trkpt lat="48.5839" lon="2.0938">
        <ele>87</ele>
        <time>2021-03-07T10:07:37.981Z</time>
      </trkpt>
      <trkpt lat="48.58389" lon="2.09379">
        <ele>87</ele>
        <time>2021-03-07T10:07:38.981Z</time>
      </trkpt>
      <trkpt lat="48.58388" lon="2.09379">
        <ele>87</ele>
        <time>2021-03-07T10:07:39.982Z</time>
      </trkpt>
      <trkpt lat="48.58387" lon="2.09378">
        <ele>86</ele>
        <time>2021-03-07T10:07:40.982Z</time>
      </trkpt>
      <trkpt lat="48.58386" lon="2.09378">
        <ele>86</ele>
        <time>2021-03-07T10:07:41.982Z</time>
      </trkpt>
      <trkpt lat="48.58385" lon="2.09378">
        <ele>86</ele>
        <time>2021-03-07T10:07:42.982Z</time>
      </trkpt>
      <trkpt lat="48.58383" lon="2.09377">
        <ele>86</ele>
        <time>2021-03-07T10:07:43.981Z</time>
      </trkpt>
      <trkpt lat="48.58382" lon="2.09377">
        <ele>86</ele>
        <time>2021-03-07T10:07:44.982Z</time>
      </trkpt>
      <trkpt lat="48.58381" lon="2.09377">
        <ele>86</ele>
        <time>2021-03-07T10:07:45.982Z</time>
      </trkpt>
      <trkpt lat="48.58379" lon="2.09376">
        <ele>86</ele>
        <time>2021-03-07T10:07:46.982Z</time>
      </trkpt>
      <trkpt lat="48.58378" lon="2.09376">
        <ele>86</ele>
        <time>2021-03-07T10:07:47.981Z</time>
      </trkpt>
      <trkpt lat="48.58377" lon="2.09376">
        <ele>85</ele>
        <time>2021-03-07T10:07:48.981Z</time>
      </trkpt>
      <trkpt lat="48.58376" lon="2.09375">
        <ele>85</ele>
        <time>2021-03-07T10:07:49.981Z</time>
      </trkpt>
      <trkpt lat="48.58374" lon="2.09375">
        <ele>85</ele>
        <time>2021-03-07T10:07:50.981Z</time>
      </trkpt>
      <trkpt lat="48.58373" lon="2.09375">
        <ele>85</ele>
        <time>2021-03-07T10:07:51.982Z</time>
      </trkpt>
      <trkpt lat="48.58372" lon="2.09375">
        <ele>85</ele>
        <time>2021-03-07T10:07:52.982Z</time>
      </trkpt>
      <trkpt lat="48.58371" lon="2.09375">
        <ele>84</ele>
        <time>2021-03-07T10:07:53.982Z</time>
      </trkpt>
      <trkpt lat="48.58369" lon="2.09374">
        <ele>84</ele>
        <time>2021-03-07T10:07:54.981Z</time>
      </trkpt>
      <trkpt lat="48.58368" lon="2.09374">
        <ele>83</ele>
        <time>2021-03-07T10:07:55.982Z</time>
      </trkpt>
      <trkpt lat="48.58367" lon="2.09374">
        <ele>83</ele>
        <time>2021-03-07T10:07:56.982Z</time>
      </trkpt>
      <trkpt lat="48.58366" lon="2.09374">
        <ele>83</ele>
        <time>2021-03-07T10:07:57.982Z</time>
      </trkpt>
      <trkpt lat="48.58365" lon="2.09373">
        <ele>83</ele>
        <time>2021-03-07T10:07:58.982Z</time>
      </trkpt>
      <trkpt lat="48.58363" lon="2.09373">
        <ele>83</ele>
        <time>2021-03-07T10:07:59.981Z</time>
      </trkpt>
      <trkpt lat="48.58362" lon="2.09373">
        <ele>83</ele>
        <time>2021-03-07T10:08:00.982Z</time>
      </trkpt>
      <trkpt lat="48.58361" lon="2.09373">
        <ele>83</ele>
        <time>2021-03-07T10:08:01.982Z</time>
      </trkpt>
      <trkpt lat="48.5836" lon="2.09373">
        <ele>82</ele>
        <time>2021-03-07T10:08:02.981Z</time>
      </trkpt>
      <trkpt lat="48.58359" lon="2.09373">
        <ele>82</ele>
        <time>2021-03-07T10:08:03.981Z</time>
      </trkpt>
      <trkpt lat="48.58357" lon="2.09374">
        <ele>82</ele>
        <time>2021-03-07T10:08:04.981Z</time>
      </trkpt>
      <trkpt lat="48.58356" lon="2.09373">
        <ele>82</ele>
        <time>2021-03-07T10:08:05.982Z</time>
      </trkpt>
      <trkpt lat="48.58355" lon="2.09373">
        <ele>81</ele>
        <time>2021-03-07T10:08:06.982Z</time>
      </trkpt>
      <trkpt lat="48.58354" lon="2.09373">
        <ele>81</ele>
        <time>2021-03-07T10:08:07.982Z</time>
      </trkpt>
      <trkpt lat="48.58353" lon="2.09372">
        <ele>81</ele>
        <time>2021-03-07T10:08:08.982Z</time>
      </trkpt>
      <trkpt lat="48.58351" lon="2.09372">
        <ele>80</ele>
        <time>2021-03-07T10:08:09.982Z</time>
      </trkpt>
      <trkpt lat="48.5835" lon="2.09372">
        <ele>80</ele>
        <time>2021-03-07T10:08:10.982Z</time>
      </trkpt>
      <trkpt lat="48.58349" lon="2.09372">
        <ele>81</ele>
        <time>2021-03-07T10:08:11.982Z</time>
      </trkpt>
      <trkpt lat="48.58348" lon="2.09372">
        <ele>81</ele>
        <time>2021-03-07T10:08:12.982Z</time>
      </trkpt>
      <trkpt lat="48.58346" lon="2.09372">
        <ele>81</ele>
        <time>2021-03-07T10:08:13.982Z</time>
      </trkpt>
      <trkpt lat="48.58345" lon="2.09372">
        <ele>82</ele>
        <time>2021-03-07T10:08:14.981Z</time>
      </trkpt>
      <trkpt lat="48.58344" lon="2.09372">
        <ele>82</ele>
        <time>2021-03-07T10:08:15.981Z</time>
      </trkpt>
      <trkpt lat="48.58342" lon="2.09372">
        <ele>82</ele>
        <time>2021-03-07T10:08:16.982Z</time>
      </trkpt>
      <trkpt lat="48.58341" lon="2.09373">
        <ele>82</ele>
        <time>2021-03-07T10:08:17.981Z</time>
      </trkpt>
      <trkpt lat="48.5834" lon="2.09373">
        <ele>82</ele>
        <time>2021-03-07T10:08:18.981Z</time>
      </trkpt>
      <trkpt lat="48.58339" lon="2.09373">
        <ele>82</ele>
        <time>2021-03-07T10:08:19.981Z</time>
      </trkpt>
      <trkpt lat="48.58337" lon="2.09373">
        <ele>82</ele>
        <time>2021-03-07T10:08:20.982Z</time>
      </trkpt>
      <trkpt lat="48.58336" lon="2.09373">
        <ele>82</ele>
        <time>2021-03-07T10:08:21.982Z</time>
      </trkpt>
      <trkpt lat="48.58335" lon="2.09373">
        <ele>82</ele>
        <time>2021-03-07T10:08:22.982Z</time>
      </trkpt>
      <trkpt lat="48.58334" lon="2.09373">
        <ele>82</ele>
        <time>2021-03-07T10:08:23.982Z</time>
      </trkpt>
      <trkpt lat="48.58332" lon="2.09373">
        <ele>81</ele>
        <time>2021-03-07T10:08:24.982Z</time>
      </trkpt>
      <trkpt lat="48.58331" lon="2.09373">
        <ele>81</ele>
        <time>2021-03-07T10:08:25.982Z</time>
      </trkpt>
      <trkpt lat="48.5833" lon="2.09373">
        <ele>81</ele>
        <time>2021-03-07T10:08:26.982Z</time>
      </trkpt>
      <trkpt lat="48.58328" lon="2.09373">
        <ele>81</ele>
        <time>2021-03-07T10:08:27.982Z</time>
      </trkpt>
      <trkpt lat="48.58327" lon="2.09374">
        <ele>81</ele>
        <time>2021-03-07T10:08:28.981Z</time>
      </trkpt>
      <trkpt lat="48.58325" lon="2.09374">
        <ele>81</ele>
        <time>2021-03-07T10:08:29.982Z</time>
      </trkpt>
      <trkpt lat="48.58324" lon="2.09374">
        <ele>82</ele>
        <time>2021-03-07T10:08:30.982Z</time>
      </trkpt>
      <trkpt lat="48.58323" lon="2.09374">
        <ele>82</ele>
        <time>2021-03-07T10:08:31.982Z</time>
      </trkpt>
      <trkpt lat="48.58321" lon="2.09374">
        <ele>82</ele>
        <time>2021-03-07T10:08:32.982Z</time>
      </trkpt>
      <trkpt lat="48.5832" lon="2.09374">
        <ele>82</ele>
        <time>2021-03-07T10:08:33.981Z</time>
      </trkpt>
      <trkpt lat="48.58319" lon="2.09374">
        <ele>82</ele>
        <time>2021-03-07T10:08:34.982Z</time>
      </trkpt>
      <trkpt lat="48.58318" lon="2.09374">
        <ele>82</ele>
        <time>2021-03-07T10:08:35.981Z</time>
      </trkpt>
      <trkpt lat="48.58317" lon="2.09374">
        <ele>82</ele>
        <time>2021-03-07T10:08:36.982Z</time>
      </trkpt>
      <trkpt lat="48.58316" lon="2.09374">
        <ele>82</ele>
        <time>2021-03-07T10:08:37.981Z</time>
      </trkpt>
      <trkpt lat="48.58314" lon="2.09374">
        <ele>81</ele>
        <time>2021-03-07T10:08:38.981Z</time>
      </trkpt>
      <trkpt lat="48.58313" lon="2.09374">
        <ele>81</ele>
        <time>2021-03-07T10:08:39.982Z</time>
      </trkpt>
      <trkpt lat="48.58312" lon="2.09373">
        <ele>80</ele>
        <time>2021-03-07T10:08:40.982Z</time>
      </trkpt>
      <trkpt lat="48.58311" lon="2.09373">
        <ele>80</ele>
        <time>2021-03-07T10:08:41.981Z</time>
      </trkpt>
      <trkpt lat="48.58309" lon="2.09373">
        <ele>80</ele>
        <time>2021-03-07T10:08:42.981Z</time>
      </trkpt>
      <trkpt lat="48.58308" lon="2.09372">
        <ele>80</ele>
        <time>2021-03-07T10:08:43.982Z</time>
      </trkpt>
      <trkpt lat="48.58307" lon="2.09372">
        <ele>79</ele>
        <time>2021-03-07T10:08:44.981Z</time>
      </trkpt>
      <trkpt lat="48.58305" lon="2.09372">
        <ele>79</ele>
        <time>2021-03-07T10:08:45.981Z</time>
      </trkpt>
      <trkpt lat="48.58304" lon="2.09372">
        <ele>79</ele>
        <time>2021-03-07T10:08:46.981Z</time>
      </trkpt>
      <trkpt lat="48.58303" lon="2.09372">
        <ele>79</ele>
        <time>2021-03-07T10:08:47.981Z</time>
      </trkpt>
      <trkpt lat="48.58302" lon="2.09372">
        <ele>79</ele>
        <time>2021-03-07T10:08:48.982Z</time>
      </trkpt>
      <trkpt lat="48.583" lon="2.09372">
        <ele>79</ele>
        <time>2021-03-07T10:08:49.982Z</time>
      </trkpt>
      <trkpt lat="48.58299" lon="2.09372">
        <ele>79</ele>
        <time>2021-03-07T10:08:50.981Z</time>
      </trkpt>
      <trkpt lat="48.58298" lon="2.09372">
        <ele>79</ele>
        <time>2021-03-07T10:08:51.982Z</time>
      </trkpt>
      <trkpt lat="48.58297" lon="2.09373">
        <ele>79</ele>
        <time>2021-03-07T10:08:52.981Z</time>
      </trkpt>
      <trkpt lat="48.58295" lon="2.09372">
        <ele>79</ele>
        <time>2021-03-07T10:08:53.982Z</time>
      </trkpt>
      <trkpt lat="48.58294" lon="2.09373">
        <ele>79</ele>
        <time>2021-03-07T10:08:54.982Z</time>
      </trkpt>
      <trkpt lat="48.58293" lon="2.09372">
        <ele>79</ele>
        <time>2021-03-07T10:08:55.982Z</time>
      </trkpt>
      <trkpt lat="48.58291" lon="2.09372">
        <ele>79</ele>
        <time>2021-03-07T10:08:56.982Z</time>
      </trkpt>
      <trkpt lat="48.5829" lon="2.09372">
        <ele>79</ele>
        <time>2021-03-07T10:08:57.982Z</time>
      </trkpt>
      <trkpt lat="48.58289" lon="2.09372">
        <ele>79</ele>
        <time>2021-03-07T10:08:58.981Z</time>
      </trkpt>
      <trkpt lat="48.58287" lon="2.09372">
        <ele>78</ele>
        <time>2021-03-07T10:08:59.982Z</time>
      </trkpt>
      <trkpt lat="48.58286" lon="2.09373">
        <ele>78</ele>
        <time>2021-03-07T10:09:00.981Z</time>
      </trkpt>
      <trkpt lat="48.58284" lon="2.09373">
        <ele>78</ele>
        <time>2021-03-07T10:09:01.981Z</time>
      </trkpt>
      <trkpt lat="48.58283" lon="2.09373">
        <ele>79</ele>
        <time>2021-03-07T10:09:02.982Z</time>
      </trkpt>
      <trkpt lat="48.58282" lon="2.09373">
        <ele>78</ele>
        <time>2021-03-07T10:09:03.982Z</time>
      </trkpt>
      <trkpt lat="48.5828" lon="2.09373">
        <ele>78</ele>
        <time>2021-03-07T10:09:04.982Z</time>
      </trkpt>
      <trkpt lat="48.58279" lon="2.09374">
        <ele>78</ele>
        <time>2021-03-07T10:09:05.981Z</time>
      </trkpt>
      <trkpt lat="48.58278" lon="2.09374">
        <ele>78</ele>
        <time>2021-03-07T10:09:06.982Z</time>
      </trkpt>
      <trkpt lat="48.58276" lon="2.09374">
        <ele>78</ele>
        <time>2021-03-07T10:09:07.982Z</time>
      </trkpt>
      <trkpt lat="48.58275" lon="2.09374">
        <ele>78</ele>
        <time>2021-03-07T10:09:08.982Z</time>
      </trkpt>
      <trkpt lat="48.58274" lon="2.09374">
        <ele>78</ele>
        <time>2021-03-07T10:09:09.982Z</time>
      </trkpt>
      <trkpt lat="48.58272" lon="2.09374">
        <ele>78</ele>
        <time>2021-03-07T10:09:10.982Z</time>
      </trkpt>
      <trkpt lat="48.58271" lon="2.09374">
        <ele>77</ele>
        <time>2021-03-07T10:09:11.982Z</time>
      </trkpt>
      <trkpt lat="48.5827" lon="2.09374">
        <ele>77</ele>
        <time>2021-03-07T10:09:12.982Z</time>
      </trkpt>
      <trkpt lat="48.58269" lon="2.09374">
        <ele>77</ele>
        <time>2021-03-07T10:09:13.982Z</time>
      </trkpt>
      <trkpt lat="48.58267" lon="2.09374">
        <ele>77</ele>
        <time>2021-03-07T10:09:14.982Z</time>
      </trkpt>
      <trkpt lat="48.58266" lon="2.09374">
        <ele>77</ele>
        <time>2021-03-07T10:09:15.982Z</time>
      </trkpt>
      <trkpt lat="48.58264" lon="2.09374">
        <ele>77</ele>
        <time>2021-03-07T10:09:16.982Z</time>
      </trkpt>
      <trkpt lat="48.58263" lon="2.09375">
        <ele>77</ele>
        <time>2021-03-07T10:09:17.982Z</time>
      </trkpt>
      <trkpt lat="48.58262" lon="2.09375">
        <ele>77</ele>
        <time>2021-03-07T10:09:18.982Z</time>
      </trkpt>
      <trkpt lat="48.58261" lon="2.09376">
        <ele>77</ele>
        <time>2021-03-07T10:09:19.982Z</time>
      </trkpt>
      <trkpt lat="48.58259" lon="2.09376">
        <ele>77</ele>
        <time>2021-03-07T10:09:20.982Z</time>
      </trkpt>
      <trkpt lat="48.58258" lon="2.09376">
        <ele>77</ele>
        <time>2021-03-07T10:09:21.982Z</time>
      </trkpt>
      <trkpt lat="48.58257" lon="2.09376">
        <ele>77</ele>
        <time>2021-03-07T10:09:22.981Z</time>
      </trkpt>
      <trkpt lat="48.58255" lon="2.09376">
        <ele>76</ele>
        <time>2021-03-07T10:09:23.982Z</time>
      </trkpt>
      <trkpt lat="48.58254" lon="2.09377">
        <ele>76</ele>
        <time>2021-03-07T10:09:24.981Z</time>
      </trkpt>
      <trkpt lat="48.58253" lon="2.09377">
        <ele>76</ele>
        <time>2021-03-07T10:09:25.981Z</time>
      </trkpt>
      <trkpt lat="48.58252" lon="2.09377">
        <ele>76</ele>
        <time>2021-03-07T10:09:26.982Z</time>
      </trkpt>
      <trkpt lat="48.58251" lon="2.09377">
        <ele>76</ele>
        <time>2021-03-07T10:09:27.981Z</time>
      </trkpt>
      <trkpt lat="48.5825" lon="2.09378">
        <ele>76</ele>
        <time>2021-03-07T10:09:28.982Z</time>
      </trkpt>
      <trkpt lat="48.58248" lon="2.09378">
        <ele>76</ele>
        <time>2021-03-07T10:09:29.981Z</time>
      </trkpt>
      <trkpt lat="48.58247" lon="2.09378">
        <ele>75</ele>
        <time>2021-03-07T10:09:30.981Z</time>
      </trkpt>
      <trkpt lat="48.58246" lon="2.09377">
        <ele>75</ele>
        <time>2021-03-07T10:09:31.982Z</time>
      </trkpt>
      <trkpt lat="48.58245" lon="2.09378">
        <ele>75</ele>
        <time>2021-03-07T10:09:32.981Z</time>
      </trkpt>
      <trkpt lat="48.58244" lon="2.09378">
        <ele>75</ele>
        <time>2021-03-07T10:09:33.982Z</time>
      </trkpt>
      <trkpt lat="48.58243" lon="2.09378">
        <ele>74</ele>
        <time>2021-03-07T10:09:34.981Z</time>
      </trkpt>
      <trkpt lat="48.58242" lon="2.09378">
        <ele>74</ele>
        <time>2021-03-07T10:09:35.982Z</time>
      </trkpt>
      <trkpt lat="48.58242" lon="2.09378">
        <ele>74</ele>
        <time>2021-03-07T10:09:36.982Z</time>
      </trkpt>
      <trkpt lat="48.58241" lon="2.09378">
        <ele>74</ele>
        <time>2021-03-07T10:09:37.981Z</time>
      </trkpt>
      <trkpt lat="48.58241" lon="2.09378">
        <ele>74</ele>
        <time>2021-03-07T10:09:38.982Z</time>
      </trkpt>
      <trkpt lat="48.5824" lon="2.09378">
        <ele>74</ele>
        <time>2021-03-07T10:09:39.981Z</time>
      </trkpt>
      <trkpt lat="48.58239" lon="2.09378">
        <ele>74</ele>
        <time>2021-03-07T10:09:40.982Z</time>
      </trkpt>
      <trkpt lat="48.58238" lon="2.09378">
        <ele>74</ele>
        <time>2021-03-07T10:09:41.981Z</time>
      </trkpt>
      <trkpt lat="48.58236" lon="2.09378">
        <ele>74</ele>
        <time>2021-03-07T10:09:42.982Z</time>
      </trkpt>
      <trkpt lat="48.58235" lon="2.09379">
        <ele>74</ele>
        <time>2021-03-07T10:09:43.981Z</time>
      </trkpt>
      <trkpt lat="48.58234" lon="2.09379">
        <ele>74</ele>
        <time>2021-03-07T10:09:44.981Z</time>
      </trkpt>
      <trkpt lat="48.58232" lon="2.09379">
        <ele>75</ele>
        <time>2021-03-07T10:09:45.981Z</time>
      </trkpt>
      <trkpt lat="48.58231" lon="2.09379">
        <ele>75</ele>
        <time>2021-03-07T10:09:46.982Z</time>
      </trkpt>
      <trkpt lat="48.5823" lon="2.0938">
        <ele>76</ele>
        <time>2021-03-07T10:09:47.981Z</time>
      </trkpt>
      <trkpt lat="48.58228" lon="2.0938">
        <ele>76</ele>
        <time>2021-03-07T10:09:48.982Z</time>
      </trkpt>
      <trkpt lat="48.58227" lon="2.09381">
        <ele>76</ele>
        <time>2021-03-07T10:09:49.981Z</time>
      </trkpt>
      <trkpt lat="48.58226" lon="2.09381">
        <ele>76</ele>
        <time>2021-03-07T10:09:50.982Z</time>
      </trkpt>
      <trkpt lat="48.58225" lon="2.09381">
        <ele>76</ele>
        <time>2021-03-07T10:09:51.981Z</time>
      </trkpt>
      <trkpt lat="48.58223" lon="2.09382">
        <ele>76</ele>
        <time>2021-03-07T10:09:52.982Z</time>
      </trkpt>
      <trkpt lat="48.58222" lon="2.09381">
        <ele>76</ele>
        <time>2021-03-07T10:09:53.981Z</time>
      </trkpt>
      <trkpt lat="48.5822" lon="2.09381">
        <ele>76</ele>
        <time>2021-03-07T10:09:54.982Z</time>
      </trkpt>
      <trkpt lat="48.58219" lon="2.09381">
        <ele>76</ele>
        <time>2021-03-07T10:09:55.981Z</time>
      </trkpt>
      <trkpt lat="48.58218" lon="2.09382">
        <ele>76</ele>
        <time>2021-03-07T10:09:56.982Z</time>
      </trkpt>
      <trkpt lat="48.58217" lon="2.09382">
        <ele>76</ele>
        <time>2021-03-07T10:09:57.981Z</time>
      </trkpt>
      <trkpt lat="48.58215" lon="2.09382">
        <ele>76</ele>
        <time>2021-03-07T10:09:58.982Z</time>
      </trkpt>
      <trkpt lat="48.58214" lon="2.09382">
        <ele>76</ele>
        <time>2021-03-07T10:09:59.981Z</time>
      </trkpt>
      <trkpt lat="48.58213" lon="2.09382">
        <ele>76</ele>
        <time>2021-03-07T10:10:00.981Z</time>
      </trkpt>
      <trkpt lat="48.58212" lon="2.09383">
        <ele>76</ele>
        <time>2021-03-07T10:10:01.982Z</time>
      </trkpt>
      <trkpt lat="48.58211" lon="2.09383">
        <ele>76</ele>
        <time>2021-03-07T10:10:02.981Z</time>
      </trkpt>
      <trkpt lat="48.5821" lon="2.09383">
        <ele>76</ele>
        <time>2021-03-07T10:10:03.982Z</time>
      </trkpt>
      <trkpt lat="48.58209" lon="2.09384">
        <ele>76</ele>
        <time>2021-03-07T10:10:04.982Z</time>
      </trkpt>
      <trkpt lat="48.58208" lon="2.09384">
        <ele>76</ele>
        <time>2021-03-07T10:10:05.981Z</time>
      </trkpt>
      <trkpt lat="48.58206" lon="2.09384">
        <ele>76</ele>
        <time>2021-03-07T10:10:06.982Z</time>
      </trkpt>
      <trkpt lat="48.58205" lon="2.09384">
        <ele>76</ele>
        <time>2021-03-07T10:10:07.982Z</time>
      </trkpt>
      <trkpt lat="48.58203" lon="2.09384">
        <ele>77</ele>
        <time>2021-03-07T10:10:08.982Z</time>
      </trkpt>
      <trkpt lat="48.58202" lon="2.09384">
        <ele>77</ele>
        <time>2021-03-07T10:10:09.982Z</time>
      </trkpt>
      <trkpt lat="48.58202" lon="2.09384">
        <ele>77</ele>
        <time>2021-03-07T10:10:10.982Z</time>
      </trkpt>
      <trkpt lat="48.58201" lon="2.09384">
        <ele>77</ele>
        <time>2021-03-07T10:10:11.982Z</time>
      </trkpt>
      <trkpt lat="48.58199" lon="2.09384">
        <ele>78</ele>
        <time>2021-03-07T10:10:12.982Z</time>
      </trkpt>
      <trkpt lat="48.58198" lon="2.09384">
        <ele>78</ele>
        <time>2021-03-07T10:10:13.982Z</time>
      </trkpt>
      <trkpt lat="48.58197" lon="2.09384">
        <ele>78</ele>
        <time>2021-03-07T10:10:14.982Z</time>
      </trkpt>
      <trkpt lat="48.58196" lon="2.09384">
        <ele>79</ele>
        <time>2021-03-07T10:10:15.982Z</time>
      </trkpt>
      <trkpt lat="48.58195" lon="2.09384">
        <ele>79</ele>
        <time>2021-03-07T10:10:16.982Z</time>
      </trkpt>
      <trkpt lat="48.58194" lon="2.09384">
        <ele>79</ele>
        <time>2021-03-07T10:10:17.982Z</time>
      </trkpt>
      <trkpt lat="48.58193" lon="2.09384">
        <ele>79</ele>
        <time>2021-03-07T10:10:18.982Z</time>
      </trkpt>
      <trkpt lat="48.58192" lon="2.09384">
        <ele>80</ele>
        <time>2021-03-07T10:10:19.981Z</time>
      </trkpt>
      <trkpt lat="48.58191" lon="2.09385">
        <ele>80</ele>
        <time>2021-03-07T10:10:20.982Z</time>
      </trkpt>
      <trkpt lat="48.58189" lon="2.09385">
        <ele>80</ele>
        <time>2021-03-07T10:10:21.982Z</time>
      </trkpt>
      <trkpt lat="48.58188" lon="2.09386">
        <ele>80</ele>
        <time>2021-03-07T10:10:22.981Z</time>
      </trkpt>
      <trkpt lat="48.58186" lon="2.09386">
        <ele>80</ele>
        <time>2021-03-07T10:10:23.981Z</time>
      </trkpt>
      <trkpt lat="48.58185" lon="2.09387">
        <ele>80</ele>
        <time>2021-03-07T10:10:24.982Z</time>
      </trkpt>
      <trkpt lat="48.58184" lon="2.09387">
        <ele>80</ele>
        <time>2021-03-07T10:10:25.982Z</time>
      </trkpt>
      <trkpt lat="48.58182" lon="2.09387">
        <ele>80</ele>
        <time>2021-03-07T10:10:26.982Z</time>
      </trkpt>
      <trkpt lat="48.58181" lon="2.09387">
        <ele>80</ele>
        <time>2021-03-07T10:10:27.982Z</time>
      </trkpt>
      <trkpt lat="48.5818" lon="2.09386">
        <ele>80</ele>
        <time>2021-03-07T10:10:28.981Z</time>
      </trkpt>
      <trkpt lat="48.58179" lon="2.09386">
        <ele>80</ele>
        <time>2021-03-07T10:10:29.981Z</time>
      </trkpt>
      <trkpt lat="48.58177" lon="2.09386">
        <ele>81</ele>
        <time>2021-03-07T10:10:30.981Z</time>
      </trkpt>
      <trkpt lat="48.58175" lon="2.09386">
        <ele>81</ele>
        <time>2021-03-07T10:10:31.982Z</time>
      </trkpt>
      <trkpt lat="48.58174" lon="2.09386">
        <ele>82</ele>
        <time>2021-03-07T10:10:32.982Z</time>
      </trkpt>
      <trkpt lat="48.58173" lon="2.09386">
        <ele>82</ele>
        <time>2021-03-07T10:10:33.982Z</time>
      </trkpt>
      <trkpt lat="48.58171" lon="2.09385">
        <ele>83</ele>
        <time>2021-03-07T10:10:34.981Z</time>
      </trkpt>
      <trkpt lat="48.58169" lon="2.09385">
        <ele>83</ele>
        <time>2021-03-07T10:10:35.981Z</time>
      </trkpt>
      <trkpt lat="48.58168" lon="2.09384">
        <ele>83</ele>
        <time>2021-03-07T10:10:36.982Z</time>
      </trkpt>
      <trkpt lat="48.58166" lon="2.09384">
        <ele>83</ele>
        <time>2021-03-07T10:10:37.982Z</time>
      </trkpt>
      <trkpt lat="48.58165" lon="2.09384">
        <ele>82</ele>
        <time>2021-03-07T10:10:38.981Z</time>
      </trkpt>
      <trkpt lat="48.58164" lon="2.09384">
        <ele>81</ele>
        <time>2021-03-07T10:10:39.981Z</time>
      </trkpt>
      <trkpt lat="48.58162" lon="2.09383">
        <ele>81</ele>
        <time>2021-03-07T10:10:40.981Z</time>
      </trkpt>
      <trkpt lat="48.58161" lon="2.09383">
        <ele>80</ele>
        <time>2021-03-07T10:10:41.981Z</time>
      </trkpt>
      <trkpt lat="48.5816" lon="2.09383">
        <ele>79</ele>
        <time>2021-03-07T10:10:42.982Z</time>
      </trkpt>
      <trkpt lat="48.58159" lon="2.09383">
        <ele>79</ele>
        <time>2021-03-07T10:10:43.981Z</time>
      </trkpt>
      <trkpt lat="48.58158" lon="2.09383">
        <ele>78</ele>
        <time>2021-03-07T10:10:44.981Z</time>
      </trkpt>
      <trkpt lat="48.58156" lon="2.09383">
        <ele>78</ele>
        <time>2021-03-07T10:10:45.982Z</time>
      </trkpt>
      <trkpt lat="48.58155" lon="2.09383">
        <ele>76</ele>
        <time>2021-03-07T10:10:46.982Z</time>
      </trkpt>
      <trkpt lat="48.58154" lon="2.09383">
        <ele>75</ele>
        <time>2021-03-07T10:10:47.982Z</time>
      </trkpt>
      <trkpt lat="48.58152" lon="2.09382">
        <ele>74</ele>
        <time>2021-03-07T10:10:48.982Z</time>
      </trkpt>
      <trkpt lat="48.58151" lon="2.09382">
        <ele>74</ele>
        <time>2021-03-07T10:10:49.982Z</time>
      </trkpt>
      <trkpt lat="48.5815" lon="2.09381">
        <ele>73</ele>
        <time>2021-03-07T10:10:50.982Z</time>
      </trkpt>
      <trkpt lat="48.58149" lon="2.09381">
        <ele>72</ele>
        <time>2021-03-07T10:10:51.982Z</time>
      </trkpt>
      <trkpt lat="48.58148" lon="2.0938">
        <ele>72</ele>
        <time>2021-03-07T10:10:52.982Z</time>
      </trkpt>
      <trkpt lat="48.58147" lon="2.0938">
        <ele>72</ele>
        <time>2021-03-07T10:10:53.982Z</time>
      </trkpt>
      <trkpt lat="48.58145" lon="2.0938">
        <ele>72</ele>
        <time>2021-03-07T10:10:54.982Z</time>
      </trkpt>
      <trkpt lat="48.58144" lon="2.0938">
        <ele>72</ele>
        <time>2021-03-07T10:10:55.982Z</time>
      </trkpt>
      <trkpt lat="48.58143" lon="2.0938">
        <ele>73</ele>
        <time>2021-03-07T10:10:56.982Z</time>
      </trkpt>
      <trkpt lat="48.58142" lon="2.09379">
        <ele>73</ele>
        <time>2021-03-07T10:10:57.981Z</time>
      </trkpt>
      <trkpt lat="48.5814" lon="2.09379">
        <ele>73</ele>
        <time>2021-03-07T10:10:58.982Z</time>
      </trkpt>
      <trkpt lat="48.58139" lon="2.09379">
        <ele>73</ele>
        <time>2021-03-07T10:10:59.982Z</time>
      </trkpt>
      <trkpt lat="48.58137" lon="2.09379">
        <ele>72</ele>
        <time>2021-03-07T10:11:00.982Z</time>
      </trkpt>
      <trkpt lat="48.58136" lon="2.09379">
        <ele>72</ele>
        <time>2021-03-07T10:11:01.981Z</time>
      </trkpt>
      <trkpt lat="48.58135" lon="2.09378">
        <ele>72</ele>
        <time>2021-03-07T10:11:02.982Z</time>
      </trkpt>
      <trkpt lat="48.58133" lon="2.09378">
        <ele>72</ele>
        <time>2021-03-07T10:11:03.982Z</time>
      </trkpt>
      <trkpt lat="48.58132" lon="2.09378">
        <ele>72</ele>
        <time>2021-03-07T10:11:04.982Z</time>
      </trkpt>
      <trkpt lat="48.58131" lon="2.09377">
        <ele>73</ele>
        <time>2021-03-07T10:11:05.982Z</time>
      </trkpt>
      <trkpt lat="48.5813" lon="2.09377">
        <ele>73</ele>
        <time>2021-03-07T10:11:06.981Z</time>
      </trkpt>
      <trkpt lat="48.58129" lon="2.09377">
        <ele>73</ele>
        <time>2021-03-07T10:11:07.982Z</time>
      </trkpt>
      <trkpt lat="48.58128" lon="2.09377">
        <ele>74</ele>
        <time>2021-03-07T10:11:08.982Z</time>
      </trkpt>
      <trkpt lat="48.58126" lon="2.09376">
        <ele>74</ele>
        <time>2021-03-07T10:11:09.981Z</time>
      </trkpt>
      <trkpt lat="48.58125" lon="2.09376">
        <ele>74</ele>
        <time>2021-03-07T10:11:10.981Z</time>
      </trkpt>
      <trkpt lat="48.58123" lon="2.09376">
        <ele>74</ele>
        <time>2021-03-07T10:11:11.981Z</time>
      </trkpt>
      <trkpt lat="48.58122" lon="2.09376">
        <ele>75</ele>
        <time>2021-03-07T10:11:12.981Z</time>
      </trkpt>
      <trkpt lat="48.58121" lon="2.09376">
        <ele>75</ele>
        <time>2021-03-07T10:11:13.982Z</time>
      </trkpt>
      <trkpt lat="48.58119" lon="2.09375">
        <ele>75</ele>
        <time>2021-03-07T10:11:14.982Z</time>
      </trkpt>
      <trkpt lat="48.58118" lon="2.09375">
        <ele>75</ele>
        <time>2021-03-07T10:11:15.982Z</time>
      </trkpt>
      <trkpt lat="48.58117" lon="2.09374">
        <ele>75</ele>
        <time>2021-03-07T10:11:16.982Z</time>
      </trkpt>
      <trkpt lat="48.58115" lon="2.09374">
        <ele>74</ele>
        <time>2021-03-07T10:11:17.982Z</time>
      </trkpt>
      <trkpt lat="48.58114" lon="2.09373">
        <ele>74</ele>
        <time>2021-03-07T10:11:18.982Z</time>
      </trkpt>
      <trkpt lat="48.58112" lon="2.09373">
        <ele>73</ele>
        <time>2021-03-07T10:11:19.981Z</time>
      </trkpt>
      <trkpt lat="48.58111" lon="2.09372">
        <ele>73</ele>
        <time>2021-03-07T10:11:20.982Z</time>
      </trkpt>
      <trkpt lat="48.5811" lon="2.09372">
        <ele>74</ele>
        <time>2021-03-07T10:11:21.982Z</time>
      </trkpt>
      <trkpt lat="48.58108" lon="2.09372">
        <ele>74</ele>
        <time>2021-03-07T10:11:22.982Z</time>
      </trkpt>
      <trkpt lat="48.58107" lon="2.09372">
        <ele>74</ele>
        <time>2021-03-07T10:11:23.982Z</time>
      </trkpt>
      <trkpt lat="48.58106" lon="2.09371">
        <ele>74</ele>
        <time>2021-03-07T10:11:24.982Z</time>
      </trkpt>
      <trkpt lat="48.58104" lon="2.09371">
        <ele>74</ele>
        <time>2021-03-07T10:11:25.982Z</time>
      </trkpt>
      <trkpt lat="48.58103" lon="2.0937">
        <ele>74</ele>
        <time>2021-03-07T10:11:26.982Z</time>
      </trkpt>
      <trkpt lat="48.58102" lon="2.0937">
        <ele>74</ele>
        <time>2021-03-07T10:11:27.982Z</time>
      </trkpt>
      <trkpt lat="48.581" lon="2.09369">
        <ele>74</ele>
        <time>2021-03-07T10:11:28.982Z</time>
      </trkpt>
      <trkpt lat="48.58099" lon="2.09369">
        <ele>74</ele>
        <time>2021-03-07T10:11:29.982Z</time>
      </trkpt>
      <trkpt lat="48.58098" lon="2.09369">
        <ele>73</ele>
        <time>2021-03-07T10:11:30.982Z</time>
      </trkpt>
      <trkpt lat="48.58097" lon="2.09368">
        <ele>73</ele>
        <time>2021-03-07T10:11:31.981Z</time>
      </trkpt>
      <trkpt lat="48.58095" lon="2.09369">
        <ele>73</ele>
        <time>2021-03-07T10:11:32.982Z</time>
      </trkpt>
      <trkpt lat="48.58094" lon="2.09369">
        <ele>73</ele>
        <time>2021-03-07T10:11:33.982Z</time>
      </trkpt>
      <trkpt lat="48.58093" lon="2.09368">
        <ele>72</ele>
        <time>2021-03-07T10:11:34.982Z</time>
      </trkpt>
      <trkpt lat="48.58091" lon="2.09368">
        <ele>72</ele>
        <time>2021-03-07T10:11:35.982Z</time>
      </trkpt>
      <trkpt lat="48.5809" lon="2.09368">
        <ele>73</ele>
        <time>2021-03-07T10:11:36.981Z</time>
      </trkpt>
      <trkpt lat="48.58089" lon="2.09368">
        <ele>72</ele>
        <time>2021-03-07T10:11:37.982Z</time>
      </trkpt>
      <trkpt lat="48.58088" lon="2.09368">
        <ele>72</ele>
        <time>2021-03-07T10:11:38.981Z</time>
      </trkpt>
      <trkpt lat="48.58087" lon="2.09367">
        <ele>72</ele>
        <time>2021-03-07T10:11:39.982Z</time>
      </trkpt>
      <trkpt lat="48.58085" lon="2.09367">
        <ele>72</ele>
        <time>2021-03-07T10:11:40.982Z</time>
      </trkpt>
      <trkpt lat="48.58084" lon="2.09367">
        <ele>72</ele>
        <time>2021-03-07T10:11:41.982Z</time>
      </trkpt>
      <trkpt lat="48.58083" lon="2.09366">
        <ele>72</ele>
        <time>2021-03-07T10:11:42.982Z</time>
      </trkpt>
      <trkpt lat="48.58081" lon="2.09366">
        <ele>72</ele>
        <time>2021-03-07T10:11:43.982Z</time>
      </trkpt>
      <trkpt lat="48.5808" lon="2.09366">
        <ele>72</ele>
        <time>2021-03-07T10:11:44.982Z</time>
      </trkpt>
      <trkpt lat="48.58079" lon="2.09366">
        <ele>71</ele>
        <time>2021-03-07T10:11:45.981Z</time>
      </trkpt>
      <trkpt lat="48.58077" lon="2.09366">
        <ele>71</ele>
        <time>2021-03-07T10:11:46.982Z</time>
      </trkpt>
      <trkpt lat="48.58076" lon="2.09366">
        <ele>72</ele>
        <time>2021-03-07T10:11:47.981Z</time>
      </trkpt>
      <trkpt lat="48.58075" lon="2.09366">
        <ele>72</ele>
        <time>2021-03-07T10:11:48.982Z</time>
      </trkpt>
      <trkpt lat="48.58074" lon="2.09366">
        <ele>72</ele>
        <time>2021-03-07T10:11:49.982Z</time>
      </trkpt>
      <trkpt lat="48.58072" lon="2.09365">
        <ele>72</ele>
        <time>2021-03-07T10:11:50.981Z</time>
      </trkpt>
      <trkpt lat="48.58071" lon="2.09365">
        <ele>72</ele>
        <time>2021-03-07T10:11:51.982Z</time>
      </trkpt>
      <trkpt lat="48.58069" lon="2.09365">
        <ele>72</ele>
        <time>2021-03-07T10:11:52.981Z</time>
      </trkpt>
      <trkpt lat="48.58069" lon="2.09365">
        <ele>72</ele>
        <time>2021-03-07T10:11:53.981Z</time>
      </trkpt>
      <trkpt lat="48.58068" lon="2.09364">
        <ele>73</ele>
        <time>2021-03-07T10:11:54.981Z</time>
      </trkpt>
      <trkpt lat="48.58066" lon="2.09364">
        <ele>73</ele>
        <time>2021-03-07T10:11:55.981Z</time>
      </trkpt>
      <trkpt lat="48.58065" lon="2.09363">
        <ele>73</ele>
        <time>2021-03-07T10:11:56.982Z</time>
      </trkpt>
      <trkpt lat="48.58064" lon="2.09362">
        <ele>73</ele>
        <time>2021-03-07T10:11:57.982Z</time>
      </trkpt>
      <trkpt lat="48.58063" lon="2.09362">
        <ele>73</ele>
        <time>2021-03-07T10:11:58.982Z</time>
      </trkpt>
      <trkpt lat="48.58062" lon="2.09362">
        <ele>73</ele>
        <time>2021-03-07T10:11:59.982Z</time>
      </trkpt>
      <trkpt lat="48.58061" lon="2.09361">
        <ele>73</ele>
        <time>2021-03-07T10:12:00.982Z</time>
      </trkpt>
      <trkpt lat="48.5806" lon="2.09361">
        <ele>73</ele>
        <time>2021-03-07T10:12:01.982Z</time>
      </trkpt>
      <trkpt lat="48.58058" lon="2.09361">
        <ele>73</ele>
        <time>2021-03-07T10:12:02.982Z</time>
      </trkpt>
      <trkpt lat="48.58057" lon="2.09361">
        <ele>73</ele>
        <time>2021-03-07T10:12:03.982Z</time>
      </trkpt>
      <trkpt lat="48.58056" lon="2.09361">
        <ele>73</ele>
        <time>2021-03-07T10:12:04.982Z</time>
      </trkpt>
      <trkpt lat="48.58055" lon="2.0936">
        <ele>73</ele>
        <time>2021-03-07T10:12:05.982Z</time>
      </trkpt>
      <trkpt lat="48.58053" lon="2.0936">
        <ele>73</ele>
        <time>2021-03-07T10:12:06.981Z</time>
      </trkpt>
      <trkpt lat="48.58052" lon="2.0936">
        <ele>73</ele>
        <time>2021-03-07T10:12:07.982Z</time>
      </trkpt>
      <trkpt lat="48.58051" lon="2.0936">
        <ele>74</ele>
        <time>2021-03-07T10:12:08.982Z</time>
      </trkpt>
      <trkpt lat="48.5805" lon="2.0936">
        <ele>75</ele>
        <time>2021-03-07T10:12:09.982Z</time>
      </trkpt>
      <trkpt lat="48.58048" lon="2.09359">
        <ele>76</ele>
        <time>2021-03-07T10:12:10.981Z</time>
      </trkpt>
      <trkpt lat="48.58047" lon="2.09359">
        <ele>76</ele>
        <time>2021-03-07T10:12:11.982Z</time>
      </trkpt>
      <trkpt lat="48.58046" lon="2.09359">
        <ele>76</ele>
        <time>2021-03-07T10:12:12.981Z</time>
      </trkpt>
      <trkpt lat="48.58045" lon="2.09359">
        <ele>76</ele>
        <time>2021-03-07T10:12:13.982Z</time>
      </trkpt>
      <trkpt lat="48.58044" lon="2.09358">
        <ele>76</ele>
        <time>2021-03-07T10:12:14.982Z</time>
      </trkpt>
      <trkpt lat="48.58042" lon="2.09358">
        <ele>76</ele>
        <time>2021-03-07T10:12:15.982Z</time>
      </trkpt>
      <trkpt lat="48.58041" lon="2.09358">
        <ele>76</ele>
        <time>2021-03-07T10:12:16.982Z</time>
      </trkpt>
      <trkpt lat="48.5804" lon="2.09358">
        <ele>76</ele>
        <time>2021-03-07T10:12:17.982Z</time>
      </trkpt>
      <trkpt lat="48.58039" lon="2.09358">
        <ele>76</ele>
        <time>2021-03-07T10:12:18.982Z</time>
      </trkpt>
      <trkpt lat="48.58037" lon="2.09358">
        <ele>77</ele>
        <time>2021-03-07T10:12:19.982Z</time>
      </trkpt>
      <trkpt lat="48.58036" lon="2.09357">
        <ele>77</ele>
        <time>2021-03-07T10:12:20.982Z</time>
      </trkpt>
      <trkpt lat="48.58035" lon="2.09357">
        <ele>77</ele>
        <time>2021-03-07T10:12:21.982Z</time>
      </trkpt>
      <trkpt lat="48.58035" lon="2.09357">
        <ele>77</ele>
        <time>2021-03-07T10:12:22.982Z</time>
      </trkpt>
      <trkpt lat="48.58035" lon="2.09356">
        <ele>77</ele>
        <time>2021-03-07T10:12:23.982Z</time>
      </trkpt>
      <trkpt lat="48.58035" lon="2.09355">
        <ele>76</ele>
        <time>2021-03-07T10:12:24.982Z</time>
      </trkpt>
      <trkpt lat="48.58035" lon="2.09355">
        <ele>76</ele>
        <time>2021-03-07T10:12:25.982Z</time>
      </trkpt>
      <trkpt lat="48.58036" lon="2.09355">
        <ele>76</ele>
        <time>2021-03-07T10:12:26.982Z</time>
      </trkpt>
      <trkpt lat="48.58036" lon="2.09355">
        <ele>76</ele>
        <time>2021-03-07T10:12:27.982Z</time>
      </trkpt>
      <trkpt lat="48.58036" lon="2.09355">
        <ele>76</ele>
        <time>2021-03-07T10:12:28.982Z</time>
      </trkpt>
      <trkpt lat="48.58036" lon="2.09355">
        <ele>75</ele>
        <time>2021-03-07T10:12:29.982Z</time>
      </trkpt>
      <trkpt lat="48.58036" lon="2.09355">
        <ele>75</ele>
        <time>2021-03-07T10:12:30.982Z</time>
      </trkpt>
      <trkpt lat="48.58037" lon="2.09355">
        <ele>74</ele>
        <time>2021-03-07T10:12:31.982Z</time>
      </trkpt>
      <trkpt lat="48.58037" lon="2.09355">
        <ele>74</ele>
        <time>2021-03-07T10:12:32.981Z</time>
      </trkpt>
      <trkpt lat="48.58037" lon="2.09355">
        <ele>73</ele>
        <time>2021-03-07T10:12:33.982Z</time>
      </trkpt>
      <trkpt lat="48.58037" lon="2.09355">
        <ele>73</ele>
        <time>2021-03-07T10:12:34.982Z</time>
      </trkpt>
      <trkpt lat="48.58037" lon="2.09355">
        <ele>73</ele>
        <time>2021-03-07T10:12:35.982Z</time>
      </trkpt>
      <trkpt lat="48.58037" lon="2.09355">
        <ele>73</ele>
        <time>2021-03-07T10:12:36.982Z</time>
      </trkpt>
      <trkpt lat="48.58037" lon="2.09355">
        <ele>73</ele>
        <time>2021-03-07T10:12:37.982Z</time>
      </trkpt>
      <trkpt lat="48.58037" lon="2.09355">
        <ele>73</ele>
        <time>2021-03-07T10:12:38.982Z</time>
      </trkpt>
      <trkpt lat="48.58037" lon="2.09355">
        <ele>73</ele>
        <time>2021-03-07T10:12:39.982Z</time>
      </trkpt>
      <trkpt lat="48.58037" lon="2.09355">
        <ele>73</ele>
        <time>2021-03-07T10:12:40.982Z</time>
      </trkpt>
      <trkpt lat="48.58037" lon="2.09355">
        <ele>73</ele>
        <time>2021-03-07T10:12:41.981Z</time>
      </trkpt>
      <trkpt lat="48.58037" lon="2.09355">
        <ele>73</ele>
        <time>2021-03-07T10:12:42.982Z</time>
      </trkpt>
      <trkpt lat="48.58037" lon="2.09355">
        <ele>73</ele>
        <time>2021-03-07T10:12:43.982Z</time>
      </trkpt>
      <trkpt lat="48.58037" lon="2.09355">
        <ele>73</ele>
        <time>2021-03-07T10:12:44.982Z</time>
      </trkpt>
      <trkpt lat="48.58037" lon="2.09355">
        <ele>73</ele>
        <time>2021-03-07T10:12:45.982Z</time>
      </trkpt>
      <trkpt lat="48.58037" lon="2.09355">
        <ele>73</ele>
        <time>2021-03-07T10:12:46.982Z</time>
      </trkpt>
      <trkpt lat="48.58037" lon="2.09355">
        <ele>73</ele>
        <time>2021-03-07T10:12:47.982Z</time>
      </trkpt>
      <trkpt lat="48.58037" lon="2.09355">
        <ele>73</ele>
        <time>2021-03-07T10:12:48.982Z</time>
      </trkpt>
      <trkpt lat="48.58037" lon="2.09355">
        <ele>73</ele>
        <time>2021-03-07T10:12:49.982Z</time>
      </trkpt>
      <trkpt lat="48.58037" lon="2.09355">
        <ele>73</ele>
        <time>2021-03-07T10:12:50.981Z</time>
      </trkpt>
      <trkpt lat="48.58036" lon="2.09355">
        <ele>73</ele>
        <time>2021-03-07T10:12:51.982Z</time>
      </trkpt>
      <trkpt lat="48.58034" lon="2.09355">
        <ele>73</ele>
        <time>2021-03-07T10:12:52.982Z</time>
      </trkpt>
      <trkpt lat="48.58033" lon="2.09355">
        <ele>73</ele>
        <time>2021-03-07T10:12:53.982Z</time>
      </trkpt>
      <trkpt lat="48.58032" lon="2.09356">
        <ele>73</ele>
        <time>2021-03-07T10:12:54.982Z</time>
      </trkpt>
      <trkpt lat="48.5803" lon="2.09355">
        <ele>73</ele>
        <time>2021-03-07T10:12:55.982Z</time>
      </trkpt>
      <trkpt lat="48.58029" lon="2.09356">
        <ele>73</ele>
        <time>2021-03-07T10:12:56.982Z</time>
      </trkpt>
      <trkpt lat="48.58027" lon="2.09356">
        <ele>73</ele>
        <time>2021-03-07T10:12:57.982Z</time>
      </trkpt>
      <trkpt lat="48.58025" lon="2.09356">
        <ele>74</ele>
        <time>2021-03-07T10:12:58.982Z</time>
      </trkpt>
      <trkpt lat="48.58024" lon="2.09355">
        <ele>74</ele>
        <time>2021-03-07T10:12:59.982Z</time>
      </trkpt>
      <trkpt lat="48.58022" lon="2.09355">
        <ele>74</ele>
        <time>2021-03-07T10:13:00.982Z</time>
      </trkpt>
      <trkpt lat="48.58021" lon="2.09354">
        <ele>74</ele>
        <time>2021-03-07T10:13:01.981Z</time>
      </trkpt>
      <trkpt lat="48.58019" lon="2.09354">
        <ele>74</ele>
        <time>2021-03-07T10:13:02.982Z</time>
      </trkpt>
      <trkpt lat="48.58018" lon="2.09353">
        <ele>74</ele>
        <time>2021-03-07T10:13:03.982Z</time>
      </trkpt>
      <trkpt lat="48.58017" lon="2.09353">
        <ele>74</ele>
        <time>2021-03-07T10:13:04.982Z</time>
      </trkpt>
      <trkpt lat="48.58016" lon="2.09353">
        <ele>74</ele>
        <time>2021-03-07T10:13:05.982Z</time>
      </trkpt>
      <trkpt lat="48.58015" lon="2.09353">
        <ele>74</ele>
        <time>2021-03-07T10:13:06.982Z</time>
      </trkpt>
      <trkpt lat="48.58013" lon="2.09352">
        <ele>74</ele>
        <time>2021-03-07T10:13:07.982Z</time>
      </trkpt>
      <trkpt lat="48.58012" lon="2.09352">
        <ele>73</ele>
        <time>2021-03-07T10:13:08.982Z</time>
      </trkpt>
      <trkpt lat="48.58012" lon="2.09352">
        <ele>73</ele>
        <time>2021-03-07T10:13:09.981Z</time>
      </trkpt>
      <trkpt lat="48.5801" lon="2.09352">
        <ele>74</ele>
        <time>2021-03-07T10:13:10.981Z</time>
      </trkpt>
      <trkpt lat="48.58009" lon="2.09352">
        <ele>74</ele>
        <time>2021-03-07T10:13:11.982Z</time>
      </trkpt>
      <trkpt lat="48.58008" lon="2.09351">
        <ele>74</ele>
        <time>2021-03-07T10:13:12.981Z</time>
      </trkpt>
      <trkpt lat="48.58007" lon="2.09351">
        <ele>74</ele>
        <time>2021-03-07T10:13:13.982Z</time>
      </trkpt>
      <trkpt lat="48.58006" lon="2.09351">
        <ele>74</ele>
        <time>2021-03-07T10:13:14.982Z</time>
      </trkpt>
      <trkpt lat="48.58005" lon="2.09351">
        <ele>74</ele>
        <time>2021-03-07T10:13:15.982Z</time>
      </trkpt>
      <trkpt lat="48.58003" lon="2.09351">
        <ele>74</ele>
        <time>2021-03-07T10:13:16.982Z</time>
      </trkpt>
      <trkpt lat="48.58002" lon="2.0935">
        <ele>74</ele>
        <time>2021-03-07T10:13:17.982Z</time>
      </trkpt>
      <trkpt lat="48.58001" lon="2.0935">
        <ele>74</ele>
        <time>2021-03-07T10:13:18.982Z</time>
      </trkpt>
      <trkpt lat="48.57999" lon="2.09351">
        <ele>74</ele>
        <time>2021-03-07T10:13:19.981Z</time>
      </trkpt>
      <trkpt lat="48.57998" lon="2.09351">
        <ele>74</ele>
        <time>2021-03-07T10:13:20.981Z</time>
      </trkpt>
      <trkpt lat="48.57997" lon="2.09351">
        <ele>74</ele>
        <time>2021-03-07T10:13:21.982Z</time>
      </trkpt>
      <trkpt lat="48.57995" lon="2.09352">
        <ele>74</ele>
        <time>2021-03-07T10:13:22.982Z</time>
      </trkpt>
      <trkpt lat="48.57994" lon="2.09352">
        <ele>74</ele>
        <time>2021-03-07T10:13:23.982Z</time>
      </trkpt>
      <trkpt lat="48.57992" lon="2.09352">
        <ele>74</ele>
        <time>2021-03-07T10:13:24.982Z</time>
      </trkpt>
      <trkpt lat="48.57991" lon="2.09352">
        <ele>74</ele>
        <time>2021-03-07T10:13:25.982Z</time>
      </trkpt>
      <trkpt lat="48.57989" lon="2.09351">
        <ele>75</ele>
        <time>2021-03-07T10:13:26.982Z</time>
      </trkpt>
      <trkpt lat="48.57988" lon="2.09351">
        <ele>75</ele>
        <time>2021-03-07T10:13:27.982Z</time>
      </trkpt>
      <trkpt lat="48.57987" lon="2.09351">
        <ele>75</ele>
        <time>2021-03-07T10:13:28.982Z</time>
      </trkpt>
      <trkpt lat="48.57986" lon="2.0935">
        <ele>76</ele>
        <time>2021-03-07T10:13:29.982Z</time>
      </trkpt>
      <trkpt lat="48.57984" lon="2.0935">
        <ele>76</ele>
        <time>2021-03-07T10:13:30.982Z</time>
      </trkpt>
      <trkpt lat="48.57983" lon="2.0935">
        <ele>76</ele>
        <time>2021-03-07T10:13:31.981Z</time>
      </trkpt>
      <trkpt lat="48.57982" lon="2.09349">
        <ele>75</ele>
        <time>2021-03-07T10:13:32.982Z</time>
      </trkpt>
      <trkpt lat="48.57981" lon="2.09349">
        <ele>75</ele>
        <time>2021-03-07T10:13:33.982Z</time>
      </trkpt>
      <trkpt lat="48.5798" lon="2.09349">
        <ele>76</ele>
        <time>2021-03-07T10:13:34.982Z</time>
      </trkpt>
      <trkpt lat="48.57979" lon="2.09348">
        <ele>76</ele>
        <time>2021-03-07T10:13:35.982Z</time>
      </trkpt>
      <trkpt lat="48.57977" lon="2.09347">
        <ele>76</ele>
        <time>2021-03-07T10:13:36.981Z</time>
      </trkpt>
      <trkpt lat="48.57976" lon="2.09347">
        <ele>76</ele>
        <time>2021-03-07T10:13:37.982Z</time>
      </trkpt>
      <trkpt lat="48.57976" lon="2.09346">
        <ele>77</ele>
        <time>2021-03-07T10:13:38.982Z</time>
      </trkpt>
      <trkpt lat="48.57975" lon="2.09345">
        <ele>77</ele>
        <time>2021-03-07T10:13:39.982Z</time>
      </trkpt>
      <trkpt lat="48.57974" lon="2.09345">
        <ele>77</ele>
        <time>2021-03-07T10:13:40.982Z</time>
      </trkpt>
      <trkpt lat="48.57973" lon="2.09344">
        <ele>77</ele>
        <time>2021-03-07T10:13:41.982Z</time>
      </trkpt>
      <trkpt lat="48.57972" lon="2.09344">
        <ele>77</ele>
        <time>2021-03-07T10:13:42.982Z</time>
      </trkpt>
      <trkpt lat="48.57971" lon="2.09343">
        <ele>76</ele>
        <time>2021-03-07T10:13:43.981Z</time>
      </trkpt>
      <trkpt lat="48.5797" lon="2.09343">
        <ele>76</ele>
        <time>2021-03-07T10:13:44.982Z</time>
      </trkpt>
      <trkpt lat="48.57969" lon="2.09342">
        <ele>76</ele>
        <time>2021-03-07T10:13:45.982Z</time>
      </trkpt>
      <trkpt lat="48.57968" lon="2.09341">
        <ele>76</ele>
        <time>2021-03-07T10:13:46.981Z</time>
      </trkpt>
      <trkpt lat="48.57966" lon="2.0934">
        <ele>76</ele>
        <time>2021-03-07T10:13:47.982Z</time>
      </trkpt>
      <trkpt lat="48.57965" lon="2.09339">
        <ele>76</ele>
        <time>2021-03-07T10:13:48.981Z</time>
      </trkpt>
      <trkpt lat="48.57964" lon="2.09338">
        <ele>76</ele>
        <time>2021-03-07T10:13:49.982Z</time>
      </trkpt>
      <trkpt lat="48.57963" lon="2.09337">
        <ele>77</ele>
        <time>2021-03-07T10:13:50.981Z</time>
      </trkpt>
      <trkpt lat="48.57962" lon="2.09336">
        <ele>77</ele>
        <time>2021-03-07T10:13:51.982Z</time>
      </trkpt>
      <trkpt lat="48.57961" lon="2.09335">
        <ele>77</ele>
        <time>2021-03-07T10:13:52.982Z</time>
      </trkpt>
      <trkpt lat="48.5796" lon="2.09334">
        <ele>77</ele>
        <time>2021-03-07T10:13:53.982Z</time>
      </trkpt>
      <trkpt lat="48.57959" lon="2.09333">
        <ele>78</ele>
        <time>2021-03-07T10:13:54.982Z</time>
      </trkpt>
      <trkpt lat="48.57958" lon="2.09331">
        <ele>78</ele>
        <time>2021-03-07T10:13:55.982Z</time>
      </trkpt>
      <trkpt lat="48.57957" lon="2.0933">
        <ele>79</ele>
        <time>2021-03-07T10:13:56.982Z</time>
      </trkpt>
      <trkpt lat="48.57956" lon="2.09329">
        <ele>79</ele>
        <time>2021-03-07T10:13:57.982Z</time>
      </trkpt>
      <trkpt lat="48.57955" lon="2.09328">
        <ele>79</ele>
        <time>2021-03-07T10:13:58.982Z</time>
      </trkpt>
      <trkpt lat="48.57954" lon="2.09327">
        <ele>78</ele>
        <time>2021-03-07T10:13:59.982Z</time>
      </trkpt>
      <trkpt lat="48.57953" lon="2.09326">
        <ele>78</ele>
        <time>2021-03-07T10:14:00.982Z</time>
      </trkpt>
      <trkpt lat="48.57952" lon="2.09325">
        <ele>79</ele>
        <time>2021-03-07T10:14:01.982Z</time>
      </trkpt>
      <trkpt lat="48.57951" lon="2.09324">
        <ele>79</ele>
        <time>2021-03-07T10:14:02.981Z</time>
      </trkpt>
      <trkpt lat="48.57951" lon="2.09323">
        <ele>80</ele>
        <time>2021-03-07T10:14:03.982Z</time>
      </trkpt>
      <trkpt lat="48.5795" lon="2.09322">
        <ele>80</ele>
        <time>2021-03-07T10:14:04.981Z</time>
      </trkpt>
      <trkpt lat="48.57949" lon="2.09322">
        <ele>81</ele>
        <time>2021-03-07T10:14:05.982Z</time>
      </trkpt>
      <trkpt lat="48.57948" lon="2.09321">
        <ele>81</ele>
        <time>2021-03-07T10:14:06.981Z</time>
      </trkpt>
      <trkpt lat="48.57947" lon="2.09319">
        <ele>81</ele>
        <time>2021-03-07T10:14:07.982Z</time>
      </trkpt>
      <trkpt lat="48.57946" lon="2.09318">
        <ele>81</ele>
        <time>2021-03-07T10:14:08.981Z</time>
      </trkpt>
      <trkpt lat="48.57945" lon="2.09317">
        <ele>80</ele>
        <time>2021-03-07T10:14:09.981Z</time>
      </trkpt>
      <trkpt lat="48.57944" lon="2.09316">
        <ele>80</ele>
        <time>2021-03-07T10:14:10.982Z</time>
      </trkpt>
      <trkpt lat="48.57943" lon="2.09314">
        <ele>80</ele>
        <time>2021-03-07T10:14:11.981Z</time>
      </trkpt>
      <trkpt lat="48.57942" lon="2.09313">
        <ele>80</ele>
        <time>2021-03-07T10:14:12.982Z</time>
      </trkpt>
      <trkpt lat="48.57942" lon="2.09311">
        <ele>80</ele>
        <time>2021-03-07T10:14:13.982Z</time>
      </trkpt>
      <trkpt lat="48.57941" lon="2.0931">
        <ele>80</ele>
        <time>2021-03-07T10:14:14.981Z</time>
      </trkpt>
      <trkpt lat="48.5794" lon="2.09309">
        <ele>80</ele>
        <time>2021-03-07T10:14:15.982Z</time>
      </trkpt>
      <trkpt lat="48.57939" lon="2.09308">
        <ele>79</ele>
        <time>2021-03-07T10:14:16.982Z</time>
      </trkpt>
      <trkpt lat="48.57938" lon="2.09308">
        <ele>79</ele>
        <time>2021-03-07T10:14:17.982Z</time>
      </trkpt>
      <trkpt lat="48.57937" lon="2.09307">
        <ele>79</ele>
        <time>2021-03-07T10:14:18.982Z</time>
      </trkpt>
      <trkpt lat="48.57936" lon="2.09305">
        <ele>79</ele>
        <time>2021-03-07T10:14:19.981Z</time>
      </trkpt>
      <trkpt lat="48.57935" lon="2.09305">
        <ele>79</ele>
        <time>2021-03-07T10:14:20.982Z</time>
      </trkpt>
      <trkpt lat="48.57935" lon="2.09303">
        <ele>79</ele>
        <time>2021-03-07T10:14:21.981Z</time>
      </trkpt>
      <trkpt lat="48.57934" lon="2.09302">
        <ele>79</ele>
        <time>2021-03-07T10:14:22.982Z</time>
      </trkpt>
      <trkpt lat="48.57933" lon="2.09301">
        <ele>78</ele>
        <time>2021-03-07T10:14:23.981Z</time>
      </trkpt>
      <trkpt lat="48.57933" lon="2.093">
        <ele>78</ele>
        <time>2021-03-07T10:14:24.982Z</time>
      </trkpt>
      <trkpt lat="48.57932" lon="2.09299">
        <ele>79</ele>
        <time>2021-03-07T10:14:25.981Z</time>
      </trkpt>
      <trkpt lat="48.57931" lon="2.09298">
        <ele>79</ele>
        <time>2021-03-07T10:14:26.982Z</time>
      </trkpt>
      <trkpt lat="48.5793" lon="2.09297">
        <ele>78</ele>
        <time>2021-03-07T10:14:27.981Z</time>
      </trkpt>
      <trkpt lat="48.57929" lon="2.09296">
        <ele>78</ele>
        <time>2021-03-07T10:14:28.981Z</time>
      </trkpt>
      <trkpt lat="48.57928" lon="2.09295">
        <ele>77</ele>
        <time>2021-03-07T10:14:29.982Z</time>
      </trkpt>
      <trkpt lat="48.57927" lon="2.09294">
        <ele>77</ele>
        <time>2021-03-07T10:14:30.982Z</time>
      </trkpt>
      <trkpt lat="48.57926" lon="2.09293">
        <ele>77</ele>
        <time>2021-03-07T10:14:31.981Z</time>
      </trkpt>
      <trkpt lat="48.57924" lon="2.09292">
        <ele>77</ele>
        <time>2021-03-07T10:14:32.981Z</time>
      </trkpt>
      <trkpt lat="48.57923" lon="2.09291">
        <ele>78</ele>
        <time>2021-03-07T10:14:33.982Z</time>
      </trkpt>
      <trkpt lat="48.57922" lon="2.09291">
        <ele>78</ele>
        <time>2021-03-07T10:14:34.981Z</time>
      </trkpt>
      <trkpt lat="48.57921" lon="2.0929">
        <ele>78</ele>
        <time>2021-03-07T10:14:35.982Z</time>
      </trkpt>
      <trkpt lat="48.5792" lon="2.0929">
        <ele>78</ele>
        <time>2021-03-07T10:14:36.981Z</time>
      </trkpt>
      <trkpt lat="48.57919" lon="2.09289">
        <ele>79</ele>
        <time>2021-03-07T10:14:37.982Z</time>
      </trkpt>
      <trkpt lat="48.57917" lon="2.09288">
        <ele>79</ele>
        <time>2021-03-07T10:14:38.981Z</time>
      </trkpt>
      <trkpt lat="48.57916" lon="2.09288">
        <ele>79</ele>
        <time>2021-03-07T10:14:39.982Z</time>
      </trkpt>
      <trkpt lat="48.57915" lon="2.09287">
        <ele>78</ele>
        <time>2021-03-07T10:14:40.982Z</time>
      </trkpt>
      <trkpt lat="48.57914" lon="2.09287">
        <ele>78</ele>
        <time>2021-03-07T10:14:41.981Z</time>
      </trkpt>
      <trkpt lat="48.57913" lon="2.09286">
        <ele>78</ele>
        <time>2021-03-07T10:14:42.982Z</time>
      </trkpt>
      <trkpt lat="48.57912" lon="2.09285">
        <ele>77</ele>
        <time>2021-03-07T10:14:43.981Z</time>
      </trkpt>
      <trkpt lat="48.57911" lon="2.09285">
        <ele>77</ele>
        <time>2021-03-07T10:14:44.982Z</time>
      </trkpt>
      <trkpt lat="48.5791" lon="2.09284">
        <ele>78</ele>
        <time>2021-03-07T10:14:45.981Z</time>
      </trkpt>
      <trkpt lat="48.57909" lon="2.09283">
        <ele>78</ele>
        <time>2021-03-07T10:14:46.981Z</time>
      </trkpt>
      <trkpt lat="48.57907" lon="2.09283">
        <ele>78</ele>
        <time>2021-03-07T10:14:47.982Z</time>
      </trkpt>
      <trkpt lat="48.57906" lon="2.09282">
        <ele>78</ele>
        <time>2021-03-07T10:14:48.982Z</time>
      </trkpt>
      <trkpt lat="48.57905" lon="2.09282">
        <ele>78</ele>
        <time>2021-03-07T10:14:49.981Z</time>
      </trkpt>
      <trkpt lat="48.57903" lon="2.09282">
        <ele>79</ele>
        <time>2021-03-07T10:14:50.982Z</time>
      </trkpt>
      <trkpt lat="48.57902" lon="2.09281">
        <ele>79</ele>
        <time>2021-03-07T10:14:51.981Z</time>
      </trkpt>
      <trkpt lat="48.57901" lon="2.09281">
        <ele>80</ele>
        <time>2021-03-07T10:14:52.982Z</time>
      </trkpt>
      <trkpt lat="48.579" lon="2.09281">
        <ele>80</ele>
        <time>2021-03-07T10:14:53.982Z</time>
      </trkpt>
      <trkpt lat="48.57899" lon="2.0928">
        <ele>80</ele>
        <time>2021-03-07T10:14:54.982Z</time>
      </trkpt>
      <trkpt lat="48.57898" lon="2.09279">
        <ele>80</ele>
        <time>2021-03-07T10:14:55.982Z</time>
      </trkpt>
      <trkpt lat="48.57897" lon="2.09278">
        <ele>80</ele>
        <time>2021-03-07T10:14:56.982Z</time>
      </trkpt>
      <trkpt lat="48.57896" lon="2.09278">
        <ele>80</ele>
        <time>2021-03-07T10:14:57.982Z</time>
      </trkpt>
      <trkpt lat="48.57894" lon="2.09277">
        <ele>80</ele>
        <time>2021-03-07T10:14:58.982Z</time>
      </trkpt>
      <trkpt lat="48.57893" lon="2.09277">
        <ele>80</ele>
        <time>2021-03-07T10:14:59.982Z</time>
      </trkpt>
      <trkpt lat="48.57892" lon="2.09276">
        <ele>80</ele>
        <time>2021-03-07T10:15:00.982Z</time>
      </trkpt>
      <trkpt lat="48.57891" lon="2.09276">
        <ele>80</ele>
        <time>2021-03-07T10:15:01.981Z</time>
      </trkpt>
      <trkpt lat="48.57889" lon="2.09275">
        <ele>80</ele>
        <time>2021-03-07T10:15:02.982Z</time>
      </trkpt>
      <trkpt lat="48.57888" lon="2.09275">
        <ele>80</ele>
        <time>2021-03-07T10:15:03.981Z</time>
      </trkpt>
      <trkpt lat="48.57887" lon="2.09275">
        <ele>80</ele>
        <time>2021-03-07T10:15:04.982Z</time>
      </trkpt>
      <trkpt lat="48.57885" lon="2.09275">
        <ele>80</ele>
        <time>2021-03-07T10:15:05.981Z</time>
      </trkpt>
      <trkpt lat="48.57884" lon="2.09274">
        <ele>80</ele>
        <time>2021-03-07T10:15:06.982Z</time>
      </trkpt>
      <trkpt lat="48.57883" lon="2.09274">
        <ele>80</ele>
        <time>2021-03-07T10:15:07.982Z</time>
      </trkpt>
      <trkpt lat="48.57882" lon="2.09274">
        <ele>80</ele>
        <time>2021-03-07T10:15:08.981Z</time>
      </trkpt>
      <trkpt lat="48.57881" lon="2.09273">
        <ele>80</ele>
        <time>2021-03-07T10:15:09.981Z</time>
      </trkpt>
      <trkpt lat="48.57879" lon="2.09273">
        <ele>80</ele>
        <time>2021-03-07T10:15:10.982Z</time>
      </trkpt>
      <trkpt lat="48.57878" lon="2.09273">
        <ele>81</ele>
        <time>2021-03-07T10:15:11.981Z</time>
      </trkpt>
      <trkpt lat="48.57877" lon="2.09272">
        <ele>81</ele>
        <time>2021-03-07T10:15:12.981Z</time>
      </trkpt>
      <trkpt lat="48.57876" lon="2.09272">
        <ele>81</ele>
        <time>2021-03-07T10:15:13.982Z</time>
      </trkpt>
      <trkpt lat="48.57875" lon="2.09272">
        <ele>81</ele>
        <time>2021-03-07T10:15:14.981Z</time>
      </trkpt>
      <trkpt lat="48.57873" lon="2.09271">
        <ele>81</ele>
        <time>2021-03-07T10:15:15.982Z</time>
      </trkpt>
      <trkpt lat="48.57872" lon="2.09271">
        <ele>81</ele>
        <time>2021-03-07T10:15:16.981Z</time>
      </trkpt>
      <trkpt lat="48.57871" lon="2.09271">
        <ele>81</ele>
        <time>2021-03-07T10:15:17.982Z</time>
      </trkpt>
      <trkpt lat="48.5787" lon="2.09271">
        <ele>81</ele>
        <time>2021-03-07T10:15:18.982Z</time>
      </trkpt>
      <trkpt lat="48.57868" lon="2.09271">
        <ele>82</ele>
        <time>2021-03-07T10:15:19.982Z</time>
      </trkpt>
      <trkpt lat="48.57867" lon="2.09271">
        <ele>82</ele>
        <time>2021-03-07T10:15:20.982Z</time>
      </trkpt>
      <trkpt lat="48.57865" lon="2.09271">
        <ele>83</ele>
        <time>2021-03-07T10:15:21.982Z</time>
      </trkpt>
      <trkpt lat="48.57864" lon="2.09271">
        <ele>83</ele>
        <time>2021-03-07T10:15:22.982Z</time>
      </trkpt>
      <trkpt lat="48.57863" lon="2.0927">
        <ele>83</ele>
        <time>2021-03-07T10:15:23.982Z</time>
      </trkpt>
      <trkpt lat="48.57862" lon="2.0927">
        <ele>83</ele>
        <time>2021-03-07T10:15:24.982Z</time>
      </trkpt>
      <trkpt lat="48.57861" lon="2.0927">
        <ele>83</ele>
        <time>2021-03-07T10:15:25.982Z</time>
      </trkpt>
      <trkpt lat="48.57859" lon="2.0927">
        <ele>83</ele>
        <time>2021-03-07T10:15:26.982Z</time>
      </trkpt>
      <trkpt lat="48.57857" lon="2.0927">
        <ele>83</ele>
        <time>2021-03-07T10:15:27.982Z</time>
      </trkpt>
      <trkpt lat="48.57856" lon="2.09269">
        <ele>83</ele>
        <time>2021-03-07T10:15:28.982Z</time>
      </trkpt>
      <trkpt lat="48.57855" lon="2.09268">
        <ele>83</ele>
        <time>2021-03-07T10:15:29.982Z</time>
      </trkpt>
      <trkpt lat="48.57854" lon="2.09268">
        <ele>83</ele>
        <time>2021-03-07T10:15:30.982Z</time>
      </trkpt>
      <trkpt lat="48.57852" lon="2.09267">
        <ele>83</ele>
        <time>2021-03-07T10:15:31.982Z</time>
      </trkpt>
      <trkpt lat="48.57851" lon="2.09267">
        <ele>82</ele>
        <time>2021-03-07T10:15:32.982Z</time>
      </trkpt>
      <trkpt lat="48.5785" lon="2.09266">
        <ele>81</ele>
        <time>2021-03-07T10:15:33.982Z</time>
      </trkpt>
      <trkpt lat="48.57849" lon="2.09266">
        <ele>81</ele>
        <time>2021-03-07T10:15:34.982Z</time>
      </trkpt>
      <trkpt lat="48.57848" lon="2.09265">
        <ele>81</ele>
        <time>2021-03-07T10:15:35.981Z</time>
      </trkpt>
      <trkpt lat="48.57846" lon="2.09265">
        <ele>80</ele>
        <time>2021-03-07T10:15:36.982Z</time>
      </trkpt>
      <trkpt lat="48.57845" lon="2.09265">
        <ele>80</ele>
        <time>2021-03-07T10:15:37.982Z</time>
      </trkpt>
      <trkpt lat="48.57844" lon="2.09264">
        <ele>79</ele>
        <time>2021-03-07T10:15:38.982Z</time>
      </trkpt>
      <trkpt lat="48.57843" lon="2.09264">
        <ele>79</ele>
        <time>2021-03-07T10:15:39.982Z</time>
      </trkpt>
      <trkpt lat="48.57841" lon="2.09264">
        <ele>79</ele>
        <time>2021-03-07T10:15:40.982Z</time>
      </trkpt>
      <trkpt lat="48.5784" lon="2.09263">
        <ele>79</ele>
        <time>2021-03-07T10:15:41.982Z</time>
      </trkpt>
      <trkpt lat="48.57839" lon="2.09262">
        <ele>79</ele>
        <time>2021-03-07T10:15:42.981Z</time>
      </trkpt>
      <trkpt lat="48.57838" lon="2.09262">
        <ele>79</ele>
        <time>2021-03-07T10:15:43.982Z</time>
      </trkpt>
      <trkpt lat="48.57836" lon="2.09261">
        <ele>79</ele>
        <time>2021-03-07T10:15:44.982Z</time>
      </trkpt>
      <trkpt lat="48.57835" lon="2.09261">
        <ele>79</ele>
        <time>2021-03-07T10:15:45.982Z</time>
      </trkpt>
      <trkpt lat="48.57834" lon="2.09261">
        <ele>79</ele>
        <time>2021-03-07T10:15:46.981Z</time>
      </trkpt>
      <trkpt lat="48.57833" lon="2.09261">
        <ele>79</ele>
        <time>2021-03-07T10:15:47.982Z</time>
      </trkpt>
      <trkpt lat="48.57832" lon="2.09261">
        <ele>79</ele>
        <time>2021-03-07T10:15:48.981Z</time>
      </trkpt>
      <trkpt lat="48.5783" lon="2.0926">
        <ele>79</ele>
        <time>2021-03-07T10:15:49.981Z</time>
      </trkpt>
      <trkpt lat="48.57829" lon="2.09259">
        <ele>79</ele>
        <time>2021-03-07T10:15:50.982Z</time>
      </trkpt>
      <trkpt lat="48.57828" lon="2.09259">
        <ele>78</ele>
        <time>2021-03-07T10:15:51.982Z</time>
      </trkpt>
      <trkpt lat="48.57826" lon="2.09259">
        <ele>78</ele>
        <time>2021-03-07T10:15:52.982Z</time>
      </trkpt>
      <trkpt lat="48.57825" lon="2.09259">
        <ele>78</ele>
        <time>2021-03-07T10:15:53.982Z</time>
      </trkpt>
      <trkpt lat="48.57824" lon="2.09259">
        <ele>78</ele>
        <time>2021-03-07T10:15:54.982Z</time>
      </trkpt>
      <trkpt lat="48.57822" lon="2.09259">
        <ele>79</ele>
        <time>2021-03-07T10:15:55.982Z</time>
      </trkpt>
      <trkpt lat="48.57821" lon="2.09259">
        <ele>79</ele>
        <time>2021-03-07T10:15:56.982Z</time>
      </trkpt>
      <trkpt lat="48.5782" lon="2.09258">
        <ele>79</ele>
        <time>2021-03-07T10:15:57.982Z</time>
      </trkpt>
      <trkpt lat="48.57818" lon="2.09258">
        <ele>79</ele>
        <time>2021-03-07T10:15:58.982Z</time>
      </trkpt>
      <trkpt lat="48.57817" lon="2.09258">
        <ele>79</ele>
        <time>2021-03-07T10:15:59.982Z</time>
      </trkpt>
      <trkpt lat="48.57816" lon="2.09258">
        <ele>79</ele>
        <time>2021-03-07T10:16:00.981Z</time>
      </trkpt>
      <trkpt lat="48.57815" lon="2.09257">
        <ele>78</ele>
        <time>2021-03-07T10:16:01.981Z</time>
      </trkpt>
      <trkpt lat="48.57814" lon="2.09257">
        <ele>78</ele>
        <time>2021-03-07T10:16:02.982Z</time>
      </trkpt>
      <trkpt lat="48.57812" lon="2.09256">
        <ele>79</ele>
        <time>2021-03-07T10:16:03.982Z</time>
      </trkpt>
      <trkpt lat="48.57811" lon="2.09256">
        <ele>79</ele>
        <time>2021-03-07T10:16:04.982Z</time>
      </trkpt>
      <trkpt lat="48.5781" lon="2.09256">
        <ele>79</ele>
        <time>2021-03-07T10:16:05.981Z</time>
      </trkpt>
      <trkpt lat="48.57809" lon="2.09255">
        <ele>80</ele>
        <time>2021-03-07T10:16:06.982Z</time>
      </trkpt>
      <trkpt lat="48.57807" lon="2.09255">
        <ele>80</ele>
        <time>2021-03-07T10:16:07.982Z</time>
      </trkpt>
      <trkpt lat="48.57806" lon="2.09255">
        <ele>81</ele>
        <time>2021-03-07T10:16:08.982Z</time>
      </trkpt>
      <trkpt lat="48.57805" lon="2.09255">
        <ele>81</ele>
        <time>2021-03-07T10:16:09.982Z</time>
      </trkpt>
      <trkpt lat="48.57803" lon="2.09255">
        <ele>82</ele>
        <time>2021-03-07T10:16:10.981Z</time>
      </trkpt>
      <trkpt lat="48.57802" lon="2.09255">
        <ele>83</ele>
        <time>2021-03-07T10:16:11.982Z</time>
      </trkpt>
      <trkpt lat="48.578" lon="2.09255">
        <ele>84</ele>
        <time>2021-03-07T10:16:12.982Z</time>
      </trkpt>
      <trkpt lat="48.57799" lon="2.09255">
        <ele>85</ele>
        <time>2021-03-07T10:16:13.982Z</time>
      </trkpt>
      <trkpt lat="48.57797" lon="2.09255">
        <ele>86</ele>
        <time>2021-03-07T10:16:14.981Z</time>
      </trkpt>
      <trkpt lat="48.57796" lon="2.09254">
        <ele>86</ele>
        <time>2021-03-07T10:16:15.982Z</time>
      </trkpt>
      <trkpt lat="48.57794" lon="2.09254">
        <ele>86</ele>
        <time>2021-03-07T10:16:16.981Z</time>
      </trkpt>
      <trkpt lat="48.57793" lon="2.09254">
        <ele>86</ele>
        <time>2021-03-07T10:16:17.982Z</time>
      </trkpt>
      <trkpt lat="48.57791" lon="2.09253">
        <ele>86</ele>
        <time>2021-03-07T10:16:18.981Z</time>
      </trkpt>
      <trkpt lat="48.5779" lon="2.09253">
        <ele>86</ele>
        <time>2021-03-07T10:16:19.982Z</time>
      </trkpt>
      <trkpt lat="48.57789" lon="2.09253">
        <ele>86</ele>
        <time>2021-03-07T10:16:20.981Z</time>
      </trkpt>
      <trkpt lat="48.57788" lon="2.09252">
        <ele>86</ele>
        <time>2021-03-07T10:16:21.982Z</time>
      </trkpt>
      <trkpt lat="48.57786" lon="2.09253">
        <ele>86</ele>
        <time>2021-03-07T10:16:22.982Z</time>
      </trkpt>
      <trkpt lat="48.57784" lon="2.09254">
        <ele>86</ele>
        <time>2021-03-07T10:16:23.982Z</time>
      </trkpt>
      <trkpt lat="48.57782" lon="2.09254">
        <ele>86</ele>
        <time>2021-03-07T10:16:24.981Z</time>
      </trkpt>
      <trkpt lat="48.5778" lon="2.09254">
        <ele>87</ele>
        <time>2021-03-07T10:16:25.981Z</time>
      </trkpt>
      <trkpt lat="48.57778" lon="2.09255">
        <ele>87</ele>
        <time>2021-03-07T10:16:26.981Z</time>
      </trkpt>
      <trkpt lat="48.57777" lon="2.09255">
        <ele>88</ele>
        <time>2021-03-07T10:16:27.981Z</time>
      </trkpt>
      <trkpt lat="48.57775" lon="2.09255">
        <ele>88</ele>
        <time>2021-03-07T10:16:28.981Z</time>
      </trkpt>
      <trkpt lat="48.57774" lon="2.09255">
        <ele>88</ele>
        <time>2021-03-07T10:16:29.981Z</time>
      </trkpt>
      <trkpt lat="48.57773" lon="2.09255">
        <ele>87</ele>
        <time>2021-03-07T10:16:30.982Z</time>
      </trkpt>
      <trkpt lat="48.57772" lon="2.09254">
        <ele>87</ele>
        <time>2021-03-07T10:16:31.981Z</time>
      </trkpt>
      <trkpt lat="48.5777" lon="2.09254">
        <ele>86</ele>
        <time>2021-03-07T10:16:32.981Z</time>
      </trkpt>
      <trkpt lat="48.57769" lon="2.09254">
        <ele>86</ele>
        <time>2021-03-07T10:16:33.981Z</time>
      </trkpt>
      <trkpt lat="48.57768" lon="2.09254">
        <ele>86</ele>
        <time>2021-03-07T10:16:34.982Z</time>
      </trkpt>
      <trkpt lat="48.57767" lon="2.09253">
        <ele>85</ele>
        <time>2021-03-07T10:16:35.981Z</time>
      </trkpt>
      <trkpt lat="48.57765" lon="2.09253">
        <ele>85</ele>
        <time>2021-03-07T10:16:36.981Z</time>
      </trkpt>
      <trkpt lat="48.57763" lon="2.09253">
        <ele>84</ele>
        <time>2021-03-07T10:16:37.982Z</time>
      </trkpt>
      <trkpt lat="48.57762" lon="2.09253">
        <ele>84</ele>
        <time>2021-03-07T10:16:38.982Z</time>
      </trkpt>
      <trkpt lat="48.57761" lon="2.09253">
        <ele>84</ele>
        <time>2021-03-07T10:16:39.982Z</time>
      </trkpt>
      <trkpt lat="48.57759" lon="2.09253">
        <ele>84</ele>
        <time>2021-03-07T10:16:40.982Z</time>
      </trkpt>
      <trkpt lat="48.57758" lon="2.09253">
        <ele>84</ele>
        <time>2021-03-07T10:16:41.982Z</time>
      </trkpt>
      <trkpt lat="48.57757" lon="2.09253">
        <ele>84</ele>
        <time>2021-03-07T10:16:42.982Z</time>
      </trkpt>
      <trkpt lat="48.57755" lon="2.09253">
        <ele>85</ele>
        <time>2021-03-07T10:16:43.982Z</time>
      </trkpt>
      <trkpt lat="48.57754" lon="2.09253">
        <ele>85</ele>
        <time>2021-03-07T10:16:44.981Z</time>
      </trkpt>
      <trkpt lat="48.57753" lon="2.09253">
        <ele>86</ele>
        <time>2021-03-07T10:16:45.982Z</time>
      </trkpt>
      <trkpt lat="48.57752" lon="2.09253">
        <ele>87</ele>
        <time>2021-03-07T10:16:46.981Z</time>
      </trkpt>
      <trkpt lat="48.57751" lon="2.09253">
        <ele>87</ele>
        <time>2021-03-07T10:16:47.981Z</time>
      </trkpt>
      <trkpt lat="48.5775" lon="2.09253">
        <ele>87</ele>
        <time>2021-03-07T10:16:48.982Z</time>
      </trkpt>
      <trkpt lat="48.57749" lon="2.09253">
        <ele>87</ele>
        <time>2021-03-07T10:16:49.981Z</time>
      </trkpt>
      <trkpt lat="48.57747" lon="2.09254">
        <ele>87</ele>
        <time>2021-03-07T10:16:50.982Z</time>
      </trkpt>
      <trkpt lat="48.57746" lon="2.09254">
        <ele>87</ele>
        <time>2021-03-07T10:16:51.982Z</time>
      </trkpt>
      <trkpt lat="48.57745" lon="2.09254">
        <ele>87</ele>
        <time>2021-03-07T10:16:52.982Z</time>
      </trkpt>
      <trkpt lat="48.57743" lon="2.09254">
        <ele>87</ele>
        <time>2021-03-07T10:16:53.982Z</time>
      </trkpt>
      <trkpt lat="48.57742" lon="2.09254">
        <ele>87</ele>
        <time>2021-03-07T10:16:54.982Z</time>
      </trkpt>
      <trkpt lat="48.57741" lon="2.09255">
        <ele>87</ele>
        <time>2021-03-07T10:16:55.981Z</time>
      </trkpt>
      <trkpt lat="48.57739" lon="2.09255">
        <ele>87</ele>
        <time>2021-03-07T10:16:56.982Z</time>
      </trkpt>
      <trkpt lat="48.57738" lon="2.09255">
        <ele>87</ele>
        <time>2021-03-07T10:16:57.981Z</time>
      </trkpt>
      <trkpt lat="48.57737" lon="2.09256">
        <ele>87</ele>
        <time>2021-03-07T10:16:58.982Z</time>
      </trkpt>
      <trkpt lat="48.57735" lon="2.09256">
        <ele>86</ele>
        <time>2021-03-07T10:16:59.981Z</time>
      </trkpt>
      <trkpt lat="48.57734" lon="2.09256">
        <ele>86</ele>
        <time>2021-03-07T10:17:00.982Z</time>
      </trkpt>
      <trkpt lat="48.57733" lon="2.09256">
        <ele>85</ele>
        <time>2021-03-07T10:17:01.981Z</time>
      </trkpt>
      <trkpt lat="48.57732" lon="2.09256">
        <ele>85</ele>
        <time>2021-03-07T10:17:02.982Z</time>
      </trkpt>
      <trkpt lat="48.57731" lon="2.09256">
        <ele>84</ele>
        <time>2021-03-07T10:17:03.981Z</time>
      </trkpt>
      <trkpt lat="48.5773" lon="2.09256">
        <ele>84</ele>
        <time>2021-03-07T10:17:04.982Z</time>
      </trkpt>
      <trkpt lat="48.57728" lon="2.09256">
        <ele>84</ele>
        <time>2021-03-07T10:17:05.982Z</time>
      </trkpt>
      <trkpt lat="48.57727" lon="2.09256">
        <ele>84</ele>
        <time>2021-03-07T10:17:06.982Z</time>
      </trkpt>
      <trkpt lat="48.57726" lon="2.09256">
        <ele>84</ele>
        <time>2021-03-07T10:17:07.982Z</time>
      </trkpt>
      <trkpt lat="48.57724" lon="2.09257">
        <ele>84</ele>
        <time>2021-03-07T10:17:08.982Z</time>
      </trkpt>
      <trkpt lat="48.57723" lon="2.09257">
        <ele>84</ele>
        <time>2021-03-07T10:17:09.982Z</time>
      </trkpt>
      <trkpt lat="48.5772" lon="2.09259">
        <ele>84</ele>
        <time>2021-03-07T10:17:10.982Z</time>
      </trkpt>
      <trkpt lat="48.57718" lon="2.0926">
        <ele>84</ele>
        <time>2021-03-07T10:17:11.982Z</time>
      </trkpt>
      <trkpt lat="48.57717" lon="2.09259">
        <ele>84</ele>
        <time>2021-03-07T10:17:12.982Z</time>
      </trkpt>
      <trkpt lat="48.57715" lon="2.0926">
        <ele>84</ele>
        <time>2021-03-07T10:17:13.982Z</time>
      </trkpt>
      <trkpt lat="48.57714" lon="2.0926">
        <ele>84</ele>
        <time>2021-03-07T10:17:14.981Z</time>
      </trkpt>
      <trkpt lat="48.57713" lon="2.0926">
        <ele>84</ele>
        <time>2021-03-07T10:17:15.982Z</time>
      </trkpt>
      <trkpt lat="48.57712" lon="2.09259">
        <ele>84</ele>
        <time>2021-03-07T10:17:16.982Z</time>
      </trkpt>
      <trkpt lat="48.57711" lon="2.09259">
        <ele>84</ele>
        <time>2021-03-07T10:17:17.982Z</time>
      </trkpt>
      <trkpt lat="48.57709" lon="2.09259">
        <ele>84</ele>
        <time>2021-03-07T10:17:18.982Z</time>
      </trkpt>
      <trkpt lat="48.57708" lon="2.09259">
        <ele>84</ele>
        <time>2021-03-07T10:17:19.982Z</time>
      </trkpt>
      <trkpt lat="48.57707" lon="2.09259">
        <ele>85</ele>
        <time>2021-03-07T10:17:20.982Z</time>
      </trkpt>
      <trkpt lat="48.57705" lon="2.09258">
        <ele>86</ele>
        <time>2021-03-07T10:17:21.981Z</time>
      </trkpt>
      <trkpt lat="48.57704" lon="2.09259">
        <ele>87</ele>
        <time>2021-03-07T10:17:22.982Z</time>
      </trkpt>
      <trkpt lat="48.57703" lon="2.09259">
        <ele>87</ele>
        <time>2021-03-07T10:17:23.982Z</time>
      </trkpt>
      <trkpt lat="48.57701" lon="2.09259">
        <ele>88</ele>
        <time>2021-03-07T10:17:24.981Z</time>
      </trkpt>
      <trkpt lat="48.57699" lon="2.09259">
        <ele>88</ele>
        <time>2021-03-07T10:17:25.982Z</time>
      </trkpt>
      <trkpt lat="48.57698" lon="2.09259">
        <ele>88</ele>
        <time>2021-03-07T10:17:26.981Z</time>
      </trkpt>
      <trkpt lat="48.57696" lon="2.09259">
        <ele>88</ele>
        <time>2021-03-07T10:17:27.982Z</time>
      </trkpt>
      <trkpt lat="48.57695" lon="2.09259">
        <ele>88</ele>
        <time>2021-03-07T10:17:28.981Z</time>
      </trkpt>
      <trkpt lat="48.57694" lon="2.09258">
        <ele>87</ele>
        <time>2021-03-07T10:17:29.981Z</time>
      </trkpt>
      <trkpt lat="48.57693" lon="2.09258">
        <ele>86</ele>
        <time>2021-03-07T10:17:30.982Z</time>
      </trkpt>
      <trkpt lat="48.57692" lon="2.09258">
        <ele>86</ele>
        <time>2021-03-07T10:17:31.982Z</time>
      </trkpt>
      <trkpt lat="48.57691" lon="2.09258">
        <ele>85</ele>
        <time>2021-03-07T10:17:32.982Z</time>
      </trkpt>
      <trkpt lat="48.5769" lon="2.09258">
        <ele>85</ele>
        <time>2021-03-07T10:17:33.982Z</time>
      </trkpt>
      <trkpt lat="48.57689" lon="2.09258">
        <ele>85</ele>
        <time>2021-03-07T10:17:34.982Z</time>
      </trkpt>
      <trkpt lat="48.57687" lon="2.09258">
        <ele>85</ele>
        <time>2021-03-07T10:17:35.981Z</time>
      </trkpt>
      <trkpt lat="48.57686" lon="2.09259">
        <ele>85</ele>
        <time>2021-03-07T10:17:36.982Z</time>
      </trkpt>
      <trkpt lat="48.57685" lon="2.09261">
        <ele>85</ele>
        <time>2021-03-07T10:17:37.982Z</time>
      </trkpt>
      <trkpt lat="48.57683" lon="2.09262">
        <ele>85</ele>
        <time>2021-03-07T10:17:38.982Z</time>
      </trkpt>
      <trkpt lat="48.57682" lon="2.09263">
        <ele>86</ele>
        <time>2021-03-07T10:17:39.982Z</time>
      </trkpt>
      <trkpt lat="48.5768" lon="2.09265">
        <ele>86</ele>
        <time>2021-03-07T10:17:40.982Z</time>
      </trkpt>
      <trkpt lat="48.57679" lon="2.09266">
        <ele>86</ele>
        <time>2021-03-07T10:17:41.982Z</time>
      </trkpt>
      <trkpt lat="48.57678" lon="2.09266">
        <ele>86</ele>
        <time>2021-03-07T10:17:42.982Z</time>
      </trkpt>
      <trkpt lat="48.57677" lon="2.09266">
        <ele>85</ele>
        <time>2021-03-07T10:17:43.982Z</time>
      </trkpt>
      <trkpt lat="48.57675" lon="2.09266">
        <ele>85</ele>
        <time>2021-03-07T10:17:44.982Z</time>
      </trkpt>
      <trkpt lat="48.57674" lon="2.09266">
        <ele>85</ele>
        <time>2021-03-07T10:17:45.982Z</time>
      </trkpt>
      <trkpt lat="48.57672" lon="2.09266">
        <ele>85</ele>
        <time>2021-03-07T10:17:46.982Z</time>
      </trkpt>
      <trkpt lat="48.57671" lon="2.09267">
        <ele>85</ele>
        <time>2021-03-07T10:17:47.982Z</time>
      </trkpt>
      <trkpt lat="48.5767" lon="2.09267">
        <ele>86</ele>
        <time>2021-03-07T10:17:48.982Z</time>
      </trkpt>
      <trkpt lat="48.57669" lon="2.09267">
        <ele>85</ele>
        <time>2021-03-07T10:17:49.982Z</time>
      </trkpt>
      <trkpt lat="48.57667" lon="2.09267">
        <ele>85</ele>
        <time>2021-03-07T10:17:50.982Z</time>
      </trkpt>
      <trkpt lat="48.57666" lon="2.09268">
        <ele>85</ele>
        <time>2021-03-07T10:17:51.982Z</time>
      </trkpt>
      <trkpt lat="48.57665" lon="2.09269">
        <ele>85</ele>
        <time>2021-03-07T10:17:52.982Z</time>
      </trkpt>
      <trkpt lat="48.57664" lon="2.0927">
        <ele>84</ele>
        <time>2021-03-07T10:17:53.982Z</time>
      </trkpt>
      <trkpt lat="48.57663" lon="2.0927">
        <ele>84</ele>
        <time>2021-03-07T10:17:54.982Z</time>
      </trkpt>
      <trkpt lat="48.57662" lon="2.09271">
        <ele>84</ele>
        <time>2021-03-07T10:17:55.982Z</time>
      </trkpt>
      <trkpt lat="48.57661" lon="2.09272">
        <ele>84</ele>
        <time>2021-03-07T10:17:56.982Z</time>
      </trkpt>
      <trkpt lat="48.5766" lon="2.09273">
        <ele>84</ele>
        <time>2021-03-07T10:17:57.981Z</time>
      </trkpt>
      <trkpt lat="48.57659" lon="2.09274">
        <ele>83</ele>
        <time>2021-03-07T10:17:58.982Z</time>
      </trkpt>
      <trkpt lat="48.57658" lon="2.09274">
        <ele>83</ele>
        <time>2021-03-07T10:17:59.982Z</time>
      </trkpt>
      <trkpt lat="48.57656" lon="2.09275">
        <ele>82</ele>
        <time>2021-03-07T10:18:00.981Z</time>
      </trkpt>
      <trkpt lat="48.57655" lon="2.09276">
        <ele>82</ele>
        <time>2021-03-07T10:18:01.982Z</time>
      </trkpt>
      <trkpt lat="48.57654" lon="2.09276">
        <ele>81</ele>
        <time>2021-03-07T10:18:02.981Z</time>
      </trkpt>
      <trkpt lat="48.57653" lon="2.09276">
        <ele>81</ele>
        <time>2021-03-07T10:18:03.982Z</time>
      </trkpt>
      <trkpt lat="48.57651" lon="2.09277">
        <ele>80</ele>
        <time>2021-03-07T10:18:04.982Z</time>
      </trkpt>
      <trkpt lat="48.5765" lon="2.09277">
        <ele>80</ele>
        <time>2021-03-07T10:18:05.982Z</time>
      </trkpt>
      <trkpt lat="48.57649" lon="2.09278">
        <ele>80</ele>
        <time>2021-03-07T10:18:06.982Z</time>
      </trkpt>
      <trkpt lat="48.57647" lon="2.09279">
        <ele>79</ele>
        <time>2021-03-07T10:18:07.981Z</time>
      </trkpt>
      <trkpt lat="48.57646" lon="2.0928">
        <ele>79</ele>
        <time>2021-03-07T10:18:08.982Z</time>
      </trkpt>
      <trkpt lat="48.57645" lon="2.0928">
        <ele>79</ele>
        <time>2021-03-07T10:18:09.981Z</time>
      </trkpt>
      <trkpt lat="48.57643" lon="2.09281">
        <ele>79</ele>
        <time>2021-03-07T10:18:10.982Z</time>
      </trkpt>
      <trkpt lat="48.57642" lon="2.09282">
        <ele>79</ele>
        <time>2021-03-07T10:18:11.981Z</time>
      </trkpt>
      <trkpt lat="48.57641" lon="2.09282">
        <ele>80</ele>
        <time>2021-03-07T10:18:12.982Z</time>
      </trkpt>
      <trkpt lat="48.5764" lon="2.09283">
        <ele>80</ele>
        <time>2021-03-07T10:18:13.982Z</time>
      </trkpt>
      <trkpt lat="48.57639" lon="2.09284">
        <ele>80</ele>
        <time>2021-03-07T10:18:14.982Z</time>
      </trkpt>
      <trkpt lat="48.57638" lon="2.09285">
        <ele>80</ele>
        <time>2021-03-07T10:18:15.982Z</time>
      </trkpt>
      <trkpt lat="48.57636" lon="2.09286">
        <ele>80</ele>
        <time>2021-03-07T10:18:16.981Z</time>
      </trkpt>
      <trkpt lat="48.57634" lon="2.09287">
        <ele>80</ele>
        <time>2021-03-07T10:18:17.982Z</time>
      </trkpt>
      <trkpt lat="48.57633" lon="2.09287">
        <ele>80</ele>
        <time>2021-03-07T10:18:18.982Z</time>
      </trkpt>
      <trkpt lat="48.57632" lon="2.09287">
        <ele>81</ele>
        <time>2021-03-07T10:18:19.982Z</time>
      </trkpt>
      <trkpt lat="48.57631" lon="2.09288">
        <ele>81</ele>
        <time>2021-03-07T10:18:20.982Z</time>
      </trkpt>
      <trkpt lat="48.57629" lon="2.09288">
        <ele>81</ele>
        <time>2021-03-07T10:18:21.981Z</time>
      </trkpt>
      <trkpt lat="48.57628" lon="2.09289">
        <ele>81</ele>
        <time>2021-03-07T10:18:22.982Z</time>
      </trkpt>
      <trkpt lat="48.57626" lon="2.09289">
        <ele>81</ele>
        <time>2021-03-07T10:18:23.982Z</time>
      </trkpt>
      <trkpt lat="48.57625" lon="2.09289">
        <ele>81</ele>
        <time>2021-03-07T10:18:24.981Z</time>
      </trkpt>
      <trkpt lat="48.57624" lon="2.0929">
        <ele>81</ele>
        <time>2021-03-07T10:18:25.981Z</time>
      </trkpt>
      <trkpt lat="48.57623" lon="2.09291">
        <ele>80</ele>
        <time>2021-03-07T10:18:26.982Z</time>
      </trkpt>
      <trkpt lat="48.57622" lon="2.09291">
        <ele>80</ele>
        <time>2021-03-07T10:18:27.982Z</time>
      </trkpt>
      <trkpt lat="48.5762" lon="2.09292">
        <ele>80</ele>
        <time>2021-03-07T10:18:28.982Z</time>
      </trkpt>
      <trkpt lat="48.57618" lon="2.09292">
        <ele>80</ele>
        <time>2021-03-07T10:18:29.981Z</time>
      </trkpt>
      <trkpt lat="48.57617" lon="2.09292">
        <ele>79</ele>
        <time>2021-03-07T10:18:30.981Z</time>
      </trkpt>
      <trkpt lat="48.57615" lon="2.09293">
        <ele>78</ele>
        <time>2021-03-07T10:18:31.982Z</time>
      </trkpt>
      <trkpt lat="48.57614" lon="2.09294">
        <ele>77</ele>
        <time>2021-03-07T10:18:32.982Z</time>
      </trkpt>
      <trkpt lat="48.57613" lon="2.09294">
        <ele>76</ele>
        <time>2021-03-07T10:18:33.982Z</time>
      </trkpt>
      <trkpt lat="48.57611" lon="2.09295">
        <ele>76</ele>
        <time>2021-03-07T10:18:34.982Z</time>
      </trkpt>
      <trkpt lat="48.5761" lon="2.09296">
        <ele>75</ele>
        <time>2021-03-07T10:18:35.982Z</time>
      </trkpt>
      <trkpt lat="48.57609" lon="2.09296">
        <ele>75</ele>
        <time>2021-03-07T10:18:36.981Z</time>
      </trkpt>
      <trkpt lat="48.57608" lon="2.09298">
        <ele>74</ele>
        <time>2021-03-07T10:18:37.982Z</time>
      </trkpt>
      <trkpt lat="48.57606" lon="2.09299">
        <ele>74</ele>
        <time>2021-03-07T10:18:38.981Z</time>
      </trkpt>
      <trkpt lat="48.57604" lon="2.093">
        <ele>74</ele>
        <time>2021-03-07T10:18:39.982Z</time>
      </trkpt>
      <trkpt lat="48.57603" lon="2.09301">
        <ele>75</ele>
        <time>2021-03-07T10:18:40.982Z</time>
      </trkpt>
      <trkpt lat="48.57602" lon="2.09301">
        <ele>75</ele>
        <time>2021-03-07T10:18:41.981Z</time>
      </trkpt>
      <trkpt lat="48.57601" lon="2.09302">
        <ele>75</ele>
        <time>2021-03-07T10:18:42.982Z</time>
      </trkpt>
      <trkpt lat="48.576" lon="2.09303">
        <ele>75</ele>
        <time>2021-03-07T10:18:43.981Z</time>
      </trkpt>
      <trkpt lat="48.57598" lon="2.09304">
        <ele>75</ele>
        <time>2021-03-07T10:18:44.982Z</time>
      </trkpt>
      <trkpt lat="48.57597" lon="2.09305">
        <ele>75</ele>
        <time>2021-03-07T10:18:45.982Z</time>
      </trkpt>
      <trkpt lat="48.57596" lon="2.09306">
        <ele>75</ele>
        <time>2021-03-07T10:18:46.982Z</time>
      </trkpt>
      <trkpt lat="48.57595" lon="2.09307">
        <ele>75</ele>
        <time>2021-03-07T10:18:47.982Z</time>
      </trkpt>
      <trkpt lat="48.57594" lon="2.09307">
        <ele>75</ele>
        <time>2021-03-07T10:18:48.982Z</time>
      </trkpt>
      <trkpt lat="48.57592" lon="2.09308">
        <ele>75</ele>
        <time>2021-03-07T10:18:49.982Z</time>
      </trkpt>
      <trkpt lat="48.57591" lon="2.09309">
        <ele>75</ele>
        <time>2021-03-07T10:18:50.982Z</time>
      </trkpt>
      <trkpt lat="48.5759" lon="2.0931">
        <ele>74</ele>
        <time>2021-03-07T10:18:51.982Z</time>
      </trkpt>
      <trkpt lat="48.57589" lon="2.0931">
        <ele>74</ele>
        <time>2021-03-07T10:18:52.982Z</time>
      </trkpt>
      <trkpt lat="48.57588" lon="2.09311">
        <ele>74</ele>
        <time>2021-03-07T10:18:53.982Z</time>
      </trkpt>
      <trkpt lat="48.57586" lon="2.09311">
        <ele>74</ele>
        <time>2021-03-07T10:18:54.982Z</time>
      </trkpt>
      <trkpt lat="48.57585" lon="2.09311">
        <ele>74</ele>
        <time>2021-03-07T10:18:55.981Z</time>
      </trkpt>
      <trkpt lat="48.57583" lon="2.09312">
        <ele>74</ele>
        <time>2021-03-07T10:18:56.982Z</time>
      </trkpt>
      <trkpt lat="48.57582" lon="2.09313">
        <ele>73</ele>
        <time>2021-03-07T10:18:57.982Z</time>
      </trkpt>
      <trkpt lat="48.57581" lon="2.09313">
        <ele>73</ele>
        <time>2021-03-07T10:18:58.982Z</time>
      </trkpt>
      <trkpt lat="48.5758" lon="2.09314">
        <ele>73</ele>
        <time>2021-03-07T10:18:59.982Z</time>
      </trkpt>
      <trkpt lat="48.57578" lon="2.09315">
        <ele>72</ele>
        <time>2021-03-07T10:19:00.982Z</time>
      </trkpt>
      <trkpt lat="48.57577" lon="2.09316">
        <ele>71</ele>
        <time>2021-03-07T10:19:01.982Z</time>
      </trkpt>
      <trkpt lat="48.57575" lon="2.09317">
        <ele>70</ele>
        <time>2021-03-07T10:19:02.982Z</time>
      </trkpt>
      <trkpt lat="48.57574" lon="2.09318">
        <ele>69</ele>
        <time>2021-03-07T10:19:03.981Z</time>
      </trkpt>
      <trkpt lat="48.57573" lon="2.09319">
        <ele>69</ele>
        <time>2021-03-07T10:19:04.981Z</time>
      </trkpt>
      <trkpt lat="48.57571" lon="2.09319">
        <ele>68</ele>
        <time>2021-03-07T10:19:05.982Z</time>
      </trkpt>
      <trkpt lat="48.5757" lon="2.09319">
        <ele>68</ele>
        <time>2021-03-07T10:19:06.981Z</time>
      </trkpt>
      <trkpt lat="48.57569" lon="2.0932">
        <ele>68</ele>
        <time>2021-03-07T10:19:07.982Z</time>
      </trkpt>
      <trkpt lat="48.57568" lon="2.0932">
        <ele>68</ele>
        <time>2021-03-07T10:19:08.982Z</time>
      </trkpt>
      <trkpt lat="48.57566" lon="2.09321">
        <ele>67</ele>
        <time>2021-03-07T10:19:09.982Z</time>
      </trkpt>
      <trkpt lat="48.57565" lon="2.09321">
        <ele>67</ele>
        <time>2021-03-07T10:19:10.982Z</time>
      </trkpt>
      <trkpt lat="48.57564" lon="2.09322">
        <ele>67</ele>
        <time>2021-03-07T10:19:11.981Z</time>
      </trkpt>
      <trkpt lat="48.57563" lon="2.09323">
        <ele>67</ele>
        <time>2021-03-07T10:19:12.982Z</time>
      </trkpt>
      <trkpt lat="48.57562" lon="2.09323">
        <ele>67</ele>
        <time>2021-03-07T10:19:13.981Z</time>
      </trkpt>
      <trkpt lat="48.57561" lon="2.09324">
        <ele>67</ele>
        <time>2021-03-07T10:19:14.982Z</time>
      </trkpt>
      <trkpt lat="48.5756" lon="2.09325">
        <ele>66</ele>
        <time>2021-03-07T10:19:15.981Z</time>
      </trkpt>
      <trkpt lat="48.57558" lon="2.09326">
        <ele>66</ele>
        <time>2021-03-07T10:19:16.982Z</time>
      </trkpt>
      <trkpt lat="48.57557" lon="2.09327">
        <ele>66</ele>
        <time>2021-03-07T10:19:17.982Z</time>
      </trkpt>
      <trkpt lat="48.57556" lon="2.09328">
        <ele>66</ele>
        <time>2021-03-07T10:19:18.982Z</time>
      </trkpt>
      <trkpt lat="48.57555" lon="2.09329">
        <ele>66</ele>
        <time>2021-03-07T10:19:19.981Z</time>
      </trkpt>
      <trkpt lat="48.57553" lon="2.09329">
        <ele>66</ele>
        <time>2021-03-07T10:19:20.982Z</time>
      </trkpt>
      <trkpt lat="48.57552" lon="2.0933">
        <ele>65</ele>
        <time>2021-03-07T10:19:21.982Z</time>
      </trkpt>
      <trkpt lat="48.57552" lon="2.09331">
        <ele>65</ele>
        <time>2021-03-07T10:19:22.982Z</time>
      </trkpt>
      <trkpt lat="48.57551" lon="2.09331">
        <ele>65</ele>
        <time>2021-03-07T10:19:23.982Z</time>
      </trkpt>
      <trkpt lat="48.5755" lon="2.09332">
        <ele>65</ele>
        <time>2021-03-07T10:19:24.982Z</time>
      </trkpt>
      <trkpt lat="48.57548" lon="2.09333">
        <ele>65</ele>
        <time>2021-03-07T10:19:25.982Z</time>
      </trkpt>
      <trkpt lat="48.57547" lon="2.09333">
        <ele>65</ele>
        <time>2021-03-07T10:19:26.981Z</time>
      </trkpt>
      <trkpt lat="48.57545" lon="2.09333">
        <ele>65</ele>
        <time>2021-03-07T10:19:27.981Z</time>
      </trkpt>
      <trkpt lat="48.57544" lon="2.09334">
        <ele>65</ele>
        <time>2021-03-07T10:19:28.982Z</time>
      </trkpt>
      <trkpt lat="48.57543" lon="2.09335">
        <ele>65</ele>
        <time>2021-03-07T10:19:29.982Z</time>
      </trkpt>
      <trkpt lat="48.57542" lon="2.09335">
        <ele>65</ele>
        <time>2021-03-07T10:19:30.982Z</time>
      </trkpt>
      <trkpt lat="48.57541" lon="2.09336">
        <ele>66</ele>
        <time>2021-03-07T10:19:31.981Z</time>
      </trkpt>
      <trkpt lat="48.5754" lon="2.09336">
        <ele>66</ele>
        <time>2021-03-07T10:19:32.982Z</time>
      </trkpt>
      <trkpt lat="48.57539" lon="2.09336">
        <ele>66</ele>
        <time>2021-03-07T10:19:33.981Z</time>
      </trkpt>
      <trkpt lat="48.57538" lon="2.09337">
        <ele>66</ele>
        <time>2021-03-07T10:19:34.982Z</time>
      </trkpt>
      <trkpt lat="48.57537" lon="2.09337">
        <ele>66</ele>
        <time>2021-03-07T10:19:35.981Z</time>
      </trkpt>
      <trkpt lat="48.57535" lon="2.09338">
        <ele>67</ele>
        <time>2021-03-07T10:19:36.982Z</time>
      </trkpt>
      <trkpt lat="48.57534" lon="2.0934">
        <ele>67</ele>
        <time>2021-03-07T10:19:37.982Z</time>
      </trkpt>
      <trkpt lat="48.57533" lon="2.09341">
        <ele>67</ele>
        <time>2021-03-07T10:19:38.981Z</time>
      </trkpt>
      <trkpt lat="48.57531" lon="2.09342">
        <ele>68</ele>
        <time>2021-03-07T10:19:39.981Z</time>
      </trkpt>
      <trkpt lat="48.5753" lon="2.09343">
        <ele>69</ele>
        <time>2021-03-07T10:19:40.981Z</time>
      </trkpt>
      <trkpt lat="48.57529" lon="2.09343">
        <ele>69</ele>
        <time>2021-03-07T10:19:41.982Z</time>
      </trkpt>
      <trkpt lat="48.57528" lon="2.09344">
        <ele>70</ele>
        <time>2021-03-07T10:19:42.982Z</time>
      </trkpt>
      <trkpt lat="48.57526" lon="2.09345">
        <ele>70</ele>
        <time>2021-03-07T10:19:43.981Z</time>
      </trkpt>
      <trkpt lat="48.57526" lon="2.09345">
        <ele>70</ele>
        <time>2021-03-07T10:19:44.982Z</time>
      </trkpt>
      <trkpt lat="48.57525" lon="2.09346">
        <ele>71</ele>
        <time>2021-03-07T10:19:45.982Z</time>
      </trkpt>
      <trkpt lat="48.57523" lon="2.09347">
        <ele>71</ele>
        <time>2021-03-07T10:19:46.981Z</time>
      </trkpt>
      <trkpt lat="48.57522" lon="2.09348">
        <ele>72</ele>
        <time>2021-03-07T10:19:47.981Z</time>
      </trkpt>
      <trkpt lat="48.57521" lon="2.09348">
        <ele>72</ele>
        <time>2021-03-07T10:19:48.982Z</time>
      </trkpt>
      <trkpt lat="48.57519" lon="2.09349">
        <ele>72</ele>
        <time>2021-03-07T10:19:49.982Z</time>
      </trkpt>
      <trkpt lat="48.57518" lon="2.0935">
        <ele>72</ele>
        <time>2021-03-07T10:19:50.982Z</time>
      </trkpt>
      <trkpt lat="48.57517" lon="2.0935">
        <ele>73</ele>
        <time>2021-03-07T10:19:51.982Z</time>
      </trkpt>
      <trkpt lat="48.57516" lon="2.09351">
        <ele>73</ele>
        <time>2021-03-07T10:19:52.982Z</time>
      </trkpt>
      <trkpt lat="48.57515" lon="2.09352">
        <ele>72</ele>
        <time>2021-03-07T10:19:53.982Z</time>
      </trkpt>
      <trkpt lat="48.57514" lon="2.09353">
        <ele>72</ele>
        <time>2021-03-07T10:19:54.981Z</time>
      </trkpt>
      <trkpt lat="48.57513" lon="2.09353">
        <ele>71</ele>
        <time>2021-03-07T10:19:55.982Z</time>
      </trkpt>
      <trkpt lat="48.57512" lon="2.09354">
        <ele>71</ele>
        <time>2021-03-07T10:19:56.981Z</time>
      </trkpt>
      <trkpt lat="48.5751" lon="2.09355">
        <ele>71</ele>
        <time>2021-03-07T10:19:57.982Z</time>
      </trkpt>
      <trkpt lat="48.57509" lon="2.09356">
        <ele>71</ele>
        <time>2021-03-07T10:19:58.981Z</time>
      </trkpt>
      <trkpt lat="48.57508" lon="2.09357">
        <ele>71</ele>
        <time>2021-03-07T10:19:59.981Z</time>
      </trkpt>
      <trkpt lat="48.57507" lon="2.09358">
        <ele>71</ele>
        <time>2021-03-07T10:20:00.982Z</time>
      </trkpt>
      <trkpt lat="48.57505" lon="2.0936">
        <ele>71</ele>
        <time>2021-03-07T10:20:01.981Z</time>
      </trkpt>
      <trkpt lat="48.57504" lon="2.09361">
        <ele>71</ele>
        <time>2021-03-07T10:20:02.982Z</time>
      </trkpt>
      <trkpt lat="48.57503" lon="2.09361">
        <ele>71</ele>
        <time>2021-03-07T10:20:03.981Z</time>
      </trkpt>
      <trkpt lat="48.57502" lon="2.09362">
        <ele>71</ele>
        <time>2021-03-07T10:20:04.982Z</time>
      </trkpt>
      <trkpt lat="48.57502" lon="2.09362">
        <ele>71</ele>
        <time>2021-03-07T10:20:05.981Z</time>
      </trkpt>
      <trkpt lat="48.57501" lon="2.09362">
        <ele>71</ele>
        <time>2021-03-07T10:20:06.982Z</time>
      </trkpt>
      <trkpt lat="48.575" lon="2.09362">
        <ele>72</ele>
        <time>2021-03-07T10:20:07.982Z</time>
      </trkpt>
      <trkpt lat="48.57499" lon="2.09362">
        <ele>72</ele>
        <time>2021-03-07T10:20:08.982Z</time>
      </trkpt>
      <trkpt lat="48.57499" lon="2.09362">
        <ele>72</ele>
        <time>2021-03-07T10:20:09.982Z</time>
      </trkpt>
      <trkpt lat="48.57497" lon="2.09363">
        <ele>72</ele>
        <time>2021-03-07T10:20:10.982Z</time>
      </trkpt>
      <trkpt lat="48.57496" lon="2.09363">
        <ele>72</ele>
        <time>2021-03-07T10:20:11.981Z</time>
      </trkpt>
      <trkpt lat="48.57495" lon="2.09364">
        <ele>72</ele>
        <time>2021-03-07T10:20:12.981Z</time>
      </trkpt>
      <trkpt lat="48.57494" lon="2.09365">
        <ele>72</ele>
        <time>2021-03-07T10:20:13.982Z</time>
      </trkpt>
      <trkpt lat="48.57492" lon="2.09365">
        <ele>72</ele>
        <time>2021-03-07T10:20:14.981Z</time>
      </trkpt>
      <trkpt lat="48.57491" lon="2.09366">
        <ele>72</ele>
        <time>2021-03-07T10:20:15.982Z</time>
      </trkpt>
      <trkpt lat="48.57489" lon="2.09366">
        <ele>72</ele>
        <time>2021-03-07T10:20:16.981Z</time>
      </trkpt>
      <trkpt lat="48.57487" lon="2.09367">
        <ele>72</ele>
        <time>2021-03-07T10:20:17.981Z</time>
      </trkpt>
      <trkpt lat="48.57486" lon="2.09367">
        <ele>71</ele>
        <time>2021-03-07T10:20:18.982Z</time>
      </trkpt>
      <trkpt lat="48.57485" lon="2.09368">
        <ele>71</ele>
        <time>2021-03-07T10:20:19.982Z</time>
      </trkpt>
      <trkpt lat="48.57484" lon="2.09368">
        <ele>71</ele>
        <time>2021-03-07T10:20:20.981Z</time>
      </trkpt>
      <trkpt lat="48.57483" lon="2.09368">
        <ele>70</ele>
        <time>2021-03-07T10:20:21.982Z</time>
      </trkpt>
      <trkpt lat="48.57482" lon="2.09368">
        <ele>70</ele>
        <time>2021-03-07T10:20:22.981Z</time>
      </trkpt>
      <trkpt lat="48.5748" lon="2.09368">
        <ele>70</ele>
        <time>2021-03-07T10:20:23.982Z</time>
      </trkpt>
      <trkpt lat="48.57479" lon="2.09369">
        <ele>70</ele>
        <time>2021-03-07T10:20:24.981Z</time>
      </trkpt>
      <trkpt lat="48.57477" lon="2.09369">
        <ele>70</ele>
        <time>2021-03-07T10:20:25.982Z</time>
      </trkpt>
      <trkpt lat="48.57476" lon="2.09369">
        <ele>70</ele>
        <time>2021-03-07T10:20:26.981Z</time>
      </trkpt>
      <trkpt lat="48.57475" lon="2.09369">
        <ele>69</ele>
        <time>2021-03-07T10:20:27.981Z</time>
      </trkpt>
      <trkpt lat="48.57474" lon="2.09369">
        <ele>69</ele>
        <time>2021-03-07T10:20:28.982Z</time>
      </trkpt>
      <trkpt lat="48.57473" lon="2.09369">
        <ele>69</ele>
        <time>2021-03-07T10:20:29.981Z</time>
      </trkpt>
      <trkpt lat="48.57471" lon="2.09369">
        <ele>69</ele>
        <time>2021-03-07T10:20:30.982Z</time>
      </trkpt>
      <trkpt lat="48.5747" lon="2.0937">
        <ele>69</ele>
        <time>2021-03-07T10:20:31.981Z</time>
      </trkpt>
      <trkpt lat="48.57469" lon="2.0937">
        <ele>69</ele>
        <time>2021-03-07T10:20:32.982Z</time>
      </trkpt>
      <trkpt lat="48.57468" lon="2.09371">
        <ele>70</ele>
        <time>2021-03-07T10:20:33.981Z</time>
      </trkpt>
      <trkpt lat="48.57466" lon="2.09371">
        <ele>70</ele>
        <time>2021-03-07T10:20:34.982Z</time>
      </trkpt>
      <trkpt lat="48.57466" lon="2.09371">
        <ele>70</ele>
        <time>2021-03-07T10:20:35.982Z</time>
      </trkpt>
      <trkpt lat="48.57465" lon="2.09372">
        <ele>70</ele>
        <time>2021-03-07T10:20:36.982Z</time>
      </trkpt>
      <trkpt lat="48.57463" lon="2.09372">
        <ele>70</ele>
        <time>2021-03-07T10:20:37.982Z</time>
      </trkpt>
      <trkpt lat="48.57463" lon="2.09372">
        <ele>71</ele>
        <time>2021-03-07T10:20:38.981Z</time>
      </trkpt>
      <trkpt lat="48.57462" lon="2.09373">
        <ele>71</ele>
        <time>2021-03-07T10:20:39.982Z</time>
      </trkpt>
      <trkpt lat="48.5746" lon="2.09373">
        <ele>72</ele>
        <time>2021-03-07T10:20:40.981Z</time>
      </trkpt>
      <trkpt lat="48.57459" lon="2.09373">
        <ele>73</ele>
        <time>2021-03-07T10:20:41.981Z</time>
      </trkpt>
      <trkpt lat="48.57458" lon="2.09373">
        <ele>73</ele>
        <time>2021-03-07T10:20:42.982Z</time>
      </trkpt>
      <trkpt lat="48.57457" lon="2.09373">
        <ele>74</ele>
        <time>2021-03-07T10:20:43.982Z</time>
      </trkpt>
      <trkpt lat="48.57455" lon="2.09374">
        <ele>75</ele>
        <time>2021-03-07T10:20:44.981Z</time>
      </trkpt>
      <trkpt lat="48.57454" lon="2.09374">
        <ele>76</ele>
        <time>2021-03-07T10:20:45.982Z</time>
      </trkpt>
      <trkpt lat="48.57453" lon="2.09375">
        <ele>76</ele>
        <time>2021-03-07T10:20:46.981Z</time>
      </trkpt>
      <trkpt lat="48.57452" lon="2.09374">
        <ele>77</ele>
        <time>2021-03-07T10:20:47.982Z</time>
      </trkpt>
      <trkpt lat="48.57451" lon="2.09373">
        <ele>77</ele>
        <time>2021-03-07T10:20:48.981Z</time>
      </trkpt>
      <trkpt lat="48.5745" lon="2.09372">
        <ele>76</ele>
        <time>2021-03-07T10:20:49.982Z</time>
      </trkpt>
      <trkpt lat="48.57449" lon="2.09369">
        <ele>76</ele>
        <time>2021-03-07T10:20:50.982Z</time>
      </trkpt>
      <trkpt lat="48.57448" lon="2.09368">
        <ele>74</ele>
        <time>2021-03-07T10:20:51.981Z</time>
      </trkpt>
      <trkpt lat="48.57447" lon="2.09368">
        <ele>73</ele>
        <time>2021-03-07T10:20:52.982Z</time>
      </trkpt>
      <trkpt lat="48.57445" lon="2.09366">
        <ele>71</ele>
        <time>2021-03-07T10:20:53.981Z</time>
      </trkpt>
      <trkpt lat="48.57444" lon="2.09365">
        <ele>70</ele>
        <time>2021-03-07T10:20:54.982Z</time>
      </trkpt>
      <trkpt lat="48.57443" lon="2.09364">
        <ele>70</ele>
        <time>2021-03-07T10:20:55.982Z</time>
      </trkpt>
      <trkpt lat="48.57442" lon="2.09363">
        <ele>70</ele>
        <time>2021-03-07T10:20:56.981Z</time>
      </trkpt>
      <trkpt lat="48.57441" lon="2.09362">
        <ele>69</ele>
        <time>2021-03-07T10:20:57.982Z</time>
      </trkpt>
      <trkpt lat="48.5744" lon="2.09361">
        <ele>69</ele>
        <time>2021-03-07T10:20:58.982Z</time>
      </trkpt>
      <trkpt lat="48.57439" lon="2.0936">
        <ele>69</ele>
        <time>2021-03-07T10:20:59.982Z</time>
      </trkpt>
      <trkpt lat="48.57437" lon="2.09359">
        <ele>68</ele>
        <time>2021-03-07T10:21:00.982Z</time>
      </trkpt>
      <trkpt lat="48.57436" lon="2.09358">
        <ele>68</ele>
        <time>2021-03-07T10:21:01.982Z</time>
      </trkpt>
      <trkpt lat="48.57436" lon="2.09357">
        <ele>67</ele>
        <time>2021-03-07T10:21:02.982Z</time>
      </trkpt>
      <trkpt lat="48.57435" lon="2.09356">
        <ele>67</ele>
        <time>2021-03-07T10:21:03.982Z</time>
      </trkpt>
      <trkpt lat="48.57434" lon="2.09356">
        <ele>67</ele>
        <time>2021-03-07T10:21:04.982Z</time>
      </trkpt>
      <trkpt lat="48.57432" lon="2.09355">
        <ele>67</ele>
        <time>2021-03-07T10:21:05.981Z</time>
      </trkpt>
      <trkpt lat="48.57431" lon="2.09354">
        <ele>67</ele>
        <time>2021-03-07T10:21:06.982Z</time>
      </trkpt>
      <trkpt lat="48.5743" lon="2.09353">
        <ele>67</ele>
        <time>2021-03-07T10:21:07.982Z</time>
      </trkpt>
      <trkpt lat="48.57429" lon="2.09352">
        <ele>67</ele>
        <time>2021-03-07T10:21:08.982Z</time>
      </trkpt>
      <trkpt lat="48.57428" lon="2.09352">
        <ele>67</ele>
        <time>2021-03-07T10:21:09.982Z</time>
      </trkpt>
      <trkpt lat="48.57427" lon="2.09351">
        <ele>66</ele>
        <time>2021-03-07T10:21:10.982Z</time>
      </trkpt>
      <trkpt lat="48.57426" lon="2.0935">
        <ele>66</ele>
        <time>2021-03-07T10:21:11.982Z</time>
      </trkpt>
      <trkpt lat="48.57424" lon="2.09349">
        <ele>66</ele>
        <time>2021-03-07T10:21:12.982Z</time>
      </trkpt>
      <trkpt lat="48.57423" lon="2.09348">
        <ele>66</ele>
        <time>2021-03-07T10:21:13.981Z</time>
      </trkpt>
      <trkpt lat="48.57422" lon="2.09347">
        <ele>66</ele>
        <time>2021-03-07T10:21:14.982Z</time>
      </trkpt>
      <trkpt lat="48.5742" lon="2.09346">
        <ele>67</ele>
        <time>2021-03-07T10:21:15.981Z</time>
      </trkpt>
      <trkpt lat="48.57419" lon="2.09345">
        <ele>68</ele>
        <time>2021-03-07T10:21:16.982Z</time>
      </trkpt>
      <trkpt lat="48.57417" lon="2.09344">
        <ele>69</ele>
        <time>2021-03-07T10:21:17.982Z</time>
      </trkpt>
      <trkpt lat="48.57416" lon="2.09343">
        <ele>69</ele>
        <time>2021-03-07T10:21:18.982Z</time>
      </trkpt>
      <trkpt lat="48.57414" lon="2.09342">
        <ele>70</ele>
        <time>2021-03-07T10:21:19.982Z</time>
      </trkpt>
      <trkpt lat="48.57413" lon="2.09342">
        <ele>70</ele>
        <time>2021-03-07T10:21:20.982Z</time>
      </trkpt>
      <trkpt lat="48.57412" lon="2.09341">
        <ele>70</ele>
        <time>2021-03-07T10:21:21.982Z</time>
      </trkpt>
      <trkpt lat="48.57411" lon="2.0934">
        <ele>70</ele>
        <time>2021-03-07T10:21:22.982Z</time>
      </trkpt>
      <trkpt lat="48.5741" lon="2.09339">
        <ele>70</ele>
        <time>2021-03-07T10:21:23.981Z</time>
      </trkpt>
      <trkpt lat="48.57409" lon="2.09338">
        <ele>70</ele>
        <time>2021-03-07T10:21:24.982Z</time>
      </trkpt>
      <trkpt lat="48.57407" lon="2.09338">
        <ele>70</ele>
        <time>2021-03-07T10:21:25.982Z</time>
      </trkpt>
      <trkpt lat="48.57406" lon="2.09337">
        <ele>71</ele>
        <time>2021-03-07T10:21:26.982Z</time>
      </trkpt>
      <trkpt lat="48.57405" lon="2.09336">
        <ele>71</ele>
        <time>2021-03-07T10:21:27.982Z</time>
      </trkpt>
      <trkpt lat="48.57404" lon="2.09335">
        <ele>71</ele>
        <time>2021-03-07T10:21:28.982Z</time>
      </trkpt>
      <trkpt lat="48.57403" lon="2.09334">
        <ele>71</ele>
        <time>2021-03-07T10:21:29.981Z</time>
      </trkpt>
      <trkpt lat="48.57401" lon="2.09334">
        <ele>71</ele>
        <time>2021-03-07T10:21:30.981Z</time>
      </trkpt>
      <trkpt lat="48.574" lon="2.09333">
        <ele>70</ele>
        <time>2021-03-07T10:21:31.981Z</time>
      </trkpt>
      <trkpt lat="48.57399" lon="2.09332">
        <ele>70</ele>
        <time>2021-03-07T10:21:32.981Z</time>
      </trkpt>
      <trkpt lat="48.57397" lon="2.09331">
        <ele>69</ele>
        <time>2021-03-07T10:21:33.981Z</time>
      </trkpt>
      <trkpt lat="48.57396" lon="2.0933">
        <ele>69</ele>
        <time>2021-03-07T10:21:34.982Z</time>
      </trkpt>
      <trkpt lat="48.57395" lon="2.09329">
        <ele>68</ele>
        <time>2021-03-07T10:21:35.981Z</time>
      </trkpt>
      <trkpt lat="48.57393" lon="2.09328">
        <ele>67</ele>
        <time>2021-03-07T10:21:36.981Z</time>
      </trkpt>
      <trkpt lat="48.57392" lon="2.09327">
        <ele>67</ele>
        <time>2021-03-07T10:21:37.981Z</time>
      </trkpt>
      <trkpt lat="48.57391" lon="2.09326">
        <ele>67</ele>
        <time>2021-03-07T10:21:38.982Z</time>
      </trkpt>
      <trkpt lat="48.5739" lon="2.09325">
        <ele>67</ele>
        <time>2021-03-07T10:21:39.981Z</time>
      </trkpt>
      <trkpt lat="48.57389" lon="2.09324">
        <ele>66</ele>
        <time>2021-03-07T10:21:40.981Z</time>
      </trkpt>
      <trkpt lat="48.57387" lon="2.09323">
        <ele>66</ele>
        <time>2021-03-07T10:21:41.981Z</time>
      </trkpt>
      <trkpt lat="48.57386" lon="2.09323">
        <ele>66</ele>
        <time>2021-03-07T10:21:42.982Z</time>
      </trkpt>
      <trkpt lat="48.57385" lon="2.09322">
        <ele>67</ele>
        <time>2021-03-07T10:21:43.982Z</time>
      </trkpt>
      <trkpt lat="48.57383" lon="2.09322">
        <ele>68</ele>
        <time>2021-03-07T10:21:44.982Z</time>
      </trkpt>
      <trkpt lat="48.57382" lon="2.09321">
        <ele>69</ele>
        <time>2021-03-07T10:21:45.982Z</time>
      </trkpt>
      <trkpt lat="48.5738" lon="2.09321">
        <ele>69</ele>
        <time>2021-03-07T10:21:46.981Z</time>
      </trkpt>
      <trkpt lat="48.57379" lon="2.0932">
        <ele>69</ele>
        <time>2021-03-07T10:21:47.982Z</time>
      </trkpt>
      <trkpt lat="48.57378" lon="2.09319">
        <ele>69</ele>
        <time>2021-03-07T10:21:48.981Z</time>
      </trkpt>
      <trkpt lat="48.57377" lon="2.09319">
        <ele>70</ele>
        <time>2021-03-07T10:21:49.981Z</time>
      </trkpt>
      <trkpt lat="48.57375" lon="2.09318">
        <ele>70</ele>
        <time>2021-03-07T10:21:50.981Z</time>
      </trkpt>
      <trkpt lat="48.57374" lon="2.09317">
        <ele>71</ele>
        <time>2021-03-07T10:21:51.981Z</time>
      </trkpt>
      <trkpt lat="48.57373" lon="2.09316">
        <ele>71</ele>
        <time>2021-03-07T10:21:52.981Z</time>
      </trkpt>
      <trkpt lat="48.57372" lon="2.09315">
        <ele>70</ele>
        <time>2021-03-07T10:21:53.981Z</time>
      </trkpt>
      <trkpt lat="48.57371" lon="2.09314">
        <ele>69</ele>
        <time>2021-03-07T10:21:54.981Z</time>
      </trkpt>
      <trkpt lat="48.5737" lon="2.09313">
        <ele>68</ele>
        <time>2021-03-07T10:21:55.982Z</time>
      </trkpt>
      <trkpt lat="48.57368" lon="2.09312">
        <ele>68</ele>
        <time>2021-03-07T10:21:56.981Z</time>
      </trkpt>
      <trkpt lat="48.57368" lon="2.09311">
        <ele>67</ele>
        <time>2021-03-07T10:21:57.982Z</time>
      </trkpt>
      <trkpt lat="48.57366" lon="2.0931">
        <ele>67</ele>
        <time>2021-03-07T10:21:58.982Z</time>
      </trkpt>
      <trkpt lat="48.57365" lon="2.09309">
        <ele>67</ele>
        <time>2021-03-07T10:21:59.982Z</time>
      </trkpt>
      <trkpt lat="48.57364" lon="2.09308">
        <ele>67</ele>
        <time>2021-03-07T10:22:00.982Z</time>
      </trkpt>
      <trkpt lat="48.57363" lon="2.09307">
        <ele>67</ele>
        <time>2021-03-07T10:22:01.981Z</time>
      </trkpt>
      <trkpt lat="48.57362" lon="2.09306">
        <ele>67</ele>
        <time>2021-03-07T10:22:02.982Z</time>
      </trkpt>
      <trkpt lat="48.57361" lon="2.09305">
        <ele>68</ele>
        <time>2021-03-07T10:22:03.982Z</time>
      </trkpt>
      <trkpt lat="48.57359" lon="2.09304">
        <ele>68</ele>
        <time>2021-03-07T10:22:04.982Z</time>
      </trkpt>
      <trkpt lat="48.57358" lon="2.09303">
        <ele>68</ele>
        <time>2021-03-07T10:22:05.982Z</time>
      </trkpt>
      <trkpt lat="48.57356" lon="2.09302">
        <ele>68</ele>
        <time>2021-03-07T10:22:06.982Z</time>
      </trkpt>
      <trkpt lat="48.57355" lon="2.09301">
        <ele>68</ele>
        <time>2021-03-07T10:22:07.981Z</time>
      </trkpt>
      <trkpt lat="48.57354" lon="2.093">
        <ele>69</ele>
        <time>2021-03-07T10:22:08.982Z</time>
      </trkpt>
      <trkpt lat="48.57352" lon="2.093">
        <ele>69</ele>
        <time>2021-03-07T10:22:09.982Z</time>
      </trkpt>
      <trkpt lat="48.57351" lon="2.09299">
        <ele>70</ele>
        <time>2021-03-07T10:22:10.982Z</time>
      </trkpt>
      <trkpt lat="48.5735" lon="2.09298">
        <ele>70</ele>
        <time>2021-03-07T10:22:11.982Z</time>
      </trkpt>
      <trkpt lat="48.57349" lon="2.09297">
        <ele>70</ele>
        <time>2021-03-07T10:22:12.981Z</time>
      </trkpt>
      <trkpt lat="48.57347" lon="2.09297">
        <ele>70</ele>
        <time>2021-03-07T10:22:13.982Z</time>
      </trkpt>
      <trkpt lat="48.57345" lon="2.09296">
        <ele>70</ele>
        <time>2021-03-07T10:22:14.981Z</time>
      </trkpt>
      <trkpt lat="48.57344" lon="2.09295">
        <ele>70</ele>
        <time>2021-03-07T10:22:15.982Z</time>
      </trkpt>
      <trkpt lat="48.57343" lon="2.09294">
        <ele>69</ele>
        <time>2021-03-07T10:22:16.982Z</time>
      </trkpt>
      <trkpt lat="48.57342" lon="2.09294">
        <ele>69</ele>
        <time>2021-03-07T10:22:17.982Z</time>
      </trkpt>
      <trkpt lat="48.57341" lon="2.09293">
        <ele>69</ele>
        <time>2021-03-07T10:22:18.981Z</time>
      </trkpt>
      <trkpt lat="48.57339" lon="2.09293">
        <ele>69</ele>
        <time>2021-03-07T10:22:19.981Z</time>
      </trkpt>
      <trkpt lat="48.57338" lon="2.09292">
        <ele>69</ele>
        <time>2021-03-07T10:22:20.981Z</time>
      </trkpt>
      <trkpt lat="48.57337" lon="2.09291">
        <ele>68</ele>
        <time>2021-03-07T10:22:21.982Z</time>
      </trkpt>
      <trkpt lat="48.57335" lon="2.09291">
        <ele>68</ele>
        <time>2021-03-07T10:22:22.982Z</time>
      </trkpt>
      <trkpt lat="48.57334" lon="2.0929">
        <ele>68</ele>
        <time>2021-03-07T10:22:23.982Z</time>
      </trkpt>
      <trkpt lat="48.57333" lon="2.0929">
        <ele>69</ele>
        <time>2021-03-07T10:22:24.982Z</time>
      </trkpt>
      <trkpt lat="48.57331" lon="2.09289">
        <ele>69</ele>
        <time>2021-03-07T10:22:25.982Z</time>
      </trkpt>
      <trkpt lat="48.5733" lon="2.09289">
        <ele>69</ele>
        <time>2021-03-07T10:22:26.982Z</time>
      </trkpt>
      <trkpt lat="48.57329" lon="2.09288">
        <ele>70</ele>
        <time>2021-03-07T10:22:27.982Z</time>
      </trkpt>
      <trkpt lat="48.57328" lon="2.09288">
        <ele>71</ele>
        <time>2021-03-07T10:22:28.982Z</time>
      </trkpt>
      <trkpt lat="48.57326" lon="2.09288">
        <ele>72</ele>
        <time>2021-03-07T10:22:29.982Z</time>
      </trkpt>
      <trkpt lat="48.57325" lon="2.09287">
        <ele>73</ele>
        <time>2021-03-07T10:22:30.982Z</time>
      </trkpt>
      <trkpt lat="48.57324" lon="2.09286">
        <ele>74</ele>
        <time>2021-03-07T10:22:31.982Z</time>
      </trkpt>
      <trkpt lat="48.57323" lon="2.09285">
        <ele>74</ele>
        <time>2021-03-07T10:22:32.982Z</time>
      </trkpt>
      <trkpt lat="48.57322" lon="2.09285">
        <ele>75</ele>
        <time>2021-03-07T10:22:33.982Z</time>
      </trkpt>
      <trkpt lat="48.57321" lon="2.09284">
        <ele>75</ele>
        <time>2021-03-07T10:22:34.981Z</time>
      </trkpt>
      <trkpt lat="48.5732" lon="2.09283">
        <ele>75</ele>
        <time>2021-03-07T10:22:35.981Z</time>
      </trkpt>
      <trkpt lat="48.57318" lon="2.09282">
        <ele>76</ele>
        <time>2021-03-07T10:22:36.981Z</time>
      </trkpt>
      <trkpt lat="48.57317" lon="2.09282">
        <ele>76</ele>
        <time>2021-03-07T10:22:37.982Z</time>
      </trkpt>
      <trkpt lat="48.57314" lon="2.09282">
        <ele>76</ele>
        <time>2021-03-07T10:22:38.982Z</time>
      </trkpt>
      <trkpt lat="48.57313" lon="2.09282">
        <ele>76</ele>
        <time>2021-03-07T10:22:39.982Z</time>
      </trkpt>
      <trkpt lat="48.57311" lon="2.09281">
        <ele>76</ele>
        <time>2021-03-07T10:22:40.982Z</time>
      </trkpt>
      <trkpt lat="48.57309" lon="2.09281">
        <ele>76</ele>
        <time>2021-03-07T10:22:41.982Z</time>
      </trkpt>
      <trkpt lat="48.57308" lon="2.0928">
        <ele>77</ele>
        <time>2021-03-07T10:22:42.981Z</time>
      </trkpt>
      <trkpt lat="48.57307" lon="2.09279">
        <ele>78</ele>
        <time>2021-03-07T10:22:43.981Z</time>
      </trkpt>
      <trkpt lat="48.57306" lon="2.09278">
        <ele>79</ele>
        <time>2021-03-07T10:22:44.981Z</time>
      </trkpt>
      <trkpt lat="48.57305" lon="2.09277">
        <ele>80</ele>
        <time>2021-03-07T10:22:45.982Z</time>
      </trkpt>
      <trkpt lat="48.57304" lon="2.09276">
        <ele>81</ele>
        <time>2021-03-07T10:22:46.981Z</time>
      </trkpt>
      <trkpt lat="48.57302" lon="2.09276">
        <ele>81</ele>
        <time>2021-03-07T10:22:47.982Z</time>
      </trkpt>
      <trkpt lat="48.57301" lon="2.09275">
        <ele>81</ele>
        <time>2021-03-07T10:22:48.982Z</time>
      </trkpt>
      <trkpt lat="48.573" lon="2.09274">
        <ele>82</ele>
        <time>2021-03-07T10:22:49.982Z</time>
      </trkpt>
      <trkpt lat="48.57299" lon="2.09272">
        <ele>82</ele>
        <time>2021-03-07T10:22:50.982Z</time>
      </trkpt>
      <trkpt lat="48.57298" lon="2.09271">
        <ele>82</ele>
        <time>2021-03-07T10:22:51.982Z</time>
      </trkpt>
      <trkpt lat="48.57296" lon="2.0927">
        <ele>81</ele>
        <time>2021-03-07T10:22:52.982Z</time>
      </trkpt>
      <trkpt lat="48.57295" lon="2.09269">
        <ele>81</ele>
        <time>2021-03-07T10:22:53.982Z</time>
      </trkpt>
      <trkpt lat="48.57294" lon="2.09269">
        <ele>81</ele>
        <time>2021-03-07T10:22:54.982Z</time>
      </trkpt>
      <trkpt lat="48.57293" lon="2.09268">
        <ele>81</ele>
        <time>2021-03-07T10:22:55.982Z</time>
      </trkpt>
      <trkpt lat="48.57292" lon="2.09267">
        <ele>80</ele>
        <time>2021-03-07T10:22:56.982Z</time>
      </trkpt>
      <trkpt lat="48.57291" lon="2.09267">
        <ele>80</ele>
        <time>2021-03-07T10:22:57.982Z</time>
      </trkpt>
      <trkpt lat="48.5729" lon="2.09266">
        <ele>80</ele>
        <time>2021-03-07T10:22:58.982Z</time>
      </trkpt>
      <trkpt lat="48.57288" lon="2.09266">
        <ele>80</ele>
        <time>2021-03-07T10:22:59.982Z</time>
      </trkpt>
      <trkpt lat="48.57286" lon="2.09266">
        <ele>80</ele>
        <time>2021-03-07T10:23:00.982Z</time>
      </trkpt>
      <trkpt lat="48.57285" lon="2.09266">
        <ele>80</ele>
        <time>2021-03-07T10:23:01.982Z</time>
      </trkpt>
      <trkpt lat="48.57284" lon="2.09266">
        <ele>81</ele>
        <time>2021-03-07T10:23:02.982Z</time>
      </trkpt>
      <trkpt lat="48.57282" lon="2.09265">
        <ele>81</ele>
        <time>2021-03-07T10:23:03.982Z</time>
      </trkpt>
      <trkpt lat="48.57281" lon="2.09264">
        <ele>81</ele>
        <time>2021-03-07T10:23:04.982Z</time>
      </trkpt>
      <trkpt lat="48.5728" lon="2.09263">
        <ele>81</ele>
        <time>2021-03-07T10:23:05.982Z</time>
      </trkpt>
      <trkpt lat="48.57279" lon="2.09262">
        <ele>82</ele>
        <time>2021-03-07T10:23:06.982Z</time>
      </trkpt>
      <trkpt lat="48.57277" lon="2.09262">
        <ele>82</ele>
        <time>2021-03-07T10:23:07.982Z</time>
      </trkpt>
      <trkpt lat="48.57276" lon="2.0926">
        <ele>82</ele>
        <time>2021-03-07T10:23:08.982Z</time>
      </trkpt>
      <trkpt lat="48.57275" lon="2.09259">
        <ele>81</ele>
        <time>2021-03-07T10:23:09.982Z</time>
      </trkpt>
      <trkpt lat="48.57275" lon="2.09258">
        <ele>81</ele>
        <time>2021-03-07T10:23:10.982Z</time>
      </trkpt>
      <trkpt lat="48.57274" lon="2.09258">
        <ele>80</ele>
        <time>2021-03-07T10:23:11.981Z</time>
      </trkpt>
      <trkpt lat="48.57272" lon="2.09257">
        <ele>80</ele>
        <time>2021-03-07T10:23:12.982Z</time>
      </trkpt>
      <trkpt lat="48.57271" lon="2.09256">
        <ele>80</ele>
        <time>2021-03-07T10:23:13.981Z</time>
      </trkpt>
      <trkpt lat="48.5727" lon="2.09255">
        <ele>80</ele>
        <time>2021-03-07T10:23:14.981Z</time>
      </trkpt>
      <trkpt lat="48.57269" lon="2.09254">
        <ele>79</ele>
        <time>2021-03-07T10:23:15.981Z</time>
      </trkpt>
      <trkpt lat="48.57268" lon="2.09253">
        <ele>78</ele>
        <time>2021-03-07T10:23:16.981Z</time>
      </trkpt>
      <trkpt lat="48.57267" lon="2.09252">
        <ele>78</ele>
        <time>2021-03-07T10:23:17.981Z</time>
      </trkpt>
      <trkpt lat="48.57265" lon="2.09251">
        <ele>77</ele>
        <time>2021-03-07T10:23:18.981Z</time>
      </trkpt>
      <trkpt lat="48.57264" lon="2.0925">
        <ele>77</ele>
        <time>2021-03-07T10:23:19.981Z</time>
      </trkpt>
      <trkpt lat="48.57263" lon="2.09248">
        <ele>76</ele>
        <time>2021-03-07T10:23:20.981Z</time>
      </trkpt>
      <trkpt lat="48.57262" lon="2.09247">
        <ele>76</ele>
        <time>2021-03-07T10:23:21.981Z</time>
      </trkpt>
      <trkpt lat="48.57261" lon="2.09247">
        <ele>75</ele>
        <time>2021-03-07T10:23:22.981Z</time>
      </trkpt>
      <trkpt lat="48.5726" lon="2.09246">
        <ele>75</ele>
        <time>2021-03-07T10:23:23.981Z</time>
      </trkpt>
      <trkpt lat="48.57258" lon="2.09245">
        <ele>75</ele>
        <time>2021-03-07T10:23:24.981Z</time>
      </trkpt>
      <trkpt lat="48.57257" lon="2.09244">
        <ele>75</ele>
        <time>2021-03-07T10:23:25.981Z</time>
      </trkpt>
      <trkpt lat="48.57256" lon="2.09243">
        <ele>76</ele>
        <time>2021-03-07T10:23:26.981Z</time>
      </trkpt>
      <trkpt lat="48.57255" lon="2.09241">
        <ele>76</ele>
        <time>2021-03-07T10:23:27.981Z</time>
      </trkpt>
      <trkpt lat="48.57254" lon="2.09238">
        <ele>76</ele>
        <time>2021-03-07T10:23:28.982Z</time>
      </trkpt>
      <trkpt lat="48.57253" lon="2.09236">
        <ele>76</ele>
        <time>2021-03-07T10:23:29.982Z</time>
      </trkpt>
      <trkpt lat="48.57251" lon="2.09236">
        <ele>76</ele>
        <time>2021-03-07T10:23:30.982Z</time>
      </trkpt>
      <trkpt lat="48.5725" lon="2.09235">
        <ele>76</ele>
        <time>2021-03-07T10:23:31.982Z</time>
      </trkpt>
      <trkpt lat="48.57249" lon="2.09233">
        <ele>76</ele>
        <time>2021-03-07T10:23:32.981Z</time>
      </trkpt>
      <trkpt lat="48.57248" lon="2.09232">
        <ele>76</ele>
        <time>2021-03-07T10:23:33.981Z</time>
      </trkpt>
      <trkpt lat="48.57246" lon="2.0923">
        <ele>76</ele>
        <time>2021-03-07T10:23:34.982Z</time>
      </trkpt>
      <trkpt lat="48.57245" lon="2.09228">
        <ele>76</ele>
        <time>2021-03-07T10:23:35.982Z</time>
      </trkpt>
      <trkpt lat="48.57244" lon="2.09226">
        <ele>76</ele>
        <time>2021-03-07T10:23:36.982Z</time>
      </trkpt>
      <trkpt lat="48.57243" lon="2.09224">
        <ele>76</ele>
        <time>2021-03-07T10:23:37.982Z</time>
      </trkpt>
      <trkpt lat="48.57242" lon="2.09223">
        <ele>75</ele>
        <time>2021-03-07T10:23:38.981Z</time>
      </trkpt>
      <trkpt lat="48.57241" lon="2.09221">
        <ele>74</ele>
        <time>2021-03-07T10:23:39.981Z</time>
      </trkpt>
      <trkpt lat="48.5724" lon="2.0922">
        <ele>74</ele>
        <time>2021-03-07T10:23:40.982Z</time>
      </trkpt>
      <trkpt lat="48.57239" lon="2.09219">
        <ele>73</ele>
        <time>2021-03-07T10:23:41.982Z</time>
      </trkpt>
      <trkpt lat="48.57238" lon="2.09218">
        <ele>73</ele>
        <time>2021-03-07T10:23:42.982Z</time>
      </trkpt>
      <trkpt lat="48.57237" lon="2.09216">
        <ele>73</ele>
        <time>2021-03-07T10:23:43.981Z</time>
      </trkpt>
      <trkpt lat="48.57235" lon="2.09215">
        <ele>73</ele>
        <time>2021-03-07T10:23:44.981Z</time>
      </trkpt>
      <trkpt lat="48.57235" lon="2.09214">
        <ele>72</ele>
        <time>2021-03-07T10:23:45.981Z</time>
      </trkpt>
      <trkpt lat="48.57234" lon="2.09213">
        <ele>72</ele>
        <time>2021-03-07T10:23:46.982Z</time>
      </trkpt>
      <trkpt lat="48.57233" lon="2.09212">
        <ele>71</ele>
        <time>2021-03-07T10:23:47.982Z</time>
      </trkpt>
      <trkpt lat="48.57232" lon="2.09211">
        <ele>71</ele>
        <time>2021-03-07T10:23:48.982Z</time>
      </trkpt>
      <trkpt lat="48.57231" lon="2.09209">
        <ele>70</ele>
        <time>2021-03-07T10:23:49.981Z</time>
      </trkpt>
      <trkpt lat="48.5723" lon="2.09208">
        <ele>69</ele>
        <time>2021-03-07T10:23:50.982Z</time>
      </trkpt>
      <trkpt lat="48.57229" lon="2.09207">
        <ele>69</ele>
        <time>2021-03-07T10:23:51.982Z</time>
      </trkpt>
      <trkpt lat="48.57228" lon="2.09206">
        <ele>68</ele>
        <time>2021-03-07T10:23:52.982Z</time>
      </trkpt>
      <trkpt lat="48.57227" lon="2.09204">
        <ele>68</ele>
        <time>2021-03-07T10:23:53.981Z</time>
      </trkpt>
      <trkpt lat="48.57226" lon="2.09203">
        <ele>67</ele>
        <time>2021-03-07T10:23:54.982Z</time>
      </trkpt>
      <trkpt lat="48.57225" lon="2.09202">
        <ele>68</ele>
        <time>2021-03-07T10:23:55.981Z</time>
      </trkpt>
      <trkpt lat="48.57224" lon="2.09201">
        <ele>68</ele>
        <time>2021-03-07T10:23:56.982Z</time>
      </trkpt>
      <trkpt lat="48.57223" lon="2.092">
        <ele>69</ele>
        <time>2021-03-07T10:23:57.982Z</time>
      </trkpt>
      <trkpt lat="48.57222" lon="2.09199">
        <ele>70</ele>
        <time>2021-03-07T10:23:58.982Z</time>
      </trkpt>
      <trkpt lat="48.57221" lon="2.09198">
        <ele>69</ele>
        <time>2021-03-07T10:23:59.981Z</time>
      </trkpt>
      <trkpt lat="48.5722" lon="2.09196">
        <ele>69</ele>
        <time>2021-03-07T10:24:00.982Z</time>
      </trkpt>
      <trkpt lat="48.57219" lon="2.09195">
        <ele>69</ele>
        <time>2021-03-07T10:24:01.982Z</time>
      </trkpt>
      <trkpt lat="48.57218" lon="2.09194">
        <ele>68</ele>
        <time>2021-03-07T10:24:02.982Z</time>
      </trkpt>
      <trkpt lat="48.57217" lon="2.09192">
        <ele>67</ele>
        <time>2021-03-07T10:24:03.982Z</time>
      </trkpt>
      <trkpt lat="48.57216" lon="2.0919">
        <ele>67</ele>
        <time>2021-03-07T10:24:04.982Z</time>
      </trkpt>
      <trkpt lat="48.57215" lon="2.09189">
        <ele>67</ele>
        <time>2021-03-07T10:24:05.981Z</time>
      </trkpt>
      <trkpt lat="48.57214" lon="2.09189">
        <ele>67</ele>
        <time>2021-03-07T10:24:06.982Z</time>
      </trkpt>
      <trkpt lat="48.57213" lon="2.09187">
        <ele>67</ele>
        <time>2021-03-07T10:24:07.981Z</time>
      </trkpt>
      <trkpt lat="48.57212" lon="2.09186">
        <ele>67</ele>
        <time>2021-03-07T10:24:08.981Z</time>
      </trkpt>
      <trkpt lat="48.5721" lon="2.09186">
        <ele>67</ele>
        <time>2021-03-07T10:24:09.982Z</time>
      </trkpt>
      <trkpt lat="48.57209" lon="2.09186">
        <ele>68</ele>
        <time>2021-03-07T10:24:10.982Z</time>
      </trkpt>
      <trkpt lat="48.57208" lon="2.09186">
        <ele>68</ele>
        <time>2021-03-07T10:24:11.982Z</time>
      </trkpt>
      <trkpt lat="48.57206" lon="2.09187">
        <ele>69</ele>
        <time>2021-03-07T10:24:12.982Z</time>
      </trkpt>
      <trkpt lat="48.57205" lon="2.09188">
        <ele>68</ele>
        <time>2021-03-07T10:24:13.982Z</time>
      </trkpt>
      <trkpt lat="48.57204" lon="2.09189">
        <ele>68</ele>
        <time>2021-03-07T10:24:14.981Z</time>
      </trkpt>
      <trkpt lat="48.57202" lon="2.09191">
        <ele>68</ele>
        <time>2021-03-07T10:24:15.981Z</time>
      </trkpt>
      <trkpt lat="48.57202" lon="2.09192">
        <ele>68</ele>
        <time>2021-03-07T10:24:16.982Z</time>
      </trkpt>
      <trkpt lat="48.57201" lon="2.09194">
        <ele>68</ele>
        <time>2021-03-07T10:24:17.982Z</time>
      </trkpt>
      <trkpt lat="48.572" lon="2.09196">
        <ele>68</ele>
        <time>2021-03-07T10:24:18.982Z</time>
      </trkpt>
      <trkpt lat="48.57199" lon="2.09198">
        <ele>68</ele>
        <time>2021-03-07T10:24:19.982Z</time>
      </trkpt>
      <trkpt lat="48.57199" lon="2.092">
        <ele>68</ele>
        <time>2021-03-07T10:24:20.982Z</time>
      </trkpt>
      <trkpt lat="48.57198" lon="2.09202">
        <ele>68</ele>
        <time>2021-03-07T10:24:21.982Z</time>
      </trkpt>
      <trkpt lat="48.57198" lon="2.09204">
        <ele>68</ele>
        <time>2021-03-07T10:24:22.981Z</time>
      </trkpt>
      <trkpt lat="48.57198" lon="2.09206">
        <ele>69</ele>
        <time>2021-03-07T10:24:23.982Z</time>
      </trkpt>
      <trkpt lat="48.57198" lon="2.09208">
        <ele>69</ele>
        <time>2021-03-07T10:24:24.982Z</time>
      </trkpt>
      <trkpt lat="48.57198" lon="2.09209">
        <ele>69</ele>
        <time>2021-03-07T10:24:25.982Z</time>
      </trkpt>
      <trkpt lat="48.57197" lon="2.09211">
        <ele>69</ele>
        <time>2021-03-07T10:24:26.982Z</time>
      </trkpt>
      <trkpt lat="48.57197" lon="2.09213">
        <ele>69</ele>
        <time>2021-03-07T10:24:27.981Z</time>
      </trkpt>
      <trkpt lat="48.57197" lon="2.09215">
        <ele>68</ele>
        <time>2021-03-07T10:24:28.982Z</time>
      </trkpt>
      <trkpt lat="48.57196" lon="2.09217">
        <ele>68</ele>
        <time>2021-03-07T10:24:29.982Z</time>
      </trkpt>
      <trkpt lat="48.57196" lon="2.09219">
        <ele>68</ele>
        <time>2021-03-07T10:24:30.982Z</time>
      </trkpt>
      <trkpt lat="48.57196" lon="2.09221">
        <ele>67</ele>
        <time>2021-03-07T10:24:31.981Z</time>
      </trkpt>
      <trkpt lat="48.57196" lon="2.09224">
        <ele>67</ele>
        <time>2021-03-07T10:24:32.982Z</time>
      </trkpt>
      <trkpt lat="48.57196" lon="2.09226">
        <ele>68</ele>
        <time>2021-03-07T10:24:33.981Z</time>
      </trkpt>
      <trkpt lat="48.57196" lon="2.09229">
        <ele>68</ele>
        <time>2021-03-07T10:24:34.982Z</time>
      </trkpt>
      <trkpt lat="48.57195" lon="2.09231">
        <ele>69</ele>
        <time>2021-03-07T10:24:35.982Z</time>
      </trkpt>
      <trkpt lat="48.57195" lon="2.09233">
        <ele>69</ele>
        <time>2021-03-07T10:24:36.982Z</time>
      </trkpt>
      <trkpt lat="48.57194" lon="2.09235">
        <ele>70</ele>
        <time>2021-03-07T10:24:37.981Z</time>
      </trkpt>
      <trkpt lat="48.57195" lon="2.09237">
        <ele>70</ele>
        <time>2021-03-07T10:24:38.981Z</time>
      </trkpt>
      <trkpt lat="48.57194" lon="2.09239">
        <ele>70</ele>
        <time>2021-03-07T10:24:39.982Z</time>
      </trkpt>
      <trkpt lat="48.57195" lon="2.09242">
        <ele>70</ele>
        <time>2021-03-07T10:24:40.982Z</time>
      </trkpt>
      <trkpt lat="48.57195" lon="2.09244">
        <ele>70</ele>
        <time>2021-03-07T10:24:41.981Z</time>
      </trkpt>
      <trkpt lat="48.57195" lon="2.09246">
        <ele>70</ele>
        <time>2021-03-07T10:24:42.982Z</time>
      </trkpt>
      <trkpt lat="48.57195" lon="2.09248">
        <ele>70</ele>
        <time>2021-03-07T10:24:43.982Z</time>
      </trkpt>
      <trkpt lat="48.57195" lon="2.0925">
        <ele>70</ele>
        <time>2021-03-07T10:24:44.982Z</time>
      </trkpt>
      <trkpt lat="48.57194" lon="2.09253">
        <ele>71</ele>
        <time>2021-03-07T10:24:45.982Z</time>
      </trkpt>
      <trkpt lat="48.57194" lon="2.09254">
        <ele>71</ele>
        <time>2021-03-07T10:24:46.981Z</time>
      </trkpt>
      <trkpt lat="48.57193" lon="2.09258">
        <ele>71</ele>
        <time>2021-03-07T10:24:47.982Z</time>
      </trkpt>
      <trkpt lat="48.57192" lon="2.0926">
        <ele>71</ele>
        <time>2021-03-07T10:24:48.981Z</time>
      </trkpt>
      <trkpt lat="48.57192" lon="2.09262">
        <ele>71</ele>
        <time>2021-03-07T10:24:49.981Z</time>
      </trkpt>
      <trkpt lat="48.57192" lon="2.09264">
        <ele>71</ele>
        <time>2021-03-07T10:24:50.982Z</time>
      </trkpt>
      <trkpt lat="48.57192" lon="2.09266">
        <ele>71</ele>
        <time>2021-03-07T10:24:51.982Z</time>
      </trkpt>
      <trkpt lat="48.57191" lon="2.09268">
        <ele>72</ele>
        <time>2021-03-07T10:24:52.982Z</time>
      </trkpt>
      <trkpt lat="48.57191" lon="2.0927">
        <ele>71</ele>
        <time>2021-03-07T10:24:53.981Z</time>
      </trkpt>
      <trkpt lat="48.5719" lon="2.09272">
        <ele>71</ele>
        <time>2021-03-07T10:24:54.982Z</time>
      </trkpt>
      <trkpt lat="48.5719" lon="2.09274">
        <ele>71</ele>
        <time>2021-03-07T10:24:55.981Z</time>
      </trkpt>
      <trkpt lat="48.57189" lon="2.09276">
        <ele>71</ele>
        <time>2021-03-07T10:24:56.982Z</time>
      </trkpt>
      <trkpt lat="48.57189" lon="2.09277">
        <ele>71</ele>
        <time>2021-03-07T10:24:57.981Z</time>
      </trkpt>
      <trkpt lat="48.57188" lon="2.09279">
        <ele>72</ele>
        <time>2021-03-07T10:24:58.982Z</time>
      </trkpt>
      <trkpt lat="48.57188" lon="2.09281">
        <ele>72</ele>
        <time>2021-03-07T10:24:59.981Z</time>
      </trkpt>
      <trkpt lat="48.57188" lon="2.09283">
        <ele>72</ele>
        <time>2021-03-07T10:25:00.982Z</time>
      </trkpt>
      <trkpt lat="48.57187" lon="2.09285">
        <ele>72</ele>
        <time>2021-03-07T10:25:01.981Z</time>
      </trkpt>
      <trkpt lat="48.57187" lon="2.09287">
        <ele>73</ele>
        <time>2021-03-07T10:25:02.982Z</time>
      </trkpt>
      <trkpt lat="48.57186" lon="2.09289">
        <ele>73</ele>
        <time>2021-03-07T10:25:03.981Z</time>
      </trkpt>
      <trkpt lat="48.57186" lon="2.09291">
        <ele>74</ele>
        <time>2021-03-07T10:25:04.982Z</time>
      </trkpt>
      <trkpt lat="48.57185" lon="2.09292">
        <ele>74</ele>
        <time>2021-03-07T10:25:05.981Z</time>
      </trkpt>
      <trkpt lat="48.57185" lon="2.09294">
        <ele>75</ele>
        <time>2021-03-07T10:25:06.982Z</time>
      </trkpt>
      <trkpt lat="48.57184" lon="2.09295">
        <ele>76</ele>
        <time>2021-03-07T10:25:07.982Z</time>
      </trkpt>
      <trkpt lat="48.57184" lon="2.09297">
        <ele>76</ele>
        <time>2021-03-07T10:25:08.982Z</time>
      </trkpt>
      <trkpt lat="48.57182" lon="2.09299">
        <ele>77</ele>
        <time>2021-03-07T10:25:09.982Z</time>
      </trkpt>
      <trkpt lat="48.57181" lon="2.093">
        <ele>76</ele>
        <time>2021-03-07T10:25:10.981Z</time>
      </trkpt>
      <trkpt lat="48.5718" lon="2.09301">
        <ele>76</ele>
        <time>2021-03-07T10:25:11.982Z</time>
      </trkpt>
      <trkpt lat="48.57178" lon="2.09302">
        <ele>75</ele>
        <time>2021-03-07T10:25:12.982Z</time>
      </trkpt>
      <trkpt lat="48.57177" lon="2.09303">
        <ele>75</ele>
        <time>2021-03-07T10:25:13.981Z</time>
      </trkpt>
      <trkpt lat="48.57175" lon="2.09303">
        <ele>74</ele>
        <time>2021-03-07T10:25:14.982Z</time>
      </trkpt>
      <trkpt lat="48.57174" lon="2.09304">
        <ele>74</ele>
        <time>2021-03-07T10:25:15.982Z</time>
      </trkpt>
      <trkpt lat="48.57172" lon="2.09305">
        <ele>73</ele>
        <time>2021-03-07T10:25:16.982Z</time>
      </trkpt>
      <trkpt lat="48.5717" lon="2.09306">
        <ele>73</ele>
        <time>2021-03-07T10:25:17.982Z</time>
      </trkpt>
      <trkpt lat="48.57169" lon="2.09305">
        <ele>73</ele>
        <time>2021-03-07T10:25:18.982Z</time>
      </trkpt>
      <trkpt lat="48.57167" lon="2.09305">
        <ele>74</ele>
        <time>2021-03-07T10:25:19.981Z</time>
      </trkpt>
      <trkpt lat="48.57166" lon="2.09305">
        <ele>74</ele>
        <time>2021-03-07T10:25:20.982Z</time>
      </trkpt>
      <trkpt lat="48.57165" lon="2.09305">
        <ele>74</ele>
        <time>2021-03-07T10:25:21.982Z</time>
      </trkpt>
      <trkpt lat="48.57163" lon="2.09305">
        <ele>73</ele>
        <time>2021-03-07T10:25:22.981Z</time>
      </trkpt>
      <trkpt lat="48.57162" lon="2.09305">
        <ele>73</ele>
        <time>2021-03-07T10:25:23.982Z</time>
      </trkpt>
      <trkpt lat="48.57161" lon="2.09305">
        <ele>72</ele>
        <time>2021-03-07T10:25:24.981Z</time>
      </trkpt>
      <trkpt lat="48.5716" lon="2.09305">
        <ele>72</ele>
        <time>2021-03-07T10:25:25.981Z</time>
      </trkpt>
      <trkpt lat="48.57158" lon="2.09304">
        <ele>71</ele>
        <time>2021-03-07T10:25:26.981Z</time>
      </trkpt>
      <trkpt lat="48.57157" lon="2.09304">
        <ele>71</ele>
        <time>2021-03-07T10:25:27.981Z</time>
      </trkpt>
      <trkpt lat="48.57156" lon="2.09304">
        <ele>71</ele>
        <time>2021-03-07T10:25:28.982Z</time>
      </trkpt>
      <trkpt lat="48.57156" lon="2.09303">
        <ele>71</ele>
        <time>2021-03-07T10:25:29.982Z</time>
      </trkpt>
      <trkpt lat="48.57156" lon="2.09302">
        <ele>71</ele>
        <time>2021-03-07T10:25:30.982Z</time>
      </trkpt>
      <trkpt lat="48.57155" lon="2.09302">
        <ele>71</ele>
        <time>2021-03-07T10:25:31.982Z</time>
      </trkpt>
      <trkpt lat="48.57154" lon="2.09301">
        <ele>71</ele>
        <time>2021-03-07T10:25:32.982Z</time>
      </trkpt>
      <trkpt lat="48.57153" lon="2.09301">
        <ele>71</ele>
        <time>2021-03-07T10:25:33.982Z</time>
      </trkpt>
      <trkpt lat="48.57152" lon="2.093">
        <ele>71</ele>
        <time>2021-03-07T10:25:34.982Z</time>
      </trkpt>
      <trkpt lat="48.57151" lon="2.093">
        <ele>71</ele>
        <time>2021-03-07T10:25:35.982Z</time>
      </trkpt>
      <trkpt lat="48.5715" lon="2.093">
        <ele>70</ele>
        <time>2021-03-07T10:25:36.982Z</time>
      </trkpt>
      <trkpt lat="48.57149" lon="2.09299">
        <ele>70</ele>
        <time>2021-03-07T10:25:37.981Z</time>
      </trkpt>
      <trkpt lat="48.57147" lon="2.09299">
        <ele>70</ele>
        <time>2021-03-07T10:25:38.981Z</time>
      </trkpt>
      <trkpt lat="48.57146" lon="2.09299">
        <ele>70</ele>
        <time>2021-03-07T10:25:39.982Z</time>
      </trkpt>
      <trkpt lat="48.57145" lon="2.09299">
        <ele>70</ele>
        <time>2021-03-07T10:25:40.982Z</time>
      </trkpt>
      <trkpt lat="48.57144" lon="2.09299">
        <ele>69</ele>
        <time>2021-03-07T10:25:41.982Z</time>
      </trkpt>
      <trkpt lat="48.57143" lon="2.09299">
        <ele>69</ele>
        <time>2021-03-07T10:25:42.982Z</time>
      </trkpt>
      <trkpt lat="48.57141" lon="2.09298">
        <ele>69</ele>
        <time>2021-03-07T10:25:43.982Z</time>
      </trkpt>
      <trkpt lat="48.5714" lon="2.09298">
        <ele>70</ele>
        <time>2021-03-07T10:25:44.981Z</time>
      </trkpt>
      <trkpt lat="48.57138" lon="2.09298">
        <ele>70</ele>
        <time>2021-03-07T10:25:45.982Z</time>
      </trkpt>
      <trkpt lat="48.57137" lon="2.09297">
        <ele>70</ele>
        <time>2021-03-07T10:25:46.982Z</time>
      </trkpt>
      <trkpt lat="48.57136" lon="2.09297">
        <ele>71</ele>
        <time>2021-03-07T10:25:47.982Z</time>
      </trkpt>
      <trkpt lat="48.57134" lon="2.09297">
        <ele>71</ele>
        <time>2021-03-07T10:25:48.982Z</time>
      </trkpt>
      <trkpt lat="48.57133" lon="2.09296">
        <ele>72</ele>
        <time>2021-03-07T10:25:49.982Z</time>
      </trkpt>
      <trkpt lat="48.57132" lon="2.09296">
        <ele>72</ele>
        <time>2021-03-07T10:25:50.982Z</time>
      </trkpt>
      <trkpt lat="48.5713" lon="2.09296">
        <ele>72</ele>
        <time>2021-03-07T10:25:51.982Z</time>
      </trkpt>
      <trkpt lat="48.57129" lon="2.09297">
        <ele>73</ele>
        <time>2021-03-07T10:25:52.981Z</time>
      </trkpt>
      <trkpt lat="48.57127" lon="2.09297">
        <ele>73</ele>
        <time>2021-03-07T10:25:53.982Z</time>
      </trkpt>
      <trkpt lat="48.57126" lon="2.09297">
        <ele>73</ele>
        <time>2021-03-07T10:25:54.982Z</time>
      </trkpt>
      <trkpt lat="48.57124" lon="2.09298">
        <ele>73</ele>
        <time>2021-03-07T10:25:55.982Z</time>
      </trkpt>
      <trkpt lat="48.57123" lon="2.09297">
        <ele>73</ele>
        <time>2021-03-07T10:25:56.982Z</time>
      </trkpt>
      <trkpt lat="48.57121" lon="2.09297">
        <ele>73</ele>
        <time>2021-03-07T10:25:57.981Z</time>
      </trkpt>
      <trkpt lat="48.5712" lon="2.09297">
        <ele>74</ele>
        <time>2021-03-07T10:25:58.982Z</time>
      </trkpt>
      <trkpt lat="48.57119" lon="2.09297">
        <ele>74</ele>
        <time>2021-03-07T10:25:59.982Z</time>
      </trkpt>
      <trkpt lat="48.57118" lon="2.09297">
        <ele>74</ele>
        <time>2021-03-07T10:26:00.982Z</time>
      </trkpt>
      <trkpt lat="48.57117" lon="2.09297">
        <ele>73</ele>
        <time>2021-03-07T10:26:01.982Z</time>
      </trkpt>
      <trkpt lat="48.57115" lon="2.09297">
        <ele>73</ele>
        <time>2021-03-07T10:26:02.982Z</time>
      </trkpt>
      <trkpt lat="48.57114" lon="2.09297">
        <ele>73</ele>
        <time>2021-03-07T10:26:03.982Z</time>
      </trkpt>
      <trkpt lat="48.57112" lon="2.09297">
        <ele>73</ele>
        <time>2021-03-07T10:26:04.982Z</time>
      </trkpt>
      <trkpt lat="48.57111" lon="2.09297">
        <ele>73</ele>
        <time>2021-03-07T10:26:05.981Z</time>
      </trkpt>
      <trkpt lat="48.5711" lon="2.09298">
        <ele>73</ele>
        <time>2021-03-07T10:26:06.982Z</time>
      </trkpt>
      <trkpt lat="48.57109" lon="2.09298">
        <ele>73</ele>
        <time>2021-03-07T10:26:07.982Z</time>
      </trkpt>
      <trkpt lat="48.57108" lon="2.09298">
        <ele>73</ele>
        <time>2021-03-07T10:26:08.982Z</time>
      </trkpt>
      <trkpt lat="48.57106" lon="2.09298">
        <ele>73</ele>
        <time>2021-03-07T10:26:09.981Z</time>
      </trkpt>
      <trkpt lat="48.57105" lon="2.09297">
        <ele>73</ele>
        <time>2021-03-07T10:26:10.982Z</time>
      </trkpt>
      <trkpt lat="48.57104" lon="2.09297">
        <ele>73</ele>
        <time>2021-03-07T10:26:11.981Z</time>
      </trkpt>
      <trkpt lat="48.57103" lon="2.09297">
        <ele>73</ele>
        <time>2021-03-07T10:26:12.981Z</time>
      </trkpt>
      <trkpt lat="48.57102" lon="2.09297">
        <ele>72</ele>
        <time>2021-03-07T10:26:13.982Z</time>
      </trkpt>
      <trkpt lat="48.57101" lon="2.09297">
        <ele>72</ele>
        <time>2021-03-07T10:26:14.982Z</time>
      </trkpt>
      <trkpt lat="48.57099" lon="2.09298">
        <ele>72</ele>
        <time>2021-03-07T10:26:15.982Z</time>
      </trkpt>
      <trkpt lat="48.57098" lon="2.09298">
        <ele>72</ele>
        <time>2021-03-07T10:26:16.981Z</time>
      </trkpt>
      <trkpt lat="48.57096" lon="2.09298">
        <ele>72</ele>
        <time>2021-03-07T10:26:17.982Z</time>
      </trkpt>
      <trkpt lat="48.57095" lon="2.09299">
        <ele>73</ele>
        <time>2021-03-07T10:26:18.982Z</time>
      </trkpt>
      <trkpt lat="48.57094" lon="2.09299">
        <ele>73</ele>
        <time>2021-03-07T10:26:19.982Z</time>
      </trkpt>
      <trkpt lat="48.57093" lon="2.09299">
        <ele>73</ele>
        <time>2021-03-07T10:26:20.982Z</time>
      </trkpt>
      <trkpt lat="48.57092" lon="2.09299">
        <ele>74</ele>
        <time>2021-03-07T10:26:21.982Z</time>
      </trkpt>
      <trkpt lat="48.57091" lon="2.09299">
        <ele>74</ele>
        <time>2021-03-07T10:26:22.982Z</time>
      </trkpt>
      <trkpt lat="48.5709" lon="2.09298">
        <ele>75</ele>
        <time>2021-03-07T10:26:23.982Z</time>
      </trkpt>
      <trkpt lat="48.57088" lon="2.09298">
        <ele>76</ele>
        <time>2021-03-07T10:26:24.982Z</time>
      </trkpt>
      <trkpt lat="48.57086" lon="2.09298">
        <ele>76</ele>
        <time>2021-03-07T10:26:25.982Z</time>
      </trkpt>
      <trkpt lat="48.57084" lon="2.09299">
        <ele>77</ele>
        <time>2021-03-07T10:26:26.982Z</time>
      </trkpt>
      <trkpt lat="48.57083" lon="2.09299">
        <ele>77</ele>
        <time>2021-03-07T10:26:27.982Z</time>
      </trkpt>
      <trkpt lat="48.57081" lon="2.093">
        <ele>77</ele>
        <time>2021-03-07T10:26:28.982Z</time>
      </trkpt>
      <trkpt lat="48.5708" lon="2.093">
        <ele>78</ele>
        <time>2021-03-07T10:26:29.982Z</time>
      </trkpt>
      <trkpt lat="48.57079" lon="2.09301">
        <ele>78</ele>
        <time>2021-03-07T10:26:30.982Z</time>
      </trkpt>
      <trkpt lat="48.57077" lon="2.093">
        <ele>79</ele>
        <time>2021-03-07T10:26:31.981Z</time>
      </trkpt>
      <trkpt lat="48.57076" lon="2.09301">
        <ele>80</ele>
        <time>2021-03-07T10:26:32.982Z</time>
      </trkpt>
      <trkpt lat="48.57074" lon="2.09301">
        <ele>80</ele>
        <time>2021-03-07T10:26:33.982Z</time>
      </trkpt>
      <trkpt lat="48.57073" lon="2.09301">
        <ele>80</ele>
        <time>2021-03-07T10:26:34.982Z</time>
      </trkpt>
      <trkpt lat="48.57072" lon="2.093">
        <ele>80</ele>
        <time>2021-03-07T10:26:35.981Z</time>
      </trkpt>
      <trkpt lat="48.57071" lon="2.093">
        <ele>80</ele>
        <time>2021-03-07T10:26:36.982Z</time>
      </trkpt>
      <trkpt lat="48.5707" lon="2.093">
        <ele>80</ele>
        <time>2021-03-07T10:26:37.982Z</time>
      </trkpt>
      <trkpt lat="48.57069" lon="2.093">
        <ele>81</ele>
        <time>2021-03-07T10:26:38.981Z</time>
      </trkpt>
      <trkpt lat="48.57068" lon="2.09301">
        <ele>81</ele>
        <time>2021-03-07T10:26:39.982Z</time>
      </trkpt>
      <trkpt lat="48.57067" lon="2.09301">
        <ele>81</ele>
        <time>2021-03-07T10:26:40.981Z</time>
      </trkpt>
      <trkpt lat="48.57066" lon="2.093">
        <ele>81</ele>
        <time>2021-03-07T10:26:41.982Z</time>
      </trkpt>
      <trkpt lat="48.57065" lon="2.093">
        <ele>81</ele>
        <time>2021-03-07T10:26:42.981Z</time>
      </trkpt>
      <trkpt lat="48.57064" lon="2.09301">
        <ele>80</ele>
        <time>2021-03-07T10:26:43.982Z</time>
      </trkpt>
      <trkpt lat="48.57062" lon="2.09301">
        <ele>80</ele>
        <time>2021-03-07T10:26:44.981Z</time>
      </trkpt>
      <trkpt lat="48.57061" lon="2.09301">
        <ele>80</ele>
        <time>2021-03-07T10:26:45.982Z</time>
      </trkpt>
      <trkpt lat="48.5706" lon="2.09301">
        <ele>80</ele>
        <time>2021-03-07T10:26:46.981Z</time>
      </trkpt>
      <trkpt lat="48.57059" lon="2.09301">
        <ele>80</ele>
        <time>2021-03-07T10:26:47.982Z</time>
      </trkpt>
      <trkpt lat="48.57058" lon="2.09301">
        <ele>80</ele>
        <time>2021-03-07T10:26:48.982Z</time>
      </trkpt>
      <trkpt lat="48.57057" lon="2.09301">
        <ele>80</ele>
        <time>2021-03-07T10:26:49.982Z</time>
      </trkpt>
      <trkpt lat="48.57056" lon="2.09301">
        <ele>79</ele>
        <time>2021-03-07T10:26:50.982Z</time>
      </trkpt>
      <trkpt lat="48.57055" lon="2.09301">
        <ele>79</ele>
        <time>2021-03-07T10:26:51.982Z</time>
      </trkpt>
      <trkpt lat="48.57054" lon="2.093">
        <ele>79</ele>
        <time>2021-03-07T10:26:52.982Z</time>
      </trkpt>
      <trkpt lat="48.57052" lon="2.093">
        <ele>79</ele>
        <time>2021-03-07T10:26:53.982Z</time>
      </trkpt>
      <trkpt lat="48.5705" lon="2.093">
        <ele>79</ele>
        <time>2021-03-07T10:26:54.981Z</time>
      </trkpt>
      <trkpt lat="48.57049" lon="2.093">
        <ele>80</ele>
        <time>2021-03-07T10:26:55.982Z</time>
      </trkpt>
      <trkpt lat="48.57047" lon="2.09299">
        <ele>80</ele>
        <time>2021-03-07T10:26:56.981Z</time>
      </trkpt>
      <trkpt lat="48.57047" lon="2.09299">
        <ele>80</ele>
        <time>2021-03-07T10:26:57.982Z</time>
      </trkpt>
      <trkpt lat="48.57046" lon="2.09299">
        <ele>80</ele>
        <time>2021-03-07T10:26:58.981Z</time>
      </trkpt>
      <trkpt lat="48.57045" lon="2.093">
        <ele>81</ele>
        <time>2021-03-07T10:26:59.982Z</time>
      </trkpt>
      <trkpt lat="48.57043" lon="2.09299">
        <ele>81</ele>
        <time>2021-03-07T10:27:00.982Z</time>
      </trkpt>
      <trkpt lat="48.57042" lon="2.093">
        <ele>81</ele>
        <time>2021-03-07T10:27:01.982Z</time>
      </trkpt>
      <trkpt lat="48.57041" lon="2.093">
        <ele>82</ele>
        <time>2021-03-07T10:27:02.982Z</time>
      </trkpt>
      <trkpt lat="48.5704" lon="2.09299">
        <ele>82</ele>
        <time>2021-03-07T10:27:03.982Z</time>
      </trkpt>
      <trkpt lat="48.57039" lon="2.09299">
        <ele>82</ele>
        <time>2021-03-07T10:27:04.982Z</time>
      </trkpt>
      <trkpt lat="48.57038" lon="2.09299">
        <ele>82</ele>
        <time>2021-03-07T10:27:05.982Z</time>
      </trkpt>
      <trkpt lat="48.57037" lon="2.09299">
        <ele>82</ele>
        <time>2021-03-07T10:27:06.982Z</time>
      </trkpt>
      <trkpt lat="48.57036" lon="2.09299">
        <ele>83</ele>
        <time>2021-03-07T10:27:07.981Z</time>
      </trkpt>
      <trkpt lat="48.57035" lon="2.093">
        <ele>83</ele>
        <time>2021-03-07T10:27:08.982Z</time>
      </trkpt>
      <trkpt lat="48.57033" lon="2.093">
        <ele>83</ele>
        <time>2021-03-07T10:27:09.982Z</time>
      </trkpt>
      <trkpt lat="48.57032" lon="2.093">
        <ele>83</ele>
        <time>2021-03-07T10:27:10.981Z</time>
      </trkpt>
      <trkpt lat="48.57031" lon="2.09299">
        <ele>83</ele>
        <time>2021-03-07T10:27:11.982Z</time>
      </trkpt>
      <trkpt lat="48.5703" lon="2.09298">
        <ele>83</ele>
        <time>2021-03-07T10:27:12.982Z</time>
      </trkpt>
      <trkpt lat="48.57028" lon="2.09298">
        <ele>84</ele>
        <time>2021-03-07T10:27:13.982Z</time>
      </trkpt>
      <trkpt lat="48.57027" lon="2.09298">
        <ele>84</ele>
        <time>2021-03-07T10:27:14.982Z</time>
      </trkpt>
      <trkpt lat="48.57026" lon="2.09298">
        <ele>84</ele>
        <time>2021-03-07T10:27:15.982Z</time>
      </trkpt>
      <trkpt lat="48.57026" lon="2.09298">
        <ele>84</ele>
        <time>2021-03-07T10:27:16.982Z</time>
      </trkpt>
      <trkpt lat="48.57025" lon="2.09298">
        <ele>84</ele>
        <time>2021-03-07T10:27:17.982Z</time>
      </trkpt>
      <trkpt lat="48.57023" lon="2.09299">
        <ele>84</ele>
        <time>2021-03-07T10:27:18.982Z</time>
      </trkpt>
      <trkpt lat="48.57022" lon="2.093">
        <ele>84</ele>
        <time>2021-03-07T10:27:19.981Z</time>
      </trkpt>
      <trkpt lat="48.57021" lon="2.093">
        <ele>85</ele>
        <time>2021-03-07T10:27:20.982Z</time>
      </trkpt>
      <trkpt lat="48.57019" lon="2.093">
        <ele>85</ele>
        <time>2021-03-07T10:27:21.981Z</time>
      </trkpt>
      <trkpt lat="48.57018" lon="2.09301">
        <ele>86</ele>
        <time>2021-03-07T10:27:22.982Z</time>
      </trkpt>
      <trkpt lat="48.57016" lon="2.09301">
        <ele>86</ele>
        <time>2021-03-07T10:27:23.981Z</time>
      </trkpt>
      <trkpt lat="48.57014" lon="2.09302">
        <ele>86</ele>
        <time>2021-03-07T10:27:24.982Z</time>
      </trkpt>
      <trkpt lat="48.57012" lon="2.09302">
        <ele>87</ele>
        <time>2021-03-07T10:27:25.982Z</time>
      </trkpt>
      <trkpt lat="48.5701" lon="2.09302">
        <ele>87</ele>
        <time>2021-03-07T10:27:26.982Z</time>
      </trkpt>
      <trkpt lat="48.57008" lon="2.09301">
        <ele>87</ele>
        <time>2021-03-07T10:27:27.981Z</time>
      </trkpt>
      <trkpt lat="48.57007" lon="2.09301">
        <ele>87</ele>
        <time>2021-03-07T10:27:28.981Z</time>
      </trkpt>
      <trkpt lat="48.57005" lon="2.09301">
        <ele>87</ele>
        <time>2021-03-07T10:27:29.982Z</time>
      </trkpt>
      <trkpt lat="48.57004" lon="2.09301">
        <ele>87</ele>
        <time>2021-03-07T10:27:30.981Z</time>
      </trkpt>
      <trkpt lat="48.57002" lon="2.09302">
        <ele>87</ele>
        <time>2021-03-07T10:27:31.982Z</time>
      </trkpt>
      <trkpt lat="48.57001" lon="2.09302">
        <ele>87</ele>
        <time>2021-03-07T10:27:32.981Z</time>
      </trkpt>
      <trkpt lat="48.57" lon="2.09303">
        <ele>87</ele>
        <time>2021-03-07T10:27:33.982Z</time>
      </trkpt>
      <trkpt lat="48.56999" lon="2.09303">
        <ele>87</ele>
        <time>2021-03-07T10:27:34.981Z</time>
      </trkpt>
      <trkpt lat="48.56997" lon="2.09303">
        <ele>87</ele>
        <time>2021-03-07T10:27:35.981Z</time>
      </trkpt>
      <trkpt lat="48.56996" lon="2.09303">
        <ele>87</ele>
        <time>2021-03-07T10:27:36.982Z</time>
      </trkpt>
      <trkpt lat="48.56995" lon="2.09302">
        <ele>87</ele>
        <time>2021-03-07T10:27:37.981Z</time>
      </trkpt>
      <trkpt lat="48.56993" lon="2.09302">
        <ele>87</ele>
        <time>2021-03-07T10:27:38.982Z</time>
      </trkpt>
      <trkpt lat="48.56992" lon="2.09303">
        <ele>87</ele>
        <time>2021-03-07T10:27:39.982Z</time>
      </trkpt>
      <trkpt lat="48.5699" lon="2.09303">
        <ele>87</ele>
        <time>2021-03-07T10:27:40.982Z</time>
      </trkpt>
      <trkpt lat="48.56989" lon="2.09303">
        <ele>87</ele>
        <time>2021-03-07T10:27:41.982Z</time>
      </trkpt>
      <trkpt lat="48.56988" lon="2.09303">
        <ele>87</ele>
        <time>2021-03-07T10:27:42.982Z</time>
      </trkpt>
      <trkpt lat="48.56986" lon="2.09303">
        <ele>87</ele>
        <time>2021-03-07T10:27:43.982Z</time>
      </trkpt>
      <trkpt lat="48.56985" lon="2.09302">
        <ele>87</ele>
        <time>2021-03-07T10:27:44.981Z</time>
      </trkpt>
      <trkpt lat="48.56984" lon="2.09302">
        <ele>87</ele>
        <time>2021-03-07T10:27:45.982Z</time>
      </trkpt>
      <trkpt lat="48.56982" lon="2.09302">
        <ele>87</ele>
        <time>2021-03-07T10:27:46.981Z</time>
      </trkpt>
      <trkpt lat="48.56981" lon="2.09302">
        <ele>87</ele>
        <time>2021-03-07T10:27:47.982Z</time>
      </trkpt>
      <trkpt lat="48.56979" lon="2.09302">
        <ele>87</ele>
        <time>2021-03-07T10:27:48.981Z</time>
      </trkpt>
      <trkpt lat="48.56978" lon="2.09302">
        <ele>87</ele>
        <time>2021-03-07T10:27:49.982Z</time>
      </trkpt>
      <trkpt lat="48.56977" lon="2.09302">
        <ele>88</ele>
        <time>2021-03-07T10:27:50.982Z</time>
      </trkpt>
      <trkpt lat="48.56976" lon="2.09303">
        <ele>88</ele>
        <time>2021-03-07T10:27:51.982Z</time>
      </trkpt>
      <trkpt lat="48.56975" lon="2.09303">
        <ele>88</ele>
        <time>2021-03-07T10:27:52.982Z</time>
      </trkpt>
      <trkpt lat="48.56974" lon="2.09303">
        <ele>89</ele>
        <time>2021-03-07T10:27:53.982Z</time>
      </trkpt>
      <trkpt lat="48.56973" lon="2.09303">
        <ele>89</ele>
        <time>2021-03-07T10:27:54.982Z</time>
      </trkpt>
      <trkpt lat="48.56972" lon="2.09304">
        <ele>90</ele>
        <time>2021-03-07T10:27:55.982Z</time>
      </trkpt>
      <trkpt lat="48.56972" lon="2.09303">
        <ele>89</ele>
        <time>2021-03-07T10:27:56.982Z</time>
      </trkpt>
      <trkpt lat="48.56971" lon="2.09303">
        <ele>89</ele>
        <time>2021-03-07T10:27:57.982Z</time>
      </trkpt>
      <trkpt lat="48.5697" lon="2.09303">
        <ele>89</ele>
        <time>2021-03-07T10:27:58.982Z</time>
      </trkpt>
      <trkpt lat="48.56969" lon="2.09302">
        <ele>89</ele>
        <time>2021-03-07T10:27:59.982Z</time>
      </trkpt>
      <trkpt lat="48.56967" lon="2.09301">
        <ele>88</ele>
        <time>2021-03-07T10:28:00.982Z</time>
      </trkpt>
      <trkpt lat="48.56965" lon="2.093">
        <ele>88</ele>
        <time>2021-03-07T10:28:01.982Z</time>
      </trkpt>
      <trkpt lat="48.56964" lon="2.09301">
        <ele>88</ele>
        <time>2021-03-07T10:28:02.982Z</time>
      </trkpt>
      <trkpt lat="48.56962" lon="2.09302">
        <ele>88</ele>
        <time>2021-03-07T10:28:03.982Z</time>
      </trkpt>
      <trkpt lat="48.5696" lon="2.09302">
        <ele>89</ele>
        <time>2021-03-07T10:28:04.981Z</time>
      </trkpt>
      <trkpt lat="48.56959" lon="2.09303">
        <ele>90</ele>
        <time>2021-03-07T10:28:05.982Z</time>
      </trkpt>
      <trkpt lat="48.56957" lon="2.09303">
        <ele>91</ele>
        <time>2021-03-07T10:28:06.982Z</time>
      </trkpt>
      <trkpt lat="48.56956" lon="2.09304">
        <ele>92</ele>
        <time>2021-03-07T10:28:07.982Z</time>
      </trkpt>
      <trkpt lat="48.56955" lon="2.09304">
        <ele>92</ele>
        <time>2021-03-07T10:28:08.981Z</time>
      </trkpt>
      <trkpt lat="48.56954" lon="2.09304">
        <ele>92</ele>
        <time>2021-03-07T10:28:09.982Z</time>
      </trkpt>
      <trkpt lat="48.56953" lon="2.09305">
        <ele>93</ele>
        <time>2021-03-07T10:28:10.982Z</time>
      </trkpt>
      <trkpt lat="48.56952" lon="2.09305">
        <ele>93</ele>
        <time>2021-03-07T10:28:11.981Z</time>
      </trkpt>
      <trkpt lat="48.5695" lon="2.09304">
        <ele>93</ele>
        <time>2021-03-07T10:28:12.982Z</time>
      </trkpt>
      <trkpt lat="48.56949" lon="2.09304">
        <ele>93</ele>
        <time>2021-03-07T10:28:13.982Z</time>
      </trkpt>
      <trkpt lat="48.56947" lon="2.09304">
        <ele>93</ele>
        <time>2021-03-07T10:28:14.981Z</time>
      </trkpt>
      <trkpt lat="48.56946" lon="2.09304">
        <ele>93</ele>
        <time>2021-03-07T10:28:15.981Z</time>
      </trkpt>
      <trkpt lat="48.56944" lon="2.09305">
        <ele>93</ele>
        <time>2021-03-07T10:28:16.981Z</time>
      </trkpt>
      <trkpt lat="48.56943" lon="2.09305">
        <ele>93</ele>
        <time>2021-03-07T10:28:17.981Z</time>
      </trkpt>
      <trkpt lat="48.56941" lon="2.09305">
        <ele>93</ele>
        <time>2021-03-07T10:28:18.982Z</time>
      </trkpt>
      <trkpt lat="48.5694" lon="2.09304">
        <ele>93</ele>
        <time>2021-03-07T10:28:19.982Z</time>
      </trkpt>
      <trkpt lat="48.56938" lon="2.09304">
        <ele>93</ele>
        <time>2021-03-07T10:28:20.982Z</time>
      </trkpt>
      <trkpt lat="48.56936" lon="2.09304">
        <ele>94</ele>
        <time>2021-03-07T10:28:21.982Z</time>
      </trkpt>
      <trkpt lat="48.56935" lon="2.09304">
        <ele>94</ele>
        <time>2021-03-07T10:28:22.982Z</time>
      </trkpt>
      <trkpt lat="48.56933" lon="2.09305">
        <ele>94</ele>
        <time>2021-03-07T10:28:23.982Z</time>
      </trkpt>
      <trkpt lat="48.56932" lon="2.09305">
        <ele>94</ele>
        <time>2021-03-07T10:28:24.982Z</time>
      </trkpt>
      <trkpt lat="48.5693" lon="2.09306">
        <ele>95</ele>
        <time>2021-03-07T10:28:25.982Z</time>
      </trkpt>
      <trkpt lat="48.56929" lon="2.09306">
        <ele>95</ele>
        <time>2021-03-07T10:28:26.982Z</time>
      </trkpt>
      <trkpt lat="48.56927" lon="2.09306">
        <ele>96</ele>
        <time>2021-03-07T10:28:27.981Z</time>
      </trkpt>
      <trkpt lat="48.56926" lon="2.09306">
        <ele>96</ele>
        <time>2021-03-07T10:28:28.981Z</time>
      </trkpt>
      <trkpt lat="48.56925" lon="2.09306">
        <ele>97</ele>
        <time>2021-03-07T10:28:29.982Z</time>
      </trkpt>
      <trkpt lat="48.56923" lon="2.09306">
        <ele>98</ele>
        <time>2021-03-07T10:28:30.981Z</time>
      </trkpt>
      <trkpt lat="48.56922" lon="2.09305">
        <ele>98</ele>
        <time>2021-03-07T10:28:31.982Z</time>
      </trkpt>
      <trkpt lat="48.5692" lon="2.09306">
        <ele>98</ele>
        <time>2021-03-07T10:28:32.981Z</time>
      </trkpt>
      <trkpt lat="48.56919" lon="2.09306">
        <ele>99</ele>
        <time>2021-03-07T10:28:33.982Z</time>
      </trkpt>
      <trkpt lat="48.56917" lon="2.09306">
        <ele>99</ele>
        <time>2021-03-07T10:28:34.982Z</time>
      </trkpt>
      <trkpt lat="48.56916" lon="2.09306">
        <ele>99</ele>
        <time>2021-03-07T10:28:35.982Z</time>
      </trkpt>
      <trkpt lat="48.56914" lon="2.09306">
        <ele>99</ele>
        <time>2021-03-07T10:28:36.981Z</time>
      </trkpt>
      <trkpt lat="48.56913" lon="2.09306">
        <ele>99</ele>
        <time>2021-03-07T10:28:37.982Z</time>
      </trkpt>
      <trkpt lat="48.56912" lon="2.09305">
        <ele>99</ele>
        <time>2021-03-07T10:28:38.981Z</time>
      </trkpt>
      <trkpt lat="48.5691" lon="2.09305">
        <ele>100</ele>
        <time>2021-03-07T10:28:39.982Z</time>
      </trkpt>
      <trkpt lat="48.56909" lon="2.09305">
        <ele>100</ele>
        <time>2021-03-07T10:28:40.981Z</time>
      </trkpt>
      <trkpt lat="48.56908" lon="2.09305">
        <ele>100</ele>
        <time>2021-03-07T10:28:41.981Z</time>
      </trkpt>
      <trkpt lat="48.56906" lon="2.09306">
        <ele>101</ele>
        <time>2021-03-07T10:28:42.982Z</time>
      </trkpt>
      <trkpt lat="48.56905" lon="2.09306">
        <ele>101</ele>
        <time>2021-03-07T10:28:43.981Z</time>
      </trkpt>
      <trkpt lat="48.56904" lon="2.09307">
        <ele>101</ele>
        <time>2021-03-07T10:28:44.981Z</time>
      </trkpt>
      <trkpt lat="48.56903" lon="2.09307">
        <ele>101</ele>
        <time>2021-03-07T10:28:45.982Z</time>
      </trkpt>
      <trkpt lat="48.56901" lon="2.09308">
        <ele>101</ele>
        <time>2021-03-07T10:28:46.982Z</time>
      </trkpt>
      <trkpt lat="48.569" lon="2.09308">
        <ele>101</ele>
        <time>2021-03-07T10:28:47.981Z</time>
      </trkpt>
      <trkpt lat="48.56898" lon="2.09308">
        <ele>100</ele>
        <time>2021-03-07T10:28:48.981Z</time>
      </trkpt>
      <trkpt lat="48.56897" lon="2.09308">
        <ele>100</ele>
        <time>2021-03-07T10:28:49.982Z</time>
      </trkpt>
      <trkpt lat="48.56895" lon="2.09309">
        <ele>99</ele>
        <time>2021-03-07T10:28:50.982Z</time>
      </trkpt>
      <trkpt lat="48.56893" lon="2.09309">
        <ele>99</ele>
        <time>2021-03-07T10:28:51.982Z</time>
      </trkpt>
      <trkpt lat="48.56892" lon="2.09309">
        <ele>99</ele>
        <time>2021-03-07T10:28:52.981Z</time>
      </trkpt>
      <trkpt lat="48.56891" lon="2.09309">
        <ele>99</ele>
        <time>2021-03-07T10:28:53.982Z</time>
      </trkpt>
      <trkpt lat="48.5689" lon="2.09309">
        <ele>99</ele>
        <time>2021-03-07T10:28:54.982Z</time>
      </trkpt>
      <trkpt lat="48.56889" lon="2.09309">
        <ele>99</ele>
        <time>2021-03-07T10:28:55.982Z</time>
      </trkpt>
      <trkpt lat="48.56888" lon="2.09309">
        <ele>99</ele>
        <time>2021-03-07T10:28:56.981Z</time>
      </trkpt>
      <trkpt lat="48.56886" lon="2.09309">
        <ele>99</ele>
        <time>2021-03-07T10:28:57.981Z</time>
      </trkpt>
      <trkpt lat="48.56886" lon="2.0931">
        <ele>99</ele>
        <time>2021-03-07T10:28:58.981Z</time>
      </trkpt>
      <trkpt lat="48.56885" lon="2.0931">
        <ele>99</ele>
        <time>2021-03-07T10:28:59.982Z</time>
      </trkpt>
      <trkpt lat="48.56884" lon="2.0931">
        <ele>98</ele>
        <time>2021-03-07T10:29:00.982Z</time>
      </trkpt>
      <trkpt lat="48.56883" lon="2.0931">
        <ele>98</ele>
        <time>2021-03-07T10:29:01.982Z</time>
      </trkpt>
      <trkpt lat="48.56882" lon="2.0931">
        <ele>98</ele>
        <time>2021-03-07T10:29:02.982Z</time>
      </trkpt>
      <trkpt lat="48.5688" lon="2.0931">
        <ele>98</ele>
        <time>2021-03-07T10:29:03.982Z</time>
      </trkpt>
      <trkpt lat="48.56879" lon="2.0931">
        <ele>98</ele>
        <time>2021-03-07T10:29:04.982Z</time>
      </trkpt>
      <trkpt lat="48.56879" lon="2.0931">
        <ele>97</ele>
        <time>2021-03-07T10:29:05.982Z</time>
      </trkpt>
      <trkpt lat="48.56878" lon="2.0931">
        <ele>97</ele>
        <time>2021-03-07T10:29:06.982Z</time>
      </trkpt>
      <trkpt lat="48.56877" lon="2.0931">
        <ele>97</ele>
        <time>2021-03-07T10:29:07.982Z</time>
      </trkpt>
      <trkpt lat="48.56875" lon="2.0931">
        <ele>97</ele>
        <time>2021-03-07T10:29:08.981Z</time>
      </trkpt>
      <trkpt lat="48.56874" lon="2.0931">
        <ele>97</ele>
        <time>2021-03-07T10:29:09.981Z</time>
      </trkpt>
      <trkpt lat="48.56872" lon="2.09311">
        <ele>97</ele>
        <time>2021-03-07T10:29:10.981Z</time>
      </trkpt>
      <trkpt lat="48.56871" lon="2.09311">
        <ele>97</ele>
        <time>2021-03-07T10:29:11.981Z</time>
      </trkpt>
      <trkpt lat="48.56869" lon="2.09311">
        <ele>97</ele>
        <time>2021-03-07T10:29:12.982Z</time>
      </trkpt>
      <trkpt lat="48.56867" lon="2.09311">
        <ele>98</ele>
        <time>2021-03-07T10:29:13.981Z</time>
      </trkpt>
      <trkpt lat="48.56864" lon="2.09311">
        <ele>98</ele>
        <time>2021-03-07T10:29:14.982Z</time>
      </trkpt>
      <trkpt lat="48.56863" lon="2.09311">
        <ele>99</ele>
        <time>2021-03-07T10:29:15.981Z</time>
      </trkpt>
      <trkpt lat="48.56862" lon="2.09312">
        <ele>99</ele>
        <time>2021-03-07T10:29:16.982Z</time>
      </trkpt>
      <trkpt lat="48.5686" lon="2.09312">
        <ele>100</ele>
        <time>2021-03-07T10:29:17.981Z</time>
      </trkpt>
      <trkpt lat="48.56858" lon="2.09312">
        <ele>100</ele>
        <time>2021-03-07T10:29:18.982Z</time>
      </trkpt>
      <trkpt lat="48.56856" lon="2.09311">
        <ele>100</ele>
        <time>2021-03-07T10:29:19.981Z</time>
      </trkpt>
      <trkpt lat="48.56854" lon="2.09311">
        <ele>100</ele>
        <time>2021-03-07T10:29:20.981Z</time>
      </trkpt>
      <trkpt lat="48.5685" lon="2.09311">
        <ele>100</ele>
        <time>2021-03-07T10:29:21.981Z</time>
      </trkpt>
      <trkpt lat="48.56847" lon="2.0931">
        <ele>100</ele>
        <time>2021-03-07T10:29:22.982Z</time>
      </trkpt>
      <trkpt lat="48.56844" lon="2.09309">
        <ele>100</ele>
        <time>2021-03-07T10:29:23.981Z</time>
      </trkpt>
      <trkpt lat="48.56841" lon="2.09308">
        <ele>100</ele>
        <time>2021-03-07T10:29:24.981Z</time>
      </trkpt>
      <trkpt lat="48.56839" lon="2.09308">
        <ele>100</ele>
        <time>2021-03-07T10:29:25.982Z</time>
      </trkpt>
      <trkpt lat="48.56836" lon="2.09309">
        <ele>100</ele>
        <time>2021-03-07T10:29:26.981Z</time>
      </trkpt>
      <trkpt lat="48.56833" lon="2.0931">
        <ele>101</ele>
        <time>2021-03-07T10:29:27.982Z</time>
      </trkpt>
      <trkpt lat="48.5683" lon="2.0931">
        <ele>101</ele>
        <time>2021-03-07T10:29:28.982Z</time>
      </trkpt>
      <trkpt lat="48.56828" lon="2.09311">
        <ele>101</ele>
        <time>2021-03-07T10:29:29.982Z</time>
      </trkpt>
      <trkpt lat="48.56825" lon="2.0931">
        <ele>102</ele>
        <time>2021-03-07T10:29:30.982Z</time>
      </trkpt>
      <trkpt lat="48.56821" lon="2.0931">
        <ele>102</ele>
        <time>2021-03-07T10:29:31.982Z</time>
      </trkpt>
      <trkpt lat="48.56818" lon="2.0931">
        <ele>103</ele>
        <time>2021-03-07T10:29:32.982Z</time>
      </trkpt>
      <trkpt lat="48.56815" lon="2.09309">
        <ele>103</ele>
        <time>2021-03-07T10:29:33.982Z</time>
      </trkpt>
      <trkpt lat="48.56811" lon="2.09309">
        <ele>103</ele>
        <time>2021-03-07T10:29:34.982Z</time>
      </trkpt>
      <trkpt lat="48.56807" lon="2.09309">
        <ele>103</ele>
        <time>2021-03-07T10:29:35.982Z</time>
      </trkpt>
      <trkpt lat="48.56803" lon="2.09309">
        <ele>103</ele>
        <time>2021-03-07T10:29:36.982Z</time>
      </trkpt>
      <trkpt lat="48.56799" lon="2.0931">
        <ele>102</ele>
        <time>2021-03-07T10:29:37.982Z</time>
      </trkpt>
      <trkpt lat="48.56794" lon="2.09311">
        <ele>102</ele>
        <time>2021-03-07T10:29:38.982Z</time>
      </trkpt>
      <trkpt lat="48.5679" lon="2.0931">
        <ele>102</ele>
        <time>2021-03-07T10:29:39.981Z</time>
      </trkpt>
      <trkpt lat="48.56785" lon="2.0931">
        <ele>101</ele>
        <time>2021-03-07T10:29:40.981Z</time>
      </trkpt>
      <trkpt lat="48.56781" lon="2.0931">
        <ele>101</ele>
        <time>2021-03-07T10:29:41.982Z</time>
      </trkpt>
      <trkpt lat="48.56776" lon="2.0931">
        <ele>101</ele>
        <time>2021-03-07T10:29:42.981Z</time>
      </trkpt>
      <trkpt lat="48.56771" lon="2.0931">
        <ele>101</ele>
        <time>2021-03-07T10:29:43.981Z</time>
      </trkpt>
      <trkpt lat="48.56766" lon="2.0931">
        <ele>101</ele>
        <time>2021-03-07T10:29:44.981Z</time>
      </trkpt>
      <trkpt lat="48.56761" lon="2.0931">
        <ele>102</ele>
        <time>2021-03-07T10:29:45.982Z</time>
      </trkpt>
      <trkpt lat="48.56755" lon="2.0931">
        <ele>102</ele>
        <time>2021-03-07T10:29:46.982Z</time>
      </trkpt>
      <trkpt lat="48.5675" lon="2.09309">
        <ele>102</ele>
        <time>2021-03-07T10:29:47.981Z</time>
      </trkpt>
      <trkpt lat="48.56745" lon="2.09307">
        <ele>103</ele>
        <time>2021-03-07T10:29:48.981Z</time>
      </trkpt>
      <trkpt lat="48.56739" lon="2.09306">
        <ele>103</ele>
        <time>2021-03-07T10:29:49.981Z</time>
      </trkpt>
      <trkpt lat="48.56732" lon="2.09303">
        <ele>103</ele>
        <time>2021-03-07T10:29:50.982Z</time>
      </trkpt>
      <trkpt lat="48.56725" lon="2.093">
        <ele>103</ele>
        <time>2021-03-07T10:29:51.981Z</time>
      </trkpt>
      <trkpt lat="48.56719" lon="2.09297">
        <ele>103</ele>
        <time>2021-03-07T10:29:52.981Z</time>
      </trkpt>
      <trkpt lat="48.56711" lon="2.09296">
        <ele>103</ele>
        <time>2021-03-07T10:29:53.981Z</time>
      </trkpt>
      <trkpt lat="48.56705" lon="2.09296">
        <ele>103</ele>
        <time>2021-03-07T10:29:54.982Z</time>
      </trkpt>
      <trkpt lat="48.56699" lon="2.09295">
        <ele>104</ele>
        <time>2021-03-07T10:29:55.981Z</time>
      </trkpt>
      <trkpt lat="48.56694" lon="2.09293">
        <ele>104</ele>
        <time>2021-03-07T10:29:56.981Z</time>
      </trkpt>
      <trkpt lat="48.56688" lon="2.0929">
        <ele>105</ele>
        <time>2021-03-07T10:29:57.982Z</time>
      </trkpt>
      <trkpt lat="48.56683" lon="2.09288">
        <ele>105</ele>
        <time>2021-03-07T10:29:58.981Z</time>
      </trkpt>
      <trkpt lat="48.56678" lon="2.09284">
        <ele>106</ele>
        <time>2021-03-07T10:29:59.981Z</time>
      </trkpt>
      <trkpt lat="48.56674" lon="2.09281">
        <ele>106</ele>
        <time>2021-03-07T10:30:00.982Z</time>
      </trkpt>
      <trkpt lat="48.56668" lon="2.09278">
        <ele>106</ele>
        <time>2021-03-07T10:30:01.982Z</time>
      </trkpt>
      <trkpt lat="48.56663" lon="2.09276">
        <ele>106</ele>
        <time>2021-03-07T10:30:02.982Z</time>
      </trkpt>
      <trkpt lat="48.56658" lon="2.09273">
        <ele>106</ele>
        <time>2021-03-07T10:30:03.982Z</time>
      </trkpt>
      <trkpt lat="48.56653" lon="2.0927">
        <ele>106</ele>
        <time>2021-03-07T10:30:04.981Z</time>
      </trkpt>
      <trkpt lat="48.56647" lon="2.09269">
        <ele>106</ele>
        <time>2021-03-07T10:30:05.982Z</time>
      </trkpt>
      <trkpt lat="48.56644" lon="2.09265">
        <ele>106</ele>
        <time>2021-03-07T10:30:06.981Z</time>
      </trkpt>
      <trkpt lat="48.56638" lon="2.09263">
        <ele>106</ele>
        <time>2021-03-07T10:30:07.982Z</time>
      </trkpt>
      <trkpt lat="48.56633" lon="2.09263">
        <ele>106</ele>
        <time>2021-03-07T10:30:08.982Z</time>
      </trkpt>
      <trkpt lat="48.56627" lon="2.09261">
        <ele>106</ele>
        <time>2021-03-07T10:30:09.981Z</time>
      </trkpt>
      <trkpt lat="48.56621" lon="2.09261">
        <ele>106</ele>
        <time>2021-03-07T10:30:10.981Z</time>
      </trkpt>
      <trkpt lat="48.56616" lon="2.09259">
        <ele>106</ele>
        <time>2021-03-07T10:30:11.981Z</time>
      </trkpt>
      <trkpt lat="48.56612" lon="2.09257">
        <ele>106</ele>
        <time>2021-03-07T10:30:12.982Z</time>
      </trkpt>
      <trkpt lat="48.56608" lon="2.09254">
        <ele>106</ele>
        <time>2021-03-07T10:30:13.981Z</time>
      </trkpt>
      <trkpt lat="48.56604" lon="2.09252">
        <ele>106</ele>
        <time>2021-03-07T10:30:14.982Z</time>
      </trkpt>
      <trkpt lat="48.566" lon="2.0925">
        <ele>106</ele>
        <time>2021-03-07T10:30:15.982Z</time>
      </trkpt>
      <trkpt lat="48.56595" lon="2.09248">
        <ele>106</ele>
        <time>2021-03-07T10:30:16.982Z</time>
      </trkpt>
      <trkpt lat="48.56589" lon="2.09246">
        <ele>107</ele>
        <time>2021-03-07T10:30:17.982Z</time>
      </trkpt>
      <trkpt lat="48.56584" lon="2.09243">
        <ele>107</ele>
        <time>2021-03-07T10:30:18.981Z</time>
      </trkpt>
      <trkpt lat="48.5658" lon="2.0924">
        <ele>108</ele>
        <time>2021-03-07T10:30:19.981Z</time>
      </trkpt>
      <trkpt lat="48.56574" lon="2.09238">
        <ele>108</ele>
        <time>2021-03-07T10:30:20.982Z</time>
      </trkpt>
      <trkpt lat="48.56569" lon="2.09235">
        <ele>109</ele>
        <time>2021-03-07T10:30:21.982Z</time>
      </trkpt>
      <trkpt lat="48.56565" lon="2.09232">
        <ele>109</ele>
        <time>2021-03-07T10:30:22.982Z</time>
      </trkpt>
      <trkpt lat="48.5656" lon="2.09229">
        <ele>109</ele>
        <time>2021-03-07T10:30:23.982Z</time>
      </trkpt>
      <trkpt lat="48.56554" lon="2.09226">
        <ele>110</ele>
        <time>2021-03-07T10:30:24.982Z</time>
      </trkpt>
      <trkpt lat="48.56549" lon="2.09223">
        <ele>110</ele>
        <time>2021-03-07T10:30:25.982Z</time>
      </trkpt>
      <trkpt lat="48.56545" lon="2.0922">
        <ele>110</ele>
        <time>2021-03-07T10:30:26.981Z</time>
      </trkpt>
      <trkpt lat="48.56542" lon="2.09218">
        <ele>110</ele>
        <time>2021-03-07T10:30:27.981Z</time>
      </trkpt>
      <trkpt lat="48.56538" lon="2.09218">
        <ele>110</ele>
        <time>2021-03-07T10:30:28.982Z</time>
      </trkpt>
      <trkpt lat="48.56531" lon="2.09216">
        <ele>110</ele>
        <time>2021-03-07T10:30:29.981Z</time>
      </trkpt>
      <trkpt lat="48.56526" lon="2.09215">
        <ele>111</ele>
        <time>2021-03-07T10:30:30.982Z</time>
      </trkpt>
      <trkpt lat="48.56521" lon="2.09213">
        <ele>111</ele>
        <time>2021-03-07T10:30:31.982Z</time>
      </trkpt>
      <trkpt lat="48.56517" lon="2.09211">
        <ele>111</ele>
        <time>2021-03-07T10:30:32.982Z</time>
      </trkpt>
      <trkpt lat="48.56513" lon="2.0921">
        <ele>111</ele>
        <time>2021-03-07T10:30:33.981Z</time>
      </trkpt>
      <trkpt lat="48.56507" lon="2.09209">
        <ele>111</ele>
        <time>2021-03-07T10:30:34.982Z</time>
      </trkpt>
      <trkpt lat="48.56502" lon="2.09208">
        <ele>112</ele>
        <time>2021-03-07T10:30:35.982Z</time>
      </trkpt>
      <trkpt lat="48.56496" lon="2.09209">
        <ele>112</ele>
        <time>2021-03-07T10:30:36.982Z</time>
      </trkpt>
      <trkpt lat="48.56491" lon="2.09209">
        <ele>112</ele>
        <time>2021-03-07T10:30:37.982Z</time>
      </trkpt>
      <trkpt lat="48.56486" lon="2.09208">
        <ele>113</ele>
        <time>2021-03-07T10:30:38.981Z</time>
      </trkpt>
      <trkpt lat="48.56482" lon="2.09206">
        <ele>114</ele>
        <time>2021-03-07T10:30:39.982Z</time>
      </trkpt>
      <trkpt lat="48.56477" lon="2.09205">
        <ele>114</ele>
        <time>2021-03-07T10:30:40.981Z</time>
      </trkpt>
      <trkpt lat="48.56472" lon="2.09203">
        <ele>115</ele>
        <time>2021-03-07T10:30:41.982Z</time>
      </trkpt>
      <trkpt lat="48.56467" lon="2.09201">
        <ele>115</ele>
        <time>2021-03-07T10:30:42.982Z</time>
      </trkpt>
      <trkpt lat="48.56463" lon="2.09198">
        <ele>116</ele>
        <time>2021-03-07T10:30:43.982Z</time>
      </trkpt>
      <trkpt lat="48.56458" lon="2.09195">
        <ele>116</ele>
        <time>2021-03-07T10:30:44.981Z</time>
      </trkpt>
      <trkpt lat="48.56453" lon="2.0919">
        <ele>116</ele>
        <time>2021-03-07T10:30:45.982Z</time>
      </trkpt>
      <trkpt lat="48.56449" lon="2.09186">
        <ele>116</ele>
        <time>2021-03-07T10:30:46.982Z</time>
      </trkpt>
      <trkpt lat="48.56444" lon="2.09183">
        <ele>115</ele>
        <time>2021-03-07T10:30:47.982Z</time>
      </trkpt>
      <trkpt lat="48.5644" lon="2.09179">
        <ele>115</ele>
        <time>2021-03-07T10:30:48.982Z</time>
      </trkpt>
      <trkpt lat="48.56435" lon="2.09176">
        <ele>115</ele>
        <time>2021-03-07T10:30:49.982Z</time>
      </trkpt>
      <trkpt lat="48.56431" lon="2.09172">
        <ele>115</ele>
        <time>2021-03-07T10:30:50.982Z</time>
      </trkpt>
      <trkpt lat="48.56426" lon="2.09169">
        <ele>115</ele>
        <time>2021-03-07T10:30:51.981Z</time>
      </trkpt>
      <trkpt lat="48.56421" lon="2.09166">
        <ele>115</ele>
        <time>2021-03-07T10:30:52.982Z</time>
      </trkpt>
      <trkpt lat="48.56416" lon="2.09163">
        <ele>115</ele>
        <time>2021-03-07T10:30:53.981Z</time>
      </trkpt>
      <trkpt lat="48.56411" lon="2.0916">
        <ele>114</ele>
        <time>2021-03-07T10:30:54.982Z</time>
      </trkpt>
      <trkpt lat="48.56405" lon="2.09157">
        <ele>114</ele>
        <time>2021-03-07T10:30:55.982Z</time>
      </trkpt>
      <trkpt lat="48.56398" lon="2.09157">
        <ele>114</ele>
        <time>2021-03-07T10:30:56.981Z</time>
      </trkpt>
      <trkpt lat="48.56392" lon="2.09155">
        <ele>114</ele>
        <time>2021-03-07T10:30:57.982Z</time>
      </trkpt>
      <trkpt lat="48.56387" lon="2.09154">
        <ele>114</ele>
        <time>2021-03-07T10:30:58.981Z</time>
      </trkpt>
      <trkpt lat="48.56381" lon="2.09153">
        <ele>115</ele>
        <time>2021-03-07T10:30:59.981Z</time>
      </trkpt>
      <trkpt lat="48.56376" lon="2.09152">
        <ele>115</ele>
        <time>2021-03-07T10:31:00.981Z</time>
      </trkpt>
      <trkpt lat="48.5637" lon="2.09153">
        <ele>116</ele>
        <time>2021-03-07T10:31:01.981Z</time>
      </trkpt>
      <trkpt lat="48.56364" lon="2.09153">
        <ele>117</ele>
        <time>2021-03-07T10:31:02.982Z</time>
      </trkpt>
      <trkpt lat="48.56359" lon="2.09153">
        <ele>118</ele>
        <time>2021-03-07T10:31:03.982Z</time>
      </trkpt>
      <trkpt lat="48.56353" lon="2.09154">
        <ele>118</ele>
        <time>2021-03-07T10:31:04.982Z</time>
      </trkpt>
      <trkpt lat="48.56348" lon="2.09154">
        <ele>119</ele>
        <time>2021-03-07T10:31:05.982Z</time>
      </trkpt>
      <trkpt lat="48.56342" lon="2.09154">
        <ele>119</ele>
        <time>2021-03-07T10:31:06.982Z</time>
      </trkpt>
      <trkpt lat="48.56336" lon="2.09154">
        <ele>120</ele>
        <time>2021-03-07T10:31:07.982Z</time>
      </trkpt>
      <trkpt lat="48.5633" lon="2.09152">
        <ele>121</ele>
        <time>2021-03-07T10:31:08.982Z</time>
      </trkpt>
      <trkpt lat="48.56324" lon="2.09151">
        <ele>121</ele>
        <time>2021-03-07T10:31:09.982Z</time>
      </trkpt>
      <trkpt lat="48.56319" lon="2.09149">
        <ele>121</ele>
        <time>2021-03-07T10:31:10.981Z</time>
      </trkpt>
      <trkpt lat="48.56314" lon="2.09147">
        <ele>121</ele>
        <time>2021-03-07T10:31:11.982Z</time>
      </trkpt>
      <trkpt lat="48.56308" lon="2.09146">
        <ele>121</ele>
        <time>2021-03-07T10:31:12.981Z</time>
      </trkpt>
      <trkpt lat="48.56302" lon="2.09145">
        <ele>121</ele>
        <time>2021-03-07T10:31:13.981Z</time>
      </trkpt>
      <trkpt lat="48.56297" lon="2.09145">
        <ele>121</ele>
        <time>2021-03-07T10:31:14.982Z</time>
      </trkpt>
      <trkpt lat="48.56293" lon="2.09144">
        <ele>121</ele>
        <time>2021-03-07T10:31:15.981Z</time>
      </trkpt>
      <trkpt lat="48.56288" lon="2.09143">
        <ele>121</ele>
        <time>2021-03-07T10:31:16.982Z</time>
      </trkpt>
      <trkpt lat="48.56282" lon="2.09143">
        <ele>121</ele>
        <time>2021-03-07T10:31:17.982Z</time>
      </trkpt>
      <trkpt lat="48.56276" lon="2.09143">
        <ele>121</ele>
        <time>2021-03-07T10:31:18.982Z</time>
      </trkpt>
      <trkpt lat="48.5627" lon="2.09142">
        <ele>122</ele>
        <time>2021-03-07T10:31:19.982Z</time>
      </trkpt>
      <trkpt lat="48.56265" lon="2.09143">
        <ele>122</ele>
        <time>2021-03-07T10:31:20.982Z</time>
      </trkpt>
      <trkpt lat="48.56259" lon="2.09143">
        <ele>122</ele>
        <time>2021-03-07T10:31:21.981Z</time>
      </trkpt>
      <trkpt lat="48.56255" lon="2.09143">
        <ele>121</ele>
        <time>2021-03-07T10:31:22.981Z</time>
      </trkpt>
      <trkpt lat="48.56251" lon="2.09142">
        <ele>121</ele>
        <time>2021-03-07T10:31:23.982Z</time>
      </trkpt>
      <trkpt lat="48.56246" lon="2.0914">
        <ele>121</ele>
        <time>2021-03-07T10:31:24.982Z</time>
      </trkpt>
      <trkpt lat="48.56242" lon="2.09138">
        <ele>120</ele>
        <time>2021-03-07T10:31:25.982Z</time>
      </trkpt>
      <trkpt lat="48.56237" lon="2.09137">
        <ele>120</ele>
        <time>2021-03-07T10:31:26.981Z</time>
      </trkpt>
      <trkpt lat="48.56232" lon="2.09136">
        <ele>120</ele>
        <time>2021-03-07T10:31:27.982Z</time>
      </trkpt>
      <trkpt lat="48.56226" lon="2.09135">
        <ele>119</ele>
        <time>2021-03-07T10:31:28.981Z</time>
      </trkpt>
      <trkpt lat="48.5622" lon="2.09134">
        <ele>119</ele>
        <time>2021-03-07T10:31:29.982Z</time>
      </trkpt>
      <trkpt lat="48.56215" lon="2.09134">
        <ele>119</ele>
        <time>2021-03-07T10:31:30.981Z</time>
      </trkpt>
      <trkpt lat="48.56208" lon="2.09133">
        <ele>118</ele>
        <time>2021-03-07T10:31:31.982Z</time>
      </trkpt>
      <trkpt lat="48.56201" lon="2.09133">
        <ele>118</ele>
        <time>2021-03-07T10:31:32.982Z</time>
      </trkpt>
      <trkpt lat="48.56196" lon="2.09131">
        <ele>118</ele>
        <time>2021-03-07T10:31:33.981Z</time>
      </trkpt>
      <trkpt lat="48.56192" lon="2.09129">
        <ele>118</ele>
        <time>2021-03-07T10:31:34.982Z</time>
      </trkpt>
      <trkpt lat="48.56188" lon="2.09128">
        <ele>118</ele>
        <time>2021-03-07T10:31:35.982Z</time>
      </trkpt>
      <trkpt lat="48.56184" lon="2.09127">
        <ele>117</ele>
        <time>2021-03-07T10:31:36.981Z</time>
      </trkpt>
      <trkpt lat="48.56179" lon="2.09125">
        <ele>117</ele>
        <time>2021-03-07T10:31:37.982Z</time>
      </trkpt>
      <trkpt lat="48.56173" lon="2.09125">
        <ele>117</ele>
        <time>2021-03-07T10:31:38.982Z</time>
      </trkpt>
      <trkpt lat="48.56168" lon="2.09125">
        <ele>117</ele>
        <time>2021-03-07T10:31:39.982Z</time>
      </trkpt>
      <trkpt lat="48.56163" lon="2.09123">
        <ele>117</ele>
        <time>2021-03-07T10:31:40.981Z</time>
      </trkpt>
      <trkpt lat="48.56158" lon="2.09122">
        <ele>117</ele>
        <time>2021-03-07T10:31:41.982Z</time>
      </trkpt>
      <trkpt lat="48.56152" lon="2.09122">
        <ele>117</ele>
        <time>2021-03-07T10:31:42.981Z</time>
      </trkpt>
      <trkpt lat="48.56146" lon="2.09122">
        <ele>117</ele>
        <time>2021-03-07T10:31:43.981Z</time>
      </trkpt>
      <trkpt lat="48.56141" lon="2.09122">
        <ele>117</ele>
        <time>2021-03-07T10:31:44.982Z</time>
      </trkpt>
      <trkpt lat="48.56135" lon="2.09123">
        <ele>118</ele>
        <time>2021-03-07T10:31:45.982Z</time>
      </trkpt>
      <trkpt lat="48.5613" lon="2.09123">
        <ele>118</ele>
        <time>2021-03-07T10:31:46.982Z</time>
      </trkpt>
      <trkpt lat="48.56126" lon="2.09122">
        <ele>118</ele>
        <time>2021-03-07T10:31:47.982Z</time>
      </trkpt>
      <trkpt lat="48.56121" lon="2.09122">
        <ele>118</ele>
        <time>2021-03-07T10:31:48.982Z</time>
      </trkpt>
      <trkpt lat="48.56116" lon="2.09122">
        <ele>118</ele>
        <time>2021-03-07T10:31:49.982Z</time>
      </trkpt>
      <trkpt lat="48.5611" lon="2.09122">
        <ele>118</ele>
        <time>2021-03-07T10:31:50.982Z</time>
      </trkpt>
      <trkpt lat="48.56105" lon="2.09121">
        <ele>118</ele>
        <time>2021-03-07T10:31:51.982Z</time>
      </trkpt>
      <trkpt lat="48.56101" lon="2.0912">
        <ele>118</ele>
        <time>2021-03-07T10:31:52.982Z</time>
      </trkpt>
      <trkpt lat="48.56097" lon="2.09121">
        <ele>118</ele>
        <time>2021-03-07T10:31:53.982Z</time>
      </trkpt>
      <trkpt lat="48.56092" lon="2.09122">
        <ele>118</ele>
        <time>2021-03-07T10:31:54.981Z</time>
      </trkpt>
      <trkpt lat="48.56087" lon="2.09124">
        <ele>118</ele>
        <time>2021-03-07T10:31:55.981Z</time>
      </trkpt>
      <trkpt lat="48.56082" lon="2.09127">
        <ele>119</ele>
        <time>2021-03-07T10:31:56.982Z</time>
      </trkpt>
      <trkpt lat="48.56075" lon="2.09128">
        <ele>119</ele>
        <time>2021-03-07T10:31:57.982Z</time>
      </trkpt>
      <trkpt lat="48.56068" lon="2.09131">
        <ele>119</ele>
        <time>2021-03-07T10:31:58.982Z</time>
      </trkpt>
      <trkpt lat="48.56061" lon="2.09134">
        <ele>119</ele>
        <time>2021-03-07T10:31:59.981Z</time>
      </trkpt>
      <trkpt lat="48.56056" lon="2.09137">
        <ele>119</ele>
        <time>2021-03-07T10:32:00.982Z</time>
      </trkpt>
      <trkpt lat="48.56049" lon="2.09142">
        <ele>119</ele>
        <time>2021-03-07T10:32:01.982Z</time>
      </trkpt>
      <trkpt lat="48.56043" lon="2.09145">
        <ele>120</ele>
        <time>2021-03-07T10:32:02.982Z</time>
      </trkpt>
      <trkpt lat="48.56037" lon="2.09147">
        <ele>120</ele>
        <time>2021-03-07T10:32:03.982Z</time>
      </trkpt>
      <trkpt lat="48.5603" lon="2.0915">
        <ele>120</ele>
        <time>2021-03-07T10:32:04.981Z</time>
      </trkpt>
      <trkpt lat="48.56024" lon="2.09154">
        <ele>120</ele>
        <time>2021-03-07T10:32:05.982Z</time>
      </trkpt>
      <trkpt lat="48.56018" lon="2.09157">
        <ele>121</ele>
        <time>2021-03-07T10:32:06.981Z</time>
      </trkpt>
      <trkpt lat="48.56013" lon="2.0916">
        <ele>122</ele>
        <time>2021-03-07T10:32:07.982Z</time>
      </trkpt>
      <trkpt lat="48.56006" lon="2.09162">
        <ele>123</ele>
        <time>2021-03-07T10:32:08.982Z</time>
      </trkpt>
      <trkpt lat="48.56" lon="2.09165">
        <ele>124</ele>
        <time>2021-03-07T10:32:09.982Z</time>
      </trkpt>
      <trkpt lat="48.55995" lon="2.09167">
        <ele>125</ele>
        <time>2021-03-07T10:32:10.982Z</time>
      </trkpt>
      <trkpt lat="48.5599" lon="2.0917">
        <ele>126</ele>
        <time>2021-03-07T10:32:11.982Z</time>
      </trkpt>
      <trkpt lat="48.55985" lon="2.09174">
        <ele>128</ele>
        <time>2021-03-07T10:32:12.981Z</time>
      </trkpt>
      <trkpt lat="48.5598" lon="2.09176">
        <ele>128</ele>
        <time>2021-03-07T10:32:13.982Z</time>
      </trkpt>
      <trkpt lat="48.55975" lon="2.09178">
        <ele>129</ele>
        <time>2021-03-07T10:32:14.982Z</time>
      </trkpt>
      <trkpt lat="48.5597" lon="2.09181">
        <ele>130</ele>
        <time>2021-03-07T10:32:15.981Z</time>
      </trkpt>
      <trkpt lat="48.55965" lon="2.09184">
        <ele>131</ele>
        <time>2021-03-07T10:32:16.981Z</time>
      </trkpt>
      <trkpt lat="48.55961" lon="2.09187">
        <ele>131</ele>
        <time>2021-03-07T10:32:17.981Z</time>
      </trkpt>
      <trkpt lat="48.55956" lon="2.0919">
        <ele>131</ele>
        <time>2021-03-07T10:32:18.981Z</time>
      </trkpt>
      <trkpt lat="48.55951" lon="2.09194">
        <ele>131</ele>
        <time>2021-03-07T10:32:19.982Z</time>
      </trkpt>
      <trkpt lat="48.55947" lon="2.09196">
        <ele>131</ele>
        <time>2021-03-07T10:32:20.982Z</time>
      </trkpt>
      <trkpt lat="48.55943" lon="2.09197">
        <ele>132</ele>
        <time>2021-03-07T10:32:21.982Z</time>
      </trkpt>
      <trkpt lat="48.55939" lon="2.09199">
        <ele>132</ele>
        <time>2021-03-07T10:32:22.982Z</time>
      </trkpt>
      <trkpt lat="48.55934" lon="2.092">
        <ele>132</ele>
        <time>2021-03-07T10:32:23.982Z</time>
      </trkpt>
      <trkpt lat="48.55929" lon="2.09202">
        <ele>133</ele>
        <time>2021-03-07T10:32:24.982Z</time>
      </trkpt>
      <trkpt lat="48.55925" lon="2.09204">
        <ele>134</ele>
        <time>2021-03-07T10:32:25.981Z</time>
      </trkpt>
      <trkpt lat="48.55919" lon="2.09206">
        <ele>134</ele>
        <time>2021-03-07T10:32:26.981Z</time>
      </trkpt>
      <trkpt lat="48.55914" lon="2.09207">
        <ele>135</ele>
        <time>2021-03-07T10:32:27.982Z</time>
      </trkpt>
      <trkpt lat="48.55909" lon="2.09208">
        <ele>136</ele>
        <time>2021-03-07T10:32:28.981Z</time>
      </trkpt>
      <trkpt lat="48.55903" lon="2.09208">
        <ele>136</ele>
        <time>2021-03-07T10:32:29.982Z</time>
      </trkpt>
      <trkpt lat="48.55898" lon="2.09208">
        <ele>137</ele>
        <time>2021-03-07T10:32:30.982Z</time>
      </trkpt>
      <trkpt lat="48.55894" lon="2.09208">
        <ele>137</ele>
        <time>2021-03-07T10:32:31.982Z</time>
      </trkpt>
      <trkpt lat="48.55888" lon="2.09207">
        <ele>138</ele>
        <time>2021-03-07T10:32:32.982Z</time>
      </trkpt>
      <trkpt lat="48.55884" lon="2.09206">
        <ele>138</ele>
        <time>2021-03-07T10:32:33.982Z</time>
      </trkpt>
      <trkpt lat="48.5588" lon="2.09206">
        <ele>139</ele>
        <time>2021-03-07T10:32:34.981Z</time>
      </trkpt>
      <trkpt lat="48.55876" lon="2.09204">
        <ele>139</ele>
        <time>2021-03-07T10:32:35.982Z</time>
      </trkpt>
      <trkpt lat="48.55873" lon="2.09204">
        <ele>140</ele>
        <time>2021-03-07T10:32:36.981Z</time>
      </trkpt>
      <trkpt lat="48.5587" lon="2.09203">
        <ele>141</ele>
        <time>2021-03-07T10:32:37.981Z</time>
      </trkpt>
      <trkpt lat="48.55868" lon="2.09202">
        <ele>142</ele>
        <time>2021-03-07T10:32:38.982Z</time>
      </trkpt>
      <trkpt lat="48.55866" lon="2.09201">
        <ele>142</ele>
        <time>2021-03-07T10:32:39.982Z</time>
      </trkpt>
      <trkpt lat="48.55863" lon="2.09199">
        <ele>142</ele>
        <time>2021-03-07T10:32:40.982Z</time>
      </trkpt>
      <trkpt lat="48.55861" lon="2.09198">
        <ele>142</ele>
        <time>2021-03-07T10:32:41.981Z</time>
      </trkpt>
      <trkpt lat="48.55859" lon="2.09196">
        <ele>142</ele>
        <time>2021-03-07T10:32:42.982Z</time>
      </trkpt>
      <trkpt lat="48.55857" lon="2.09195">
        <ele>143</ele>
        <time>2021-03-07T10:32:43.982Z</time>
      </trkpt>
      <trkpt lat="48.55855" lon="2.09194">
        <ele>143</ele>
        <time>2021-03-07T10:32:44.981Z</time>
      </trkpt>
      <trkpt lat="48.55853" lon="2.09194">
        <ele>144</ele>
        <time>2021-03-07T10:32:45.982Z</time>
      </trkpt>
      <trkpt lat="48.55851" lon="2.09193">
        <ele>144</ele>
        <time>2021-03-07T10:32:46.982Z</time>
      </trkpt>
      <trkpt lat="48.55848" lon="2.09192">
        <ele>145</ele>
        <time>2021-03-07T10:32:47.982Z</time>
      </trkpt>
      <trkpt lat="48.55846" lon="2.09191">
        <ele>145</ele>
        <time>2021-03-07T10:32:48.982Z</time>
      </trkpt>
      <trkpt lat="48.55843" lon="2.0919">
        <ele>145</ele>
        <time>2021-03-07T10:32:49.982Z</time>
      </trkpt>
      <trkpt lat="48.5584" lon="2.0919">
        <ele>145</ele>
        <time>2021-03-07T10:32:50.982Z</time>
      </trkpt>
      <trkpt lat="48.55837" lon="2.0919">
        <ele>145</ele>
        <time>2021-03-07T10:32:51.981Z</time>
      </trkpt>
      <trkpt lat="48.55835" lon="2.09189">
        <ele>145</ele>
        <time>2021-03-07T10:32:52.982Z</time>
      </trkpt>
      <trkpt lat="48.55832" lon="2.09189">
        <ele>145</ele>
        <time>2021-03-07T10:32:53.981Z</time>
      </trkpt>
      <trkpt lat="48.5583" lon="2.09189">
        <ele>145</ele>
        <time>2021-03-07T10:32:54.982Z</time>
      </trkpt>
      <trkpt lat="48.55827" lon="2.09187">
        <ele>145</ele>
        <time>2021-03-07T10:32:55.982Z</time>
      </trkpt>
      <trkpt lat="48.55825" lon="2.09185">
        <ele>145</ele>
        <time>2021-03-07T10:32:56.982Z</time>
      </trkpt>
      <trkpt lat="48.55822" lon="2.09184">
        <ele>144</ele>
        <time>2021-03-07T10:32:57.982Z</time>
      </trkpt>
      <trkpt lat="48.55818" lon="2.09182">
        <ele>144</ele>
        <time>2021-03-07T10:32:58.981Z</time>
      </trkpt>
      <trkpt lat="48.55815" lon="2.0918">
        <ele>144</ele>
        <time>2021-03-07T10:32:59.982Z</time>
      </trkpt>
      <trkpt lat="48.55812" lon="2.09179">
        <ele>143</ele>
        <time>2021-03-07T10:33:00.982Z</time>
      </trkpt>
      <trkpt lat="48.55807" lon="2.09178">
        <ele>143</ele>
        <time>2021-03-07T10:33:01.982Z</time>
      </trkpt>
      <trkpt lat="48.55804" lon="2.09177">
        <ele>143</ele>
        <time>2021-03-07T10:33:02.981Z</time>
      </trkpt>
      <trkpt lat="48.558" lon="2.09175">
        <ele>143</ele>
        <time>2021-03-07T10:33:03.981Z</time>
      </trkpt>
      <trkpt lat="48.55798" lon="2.09173">
        <ele>144</ele>
        <time>2021-03-07T10:33:04.981Z</time>
      </trkpt>
      <trkpt lat="48.55796" lon="2.09169">
        <ele>144</ele>
        <time>2021-03-07T10:33:05.981Z</time>
      </trkpt>
      <trkpt lat="48.55792" lon="2.09168">
        <ele>144</ele>
        <time>2021-03-07T10:33:06.982Z</time>
      </trkpt>
      <trkpt lat="48.5579" lon="2.09166">
        <ele>144</ele>
        <time>2021-03-07T10:33:07.982Z</time>
      </trkpt>
      <trkpt lat="48.55788" lon="2.09164">
        <ele>145</ele>
        <time>2021-03-07T10:33:08.981Z</time>
      </trkpt>
      <trkpt lat="48.55787" lon="2.09162">
        <ele>145</ele>
        <time>2021-03-07T10:33:09.982Z</time>
      </trkpt>
      <trkpt lat="48.55785" lon="2.09159">
        <ele>146</ele>
        <time>2021-03-07T10:33:10.981Z</time>
      </trkpt>
      <trkpt lat="48.55784" lon="2.09155">
        <ele>146</ele>
        <time>2021-03-07T10:33:11.981Z</time>
      </trkpt>
      <trkpt lat="48.55781" lon="2.09152">
        <ele>146</ele>
        <time>2021-03-07T10:33:12.982Z</time>
      </trkpt>
      <trkpt lat="48.55778" lon="2.09151">
        <ele>146</ele>
        <time>2021-03-07T10:33:13.981Z</time>
      </trkpt>
      <trkpt lat="48.55775" lon="2.09149">
        <ele>146</ele>
        <time>2021-03-07T10:33:14.982Z</time>
      </trkpt>
      <trkpt lat="48.55772" lon="2.09147">
        <ele>147</ele>
        <time>2021-03-07T10:33:15.981Z</time>
      </trkpt>
      <trkpt lat="48.55769" lon="2.09145">
        <ele>147</ele>
        <time>2021-03-07T10:33:16.982Z</time>
      </trkpt>
      <trkpt lat="48.55767" lon="2.09143">
        <ele>147</ele>
        <time>2021-03-07T10:33:17.982Z</time>
      </trkpt>
      <trkpt lat="48.55765" lon="2.0914">
        <ele>146</ele>
        <time>2021-03-07T10:33:18.982Z</time>
      </trkpt>
      <trkpt lat="48.55762" lon="2.09138">
        <ele>146</ele>
        <time>2021-03-07T10:33:19.982Z</time>
      </trkpt>
      <trkpt lat="48.55759" lon="2.09136">
        <ele>146</ele>
        <time>2021-03-07T10:33:20.981Z</time>
      </trkpt>
      <trkpt lat="48.55756" lon="2.09134">
        <ele>146</ele>
        <time>2021-03-07T10:33:21.982Z</time>
      </trkpt>
      <trkpt lat="48.55753" lon="2.09132">
        <ele>146</ele>
        <time>2021-03-07T10:33:22.982Z</time>
      </trkpt>
      <trkpt lat="48.5575" lon="2.09131">
        <ele>146</ele>
        <time>2021-03-07T10:33:23.982Z</time>
      </trkpt>
      <trkpt lat="48.55748" lon="2.09129">
        <ele>146</ele>
        <time>2021-03-07T10:33:24.981Z</time>
      </trkpt>
      <trkpt lat="48.55744" lon="2.09128">
        <ele>147</ele>
        <time>2021-03-07T10:33:25.981Z</time>
      </trkpt>
      <trkpt lat="48.5574" lon="2.09127">
        <ele>147</ele>
        <time>2021-03-07T10:33:26.981Z</time>
      </trkpt>
      <trkpt lat="48.55736" lon="2.09125">
        <ele>148</ele>
        <time>2021-03-07T10:33:27.982Z</time>
      </trkpt>
      <trkpt lat="48.55733" lon="2.09123">
        <ele>149</ele>
        <time>2021-03-07T10:33:28.982Z</time>
      </trkpt>
      <trkpt lat="48.5573" lon="2.09123">
        <ele>149</ele>
        <time>2021-03-07T10:33:29.982Z</time>
      </trkpt>
      <trkpt lat="48.55728" lon="2.09121">
        <ele>150</ele>
        <time>2021-03-07T10:33:30.981Z</time>
      </trkpt>
      <trkpt lat="48.55725" lon="2.0912">
        <ele>151</ele>
        <time>2021-03-07T10:33:31.981Z</time>
      </trkpt>
      <trkpt lat="48.55722" lon="2.09119">
        <ele>152</ele>
        <time>2021-03-07T10:33:32.982Z</time>
      </trkpt>
      <trkpt lat="48.5572" lon="2.09118">
        <ele>153</ele>
        <time>2021-03-07T10:33:33.982Z</time>
      </trkpt>
      <trkpt lat="48.55717" lon="2.09116">
        <ele>153</ele>
        <time>2021-03-07T10:33:34.982Z</time>
      </trkpt>
      <trkpt lat="48.55714" lon="2.09115">
        <ele>154</ele>
        <time>2021-03-07T10:33:35.982Z</time>
      </trkpt>
      <trkpt lat="48.55711" lon="2.09114">
        <ele>155</ele>
        <time>2021-03-07T10:33:36.981Z</time>
      </trkpt>
      <trkpt lat="48.55708" lon="2.09112">
        <ele>156</ele>
        <time>2021-03-07T10:33:37.982Z</time>
      </trkpt>
      <trkpt lat="48.55705" lon="2.09111">
        <ele>156</ele>
        <time>2021-03-07T10:33:38.981Z</time>
      </trkpt>
      <trkpt lat="48.55703" lon="2.0911">
        <ele>157</ele>
        <time>2021-03-07T10:33:39.981Z</time>
      </trkpt>
      <trkpt lat="48.55701" lon="2.09108">
        <ele>157</ele>
        <time>2021-03-07T10:33:40.981Z</time>
      </trkpt>
      <trkpt lat="48.55699" lon="2.09106">
        <ele>157</ele>
        <time>2021-03-07T10:33:41.982Z</time>
      </trkpt>
      <trkpt lat="48.55698" lon="2.09104">
        <ele>157</ele>
        <time>2021-03-07T10:33:42.981Z</time>
      </trkpt>
      <trkpt lat="48.55698" lon="2.09103">
        <ele>156</ele>
        <time>2021-03-07T10:33:43.982Z</time>
      </trkpt>
      <trkpt lat="48.55697" lon="2.09102">
        <ele>156</ele>
        <time>2021-03-07T10:33:44.982Z</time>
      </trkpt>
      <trkpt lat="48.55696" lon="2.091">
        <ele>156</ele>
        <time>2021-03-07T10:33:45.982Z</time>
      </trkpt>
      <trkpt lat="48.55696" lon="2.09098">
        <ele>156</ele>
        <time>2021-03-07T10:33:46.982Z</time>
      </trkpt>
      <trkpt lat="48.55696" lon="2.09097">
        <ele>156</ele>
        <time>2021-03-07T10:33:47.982Z</time>
      </trkpt>
      <trkpt lat="48.55694" lon="2.09095">
        <ele>156</ele>
        <time>2021-03-07T10:33:48.982Z</time>
      </trkpt>
      <trkpt lat="48.55693" lon="2.09094">
        <ele>156</ele>
        <time>2021-03-07T10:33:49.981Z</time>
      </trkpt>
      <trkpt lat="48.55692" lon="2.09093">
        <ele>156</ele>
        <time>2021-03-07T10:33:50.982Z</time>
      </trkpt>
      <trkpt lat="48.5569" lon="2.0909">
        <ele>157</ele>
        <time>2021-03-07T10:33:51.981Z</time>
      </trkpt>
      <trkpt lat="48.55688" lon="2.09088">
        <ele>157</ele>
        <time>2021-03-07T10:33:52.982Z</time>
      </trkpt>
      <trkpt lat="48.55688" lon="2.09086">
        <ele>157</ele>
        <time>2021-03-07T10:33:53.982Z</time>
      </trkpt>
      <trkpt lat="48.55687" lon="2.09083">
        <ele>158</ele>
        <time>2021-03-07T10:33:54.982Z</time>
      </trkpt>
      <trkpt lat="48.55686" lon="2.0908">
        <ele>158</ele>
        <time>2021-03-07T10:33:55.982Z</time>
      </trkpt>
      <trkpt lat="48.55686" lon="2.09076">
        <ele>157</ele>
        <time>2021-03-07T10:33:56.982Z</time>
      </trkpt>
      <trkpt lat="48.55685" lon="2.09072">
        <ele>157</ele>
        <time>2021-03-07T10:33:57.982Z</time>
      </trkpt>
      <trkpt lat="48.55685" lon="2.09068">
        <ele>156</ele>
        <time>2021-03-07T10:33:58.981Z</time>
      </trkpt>
      <trkpt lat="48.55685" lon="2.09066">
        <ele>156</ele>
        <time>2021-03-07T10:33:59.982Z</time>
      </trkpt>
      <trkpt lat="48.55685" lon="2.09064">
        <ele>156</ele>
        <time>2021-03-07T10:34:00.981Z</time>
      </trkpt>
      <trkpt lat="48.55685" lon="2.09062">
        <ele>156</ele>
        <time>2021-03-07T10:34:01.982Z</time>
      </trkpt>
      <trkpt lat="48.55684" lon="2.0906">
        <ele>156</ele>
        <time>2021-03-07T10:34:02.981Z</time>
      </trkpt>
      <trkpt lat="48.55684" lon="2.09058">
        <ele>156</ele>
        <time>2021-03-07T10:34:03.982Z</time>
      </trkpt>
      <trkpt lat="48.55684" lon="2.09056">
        <ele>155</ele>
        <time>2021-03-07T10:34:04.981Z</time>
      </trkpt>
      <trkpt lat="48.55684" lon="2.09054">
        <ele>155</ele>
        <time>2021-03-07T10:34:05.982Z</time>
      </trkpt>
      <trkpt lat="48.55684" lon="2.09052">
        <ele>155</ele>
        <time>2021-03-07T10:34:06.982Z</time>
      </trkpt>
      <trkpt lat="48.55684" lon="2.09051">
        <ele>154</ele>
        <time>2021-03-07T10:34:07.982Z</time>
      </trkpt>
      <trkpt lat="48.55684" lon="2.09049">
        <ele>154</ele>
        <time>2021-03-07T10:34:08.981Z</time>
      </trkpt>
      <trkpt lat="48.55684" lon="2.09047">
        <ele>154</ele>
        <time>2021-03-07T10:34:09.982Z</time>
      </trkpt>
      <trkpt lat="48.55684" lon="2.09045">
        <ele>154</ele>
        <time>2021-03-07T10:34:10.982Z</time>
      </trkpt>
      <trkpt lat="48.55684" lon="2.09043">
        <ele>153</ele>
        <time>2021-03-07T10:34:11.981Z</time>
      </trkpt>
      <trkpt lat="48.55684" lon="2.09041">
        <ele>153</ele>
        <time>2021-03-07T10:34:12.981Z</time>
      </trkpt>
      <trkpt lat="48.55683" lon="2.09038">
        <ele>153</ele>
        <time>2021-03-07T10:34:13.982Z</time>
      </trkpt>
      <trkpt lat="48.55683" lon="2.09035">
        <ele>153</ele>
        <time>2021-03-07T10:34:14.982Z</time>
      </trkpt>
      <trkpt lat="48.55683" lon="2.09032">
        <ele>153</ele>
        <time>2021-03-07T10:34:15.981Z</time>
      </trkpt>
      <trkpt lat="48.55683" lon="2.09029">
        <ele>152</ele>
        <time>2021-03-07T10:34:16.982Z</time>
      </trkpt>
      <trkpt lat="48.55683" lon="2.09027">
        <ele>152</ele>
        <time>2021-03-07T10:34:17.981Z</time>
      </trkpt>
      <trkpt lat="48.55682" lon="2.09025">
        <ele>151</ele>
        <time>2021-03-07T10:34:18.982Z</time>
      </trkpt>
      <trkpt lat="48.55681" lon="2.09023">
        <ele>151</ele>
        <time>2021-03-07T10:34:19.982Z</time>
      </trkpt>
      <trkpt lat="48.55681" lon="2.09022">
        <ele>151</ele>
        <time>2021-03-07T10:34:20.982Z</time>
      </trkpt>
      <trkpt lat="48.5568" lon="2.09022">
        <ele>152</ele>
        <time>2021-03-07T10:34:21.982Z</time>
      </trkpt>
      <trkpt lat="48.55679" lon="2.09023">
        <ele>152</ele>
        <time>2021-03-07T10:34:22.981Z</time>
      </trkpt>
      <trkpt lat="48.55677" lon="2.09023">
        <ele>152</ele>
        <time>2021-03-07T10:34:23.981Z</time>
      </trkpt>
      <trkpt lat="48.55676" lon="2.09023">
        <ele>153</ele>
        <time>2021-03-07T10:34:24.982Z</time>
      </trkpt>
      <trkpt lat="48.55674" lon="2.09022">
        <ele>153</ele>
        <time>2021-03-07T10:34:25.982Z</time>
      </trkpt>
      <trkpt lat="48.55673" lon="2.09021">
        <ele>153</ele>
        <time>2021-03-07T10:34:26.982Z</time>
      </trkpt>
      <trkpt lat="48.55671" lon="2.0902">
        <ele>154</ele>
        <time>2021-03-07T10:34:27.982Z</time>
      </trkpt>
      <trkpt lat="48.5567" lon="2.09018">
        <ele>154</ele>
        <time>2021-03-07T10:34:28.982Z</time>
      </trkpt>
      <trkpt lat="48.55668" lon="2.09016">
        <ele>155</ele>
        <time>2021-03-07T10:34:29.982Z</time>
      </trkpt>
      <trkpt lat="48.55667" lon="2.09015">
        <ele>155</ele>
        <time>2021-03-07T10:34:30.982Z</time>
      </trkpt>
      <trkpt lat="48.55664" lon="2.09014">
        <ele>155</ele>
        <time>2021-03-07T10:34:31.982Z</time>
      </trkpt>
      <trkpt lat="48.55663" lon="2.09014">
        <ele>156</ele>
        <time>2021-03-07T10:34:32.981Z</time>
      </trkpt>
      <trkpt lat="48.55662" lon="2.09012">
        <ele>156</ele>
        <time>2021-03-07T10:34:33.982Z</time>
      </trkpt>
      <trkpt lat="48.55662" lon="2.09011">
        <ele>157</ele>
        <time>2021-03-07T10:34:34.981Z</time>
      </trkpt>
      <trkpt lat="48.55661" lon="2.09009">
        <ele>157</ele>
        <time>2021-03-07T10:34:35.982Z</time>
      </trkpt>
      <trkpt lat="48.55659" lon="2.09009">
        <ele>157</ele>
        <time>2021-03-07T10:34:36.982Z</time>
      </trkpt>
      <trkpt lat="48.55657" lon="2.09009">
        <ele>157</ele>
        <time>2021-03-07T10:34:37.981Z</time>
      </trkpt>
      <trkpt lat="48.55655" lon="2.0901">
        <ele>157</ele>
        <time>2021-03-07T10:34:38.982Z</time>
      </trkpt>
      <trkpt lat="48.55653" lon="2.0901">
        <ele>157</ele>
        <time>2021-03-07T10:34:39.982Z</time>
      </trkpt>
      <trkpt lat="48.55652" lon="2.0901">
        <ele>158</ele>
        <time>2021-03-07T10:34:40.982Z</time>
      </trkpt>
      <trkpt lat="48.55651" lon="2.0901">
        <ele>159</ele>
        <time>2021-03-07T10:34:41.981Z</time>
      </trkpt>
      <trkpt lat="48.5565" lon="2.09009">
        <ele>160</ele>
        <time>2021-03-07T10:34:42.982Z</time>
      </trkpt>
      <trkpt lat="48.55649" lon="2.09008">
        <ele>160</ele>
        <time>2021-03-07T10:34:43.981Z</time>
      </trkpt>
      <trkpt lat="48.55648" lon="2.09007">
        <ele>161</ele>
        <time>2021-03-07T10:34:44.982Z</time>
      </trkpt>
      <trkpt lat="48.55647" lon="2.09006">
        <ele>161</ele>
        <time>2021-03-07T10:34:45.981Z</time>
      </trkpt>
      <trkpt lat="48.55646" lon="2.09005">
        <ele>162</ele>
        <time>2021-03-07T10:34:46.982Z</time>
      </trkpt>
      <trkpt lat="48.55645" lon="2.09003">
        <ele>162</ele>
        <time>2021-03-07T10:34:47.981Z</time>
      </trkpt>
      <trkpt lat="48.55644" lon="2.09002">
        <ele>163</ele>
        <time>2021-03-07T10:34:48.982Z</time>
      </trkpt>
      <trkpt lat="48.55643" lon="2.09">
        <ele>163</ele>
        <time>2021-03-07T10:34:49.981Z</time>
      </trkpt>
      <trkpt lat="48.55642" lon="2.08998">
        <ele>163</ele>
        <time>2021-03-07T10:34:50.982Z</time>
      </trkpt>
      <trkpt lat="48.55641" lon="2.08996">
        <ele>162</ele>
        <time>2021-03-07T10:34:51.981Z</time>
      </trkpt>
      <trkpt lat="48.5564" lon="2.08994">
        <ele>162</ele>
        <time>2021-03-07T10:34:52.982Z</time>
      </trkpt>
      <trkpt lat="48.55637" lon="2.08991">
        <ele>163</ele>
        <time>2021-03-07T10:34:53.982Z</time>
      </trkpt>
      <trkpt lat="48.55635" lon="2.08987">
        <ele>163</ele>
        <time>2021-03-07T10:34:54.982Z</time>
      </trkpt>
      <trkpt lat="48.55632" lon="2.08983">
        <ele>163</ele>
        <time>2021-03-07T10:34:55.982Z</time>
      </trkpt>
      <trkpt lat="48.5563" lon="2.0898">
        <ele>164</ele>
        <time>2021-03-07T10:34:56.982Z</time>
      </trkpt>
      <trkpt lat="48.55628" lon="2.08978">
        <ele>164</ele>
        <time>2021-03-07T10:34:57.981Z</time>
      </trkpt>
      <trkpt lat="48.55626" lon="2.08976">
        <ele>164</ele>
        <time>2021-03-07T10:34:58.982Z</time>
      </trkpt>
      <trkpt lat="48.55624" lon="2.08974">
        <ele>165</ele>
        <time>2021-03-07T10:34:59.982Z</time>
      </trkpt>
      <trkpt lat="48.55622" lon="2.08973">
        <ele>165</ele>
        <time>2021-03-07T10:35:00.982Z</time>
      </trkpt>
      <trkpt lat="48.5562" lon="2.08971">
        <ele>165</ele>
        <time>2021-03-07T10:35:01.982Z</time>
      </trkpt>
      <trkpt lat="48.55618" lon="2.08969">
        <ele>165</ele>
        <time>2021-03-07T10:35:02.982Z</time>
      </trkpt>
      <trkpt lat="48.55615" lon="2.08967">
        <ele>166</ele>
        <time>2021-03-07T10:35:03.982Z</time>
      </trkpt>
      <trkpt lat="48.55612" lon="2.08966">
        <ele>166</ele>
        <time>2021-03-07T10:35:04.982Z</time>
      </trkpt>
      <trkpt lat="48.55609" lon="2.08964">
        <ele>166</ele>
        <time>2021-03-07T10:35:05.982Z</time>
      </trkpt>
      <trkpt lat="48.55606" lon="2.08962">
        <ele>167</ele>
        <time>2021-03-07T10:35:06.982Z</time>
      </trkpt>
      <trkpt lat="48.55604" lon="2.0896">
        <ele>167</ele>
        <time>2021-03-07T10:35:07.982Z</time>
      </trkpt>
      <trkpt lat="48.55601" lon="2.08958">
        <ele>167</ele>
        <time>2021-03-07T10:35:08.982Z</time>
      </trkpt>
      <trkpt lat="48.55599" lon="2.08957">
        <ele>167</ele>
        <time>2021-03-07T10:35:09.981Z</time>
      </trkpt>
      <trkpt lat="48.55596" lon="2.08955">
        <ele>168</ele>
        <time>2021-03-07T10:35:10.981Z</time>
      </trkpt>
      <trkpt lat="48.55593" lon="2.08954">
        <ele>168</ele>
        <time>2021-03-07T10:35:11.982Z</time>
      </trkpt>
      <trkpt lat="48.55591" lon="2.08952">
        <ele>169</ele>
        <time>2021-03-07T10:35:12.982Z</time>
      </trkpt>
      <trkpt lat="48.55587" lon="2.0895">
        <ele>169</ele>
        <time>2021-03-07T10:35:13.981Z</time>
      </trkpt>
      <trkpt lat="48.55585" lon="2.08949">
        <ele>169</ele>
        <time>2021-03-07T10:35:14.982Z</time>
      </trkpt>
      <trkpt lat="48.55582" lon="2.08947">
        <ele>169</ele>
        <time>2021-03-07T10:35:15.982Z</time>
      </trkpt>
      <trkpt lat="48.55579" lon="2.08945">
        <ele>170</ele>
        <time>2021-03-07T10:35:16.982Z</time>
      </trkpt>
      <trkpt lat="48.55577" lon="2.08943">
        <ele>170</ele>
        <time>2021-03-07T10:35:17.981Z</time>
      </trkpt>
      <trkpt lat="48.55575" lon="2.08941">
        <ele>170</ele>
        <time>2021-03-07T10:35:18.981Z</time>
      </trkpt>
      <trkpt lat="48.55572" lon="2.08938">
        <ele>171</ele>
        <time>2021-03-07T10:35:19.982Z</time>
      </trkpt>
      <trkpt lat="48.5557" lon="2.08935">
        <ele>171</ele>
        <time>2021-03-07T10:35:20.981Z</time>
      </trkpt>
      <trkpt lat="48.55568" lon="2.08932">
        <ele>171</ele>
        <time>2021-03-07T10:35:21.982Z</time>
      </trkpt>
      <trkpt lat="48.55566" lon="2.08929">
        <ele>171</ele>
        <time>2021-03-07T10:35:22.982Z</time>
      </trkpt>
      <trkpt lat="48.55564" lon="2.08926">
        <ele>170</ele>
        <time>2021-03-07T10:35:23.981Z</time>
      </trkpt>
      <trkpt lat="48.55562" lon="2.08923">
        <ele>170</ele>
        <time>2021-03-07T10:35:24.982Z</time>
      </trkpt>
      <trkpt lat="48.5556" lon="2.0892">
        <ele>170</ele>
        <time>2021-03-07T10:35:25.982Z</time>
      </trkpt>
      <trkpt lat="48.55558" lon="2.08919">
        <ele>170</ele>
        <time>2021-03-07T10:35:26.982Z</time>
      </trkpt>
      <trkpt lat="48.55555" lon="2.08916">
        <ele>170</ele>
        <time>2021-03-07T10:35:27.982Z</time>
      </trkpt>
      <trkpt lat="48.55552" lon="2.08912">
        <ele>170</ele>
        <time>2021-03-07T10:35:28.981Z</time>
      </trkpt>
      <trkpt lat="48.55549" lon="2.08908">
        <ele>170</ele>
        <time>2021-03-07T10:35:29.982Z</time>
      </trkpt>
      <trkpt lat="48.55547" lon="2.08904">
        <ele>169</ele>
        <time>2021-03-07T10:35:30.982Z</time>
      </trkpt>
      <trkpt lat="48.55546" lon="2.089">
        <ele>169</ele>
        <time>2021-03-07T10:35:31.982Z</time>
      </trkpt>
      <trkpt lat="48.55544" lon="2.08897">
        <ele>168</ele>
        <time>2021-03-07T10:35:32.982Z</time>
      </trkpt>
      <trkpt lat="48.55542" lon="2.08893">
        <ele>168</ele>
        <time>2021-03-07T10:35:33.982Z</time>
      </trkpt>
      <trkpt lat="48.5554" lon="2.0889">
        <ele>168</ele>
        <time>2021-03-07T10:35:34.982Z</time>
      </trkpt>
      <trkpt lat="48.55538" lon="2.08888">
        <ele>167</ele>
        <time>2021-03-07T10:35:35.982Z</time>
      </trkpt>
      <trkpt lat="48.55535" lon="2.08886">
        <ele>167</ele>
        <time>2021-03-07T10:35:36.982Z</time>
      </trkpt>
      <trkpt lat="48.55533" lon="2.08885">
        <ele>167</ele>
        <time>2021-03-07T10:35:37.981Z</time>
      </trkpt>
      <trkpt lat="48.5553" lon="2.08884">
        <ele>167</ele>
        <time>2021-03-07T10:35:38.982Z</time>
      </trkpt>
      <trkpt lat="48.55527" lon="2.08882">
        <ele>167</ele>
        <time>2021-03-07T10:35:39.982Z</time>
      </trkpt>
      <trkpt lat="48.55524" lon="2.08881">
        <ele>166</ele>
        <time>2021-03-07T10:35:40.982Z</time>
      </trkpt>
      <trkpt lat="48.55521" lon="2.08879">
        <ele>166</ele>
        <time>2021-03-07T10:35:41.982Z</time>
      </trkpt>
      <trkpt lat="48.55518" lon="2.08877">
        <ele>166</ele>
        <time>2021-03-07T10:35:42.982Z</time>
      </trkpt>
      <trkpt lat="48.55515" lon="2.08874">
        <ele>166</ele>
        <time>2021-03-07T10:35:43.981Z</time>
      </trkpt>
      <trkpt lat="48.55512" lon="2.08872">
        <ele>165</ele>
        <time>2021-03-07T10:35:44.982Z</time>
      </trkpt>
      <trkpt lat="48.5551" lon="2.08869">
        <ele>165</ele>
        <time>2021-03-07T10:35:45.981Z</time>
      </trkpt>
      <trkpt lat="48.55507" lon="2.08866">
        <ele>164</ele>
        <time>2021-03-07T10:35:46.982Z</time>
      </trkpt>
      <trkpt lat="48.55504" lon="2.08864">
        <ele>164</ele>
        <time>2021-03-07T10:35:47.981Z</time>
      </trkpt>
      <trkpt lat="48.55502" lon="2.08862">
        <ele>164</ele>
        <time>2021-03-07T10:35:48.982Z</time>
      </trkpt>
      <trkpt lat="48.555" lon="2.0886">
        <ele>164</ele>
        <time>2021-03-07T10:35:49.981Z</time>
      </trkpt>
      <trkpt lat="48.55497" lon="2.08859">
        <ele>165</ele>
        <time>2021-03-07T10:35:50.982Z</time>
      </trkpt>
      <trkpt lat="48.55495" lon="2.08856">
        <ele>165</ele>
        <time>2021-03-07T10:35:51.981Z</time>
      </trkpt>
      <trkpt lat="48.55492" lon="2.08853">
        <ele>166</ele>
        <time>2021-03-07T10:35:52.982Z</time>
      </trkpt>
      <trkpt lat="48.55489" lon="2.0885">
        <ele>166</ele>
        <time>2021-03-07T10:35:53.982Z</time>
      </trkpt>
      <trkpt lat="48.55486" lon="2.08848">
        <ele>167</ele>
        <time>2021-03-07T10:35:54.982Z</time>
      </trkpt>
      <trkpt lat="48.55484" lon="2.08846">
        <ele>167</ele>
        <time>2021-03-07T10:35:55.981Z</time>
      </trkpt>
      <trkpt lat="48.55481" lon="2.08845">
        <ele>167</ele>
        <time>2021-03-07T10:35:56.982Z</time>
      </trkpt>
      <trkpt lat="48.55479" lon="2.08844">
        <ele>168</ele>
        <time>2021-03-07T10:35:57.982Z</time>
      </trkpt>
      <trkpt lat="48.55476" lon="2.08843">
        <ele>169</ele>
        <time>2021-03-07T10:35:58.982Z</time>
      </trkpt>
      <trkpt lat="48.55473" lon="2.08842">
        <ele>169</ele>
        <time>2021-03-07T10:35:59.981Z</time>
      </trkpt>
      <trkpt lat="48.55469" lon="2.08841">
        <ele>169</ele>
        <time>2021-03-07T10:36:00.982Z</time>
      </trkpt>
      <trkpt lat="48.55466" lon="2.08839">
        <ele>170</ele>
        <time>2021-03-07T10:36:01.982Z</time>
      </trkpt>
      <trkpt lat="48.55463" lon="2.08837">
        <ele>170</ele>
        <time>2021-03-07T10:36:02.981Z</time>
      </trkpt>
      <trkpt lat="48.5546" lon="2.08836">
        <ele>170</ele>
        <time>2021-03-07T10:36:03.982Z</time>
      </trkpt>
      <trkpt lat="48.55458" lon="2.08835">
        <ele>170</ele>
        <time>2021-03-07T10:36:04.981Z</time>
      </trkpt>
      <trkpt lat="48.55455" lon="2.08835">
        <ele>170</ele>
        <time>2021-03-07T10:36:05.982Z</time>
      </trkpt>
      <trkpt lat="48.55452" lon="2.08833">
        <ele>170</ele>
        <time>2021-03-07T10:36:06.982Z</time>
      </trkpt>
      <trkpt lat="48.55449" lon="2.08832">
        <ele>170</ele>
        <time>2021-03-07T10:36:07.982Z</time>
      </trkpt>
      <trkpt lat="48.55447" lon="2.0883">
        <ele>170</ele>
        <time>2021-03-07T10:36:08.982Z</time>
      </trkpt>
      <trkpt lat="48.55443" lon="2.08828">
        <ele>170</ele>
        <time>2021-03-07T10:36:09.981Z</time>
      </trkpt>
      <trkpt lat="48.5544" lon="2.08825">
        <ele>170</ele>
        <time>2021-03-07T10:36:10.981Z</time>
      </trkpt>
      <trkpt lat="48.55438" lon="2.08823">
        <ele>170</ele>
        <time>2021-03-07T10:36:11.982Z</time>
      </trkpt>
      <trkpt lat="48.55435" lon="2.08821">
        <ele>170</ele>
        <time>2021-03-07T10:36:12.982Z</time>
      </trkpt>
      <trkpt lat="48.55432" lon="2.08819">
        <ele>171</ele>
        <time>2021-03-07T10:36:13.982Z</time>
      </trkpt>
      <trkpt lat="48.55429" lon="2.08817">
        <ele>171</ele>
        <time>2021-03-07T10:36:14.982Z</time>
      </trkpt>
      <trkpt lat="48.55427" lon="2.08815">
        <ele>171</ele>
        <time>2021-03-07T10:36:15.982Z</time>
      </trkpt>
      <trkpt lat="48.55425" lon="2.08814">
        <ele>171</ele>
        <time>2021-03-07T10:36:16.982Z</time>
      </trkpt>
      <trkpt lat="48.55423" lon="2.08812">
        <ele>171</ele>
        <time>2021-03-07T10:36:17.982Z</time>
      </trkpt>
      <trkpt lat="48.5542" lon="2.08811">
        <ele>172</ele>
        <time>2021-03-07T10:36:18.982Z</time>
      </trkpt>
      <trkpt lat="48.55418" lon="2.0881">
        <ele>173</ele>
        <time>2021-03-07T10:36:19.982Z</time>
      </trkpt>
      <trkpt lat="48.55414" lon="2.0881">
        <ele>173</ele>
        <time>2021-03-07T10:36:20.982Z</time>
      </trkpt>
      <trkpt lat="48.5541" lon="2.0881">
        <ele>173</ele>
        <time>2021-03-07T10:36:21.982Z</time>
      </trkpt>
      <trkpt lat="48.55407" lon="2.08809">
        <ele>174</ele>
        <time>2021-03-07T10:36:22.981Z</time>
      </trkpt>
      <trkpt lat="48.55404" lon="2.08808">
        <ele>174</ele>
        <time>2021-03-07T10:36:23.982Z</time>
      </trkpt>
      <trkpt lat="48.55402" lon="2.08806">
        <ele>173</ele>
        <time>2021-03-07T10:36:24.981Z</time>
      </trkpt>
      <trkpt lat="48.554" lon="2.08804">
        <ele>173</ele>
        <time>2021-03-07T10:36:25.981Z</time>
      </trkpt>
      <trkpt lat="48.55397" lon="2.08803">
        <ele>172</ele>
        <time>2021-03-07T10:36:26.982Z</time>
      </trkpt>
      <trkpt lat="48.55394" lon="2.08803">
        <ele>172</ele>
        <time>2021-03-07T10:36:27.982Z</time>
      </trkpt>
      <trkpt lat="48.55391" lon="2.08802">
        <ele>172</ele>
        <time>2021-03-07T10:36:28.982Z</time>
      </trkpt>
      <trkpt lat="48.55388" lon="2.08802">
        <ele>172</ele>
        <time>2021-03-07T10:36:29.982Z</time>
      </trkpt>
      <trkpt lat="48.55385" lon="2.08802">
        <ele>172</ele>
        <time>2021-03-07T10:36:30.982Z</time>
      </trkpt>
      <trkpt lat="48.55381" lon="2.08801">
        <ele>172</ele>
        <time>2021-03-07T10:36:31.982Z</time>
      </trkpt>
      <trkpt lat="48.55378" lon="2.088">
        <ele>172</ele>
        <time>2021-03-07T10:36:32.982Z</time>
      </trkpt>
      <trkpt lat="48.55375" lon="2.08798">
        <ele>172</ele>
        <time>2021-03-07T10:36:33.982Z</time>
      </trkpt>
      <trkpt lat="48.55372" lon="2.08794">
        <ele>172</ele>
        <time>2021-03-07T10:36:34.981Z</time>
      </trkpt>
      <trkpt lat="48.55369" lon="2.08791">
        <ele>171</ele>
        <time>2021-03-07T10:36:35.982Z</time>
      </trkpt>
      <trkpt lat="48.55366" lon="2.08789">
        <ele>171</ele>
        <time>2021-03-07T10:36:36.982Z</time>
      </trkpt>
      <trkpt lat="48.55363" lon="2.08787">
        <ele>171</ele>
        <time>2021-03-07T10:36:37.982Z</time>
      </trkpt>
      <trkpt lat="48.55359" lon="2.08785">
        <ele>170</ele>
        <time>2021-03-07T10:36:38.981Z</time>
      </trkpt>
      <trkpt lat="48.55356" lon="2.08783">
        <ele>170</ele>
        <time>2021-03-07T10:36:39.982Z</time>
      </trkpt>
      <trkpt lat="48.55353" lon="2.08782">
        <ele>170</ele>
        <time>2021-03-07T10:36:40.982Z</time>
      </trkpt>
      <trkpt lat="48.5535" lon="2.0878">
        <ele>169</ele>
        <time>2021-03-07T10:36:41.982Z</time>
      </trkpt>
      <trkpt lat="48.55346" lon="2.08779">
        <ele>168</ele>
        <time>2021-03-07T10:36:42.982Z</time>
      </trkpt>
      <trkpt lat="48.55343" lon="2.08778">
        <ele>168</ele>
        <time>2021-03-07T10:36:43.981Z</time>
      </trkpt>
      <trkpt lat="48.5534" lon="2.08778">
        <ele>168</ele>
        <time>2021-03-07T10:36:44.982Z</time>
      </trkpt>
      <trkpt lat="48.55337" lon="2.08777">
        <ele>168</ele>
        <time>2021-03-07T10:36:45.982Z</time>
      </trkpt>
      <trkpt lat="48.55334" lon="2.08776">
        <ele>167</ele>
        <time>2021-03-07T10:36:46.981Z</time>
      </trkpt>
      <trkpt lat="48.55331" lon="2.08776">
        <ele>167</ele>
        <time>2021-03-07T10:36:47.981Z</time>
      </trkpt>
      <trkpt lat="48.55328" lon="2.08777">
        <ele>167</ele>
        <time>2021-03-07T10:36:48.981Z</time>
      </trkpt>
      <trkpt lat="48.55324" lon="2.08776">
        <ele>167</ele>
        <time>2021-03-07T10:36:49.982Z</time>
      </trkpt>
      <trkpt lat="48.5532" lon="2.08775">
        <ele>167</ele>
        <time>2021-03-07T10:36:50.982Z</time>
      </trkpt>
      <trkpt lat="48.55317" lon="2.08774">
        <ele>167</ele>
        <time>2021-03-07T10:36:51.981Z</time>
      </trkpt>
      <trkpt lat="48.55315" lon="2.08773">
        <ele>167</ele>
        <time>2021-03-07T10:36:52.982Z</time>
      </trkpt>
      <trkpt lat="48.55312" lon="2.08773">
        <ele>166</ele>
        <time>2021-03-07T10:36:53.982Z</time>
      </trkpt>
      <trkpt lat="48.55309" lon="2.08772">
        <ele>166</ele>
        <time>2021-03-07T10:36:54.981Z</time>
      </trkpt>
      <trkpt lat="48.55306" lon="2.08771">
        <ele>166</ele>
        <time>2021-03-07T10:36:55.981Z</time>
      </trkpt>
      <trkpt lat="48.55303" lon="2.0877">
        <ele>165</ele>
        <time>2021-03-07T10:36:56.982Z</time>
      </trkpt>
      <trkpt lat="48.553" lon="2.08769">
        <ele>165</ele>
        <time>2021-03-07T10:36:57.982Z</time>
      </trkpt>
      <trkpt lat="48.55297" lon="2.08769">
        <ele>165</ele>
        <time>2021-03-07T10:36:58.981Z</time>
      </trkpt>
      <trkpt lat="48.55294" lon="2.08768">
        <ele>165</ele>
        <time>2021-03-07T10:36:59.982Z</time>
      </trkpt>
      <trkpt lat="48.55291" lon="2.08769">
        <ele>165</ele>
        <time>2021-03-07T10:37:00.982Z</time>
      </trkpt>
      <trkpt lat="48.55287" lon="2.08769">
        <ele>165</ele>
        <time>2021-03-07T10:37:01.982Z</time>
      </trkpt>
      <trkpt lat="48.55284" lon="2.08769">
        <ele>165</ele>
        <time>2021-03-07T10:37:02.982Z</time>
      </trkpt>
      <trkpt lat="48.55282" lon="2.08768">
        <ele>164</ele>
        <time>2021-03-07T10:37:03.982Z</time>
      </trkpt>
      <trkpt lat="48.55279" lon="2.08768">
        <ele>164</ele>
        <time>2021-03-07T10:37:04.982Z</time>
      </trkpt>
      <trkpt lat="48.55275" lon="2.08768">
        <ele>164</ele>
        <time>2021-03-07T10:37:05.981Z</time>
      </trkpt>
      <trkpt lat="48.55272" lon="2.08768">
        <ele>164</ele>
        <time>2021-03-07T10:37:06.981Z</time>
      </trkpt>
      <trkpt lat="48.55269" lon="2.08768">
        <ele>164</ele>
        <time>2021-03-07T10:37:07.982Z</time>
      </trkpt>
      <trkpt lat="48.55265" lon="2.08768">
        <ele>164</ele>
        <time>2021-03-07T10:37:08.982Z</time>
      </trkpt>
      <trkpt lat="48.55261" lon="2.08768">
        <ele>165</ele>
        <time>2021-03-07T10:37:09.982Z</time>
      </trkpt>
      <trkpt lat="48.55258" lon="2.08768">
        <ele>165</ele>
        <time>2021-03-07T10:37:10.982Z</time>
      </trkpt>
      <trkpt lat="48.55255" lon="2.08768">
        <ele>165</ele>
        <time>2021-03-07T10:37:11.982Z</time>
      </trkpt>
      <trkpt lat="48.55252" lon="2.08768">
        <ele>165</ele>
        <time>2021-03-07T10:37:12.982Z</time>
      </trkpt>
      <trkpt lat="48.55249" lon="2.08768">
        <ele>165</ele>
        <time>2021-03-07T10:37:13.982Z</time>
      </trkpt>
      <trkpt lat="48.55245" lon="2.08768">
        <ele>165</ele>
        <time>2021-03-07T10:37:14.981Z</time>
      </trkpt>
      <trkpt lat="48.55242" lon="2.08768">
        <ele>166</ele>
        <time>2021-03-07T10:37:15.982Z</time>
      </trkpt>
      <trkpt lat="48.55239" lon="2.08767">
        <ele>166</ele>
        <time>2021-03-07T10:37:16.981Z</time>
      </trkpt>
      <trkpt lat="48.55236" lon="2.08767">
        <ele>166</ele>
        <time>2021-03-07T10:37:17.981Z</time>
      </trkpt>
      <trkpt lat="48.55232" lon="2.08769">
        <ele>166</ele>
        <time>2021-03-07T10:37:18.982Z</time>
      </trkpt>
      <trkpt lat="48.55227" lon="2.08769">
        <ele>165</ele>
        <time>2021-03-07T10:37:19.982Z</time>
      </trkpt>
      <trkpt lat="48.55223" lon="2.08768">
        <ele>165</ele>
        <time>2021-03-07T10:37:20.982Z</time>
      </trkpt>
      <trkpt lat="48.55219" lon="2.08766">
        <ele>165</ele>
        <time>2021-03-07T10:37:21.982Z</time>
      </trkpt>
      <trkpt lat="48.55216" lon="2.08764">
        <ele>165</ele>
        <time>2021-03-07T10:37:22.982Z</time>
      </trkpt>
      <trkpt lat="48.55213" lon="2.08762">
        <ele>165</ele>
        <time>2021-03-07T10:37:23.981Z</time>
      </trkpt>
      <trkpt lat="48.5521" lon="2.08759">
        <ele>164</ele>
        <time>2021-03-07T10:37:24.981Z</time>
      </trkpt>
      <trkpt lat="48.55207" lon="2.08756">
        <ele>164</ele>
        <time>2021-03-07T10:37:25.981Z</time>
      </trkpt>
      <trkpt lat="48.55204" lon="2.08753">
        <ele>164</ele>
        <time>2021-03-07T10:37:26.982Z</time>
      </trkpt>
      <trkpt lat="48.55202" lon="2.08751">
        <ele>164</ele>
        <time>2021-03-07T10:37:27.981Z</time>
      </trkpt>
      <trkpt lat="48.552" lon="2.08749">
        <ele>163</ele>
        <time>2021-03-07T10:37:28.982Z</time>
      </trkpt>
      <trkpt lat="48.55198" lon="2.08746">
        <ele>163</ele>
        <time>2021-03-07T10:37:29.982Z</time>
      </trkpt>
      <trkpt lat="48.55196" lon="2.08742">
        <ele>162</ele>
        <time>2021-03-07T10:37:30.981Z</time>
      </trkpt>
      <trkpt lat="48.55195" lon="2.08738">
        <ele>161</ele>
        <time>2021-03-07T10:37:31.982Z</time>
      </trkpt>
      <trkpt lat="48.55195" lon="2.08734">
        <ele>159</ele>
        <time>2021-03-07T10:37:32.981Z</time>
      </trkpt>
      <trkpt lat="48.55195" lon="2.0873">
        <ele>158</ele>
        <time>2021-03-07T10:37:33.982Z</time>
      </trkpt>
      <trkpt lat="48.55194" lon="2.08725">
        <ele>157</ele>
        <time>2021-03-07T10:37:34.981Z</time>
      </trkpt>
      <trkpt lat="48.55193" lon="2.0872">
        <ele>156</ele>
        <time>2021-03-07T10:37:35.982Z</time>
      </trkpt>
      <trkpt lat="48.55193" lon="2.08716">
        <ele>155</ele>
        <time>2021-03-07T10:37:36.982Z</time>
      </trkpt>
      <trkpt lat="48.55194" lon="2.08712">
        <ele>154</ele>
        <time>2021-03-07T10:37:37.981Z</time>
      </trkpt>
      <trkpt lat="48.55195" lon="2.08708">
        <ele>153</ele>
        <time>2021-03-07T10:37:38.982Z</time>
      </trkpt>
      <trkpt lat="48.55195" lon="2.08704">
        <ele>152</ele>
        <time>2021-03-07T10:37:39.981Z</time>
      </trkpt>
      <trkpt lat="48.55196" lon="2.08699">
        <ele>151</ele>
        <time>2021-03-07T10:37:40.982Z</time>
      </trkpt>
      <trkpt lat="48.55196" lon="2.08695">
        <ele>151</ele>
        <time>2021-03-07T10:37:41.981Z</time>
      </trkpt>
      <trkpt lat="48.55196" lon="2.08692">
        <ele>150</ele>
        <time>2021-03-07T10:37:42.982Z</time>
      </trkpt>
      <trkpt lat="48.55196" lon="2.08688">
        <ele>150</ele>
        <time>2021-03-07T10:37:43.982Z</time>
      </trkpt>
      <trkpt lat="48.55196" lon="2.08684">
        <ele>150</ele>
        <time>2021-03-07T10:37:44.981Z</time>
      </trkpt>
      <trkpt lat="48.55196" lon="2.08681">
        <ele>150</ele>
        <time>2021-03-07T10:37:45.982Z</time>
      </trkpt>
      <trkpt lat="48.55195" lon="2.08676">
        <ele>150</ele>
        <time>2021-03-07T10:37:46.982Z</time>
      </trkpt>
      <trkpt lat="48.55195" lon="2.08671">
        <ele>150</ele>
        <time>2021-03-07T10:37:47.982Z</time>
      </trkpt>
      <trkpt lat="48.55195" lon="2.08666">
        <ele>150</ele>
        <time>2021-03-07T10:37:48.982Z</time>
      </trkpt>
      <trkpt lat="48.55195" lon="2.08662">
        <ele>149</ele>
        <time>2021-03-07T10:37:49.982Z</time>
      </trkpt>
      <trkpt lat="48.55196" lon="2.08658">
        <ele>149</ele>
        <time>2021-03-07T10:37:50.981Z</time>
      </trkpt>
      <trkpt lat="48.55196" lon="2.08654">
        <ele>148</ele>
        <time>2021-03-07T10:37:51.982Z</time>
      </trkpt>
      <trkpt lat="48.55196" lon="2.08649">
        <ele>148</ele>
        <time>2021-03-07T10:37:52.981Z</time>
      </trkpt>
      <trkpt lat="48.55197" lon="2.08645">
        <ele>148</ele>
        <time>2021-03-07T10:37:53.981Z</time>
      </trkpt>
      <trkpt lat="48.55197" lon="2.08641">
        <ele>148</ele>
        <time>2021-03-07T10:37:54.982Z</time>
      </trkpt>
      <trkpt lat="48.55196" lon="2.08636">
        <ele>147</ele>
        <time>2021-03-07T10:37:55.982Z</time>
      </trkpt>
      <trkpt lat="48.55196" lon="2.08632">
        <ele>147</ele>
        <time>2021-03-07T10:37:56.982Z</time>
      </trkpt>
      <trkpt lat="48.55195" lon="2.08627">
        <ele>147</ele>
        <time>2021-03-07T10:37:57.982Z</time>
      </trkpt>
      <trkpt lat="48.55195" lon="2.08622">
        <ele>147</ele>
        <time>2021-03-07T10:37:58.982Z</time>
      </trkpt>
      <trkpt lat="48.55195" lon="2.08617">
        <ele>147</ele>
        <time>2021-03-07T10:37:59.982Z</time>
      </trkpt>
      <trkpt lat="48.55195" lon="2.08612">
        <ele>147</ele>
        <time>2021-03-07T10:38:00.982Z</time>
      </trkpt>
      <trkpt lat="48.55195" lon="2.08608">
        <ele>147</ele>
        <time>2021-03-07T10:38:01.982Z</time>
      </trkpt>
      <trkpt lat="48.55195" lon="2.08603">
        <ele>147</ele>
        <time>2021-03-07T10:38:02.982Z</time>
      </trkpt>
      <trkpt lat="48.55195" lon="2.08599">
        <ele>147</ele>
        <time>2021-03-07T10:38:03.982Z</time>
      </trkpt>
      <trkpt lat="48.55194" lon="2.08594">
        <ele>147</ele>
        <time>2021-03-07T10:38:04.981Z</time>
      </trkpt>
      <trkpt lat="48.55194" lon="2.08589">
        <ele>147</ele>
        <time>2021-03-07T10:38:05.982Z</time>
      </trkpt>
      <trkpt lat="48.55194" lon="2.08585">
        <ele>147</ele>
        <time>2021-03-07T10:38:06.981Z</time>
      </trkpt>
      <trkpt lat="48.55194" lon="2.08579">
        <ele>147</ele>
        <time>2021-03-07T10:38:07.981Z</time>
      </trkpt>
      <trkpt lat="48.55194" lon="2.08574">
        <ele>147</ele>
        <time>2021-03-07T10:38:08.981Z</time>
      </trkpt>
      <trkpt lat="48.55193" lon="2.08569">
        <ele>147</ele>
        <time>2021-03-07T10:38:09.982Z</time>
      </trkpt>
      <trkpt lat="48.55194" lon="2.08565">
        <ele>147</ele>
        <time>2021-03-07T10:38:10.982Z</time>
      </trkpt>
      <trkpt lat="48.55194" lon="2.08561">
        <ele>147</ele>
        <time>2021-03-07T10:38:11.982Z</time>
      </trkpt>
      <trkpt lat="48.55195" lon="2.08557">
        <ele>146</ele>
        <time>2021-03-07T10:38:12.982Z</time>
      </trkpt>
      <trkpt lat="48.55195" lon="2.08553">
        <ele>146</ele>
        <time>2021-03-07T10:38:13.981Z</time>
      </trkpt>
      <trkpt lat="48.55195" lon="2.08548">
        <ele>145</ele>
        <time>2021-03-07T10:38:14.982Z</time>
      </trkpt>
      <trkpt lat="48.55195" lon="2.08543">
        <ele>145</ele>
        <time>2021-03-07T10:38:15.981Z</time>
      </trkpt>
      <trkpt lat="48.55195" lon="2.08539">
        <ele>145</ele>
        <time>2021-03-07T10:38:16.982Z</time>
      </trkpt>
      <trkpt lat="48.55194" lon="2.08534">
        <ele>144</ele>
        <time>2021-03-07T10:38:17.982Z</time>
      </trkpt>
      <trkpt lat="48.55194" lon="2.08529">
        <ele>144</ele>
        <time>2021-03-07T10:38:18.982Z</time>
      </trkpt>
      <trkpt lat="48.55194" lon="2.08524">
        <ele>144</ele>
        <time>2021-03-07T10:38:19.982Z</time>
      </trkpt>
      <trkpt lat="48.55194" lon="2.08519">
        <ele>144</ele>
        <time>2021-03-07T10:38:20.982Z</time>
      </trkpt>
      <trkpt lat="48.55195" lon="2.08514">
        <ele>144</ele>
        <time>2021-03-07T10:38:21.982Z</time>
      </trkpt>
      <trkpt lat="48.55195" lon="2.08508">
        <ele>144</ele>
        <time>2021-03-07T10:38:22.981Z</time>
      </trkpt>
      <trkpt lat="48.55194" lon="2.08502">
        <ele>144</ele>
        <time>2021-03-07T10:38:23.982Z</time>
      </trkpt>
      <trkpt lat="48.55194" lon="2.08498">
        <ele>144</ele>
        <time>2021-03-07T10:38:24.982Z</time>
      </trkpt>
      <trkpt lat="48.55194" lon="2.08494">
        <ele>145</ele>
        <time>2021-03-07T10:38:25.982Z</time>
      </trkpt>
      <trkpt lat="48.55194" lon="2.0849">
        <ele>145</ele>
        <time>2021-03-07T10:38:26.982Z</time>
      </trkpt>
      <trkpt lat="48.55194" lon="2.08485">
        <ele>145</ele>
        <time>2021-03-07T10:38:27.982Z</time>
      </trkpt>
      <trkpt lat="48.55195" lon="2.08481">
        <ele>145</ele>
        <time>2021-03-07T10:38:28.982Z</time>
      </trkpt>
      <trkpt lat="48.55195" lon="2.08477">
        <ele>145</ele>
        <time>2021-03-07T10:38:29.981Z</time>
      </trkpt>
      <trkpt lat="48.55195" lon="2.08472">
        <ele>145</ele>
        <time>2021-03-07T10:38:30.982Z</time>
      </trkpt>
      <trkpt lat="48.55196" lon="2.08467">
        <ele>144</ele>
        <time>2021-03-07T10:38:31.982Z</time>
      </trkpt>
      <trkpt lat="48.55196" lon="2.08463">
        <ele>144</ele>
        <time>2021-03-07T10:38:32.982Z</time>
      </trkpt>
      <trkpt lat="48.55195" lon="2.08459">
        <ele>144</ele>
        <time>2021-03-07T10:38:33.982Z</time>
      </trkpt>
      <trkpt lat="48.55195" lon="2.08454">
        <ele>144</ele>
        <time>2021-03-07T10:38:34.982Z</time>
      </trkpt>
      <trkpt lat="48.55195" lon="2.08449">
        <ele>144</ele>
        <time>2021-03-07T10:38:35.982Z</time>
      </trkpt>
      <trkpt lat="48.55195" lon="2.08444">
        <ele>144</ele>
        <time>2021-03-07T10:38:36.982Z</time>
      </trkpt>
      <trkpt lat="48.55195" lon="2.0844">
        <ele>145</ele>
        <time>2021-03-07T10:38:37.981Z</time>
      </trkpt>
      <trkpt lat="48.55194" lon="2.08435">
        <ele>145</ele>
        <time>2021-03-07T10:38:38.982Z</time>
      </trkpt>
      <trkpt lat="48.55195" lon="2.08431">
        <ele>145</ele>
        <time>2021-03-07T10:38:39.982Z</time>
      </trkpt>
      <trkpt lat="48.55194" lon="2.08426">
        <ele>145</ele>
        <time>2021-03-07T10:38:40.982Z</time>
      </trkpt>
      <trkpt lat="48.55194" lon="2.08422">
        <ele>145</ele>
        <time>2021-03-07T10:38:41.982Z</time>
      </trkpt>
      <trkpt lat="48.55194" lon="2.08418">
        <ele>145</ele>
        <time>2021-03-07T10:38:42.981Z</time>
      </trkpt>
      <trkpt lat="48.55195" lon="2.08414">
        <ele>145</ele>
        <time>2021-03-07T10:38:43.982Z</time>
      </trkpt>
      <trkpt lat="48.55195" lon="2.0841">
        <ele>144</ele>
        <time>2021-03-07T10:38:44.982Z</time>
      </trkpt>
      <trkpt lat="48.55195" lon="2.08407">
        <ele>144</ele>
        <time>2021-03-07T10:38:45.981Z</time>
      </trkpt>
      <trkpt lat="48.55195" lon="2.08402">
        <ele>143</ele>
        <time>2021-03-07T10:38:46.982Z</time>
      </trkpt>
      <trkpt lat="48.55194" lon="2.08397">
        <ele>143</ele>
        <time>2021-03-07T10:38:47.982Z</time>
      </trkpt>
      <trkpt lat="48.55193" lon="2.08392">
        <ele>143</ele>
        <time>2021-03-07T10:38:48.981Z</time>
      </trkpt>
      <trkpt lat="48.55193" lon="2.08387">
        <ele>143</ele>
        <time>2021-03-07T10:38:49.982Z</time>
      </trkpt>
      <trkpt lat="48.55193" lon="2.08382">
        <ele>143</ele>
        <time>2021-03-07T10:38:50.982Z</time>
      </trkpt>
      <trkpt lat="48.55193" lon="2.08378">
        <ele>143</ele>
        <time>2021-03-07T10:38:51.982Z</time>
      </trkpt>
      <trkpt lat="48.55194" lon="2.08374">
        <ele>143</ele>
        <time>2021-03-07T10:38:52.982Z</time>
      </trkpt>
      <trkpt lat="48.55193" lon="2.08369">
        <ele>142</ele>
        <time>2021-03-07T10:38:53.982Z</time>
      </trkpt>
      <trkpt lat="48.55193" lon="2.08365">
        <ele>143</ele>
        <time>2021-03-07T10:38:54.982Z</time>
      </trkpt>
      <trkpt lat="48.55193" lon="2.0836">
        <ele>143</ele>
        <time>2021-03-07T10:38:55.982Z</time>
      </trkpt>
      <trkpt lat="48.55192" lon="2.08356">
        <ele>143</ele>
        <time>2021-03-07T10:38:56.982Z</time>
      </trkpt>
      <trkpt lat="48.55193" lon="2.08352">
        <ele>142</ele>
        <time>2021-03-07T10:38:57.981Z</time>
      </trkpt>
      <trkpt lat="48.55193" lon="2.08347">
        <ele>142</ele>
        <time>2021-03-07T10:38:58.981Z</time>
      </trkpt>
      <trkpt lat="48.55193" lon="2.08343">
        <ele>141</ele>
        <time>2021-03-07T10:38:59.982Z</time>
      </trkpt>
      <trkpt lat="48.55193" lon="2.08338">
        <ele>141</ele>
        <time>2021-03-07T10:39:00.981Z</time>
      </trkpt>
      <trkpt lat="48.55193" lon="2.08333">
        <ele>141</ele>
        <time>2021-03-07T10:39:01.981Z</time>
      </trkpt>
      <trkpt lat="48.55193" lon="2.08328">
        <ele>141</ele>
        <time>2021-03-07T10:39:02.982Z</time>
      </trkpt>
      <trkpt lat="48.55192" lon="2.08324">
        <ele>141</ele>
        <time>2021-03-07T10:39:03.981Z</time>
      </trkpt>
      <trkpt lat="48.55192" lon="2.08318">
        <ele>141</ele>
        <time>2021-03-07T10:39:04.982Z</time>
      </trkpt>
      <trkpt lat="48.55192" lon="2.08313">
        <ele>141</ele>
        <time>2021-03-07T10:39:05.981Z</time>
      </trkpt>
      <trkpt lat="48.55192" lon="2.08308">
        <ele>141</ele>
        <time>2021-03-07T10:39:06.982Z</time>
      </trkpt>
      <trkpt lat="48.55192" lon="2.08304">
        <ele>141</ele>
        <time>2021-03-07T10:39:07.981Z</time>
      </trkpt>
      <trkpt lat="48.55192" lon="2.08299">
        <ele>141</ele>
        <time>2021-03-07T10:39:08.982Z</time>
      </trkpt>
      <trkpt lat="48.55192" lon="2.08295">
        <ele>141</ele>
        <time>2021-03-07T10:39:09.982Z</time>
      </trkpt>
      <trkpt lat="48.55192" lon="2.0829">
        <ele>140</ele>
        <time>2021-03-07T10:39:10.981Z</time>
      </trkpt>
      <trkpt lat="48.55192" lon="2.08286">
        <ele>140</ele>
        <time>2021-03-07T10:39:11.982Z</time>
      </trkpt>
      <trkpt lat="48.55192" lon="2.08281">
        <ele>141</ele>
        <time>2021-03-07T10:39:12.982Z</time>
      </trkpt>
      <trkpt lat="48.55192" lon="2.08277">
        <ele>141</ele>
        <time>2021-03-07T10:39:13.981Z</time>
      </trkpt>
      <trkpt lat="48.55192" lon="2.08272">
        <ele>141</ele>
        <time>2021-03-07T10:39:14.982Z</time>
      </trkpt>
      <trkpt lat="48.55191" lon="2.08265">
        <ele>142</ele>
        <time>2021-03-07T10:39:15.982Z</time>
      </trkpt>
      <trkpt lat="48.55191" lon="2.0826">
        <ele>142</ele>
        <time>2021-03-07T10:39:16.982Z</time>
      </trkpt>
      <trkpt lat="48.55191" lon="2.08255">
        <ele>143</ele>
        <time>2021-03-07T10:39:17.981Z</time>
      </trkpt>
      <trkpt lat="48.55191" lon="2.08251">
        <ele>143</ele>
        <time>2021-03-07T10:39:18.982Z</time>
      </trkpt>
      <trkpt lat="48.55191" lon="2.08247">
        <ele>143</ele>
        <time>2021-03-07T10:39:19.982Z</time>
      </trkpt>
      <trkpt lat="48.55192" lon="2.08242">
        <ele>143</ele>
        <time>2021-03-07T10:39:20.981Z</time>
      </trkpt>
      <trkpt lat="48.55192" lon="2.08237">
        <ele>142</ele>
        <time>2021-03-07T10:39:21.982Z</time>
      </trkpt>
      <trkpt lat="48.55191" lon="2.08232">
        <ele>142</ele>
        <time>2021-03-07T10:39:22.982Z</time>
      </trkpt>
      <trkpt lat="48.55191" lon="2.08227">
        <ele>142</ele>
        <time>2021-03-07T10:39:23.981Z</time>
      </trkpt>
      <trkpt lat="48.55191" lon="2.08222">
        <ele>142</ele>
        <time>2021-03-07T10:39:24.981Z</time>
      </trkpt>
      <trkpt lat="48.55191" lon="2.08217">
        <ele>142</ele>
        <time>2021-03-07T10:39:25.981Z</time>
      </trkpt>
      <trkpt lat="48.55191" lon="2.08212">
        <ele>141</ele>
        <time>2021-03-07T10:39:26.982Z</time>
      </trkpt>
      <trkpt lat="48.55191" lon="2.08207">
        <ele>141</ele>
        <time>2021-03-07T10:39:27.981Z</time>
      </trkpt>
      <trkpt lat="48.55191" lon="2.08202">
        <ele>140</ele>
        <time>2021-03-07T10:39:28.981Z</time>
      </trkpt>
      <trkpt lat="48.55191" lon="2.08196">
        <ele>140</ele>
        <time>2021-03-07T10:39:29.981Z</time>
      </trkpt>
      <trkpt lat="48.55191" lon="2.0819">
        <ele>139</ele>
        <time>2021-03-07T10:39:30.982Z</time>
      </trkpt>
      <trkpt lat="48.55191" lon="2.08185">
        <ele>138</ele>
        <time>2021-03-07T10:39:31.982Z</time>
      </trkpt>
      <trkpt lat="48.55191" lon="2.0818">
        <ele>138</ele>
        <time>2021-03-07T10:39:32.982Z</time>
      </trkpt>
      <trkpt lat="48.55191" lon="2.08175">
        <ele>138</ele>
        <time>2021-03-07T10:39:33.982Z</time>
      </trkpt>
      <trkpt lat="48.55191" lon="2.0817">
        <ele>138</ele>
        <time>2021-03-07T10:39:34.981Z</time>
      </trkpt>
      <trkpt lat="48.55191" lon="2.08164">
        <ele>139</ele>
        <time>2021-03-07T10:39:35.981Z</time>
      </trkpt>
      <trkpt lat="48.55191" lon="2.08159">
        <ele>139</ele>
        <time>2021-03-07T10:39:36.982Z</time>
      </trkpt>
      <trkpt lat="48.55191" lon="2.08154">
        <ele>139</ele>
        <time>2021-03-07T10:39:37.982Z</time>
      </trkpt>
      <trkpt lat="48.55191" lon="2.08149">
        <ele>139</ele>
        <time>2021-03-07T10:39:38.982Z</time>
      </trkpt>
      <trkpt lat="48.55191" lon="2.08144">
        <ele>140</ele>
        <time>2021-03-07T10:39:39.982Z</time>
      </trkpt>
      <trkpt lat="48.55191" lon="2.08139">
        <ele>140</ele>
        <time>2021-03-07T10:39:40.982Z</time>
      </trkpt>
      <trkpt lat="48.55191" lon="2.08134">
        <ele>140</ele>
        <time>2021-03-07T10:39:41.981Z</time>
      </trkpt>
      <trkpt lat="48.5519" lon="2.08129">
        <ele>141</ele>
        <time>2021-03-07T10:39:42.982Z</time>
      </trkpt>
      <trkpt lat="48.5519" lon="2.08125">
        <ele>141</ele>
        <time>2021-03-07T10:39:43.981Z</time>
      </trkpt>
      <trkpt lat="48.55189" lon="2.08121">
        <ele>141</ele>
        <time>2021-03-07T10:39:44.982Z</time>
      </trkpt>
      <trkpt lat="48.55187" lon="2.08119">
        <ele>141</ele>
        <time>2021-03-07T10:39:45.982Z</time>
      </trkpt>
      <trkpt lat="48.55185" lon="2.08117">
        <ele>142</ele>
        <time>2021-03-07T10:39:46.982Z</time>
      </trkpt>
      <trkpt lat="48.55183" lon="2.08115">
        <ele>142</ele>
        <time>2021-03-07T10:39:47.982Z</time>
      </trkpt>
      <trkpt lat="48.5518" lon="2.08114">
        <ele>143</ele>
        <time>2021-03-07T10:39:48.982Z</time>
      </trkpt>
      <trkpt lat="48.55178" lon="2.08114">
        <ele>143</ele>
        <time>2021-03-07T10:39:49.981Z</time>
      </trkpt>
      <trkpt lat="48.55175" lon="2.08115">
        <ele>143</ele>
        <time>2021-03-07T10:39:50.982Z</time>
      </trkpt>
      <trkpt lat="48.55173" lon="2.08115">
        <ele>144</ele>
        <time>2021-03-07T10:39:51.982Z</time>
      </trkpt>
      <trkpt lat="48.5517" lon="2.08116">
        <ele>143</ele>
        <time>2021-03-07T10:39:52.982Z</time>
      </trkpt>
      <trkpt lat="48.55167" lon="2.08116">
        <ele>143</ele>
        <time>2021-03-07T10:39:53.982Z</time>
      </trkpt>
      <trkpt lat="48.55164" lon="2.08116">
        <ele>143</ele>
        <time>2021-03-07T10:39:54.981Z</time>
      </trkpt>
      <trkpt lat="48.55161" lon="2.08116">
        <ele>142</ele>
        <time>2021-03-07T10:39:55.982Z</time>
      </trkpt>
      <trkpt lat="48.55156" lon="2.08117">
        <ele>142</ele>
        <time>2021-03-07T10:39:56.982Z</time>
      </trkpt>
      <trkpt lat="48.55152" lon="2.08117">
        <ele>141</ele>
        <time>2021-03-07T10:39:57.982Z</time>
      </trkpt>
      <trkpt lat="48.55146" lon="2.08117">
        <ele>141</ele>
        <time>2021-03-07T10:39:58.982Z</time>
      </trkpt>
      <trkpt lat="48.55141" lon="2.08118">
        <ele>141</ele>
        <time>2021-03-07T10:39:59.982Z</time>
      </trkpt>
      <trkpt lat="48.55135" lon="2.08118">
        <ele>141</ele>
        <time>2021-03-07T10:40:00.982Z</time>
      </trkpt>
      <trkpt lat="48.5513" lon="2.08118">
        <ele>142</ele>
        <time>2021-03-07T10:40:01.982Z</time>
      </trkpt>
      <trkpt lat="48.55125" lon="2.08118">
        <ele>141</ele>
        <time>2021-03-07T10:40:02.982Z</time>
      </trkpt>
      <trkpt lat="48.5512" lon="2.08119">
        <ele>141</ele>
        <time>2021-03-07T10:40:03.982Z</time>
      </trkpt>
      <trkpt lat="48.55114" lon="2.08119">
        <ele>141</ele>
        <time>2021-03-07T10:40:04.982Z</time>
      </trkpt>
      <trkpt lat="48.55109" lon="2.08119">
        <ele>140</ele>
        <time>2021-03-07T10:40:05.982Z</time>
      </trkpt>
      <trkpt lat="48.55104" lon="2.0812">
        <ele>140</ele>
        <time>2021-03-07T10:40:06.982Z</time>
      </trkpt>
      <trkpt lat="48.551" lon="2.0812">
        <ele>139</ele>
        <time>2021-03-07T10:40:07.982Z</time>
      </trkpt>
      <trkpt lat="48.55094" lon="2.0812">
        <ele>139</ele>
        <time>2021-03-07T10:40:08.982Z</time>
      </trkpt>
      <trkpt lat="48.55089" lon="2.08121">
        <ele>139</ele>
        <time>2021-03-07T10:40:09.981Z</time>
      </trkpt>
      <trkpt lat="48.55082" lon="2.08121">
        <ele>139</ele>
        <time>2021-03-07T10:40:10.981Z</time>
      </trkpt>
      <trkpt lat="48.55078" lon="2.08122">
        <ele>139</ele>
        <time>2021-03-07T10:40:11.981Z</time>
      </trkpt>
      <trkpt lat="48.55071" lon="2.08122">
        <ele>140</ele>
        <time>2021-03-07T10:40:12.981Z</time>
      </trkpt>
      <trkpt lat="48.55065" lon="2.08123">
        <ele>140</ele>
        <time>2021-03-07T10:40:13.982Z</time>
      </trkpt>
      <trkpt lat="48.55061" lon="2.08123">
        <ele>140</ele>
        <time>2021-03-07T10:40:14.982Z</time>
      </trkpt>
      <trkpt lat="48.55055" lon="2.08123">
        <ele>140</ele>
        <time>2021-03-07T10:40:15.982Z</time>
      </trkpt>
      <trkpt lat="48.55049" lon="2.08123">
        <ele>140</ele>
        <time>2021-03-07T10:40:16.982Z</time>
      </trkpt>
      <trkpt lat="48.55044" lon="2.08124">
        <ele>140</ele>
        <time>2021-03-07T10:40:17.982Z</time>
      </trkpt>
      <trkpt lat="48.55038" lon="2.08124">
        <ele>140</ele>
        <time>2021-03-07T10:40:18.982Z</time>
      </trkpt>
      <trkpt lat="48.55033" lon="2.08124">
        <ele>140</ele>
        <time>2021-03-07T10:40:19.982Z</time>
      </trkpt>
      <trkpt lat="48.55028" lon="2.08124">
        <ele>139</ele>
        <time>2021-03-07T10:40:20.982Z</time>
      </trkpt>
      <trkpt lat="48.55023" lon="2.08125">
        <ele>139</ele>
        <time>2021-03-07T10:40:21.982Z</time>
      </trkpt>
      <trkpt lat="48.55018" lon="2.08125">
        <ele>139</ele>
        <time>2021-03-07T10:40:22.982Z</time>
      </trkpt>
      <trkpt lat="48.55013" lon="2.08125">
        <ele>139</ele>
        <time>2021-03-07T10:40:23.982Z</time>
      </trkpt>
      <trkpt lat="48.55007" lon="2.08126">
        <ele>139</ele>
        <time>2021-03-07T10:40:24.982Z</time>
      </trkpt>
      <trkpt lat="48.55002" lon="2.08126">
        <ele>139</ele>
        <time>2021-03-07T10:40:25.982Z</time>
      </trkpt>
      <trkpt lat="48.54997" lon="2.08126">
        <ele>140</ele>
        <time>2021-03-07T10:40:26.982Z</time>
      </trkpt>
      <trkpt lat="48.54991" lon="2.08126">
        <ele>140</ele>
        <time>2021-03-07T10:40:27.982Z</time>
      </trkpt>
      <trkpt lat="48.54986" lon="2.08126">
        <ele>140</ele>
        <time>2021-03-07T10:40:28.982Z</time>
      </trkpt>
      <trkpt lat="48.5498" lon="2.08126">
        <ele>140</ele>
        <time>2021-03-07T10:40:29.981Z</time>
      </trkpt>
      <trkpt lat="48.54975" lon="2.08126">
        <ele>140</ele>
        <time>2021-03-07T10:40:30.982Z</time>
      </trkpt>
      <trkpt lat="48.54968" lon="2.08126">
        <ele>140</ele>
        <time>2021-03-07T10:40:31.982Z</time>
      </trkpt>
      <trkpt lat="48.54962" lon="2.08127">
        <ele>140</ele>
        <time>2021-03-07T10:40:32.982Z</time>
      </trkpt>
      <trkpt lat="48.54956" lon="2.08127">
        <ele>140</ele>
        <time>2021-03-07T10:40:33.982Z</time>
      </trkpt>
      <trkpt lat="48.5495" lon="2.08127">
        <ele>141</ele>
        <time>2021-03-07T10:40:34.981Z</time>
      </trkpt>
      <trkpt lat="48.54945" lon="2.08128">
        <ele>141</ele>
        <time>2021-03-07T10:40:35.981Z</time>
      </trkpt>
      <trkpt lat="48.54939" lon="2.08127">
        <ele>141</ele>
        <time>2021-03-07T10:40:36.981Z</time>
      </trkpt>
      <trkpt lat="48.54933" lon="2.08127">
        <ele>141</ele>
        <time>2021-03-07T10:40:37.982Z</time>
      </trkpt>
      <trkpt lat="48.54927" lon="2.08128">
        <ele>141</ele>
        <time>2021-03-07T10:40:38.982Z</time>
      </trkpt>
      <trkpt lat="48.54921" lon="2.08128">
        <ele>141</ele>
        <time>2021-03-07T10:40:39.982Z</time>
      </trkpt>
      <trkpt lat="48.54915" lon="2.08128">
        <ele>141</ele>
        <time>2021-03-07T10:40:40.982Z</time>
      </trkpt>
      <trkpt lat="48.54909" lon="2.08128">
        <ele>142</ele>
        <time>2021-03-07T10:40:41.981Z</time>
      </trkpt>
      <trkpt lat="48.54903" lon="2.08128">
        <ele>142</ele>
        <time>2021-03-07T10:40:42.982Z</time>
      </trkpt>
      <trkpt lat="48.54897" lon="2.08128">
        <ele>141</ele>
        <time>2021-03-07T10:40:43.981Z</time>
      </trkpt>
      <trkpt lat="48.54891" lon="2.08128">
        <ele>141</ele>
        <time>2021-03-07T10:40:44.982Z</time>
      </trkpt>
      <trkpt lat="48.54884" lon="2.08129">
        <ele>141</ele>
        <time>2021-03-07T10:40:45.982Z</time>
      </trkpt>
      <trkpt lat="48.54879" lon="2.08129">
        <ele>141</ele>
        <time>2021-03-07T10:40:46.981Z</time>
      </trkpt>
      <trkpt lat="48.54873" lon="2.08129">
        <ele>141</ele>
        <time>2021-03-07T10:40:47.982Z</time>
      </trkpt>
      <trkpt lat="48.54867" lon="2.08129">
        <ele>141</ele>
        <time>2021-03-07T10:40:48.982Z</time>
      </trkpt>
      <trkpt lat="48.54861" lon="2.0813">
        <ele>141</ele>
        <time>2021-03-07T10:40:49.982Z</time>
      </trkpt>
      <trkpt lat="48.54856" lon="2.0813">
        <ele>141</ele>
        <time>2021-03-07T10:40:50.981Z</time>
      </trkpt>
      <trkpt lat="48.5485" lon="2.08131">
        <ele>141</ele>
        <time>2021-03-07T10:40:51.981Z</time>
      </trkpt>
      <trkpt lat="48.54844" lon="2.08132">
        <ele>141</ele>
        <time>2021-03-07T10:40:52.981Z</time>
      </trkpt>
      <trkpt lat="48.54838" lon="2.08133">
        <ele>141</ele>
        <time>2021-03-07T10:40:53.981Z</time>
      </trkpt>
      <trkpt lat="48.54833" lon="2.08133">
        <ele>141</ele>
        <time>2021-03-07T10:40:54.981Z</time>
      </trkpt>
      <trkpt lat="48.54828" lon="2.08133">
        <ele>141</ele>
        <time>2021-03-07T10:40:55.981Z</time>
      </trkpt>
      <trkpt lat="48.54822" lon="2.08134">
        <ele>141</ele>
        <time>2021-03-07T10:40:56.981Z</time>
      </trkpt>
      <trkpt lat="48.54817" lon="2.08134">
        <ele>141</ele>
        <time>2021-03-07T10:40:57.981Z</time>
      </trkpt>
      <trkpt lat="48.54811" lon="2.08134">
        <ele>142</ele>
        <time>2021-03-07T10:40:58.981Z</time>
      </trkpt>
      <trkpt lat="48.54807" lon="2.08134">
        <ele>142</ele>
        <time>2021-03-07T10:40:59.982Z</time>
      </trkpt>
      <trkpt lat="48.54801" lon="2.08134">
        <ele>142</ele>
        <time>2021-03-07T10:41:00.982Z</time>
      </trkpt>
      <trkpt lat="48.54796" lon="2.08135">
        <ele>142</ele>
        <time>2021-03-07T10:41:01.982Z</time>
      </trkpt>
      <trkpt lat="48.54791" lon="2.08135">
        <ele>142</ele>
        <time>2021-03-07T10:41:02.982Z</time>
      </trkpt>
      <trkpt lat="48.54786" lon="2.08135">
        <ele>141</ele>
        <time>2021-03-07T10:41:03.982Z</time>
      </trkpt>
      <trkpt lat="48.5478" lon="2.08135">
        <ele>141</ele>
        <time>2021-03-07T10:41:04.982Z</time>
      </trkpt>
      <trkpt lat="48.54775" lon="2.08135">
        <ele>141</ele>
        <time>2021-03-07T10:41:05.982Z</time>
      </trkpt>
      <trkpt lat="48.54769" lon="2.08136">
        <ele>141</ele>
        <time>2021-03-07T10:41:06.982Z</time>
      </trkpt>
      <trkpt lat="48.54764" lon="2.08136">
        <ele>140</ele>
        <time>2021-03-07T10:41:07.982Z</time>
      </trkpt>
      <trkpt lat="48.54759" lon="2.08136">
        <ele>140</ele>
        <time>2021-03-07T10:41:08.982Z</time>
      </trkpt>
      <trkpt lat="48.54754" lon="2.08136">
        <ele>140</ele>
        <time>2021-03-07T10:41:09.982Z</time>
      </trkpt>
      <trkpt lat="48.54749" lon="2.08137">
        <ele>140</ele>
        <time>2021-03-07T10:41:10.982Z</time>
      </trkpt>
      <trkpt lat="48.54744" lon="2.08137">
        <ele>140</ele>
        <time>2021-03-07T10:41:11.982Z</time>
      </trkpt>
      <trkpt lat="48.54739" lon="2.08137">
        <ele>141</ele>
        <time>2021-03-07T10:41:12.982Z</time>
      </trkpt>
      <trkpt lat="48.54734" lon="2.08137">
        <ele>141</ele>
        <time>2021-03-07T10:41:13.982Z</time>
      </trkpt>
      <trkpt lat="48.54729" lon="2.08137">
        <ele>141</ele>
        <time>2021-03-07T10:41:14.982Z</time>
      </trkpt>
      <trkpt lat="48.54725" lon="2.08138">
        <ele>142</ele>
        <time>2021-03-07T10:41:15.982Z</time>
      </trkpt>
      <trkpt lat="48.54719" lon="2.08138">
        <ele>142</ele>
        <time>2021-03-07T10:41:16.981Z</time>
      </trkpt>
      <trkpt lat="48.54714" lon="2.08138">
        <ele>143</ele>
        <time>2021-03-07T10:41:17.981Z</time>
      </trkpt>
      <trkpt lat="48.54709" lon="2.08138">
        <ele>143</ele>
        <time>2021-03-07T10:41:18.982Z</time>
      </trkpt>
      <trkpt lat="48.54705" lon="2.08138">
        <ele>143</ele>
        <time>2021-03-07T10:41:19.982Z</time>
      </trkpt>
      <trkpt lat="48.54699" lon="2.08138">
        <ele>143</ele>
        <time>2021-03-07T10:41:20.982Z</time>
      </trkpt>
      <trkpt lat="48.54695" lon="2.08138">
        <ele>143</ele>
        <time>2021-03-07T10:41:21.981Z</time>
      </trkpt>
      <trkpt lat="48.54689" lon="2.08138">
        <ele>142</ele>
        <time>2021-03-07T10:41:22.981Z</time>
      </trkpt>
      <trkpt lat="48.54684" lon="2.08138">
        <ele>142</ele>
        <time>2021-03-07T10:41:23.982Z</time>
      </trkpt>
      <trkpt lat="48.54679" lon="2.08138">
        <ele>141</ele>
        <time>2021-03-07T10:41:24.982Z</time>
      </trkpt>
      <trkpt lat="48.54674" lon="2.08139">
        <ele>141</ele>
        <time>2021-03-07T10:41:25.982Z</time>
      </trkpt>
      <trkpt lat="48.54669" lon="2.08139">
        <ele>141</ele>
        <time>2021-03-07T10:41:26.982Z</time>
      </trkpt>
      <trkpt lat="48.54663" lon="2.08139">
        <ele>141</ele>
        <time>2021-03-07T10:41:27.982Z</time>
      </trkpt>
      <trkpt lat="48.54658" lon="2.08139">
        <ele>141</ele>
        <time>2021-03-07T10:41:28.982Z</time>
      </trkpt>
      <trkpt lat="48.54653" lon="2.0814">
        <ele>141</ele>
        <time>2021-03-07T10:41:29.982Z</time>
      </trkpt>
      <trkpt lat="48.54648" lon="2.0814">
        <ele>141</ele>
        <time>2021-03-07T10:41:30.982Z</time>
      </trkpt>
      <trkpt lat="48.54643" lon="2.0814">
        <ele>140</ele>
        <time>2021-03-07T10:41:31.982Z</time>
      </trkpt>
      <trkpt lat="48.54637" lon="2.08141">
        <ele>140</ele>
        <time>2021-03-07T10:41:32.982Z</time>
      </trkpt>
      <trkpt lat="48.54633" lon="2.08141">
        <ele>140</ele>
        <time>2021-03-07T10:41:33.982Z</time>
      </trkpt>
      <trkpt lat="48.54628" lon="2.08141">
        <ele>140</ele>
        <time>2021-03-07T10:41:34.982Z</time>
      </trkpt>
      <trkpt lat="48.54623" lon="2.08141">
        <ele>140</ele>
        <time>2021-03-07T10:41:35.982Z</time>
      </trkpt>
      <trkpt lat="48.54618" lon="2.08142">
        <ele>141</ele>
        <time>2021-03-07T10:41:36.982Z</time>
      </trkpt>
      <trkpt lat="48.54613" lon="2.08142">
        <ele>142</ele>
        <time>2021-03-07T10:41:37.981Z</time>
      </trkpt>
      <trkpt lat="48.54608" lon="2.08142">
        <ele>142</ele>
        <time>2021-03-07T10:41:38.982Z</time>
      </trkpt>
      <trkpt lat="48.54602" lon="2.08142">
        <ele>142</ele>
        <time>2021-03-07T10:41:39.982Z</time>
      </trkpt>
      <trkpt lat="48.54596" lon="2.08142">
        <ele>142</ele>
        <time>2021-03-07T10:41:40.982Z</time>
      </trkpt>
      <trkpt lat="48.54591" lon="2.08142">
        <ele>142</ele>
        <time>2021-03-07T10:41:41.982Z</time>
      </trkpt>
      <trkpt lat="48.54586" lon="2.08142">
        <ele>142</ele>
        <time>2021-03-07T10:41:42.982Z</time>
      </trkpt>
      <trkpt lat="48.54582" lon="2.08142">
        <ele>142</ele>
        <time>2021-03-07T10:41:43.982Z</time>
      </trkpt>
      <trkpt lat="48.54577" lon="2.08142">
        <ele>142</ele>
        <time>2021-03-07T10:41:44.982Z</time>
      </trkpt>
      <trkpt lat="48.54571" lon="2.08142">
        <ele>143</ele>
        <time>2021-03-07T10:41:45.982Z</time>
      </trkpt>
      <trkpt lat="48.54565" lon="2.08142">
        <ele>143</ele>
        <time>2021-03-07T10:41:46.982Z</time>
      </trkpt>
      <trkpt lat="48.54559" lon="2.08142">
        <ele>144</ele>
        <time>2021-03-07T10:41:47.982Z</time>
      </trkpt>
      <trkpt lat="48.54555" lon="2.08142">
        <ele>144</ele>
        <time>2021-03-07T10:41:48.982Z</time>
      </trkpt>
      <trkpt lat="48.5455" lon="2.08142">
        <ele>145</ele>
        <time>2021-03-07T10:41:49.982Z</time>
      </trkpt>
      <trkpt lat="48.54545" lon="2.08141">
        <ele>145</ele>
        <time>2021-03-07T10:41:50.982Z</time>
      </trkpt>
      <trkpt lat="48.5454" lon="2.08141">
        <ele>145</ele>
        <time>2021-03-07T10:41:51.982Z</time>
      </trkpt>
      <trkpt lat="48.54535" lon="2.0814">
        <ele>146</ele>
        <time>2021-03-07T10:41:52.982Z</time>
      </trkpt>
      <trkpt lat="48.5453" lon="2.08141">
        <ele>146</ele>
        <time>2021-03-07T10:41:53.982Z</time>
      </trkpt>
      <trkpt lat="48.54525" lon="2.08141">
        <ele>146</ele>
        <time>2021-03-07T10:41:54.982Z</time>
      </trkpt>
      <trkpt lat="48.54519" lon="2.08141">
        <ele>146</ele>
        <time>2021-03-07T10:41:55.982Z</time>
      </trkpt>
      <trkpt lat="48.54514" lon="2.08142">
        <ele>146</ele>
        <time>2021-03-07T10:41:56.982Z</time>
      </trkpt>
      <trkpt lat="48.54508" lon="2.08142">
        <ele>146</ele>
        <time>2021-03-07T10:41:57.981Z</time>
      </trkpt>
      <trkpt lat="48.54504" lon="2.08142">
        <ele>145</ele>
        <time>2021-03-07T10:41:58.982Z</time>
      </trkpt>
      <trkpt lat="48.54499" lon="2.08142">
        <ele>145</ele>
        <time>2021-03-07T10:41:59.981Z</time>
      </trkpt>
      <trkpt lat="48.54494" lon="2.08142">
        <ele>145</ele>
        <time>2021-03-07T10:42:00.981Z</time>
      </trkpt>
      <trkpt lat="48.5449" lon="2.08142">
        <ele>145</ele>
        <time>2021-03-07T10:42:01.982Z</time>
      </trkpt>
      <trkpt lat="48.54486" lon="2.08141">
        <ele>145</ele>
        <time>2021-03-07T10:42:02.982Z</time>
      </trkpt>
      <trkpt lat="48.54483" lon="2.0814">
        <ele>145</ele>
        <time>2021-03-07T10:42:03.982Z</time>
      </trkpt>
      <trkpt lat="48.5448" lon="2.08137">
        <ele>146</ele>
        <time>2021-03-07T10:42:04.982Z</time>
      </trkpt>
      <trkpt lat="48.54478" lon="2.08135">
        <ele>146</ele>
        <time>2021-03-07T10:42:05.982Z</time>
      </trkpt>
      <trkpt lat="48.54475" lon="2.08133">
        <ele>146</ele>
        <time>2021-03-07T10:42:06.982Z</time>
      </trkpt>
      <trkpt lat="48.54473" lon="2.08132">
        <ele>147</ele>
        <time>2021-03-07T10:42:07.982Z</time>
      </trkpt>
      <trkpt lat="48.5447" lon="2.08132">
        <ele>147</ele>
        <time>2021-03-07T10:42:08.982Z</time>
      </trkpt>
      <trkpt lat="48.54468" lon="2.0813">
        <ele>148</ele>
        <time>2021-03-07T10:42:09.982Z</time>
      </trkpt>
      <trkpt lat="48.54466" lon="2.08129">
        <ele>148</ele>
        <time>2021-03-07T10:42:10.982Z</time>
      </trkpt>
      <trkpt lat="48.54464" lon="2.08128">
        <ele>148</ele>
        <time>2021-03-07T10:42:11.982Z</time>
      </trkpt>
      <trkpt lat="48.54461" lon="2.08127">
        <ele>149</ele>
        <time>2021-03-07T10:42:12.981Z</time>
      </trkpt>
      <trkpt lat="48.54458" lon="2.08126">
        <ele>150</ele>
        <time>2021-03-07T10:42:13.982Z</time>
      </trkpt>
      <trkpt lat="48.54456" lon="2.08125">
        <ele>151</ele>
        <time>2021-03-07T10:42:14.982Z</time>
      </trkpt>
      <trkpt lat="48.54453" lon="2.08124">
        <ele>152</ele>
        <time>2021-03-07T10:42:15.982Z</time>
      </trkpt>
      <trkpt lat="48.54451" lon="2.08123">
        <ele>153</ele>
        <time>2021-03-07T10:42:16.982Z</time>
      </trkpt>
      <trkpt lat="48.54448" lon="2.08122">
        <ele>153</ele>
        <time>2021-03-07T10:42:17.982Z</time>
      </trkpt>
      <trkpt lat="48.54445" lon="2.08122">
        <ele>154</ele>
        <time>2021-03-07T10:42:18.982Z</time>
      </trkpt>
      <trkpt lat="48.54442" lon="2.08121">
        <ele>155</ele>
        <time>2021-03-07T10:42:19.982Z</time>
      </trkpt>
      <trkpt lat="48.5444" lon="2.08121">
        <ele>156</ele>
        <time>2021-03-07T10:42:20.982Z</time>
      </trkpt>
      <trkpt lat="48.54438" lon="2.0812">
        <ele>156</ele>
        <time>2021-03-07T10:42:21.982Z</time>
      </trkpt>
      <trkpt lat="48.54436" lon="2.0812">
        <ele>157</ele>
        <time>2021-03-07T10:42:22.982Z</time>
      </trkpt>
      <trkpt lat="48.54434" lon="2.0812">
        <ele>158</ele>
        <time>2021-03-07T10:42:23.982Z</time>
      </trkpt>
      <trkpt lat="48.54431" lon="2.0812">
        <ele>159</ele>
        <time>2021-03-07T10:42:24.982Z</time>
      </trkpt>
      <trkpt lat="48.54428" lon="2.0812">
        <ele>159</ele>
        <time>2021-03-07T10:42:25.982Z</time>
      </trkpt>
      <trkpt lat="48.54426" lon="2.0812">
        <ele>160</ele>
        <time>2021-03-07T10:42:26.982Z</time>
      </trkpt>
      <trkpt lat="48.54424" lon="2.0812">
        <ele>160</ele>
        <time>2021-03-07T10:42:27.982Z</time>
      </trkpt>
      <trkpt lat="48.54421" lon="2.0812">
        <ele>160</ele>
        <time>2021-03-07T10:42:28.982Z</time>
      </trkpt>
      <trkpt lat="48.54418" lon="2.0812">
        <ele>161</ele>
        <time>2021-03-07T10:42:29.981Z</time>
      </trkpt>
      <trkpt lat="48.54416" lon="2.0812">
        <ele>161</ele>
        <time>2021-03-07T10:42:30.981Z</time>
      </trkpt>
      <trkpt lat="48.54414" lon="2.0812">
        <ele>161</ele>
        <time>2021-03-07T10:42:31.981Z</time>
      </trkpt>
      <trkpt lat="48.54413" lon="2.0812">
        <ele>162</ele>
        <time>2021-03-07T10:42:32.981Z</time>
      </trkpt>
      <trkpt lat="48.5441" lon="2.08119">
        <ele>162</ele>
        <time>2021-03-07T10:42:33.981Z</time>
      </trkpt>
      <trkpt lat="48.54409" lon="2.08118">
        <ele>162</ele>
        <time>2021-03-07T10:42:34.982Z</time>
      </trkpt>
      <trkpt lat="48.54408" lon="2.08118">
        <ele>162</ele>
        <time>2021-03-07T10:42:35.982Z</time>
      </trkpt>
      <trkpt lat="48.54406" lon="2.08118">
        <ele>162</ele>
        <time>2021-03-07T10:42:36.982Z</time>
      </trkpt>
      <trkpt lat="48.54405" lon="2.08118">
        <ele>162</ele>
        <time>2021-03-07T10:42:37.981Z</time>
      </trkpt>
      <trkpt lat="48.54403" lon="2.08117">
        <ele>163</ele>
        <time>2021-03-07T10:42:38.982Z</time>
      </trkpt>
      <trkpt lat="48.54401" lon="2.08118">
        <ele>162</ele>
        <time>2021-03-07T10:42:39.982Z</time>
      </trkpt>
      <trkpt lat="48.54399" lon="2.08118">
        <ele>162</ele>
        <time>2021-03-07T10:42:40.982Z</time>
      </trkpt>
      <trkpt lat="48.54398" lon="2.08117">
        <ele>162</ele>
        <time>2021-03-07T10:42:41.981Z</time>
      </trkpt>
      <trkpt lat="48.54397" lon="2.08117">
        <ele>162</ele>
        <time>2021-03-07T10:42:42.981Z</time>
      </trkpt>
      <trkpt lat="48.54395" lon="2.08116">
        <ele>162</ele>
        <time>2021-03-07T10:42:43.981Z</time>
      </trkpt>
      <trkpt lat="48.54394" lon="2.08116">
        <ele>162</ele>
        <time>2021-03-07T10:42:44.981Z</time>
      </trkpt>
      <trkpt lat="48.54392" lon="2.08116">
        <ele>161</ele>
        <time>2021-03-07T10:42:45.981Z</time>
      </trkpt>
      <trkpt lat="48.5439" lon="2.08115">
        <ele>161</ele>
        <time>2021-03-07T10:42:46.982Z</time>
      </trkpt>
      <trkpt lat="48.54389" lon="2.08113">
        <ele>161</ele>
        <time>2021-03-07T10:42:47.982Z</time>
      </trkpt>
      <trkpt lat="48.54387" lon="2.08111">
        <ele>160</ele>
        <time>2021-03-07T10:42:48.981Z</time>
      </trkpt>
      <trkpt lat="48.54387" lon="2.0811">
        <ele>160</ele>
        <time>2021-03-07T10:42:49.982Z</time>
      </trkpt>
      <trkpt lat="48.54386" lon="2.0811">
        <ele>159</ele>
        <time>2021-03-07T10:42:50.982Z</time>
      </trkpt>
      <trkpt lat="48.54385" lon="2.08109">
        <ele>158</ele>
        <time>2021-03-07T10:42:51.982Z</time>
      </trkpt>
      <trkpt lat="48.54384" lon="2.08107">
        <ele>158</ele>
        <time>2021-03-07T10:42:52.982Z</time>
      </trkpt>
      <trkpt lat="48.54383" lon="2.08106">
        <ele>157</ele>
        <time>2021-03-07T10:42:53.982Z</time>
      </trkpt>
      <trkpt lat="48.54381" lon="2.08105">
        <ele>157</ele>
        <time>2021-03-07T10:42:54.982Z</time>
      </trkpt>
      <trkpt lat="48.5438" lon="2.08103">
        <ele>156</ele>
        <time>2021-03-07T10:42:55.981Z</time>
      </trkpt>
      <trkpt lat="48.54378" lon="2.08102">
        <ele>156</ele>
        <time>2021-03-07T10:42:56.981Z</time>
      </trkpt>
      <trkpt lat="48.54377" lon="2.08101">
        <ele>156</ele>
        <time>2021-03-07T10:42:57.982Z</time>
      </trkpt>
      <trkpt lat="48.54376" lon="2.08099">
        <ele>156</ele>
        <time>2021-03-07T10:42:58.982Z</time>
      </trkpt>
      <trkpt lat="48.54374" lon="2.08097">
        <ele>156</ele>
        <time>2021-03-07T10:42:59.981Z</time>
      </trkpt>
      <trkpt lat="48.54373" lon="2.08095">
        <ele>156</ele>
        <time>2021-03-07T10:43:00.982Z</time>
      </trkpt>
      <trkpt lat="48.54371" lon="2.08095">
        <ele>156</ele>
        <time>2021-03-07T10:43:01.982Z</time>
      </trkpt>
      <trkpt lat="48.5437" lon="2.08094">
        <ele>156</ele>
        <time>2021-03-07T10:43:02.982Z</time>
      </trkpt>
      <trkpt lat="48.54369" lon="2.08093">
        <ele>156</ele>
        <time>2021-03-07T10:43:03.981Z</time>
      </trkpt>
      <trkpt lat="48.54368" lon="2.08092">
        <ele>156</ele>
        <time>2021-03-07T10:43:04.982Z</time>
      </trkpt>
      <trkpt lat="48.54367" lon="2.08091">
        <ele>156</ele>
        <time>2021-03-07T10:43:05.982Z</time>
      </trkpt>
      <trkpt lat="48.54366" lon="2.08089">
        <ele>157</ele>
        <time>2021-03-07T10:43:06.982Z</time>
      </trkpt>
      <trkpt lat="48.54365" lon="2.08088">
        <ele>157</ele>
        <time>2021-03-07T10:43:07.982Z</time>
      </trkpt>
      <trkpt lat="48.54364" lon="2.08088">
        <ele>157</ele>
        <time>2021-03-07T10:43:08.982Z</time>
      </trkpt>
      <trkpt lat="48.54363" lon="2.08087">
        <ele>157</ele>
        <time>2021-03-07T10:43:09.982Z</time>
      </trkpt>
      <trkpt lat="48.54362" lon="2.08086">
        <ele>157</ele>
        <time>2021-03-07T10:43:10.982Z</time>
      </trkpt>
      <trkpt lat="48.54362" lon="2.08084">
        <ele>157</ele>
        <time>2021-03-07T10:43:11.982Z</time>
      </trkpt>
      <trkpt lat="48.54361" lon="2.08083">
        <ele>156</ele>
        <time>2021-03-07T10:43:12.982Z</time>
      </trkpt>
      <trkpt lat="48.54361" lon="2.08081">
        <ele>156</ele>
        <time>2021-03-07T10:43:13.981Z</time>
      </trkpt>
      <trkpt lat="48.54361" lon="2.08078">
        <ele>155</ele>
        <time>2021-03-07T10:43:14.981Z</time>
      </trkpt>
      <trkpt lat="48.5436" lon="2.08076">
        <ele>155</ele>
        <time>2021-03-07T10:43:15.982Z</time>
      </trkpt>
      <trkpt lat="48.54359" lon="2.08075">
        <ele>154</ele>
        <time>2021-03-07T10:43:16.982Z</time>
      </trkpt>
      <trkpt lat="48.54358" lon="2.08075">
        <ele>154</ele>
        <time>2021-03-07T10:43:17.981Z</time>
      </trkpt>
      <trkpt lat="48.54356" lon="2.08074">
        <ele>154</ele>
        <time>2021-03-07T10:43:18.981Z</time>
      </trkpt>
      <trkpt lat="48.54355" lon="2.08073">
        <ele>154</ele>
        <time>2021-03-07T10:43:19.981Z</time>
      </trkpt>
      <trkpt lat="48.54355" lon="2.08073">
        <ele>154</ele>
        <time>2021-03-07T10:43:20.982Z</time>
      </trkpt>
      <trkpt lat="48.54354" lon="2.08072">
        <ele>154</ele>
        <time>2021-03-07T10:43:21.982Z</time>
      </trkpt>
      <trkpt lat="48.54354" lon="2.08072">
        <ele>154</ele>
        <time>2021-03-07T10:43:22.982Z</time>
      </trkpt>
      <trkpt lat="48.54354" lon="2.08071">
        <ele>155</ele>
        <time>2021-03-07T10:43:23.982Z</time>
      </trkpt>
      <trkpt lat="48.54353" lon="2.08071">
        <ele>155</ele>
        <time>2021-03-07T10:43:24.982Z</time>
      </trkpt>
      <trkpt lat="48.54353" lon="2.0807">
        <ele>155</ele>
        <time>2021-03-07T10:43:25.982Z</time>
      </trkpt>
      <trkpt lat="48.54352" lon="2.08069">
        <ele>155</ele>
        <time>2021-03-07T10:43:26.982Z</time>
      </trkpt>
      <trkpt lat="48.54351" lon="2.08069">
        <ele>155</ele>
        <time>2021-03-07T10:43:27.982Z</time>
      </trkpt>
      <trkpt lat="48.54351" lon="2.08068">
        <ele>155</ele>
        <time>2021-03-07T10:43:28.982Z</time>
      </trkpt>
      <trkpt lat="48.54351" lon="2.08067">
        <ele>156</ele>
        <time>2021-03-07T10:43:29.982Z</time>
      </trkpt>
      <trkpt lat="48.5435" lon="2.08066">
        <ele>156</ele>
        <time>2021-03-07T10:43:30.981Z</time>
      </trkpt>
      <trkpt lat="48.5435" lon="2.08065">
        <ele>156</ele>
        <time>2021-03-07T10:43:31.982Z</time>
      </trkpt>
      <trkpt lat="48.54349" lon="2.08064">
        <ele>156</ele>
        <time>2021-03-07T10:43:32.982Z</time>
      </trkpt>
      <trkpt lat="48.54348" lon="2.08062">
        <ele>156</ele>
        <time>2021-03-07T10:43:33.982Z</time>
      </trkpt>
      <trkpt lat="48.54347" lon="2.0806">
        <ele>156</ele>
        <time>2021-03-07T10:43:34.982Z</time>
      </trkpt>
      <trkpt lat="48.54347" lon="2.08059">
        <ele>156</ele>
        <time>2021-03-07T10:43:35.982Z</time>
      </trkpt>
      <trkpt lat="48.54346" lon="2.08058">
        <ele>155</ele>
        <time>2021-03-07T10:43:36.982Z</time>
      </trkpt>
      <trkpt lat="48.54345" lon="2.08057">
        <ele>155</ele>
        <time>2021-03-07T10:43:37.982Z</time>
      </trkpt>
      <trkpt lat="48.54344" lon="2.08056">
        <ele>155</ele>
        <time>2021-03-07T10:43:38.982Z</time>
      </trkpt>
      <trkpt lat="48.54343" lon="2.08055">
        <ele>155</ele>
        <time>2021-03-07T10:43:39.982Z</time>
      </trkpt>
      <trkpt lat="48.54342" lon="2.08054">
        <ele>154</ele>
        <time>2021-03-07T10:43:40.982Z</time>
      </trkpt>
      <trkpt lat="48.54341" lon="2.08053">
        <ele>154</ele>
        <time>2021-03-07T10:43:41.982Z</time>
      </trkpt>
      <trkpt lat="48.5434" lon="2.08052">
        <ele>154</ele>
        <time>2021-03-07T10:43:42.982Z</time>
      </trkpt>
      <trkpt lat="48.5434" lon="2.08051">
        <ele>155</ele>
        <time>2021-03-07T10:43:43.982Z</time>
      </trkpt>
      <trkpt lat="48.54338" lon="2.08051">
        <ele>155</ele>
        <time>2021-03-07T10:43:44.982Z</time>
      </trkpt>
      <trkpt lat="48.54336" lon="2.0805">
        <ele>155</ele>
        <time>2021-03-07T10:43:45.982Z</time>
      </trkpt>
      <trkpt lat="48.54336" lon="2.08049">
        <ele>155</ele>
        <time>2021-03-07T10:43:46.982Z</time>
      </trkpt>
      <trkpt lat="48.54335" lon="2.08049">
        <ele>155</ele>
        <time>2021-03-07T10:43:47.981Z</time>
      </trkpt>
      <trkpt lat="48.54332" lon="2.08047">
        <ele>155</ele>
        <time>2021-03-07T10:43:48.982Z</time>
      </trkpt>
      <trkpt lat="48.54332" lon="2.08046">
        <ele>155</ele>
        <time>2021-03-07T10:43:49.982Z</time>
      </trkpt>
      <trkpt lat="48.54331" lon="2.08045">
        <ele>155</ele>
        <time>2021-03-07T10:43:50.982Z</time>
      </trkpt>
      <trkpt lat="48.5433" lon="2.08044">
        <ele>154</ele>
        <time>2021-03-07T10:43:51.981Z</time>
      </trkpt>
      <trkpt lat="48.54329" lon="2.08043">
        <ele>154</ele>
        <time>2021-03-07T10:43:52.982Z</time>
      </trkpt>
      <trkpt lat="48.54328" lon="2.08042">
        <ele>154</ele>
        <time>2021-03-07T10:43:53.982Z</time>
      </trkpt>
      <trkpt lat="48.54327" lon="2.08041">
        <ele>154</ele>
        <time>2021-03-07T10:43:54.982Z</time>
      </trkpt>
      <trkpt lat="48.54326" lon="2.08041">
        <ele>154</ele>
        <time>2021-03-07T10:43:55.982Z</time>
      </trkpt>
      <trkpt lat="48.54325" lon="2.0804">
        <ele>153</ele>
        <time>2021-03-07T10:43:56.982Z</time>
      </trkpt>
      <trkpt lat="48.54324" lon="2.08039">
        <ele>153</ele>
        <time>2021-03-07T10:43:57.982Z</time>
      </trkpt>
      <trkpt lat="48.54324" lon="2.08038">
        <ele>153</ele>
        <time>2021-03-07T10:43:58.982Z</time>
      </trkpt>
      <trkpt lat="48.54322" lon="2.08037">
        <ele>153</ele>
        <time>2021-03-07T10:43:59.982Z</time>
      </trkpt>
      <trkpt lat="48.54321" lon="2.08037">
        <ele>153</ele>
        <time>2021-03-07T10:44:00.982Z</time>
      </trkpt>
      <trkpt lat="48.54321" lon="2.08037">
        <ele>153</ele>
        <time>2021-03-07T10:44:01.982Z</time>
      </trkpt>
      <trkpt lat="48.5432" lon="2.08036">
        <ele>152</ele>
        <time>2021-03-07T10:44:02.982Z</time>
      </trkpt>
      <trkpt lat="48.54319" lon="2.08036">
        <ele>152</ele>
        <time>2021-03-07T10:44:03.982Z</time>
      </trkpt>
      <trkpt lat="48.54318" lon="2.08036">
        <ele>152</ele>
        <time>2021-03-07T10:44:04.982Z</time>
      </trkpt>
      <trkpt lat="48.54317" lon="2.08035">
        <ele>151</ele>
        <time>2021-03-07T10:44:05.982Z</time>
      </trkpt>
      <trkpt lat="48.54317" lon="2.08035">
        <ele>151</ele>
        <time>2021-03-07T10:44:06.982Z</time>
      </trkpt>
      <trkpt lat="48.54316" lon="2.08035">
        <ele>151</ele>
        <time>2021-03-07T10:44:07.982Z</time>
      </trkpt>
      <trkpt lat="48.54315" lon="2.08035">
        <ele>151</ele>
        <time>2021-03-07T10:44:08.982Z</time>
      </trkpt>
      <trkpt lat="48.54314" lon="2.08034">
        <ele>150</ele>
        <time>2021-03-07T10:44:09.982Z</time>
      </trkpt>
      <trkpt lat="48.54313" lon="2.08033">
        <ele>150</ele>
        <time>2021-03-07T10:44:10.982Z</time>
      </trkpt>
      <trkpt lat="48.54311" lon="2.08032">
        <ele>150</ele>
        <time>2021-03-07T10:44:11.981Z</time>
      </trkpt>
      <trkpt lat="48.5431" lon="2.0803">
        <ele>150</ele>
        <time>2021-03-07T10:44:12.982Z</time>
      </trkpt>
      <trkpt lat="48.54309" lon="2.08029">
        <ele>150</ele>
        <time>2021-03-07T10:44:13.981Z</time>
      </trkpt>
      <trkpt lat="48.54308" lon="2.08027">
        <ele>151</ele>
        <time>2021-03-07T10:44:14.981Z</time>
      </trkpt>
      <trkpt lat="48.54306" lon="2.08026">
        <ele>151</ele>
        <time>2021-03-07T10:44:15.981Z</time>
      </trkpt>
      <trkpt lat="48.54305" lon="2.08024">
        <ele>151</ele>
        <time>2021-03-07T10:44:16.982Z</time>
      </trkpt>
      <trkpt lat="48.54304" lon="2.08023">
        <ele>151</ele>
        <time>2021-03-07T10:44:17.982Z</time>
      </trkpt>
      <trkpt lat="48.54303" lon="2.08021">
        <ele>152</ele>
        <time>2021-03-07T10:44:18.982Z</time>
      </trkpt>
      <trkpt lat="48.54301" lon="2.0802">
        <ele>152</ele>
        <time>2021-03-07T10:44:19.981Z</time>
      </trkpt>
      <trkpt lat="48.543" lon="2.08018">
        <ele>152</ele>
        <time>2021-03-07T10:44:20.982Z</time>
      </trkpt>
      <trkpt lat="48.54298" lon="2.08017">
        <ele>152</ele>
        <time>2021-03-07T10:44:21.982Z</time>
      </trkpt>
      <trkpt lat="48.54297" lon="2.08017">
        <ele>152</ele>
        <time>2021-03-07T10:44:22.982Z</time>
      </trkpt>
      <trkpt lat="48.54297" lon="2.08017">
        <ele>153</ele>
        <time>2021-03-07T10:44:23.982Z</time>
      </trkpt>
      <trkpt lat="48.54297" lon="2.08017">
        <ele>153</ele>
        <time>2021-03-07T10:44:24.981Z</time>
      </trkpt>
      <trkpt lat="48.54297" lon="2.08016">
        <ele>152</ele>
        <time>2021-03-07T10:44:25.982Z</time>
      </trkpt>
      <trkpt lat="48.54297" lon="2.08016">
        <ele>152</ele>
        <time>2021-03-07T10:44:26.982Z</time>
      </trkpt>
      <trkpt lat="48.54297" lon="2.08015">
        <ele>151</ele>
        <time>2021-03-07T10:44:27.982Z</time>
      </trkpt>
      <trkpt lat="48.54296" lon="2.08015">
        <ele>151</ele>
        <time>2021-03-07T10:44:28.982Z</time>
      </trkpt>
      <trkpt lat="48.54296" lon="2.08014">
        <ele>151</ele>
        <time>2021-03-07T10:44:29.982Z</time>
      </trkpt>
      <trkpt lat="48.54294" lon="2.08014">
        <ele>151</ele>
        <time>2021-03-07T10:44:30.982Z</time>
      </trkpt>
      <trkpt lat="48.54293" lon="2.08013">
        <ele>150</ele>
        <time>2021-03-07T10:44:31.982Z</time>
      </trkpt>
      <trkpt lat="48.54293" lon="2.0801">
        <ele>150</ele>
        <time>2021-03-07T10:44:32.982Z</time>
      </trkpt>
      <trkpt lat="48.54293" lon="2.08007">
        <ele>149</ele>
        <time>2021-03-07T10:44:33.982Z</time>
      </trkpt>
      <trkpt lat="48.54294" lon="2.08005">
        <ele>149</ele>
        <time>2021-03-07T10:44:34.982Z</time>
      </trkpt>
      <trkpt lat="48.54296" lon="2.08005">
        <ele>149</ele>
        <time>2021-03-07T10:44:35.981Z</time>
      </trkpt>
      <trkpt lat="48.54296" lon="2.08004">
        <ele>148</ele>
        <time>2021-03-07T10:44:36.981Z</time>
      </trkpt>
      <trkpt lat="48.54297" lon="2.08003">
        <ele>148</ele>
        <time>2021-03-07T10:44:37.982Z</time>
      </trkpt>
      <trkpt lat="48.54297" lon="2.08003">
        <ele>148</ele>
        <time>2021-03-07T10:44:38.981Z</time>
      </trkpt>
      <trkpt lat="48.54297" lon="2.08002">
        <ele>148</ele>
        <time>2021-03-07T10:44:39.982Z</time>
      </trkpt>
      <trkpt lat="48.54297" lon="2.08001">
        <ele>148</ele>
        <time>2021-03-07T10:44:40.982Z</time>
      </trkpt>
      <trkpt lat="48.54297" lon="2.08001">
        <ele>147</ele>
        <time>2021-03-07T10:44:41.982Z</time>
      </trkpt>
      <trkpt lat="48.54297" lon="2.08">
        <ele>148</ele>
        <time>2021-03-07T10:44:42.982Z</time>
      </trkpt>
      <trkpt lat="48.54297" lon="2.08">
        <ele>148</ele>
        <time>2021-03-07T10:44:43.982Z</time>
      </trkpt>
      <trkpt lat="48.54296" lon="2.08">
        <ele>148</ele>
        <time>2021-03-07T10:44:44.982Z</time>
      </trkpt>
      <trkpt lat="48.54296" lon="2.08">
        <ele>148</ele>
        <time>2021-03-07T10:44:45.982Z</time>
      </trkpt>
      <trkpt lat="48.54296" lon="2.08">
        <ele>148</ele>
        <time>2021-03-07T10:44:46.982Z</time>
      </trkpt>
      <trkpt lat="48.54295" lon="2.08">
        <ele>147</ele>
        <time>2021-03-07T10:44:47.982Z</time>
      </trkpt>
      <trkpt lat="48.54295" lon="2.08">
        <ele>147</ele>
        <time>2021-03-07T10:44:48.982Z</time>
      </trkpt>
      <trkpt lat="48.54294" lon="2.07999">
        <ele>147</ele>
        <time>2021-03-07T10:44:49.982Z</time>
      </trkpt>
      <trkpt lat="48.54293" lon="2.07998">
        <ele>147</ele>
        <time>2021-03-07T10:44:50.982Z</time>
      </trkpt>
      <trkpt lat="48.54292" lon="2.07998">
        <ele>147</ele>
        <time>2021-03-07T10:44:51.981Z</time>
      </trkpt>
      <trkpt lat="48.54291" lon="2.07997">
        <ele>147</ele>
        <time>2021-03-07T10:44:52.981Z</time>
      </trkpt>
      <trkpt lat="48.54289" lon="2.07996">
        <ele>147</ele>
        <time>2021-03-07T10:44:53.982Z</time>
      </trkpt>
      <trkpt lat="48.54288" lon="2.07995">
        <ele>147</ele>
        <time>2021-03-07T10:44:54.982Z</time>
      </trkpt>
      <trkpt lat="48.54287" lon="2.07995">
        <ele>147</ele>
        <time>2021-03-07T10:44:55.981Z</time>
      </trkpt>
      <trkpt lat="48.54287" lon="2.07994">
        <ele>147</ele>
        <time>2021-03-07T10:44:56.982Z</time>
      </trkpt>
      <trkpt lat="48.54286" lon="2.07995">
        <ele>146</ele>
        <time>2021-03-07T10:44:57.982Z</time>
      </trkpt>
      <trkpt lat="48.54286" lon="2.07994">
        <ele>146</ele>
        <time>2021-03-07T10:44:58.982Z</time>
      </trkpt>
      <trkpt lat="48.54286" lon="2.07993">
        <ele>145</ele>
        <time>2021-03-07T10:44:59.982Z</time>
      </trkpt>
      <trkpt lat="48.54285" lon="2.07993">
        <ele>145</ele>
        <time>2021-03-07T10:45:00.982Z</time>
      </trkpt>
      <trkpt lat="48.54284" lon="2.07993">
        <ele>145</ele>
        <time>2021-03-07T10:45:01.981Z</time>
      </trkpt>
      <trkpt lat="48.54283" lon="2.07994">
        <ele>145</ele>
        <time>2021-03-07T10:45:02.981Z</time>
      </trkpt>
      <trkpt lat="48.54283" lon="2.07995">
        <ele>145</ele>
        <time>2021-03-07T10:45:03.981Z</time>
      </trkpt>
      <trkpt lat="48.54283" lon="2.07995">
        <ele>145</ele>
        <time>2021-03-07T10:45:04.982Z</time>
      </trkpt>
      <trkpt lat="48.54283" lon="2.07994">
        <ele>145</ele>
        <time>2021-03-07T10:45:05.982Z</time>
      </trkpt>
      <trkpt lat="48.54283" lon="2.07994">
        <ele>146</ele>
        <time>2021-03-07T10:45:06.982Z</time>
      </trkpt>
      <trkpt lat="48.54283" lon="2.07994">
        <ele>146</ele>
        <time>2021-03-07T10:45:07.982Z</time>
      </trkpt>
      <trkpt lat="48.54283" lon="2.07995">
        <ele>146</ele>
        <time>2021-03-07T10:45:08.982Z</time>
      </trkpt>
      <trkpt lat="48.54282" lon="2.07995">
        <ele>147</ele>
        <time>2021-03-07T10:45:09.982Z</time>
      </trkpt>
      <trkpt lat="48.54282" lon="2.07996">
        <ele>147</ele>
        <time>2021-03-07T10:45:10.982Z</time>
      </trkpt>
      <trkpt lat="48.54282" lon="2.07996">
        <ele>148</ele>
        <time>2021-03-07T10:45:11.981Z</time>
      </trkpt>
      <trkpt lat="48.54282" lon="2.07996">
        <ele>148</ele>
        <time>2021-03-07T10:45:12.982Z</time>
      </trkpt>
      <trkpt lat="48.54282" lon="2.07996">
        <ele>149</ele>
        <time>2021-03-07T10:45:13.981Z</time>
      </trkpt>
      <trkpt lat="48.54282" lon="2.07996">
        <ele>149</ele>
        <time>2021-03-07T10:45:14.981Z</time>
      </trkpt>
      <trkpt lat="48.54282" lon="2.07996">
        <ele>150</ele>
        <time>2021-03-07T10:45:15.982Z</time>
      </trkpt>
      <trkpt lat="48.54282" lon="2.07996">
        <ele>150</ele>
        <time>2021-03-07T10:45:16.982Z</time>
      </trkpt>
      <trkpt lat="48.54282" lon="2.07996">
        <ele>151</ele>
        <time>2021-03-07T10:45:17.981Z</time>
      </trkpt>
      <trkpt lat="48.54282" lon="2.07996">
        <ele>151</ele>
        <time>2021-03-07T10:45:18.982Z</time>
      </trkpt>
      <trkpt lat="48.54282" lon="2.07996">
        <ele>152</ele>
        <time>2021-03-07T10:45:19.982Z</time>
      </trkpt>
      <trkpt lat="48.54282" lon="2.07996">
        <ele>152</ele>
        <time>2021-03-07T10:45:20.981Z</time>
      </trkpt>
      <trkpt lat="48.54282" lon="2.07996">
        <ele>152</ele>
        <time>2021-03-07T10:45:21.981Z</time>
      </trkpt>
      <trkpt lat="48.54282" lon="2.07996">
        <ele>152</ele>
        <time>2021-03-07T10:45:22.982Z</time>
      </trkpt>
      <trkpt lat="48.54282" lon="2.07996">
        <ele>152</ele>
        <time>2021-03-07T10:45:23.982Z</time>
      </trkpt>
      <trkpt lat="48.54282" lon="2.07996">
        <ele>153</ele>
        <time>2021-03-07T10:45:24.982Z</time>
      </trkpt>
      <trkpt lat="48.54282" lon="2.07995">
        <ele>153</ele>
        <time>2021-03-07T10:45:25.982Z</time>
      </trkpt>
      <trkpt lat="48.54282" lon="2.07995">
        <ele>153</ele>
        <time>2021-03-07T10:45:26.982Z</time>
      </trkpt>
      <trkpt lat="48.54282" lon="2.07995">
        <ele>153</ele>
        <time>2021-03-07T10:45:27.981Z</time>
      </trkpt>
      <trkpt lat="48.54282" lon="2.07995">
        <ele>153</ele>
        <time>2021-03-07T10:45:28.981Z</time>
      </trkpt>
      <trkpt lat="48.54281" lon="2.07995">
        <ele>153</ele>
        <time>2021-03-07T10:45:29.982Z</time>
      </trkpt>
      <trkpt lat="48.54281" lon="2.07995">
        <ele>153</ele>
        <time>2021-03-07T10:45:30.982Z</time>
      </trkpt>
      <trkpt lat="48.54281" lon="2.07995">
        <ele>153</ele>
        <time>2021-03-07T10:45:31.982Z</time>
      </trkpt>
      <trkpt lat="48.5428" lon="2.07994">
        <ele>153</ele>
        <time>2021-03-07T10:45:32.982Z</time>
      </trkpt>
      <trkpt lat="48.5428" lon="2.07994">
        <ele>153</ele>
        <time>2021-03-07T10:45:33.982Z</time>
      </trkpt>
      <trkpt lat="48.5428" lon="2.07993">
        <ele>153</ele>
        <time>2021-03-07T10:45:34.982Z</time>
      </trkpt>
      <trkpt lat="48.5428" lon="2.07993">
        <ele>153</ele>
        <time>2021-03-07T10:45:35.982Z</time>
      </trkpt>
      <trkpt lat="48.5428" lon="2.07993">
        <ele>152</ele>
        <time>2021-03-07T10:45:36.982Z</time>
      </trkpt>
      <trkpt lat="48.54279" lon="2.07994">
        <ele>152</ele>
        <time>2021-03-07T10:45:37.982Z</time>
      </trkpt>
      <trkpt lat="48.54278" lon="2.07993">
        <ele>152</ele>
        <time>2021-03-07T10:45:38.982Z</time>
      </trkpt>
      <trkpt lat="48.54277" lon="2.07994">
        <ele>152</ele>
        <time>2021-03-07T10:45:39.982Z</time>
      </trkpt>
      <trkpt lat="48.54276" lon="2.07994">
        <ele>152</ele>
        <time>2021-03-07T10:45:40.982Z</time>
      </trkpt>
      <trkpt lat="48.54276" lon="2.07995">
        <ele>152</ele>
        <time>2021-03-07T10:45:41.982Z</time>
      </trkpt>
      <trkpt lat="48.54276" lon="2.07995">
        <ele>152</ele>
        <time>2021-03-07T10:45:42.982Z</time>
      </trkpt>
      <trkpt lat="48.54276" lon="2.07995">
        <ele>152</ele>
        <time>2021-03-07T10:45:43.981Z</time>
      </trkpt>
      <trkpt lat="48.54275" lon="2.07995">
        <ele>152</ele>
        <time>2021-03-07T10:45:44.981Z</time>
      </trkpt>
      <trkpt lat="48.54274" lon="2.07996">
        <ele>152</ele>
        <time>2021-03-07T10:45:45.982Z</time>
      </trkpt>
      <trkpt lat="48.54273" lon="2.07996">
        <ele>152</ele>
        <time>2021-03-07T10:45:46.982Z</time>
      </trkpt>
      <trkpt lat="48.54272" lon="2.07997">
        <ele>152</ele>
        <time>2021-03-07T10:45:47.982Z</time>
      </trkpt>
      <trkpt lat="48.54271" lon="2.07997">
        <ele>152</ele>
        <time>2021-03-07T10:45:48.982Z</time>
      </trkpt>
      <trkpt lat="48.54271" lon="2.07997">
        <ele>152</ele>
        <time>2021-03-07T10:45:49.981Z</time>
      </trkpt>
      <trkpt lat="48.5427" lon="2.07996">
        <ele>152</ele>
        <time>2021-03-07T10:45:50.981Z</time>
      </trkpt>
      <trkpt lat="48.54269" lon="2.07996">
        <ele>152</ele>
        <time>2021-03-07T10:45:51.981Z</time>
      </trkpt>
      <trkpt lat="48.54269" lon="2.07996">
        <ele>152</ele>
        <time>2021-03-07T10:45:52.982Z</time>
      </trkpt>
      <trkpt lat="48.54268" lon="2.07996">
        <ele>152</ele>
        <time>2021-03-07T10:45:53.982Z</time>
      </trkpt>
      <trkpt lat="48.54268" lon="2.07996">
        <ele>151</ele>
        <time>2021-03-07T10:45:54.981Z</time>
      </trkpt>
      <trkpt lat="48.54268" lon="2.07996">
        <ele>151</ele>
        <time>2021-03-07T10:45:55.982Z</time>
      </trkpt>
      <trkpt lat="48.54267" lon="2.07996">
        <ele>151</ele>
        <time>2021-03-07T10:45:56.982Z</time>
      </trkpt>
      <trkpt lat="48.54267" lon="2.07996">
        <ele>151</ele>
        <time>2021-03-07T10:45:57.982Z</time>
      </trkpt>
      <trkpt lat="48.54266" lon="2.07995">
        <ele>151</ele>
        <time>2021-03-07T10:45:58.981Z</time>
      </trkpt>
      <trkpt lat="48.54266" lon="2.07995">
        <ele>151</ele>
        <time>2021-03-07T10:45:59.981Z</time>
      </trkpt>
      <trkpt lat="48.54265" lon="2.07995">
        <ele>151</ele>
        <time>2021-03-07T10:46:00.981Z</time>
      </trkpt>
      <trkpt lat="48.54265" lon="2.07995">
        <ele>151</ele>
        <time>2021-03-07T10:46:01.982Z</time>
      </trkpt>
      <trkpt lat="48.54263" lon="2.07995">
        <ele>150</ele>
        <time>2021-03-07T10:46:02.982Z</time>
      </trkpt>
      <trkpt lat="48.54262" lon="2.07994">
        <ele>150</ele>
        <time>2021-03-07T10:46:03.982Z</time>
      </trkpt>
      <trkpt lat="48.54261" lon="2.07994">
        <ele>149</ele>
        <time>2021-03-07T10:46:04.982Z</time>
      </trkpt>
      <trkpt lat="48.5426" lon="2.07994">
        <ele>149</ele>
        <time>2021-03-07T10:46:05.982Z</time>
      </trkpt>
      <trkpt lat="48.54259" lon="2.07994">
        <ele>148</ele>
        <time>2021-03-07T10:46:06.982Z</time>
      </trkpt>
      <trkpt lat="48.54259" lon="2.07993">
        <ele>148</ele>
        <time>2021-03-07T10:46:07.982Z</time>
      </trkpt>
      <trkpt lat="48.54258" lon="2.07992">
        <ele>148</ele>
        <time>2021-03-07T10:46:08.981Z</time>
      </trkpt>
      <trkpt lat="48.54257" lon="2.07992">
        <ele>147</ele>
        <time>2021-03-07T10:46:09.981Z</time>
      </trkpt>
      <trkpt lat="48.54256" lon="2.07991">
        <ele>147</ele>
        <time>2021-03-07T10:46:10.982Z</time>
      </trkpt>
      <trkpt lat="48.54254" lon="2.07991">
        <ele>146</ele>
        <time>2021-03-07T10:46:11.982Z</time>
      </trkpt>
      <trkpt lat="48.54253" lon="2.0799">
        <ele>146</ele>
        <time>2021-03-07T10:46:12.982Z</time>
      </trkpt>
      <trkpt lat="48.54253" lon="2.07989">
        <ele>146</ele>
        <time>2021-03-07T10:46:13.982Z</time>
      </trkpt>
      <trkpt lat="48.54252" lon="2.07988">
        <ele>146</ele>
        <time>2021-03-07T10:46:14.982Z</time>
      </trkpt>
      <trkpt lat="48.54251" lon="2.07988">
        <ele>146</ele>
        <time>2021-03-07T10:46:15.982Z</time>
      </trkpt>
      <trkpt lat="48.54249" lon="2.07987">
        <ele>146</ele>
        <time>2021-03-07T10:46:16.982Z</time>
      </trkpt>
      <trkpt lat="48.54247" lon="2.07986">
        <ele>146</ele>
        <time>2021-03-07T10:46:17.982Z</time>
      </trkpt>
      <trkpt lat="48.54245" lon="2.07986">
        <ele>146</ele>
        <time>2021-03-07T10:46:18.982Z</time>
      </trkpt>
      <trkpt lat="48.54243" lon="2.07985">
        <ele>146</ele>
        <time>2021-03-07T10:46:19.982Z</time>
      </trkpt>
      <trkpt lat="48.54242" lon="2.07985">
        <ele>146</ele>
        <time>2021-03-07T10:46:20.982Z</time>
      </trkpt>
      <trkpt lat="48.54241" lon="2.07984">
        <ele>145</ele>
        <time>2021-03-07T10:46:21.982Z</time>
      </trkpt>
      <trkpt lat="48.5424" lon="2.07983">
        <ele>145</ele>
        <time>2021-03-07T10:46:22.981Z</time>
      </trkpt>
      <trkpt lat="48.54238" lon="2.07983">
        <ele>145</ele>
        <time>2021-03-07T10:46:23.981Z</time>
      </trkpt>
      <trkpt lat="48.54236" lon="2.07983">
        <ele>144</ele>
        <time>2021-03-07T10:46:24.982Z</time>
      </trkpt>
      <trkpt lat="48.54235" lon="2.07981">
        <ele>144</ele>
        <time>2021-03-07T10:46:25.982Z</time>
      </trkpt>
      <trkpt lat="48.54236" lon="2.07979">
        <ele>144</ele>
        <time>2021-03-07T10:46:26.982Z</time>
      </trkpt>
      <trkpt lat="48.54235" lon="2.07977">
        <ele>144</ele>
        <time>2021-03-07T10:46:27.982Z</time>
      </trkpt>
      <trkpt lat="48.54234" lon="2.07977">
        <ele>144</ele>
        <time>2021-03-07T10:46:28.982Z</time>
      </trkpt>
      <trkpt lat="48.54232" lon="2.07976">
        <ele>144</ele>
        <time>2021-03-07T10:46:29.982Z</time>
      </trkpt>
      <trkpt lat="48.54231" lon="2.07976">
        <ele>143</ele>
        <time>2021-03-07T10:46:30.981Z</time>
      </trkpt>
      <trkpt lat="48.5423" lon="2.07976">
        <ele>143</ele>
        <time>2021-03-07T10:46:31.981Z</time>
      </trkpt>
      <trkpt lat="48.54229" lon="2.07977">
        <ele>143</ele>
        <time>2021-03-07T10:46:32.981Z</time>
      </trkpt>
      <trkpt lat="48.54228" lon="2.07977">
        <ele>143</ele>
        <time>2021-03-07T10:46:33.982Z</time>
      </trkpt>
      <trkpt lat="48.54227" lon="2.07975">
        <ele>142</ele>
        <time>2021-03-07T10:46:34.982Z</time>
      </trkpt>
      <trkpt lat="48.54226" lon="2.07974">
        <ele>142</ele>
        <time>2021-03-07T10:46:35.981Z</time>
      </trkpt>
      <trkpt lat="48.54225" lon="2.07973">
        <ele>142</ele>
        <time>2021-03-07T10:46:36.981Z</time>
      </trkpt>
      <trkpt lat="48.54224" lon="2.07973">
        <ele>142</ele>
        <time>2021-03-07T10:46:37.982Z</time>
      </trkpt>
      <trkpt lat="48.54224" lon="2.07972">
        <ele>141</ele>
        <time>2021-03-07T10:46:38.982Z</time>
      </trkpt>
      <trkpt lat="48.54223" lon="2.07972">
        <ele>141</ele>
        <time>2021-03-07T10:46:39.982Z</time>
      </trkpt>
      <trkpt lat="48.54221" lon="2.07972">
        <ele>141</ele>
        <time>2021-03-07T10:46:40.982Z</time>
      </trkpt>
      <trkpt lat="48.5422" lon="2.07971">
        <ele>141</ele>
        <time>2021-03-07T10:46:41.982Z</time>
      </trkpt>
      <trkpt lat="48.54219" lon="2.0797">
        <ele>140</ele>
        <time>2021-03-07T10:46:42.982Z</time>
      </trkpt>
      <trkpt lat="48.54218" lon="2.07969">
        <ele>140</ele>
        <time>2021-03-07T10:46:43.982Z</time>
      </trkpt>
      <trkpt lat="48.54217" lon="2.07968">
        <ele>140</ele>
        <time>2021-03-07T10:46:44.981Z</time>
      </trkpt>
      <trkpt lat="48.54216" lon="2.07966">
        <ele>139</ele>
        <time>2021-03-07T10:46:45.981Z</time>
      </trkpt>
      <trkpt lat="48.54215" lon="2.07966">
        <ele>139</ele>
        <time>2021-03-07T10:46:46.981Z</time>
      </trkpt>
      <trkpt lat="48.54213" lon="2.07965">
        <ele>139</ele>
        <time>2021-03-07T10:46:47.981Z</time>
      </trkpt>
      <trkpt lat="48.54213" lon="2.07964">
        <ele>139</ele>
        <time>2021-03-07T10:46:48.982Z</time>
      </trkpt>
      <trkpt lat="48.54212" lon="2.07963">
        <ele>139</ele>
        <time>2021-03-07T10:46:49.982Z</time>
      </trkpt>
      <trkpt lat="48.54211" lon="2.07962">
        <ele>140</ele>
        <time>2021-03-07T10:46:50.981Z</time>
      </trkpt>
      <trkpt lat="48.5421" lon="2.07961">
        <ele>140</ele>
        <time>2021-03-07T10:46:51.982Z</time>
      </trkpt>
      <trkpt lat="48.54209" lon="2.0796">
        <ele>140</ele>
        <time>2021-03-07T10:46:52.982Z</time>
      </trkpt>
      <trkpt lat="48.54207" lon="2.07959">
        <ele>140</ele>
        <time>2021-03-07T10:46:53.982Z</time>
      </trkpt>
      <trkpt lat="48.54207" lon="2.07958">
        <ele>141</ele>
        <time>2021-03-07T10:46:54.982Z</time>
      </trkpt>
      <trkpt lat="48.54206" lon="2.07957">
        <ele>141</ele>
        <time>2021-03-07T10:46:55.982Z</time>
      </trkpt>
      <trkpt lat="48.54205" lon="2.07956">
        <ele>141</ele>
        <time>2021-03-07T10:46:56.982Z</time>
      </trkpt>
      <trkpt lat="48.54204" lon="2.07955">
        <ele>141</ele>
        <time>2021-03-07T10:46:57.982Z</time>
      </trkpt>
      <trkpt lat="48.54203" lon="2.07954">
        <ele>141</ele>
        <time>2021-03-07T10:46:58.982Z</time>
      </trkpt>
      <trkpt lat="48.54203" lon="2.07954">
        <ele>141</ele>
        <time>2021-03-07T10:46:59.982Z</time>
      </trkpt>
      <trkpt lat="48.54202" lon="2.07953">
        <ele>141</ele>
        <time>2021-03-07T10:47:00.982Z</time>
      </trkpt>
      <trkpt lat="48.54202" lon="2.07952">
        <ele>140</ele>
        <time>2021-03-07T10:47:01.982Z</time>
      </trkpt>
      <trkpt lat="48.54201" lon="2.07951">
        <ele>140</ele>
        <time>2021-03-07T10:47:02.981Z</time>
      </trkpt>
      <trkpt lat="48.542" lon="2.0795">
        <ele>139</ele>
        <time>2021-03-07T10:47:03.982Z</time>
      </trkpt>
      <trkpt lat="48.542" lon="2.07949">
        <ele>138</ele>
        <time>2021-03-07T10:47:04.982Z</time>
      </trkpt>
      <trkpt lat="48.54199" lon="2.07948">
        <ele>137</ele>
        <time>2021-03-07T10:47:05.982Z</time>
      </trkpt>
      <trkpt lat="48.54198" lon="2.07946">
        <ele>137</ele>
        <time>2021-03-07T10:47:06.981Z</time>
      </trkpt>
      <trkpt lat="48.54198" lon="2.07945">
        <ele>136</ele>
        <time>2021-03-07T10:47:07.982Z</time>
      </trkpt>
      <trkpt lat="48.54197" lon="2.07943">
        <ele>136</ele>
        <time>2021-03-07T10:47:08.982Z</time>
      </trkpt>
      <trkpt lat="48.54197" lon="2.07942">
        <ele>136</ele>
        <time>2021-03-07T10:47:09.982Z</time>
      </trkpt>
      <trkpt lat="48.54197" lon="2.0794">
        <ele>136</ele>
        <time>2021-03-07T10:47:10.981Z</time>
      </trkpt>
      <trkpt lat="48.54196" lon="2.07937">
        <ele>135</ele>
        <time>2021-03-07T10:47:11.982Z</time>
      </trkpt>
      <trkpt lat="48.54196" lon="2.07935">
        <ele>134</ele>
        <time>2021-03-07T10:47:12.982Z</time>
      </trkpt>
      <trkpt lat="48.54195" lon="2.07932">
        <ele>133</ele>
        <time>2021-03-07T10:47:13.981Z</time>
      </trkpt>
      <trkpt lat="48.54195" lon="2.0793">
        <ele>132</ele>
        <time>2021-03-07T10:47:14.982Z</time>
      </trkpt>
      <trkpt lat="48.54195" lon="2.07928">
        <ele>131</ele>
        <time>2021-03-07T10:47:15.982Z</time>
      </trkpt>
      <trkpt lat="48.54195" lon="2.07928">
        <ele>129</ele>
        <time>2021-03-07T10:47:16.982Z</time>
      </trkpt>
      <trkpt lat="48.54195" lon="2.07927">
        <ele>128</ele>
        <time>2021-03-07T10:47:17.982Z</time>
      </trkpt>
      <trkpt lat="48.54194" lon="2.07926">
        <ele>127</ele>
        <time>2021-03-07T10:47:18.981Z</time>
      </trkpt>
      <trkpt lat="48.54193" lon="2.07924">
        <ele>126</ele>
        <time>2021-03-07T10:47:19.981Z</time>
      </trkpt>
      <trkpt lat="48.54193" lon="2.07923">
        <ele>125</ele>
        <time>2021-03-07T10:47:20.981Z</time>
      </trkpt>
      <trkpt lat="48.54192" lon="2.07923">
        <ele>125</ele>
        <time>2021-03-07T10:47:21.982Z</time>
      </trkpt>
      <trkpt lat="48.54192" lon="2.07922">
        <ele>124</ele>
        <time>2021-03-07T10:47:22.982Z</time>
      </trkpt>
      <trkpt lat="48.54191" lon="2.07921">
        <ele>124</ele>
        <time>2021-03-07T10:47:23.982Z</time>
      </trkpt>
      <trkpt lat="48.54191" lon="2.07919">
        <ele>123</ele>
        <time>2021-03-07T10:47:24.982Z</time>
      </trkpt>
      <trkpt lat="48.5419" lon="2.07918">
        <ele>123</ele>
        <time>2021-03-07T10:47:25.982Z</time>
      </trkpt>
      <trkpt lat="48.5419" lon="2.07917">
        <ele>123</ele>
        <time>2021-03-07T10:47:26.982Z</time>
      </trkpt>
      <trkpt lat="48.5419" lon="2.07916">
        <ele>123</ele>
        <time>2021-03-07T10:47:27.982Z</time>
      </trkpt>
      <trkpt lat="48.5419" lon="2.07915">
        <ele>123</ele>
        <time>2021-03-07T10:47:28.981Z</time>
      </trkpt>
      <trkpt lat="48.5419" lon="2.07914">
        <ele>122</ele>
        <time>2021-03-07T10:47:29.982Z</time>
      </trkpt>
      <trkpt lat="48.5419" lon="2.07912">
        <ele>122</ele>
        <time>2021-03-07T10:47:30.982Z</time>
      </trkpt>
      <trkpt lat="48.5419" lon="2.07912">
        <ele>121</ele>
        <time>2021-03-07T10:47:31.981Z</time>
      </trkpt>
      <trkpt lat="48.54189" lon="2.07911">
        <ele>121</ele>
        <time>2021-03-07T10:47:32.982Z</time>
      </trkpt>
      <trkpt lat="48.54189" lon="2.07909">
        <ele>120</ele>
        <time>2021-03-07T10:47:33.982Z</time>
      </trkpt>
      <trkpt lat="48.54189" lon="2.07907">
        <ele>120</ele>
        <time>2021-03-07T10:47:34.981Z</time>
      </trkpt>
      <trkpt lat="48.54188" lon="2.07905">
        <ele>120</ele>
        <time>2021-03-07T10:47:35.982Z</time>
      </trkpt>
      <trkpt lat="48.54188" lon="2.07904">
        <ele>120</ele>
        <time>2021-03-07T10:47:36.982Z</time>
      </trkpt>
      <trkpt lat="48.54188" lon="2.07903">
        <ele>121</ele>
        <time>2021-03-07T10:47:37.982Z</time>
      </trkpt>
      <trkpt lat="48.54188" lon="2.07901">
        <ele>121</ele>
        <time>2021-03-07T10:47:38.982Z</time>
      </trkpt>
      <trkpt lat="48.54187" lon="2.079">
        <ele>121</ele>
        <time>2021-03-07T10:47:39.982Z</time>
      </trkpt>
      <trkpt lat="48.54186" lon="2.079">
        <ele>121</ele>
        <time>2021-03-07T10:47:40.982Z</time>
      </trkpt>
      <trkpt lat="48.54186" lon="2.07898">
        <ele>121</ele>
        <time>2021-03-07T10:47:41.982Z</time>
      </trkpt>
      <trkpt lat="48.54185" lon="2.07896">
        <ele>121</ele>
        <time>2021-03-07T10:47:42.982Z</time>
      </trkpt>
      <trkpt lat="48.54184" lon="2.07896">
        <ele>121</ele>
        <time>2021-03-07T10:47:43.982Z</time>
      </trkpt>
      <trkpt lat="48.54183" lon="2.07896">
        <ele>121</ele>
        <time>2021-03-07T10:47:44.982Z</time>
      </trkpt>
      <trkpt lat="48.54182" lon="2.07895">
        <ele>121</ele>
        <time>2021-03-07T10:47:45.981Z</time>
      </trkpt>
      <trkpt lat="48.54181" lon="2.07894">
        <ele>121</ele>
        <time>2021-03-07T10:47:46.982Z</time>
      </trkpt>
      <trkpt lat="48.5418" lon="2.07893">
        <ele>121</ele>
        <time>2021-03-07T10:47:47.982Z</time>
      </trkpt>
      <trkpt lat="48.54179" lon="2.07891">
        <ele>121</ele>
        <time>2021-03-07T10:47:48.981Z</time>
      </trkpt>
      <trkpt lat="48.54178" lon="2.0789">
        <ele>121</ele>
        <time>2021-03-07T10:47:49.982Z</time>
      </trkpt>
      <trkpt lat="48.54177" lon="2.07888">
        <ele>122</ele>
        <time>2021-03-07T10:47:50.982Z</time>
      </trkpt>
      <trkpt lat="48.54176" lon="2.07887">
        <ele>122</ele>
        <time>2021-03-07T10:47:51.982Z</time>
      </trkpt>
      <trkpt lat="48.54175" lon="2.07887">
        <ele>122</ele>
        <time>2021-03-07T10:47:52.982Z</time>
      </trkpt>
      <trkpt lat="48.54173" lon="2.07887">
        <ele>122</ele>
        <time>2021-03-07T10:47:53.981Z</time>
      </trkpt>
      <trkpt lat="48.54172" lon="2.07887">
        <ele>122</ele>
        <time>2021-03-07T10:47:54.981Z</time>
      </trkpt>
      <trkpt lat="48.54171" lon="2.07887">
        <ele>122</ele>
        <time>2021-03-07T10:47:55.981Z</time>
      </trkpt>
      <trkpt lat="48.5417" lon="2.07888">
        <ele>123</ele>
        <time>2021-03-07T10:47:56.981Z</time>
      </trkpt>
      <trkpt lat="48.54169" lon="2.07888">
        <ele>123</ele>
        <time>2021-03-07T10:47:57.982Z</time>
      </trkpt>
      <trkpt lat="48.54168" lon="2.07888">
        <ele>123</ele>
        <time>2021-03-07T10:47:58.982Z</time>
      </trkpt>
      <trkpt lat="48.54167" lon="2.07888">
        <ele>123</ele>
        <time>2021-03-07T10:47:59.982Z</time>
      </trkpt>
      <trkpt lat="48.54165" lon="2.07888">
        <ele>123</ele>
        <time>2021-03-07T10:48:00.981Z</time>
      </trkpt>
      <trkpt lat="48.54164" lon="2.07887">
        <ele>123</ele>
        <time>2021-03-07T10:48:01.982Z</time>
      </trkpt>
      <trkpt lat="48.54162" lon="2.07888">
        <ele>124</ele>
        <time>2021-03-07T10:48:02.982Z</time>
      </trkpt>
      <trkpt lat="48.5416" lon="2.0789">
        <ele>124</ele>
        <time>2021-03-07T10:48:03.982Z</time>
      </trkpt>
      <trkpt lat="48.54158" lon="2.0789">
        <ele>124</ele>
        <time>2021-03-07T10:48:04.982Z</time>
      </trkpt>
      <trkpt lat="48.54156" lon="2.0789">
        <ele>125</ele>
        <time>2021-03-07T10:48:05.982Z</time>
      </trkpt>
      <trkpt lat="48.54155" lon="2.0789">
        <ele>125</ele>
        <time>2021-03-07T10:48:06.982Z</time>
      </trkpt>
      <trkpt lat="48.54155" lon="2.07889">
        <ele>125</ele>
        <time>2021-03-07T10:48:07.982Z</time>
      </trkpt>
      <trkpt lat="48.54154" lon="2.07889">
        <ele>125</ele>
        <time>2021-03-07T10:48:08.981Z</time>
      </trkpt>
      <trkpt lat="48.54153" lon="2.07889">
        <ele>125</ele>
        <time>2021-03-07T10:48:09.982Z</time>
      </trkpt>
      <trkpt lat="48.54153" lon="2.07889">
        <ele>125</ele>
        <time>2021-03-07T10:48:10.981Z</time>
      </trkpt>
      <trkpt lat="48.54153" lon="2.07889">
        <ele>125</ele>
        <time>2021-03-07T10:48:11.982Z</time>
      </trkpt>
      <trkpt lat="48.54152" lon="2.07888">
        <ele>126</ele>
        <time>2021-03-07T10:48:12.982Z</time>
      </trkpt>
      <trkpt lat="48.5415" lon="2.07889">
        <ele>126</ele>
        <time>2021-03-07T10:48:13.981Z</time>
      </trkpt>
      <trkpt lat="48.5415" lon="2.07889">
        <ele>126</ele>
        <time>2021-03-07T10:48:14.982Z</time>
      </trkpt>
      <trkpt lat="48.54149" lon="2.0789">
        <ele>126</ele>
        <time>2021-03-07T10:48:15.981Z</time>
      </trkpt>
      <trkpt lat="48.54148" lon="2.0789">
        <ele>126</ele>
        <time>2021-03-07T10:48:16.982Z</time>
      </trkpt>
      <trkpt lat="48.54147" lon="2.0789">
        <ele>126</ele>
        <time>2021-03-07T10:48:17.982Z</time>
      </trkpt>
      <trkpt lat="48.54146" lon="2.0789">
        <ele>126</ele>
        <time>2021-03-07T10:48:18.981Z</time>
      </trkpt>
      <trkpt lat="48.54146" lon="2.0789">
        <ele>126</ele>
        <time>2021-03-07T10:48:19.982Z</time>
      </trkpt>
      <trkpt lat="48.54145" lon="2.0789">
        <ele>127</ele>
        <time>2021-03-07T10:48:20.982Z</time>
      </trkpt>
      <trkpt lat="48.54145" lon="2.0789">
        <ele>127</ele>
        <time>2021-03-07T10:48:21.982Z</time>
      </trkpt>
      <trkpt lat="48.54145" lon="2.0789">
        <ele>127</ele>
        <time>2021-03-07T10:48:22.982Z</time>
      </trkpt>
      <trkpt lat="48.54145" lon="2.0789">
        <ele>128</ele>
        <time>2021-03-07T10:48:23.981Z</time>
      </trkpt>
      <trkpt lat="48.54145" lon="2.0789">
        <ele>128</ele>
        <time>2021-03-07T10:48:24.982Z</time>
      </trkpt>
      <trkpt lat="48.54146" lon="2.07889">
        <ele>129</ele>
        <time>2021-03-07T10:48:25.982Z</time>
      </trkpt>
      <trkpt lat="48.54146" lon="2.07889">
        <ele>130</ele>
        <time>2021-03-07T10:48:26.982Z</time>
      </trkpt>
      <trkpt lat="48.54145" lon="2.07888">
        <ele>130</ele>
        <time>2021-03-07T10:48:27.982Z</time>
      </trkpt>
      <trkpt lat="48.54145" lon="2.07886">
        <ele>131</ele>
        <time>2021-03-07T10:48:28.982Z</time>
      </trkpt>
      <trkpt lat="48.54146" lon="2.07885">
        <ele>131</ele>
        <time>2021-03-07T10:48:29.982Z</time>
      </trkpt>
      <trkpt lat="48.54145" lon="2.07884">
        <ele>131</ele>
        <time>2021-03-07T10:48:30.981Z</time>
      </trkpt>
      <trkpt lat="48.54145" lon="2.07884">
        <ele>131</ele>
        <time>2021-03-07T10:48:31.982Z</time>
      </trkpt>
      <trkpt lat="48.54145" lon="2.07883">
        <ele>131</ele>
        <time>2021-03-07T10:48:32.982Z</time>
      </trkpt>
      <trkpt lat="48.54145" lon="2.07883">
        <ele>132</ele>
        <time>2021-03-07T10:48:33.981Z</time>
      </trkpt>
      <trkpt lat="48.54146" lon="2.07883">
        <ele>132</ele>
        <time>2021-03-07T10:48:34.981Z</time>
      </trkpt>
      <trkpt lat="48.54146" lon="2.07883">
        <ele>131</ele>
        <time>2021-03-07T10:48:35.982Z</time>
      </trkpt>
      <trkpt lat="48.54146" lon="2.07883">
        <ele>131</ele>
        <time>2021-03-07T10:48:36.982Z</time>
      </trkpt>
      <trkpt lat="48.54146" lon="2.07883">
        <ele>130</ele>
        <time>2021-03-07T10:48:37.981Z</time>
      </trkpt>
      <trkpt lat="48.54146" lon="2.07883">
        <ele>129</ele>
        <time>2021-03-07T10:48:38.982Z</time>
      </trkpt>
      <trkpt lat="48.54146" lon="2.07883">
        <ele>129</ele>
        <time>2021-03-07T10:48:39.982Z</time>
      </trkpt>
      <trkpt lat="48.54147" lon="2.07882">
        <ele>128</ele>
        <time>2021-03-07T10:48:40.981Z</time>
      </trkpt>
      <trkpt lat="48.54147" lon="2.07882">
        <ele>128</ele>
        <time>2021-03-07T10:48:41.982Z</time>
      </trkpt>
      <trkpt lat="48.54147" lon="2.07881">
        <ele>128</ele>
        <time>2021-03-07T10:48:42.982Z</time>
      </trkpt>
      <trkpt lat="48.54148" lon="2.07881">
        <ele>127</ele>
        <time>2021-03-07T10:48:43.981Z</time>
      </trkpt>
      <trkpt lat="48.54148" lon="2.07881">
        <ele>127</ele>
        <time>2021-03-07T10:48:44.981Z</time>
      </trkpt>
      <trkpt lat="48.54148" lon="2.07881">
        <ele>127</ele>
        <time>2021-03-07T10:48:45.982Z</time>
      </trkpt>
      <trkpt lat="48.54149" lon="2.07881">
        <ele>127</ele>
        <time>2021-03-07T10:48:46.982Z</time>
      </trkpt>
      <trkpt lat="48.54149" lon="2.0788">
        <ele>126</ele>
        <time>2021-03-07T10:48:47.982Z</time>
      </trkpt>
      <trkpt lat="48.5415" lon="2.07881">
        <ele>126</ele>
        <time>2021-03-07T10:48:48.982Z</time>
      </trkpt>
      <trkpt lat="48.54151" lon="2.07881">
        <ele>126</ele>
        <time>2021-03-07T10:48:49.982Z</time>
      </trkpt>
      <trkpt lat="48.54151" lon="2.07881">
        <ele>126</ele>
        <time>2021-03-07T10:48:50.982Z</time>
      </trkpt>
      <trkpt lat="48.54152" lon="2.07881">
        <ele>126</ele>
        <time>2021-03-07T10:48:51.982Z</time>
      </trkpt>
      <trkpt lat="48.54153" lon="2.0788">
        <ele>126</ele>
        <time>2021-03-07T10:48:52.981Z</time>
      </trkpt>
      <trkpt lat="48.54153" lon="2.07879">
        <ele>126</ele>
        <time>2021-03-07T10:48:53.981Z</time>
      </trkpt>
      <trkpt lat="48.54153" lon="2.07878">
        <ele>126</ele>
        <time>2021-03-07T10:48:54.982Z</time>
      </trkpt>
      <trkpt lat="48.54155" lon="2.07878">
        <ele>126</ele>
        <time>2021-03-07T10:48:55.981Z</time>
      </trkpt>
      <trkpt lat="48.54155" lon="2.07878">
        <ele>126</ele>
        <time>2021-03-07T10:48:56.982Z</time>
      </trkpt>
      <trkpt lat="48.54157" lon="2.07878">
        <ele>126</ele>
        <time>2021-03-07T10:48:57.982Z</time>
      </trkpt>
      <trkpt lat="48.54157" lon="2.07878">
        <ele>126</ele>
        <time>2021-03-07T10:48:58.982Z</time>
      </trkpt>
      <trkpt lat="48.54159" lon="2.07877">
        <ele>125</ele>
        <time>2021-03-07T10:48:59.981Z</time>
      </trkpt>
      <trkpt lat="48.5416" lon="2.07876">
        <ele>125</ele>
        <time>2021-03-07T10:49:00.982Z</time>
      </trkpt>
      <trkpt lat="48.54161" lon="2.07875">
        <ele>126</ele>
        <time>2021-03-07T10:49:01.982Z</time>
      </trkpt>
      <trkpt lat="48.54163" lon="2.07875">
        <ele>126</ele>
        <time>2021-03-07T10:49:02.982Z</time>
      </trkpt>
      <trkpt lat="48.54164" lon="2.07873">
        <ele>126</ele>
        <time>2021-03-07T10:49:03.982Z</time>
      </trkpt>
      <trkpt lat="48.54166" lon="2.07873">
        <ele>126</ele>
        <time>2021-03-07T10:49:04.981Z</time>
      </trkpt>
      <trkpt lat="48.54167" lon="2.07871">
        <ele>126</ele>
        <time>2021-03-07T10:49:05.982Z</time>
      </trkpt>
      <trkpt lat="48.54168" lon="2.07871">
        <ele>126</ele>
        <time>2021-03-07T10:49:06.982Z</time>
      </trkpt>
      <trkpt lat="48.5417" lon="2.07871">
        <ele>126</ele>
        <time>2021-03-07T10:49:07.982Z</time>
      </trkpt>
      <trkpt lat="48.54171" lon="2.07871">
        <ele>125</ele>
        <time>2021-03-07T10:49:08.982Z</time>
      </trkpt>
      <trkpt lat="48.54172" lon="2.07871">
        <ele>125</ele>
        <time>2021-03-07T10:49:09.982Z</time>
      </trkpt>
      <trkpt lat="48.54173" lon="2.07871">
        <ele>125</ele>
        <time>2021-03-07T10:49:10.981Z</time>
      </trkpt>
      <trkpt lat="48.54174" lon="2.07873">
        <ele>125</ele>
        <time>2021-03-07T10:49:11.982Z</time>
      </trkpt>
      <trkpt lat="48.54175" lon="2.07874">
        <ele>124</ele>
        <time>2021-03-07T10:49:12.982Z</time>
      </trkpt>
      <trkpt lat="48.54176" lon="2.07874">
        <ele>124</ele>
        <time>2021-03-07T10:49:13.982Z</time>
      </trkpt>
      <trkpt lat="48.54177" lon="2.07875">
        <ele>124</ele>
        <time>2021-03-07T10:49:14.982Z</time>
      </trkpt>
      <trkpt lat="48.54178" lon="2.07875">
        <ele>124</ele>
        <time>2021-03-07T10:49:15.982Z</time>
      </trkpt>
      <trkpt lat="48.54178" lon="2.07875">
        <ele>123</ele>
        <time>2021-03-07T10:49:16.982Z</time>
      </trkpt>
      <trkpt lat="48.54179" lon="2.07876">
        <ele>123</ele>
        <time>2021-03-07T10:49:17.981Z</time>
      </trkpt>
      <trkpt lat="48.5418" lon="2.07877">
        <ele>123</ele>
        <time>2021-03-07T10:49:18.982Z</time>
      </trkpt>
      <trkpt lat="48.54181" lon="2.07877">
        <ele>123</ele>
        <time>2021-03-07T10:49:19.981Z</time>
      </trkpt>
      <trkpt lat="48.54182" lon="2.07878">
        <ele>123</ele>
        <time>2021-03-07T10:49:20.982Z</time>
      </trkpt>
      <trkpt lat="48.54182" lon="2.07878">
        <ele>123</ele>
        <time>2021-03-07T10:49:21.981Z</time>
      </trkpt>
      <trkpt lat="48.54183" lon="2.0788">
        <ele>123</ele>
        <time>2021-03-07T10:49:22.982Z</time>
      </trkpt>
      <trkpt lat="48.54184" lon="2.07881">
        <ele>123</ele>
        <time>2021-03-07T10:49:23.981Z</time>
      </trkpt>
      <trkpt lat="48.54185" lon="2.07884">
        <ele>122</ele>
        <time>2021-03-07T10:49:24.982Z</time>
      </trkpt>
      <trkpt lat="48.54185" lon="2.07887">
        <ele>122</ele>
        <time>2021-03-07T10:49:25.981Z</time>
      </trkpt>
      <trkpt lat="48.54185" lon="2.07888">
        <ele>122</ele>
        <time>2021-03-07T10:49:26.982Z</time>
      </trkpt>
      <trkpt lat="48.54185" lon="2.07889">
        <ele>122</ele>
        <time>2021-03-07T10:49:27.981Z</time>
      </trkpt>
      <trkpt lat="48.54186" lon="2.07889">
        <ele>122</ele>
        <time>2021-03-07T10:49:28.982Z</time>
      </trkpt>
      <trkpt lat="48.54187" lon="2.07889">
        <ele>122</ele>
        <time>2021-03-07T10:49:29.982Z</time>
      </trkpt>
      <trkpt lat="48.54188" lon="2.0789">
        <ele>122</ele>
        <time>2021-03-07T10:49:30.981Z</time>
      </trkpt>
      <trkpt lat="48.54189" lon="2.07892">
        <ele>122</ele>
        <time>2021-03-07T10:49:31.981Z</time>
      </trkpt>
      <trkpt lat="48.54189" lon="2.07894">
        <ele>122</ele>
        <time>2021-03-07T10:49:32.982Z</time>
      </trkpt>
      <trkpt lat="48.54189" lon="2.07896">
        <ele>122</ele>
        <time>2021-03-07T10:49:33.982Z</time>
      </trkpt>
      <trkpt lat="48.5419" lon="2.07897">
        <ele>122</ele>
        <time>2021-03-07T10:49:34.981Z</time>
      </trkpt>
      <trkpt lat="48.54191" lon="2.07897">
        <ele>122</ele>
        <time>2021-03-07T10:49:35.982Z</time>
      </trkpt>
      <trkpt lat="48.54192" lon="2.07897">
        <ele>122</ele>
        <time>2021-03-07T10:49:36.982Z</time>
      </trkpt>
      <trkpt lat="48.54193" lon="2.07898">
        <ele>122</ele>
        <time>2021-03-07T10:49:37.982Z</time>
      </trkpt>
      <trkpt lat="48.54194" lon="2.07899">
        <ele>122</ele>
        <time>2021-03-07T10:49:38.982Z</time>
      </trkpt>
      <trkpt lat="48.54194" lon="2.07901">
        <ele>123</ele>
        <time>2021-03-07T10:49:39.982Z</time>
      </trkpt>
      <trkpt lat="48.54195" lon="2.07902">
        <ele>123</ele>
        <time>2021-03-07T10:49:40.982Z</time>
      </trkpt>
      <trkpt lat="48.54196" lon="2.07903">
        <ele>123</ele>
        <time>2021-03-07T10:49:41.981Z</time>
      </trkpt>
      <trkpt lat="48.54196" lon="2.07905">
        <ele>123</ele>
        <time>2021-03-07T10:49:42.982Z</time>
      </trkpt>
      <trkpt lat="48.54197" lon="2.07906">
        <ele>123</ele>
        <time>2021-03-07T10:49:43.981Z</time>
      </trkpt>
      <trkpt lat="48.54198" lon="2.07908">
        <ele>123</ele>
        <time>2021-03-07T10:49:44.982Z</time>
      </trkpt>
      <trkpt lat="48.54198" lon="2.07912">
        <ele>124</ele>
        <time>2021-03-07T10:49:45.981Z</time>
      </trkpt>
      <trkpt lat="48.54198" lon="2.07914">
        <ele>124</ele>
        <time>2021-03-07T10:49:46.982Z</time>
      </trkpt>
      <trkpt lat="48.54199" lon="2.07916">
        <ele>124</ele>
        <time>2021-03-07T10:49:47.981Z</time>
      </trkpt>
      <trkpt lat="48.54199" lon="2.07918">
        <ele>124</ele>
        <time>2021-03-07T10:49:48.981Z</time>
      </trkpt>
      <trkpt lat="48.542" lon="2.07919">
        <ele>125</ele>
        <time>2021-03-07T10:49:49.982Z</time>
      </trkpt>
      <trkpt lat="48.542" lon="2.0792">
        <ele>125</ele>
        <time>2021-03-07T10:49:50.981Z</time>
      </trkpt>
      <trkpt lat="48.542" lon="2.07921">
        <ele>124</ele>
        <time>2021-03-07T10:49:51.982Z</time>
      </trkpt>
      <trkpt lat="48.542" lon="2.07921">
        <ele>124</ele>
        <time>2021-03-07T10:49:52.981Z</time>
      </trkpt>
      <trkpt lat="48.54201" lon="2.07921">
        <ele>124</ele>
        <time>2021-03-07T10:49:53.981Z</time>
      </trkpt>
      <trkpt lat="48.54201" lon="2.07922">
        <ele>124</ele>
        <time>2021-03-07T10:49:54.981Z</time>
      </trkpt>
      <trkpt lat="48.54202" lon="2.07921">
        <ele>124</ele>
        <time>2021-03-07T10:49:55.981Z</time>
      </trkpt>
      <trkpt lat="48.54202" lon="2.07922">
        <ele>124</ele>
        <time>2021-03-07T10:49:56.982Z</time>
      </trkpt>
      <trkpt lat="48.54203" lon="2.07922">
        <ele>124</ele>
        <time>2021-03-07T10:49:57.982Z</time>
      </trkpt>
      <trkpt lat="48.54203" lon="2.07923">
        <ele>124</ele>
        <time>2021-03-07T10:49:58.982Z</time>
      </trkpt>
      <trkpt lat="48.54203" lon="2.07924">
        <ele>124</ele>
        <time>2021-03-07T10:49:59.982Z</time>
      </trkpt>
      <trkpt lat="48.54204" lon="2.07925">
        <ele>123</ele>
        <time>2021-03-07T10:50:00.981Z</time>
      </trkpt>
      <trkpt lat="48.54204" lon="2.07927">
        <ele>123</ele>
        <time>2021-03-07T10:50:01.982Z</time>
      </trkpt>
      <trkpt lat="48.54205" lon="2.07927">
        <ele>122</ele>
        <time>2021-03-07T10:50:02.982Z</time>
      </trkpt>
      <trkpt lat="48.54205" lon="2.07928">
        <ele>122</ele>
        <time>2021-03-07T10:50:03.982Z</time>
      </trkpt>
      <trkpt lat="48.54206" lon="2.07928">
        <ele>121</ele>
        <time>2021-03-07T10:50:04.982Z</time>
      </trkpt>
      <trkpt lat="48.54207" lon="2.07928">
        <ele>120</ele>
        <time>2021-03-07T10:50:05.982Z</time>
      </trkpt>
      <trkpt lat="48.54207" lon="2.07929">
        <ele>120</ele>
        <time>2021-03-07T10:50:06.982Z</time>
      </trkpt>
      <trkpt lat="48.54208" lon="2.0793">
        <ele>119</ele>
        <time>2021-03-07T10:50:07.981Z</time>
      </trkpt>
      <trkpt lat="48.54209" lon="2.0793">
        <ele>119</ele>
        <time>2021-03-07T10:50:08.982Z</time>
      </trkpt>
      <trkpt lat="48.54209" lon="2.07932">
        <ele>119</ele>
        <time>2021-03-07T10:50:09.982Z</time>
      </trkpt>
      <trkpt lat="48.5421" lon="2.07933">
        <ele>119</ele>
        <time>2021-03-07T10:50:10.982Z</time>
      </trkpt>
      <trkpt lat="48.54211" lon="2.07934">
        <ele>119</ele>
        <time>2021-03-07T10:50:11.982Z</time>
      </trkpt>
      <trkpt lat="48.54212" lon="2.07935">
        <ele>119</ele>
        <time>2021-03-07T10:50:12.981Z</time>
      </trkpt>
      <trkpt lat="48.54213" lon="2.07936">
        <ele>119</ele>
        <time>2021-03-07T10:50:13.982Z</time>
      </trkpt>
      <trkpt lat="48.54214" lon="2.07936">
        <ele>119</ele>
        <time>2021-03-07T10:50:14.981Z</time>
      </trkpt>
      <trkpt lat="48.54215" lon="2.07936">
        <ele>119</ele>
        <time>2021-03-07T10:50:15.982Z</time>
      </trkpt>
      <trkpt lat="48.54216" lon="2.07937">
        <ele>119</ele>
        <time>2021-03-07T10:50:16.982Z</time>
      </trkpt>
      <trkpt lat="48.54217" lon="2.07939">
        <ele>120</ele>
        <time>2021-03-07T10:50:17.981Z</time>
      </trkpt>
      <trkpt lat="48.54218" lon="2.0794">
        <ele>121</ele>
        <time>2021-03-07T10:50:18.981Z</time>
      </trkpt>
      <trkpt lat="48.54217" lon="2.07941">
        <ele>122</ele>
        <time>2021-03-07T10:50:19.982Z</time>
      </trkpt>
      <trkpt lat="48.54217" lon="2.07942">
        <ele>123</ele>
        <time>2021-03-07T10:50:20.982Z</time>
      </trkpt>
      <trkpt lat="48.54217" lon="2.07943">
        <ele>124</ele>
        <time>2021-03-07T10:50:21.981Z</time>
      </trkpt>
      <trkpt lat="48.54215" lon="2.07945">
        <ele>125</ele>
        <time>2021-03-07T10:50:22.982Z</time>
      </trkpt>
      <trkpt lat="48.54215" lon="2.07945">
        <ele>125</ele>
        <time>2021-03-07T10:50:23.981Z</time>
      </trkpt>
      <trkpt lat="48.54214" lon="2.07944">
        <ele>126</ele>
        <time>2021-03-07T10:50:24.982Z</time>
      </trkpt>
      <trkpt lat="48.54213" lon="2.07944">
        <ele>127</ele>
        <time>2021-03-07T10:50:25.982Z</time>
      </trkpt>
      <trkpt lat="48.54212" lon="2.07944">
        <ele>128</ele>
        <time>2021-03-07T10:50:26.982Z</time>
      </trkpt>
      <trkpt lat="48.54211" lon="2.07944">
        <ele>129</ele>
        <time>2021-03-07T10:50:27.982Z</time>
      </trkpt>
      <trkpt lat="48.5421" lon="2.07943">
        <ele>129</ele>
        <time>2021-03-07T10:50:28.982Z</time>
      </trkpt>
      <trkpt lat="48.54209" lon="2.07943">
        <ele>130</ele>
        <time>2021-03-07T10:50:29.981Z</time>
      </trkpt>
      <trkpt lat="48.54208" lon="2.07942">
        <ele>130</ele>
        <time>2021-03-07T10:50:30.982Z</time>
      </trkpt>
      <trkpt lat="48.54207" lon="2.07942">
        <ele>130</ele>
        <time>2021-03-07T10:50:31.981Z</time>
      </trkpt>
      <trkpt lat="48.54207" lon="2.07941">
        <ele>130</ele>
        <time>2021-03-07T10:50:32.982Z</time>
      </trkpt>
      <trkpt lat="48.54206" lon="2.0794">
        <ele>130</ele>
        <time>2021-03-07T10:50:33.982Z</time>
      </trkpt>
      <trkpt lat="48.54206" lon="2.07939">
        <ele>130</ele>
        <time>2021-03-07T10:50:34.982Z</time>
      </trkpt>
      <trkpt lat="48.54205" lon="2.07938">
        <ele>131</ele>
        <time>2021-03-07T10:50:35.981Z</time>
      </trkpt>
      <trkpt lat="48.54204" lon="2.07938">
        <ele>131</ele>
        <time>2021-03-07T10:50:36.982Z</time>
      </trkpt>
      <trkpt lat="48.54204" lon="2.07938">
        <ele>131</ele>
        <time>2021-03-07T10:50:37.981Z</time>
      </trkpt>
      <trkpt lat="48.54204" lon="2.07937">
        <ele>132</ele>
        <time>2021-03-07T10:50:38.982Z</time>
      </trkpt>
      <trkpt lat="48.54203" lon="2.07937">
        <ele>132</ele>
        <time>2021-03-07T10:50:39.982Z</time>
      </trkpt>
      <trkpt lat="48.54201" lon="2.07937">
        <ele>132</ele>
        <time>2021-03-07T10:50:40.982Z</time>
      </trkpt>
      <trkpt lat="48.54201" lon="2.07937">
        <ele>132</ele>
        <time>2021-03-07T10:50:41.981Z</time>
      </trkpt>
      <trkpt lat="48.542" lon="2.07937">
        <ele>131</ele>
        <time>2021-03-07T10:50:42.981Z</time>
      </trkpt>
      <trkpt lat="48.54199" lon="2.07938">
        <ele>131</ele>
        <time>2021-03-07T10:50:43.981Z</time>
      </trkpt>
      <trkpt lat="48.54197" lon="2.07936">
        <ele>131</ele>
        <time>2021-03-07T10:50:44.981Z</time>
      </trkpt>
      <trkpt lat="48.54197" lon="2.07934">
        <ele>131</ele>
        <time>2021-03-07T10:50:45.981Z</time>
      </trkpt>
      <trkpt lat="48.54196" lon="2.07932">
        <ele>130</ele>
        <time>2021-03-07T10:50:46.982Z</time>
      </trkpt>
      <trkpt lat="48.54195" lon="2.07931">
        <ele>130</ele>
        <time>2021-03-07T10:50:47.982Z</time>
      </trkpt>
      <trkpt lat="48.54195" lon="2.0793">
        <ele>130</ele>
        <time>2021-03-07T10:50:48.982Z</time>
      </trkpt>
      <trkpt lat="48.54195" lon="2.07929">
        <ele>130</ele>
        <time>2021-03-07T10:50:49.982Z</time>
      </trkpt>
      <trkpt lat="48.54194" lon="2.07929">
        <ele>130</ele>
        <time>2021-03-07T10:50:50.982Z</time>
      </trkpt>
      <trkpt lat="48.54193" lon="2.07929">
        <ele>130</ele>
        <time>2021-03-07T10:50:51.982Z</time>
      </trkpt>
      <trkpt lat="48.54192" lon="2.07928">
        <ele>130</ele>
        <time>2021-03-07T10:50:52.982Z</time>
      </trkpt>
      <trkpt lat="48.54191" lon="2.07928">
        <ele>130</ele>
        <time>2021-03-07T10:50:53.982Z</time>
      </trkpt>
      <trkpt lat="48.5419" lon="2.07927">
        <ele>130</ele>
        <time>2021-03-07T10:50:54.982Z</time>
      </trkpt>
      <trkpt lat="48.54189" lon="2.07926">
        <ele>130</ele>
        <time>2021-03-07T10:50:55.982Z</time>
      </trkpt>
      <trkpt lat="48.54187" lon="2.07925">
        <ele>130</ele>
        <time>2021-03-07T10:50:56.982Z</time>
      </trkpt>
      <trkpt lat="48.54186" lon="2.07926">
        <ele>129</ele>
        <time>2021-03-07T10:50:57.982Z</time>
      </trkpt>
      <trkpt lat="48.54185" lon="2.07926">
        <ele>129</ele>
        <time>2021-03-07T10:50:58.982Z</time>
      </trkpt>
      <trkpt lat="48.54184" lon="2.07926">
        <ele>129</ele>
        <time>2021-03-07T10:50:59.982Z</time>
      </trkpt>
      <trkpt lat="48.54183" lon="2.07926">
        <ele>129</ele>
        <time>2021-03-07T10:51:00.982Z</time>
      </trkpt>
      <trkpt lat="48.54181" lon="2.07926">
        <ele>129</ele>
        <time>2021-03-07T10:51:01.982Z</time>
      </trkpt>
      <trkpt lat="48.5418" lon="2.07925">
        <ele>129</ele>
        <time>2021-03-07T10:51:02.981Z</time>
      </trkpt>
      <trkpt lat="48.5418" lon="2.07923">
        <ele>128</ele>
        <time>2021-03-07T10:51:03.982Z</time>
      </trkpt>
      <trkpt lat="48.54178" lon="2.07922">
        <ele>128</ele>
        <time>2021-03-07T10:51:04.982Z</time>
      </trkpt>
      <trkpt lat="48.54177" lon="2.0792">
        <ele>127</ele>
        <time>2021-03-07T10:51:05.982Z</time>
      </trkpt>
      <trkpt lat="48.54176" lon="2.0792">
        <ele>127</ele>
        <time>2021-03-07T10:51:06.982Z</time>
      </trkpt>
      <trkpt lat="48.54174" lon="2.0792">
        <ele>127</ele>
        <time>2021-03-07T10:51:07.981Z</time>
      </trkpt>
      <trkpt lat="48.54173" lon="2.0792">
        <ele>127</ele>
        <time>2021-03-07T10:51:08.982Z</time>
      </trkpt>
      <trkpt lat="48.54172" lon="2.07919">
        <ele>127</ele>
        <time>2021-03-07T10:51:09.982Z</time>
      </trkpt>
      <trkpt lat="48.54171" lon="2.07919">
        <ele>127</ele>
        <time>2021-03-07T10:51:10.982Z</time>
      </trkpt>
      <trkpt lat="48.5417" lon="2.07918">
        <ele>127</ele>
        <time>2021-03-07T10:51:11.982Z</time>
      </trkpt>
      <trkpt lat="48.5417" lon="2.07918">
        <ele>127</ele>
        <time>2021-03-07T10:51:12.982Z</time>
      </trkpt>
      <trkpt lat="48.54168" lon="2.07917">
        <ele>127</ele>
        <time>2021-03-07T10:51:13.982Z</time>
      </trkpt>
      <trkpt lat="48.54168" lon="2.07917">
        <ele>127</ele>
        <time>2021-03-07T10:51:14.981Z</time>
      </trkpt>
      <trkpt lat="48.54167" lon="2.07917">
        <ele>127</ele>
        <time>2021-03-07T10:51:15.982Z</time>
      </trkpt>
      <trkpt lat="48.54166" lon="2.07915">
        <ele>128</ele>
        <time>2021-03-07T10:51:16.981Z</time>
      </trkpt>
      <trkpt lat="48.54165" lon="2.07914">
        <ele>128</ele>
        <time>2021-03-07T10:51:17.982Z</time>
      </trkpt>
      <trkpt lat="48.54164" lon="2.07913">
        <ele>128</ele>
        <time>2021-03-07T10:51:18.982Z</time>
      </trkpt>
      <trkpt lat="48.54164" lon="2.07912">
        <ele>127</ele>
        <time>2021-03-07T10:51:19.982Z</time>
      </trkpt>
      <trkpt lat="48.54163" lon="2.07911">
        <ele>127</ele>
        <time>2021-03-07T10:51:20.982Z</time>
      </trkpt>
      <trkpt lat="48.54162" lon="2.07908">
        <ele>126</ele>
        <time>2021-03-07T10:51:21.981Z</time>
      </trkpt>
      <trkpt lat="48.54162" lon="2.07906">
        <ele>126</ele>
        <time>2021-03-07T10:51:22.982Z</time>
      </trkpt>
      <trkpt lat="48.54161" lon="2.07905">
        <ele>125</ele>
        <time>2021-03-07T10:51:23.981Z</time>
      </trkpt>
      <trkpt lat="48.54161" lon="2.07904">
        <ele>125</ele>
        <time>2021-03-07T10:51:24.981Z</time>
      </trkpt>
      <trkpt lat="48.54161" lon="2.07904">
        <ele>124</ele>
        <time>2021-03-07T10:51:25.982Z</time>
      </trkpt>
      <trkpt lat="48.54162" lon="2.07904">
        <ele>124</ele>
        <time>2021-03-07T10:51:26.982Z</time>
      </trkpt>
      <trkpt lat="48.54163" lon="2.07904">
        <ele>123</ele>
        <time>2021-03-07T10:51:27.982Z</time>
      </trkpt>
      <trkpt lat="48.54165" lon="2.07904">
        <ele>123</ele>
        <time>2021-03-07T10:51:28.982Z</time>
      </trkpt>
      <trkpt lat="48.54165" lon="2.07904">
        <ele>123</ele>
        <time>2021-03-07T10:51:29.982Z</time>
      </trkpt>
      <trkpt lat="48.54166" lon="2.07904">
        <ele>122</ele>
        <time>2021-03-07T10:51:30.982Z</time>
      </trkpt>
      <trkpt lat="48.54166" lon="2.07904">
        <ele>122</ele>
        <time>2021-03-07T10:51:31.981Z</time>
      </trkpt>
      <trkpt lat="48.54167" lon="2.07904">
        <ele>122</ele>
        <time>2021-03-07T10:51:32.981Z</time>
      </trkpt>
      <trkpt lat="48.54167" lon="2.07905">
        <ele>121</ele>
        <time>2021-03-07T10:51:33.982Z</time>
      </trkpt>
      <trkpt lat="48.54168" lon="2.07905">
        <ele>121</ele>
        <time>2021-03-07T10:51:34.982Z</time>
      </trkpt>
      <trkpt lat="48.54168" lon="2.07906">
        <ele>121</ele>
        <time>2021-03-07T10:51:35.982Z</time>
      </trkpt>
      <trkpt lat="48.54169" lon="2.07907">
        <ele>121</ele>
        <time>2021-03-07T10:51:36.982Z</time>
      </trkpt>
      <trkpt lat="48.54169" lon="2.07907">
        <ele>120</ele>
        <time>2021-03-07T10:51:37.982Z</time>
      </trkpt>
      <trkpt lat="48.5417" lon="2.07908">
        <ele>120</ele>
        <time>2021-03-07T10:51:38.982Z</time>
      </trkpt>
      <trkpt lat="48.5417" lon="2.07909">
        <ele>120</ele>
        <time>2021-03-07T10:51:39.982Z</time>
      </trkpt>
      <trkpt lat="48.5417" lon="2.07911">
        <ele>120</ele>
        <time>2021-03-07T10:51:40.982Z</time>
      </trkpt>
      <trkpt lat="48.5417" lon="2.07911">
        <ele>121</ele>
        <time>2021-03-07T10:51:41.982Z</time>
      </trkpt>
      <trkpt lat="48.5417" lon="2.07912">
        <ele>121</ele>
        <time>2021-03-07T10:51:42.981Z</time>
      </trkpt>
      <trkpt lat="48.5417" lon="2.07912">
        <ele>121</ele>
        <time>2021-03-07T10:51:43.982Z</time>
      </trkpt>
      <trkpt lat="48.54169" lon="2.07912">
        <ele>121</ele>
        <time>2021-03-07T10:51:44.981Z</time>
      </trkpt>
      <trkpt lat="48.54169" lon="2.07912">
        <ele>121</ele>
        <time>2021-03-07T10:51:45.982Z</time>
      </trkpt>
      <trkpt lat="48.5417" lon="2.07912">
        <ele>121</ele>
        <time>2021-03-07T10:51:46.982Z</time>
      </trkpt>
      <trkpt lat="48.5417" lon="2.07912">
        <ele>121</ele>
        <time>2021-03-07T10:51:47.982Z</time>
      </trkpt>
      <trkpt lat="48.5417" lon="2.07912">
        <ele>121</ele>
        <time>2021-03-07T10:51:48.981Z</time>
      </trkpt>
      <trkpt lat="48.54171" lon="2.07912">
        <ele>120</ele>
        <time>2021-03-07T10:51:49.982Z</time>
      </trkpt>
      <trkpt lat="48.54171" lon="2.07913">
        <ele>120</ele>
        <time>2021-03-07T10:51:50.982Z</time>
      </trkpt>
      <trkpt lat="48.54172" lon="2.07912">
        <ele>120</ele>
        <time>2021-03-07T10:51:51.982Z</time>
      </trkpt>
      <trkpt lat="48.54171" lon="2.07911">
        <ele>120</ele>
        <time>2021-03-07T10:51:52.982Z</time>
      </trkpt>
      <trkpt lat="48.5417" lon="2.0791">
        <ele>120</ele>
        <time>2021-03-07T10:51:53.982Z</time>
      </trkpt>
      <trkpt lat="48.5417" lon="2.07908">
        <ele>120</ele>
        <time>2021-03-07T10:51:54.981Z</time>
      </trkpt>
      <trkpt lat="48.54169" lon="2.07907">
        <ele>120</ele>
        <time>2021-03-07T10:51:55.981Z</time>
      </trkpt>
      <trkpt lat="48.5417" lon="2.07906">
        <ele>120</ele>
        <time>2021-03-07T10:51:56.982Z</time>
      </trkpt>
      <trkpt lat="48.5417" lon="2.07906">
        <ele>120</ele>
        <time>2021-03-07T10:51:57.981Z</time>
      </trkpt>
      <trkpt lat="48.5417" lon="2.07906">
        <ele>120</ele>
        <time>2021-03-07T10:51:58.982Z</time>
      </trkpt>
      <trkpt lat="48.5417" lon="2.07906">
        <ele>120</ele>
        <time>2021-03-07T10:51:59.982Z</time>
      </trkpt>
      <trkpt lat="48.5417" lon="2.07906">
        <ele>120</ele>
        <time>2021-03-07T10:52:00.982Z</time>
      </trkpt>
      <trkpt lat="48.5417" lon="2.07906">
        <ele>121</ele>
        <time>2021-03-07T10:52:01.982Z</time>
      </trkpt>
      <trkpt lat="48.5417" lon="2.07906">
        <ele>121</ele>
        <time>2021-03-07T10:52:02.982Z</time>
      </trkpt>
      <trkpt lat="48.5417" lon="2.07906">
        <ele>121</ele>
        <time>2021-03-07T10:52:03.981Z</time>
      </trkpt>
      <trkpt lat="48.5417" lon="2.07906">
        <ele>121</ele>
        <time>2021-03-07T10:52:04.981Z</time>
      </trkpt>
      <trkpt lat="48.5417" lon="2.07906">
        <ele>121</ele>
        <time>2021-03-07T10:52:05.982Z</time>
      </trkpt>
      <trkpt lat="48.5417" lon="2.07906">
        <ele>121</ele>
        <time>2021-03-07T10:52:06.982Z</time>
      </trkpt>
      <trkpt lat="48.5417" lon="2.07906">
        <ele>122</ele>
        <time>2021-03-07T10:52:07.982Z</time>
      </trkpt>
      <trkpt lat="48.5417" lon="2.07906">
        <ele>122</ele>
        <time>2021-03-07T10:52:08.982Z</time>
      </trkpt>
      <trkpt lat="48.5417" lon="2.07906">
        <ele>122</ele>
        <time>2021-03-07T10:52:09.982Z</time>
      </trkpt>
      <trkpt lat="48.5417" lon="2.07906">
        <ele>122</ele>
        <time>2021-03-07T10:52:10.982Z</time>
      </trkpt>
      <trkpt lat="48.5417" lon="2.07906">
        <ele>122</ele>
        <time>2021-03-07T10:52:11.982Z</time>
      </trkpt>
      <trkpt lat="48.5417" lon="2.07906">
        <ele>122</ele>
        <time>2021-03-07T10:52:12.982Z</time>
      </trkpt>
      <trkpt lat="48.5417" lon="2.07906">
        <ele>122</ele>
        <time>2021-03-07T10:52:13.982Z</time>
      </trkpt>
      <trkpt lat="48.5417" lon="2.07906">
        <ele>122</ele>
        <time>2021-03-07T10:52:14.982Z</time>
      </trkpt>
      <trkpt lat="48.5417" lon="2.07907">
        <ele>122</ele>
        <time>2021-03-07T10:52:15.982Z</time>
      </trkpt>
      <trkpt lat="48.5417" lon="2.07907">
        <ele>122</ele>
        <time>2021-03-07T10:52:16.982Z</time>
      </trkpt>
      <trkpt lat="48.5417" lon="2.07908">
        <ele>122</ele>
        <time>2021-03-07T10:52:17.982Z</time>
      </trkpt>
      <trkpt lat="48.5417" lon="2.07908">
        <ele>122</ele>
        <time>2021-03-07T10:52:18.982Z</time>
      </trkpt>
      <trkpt lat="48.5417" lon="2.07908">
        <ele>122</ele>
        <time>2021-03-07T10:52:19.982Z</time>
      </trkpt>
      <trkpt lat="48.5417" lon="2.07908">
        <ele>121</ele>
        <time>2021-03-07T10:52:20.982Z</time>
      </trkpt>
      <trkpt lat="48.54169" lon="2.07909">
        <ele>121</ele>
        <time>2021-03-07T10:52:21.982Z</time>
      </trkpt>
      <trkpt lat="48.54169" lon="2.0791">
        <ele>121</ele>
        <time>2021-03-07T10:52:22.982Z</time>
      </trkpt>
      <trkpt lat="48.54168" lon="2.07911">
        <ele>121</ele>
        <time>2021-03-07T10:52:23.982Z</time>
      </trkpt>
      <trkpt lat="48.54167" lon="2.07913">
        <ele>121</ele>
        <time>2021-03-07T10:52:24.982Z</time>
      </trkpt>
      <trkpt lat="48.54166" lon="2.07914">
        <ele>121</ele>
        <time>2021-03-07T10:52:25.982Z</time>
      </trkpt>
      <trkpt lat="48.54165" lon="2.07916">
        <ele>122</ele>
        <time>2021-03-07T10:52:26.981Z</time>
      </trkpt>
      <trkpt lat="48.54165" lon="2.07918">
        <ele>122</ele>
        <time>2021-03-07T10:52:27.981Z</time>
      </trkpt>
      <trkpt lat="48.54163" lon="2.07921">
        <ele>122</ele>
        <time>2021-03-07T10:52:28.981Z</time>
      </trkpt>
      <trkpt lat="48.54162" lon="2.07924">
        <ele>122</ele>
        <time>2021-03-07T10:52:29.982Z</time>
      </trkpt>
      <trkpt lat="48.54161" lon="2.07925">
        <ele>123</ele>
        <time>2021-03-07T10:52:30.982Z</time>
      </trkpt>
      <trkpt lat="48.54161" lon="2.07926">
        <ele>123</ele>
        <time>2021-03-07T10:52:31.982Z</time>
      </trkpt>
      <trkpt lat="48.54161" lon="2.07927">
        <ele>123</ele>
        <time>2021-03-07T10:52:32.982Z</time>
      </trkpt>
      <trkpt lat="48.5416" lon="2.07928">
        <ele>123</ele>
        <time>2021-03-07T10:52:33.982Z</time>
      </trkpt>
      <trkpt lat="48.5416" lon="2.07929">
        <ele>123</ele>
        <time>2021-03-07T10:52:34.982Z</time>
      </trkpt>
      <trkpt lat="48.54159" lon="2.0793">
        <ele>123</ele>
        <time>2021-03-07T10:52:35.982Z</time>
      </trkpt>
      <trkpt lat="48.54157" lon="2.07932">
        <ele>123</ele>
        <time>2021-03-07T10:52:36.982Z</time>
      </trkpt>
      <trkpt lat="48.54157" lon="2.07932">
        <ele>123</ele>
        <time>2021-03-07T10:52:37.982Z</time>
      </trkpt>
      <trkpt lat="48.54158" lon="2.07932">
        <ele>123</ele>
        <time>2021-03-07T10:52:38.982Z</time>
      </trkpt>
      <trkpt lat="48.54158" lon="2.07932">
        <ele>123</ele>
        <time>2021-03-07T10:52:39.982Z</time>
      </trkpt>
      <trkpt lat="48.54159" lon="2.07931">
        <ele>123</ele>
        <time>2021-03-07T10:52:40.982Z</time>
      </trkpt>
      <trkpt lat="48.54161" lon="2.07931">
        <ele>122</ele>
        <time>2021-03-07T10:52:41.982Z</time>
      </trkpt>
      <trkpt lat="48.54161" lon="2.07931">
        <ele>122</ele>
        <time>2021-03-07T10:52:42.982Z</time>
      </trkpt>
      <trkpt lat="48.54162" lon="2.0793">
        <ele>122</ele>
        <time>2021-03-07T10:52:43.981Z</time>
      </trkpt>
      <trkpt lat="48.54162" lon="2.07929">
        <ele>123</ele>
        <time>2021-03-07T10:52:44.982Z</time>
      </trkpt>
      <trkpt lat="48.54162" lon="2.07929">
        <ele>123</ele>
        <time>2021-03-07T10:52:45.982Z</time>
      </trkpt>
      <trkpt lat="48.54162" lon="2.07929">
        <ele>123</ele>
        <time>2021-03-07T10:52:46.982Z</time>
      </trkpt>
      <trkpt lat="48.54163" lon="2.07929">
        <ele>124</ele>
        <time>2021-03-07T10:52:47.981Z</time>
      </trkpt>
      <trkpt lat="48.54164" lon="2.07929">
        <ele>124</ele>
        <time>2021-03-07T10:52:48.982Z</time>
      </trkpt>
      <trkpt lat="48.54164" lon="2.0793">
        <ele>124</ele>
        <time>2021-03-07T10:52:49.981Z</time>
      </trkpt>
      <trkpt lat="48.54164" lon="2.0793">
        <ele>124</ele>
        <time>2021-03-07T10:52:50.981Z</time>
      </trkpt>
      <trkpt lat="48.54164" lon="2.07931">
        <ele>124</ele>
        <time>2021-03-07T10:52:51.981Z</time>
      </trkpt>
      <trkpt lat="48.54164" lon="2.07931">
        <ele>124</ele>
        <time>2021-03-07T10:52:52.982Z</time>
      </trkpt>
      <trkpt lat="48.54164" lon="2.07932">
        <ele>124</ele>
        <time>2021-03-07T10:52:53.982Z</time>
      </trkpt>
      <trkpt lat="48.54164" lon="2.07932">
        <ele>124</ele>
        <time>2021-03-07T10:52:54.982Z</time>
      </trkpt>
      <trkpt lat="48.54163" lon="2.07932">
        <ele>123</ele>
        <time>2021-03-07T10:52:55.982Z</time>
      </trkpt>
      <trkpt lat="48.54163" lon="2.07933">
        <ele>123</ele>
        <time>2021-03-07T10:52:56.981Z</time>
      </trkpt>
      <trkpt lat="48.54164" lon="2.07933">
        <ele>123</ele>
        <time>2021-03-07T10:52:57.981Z</time>
      </trkpt>
      <trkpt lat="48.54164" lon="2.07933">
        <ele>122</ele>
        <time>2021-03-07T10:52:58.981Z</time>
      </trkpt>
      <trkpt lat="48.54165" lon="2.07934">
        <ele>122</ele>
        <time>2021-03-07T10:52:59.982Z</time>
      </trkpt>
      <trkpt lat="48.54165" lon="2.07935">
        <ele>122</ele>
        <time>2021-03-07T10:53:00.982Z</time>
      </trkpt>
      <trkpt lat="48.54164" lon="2.07936">
        <ele>122</ele>
        <time>2021-03-07T10:53:01.982Z</time>
      </trkpt>
      <trkpt lat="48.54164" lon="2.07937">
        <ele>122</ele>
        <time>2021-03-07T10:53:02.982Z</time>
      </trkpt>
      <trkpt lat="48.54163" lon="2.07937">
        <ele>122</ele>
        <time>2021-03-07T10:53:03.982Z</time>
      </trkpt>
      <trkpt lat="48.54163" lon="2.07938">
        <ele>122</ele>
        <time>2021-03-07T10:53:04.982Z</time>
      </trkpt>
      <trkpt lat="48.54162" lon="2.07939">
        <ele>122</ele>
        <time>2021-03-07T10:53:05.982Z</time>
      </trkpt>
      <trkpt lat="48.54161" lon="2.07939">
        <ele>122</ele>
        <time>2021-03-07T10:53:06.982Z</time>
      </trkpt>
      <trkpt lat="48.5416" lon="2.0794">
        <ele>122</ele>
        <time>2021-03-07T10:53:07.982Z</time>
      </trkpt>
      <trkpt lat="48.54159" lon="2.07942">
        <ele>121</ele>
        <time>2021-03-07T10:53:08.982Z</time>
      </trkpt>
      <trkpt lat="48.54158" lon="2.07943">
        <ele>121</ele>
        <time>2021-03-07T10:53:09.982Z</time>
      </trkpt>
      <trkpt lat="48.54156" lon="2.07945">
        <ele>121</ele>
        <time>2021-03-07T10:53:10.982Z</time>
      </trkpt>
      <trkpt lat="48.54155" lon="2.07947">
        <ele>121</ele>
        <time>2021-03-07T10:53:11.982Z</time>
      </trkpt>
      <trkpt lat="48.54155" lon="2.07948">
        <ele>121</ele>
        <time>2021-03-07T10:53:12.982Z</time>
      </trkpt>
      <trkpt lat="48.54156" lon="2.07949">
        <ele>121</ele>
        <time>2021-03-07T10:53:13.982Z</time>
      </trkpt>
      <trkpt lat="48.54156" lon="2.07949">
        <ele>121</ele>
        <time>2021-03-07T10:53:14.982Z</time>
      </trkpt>
      <trkpt lat="48.54155" lon="2.07949">
        <ele>121</ele>
        <time>2021-03-07T10:53:15.982Z</time>
      </trkpt>
      <trkpt lat="48.54154" lon="2.0795">
        <ele>121</ele>
        <time>2021-03-07T10:53:16.982Z</time>
      </trkpt>
      <trkpt lat="48.54153" lon="2.0795">
        <ele>121</ele>
        <time>2021-03-07T10:53:17.982Z</time>
      </trkpt>
      <trkpt lat="48.54152" lon="2.0795">
        <ele>121</ele>
        <time>2021-03-07T10:53:18.982Z</time>
      </trkpt>
      <trkpt lat="48.54151" lon="2.0795">
        <ele>121</ele>
        <time>2021-03-07T10:53:19.981Z</time>
      </trkpt>
      <trkpt lat="48.5415" lon="2.0795">
        <ele>121</ele>
        <time>2021-03-07T10:53:20.981Z</time>
      </trkpt>
      <trkpt lat="48.5415" lon="2.0795">
        <ele>122</ele>
        <time>2021-03-07T10:53:21.982Z</time>
      </trkpt>
      <trkpt lat="48.54149" lon="2.0795">
        <ele>122</ele>
        <time>2021-03-07T10:53:22.982Z</time>
      </trkpt>
      <trkpt lat="48.54148" lon="2.0795">
        <ele>122</ele>
        <time>2021-03-07T10:53:23.982Z</time>
      </trkpt>
      <trkpt lat="48.54148" lon="2.0795">
        <ele>123</ele>
        <time>2021-03-07T10:53:24.981Z</time>
      </trkpt>
      <trkpt lat="48.54147" lon="2.0795">
        <ele>123</ele>
        <time>2021-03-07T10:53:25.982Z</time>
      </trkpt>
      <trkpt lat="48.54147" lon="2.0795">
        <ele>123</ele>
        <time>2021-03-07T10:53:26.982Z</time>
      </trkpt>
      <trkpt lat="48.54146" lon="2.07951">
        <ele>123</ele>
        <time>2021-03-07T10:53:27.981Z</time>
      </trkpt>
      <trkpt lat="48.54145" lon="2.07951">
        <ele>123</ele>
        <time>2021-03-07T10:53:28.982Z</time>
      </trkpt>
      <trkpt lat="48.54145" lon="2.07951">
        <ele>123</ele>
        <time>2021-03-07T10:53:29.982Z</time>
      </trkpt>
      <trkpt lat="48.54144" lon="2.07951">
        <ele>123</ele>
        <time>2021-03-07T10:53:30.982Z</time>
      </trkpt>
      <trkpt lat="48.54144" lon="2.07951">
        <ele>123</ele>
        <time>2021-03-07T10:53:31.982Z</time>
      </trkpt>
      <trkpt lat="48.54142" lon="2.07951">
        <ele>123</ele>
        <time>2021-03-07T10:53:32.982Z</time>
      </trkpt>
      <trkpt lat="48.5414" lon="2.07952">
        <ele>122</ele>
        <time>2021-03-07T10:53:33.982Z</time>
      </trkpt>
      <trkpt lat="48.5414" lon="2.07952">
        <ele>122</ele>
        <time>2021-03-07T10:53:34.981Z</time>
      </trkpt>
      <trkpt lat="48.54139" lon="2.07952">
        <ele>122</ele>
        <time>2021-03-07T10:53:35.981Z</time>
      </trkpt>
      <trkpt lat="48.54138" lon="2.07952">
        <ele>121</ele>
        <time>2021-03-07T10:53:36.982Z</time>
      </trkpt>
      <trkpt lat="48.54137" lon="2.07951">
        <ele>121</ele>
        <time>2021-03-07T10:53:37.982Z</time>
      </trkpt>
      <trkpt lat="48.54137" lon="2.07951">
        <ele>121</ele>
        <time>2021-03-07T10:53:38.982Z</time>
      </trkpt>
      <trkpt lat="48.54136" lon="2.0795">
        <ele>121</ele>
        <time>2021-03-07T10:53:39.982Z</time>
      </trkpt>
      <trkpt lat="48.54135" lon="2.0795">
        <ele>122</ele>
        <time>2021-03-07T10:53:40.981Z</time>
      </trkpt>
      <trkpt lat="48.54135" lon="2.0795">
        <ele>122</ele>
        <time>2021-03-07T10:53:41.981Z</time>
      </trkpt>
      <trkpt lat="48.54134" lon="2.07949">
        <ele>122</ele>
        <time>2021-03-07T10:53:42.981Z</time>
      </trkpt>
      <trkpt lat="48.54133" lon="2.07949">
        <ele>122</ele>
        <time>2021-03-07T10:53:43.981Z</time>
      </trkpt>
      <trkpt lat="48.54132" lon="2.07949">
        <ele>123</ele>
        <time>2021-03-07T10:53:44.982Z</time>
      </trkpt>
      <trkpt lat="48.54132" lon="2.07948">
        <ele>123</ele>
        <time>2021-03-07T10:53:45.982Z</time>
      </trkpt>
      <trkpt lat="48.54131" lon="2.07947">
        <ele>123</ele>
        <time>2021-03-07T10:53:46.982Z</time>
      </trkpt>
      <trkpt lat="48.54131" lon="2.07946">
        <ele>123</ele>
        <time>2021-03-07T10:53:47.981Z</time>
      </trkpt>
      <trkpt lat="48.5413" lon="2.07945">
        <ele>124</ele>
        <time>2021-03-07T10:53:48.982Z</time>
      </trkpt>
      <trkpt lat="48.54128" lon="2.07945">
        <ele>124</ele>
        <time>2021-03-07T10:53:49.981Z</time>
      </trkpt>
      <trkpt lat="48.54127" lon="2.07944">
        <ele>124</ele>
        <time>2021-03-07T10:53:50.982Z</time>
      </trkpt>
      <trkpt lat="48.54127" lon="2.07943">
        <ele>124</ele>
        <time>2021-03-07T10:53:51.982Z</time>
      </trkpt>
      <trkpt lat="48.54127" lon="2.07943">
        <ele>124</ele>
        <time>2021-03-07T10:53:52.982Z</time>
      </trkpt>
      <trkpt lat="48.54127" lon="2.07942">
        <ele>125</ele>
        <time>2021-03-07T10:53:53.982Z</time>
      </trkpt>
      <trkpt lat="48.54126" lon="2.07943">
        <ele>125</ele>
        <time>2021-03-07T10:53:54.981Z</time>
      </trkpt>
      <trkpt lat="48.54126" lon="2.07943">
        <ele>125</ele>
        <time>2021-03-07T10:53:55.982Z</time>
      </trkpt>
      <trkpt lat="48.54125" lon="2.07944">
        <ele>125</ele>
        <time>2021-03-07T10:53:56.982Z</time>
      </trkpt>
      <trkpt lat="48.54125" lon="2.07945">
        <ele>125</ele>
        <time>2021-03-07T10:53:57.981Z</time>
      </trkpt>
      <trkpt lat="48.54125" lon="2.07946">
        <ele>125</ele>
        <time>2021-03-07T10:53:58.981Z</time>
      </trkpt>
      <trkpt lat="48.54124" lon="2.07947">
        <ele>125</ele>
        <time>2021-03-07T10:53:59.981Z</time>
      </trkpt>
      <trkpt lat="48.54123" lon="2.07947">
        <ele>125</ele>
        <time>2021-03-07T10:54:00.982Z</time>
      </trkpt>
      <trkpt lat="48.54123" lon="2.07946">
        <ele>125</ele>
        <time>2021-03-07T10:54:01.982Z</time>
      </trkpt>
      <trkpt lat="48.54122" lon="2.07945">
        <ele>125</ele>
        <time>2021-03-07T10:54:02.981Z</time>
      </trkpt>
      <trkpt lat="48.54122" lon="2.07944">
        <ele>125</ele>
        <time>2021-03-07T10:54:03.981Z</time>
      </trkpt>
      <trkpt lat="48.54122" lon="2.07944">
        <ele>125</ele>
        <time>2021-03-07T10:54:04.981Z</time>
      </trkpt>
      <trkpt lat="48.54122" lon="2.07944">
        <ele>125</ele>
        <time>2021-03-07T10:54:05.982Z</time>
      </trkpt>
      <trkpt lat="48.54122" lon="2.07945">
        <ele>125</ele>
        <time>2021-03-07T10:54:06.982Z</time>
      </trkpt>
      <trkpt lat="48.54121" lon="2.07946">
        <ele>125</ele>
        <time>2021-03-07T10:54:07.981Z</time>
      </trkpt>
      <trkpt lat="48.5412" lon="2.07946">
        <ele>124</ele>
        <time>2021-03-07T10:54:08.981Z</time>
      </trkpt>
      <trkpt lat="48.5412" lon="2.07945">
        <ele>124</ele>
        <time>2021-03-07T10:54:09.981Z</time>
      </trkpt>
      <trkpt lat="48.5412" lon="2.07945">
        <ele>123</ele>
        <time>2021-03-07T10:54:10.981Z</time>
      </trkpt>
      <trkpt lat="48.5412" lon="2.07945">
        <ele>122</ele>
        <time>2021-03-07T10:54:11.981Z</time>
      </trkpt>
      <trkpt lat="48.5412" lon="2.07945">
        <ele>122</ele>
        <time>2021-03-07T10:54:12.981Z</time>
      </trkpt>
      <trkpt lat="48.5412" lon="2.07944">
        <ele>121</ele>
        <time>2021-03-07T10:54:13.981Z</time>
      </trkpt>
      <trkpt lat="48.54121" lon="2.07943">
        <ele>121</ele>
        <time>2021-03-07T10:54:14.982Z</time>
      </trkpt>
      <trkpt lat="48.54121" lon="2.07943">
        <ele>121</ele>
        <time>2021-03-07T10:54:15.982Z</time>
      </trkpt>
      <trkpt lat="48.54121" lon="2.07943">
        <ele>121</ele>
        <time>2021-03-07T10:54:16.982Z</time>
      </trkpt>
      <trkpt lat="48.54121" lon="2.07943">
        <ele>120</ele>
        <time>2021-03-07T10:54:17.982Z</time>
      </trkpt>
      <trkpt lat="48.54122" lon="2.07942">
        <ele>120</ele>
        <time>2021-03-07T10:54:18.982Z</time>
      </trkpt>
      <trkpt lat="48.54121" lon="2.07942">
        <ele>120</ele>
        <time>2021-03-07T10:54:19.982Z</time>
      </trkpt>
      <trkpt lat="48.54121" lon="2.07941">
        <ele>120</ele>
        <time>2021-03-07T10:54:20.982Z</time>
      </trkpt>
      <trkpt lat="48.54122" lon="2.07941">
        <ele>120</ele>
        <time>2021-03-07T10:54:21.982Z</time>
      </trkpt>
      <trkpt lat="48.54122" lon="2.07941">
        <ele>121</ele>
        <time>2021-03-07T10:54:22.982Z</time>
      </trkpt>
      <trkpt lat="48.54122" lon="2.07941">
        <ele>121</ele>
        <time>2021-03-07T10:54:23.982Z</time>
      </trkpt>
      <trkpt lat="48.54123" lon="2.0794">
        <ele>121</ele>
        <time>2021-03-07T10:54:24.981Z</time>
      </trkpt>
      <trkpt lat="48.54123" lon="2.0794">
        <ele>122</ele>
        <time>2021-03-07T10:54:25.981Z</time>
      </trkpt>
      <trkpt lat="48.54123" lon="2.0794">
        <ele>122</ele>
        <time>2021-03-07T10:54:26.981Z</time>
      </trkpt>
      <trkpt lat="48.54123" lon="2.0794">
        <ele>123</ele>
        <time>2021-03-07T10:54:27.981Z</time>
      </trkpt>
      <trkpt lat="48.54123" lon="2.0794">
        <ele>123</ele>
        <time>2021-03-07T10:54:28.982Z</time>
      </trkpt>
      <trkpt lat="48.54123" lon="2.0794">
        <ele>123</ele>
        <time>2021-03-07T10:54:29.982Z</time>
      </trkpt>
      <trkpt lat="48.54123" lon="2.0794">
        <ele>123</ele>
        <time>2021-03-07T10:54:30.982Z</time>
      </trkpt>
      <trkpt lat="48.54123" lon="2.0794">
        <ele>123</ele>
        <time>2021-03-07T10:54:31.982Z</time>
      </trkpt>
      <trkpt lat="48.54123" lon="2.0794">
        <ele>123</ele>
        <time>2021-03-07T10:54:32.982Z</time>
      </trkpt>
      <trkpt lat="48.54123" lon="2.0794">
        <ele>123</ele>
        <time>2021-03-07T10:54:33.982Z</time>
      </trkpt>
      <trkpt lat="48.54123" lon="2.0794">
        <ele>123</ele>
        <time>2021-03-07T10:54:34.982Z</time>
      </trkpt>
      <trkpt lat="48.54123" lon="2.07941">
        <ele>123</ele>
        <time>2021-03-07T10:54:35.982Z</time>
      </trkpt>
      <trkpt lat="48.54123" lon="2.07941">
        <ele>123</ele>
        <time>2021-03-07T10:54:36.982Z</time>
      </trkpt>
      <trkpt lat="48.54123" lon="2.07941">
        <ele>123</ele>
        <time>2021-03-07T10:54:37.982Z</time>
      </trkpt>
      <trkpt lat="48.54123" lon="2.07941">
        <ele>123</ele>
        <time>2021-03-07T10:54:38.981Z</time>
      </trkpt>
      <trkpt lat="48.54123" lon="2.07941">
        <ele>123</ele>
        <time>2021-03-07T10:54:39.981Z</time>
      </trkpt>
      <trkpt lat="48.54123" lon="2.07941">
        <ele>123</ele>
        <time>2021-03-07T10:54:40.982Z</time>
      </trkpt>
      <trkpt lat="48.54123" lon="2.07941">
        <ele>123</ele>
        <time>2021-03-07T10:54:41.982Z</time>
      </trkpt>
      <trkpt lat="48.54123" lon="2.07941">
        <ele>123</ele>
        <time>2021-03-07T10:54:42.982Z</time>
      </trkpt>
      <trkpt lat="48.54123" lon="2.07941">
        <ele>123</ele>
        <time>2021-03-07T10:54:43.982Z</time>
      </trkpt>
      <trkpt lat="48.54123" lon="2.07941">
        <ele>123</ele>
        <time>2021-03-07T10:54:44.982Z</time>
      </trkpt>
      <trkpt lat="48.54123" lon="2.07941">
        <ele>123</ele>
        <time>2021-03-07T10:54:45.982Z</time>
      </trkpt>
      <trkpt lat="48.54123" lon="2.07941">
        <ele>123</ele>
        <time>2021-03-07T10:54:46.981Z</time>
      </trkpt>
      <trkpt lat="48.54123" lon="2.07941">
        <ele>123</ele>
        <time>2021-03-07T10:54:47.982Z</time>
      </trkpt>
      <trkpt lat="48.54124" lon="2.07941">
        <ele>123</ele>
        <time>2021-03-07T10:54:48.982Z</time>
      </trkpt>
      <trkpt lat="48.54124" lon="2.07941">
        <ele>123</ele>
        <time>2021-03-07T10:54:49.982Z</time>
      </trkpt>
      <trkpt lat="48.54124" lon="2.07941">
        <ele>123</ele>
        <time>2021-03-07T10:54:50.981Z</time>
      </trkpt>
      <trkpt lat="48.54124" lon="2.07941">
        <ele>123</ele>
        <time>2021-03-07T10:54:51.982Z</time>
      </trkpt>
      <trkpt lat="48.54124" lon="2.07941">
        <ele>123</ele>
        <time>2021-03-07T10:54:52.982Z</time>
      </trkpt>
      <trkpt lat="48.54124" lon="2.07941">
        <ele>123</ele>
        <time>2021-03-07T10:54:53.982Z</time>
      </trkpt>
      <trkpt lat="48.54124" lon="2.07941">
        <ele>123</ele>
        <time>2021-03-07T10:54:54.982Z</time>
      </trkpt>
      <trkpt lat="48.54124" lon="2.07941">
        <ele>123</ele>
        <time>2021-03-07T10:54:55.982Z</time>
      </trkpt>
      <trkpt lat="48.54124" lon="2.07941">
        <ele>123</ele>
        <time>2021-03-07T10:54:56.981Z</time>
      </trkpt>
      <trkpt lat="48.54125" lon="2.07941">
        <ele>123</ele>
        <time>2021-03-07T10:54:57.982Z</time>
      </trkpt>
      <trkpt lat="48.54125" lon="2.07941">
        <ele>123</ele>
        <time>2021-03-07T10:54:58.982Z</time>
      </trkpt>
      <trkpt lat="48.54125" lon="2.07941">
        <ele>123</ele>
        <time>2021-03-07T10:54:59.982Z</time>
      </trkpt>
      <trkpt lat="48.54125" lon="2.07941">
        <ele>123</ele>
        <time>2021-03-07T10:55:00.982Z</time>
      </trkpt>
      <trkpt lat="48.54125" lon="2.07941">
        <ele>123</ele>
        <time>2021-03-07T10:55:01.982Z</time>
      </trkpt>
      <trkpt lat="48.54126" lon="2.07941">
        <ele>123</ele>
        <time>2021-03-07T10:55:02.982Z</time>
      </trkpt>
      <trkpt lat="48.54126" lon="2.07941">
        <ele>123</ele>
        <time>2021-03-07T10:55:03.982Z</time>
      </trkpt>
      <trkpt lat="48.54126" lon="2.07941">
        <ele>123</ele>
        <time>2021-03-07T10:55:04.982Z</time>
      </trkpt>
      <trkpt lat="48.54126" lon="2.07941">
        <ele>123</ele>
        <time>2021-03-07T10:55:05.981Z</time>
      </trkpt>
      <trkpt lat="48.54126" lon="2.07941">
        <ele>123</ele>
        <time>2021-03-07T10:55:06.981Z</time>
      </trkpt>
      <trkpt lat="48.54126" lon="2.07941">
        <ele>123</ele>
        <time>2021-03-07T10:55:07.982Z</time>
      </trkpt>
      <trkpt lat="48.54126" lon="2.07941">
        <ele>123</ele>
        <time>2021-03-07T10:55:08.982Z</time>
      </trkpt>
      <trkpt lat="48.54126" lon="2.07941">
        <ele>123</ele>
        <time>2021-03-07T10:55:09.981Z</time>
      </trkpt>
      <trkpt lat="48.54126" lon="2.0794">
        <ele>123</ele>
        <time>2021-03-07T10:55:10.981Z</time>
      </trkpt>
      <trkpt lat="48.54126" lon="2.0794">
        <ele>123</ele>
        <time>2021-03-07T10:55:11.981Z</time>
      </trkpt>
      <trkpt lat="48.54126" lon="2.0794">
        <ele>123</ele>
        <time>2021-03-07T10:55:12.982Z</time>
      </trkpt>
      <trkpt lat="48.54126" lon="2.0794">
        <ele>123</ele>
        <time>2021-03-07T10:55:13.982Z</time>
      </trkpt>
      <trkpt lat="48.54126" lon="2.0794">
        <ele>123</ele>
        <time>2021-03-07T10:55:14.982Z</time>
      </trkpt>
      <trkpt lat="48.54126" lon="2.0794">
        <ele>123</ele>
        <time>2021-03-07T10:55:15.982Z</time>
      </trkpt>
      <trkpt lat="48.54126" lon="2.0794">
        <ele>123</ele>
        <time>2021-03-07T10:55:16.982Z</time>
      </trkpt>
      <trkpt lat="48.54126" lon="2.0794">
        <ele>123</ele>
        <time>2021-03-07T10:55:17.982Z</time>
      </trkpt>
      <trkpt lat="48.54126" lon="2.0794">
        <ele>123</ele>
        <time>2021-03-07T10:55:18.981Z</time>
      </trkpt>
      <trkpt lat="48.54126" lon="2.0794">
        <ele>123</ele>
        <time>2021-03-07T10:55:19.982Z</time>
      </trkpt>
      <trkpt lat="48.54126" lon="2.0794">
        <ele>123</ele>
        <time>2021-03-07T10:55:20.982Z</time>
      </trkpt>
      <trkpt lat="48.54126" lon="2.0794">
        <ele>123</ele>
        <time>2021-03-07T10:55:21.982Z</time>
      </trkpt>
      <trkpt lat="48.54126" lon="2.0794">
        <ele>123</ele>
        <time>2021-03-07T10:55:22.982Z</time>
      </trkpt>
      <trkpt lat="48.54126" lon="2.0794">
        <ele>123</ele>
        <time>2021-03-07T10:55:23.981Z</time>
      </trkpt>
      <trkpt lat="48.54126" lon="2.0794">
        <ele>123</ele>
        <time>2021-03-07T10:55:24.981Z</time>
      </trkpt>
      <trkpt lat="48.54126" lon="2.0794">
        <ele>123</ele>
        <time>2021-03-07T10:55:25.981Z</time>
      </trkpt>
      <trkpt lat="48.54126" lon="2.0794">
        <ele>123</ele>
        <time>2021-03-07T10:55:26.982Z</time>
      </trkpt>
      <trkpt lat="48.54126" lon="2.07939">
        <ele>123</ele>
        <time>2021-03-07T10:55:27.982Z</time>
      </trkpt>
      <trkpt lat="48.54126" lon="2.07939">
        <ele>123</ele>
        <time>2021-03-07T10:55:28.982Z</time>
      </trkpt>
      <trkpt lat="48.54126" lon="2.0794">
        <ele>123</ele>
        <time>2021-03-07T10:55:29.981Z</time>
      </trkpt>
      <trkpt lat="48.54126" lon="2.0794">
        <ele>123</ele>
        <time>2021-03-07T10:55:30.982Z</time>
      </trkpt>
      <trkpt lat="48.54127" lon="2.0794">
        <ele>123</ele>
        <time>2021-03-07T10:55:31.982Z</time>
      </trkpt>
      <trkpt lat="48.54127" lon="2.0794">
        <ele>123</ele>
        <time>2021-03-07T10:55:32.982Z</time>
      </trkpt>
      <trkpt lat="48.54128" lon="2.07939">
        <ele>123</ele>
        <time>2021-03-07T10:55:33.982Z</time>
      </trkpt>
      <trkpt lat="48.54129" lon="2.07939">
        <ele>123</ele>
        <time>2021-03-07T10:55:34.982Z</time>
      </trkpt>
      <trkpt lat="48.5413" lon="2.07939">
        <ele>123</ele>
        <time>2021-03-07T10:55:35.982Z</time>
      </trkpt>
      <trkpt lat="48.5413" lon="2.07939">
        <ele>122</ele>
        <time>2021-03-07T10:55:36.982Z</time>
      </trkpt>
      <trkpt lat="48.54131" lon="2.07938">
        <ele>122</ele>
        <time>2021-03-07T10:55:37.982Z</time>
      </trkpt>
      <trkpt lat="48.54132" lon="2.07938">
        <ele>122</ele>
        <time>2021-03-07T10:55:38.982Z</time>
      </trkpt>
      <trkpt lat="48.54132" lon="2.07938">
        <ele>121</ele>
        <time>2021-03-07T10:55:39.982Z</time>
      </trkpt>
      <trkpt lat="48.54133" lon="2.07938">
        <ele>121</ele>
        <time>2021-03-07T10:55:40.982Z</time>
      </trkpt>
      <trkpt lat="48.54134" lon="2.07939">
        <ele>120</ele>
        <time>2021-03-07T10:55:41.982Z</time>
      </trkpt>
      <trkpt lat="48.54135" lon="2.07938">
        <ele>119</ele>
        <time>2021-03-07T10:55:42.982Z</time>
      </trkpt>
      <trkpt lat="48.54136" lon="2.07938">
        <ele>118</ele>
        <time>2021-03-07T10:55:43.982Z</time>
      </trkpt>
      <trkpt lat="48.54137" lon="2.07936">
        <ele>118</ele>
        <time>2021-03-07T10:55:44.982Z</time>
      </trkpt>
      <trkpt lat="48.54138" lon="2.07936">
        <ele>117</ele>
        <time>2021-03-07T10:55:45.982Z</time>
      </trkpt>
      <trkpt lat="48.5414" lon="2.07936">
        <ele>117</ele>
        <time>2021-03-07T10:55:46.982Z</time>
      </trkpt>
      <trkpt lat="48.54141" lon="2.07936">
        <ele>117</ele>
        <time>2021-03-07T10:55:47.982Z</time>
      </trkpt>
      <trkpt lat="48.54142" lon="2.07937">
        <ele>117</ele>
        <time>2021-03-07T10:55:48.981Z</time>
      </trkpt>
      <trkpt lat="48.54143" lon="2.07937">
        <ele>117</ele>
        <time>2021-03-07T10:55:49.982Z</time>
      </trkpt>
      <trkpt lat="48.54144" lon="2.07937">
        <ele>117</ele>
        <time>2021-03-07T10:55:50.981Z</time>
      </trkpt>
      <trkpt lat="48.54144" lon="2.07938">
        <ele>117</ele>
        <time>2021-03-07T10:55:51.982Z</time>
      </trkpt>
      <trkpt lat="48.54145" lon="2.07938">
        <ele>117</ele>
        <time>2021-03-07T10:55:52.982Z</time>
      </trkpt>
      <trkpt lat="48.54145" lon="2.07937">
        <ele>117</ele>
        <time>2021-03-07T10:55:53.981Z</time>
      </trkpt>
      <trkpt lat="48.54146" lon="2.07937">
        <ele>117</ele>
        <time>2021-03-07T10:55:54.981Z</time>
      </trkpt>
      <trkpt lat="48.54146" lon="2.07936">
        <ele>118</ele>
        <time>2021-03-07T10:55:55.981Z</time>
      </trkpt>
      <trkpt lat="48.54147" lon="2.07936">
        <ele>118</ele>
        <time>2021-03-07T10:55:56.982Z</time>
      </trkpt>
      <trkpt lat="48.54147" lon="2.07935">
        <ele>118</ele>
        <time>2021-03-07T10:55:57.982Z</time>
      </trkpt>
      <trkpt lat="48.54148" lon="2.07935">
        <ele>119</ele>
        <time>2021-03-07T10:55:58.981Z</time>
      </trkpt>
      <trkpt lat="48.54148" lon="2.07936">
        <ele>119</ele>
        <time>2021-03-07T10:55:59.981Z</time>
      </trkpt>
      <trkpt lat="48.54149" lon="2.07936">
        <ele>120</ele>
        <time>2021-03-07T10:56:00.982Z</time>
      </trkpt>
      <trkpt lat="48.54151" lon="2.07936">
        <ele>120</ele>
        <time>2021-03-07T10:56:01.982Z</time>
      </trkpt>
      <trkpt lat="48.54152" lon="2.07936">
        <ele>121</ele>
        <time>2021-03-07T10:56:02.982Z</time>
      </trkpt>
      <trkpt lat="48.54153" lon="2.07935">
        <ele>120</ele>
        <time>2021-03-07T10:56:03.982Z</time>
      </trkpt>
      <trkpt lat="48.54153" lon="2.07935">
        <ele>120</ele>
        <time>2021-03-07T10:56:04.982Z</time>
      </trkpt>
      <trkpt lat="48.54153" lon="2.07934">
        <ele>119</ele>
        <time>2021-03-07T10:56:05.982Z</time>
      </trkpt>
      <trkpt lat="48.54154" lon="2.07933">
        <ele>118</ele>
        <time>2021-03-07T10:56:06.982Z</time>
      </trkpt>
      <trkpt lat="48.54154" lon="2.07933">
        <ele>118</ele>
        <time>2021-03-07T10:56:07.981Z</time>
      </trkpt>
      <trkpt lat="48.54155" lon="2.07933">
        <ele>117</ele>
        <time>2021-03-07T10:56:08.982Z</time>
      </trkpt>
      <trkpt lat="48.54156" lon="2.07932">
        <ele>116</ele>
        <time>2021-03-07T10:56:09.981Z</time>
      </trkpt>
      <trkpt lat="48.54157" lon="2.07931">
        <ele>116</ele>
        <time>2021-03-07T10:56:10.981Z</time>
      </trkpt>
      <trkpt lat="48.54157" lon="2.0793">
        <ele>115</ele>
        <time>2021-03-07T10:56:11.982Z</time>
      </trkpt>
      <trkpt lat="48.54158" lon="2.07929">
        <ele>115</ele>
        <time>2021-03-07T10:56:12.982Z</time>
      </trkpt>
      <trkpt lat="48.54159" lon="2.07929">
        <ele>114</ele>
        <time>2021-03-07T10:56:13.982Z</time>
      </trkpt>
      <trkpt lat="48.54159" lon="2.07929">
        <ele>113</ele>
        <time>2021-03-07T10:56:14.982Z</time>
      </trkpt>
      <trkpt lat="48.54159" lon="2.07929">
        <ele>113</ele>
        <time>2021-03-07T10:56:15.982Z</time>
      </trkpt>
      <trkpt lat="48.54159" lon="2.07929">
        <ele>112</ele>
        <time>2021-03-07T10:56:16.982Z</time>
      </trkpt>
      <trkpt lat="48.54159" lon="2.07929">
        <ele>112</ele>
        <time>2021-03-07T10:56:17.982Z</time>
      </trkpt>
      <trkpt lat="48.54159" lon="2.07928">
        <ele>111</ele>
        <time>2021-03-07T10:56:18.982Z</time>
      </trkpt>
      <trkpt lat="48.5416" lon="2.07926">
        <ele>111</ele>
        <time>2021-03-07T10:56:19.981Z</time>
      </trkpt>
      <trkpt lat="48.54161" lon="2.07926">
        <ele>110</ele>
        <time>2021-03-07T10:56:20.981Z</time>
      </trkpt>
      <trkpt lat="48.54162" lon="2.07926">
        <ele>110</ele>
        <time>2021-03-07T10:56:21.982Z</time>
      </trkpt>
      <trkpt lat="48.54162" lon="2.07925">
        <ele>110</ele>
        <time>2021-03-07T10:56:22.981Z</time>
      </trkpt>
      <trkpt lat="48.54163" lon="2.07925">
        <ele>110</ele>
        <time>2021-03-07T10:56:23.982Z</time>
      </trkpt>
      <trkpt lat="48.54163" lon="2.07925">
        <ele>111</ele>
        <time>2021-03-07T10:56:24.982Z</time>
      </trkpt>
      <trkpt lat="48.54161" lon="2.07924">
        <ele>111</ele>
        <time>2021-03-07T10:56:25.981Z</time>
      </trkpt>
      <trkpt lat="48.5416" lon="2.07924">
        <ele>112</ele>
        <time>2021-03-07T10:56:26.982Z</time>
      </trkpt>
      <trkpt lat="48.54159" lon="2.07923">
        <ele>112</ele>
        <time>2021-03-07T10:56:27.981Z</time>
      </trkpt>
      <trkpt lat="48.54159" lon="2.07922">
        <ele>113</ele>
        <time>2021-03-07T10:56:28.982Z</time>
      </trkpt>
      <trkpt lat="48.54159" lon="2.07922">
        <ele>114</ele>
        <time>2021-03-07T10:56:29.982Z</time>
      </trkpt>
      <trkpt lat="48.54159" lon="2.07921">
        <ele>115</ele>
        <time>2021-03-07T10:56:30.981Z</time>
      </trkpt>
      <trkpt lat="48.54159" lon="2.07921">
        <ele>116</ele>
        <time>2021-03-07T10:56:31.982Z</time>
      </trkpt>
      <trkpt lat="48.54158" lon="2.07921">
        <ele>116</ele>
        <time>2021-03-07T10:56:32.981Z</time>
      </trkpt>
      <trkpt lat="48.54157" lon="2.0792">
        <ele>117</ele>
        <time>2021-03-07T10:56:33.982Z</time>
      </trkpt>
      <trkpt lat="48.54156" lon="2.07919">
        <ele>117</ele>
        <time>2021-03-07T10:56:34.982Z</time>
      </trkpt>
      <trkpt lat="48.54156" lon="2.07918">
        <ele>118</ele>
        <time>2021-03-07T10:56:35.982Z</time>
      </trkpt>
      <trkpt lat="48.54155" lon="2.07917">
        <ele>118</ele>
        <time>2021-03-07T10:56:36.981Z</time>
      </trkpt>
      <trkpt lat="48.54155" lon="2.07916">
        <ele>118</ele>
        <time>2021-03-07T10:56:37.981Z</time>
      </trkpt>
      <trkpt lat="48.54155" lon="2.07916">
        <ele>119</ele>
        <time>2021-03-07T10:56:38.982Z</time>
      </trkpt>
      <trkpt lat="48.54154" lon="2.07915">
        <ele>120</ele>
        <time>2021-03-07T10:56:39.982Z</time>
      </trkpt>
      <trkpt lat="48.54154" lon="2.07915">
        <ele>120</ele>
        <time>2021-03-07T10:56:40.981Z</time>
      </trkpt>
      <trkpt lat="48.54154" lon="2.07914">
        <ele>121</ele>
        <time>2021-03-07T10:56:41.981Z</time>
      </trkpt>
      <trkpt lat="48.54154" lon="2.07913">
        <ele>121</ele>
        <time>2021-03-07T10:56:42.981Z</time>
      </trkpt>
      <trkpt lat="48.54154" lon="2.07912">
        <ele>121</ele>
        <time>2021-03-07T10:56:43.982Z</time>
      </trkpt>
      <trkpt lat="48.54153" lon="2.07912">
        <ele>122</ele>
        <time>2021-03-07T10:56:44.982Z</time>
      </trkpt>
      <trkpt lat="48.54152" lon="2.07913">
        <ele>122</ele>
        <time>2021-03-07T10:56:45.981Z</time>
      </trkpt>
      <trkpt lat="48.54151" lon="2.07915">
        <ele>122</ele>
        <time>2021-03-07T10:56:46.981Z</time>
      </trkpt>
      <trkpt lat="48.54151" lon="2.07915">
        <ele>122</ele>
        <time>2021-03-07T10:56:47.982Z</time>
      </trkpt>
      <trkpt lat="48.5415" lon="2.07917">
        <ele>123</ele>
        <time>2021-03-07T10:56:48.982Z</time>
      </trkpt>
      <trkpt lat="48.5415" lon="2.07918">
        <ele>123</ele>
        <time>2021-03-07T10:56:49.982Z</time>
      </trkpt>
      <trkpt lat="48.5415" lon="2.07919">
        <ele>123</ele>
        <time>2021-03-07T10:56:50.982Z</time>
      </trkpt>
      <trkpt lat="48.5415" lon="2.07919">
        <ele>123</ele>
        <time>2021-03-07T10:56:51.982Z</time>
      </trkpt>
      <trkpt lat="48.5415" lon="2.07918">
        <ele>123</ele>
        <time>2021-03-07T10:56:52.982Z</time>
      </trkpt>
      <trkpt lat="48.5415" lon="2.07918">
        <ele>123</ele>
        <time>2021-03-07T10:56:53.982Z</time>
      </trkpt>
      <trkpt lat="48.5415" lon="2.07918">
        <ele>123</ele>
        <time>2021-03-07T10:56:54.982Z</time>
      </trkpt>
      <trkpt lat="48.54149" lon="2.07918">
        <ele>123</ele>
        <time>2021-03-07T10:56:55.982Z</time>
      </trkpt>
      <trkpt lat="48.54148" lon="2.07918">
        <ele>123</ele>
        <time>2021-03-07T10:56:56.981Z</time>
      </trkpt>
      <trkpt lat="48.54148" lon="2.07918">
        <ele>123</ele>
        <time>2021-03-07T10:56:57.982Z</time>
      </trkpt>
      <trkpt lat="48.54147" lon="2.07918">
        <ele>123</ele>
        <time>2021-03-07T10:56:58.982Z</time>
      </trkpt>
      <trkpt lat="48.54146" lon="2.07919">
        <ele>123</ele>
        <time>2021-03-07T10:56:59.982Z</time>
      </trkpt>
      <trkpt lat="48.54145" lon="2.07919">
        <ele>124</ele>
        <time>2021-03-07T10:57:00.982Z</time>
      </trkpt>
      <trkpt lat="48.54144" lon="2.07919">
        <ele>124</ele>
        <time>2021-03-07T10:57:01.982Z</time>
      </trkpt>
      <trkpt lat="48.54143" lon="2.07919">
        <ele>124</ele>
        <time>2021-03-07T10:57:02.982Z</time>
      </trkpt>
      <trkpt lat="48.54143" lon="2.07918">
        <ele>124</ele>
        <time>2021-03-07T10:57:03.981Z</time>
      </trkpt>
      <trkpt lat="48.54143" lon="2.07917">
        <ele>124</ele>
        <time>2021-03-07T10:57:04.981Z</time>
      </trkpt>
      <trkpt lat="48.54143" lon="2.07916">
        <ele>125</ele>
        <time>2021-03-07T10:57:05.981Z</time>
      </trkpt>
      <trkpt lat="48.54142" lon="2.07916">
        <ele>125</ele>
        <time>2021-03-07T10:57:06.982Z</time>
      </trkpt>
      <trkpt lat="48.54142" lon="2.07916">
        <ele>124</ele>
        <time>2021-03-07T10:57:07.982Z</time>
      </trkpt>
      <trkpt lat="48.54142" lon="2.07915">
        <ele>124</ele>
        <time>2021-03-07T10:57:08.981Z</time>
      </trkpt>
      <trkpt lat="48.54142" lon="2.07915">
        <ele>123</ele>
        <time>2021-03-07T10:57:09.982Z</time>
      </trkpt>
      <trkpt lat="48.54142" lon="2.07915">
        <ele>123</ele>
        <time>2021-03-07T10:57:10.982Z</time>
      </trkpt>
      <trkpt lat="48.54142" lon="2.07915">
        <ele>122</ele>
        <time>2021-03-07T10:57:11.982Z</time>
      </trkpt>
      <trkpt lat="48.54142" lon="2.07915">
        <ele>121</ele>
        <time>2021-03-07T10:57:12.982Z</time>
      </trkpt>
      <trkpt lat="48.54142" lon="2.07915">
        <ele>120</ele>
        <time>2021-03-07T10:57:13.982Z</time>
      </trkpt>
      <trkpt lat="48.54143" lon="2.07914">
        <ele>120</ele>
        <time>2021-03-07T10:57:14.981Z</time>
      </trkpt>
      <trkpt lat="48.54143" lon="2.07914">
        <ele>119</ele>
        <time>2021-03-07T10:57:15.982Z</time>
      </trkpt>
      <trkpt lat="48.54143" lon="2.07914">
        <ele>119</ele>
        <time>2021-03-07T10:57:16.982Z</time>
      </trkpt>
      <trkpt lat="48.54144" lon="2.07915">
        <ele>118</ele>
        <time>2021-03-07T10:57:17.981Z</time>
      </trkpt>
      <trkpt lat="48.54145" lon="2.07915">
        <ele>118</ele>
        <time>2021-03-07T10:57:18.982Z</time>
      </trkpt>
      <trkpt lat="48.54145" lon="2.07916">
        <ele>118</ele>
        <time>2021-03-07T10:57:19.982Z</time>
      </trkpt>
      <trkpt lat="48.54145" lon="2.07916">
        <ele>118</ele>
        <time>2021-03-07T10:57:20.982Z</time>
      </trkpt>
      <trkpt lat="48.54144" lon="2.07914">
        <ele>118</ele>
        <time>2021-03-07T10:57:21.982Z</time>
      </trkpt>
      <trkpt lat="48.54143" lon="2.07914">
        <ele>118</ele>
        <time>2021-03-07T10:57:22.982Z</time>
      </trkpt>
      <trkpt lat="48.54143" lon="2.07913">
        <ele>118</ele>
        <time>2021-03-07T10:57:23.981Z</time>
      </trkpt>
      <trkpt lat="48.54143" lon="2.07912">
        <ele>118</ele>
        <time>2021-03-07T10:57:24.982Z</time>
      </trkpt>
      <trkpt lat="48.54143" lon="2.07911">
        <ele>118</ele>
        <time>2021-03-07T10:57:25.982Z</time>
      </trkpt>
      <trkpt lat="48.54142" lon="2.07911">
        <ele>118</ele>
        <time>2021-03-07T10:57:26.982Z</time>
      </trkpt>
      <trkpt lat="48.54142" lon="2.07909">
        <ele>118</ele>
        <time>2021-03-07T10:57:27.982Z</time>
      </trkpt>
      <trkpt lat="48.54142" lon="2.07908">
        <ele>118</ele>
        <time>2021-03-07T10:57:28.982Z</time>
      </trkpt>
      <trkpt lat="48.54141" lon="2.07907">
        <ele>118</ele>
        <time>2021-03-07T10:57:29.981Z</time>
      </trkpt>
      <trkpt lat="48.54141" lon="2.07906">
        <ele>117</ele>
        <time>2021-03-07T10:57:30.982Z</time>
      </trkpt>
      <trkpt lat="48.5414" lon="2.07904">
        <ele>117</ele>
        <time>2021-03-07T10:57:31.982Z</time>
      </trkpt>
      <trkpt lat="48.54139" lon="2.07904">
        <ele>117</ele>
        <time>2021-03-07T10:57:32.981Z</time>
      </trkpt>
      <trkpt lat="48.54139" lon="2.07903">
        <ele>117</ele>
        <time>2021-03-07T10:57:33.982Z</time>
      </trkpt>
      <trkpt lat="48.54138" lon="2.07903">
        <ele>117</ele>
        <time>2021-03-07T10:57:34.982Z</time>
      </trkpt>
      <trkpt lat="48.54138" lon="2.07905">
        <ele>117</ele>
        <time>2021-03-07T10:57:35.982Z</time>
      </trkpt>
      <trkpt lat="48.54139" lon="2.07906">
        <ele>116</ele>
        <time>2021-03-07T10:57:36.982Z</time>
      </trkpt>
      <trkpt lat="48.54139" lon="2.07907">
        <ele>116</ele>
        <time>2021-03-07T10:57:37.981Z</time>
      </trkpt>
      <trkpt lat="48.54139" lon="2.07907">
        <ele>117</ele>
        <time>2021-03-07T10:57:38.981Z</time>
      </trkpt>
      <trkpt lat="48.54139" lon="2.07907">
        <ele>117</ele>
        <time>2021-03-07T10:57:39.981Z</time>
      </trkpt>
      <trkpt lat="48.54138" lon="2.07907">
        <ele>117</ele>
        <time>2021-03-07T10:57:40.981Z</time>
      </trkpt>
      <trkpt lat="48.54137" lon="2.07908">
        <ele>118</ele>
        <time>2021-03-07T10:57:41.981Z</time>
      </trkpt>
      <trkpt lat="48.54137" lon="2.07909">
        <ele>118</ele>
        <time>2021-03-07T10:57:42.982Z</time>
      </trkpt>
      <trkpt lat="48.54136" lon="2.07909">
        <ele>119</ele>
        <time>2021-03-07T10:57:43.982Z</time>
      </trkpt>
      <trkpt lat="48.54135" lon="2.0791">
        <ele>119</ele>
        <time>2021-03-07T10:57:44.981Z</time>
      </trkpt>
      <trkpt lat="48.54134" lon="2.07911">
        <ele>119</ele>
        <time>2021-03-07T10:57:45.981Z</time>
      </trkpt>
      <trkpt lat="48.54133" lon="2.07912">
        <ele>119</ele>
        <time>2021-03-07T10:57:46.982Z</time>
      </trkpt>
      <trkpt lat="48.54131" lon="2.07912">
        <ele>119</ele>
        <time>2021-03-07T10:57:47.982Z</time>
      </trkpt>
      <trkpt lat="48.5413" lon="2.07912">
        <ele>118</ele>
        <time>2021-03-07T10:57:48.981Z</time>
      </trkpt>
      <trkpt lat="48.54129" lon="2.07913">
        <ele>118</ele>
        <time>2021-03-07T10:57:49.981Z</time>
      </trkpt>
      <trkpt lat="48.54128" lon="2.07913">
        <ele>118</ele>
        <time>2021-03-07T10:57:50.982Z</time>
      </trkpt>
      <trkpt lat="48.54127" lon="2.07913">
        <ele>118</ele>
        <time>2021-03-07T10:57:51.982Z</time>
      </trkpt>
      <trkpt lat="48.54126" lon="2.07913">
        <ele>118</ele>
        <time>2021-03-07T10:57:52.982Z</time>
      </trkpt>
      <trkpt lat="48.54125" lon="2.07913">
        <ele>118</ele>
        <time>2021-03-07T10:57:53.982Z</time>
      </trkpt>
      <trkpt lat="48.54125" lon="2.07913">
        <ele>118</ele>
        <time>2021-03-07T10:57:54.982Z</time>
      </trkpt>
      <trkpt lat="48.54125" lon="2.07912">
        <ele>118</ele>
        <time>2021-03-07T10:57:55.981Z</time>
      </trkpt>
      <trkpt lat="48.54125" lon="2.07913">
        <ele>119</ele>
        <time>2021-03-07T10:57:56.982Z</time>
      </trkpt>
      <trkpt lat="48.54124" lon="2.07914">
        <ele>119</ele>
        <time>2021-03-07T10:57:57.982Z</time>
      </trkpt>
      <trkpt lat="48.54122" lon="2.07917">
        <ele>119</ele>
        <time>2021-03-07T10:57:58.981Z</time>
      </trkpt>
      <trkpt lat="48.54122" lon="2.07916">
        <ele>118</ele>
        <time>2021-03-07T10:57:59.982Z</time>
      </trkpt>
      <trkpt lat="48.54123" lon="2.07915">
        <ele>118</ele>
        <time>2021-03-07T10:58:00.981Z</time>
      </trkpt>
      <trkpt lat="48.54123" lon="2.07914">
        <ele>118</ele>
        <time>2021-03-07T10:58:01.982Z</time>
      </trkpt>
      <trkpt lat="48.54123" lon="2.07914">
        <ele>118</ele>
        <time>2021-03-07T10:58:02.982Z</time>
      </trkpt>
      <trkpt lat="48.54122" lon="2.07912">
        <ele>117</ele>
        <time>2021-03-07T10:58:03.982Z</time>
      </trkpt>
      <trkpt lat="48.54122" lon="2.07911">
        <ele>117</ele>
        <time>2021-03-07T10:58:04.982Z</time>
      </trkpt>
      <trkpt lat="48.54121" lon="2.0791">
        <ele>117</ele>
        <time>2021-03-07T10:58:05.982Z</time>
      </trkpt>
      <trkpt lat="48.5412" lon="2.07908">
        <ele>117</ele>
        <time>2021-03-07T10:58:06.981Z</time>
      </trkpt>
      <trkpt lat="48.5412" lon="2.07908">
        <ele>116</ele>
        <time>2021-03-07T10:58:07.981Z</time>
      </trkpt>
      <trkpt lat="48.5412" lon="2.07908">
        <ele>116</ele>
        <time>2021-03-07T10:58:08.982Z</time>
      </trkpt>
      <trkpt lat="48.5412" lon="2.07908">
        <ele>116</ele>
        <time>2021-03-07T10:58:09.982Z</time>
      </trkpt>
      <trkpt lat="48.5412" lon="2.07908">
        <ele>116</ele>
        <time>2021-03-07T10:58:10.982Z</time>
      </trkpt>
      <trkpt lat="48.5412" lon="2.07908">
        <ele>116</ele>
        <time>2021-03-07T10:58:11.982Z</time>
      </trkpt>
      <trkpt lat="48.5412" lon="2.07908">
        <ele>116</ele>
        <time>2021-03-07T10:58:12.981Z</time>
      </trkpt>
      <trkpt lat="48.5412" lon="2.07908">
        <ele>116</ele>
        <time>2021-03-07T10:58:13.982Z</time>
      </trkpt>
      <trkpt lat="48.5412" lon="2.07908">
        <ele>116</ele>
        <time>2021-03-07T10:58:14.982Z</time>
      </trkpt>
      <trkpt lat="48.5412" lon="2.07908">
        <ele>116</ele>
        <time>2021-03-07T10:58:15.982Z</time>
      </trkpt>
      <trkpt lat="48.5412" lon="2.07908">
        <ele>115</ele>
        <time>2021-03-07T10:58:16.982Z</time>
      </trkpt>
      <trkpt lat="48.5412" lon="2.07908">
        <ele>115</ele>
        <time>2021-03-07T10:58:17.982Z</time>
      </trkpt>
      <trkpt lat="48.5412" lon="2.07908">
        <ele>115</ele>
        <time>2021-03-07T10:58:18.982Z</time>
      </trkpt>
      <trkpt lat="48.5412" lon="2.07908">
        <ele>115</ele>
        <time>2021-03-07T10:58:19.982Z</time>
      </trkpt>
      <trkpt lat="48.5412" lon="2.07908">
        <ele>115</ele>
        <time>2021-03-07T10:58:20.982Z</time>
      </trkpt>
      <trkpt lat="48.5412" lon="2.07908">
        <ele>115</ele>
        <time>2021-03-07T10:58:21.982Z</time>
      </trkpt>
      <trkpt lat="48.5412" lon="2.07908">
        <ele>115</ele>
        <time>2021-03-07T10:58:22.982Z</time>
      </trkpt>
      <trkpt lat="48.5412" lon="2.07908">
        <ele>115</ele>
        <time>2021-03-07T10:58:23.981Z</time>
      </trkpt>
      <trkpt lat="48.5412" lon="2.07908">
        <ele>115</ele>
        <time>2021-03-07T10:58:24.982Z</time>
      </trkpt>
      <trkpt lat="48.5412" lon="2.07908">
        <ele>115</ele>
        <time>2021-03-07T10:58:25.982Z</time>
      </trkpt>
      <trkpt lat="48.54121" lon="2.07907">
        <ele>114</ele>
        <time>2021-03-07T10:58:26.982Z</time>
      </trkpt>
      <trkpt lat="48.54121" lon="2.07907">
        <ele>114</ele>
        <time>2021-03-07T10:58:27.981Z</time>
      </trkpt>
      <trkpt lat="48.54121" lon="2.07907">
        <ele>114</ele>
        <time>2021-03-07T10:58:28.982Z</time>
      </trkpt>
      <trkpt lat="48.54121" lon="2.07906">
        <ele>114</ele>
        <time>2021-03-07T10:58:29.982Z</time>
      </trkpt>
      <trkpt lat="48.54121" lon="2.07906">
        <ele>114</ele>
        <time>2021-03-07T10:58:30.982Z</time>
      </trkpt>
      <trkpt lat="48.54121" lon="2.07906">
        <ele>114</ele>
        <time>2021-03-07T10:58:31.982Z</time>
      </trkpt>
      <trkpt lat="48.54121" lon="2.07906">
        <ele>114</ele>
        <time>2021-03-07T10:58:32.981Z</time>
      </trkpt>
      <trkpt lat="48.54121" lon="2.07906">
        <ele>114</ele>
        <time>2021-03-07T10:58:33.981Z</time>
      </trkpt>
      <trkpt lat="48.54121" lon="2.07906">
        <ele>114</ele>
        <time>2021-03-07T10:58:34.982Z</time>
      </trkpt>
      <trkpt lat="48.54121" lon="2.07905">
        <ele>114</ele>
        <time>2021-03-07T10:58:35.982Z</time>
      </trkpt>
      <trkpt lat="48.54121" lon="2.07905">
        <ele>114</ele>
        <time>2021-03-07T10:58:36.982Z</time>
      </trkpt>
      <trkpt lat="48.54121" lon="2.07904">
        <ele>114</ele>
        <time>2021-03-07T10:58:37.982Z</time>
      </trkpt>
      <trkpt lat="48.54121" lon="2.07903">
        <ele>114</ele>
        <time>2021-03-07T10:58:38.982Z</time>
      </trkpt>
      <trkpt lat="48.54121" lon="2.07902">
        <ele>114</ele>
        <time>2021-03-07T10:58:39.981Z</time>
      </trkpt>
      <trkpt lat="48.54121" lon="2.07902">
        <ele>114</ele>
        <time>2021-03-07T10:58:40.982Z</time>
      </trkpt>
      <trkpt lat="48.54121" lon="2.07902">
        <ele>114</ele>
        <time>2021-03-07T10:58:41.982Z</time>
      </trkpt>
      <trkpt lat="48.54122" lon="2.07901">
        <ele>114</ele>
        <time>2021-03-07T10:58:42.981Z</time>
      </trkpt>
      <trkpt lat="48.54122" lon="2.07901">
        <ele>114</ele>
        <time>2021-03-07T10:58:43.982Z</time>
      </trkpt>
      <trkpt lat="48.54123" lon="2.07901">
        <ele>114</ele>
        <time>2021-03-07T10:58:44.982Z</time>
      </trkpt>
      <trkpt lat="48.54123" lon="2.07901">
        <ele>114</ele>
        <time>2021-03-07T10:58:45.982Z</time>
      </trkpt>
      <trkpt lat="48.54124" lon="2.07901">
        <ele>114</ele>
        <time>2021-03-07T10:58:46.982Z</time>
      </trkpt>
      <trkpt lat="48.54124" lon="2.07901">
        <ele>114</ele>
        <time>2021-03-07T10:58:47.982Z</time>
      </trkpt>
      <trkpt lat="48.54124" lon="2.07901">
        <ele>114</ele>
        <time>2021-03-07T10:58:48.982Z</time>
      </trkpt>
      <trkpt lat="48.54124" lon="2.07901">
        <ele>114</ele>
        <time>2021-03-07T10:58:49.982Z</time>
      </trkpt>
      <trkpt lat="48.54124" lon="2.07901">
        <ele>114</ele>
        <time>2021-03-07T10:58:50.982Z</time>
      </trkpt>
      <trkpt lat="48.54124" lon="2.07901">
        <ele>114</ele>
        <time>2021-03-07T10:58:51.982Z</time>
      </trkpt>
      <trkpt lat="48.54124" lon="2.07901">
        <ele>114</ele>
        <time>2021-03-07T10:58:52.982Z</time>
      </trkpt>
      <trkpt lat="48.54124" lon="2.07901">
        <ele>114</ele>
        <time>2021-03-07T10:58:53.982Z</time>
      </trkpt>
      <trkpt lat="48.54124" lon="2.07901">
        <ele>114</ele>
        <time>2021-03-07T10:58:54.981Z</time>
      </trkpt>
      <trkpt lat="48.54124" lon="2.07901">
        <ele>114</ele>
        <time>2021-03-07T10:58:55.981Z</time>
      </trkpt>
      <trkpt lat="48.54124" lon="2.07901">
        <ele>114</ele>
        <time>2021-03-07T10:58:56.982Z</time>
      </trkpt>
      <trkpt lat="48.54124" lon="2.07901">
        <ele>114</ele>
        <time>2021-03-07T10:58:57.982Z</time>
      </trkpt>
      <trkpt lat="48.54124" lon="2.07903">
        <ele>114</ele>
        <time>2021-03-07T10:58:58.982Z</time>
      </trkpt>
      <trkpt lat="48.54125" lon="2.07903">
        <ele>114</ele>
        <time>2021-03-07T10:58:59.981Z</time>
      </trkpt>
      <trkpt lat="48.54125" lon="2.07903">
        <ele>114</ele>
        <time>2021-03-07T10:59:00.981Z</time>
      </trkpt>
      <trkpt lat="48.54126" lon="2.07903">
        <ele>114</ele>
        <time>2021-03-07T10:59:01.982Z</time>
      </trkpt>
      <trkpt lat="48.54125" lon="2.07904">
        <ele>114</ele>
        <time>2021-03-07T10:59:02.982Z</time>
      </trkpt>
      <trkpt lat="48.54125" lon="2.07904">
        <ele>114</ele>
        <time>2021-03-07T10:59:03.982Z</time>
      </trkpt>
      <trkpt lat="48.54125" lon="2.07904">
        <ele>114</ele>
        <time>2021-03-07T10:59:04.982Z</time>
      </trkpt>
      <trkpt lat="48.54124" lon="2.07905">
        <ele>114</ele>
        <time>2021-03-07T10:59:05.982Z</time>
      </trkpt>
      <trkpt lat="48.54124" lon="2.07906">
        <ele>114</ele>
        <time>2021-03-07T10:59:06.982Z</time>
      </trkpt>
      <trkpt lat="48.54124" lon="2.07905">
        <ele>114</ele>
        <time>2021-03-07T10:59:07.982Z</time>
      </trkpt>
      <trkpt lat="48.54125" lon="2.07905">
        <ele>114</ele>
        <time>2021-03-07T10:59:08.981Z</time>
      </trkpt>
      <trkpt lat="48.54125" lon="2.07904">
        <ele>114</ele>
        <time>2021-03-07T10:59:09.981Z</time>
      </trkpt>
      <trkpt lat="48.54125" lon="2.07903">
        <ele>115</ele>
        <time>2021-03-07T10:59:10.982Z</time>
      </trkpt>
      <trkpt lat="48.54125" lon="2.07903">
        <ele>115</ele>
        <time>2021-03-07T10:59:11.982Z</time>
      </trkpt>
      <trkpt lat="48.54125" lon="2.07903">
        <ele>115</ele>
        <time>2021-03-07T10:59:12.982Z</time>
      </trkpt>
      <trkpt lat="48.54125" lon="2.07903">
        <ele>115</ele>
        <time>2021-03-07T10:59:13.982Z</time>
      </trkpt>
      <trkpt lat="48.54125" lon="2.07903">
        <ele>115</ele>
        <time>2021-03-07T10:59:14.982Z</time>
      </trkpt>
      <trkpt lat="48.54125" lon="2.07903">
        <ele>114</ele>
        <time>2021-03-07T10:59:15.982Z</time>
      </trkpt>
      <trkpt lat="48.54125" lon="2.07903">
        <ele>113</ele>
        <time>2021-03-07T10:59:16.982Z</time>
      </trkpt>
      <trkpt lat="48.54125" lon="2.07903">
        <ele>113</ele>
        <time>2021-03-07T10:59:17.982Z</time>
      </trkpt>
      <trkpt lat="48.54125" lon="2.07903">
        <ele>113</ele>
        <time>2021-03-07T10:59:18.982Z</time>
      </trkpt>
      <trkpt lat="48.54125" lon="2.07903">
        <ele>113</ele>
        <time>2021-03-07T10:59:19.982Z</time>
      </trkpt>
      <trkpt lat="48.54125" lon="2.07903">
        <ele>112</ele>
        <time>2021-03-07T10:59:20.982Z</time>
      </trkpt>
      <trkpt lat="48.54125" lon="2.07903">
        <ele>112</ele>
        <time>2021-03-07T10:59:21.982Z</time>
      </trkpt>
      <trkpt lat="48.54125" lon="2.07903">
        <ele>112</ele>
        <time>2021-03-07T10:59:22.982Z</time>
      </trkpt>
      <trkpt lat="48.54125" lon="2.07903">
        <ele>112</ele>
        <time>2021-03-07T10:59:23.982Z</time>
      </trkpt>
      <trkpt lat="48.54125" lon="2.07903">
        <ele>112</ele>
        <time>2021-03-07T10:59:24.981Z</time>
      </trkpt>
      <trkpt lat="48.54125" lon="2.07903">
        <ele>112</ele>
        <time>2021-03-07T10:59:25.982Z</time>
      </trkpt>
      <trkpt lat="48.54125" lon="2.07903">
        <ele>112</ele>
        <time>2021-03-07T10:59:26.982Z</time>
      </trkpt>
      <trkpt lat="48.54125" lon="2.07903">
        <ele>112</ele>
        <time>2021-03-07T10:59:27.982Z</time>
      </trkpt>
      <trkpt lat="48.54125" lon="2.07903">
        <ele>112</ele>
        <time>2021-03-07T10:59:28.982Z</time>
      </trkpt>
      <trkpt lat="48.54125" lon="2.07903">
        <ele>111</ele>
        <time>2021-03-07T10:59:29.982Z</time>
      </trkpt>
      <trkpt lat="48.54125" lon="2.07903">
        <ele>111</ele>
        <time>2021-03-07T10:59:30.981Z</time>
      </trkpt>
      <trkpt lat="48.54125" lon="2.07903">
        <ele>111</ele>
        <time>2021-03-07T10:59:31.981Z</time>
      </trkpt>
      <trkpt lat="48.54125" lon="2.07903">
        <ele>111</ele>
        <time>2021-03-07T10:59:32.981Z</time>
      </trkpt>
      <trkpt lat="48.54126" lon="2.07903">
        <ele>111</ele>
        <time>2021-03-07T10:59:33.982Z</time>
      </trkpt>
      <trkpt lat="48.54126" lon="2.07903">
        <ele>111</ele>
        <time>2021-03-07T10:59:34.981Z</time>
      </trkpt>
      <trkpt lat="48.54126" lon="2.07903">
        <ele>111</ele>
        <time>2021-03-07T10:59:35.982Z</time>
      </trkpt>
      <trkpt lat="48.54127" lon="2.07903">
        <ele>111</ele>
        <time>2021-03-07T10:59:36.982Z</time>
      </trkpt>
      <trkpt lat="48.54127" lon="2.07903">
        <ele>111</ele>
        <time>2021-03-07T10:59:37.982Z</time>
      </trkpt>
      <trkpt lat="48.54127" lon="2.07902">
        <ele>111</ele>
        <time>2021-03-07T10:59:38.982Z</time>
      </trkpt>
      <trkpt lat="48.54127" lon="2.07902">
        <ele>111</ele>
        <time>2021-03-07T10:59:39.982Z</time>
      </trkpt>
      <trkpt lat="48.54127" lon="2.07902">
        <ele>111</ele>
        <time>2021-03-07T10:59:40.982Z</time>
      </trkpt>
      <trkpt lat="48.54128" lon="2.07902">
        <ele>111</ele>
        <time>2021-03-07T10:59:41.982Z</time>
      </trkpt>
      <trkpt lat="48.54128" lon="2.07901">
        <ele>111</ele>
        <time>2021-03-07T10:59:42.982Z</time>
      </trkpt>
      <trkpt lat="48.54128" lon="2.07901">
        <ele>111</ele>
        <time>2021-03-07T10:59:43.982Z</time>
      </trkpt>
      <trkpt lat="48.54128" lon="2.07901">
        <ele>111</ele>
        <time>2021-03-07T10:59:44.982Z</time>
      </trkpt>
      <trkpt lat="48.54128" lon="2.07901">
        <ele>111</ele>
        <time>2021-03-07T10:59:45.982Z</time>
      </trkpt>
      <trkpt lat="48.54128" lon="2.07901">
        <ele>111</ele>
        <time>2021-03-07T10:59:46.982Z</time>
      </trkpt>
      <trkpt lat="48.54128" lon="2.07901">
        <ele>111</ele>
        <time>2021-03-07T10:59:47.982Z</time>
      </trkpt>
      <trkpt lat="48.54128" lon="2.07901">
        <ele>111</ele>
        <time>2021-03-07T10:59:48.982Z</time>
      </trkpt>
      <trkpt lat="48.54128" lon="2.07901">
        <ele>111</ele>
        <time>2021-03-07T10:59:49.982Z</time>
      </trkpt>
      <trkpt lat="48.54128" lon="2.07901">
        <ele>111</ele>
        <time>2021-03-07T10:59:50.982Z</time>
      </trkpt>
      <trkpt lat="48.54128" lon="2.07901">
        <ele>111</ele>
        <time>2021-03-07T10:59:51.982Z</time>
      </trkpt>
      <trkpt lat="48.54128" lon="2.07901">
        <ele>111</ele>
        <time>2021-03-07T10:59:52.982Z</time>
      </trkpt>
      <trkpt lat="48.54128" lon="2.07901">
        <ele>111</ele>
        <time>2021-03-07T10:59:53.982Z</time>
      </trkpt>
      <trkpt lat="48.54128" lon="2.07901">
        <ele>111</ele>
        <time>2021-03-07T10:59:54.982Z</time>
      </trkpt>
      <trkpt lat="48.54128" lon="2.07901">
        <ele>111</ele>
        <time>2021-03-07T10:59:55.982Z</time>
      </trkpt>
      <trkpt lat="48.54128" lon="2.07901">
        <ele>111</ele>
        <time>2021-03-07T10:59:56.982Z</time>
      </trkpt>
      <trkpt lat="48.54128" lon="2.07901">
        <ele>111</ele>
        <time>2021-03-07T10:59:57.982Z</time>
      </trkpt>
      <trkpt lat="48.54128" lon="2.07901">
        <ele>111</ele>
        <time>2021-03-07T10:59:58.982Z</time>
      </trkpt>
      <trkpt lat="48.54128" lon="2.079">
        <ele>111</ele>
        <time>2021-03-07T10:59:59.981Z</time>
      </trkpt>
      <trkpt lat="48.54128" lon="2.079">
        <ele>111</ele>
        <time>2021-03-07T11:00:00.982Z</time>
      </trkpt>
      <trkpt lat="48.54128" lon="2.079">
        <ele>111</ele>
        <time>2021-03-07T11:00:01.982Z</time>
      </trkpt>
      <trkpt lat="48.54128" lon="2.079">
        <ele>111</ele>
        <time>2021-03-07T11:00:02.981Z</time>
      </trkpt>
      <trkpt lat="48.54128" lon="2.079">
        <ele>111</ele>
        <time>2021-03-07T11:00:03.982Z</time>
      </trkpt>
      <trkpt lat="48.54128" lon="2.079">
        <ele>111</ele>
        <time>2021-03-07T11:00:04.982Z</time>
      </trkpt>
      <trkpt lat="48.54128" lon="2.079">
        <ele>111</ele>
        <time>2021-03-07T11:00:05.982Z</time>
      </trkpt>
      <trkpt lat="48.54128" lon="2.07899">
        <ele>111</ele>
        <time>2021-03-07T11:00:06.982Z</time>
      </trkpt>
      <trkpt lat="48.54128" lon="2.07899">
        <ele>111</ele>
        <time>2021-03-07T11:00:07.982Z</time>
      </trkpt>
      <trkpt lat="48.54127" lon="2.07899">
        <ele>111</ele>
        <time>2021-03-07T11:00:08.981Z</time>
      </trkpt>
      <trkpt lat="48.54127" lon="2.07899">
        <ele>111</ele>
        <time>2021-03-07T11:00:09.981Z</time>
      </trkpt>
      <trkpt lat="48.54127" lon="2.07899">
        <ele>111</ele>
        <time>2021-03-07T11:00:10.982Z</time>
      </trkpt>
      <trkpt lat="48.54127" lon="2.07899">
        <ele>111</ele>
        <time>2021-03-07T11:00:11.982Z</time>
      </trkpt>
      <trkpt lat="48.54127" lon="2.07899">
        <ele>111</ele>
        <time>2021-03-07T11:00:12.982Z</time>
      </trkpt>
      <trkpt lat="48.54126" lon="2.07899">
        <ele>111</ele>
        <time>2021-03-07T11:00:13.982Z</time>
      </trkpt>
      <trkpt lat="48.54126" lon="2.07899">
        <ele>111</ele>
        <time>2021-03-07T11:00:14.982Z</time>
      </trkpt>
      <trkpt lat="48.54126" lon="2.07899">
        <ele>111</ele>
        <time>2021-03-07T11:00:15.982Z</time>
      </trkpt>
      <trkpt lat="48.54126" lon="2.07899">
        <ele>111</ele>
        <time>2021-03-07T11:00:16.982Z</time>
      </trkpt>
      <trkpt lat="48.54126" lon="2.07899">
        <ele>111</ele>
        <time>2021-03-07T11:00:17.982Z</time>
      </trkpt>
      <trkpt lat="48.54126" lon="2.07899">
        <ele>111</ele>
        <time>2021-03-07T11:00:18.982Z</time>
      </trkpt>
      <trkpt lat="48.54126" lon="2.07899">
        <ele>111</ele>
        <time>2021-03-07T11:00:19.982Z</time>
      </trkpt>
      <trkpt lat="48.54126" lon="2.07899">
        <ele>111</ele>
        <time>2021-03-07T11:00:20.981Z</time>
      </trkpt>
      <trkpt lat="48.54125" lon="2.07898">
        <ele>111</ele>
        <time>2021-03-07T11:00:21.981Z</time>
      </trkpt>
      <trkpt lat="48.54125" lon="2.07898">
        <ele>111</ele>
        <time>2021-03-07T11:00:22.982Z</time>
      </trkpt>
      <trkpt lat="48.54125" lon="2.07898">
        <ele>111</ele>
        <time>2021-03-07T11:00:23.982Z</time>
      </trkpt>
      <trkpt lat="48.54125" lon="2.07898">
        <ele>111</ele>
        <time>2021-03-07T11:00:24.982Z</time>
      </trkpt>
      <trkpt lat="48.54125" lon="2.07898">
        <ele>111</ele>
        <time>2021-03-07T11:00:25.982Z</time>
      </trkpt>
      <trkpt lat="48.54125" lon="2.07898">
        <ele>111</ele>
        <time>2021-03-07T11:00:26.981Z</time>
      </trkpt>
      <trkpt lat="48.54124" lon="2.07898">
        <ele>111</ele>
        <time>2021-03-07T11:00:27.981Z</time>
      </trkpt>
      <trkpt lat="48.54124" lon="2.07898">
        <ele>111</ele>
        <time>2021-03-07T11:00:28.982Z</time>
      </trkpt>
      <trkpt lat="48.54124" lon="2.07898">
        <ele>111</ele>
        <time>2021-03-07T11:00:29.982Z</time>
      </trkpt>
      <trkpt lat="48.54124" lon="2.07898">
        <ele>111</ele>
        <time>2021-03-07T11:00:30.982Z</time>
      </trkpt>
      <trkpt lat="48.54124" lon="2.07898">
        <ele>111</ele>
        <time>2021-03-07T11:00:31.982Z</time>
      </trkpt>
      <trkpt lat="48.54124" lon="2.07899">
        <ele>111</ele>
        <time>2021-03-07T11:00:32.982Z</time>
      </trkpt>
      <trkpt lat="48.54124" lon="2.07899">
        <ele>111</ele>
        <time>2021-03-07T11:00:33.982Z</time>
      </trkpt>
      <trkpt lat="48.54124" lon="2.07899">
        <ele>111</ele>
        <time>2021-03-07T11:00:34.982Z</time>
      </trkpt>
      <trkpt lat="48.54124" lon="2.07899">
        <ele>111</ele>
        <time>2021-03-07T11:00:35.982Z</time>
      </trkpt>
      <trkpt lat="48.54124" lon="2.07899">
        <ele>111</ele>
        <time>2021-03-07T11:00:36.982Z</time>
      </trkpt>
      <trkpt lat="48.54123" lon="2.07899">
        <ele>111</ele>
        <time>2021-03-07T11:00:37.982Z</time>
      </trkpt>
      <trkpt lat="48.54122" lon="2.07899">
        <ele>111</ele>
        <time>2021-03-07T11:00:38.982Z</time>
      </trkpt>
      <trkpt lat="48.5412" lon="2.079">
        <ele>111</ele>
        <time>2021-03-07T11:00:39.982Z</time>
      </trkpt>
      <trkpt lat="48.54119" lon="2.079">
        <ele>111</ele>
        <time>2021-03-07T11:00:40.982Z</time>
      </trkpt>
      <trkpt lat="48.54117" lon="2.07901">
        <ele>111</ele>
        <time>2021-03-07T11:00:41.982Z</time>
      </trkpt>
      <trkpt lat="48.54116" lon="2.07902">
        <ele>111</ele>
        <time>2021-03-07T11:00:42.982Z</time>
      </trkpt>
      <trkpt lat="48.54114" lon="2.07903">
        <ele>111</ele>
        <time>2021-03-07T11:00:43.982Z</time>
      </trkpt>
      <trkpt lat="48.54112" lon="2.07903">
        <ele>111</ele>
        <time>2021-03-07T11:00:44.981Z</time>
      </trkpt>
      <trkpt lat="48.54111" lon="2.07904">
        <ele>111</ele>
        <time>2021-03-07T11:00:45.982Z</time>
      </trkpt>
      <trkpt lat="48.5411" lon="2.07905">
        <ele>111</ele>
        <time>2021-03-07T11:00:46.982Z</time>
      </trkpt>
      <trkpt lat="48.54108" lon="2.07905">
        <ele>111</ele>
        <time>2021-03-07T11:00:47.982Z</time>
      </trkpt>
      <trkpt lat="48.54108" lon="2.07906">
        <ele>110</ele>
        <time>2021-03-07T11:00:48.982Z</time>
      </trkpt>
      <trkpt lat="48.54107" lon="2.07906">
        <ele>110</ele>
        <time>2021-03-07T11:00:49.981Z</time>
      </trkpt>
      <trkpt lat="48.54106" lon="2.07906">
        <ele>110</ele>
        <time>2021-03-07T11:00:50.981Z</time>
      </trkpt>
      <trkpt lat="48.54105" lon="2.07906">
        <ele>110</ele>
        <time>2021-03-07T11:00:51.982Z</time>
      </trkpt>
      <trkpt lat="48.54103" lon="2.07907">
        <ele>109</ele>
        <time>2021-03-07T11:00:52.982Z</time>
      </trkpt>
      <trkpt lat="48.54101" lon="2.07907">
        <ele>109</ele>
        <time>2021-03-07T11:00:53.982Z</time>
      </trkpt>
      <trkpt lat="48.54099" lon="2.07907">
        <ele>108</ele>
        <time>2021-03-07T11:00:54.982Z</time>
      </trkpt>
      <trkpt lat="48.54098" lon="2.07908">
        <ele>108</ele>
        <time>2021-03-07T11:00:55.982Z</time>
      </trkpt>
      <trkpt lat="48.54097" lon="2.07908">
        <ele>107</ele>
        <time>2021-03-07T11:00:56.981Z</time>
      </trkpt>
      <trkpt lat="48.54096" lon="2.07908">
        <ele>107</ele>
        <time>2021-03-07T11:00:57.981Z</time>
      </trkpt>
      <trkpt lat="48.54094" lon="2.07909">
        <ele>106</ele>
        <time>2021-03-07T11:00:58.982Z</time>
      </trkpt>
      <trkpt lat="48.54093" lon="2.07909">
        <ele>106</ele>
        <time>2021-03-07T11:00:59.982Z</time>
      </trkpt>
      <trkpt lat="48.54092" lon="2.07909">
        <ele>106</ele>
        <time>2021-03-07T11:01:00.981Z</time>
      </trkpt>
      <trkpt lat="48.54091" lon="2.07909">
        <ele>105</ele>
        <time>2021-03-07T11:01:01.982Z</time>
      </trkpt>
      <trkpt lat="48.5409" lon="2.07908">
        <ele>105</ele>
        <time>2021-03-07T11:01:02.981Z</time>
      </trkpt>
      <trkpt lat="48.54089" lon="2.07908">
        <ele>104</ele>
        <time>2021-03-07T11:01:03.982Z</time>
      </trkpt>
      <trkpt lat="48.54088" lon="2.07908">
        <ele>103</ele>
        <time>2021-03-07T11:01:04.982Z</time>
      </trkpt>
      <trkpt lat="48.54087" lon="2.07908">
        <ele>103</ele>
        <time>2021-03-07T11:01:05.982Z</time>
      </trkpt>
      <trkpt lat="48.54085" lon="2.07908">
        <ele>103</ele>
        <time>2021-03-07T11:01:06.981Z</time>
      </trkpt>
      <trkpt lat="48.54084" lon="2.07909">
        <ele>103</ele>
        <time>2021-03-07T11:01:07.981Z</time>
      </trkpt>
      <trkpt lat="48.54083" lon="2.07908">
        <ele>103</ele>
        <time>2021-03-07T11:01:08.982Z</time>
      </trkpt>
      <trkpt lat="48.54081" lon="2.07909">
        <ele>103</ele>
        <time>2021-03-07T11:01:09.982Z</time>
      </trkpt>
      <trkpt lat="48.54079" lon="2.07909">
        <ele>103</ele>
        <time>2021-03-07T11:01:10.982Z</time>
      </trkpt>
      <trkpt lat="48.54077" lon="2.0791">
        <ele>103</ele>
        <time>2021-03-07T11:01:11.982Z</time>
      </trkpt>
      <trkpt lat="48.54075" lon="2.0791">
        <ele>103</ele>
        <time>2021-03-07T11:01:12.981Z</time>
      </trkpt>
      <trkpt lat="48.54073" lon="2.0791">
        <ele>103</ele>
        <time>2021-03-07T11:01:13.981Z</time>
      </trkpt>
      <trkpt lat="48.54071" lon="2.0791">
        <ele>103</ele>
        <time>2021-03-07T11:01:14.981Z</time>
      </trkpt>
      <trkpt lat="48.54069" lon="2.0791">
        <ele>103</ele>
        <time>2021-03-07T11:01:15.982Z</time>
      </trkpt>
      <trkpt lat="48.54068" lon="2.07911">
        <ele>103</ele>
        <time>2021-03-07T11:01:16.982Z</time>
      </trkpt>
      <trkpt lat="48.54066" lon="2.07911">
        <ele>102</ele>
        <time>2021-03-07T11:01:17.982Z</time>
      </trkpt>
      <trkpt lat="48.54064" lon="2.07911">
        <ele>102</ele>
        <time>2021-03-07T11:01:18.981Z</time>
      </trkpt>
      <trkpt lat="48.54063" lon="2.07912">
        <ele>102</ele>
        <time>2021-03-07T11:01:19.982Z</time>
      </trkpt>
      <trkpt lat="48.54063" lon="2.07911">
        <ele>102</ele>
        <time>2021-03-07T11:01:20.982Z</time>
      </trkpt>
      <trkpt lat="48.54062" lon="2.0791">
        <ele>102</ele>
        <time>2021-03-07T11:01:21.981Z</time>
      </trkpt>
      <trkpt lat="48.54061" lon="2.07909">
        <ele>101</ele>
        <time>2021-03-07T11:01:22.981Z</time>
      </trkpt>
      <trkpt lat="48.5406" lon="2.07909">
        <ele>101</ele>
        <time>2021-03-07T11:01:23.981Z</time>
      </trkpt>
      <trkpt lat="48.54059" lon="2.07907">
        <ele>101</ele>
        <time>2021-03-07T11:01:24.981Z</time>
      </trkpt>
      <trkpt lat="48.54058" lon="2.07905">
        <ele>100</ele>
        <time>2021-03-07T11:01:25.982Z</time>
      </trkpt>
      <trkpt lat="48.54058" lon="2.07902">
        <ele>100</ele>
        <time>2021-03-07T11:01:26.982Z</time>
      </trkpt>
      <trkpt lat="48.54058" lon="2.079">
        <ele>100</ele>
        <time>2021-03-07T11:01:27.982Z</time>
      </trkpt>
      <trkpt lat="48.54058" lon="2.07899">
        <ele>99</ele>
        <time>2021-03-07T11:01:28.982Z</time>
      </trkpt>
      <trkpt lat="48.54056" lon="2.07899">
        <ele>99</ele>
        <time>2021-03-07T11:01:29.981Z</time>
      </trkpt>
      <trkpt lat="48.54054" lon="2.07898">
        <ele>98</ele>
        <time>2021-03-07T11:01:30.982Z</time>
      </trkpt>
      <trkpt lat="48.54053" lon="2.07898">
        <ele>98</ele>
        <time>2021-03-07T11:01:31.982Z</time>
      </trkpt>
      <trkpt lat="48.54052" lon="2.07897">
        <ele>97</ele>
        <time>2021-03-07T11:01:32.982Z</time>
      </trkpt>
      <trkpt lat="48.54051" lon="2.07896">
        <ele>97</ele>
        <time>2021-03-07T11:01:33.981Z</time>
      </trkpt>
      <trkpt lat="48.5405" lon="2.07895">
        <ele>96</ele>
        <time>2021-03-07T11:01:34.981Z</time>
      </trkpt>
      <trkpt lat="48.54049" lon="2.07894">
        <ele>96</ele>
        <time>2021-03-07T11:01:35.981Z</time>
      </trkpt>
      <trkpt lat="48.54048" lon="2.07894">
        <ele>96</ele>
        <time>2021-03-07T11:01:36.981Z</time>
      </trkpt>
      <trkpt lat="48.54047" lon="2.07893">
        <ele>96</ele>
        <time>2021-03-07T11:01:37.982Z</time>
      </trkpt>
      <trkpt lat="48.54046" lon="2.07893">
        <ele>96</ele>
        <time>2021-03-07T11:01:38.982Z</time>
      </trkpt>
      <trkpt lat="48.54045" lon="2.07892">
        <ele>96</ele>
        <time>2021-03-07T11:01:39.981Z</time>
      </trkpt>
      <trkpt lat="48.54045" lon="2.0789">
        <ele>96</ele>
        <time>2021-03-07T11:01:40.982Z</time>
      </trkpt>
      <trkpt lat="48.54044" lon="2.07889">
        <ele>96</ele>
        <time>2021-03-07T11:01:41.981Z</time>
      </trkpt>
      <trkpt lat="48.54042" lon="2.07888">
        <ele>96</ele>
        <time>2021-03-07T11:01:42.982Z</time>
      </trkpt>
      <trkpt lat="48.54041" lon="2.07888">
        <ele>97</ele>
        <time>2021-03-07T11:01:43.982Z</time>
      </trkpt>
      <trkpt lat="48.54038" lon="2.07888">
        <ele>97</ele>
        <time>2021-03-07T11:01:44.981Z</time>
      </trkpt>
      <trkpt lat="48.54036" lon="2.07889">
        <ele>97</ele>
        <time>2021-03-07T11:01:45.982Z</time>
      </trkpt>
      <trkpt lat="48.54033" lon="2.07889">
        <ele>97</ele>
        <time>2021-03-07T11:01:46.982Z</time>
      </trkpt>
      <trkpt lat="48.54031" lon="2.07888">
        <ele>96</ele>
        <time>2021-03-07T11:01:47.981Z</time>
      </trkpt>
      <trkpt lat="48.54029" lon="2.07888">
        <ele>96</ele>
        <time>2021-03-07T11:01:48.982Z</time>
      </trkpt>
      <trkpt lat="48.54028" lon="2.07888">
        <ele>96</ele>
        <time>2021-03-07T11:01:49.982Z</time>
      </trkpt>
      <trkpt lat="48.54026" lon="2.07887">
        <ele>96</ele>
        <time>2021-03-07T11:01:50.982Z</time>
      </trkpt>
      <trkpt lat="48.54024" lon="2.07888">
        <ele>96</ele>
        <time>2021-03-07T11:01:51.982Z</time>
      </trkpt>
      <trkpt lat="48.54022" lon="2.07888">
        <ele>96</ele>
        <time>2021-03-07T11:01:52.981Z</time>
      </trkpt>
      <trkpt lat="48.54021" lon="2.07888">
        <ele>96</ele>
        <time>2021-03-07T11:01:53.981Z</time>
      </trkpt>
      <trkpt lat="48.5402" lon="2.07888">
        <ele>96</ele>
        <time>2021-03-07T11:01:54.981Z</time>
      </trkpt>
      <trkpt lat="48.54019" lon="2.07888">
        <ele>96</ele>
        <time>2021-03-07T11:01:55.982Z</time>
      </trkpt>
      <trkpt lat="48.54018" lon="2.07888">
        <ele>95</ele>
        <time>2021-03-07T11:01:56.982Z</time>
      </trkpt>
      <trkpt lat="48.54017" lon="2.07888">
        <ele>95</ele>
        <time>2021-03-07T11:01:57.982Z</time>
      </trkpt>
      <trkpt lat="48.54016" lon="2.07887">
        <ele>94</ele>
        <time>2021-03-07T11:01:58.981Z</time>
      </trkpt>
      <trkpt lat="48.54014" lon="2.07888">
        <ele>94</ele>
        <time>2021-03-07T11:01:59.981Z</time>
      </trkpt>
      <trkpt lat="48.54013" lon="2.07888">
        <ele>94</ele>
        <time>2021-03-07T11:02:00.982Z</time>
      </trkpt>
      <trkpt lat="48.54012" lon="2.07889">
        <ele>93</ele>
        <time>2021-03-07T11:02:01.982Z</time>
      </trkpt>
      <trkpt lat="48.5401" lon="2.07889">
        <ele>93</ele>
        <time>2021-03-07T11:02:02.982Z</time>
      </trkpt>
      <trkpt lat="48.5401" lon="2.0789">
        <ele>93</ele>
        <time>2021-03-07T11:02:03.982Z</time>
      </trkpt>
      <trkpt lat="48.54009" lon="2.07892">
        <ele>92</ele>
        <time>2021-03-07T11:02:04.982Z</time>
      </trkpt>
      <trkpt lat="48.54009" lon="2.07893">
        <ele>92</ele>
        <time>2021-03-07T11:02:05.982Z</time>
      </trkpt>
      <trkpt lat="48.54009" lon="2.07894">
        <ele>92</ele>
        <time>2021-03-07T11:02:06.982Z</time>
      </trkpt>
      <trkpt lat="48.54009" lon="2.07896">
        <ele>92</ele>
        <time>2021-03-07T11:02:07.982Z</time>
      </trkpt>
      <trkpt lat="48.5401" lon="2.07896">
        <ele>92</ele>
        <time>2021-03-07T11:02:08.982Z</time>
      </trkpt>
      <trkpt lat="48.54011" lon="2.07897">
        <ele>92</ele>
        <time>2021-03-07T11:02:09.982Z</time>
      </trkpt>
      <trkpt lat="48.54011" lon="2.07897">
        <ele>92</ele>
        <time>2021-03-07T11:02:10.982Z</time>
      </trkpt>
      <trkpt lat="48.54012" lon="2.07897">
        <ele>92</ele>
        <time>2021-03-07T11:02:11.981Z</time>
      </trkpt>
      <trkpt lat="48.54012" lon="2.07897">
        <ele>91</ele>
        <time>2021-03-07T11:02:12.981Z</time>
      </trkpt>
      <trkpt lat="48.54012" lon="2.07897">
        <ele>91</ele>
        <time>2021-03-07T11:02:13.981Z</time>
      </trkpt>
      <trkpt lat="48.54013" lon="2.07898">
        <ele>91</ele>
        <time>2021-03-07T11:02:14.982Z</time>
      </trkpt>
      <trkpt lat="48.54012" lon="2.07899">
        <ele>91</ele>
        <time>2021-03-07T11:02:15.982Z</time>
      </trkpt>
      <trkpt lat="48.54011" lon="2.07901">
        <ele>91</ele>
        <time>2021-03-07T11:02:16.982Z</time>
      </trkpt>
      <trkpt lat="48.5401" lon="2.07903">
        <ele>91</ele>
        <time>2021-03-07T11:02:17.982Z</time>
      </trkpt>
      <trkpt lat="48.5401" lon="2.07904">
        <ele>90</ele>
        <time>2021-03-07T11:02:18.981Z</time>
      </trkpt>
      <trkpt lat="48.54009" lon="2.07905">
        <ele>90</ele>
        <time>2021-03-07T11:02:19.982Z</time>
      </trkpt>
      <trkpt lat="48.54009" lon="2.07906">
        <ele>90</ele>
        <time>2021-03-07T11:02:20.982Z</time>
      </trkpt>
      <trkpt lat="48.54008" lon="2.07907">
        <ele>91</ele>
        <time>2021-03-07T11:02:21.982Z</time>
      </trkpt>
      <trkpt lat="48.54007" lon="2.07907">
        <ele>91</ele>
        <time>2021-03-07T11:02:22.982Z</time>
      </trkpt>
      <trkpt lat="48.54006" lon="2.07907">
        <ele>91</ele>
        <time>2021-03-07T11:02:23.982Z</time>
      </trkpt>
      <trkpt lat="48.54006" lon="2.07906">
        <ele>91</ele>
        <time>2021-03-07T11:02:24.981Z</time>
      </trkpt>
      <trkpt lat="48.54005" lon="2.07906">
        <ele>91</ele>
        <time>2021-03-07T11:02:25.982Z</time>
      </trkpt>
      <trkpt lat="48.54004" lon="2.07905">
        <ele>91</ele>
        <time>2021-03-07T11:02:26.982Z</time>
      </trkpt>
      <trkpt lat="48.54004" lon="2.07904">
        <ele>91</ele>
        <time>2021-03-07T11:02:27.982Z</time>
      </trkpt>
      <trkpt lat="48.54004" lon="2.07902">
        <ele>90</ele>
        <time>2021-03-07T11:02:28.982Z</time>
      </trkpt>
      <trkpt lat="48.54003" lon="2.079">
        <ele>90</ele>
        <time>2021-03-07T11:02:29.982Z</time>
      </trkpt>
      <trkpt lat="48.54003" lon="2.07898">
        <ele>90</ele>
        <time>2021-03-07T11:02:30.982Z</time>
      </trkpt>
      <trkpt lat="48.54002" lon="2.07896">
        <ele>89</ele>
        <time>2021-03-07T11:02:31.982Z</time>
      </trkpt>
      <trkpt lat="48.54001" lon="2.07895">
        <ele>89</ele>
        <time>2021-03-07T11:02:32.981Z</time>
      </trkpt>
      <trkpt lat="48.54001" lon="2.07893">
        <ele>89</ele>
        <time>2021-03-07T11:02:33.982Z</time>
      </trkpt>
      <trkpt lat="48.54" lon="2.07892">
        <ele>89</ele>
        <time>2021-03-07T11:02:34.981Z</time>
      </trkpt>
      <trkpt lat="48.53999" lon="2.07891">
        <ele>89</ele>
        <time>2021-03-07T11:02:35.981Z</time>
      </trkpt>
      <trkpt lat="48.53999" lon="2.0789">
        <ele>88</ele>
        <time>2021-03-07T11:02:36.981Z</time>
      </trkpt>
      <trkpt lat="48.53999" lon="2.07889">
        <ele>88</ele>
        <time>2021-03-07T11:02:37.981Z</time>
      </trkpt>
      <trkpt lat="48.53998" lon="2.07888">
        <ele>88</ele>
        <time>2021-03-07T11:02:38.982Z</time>
      </trkpt>
      <trkpt lat="48.53998" lon="2.07888">
        <ele>88</ele>
        <time>2021-03-07T11:02:39.982Z</time>
      </trkpt>
      <trkpt lat="48.53997" lon="2.07887">
        <ele>87</ele>
        <time>2021-03-07T11:02:40.982Z</time>
      </trkpt>
      <trkpt lat="48.53997" lon="2.07888">
        <ele>87</ele>
        <time>2021-03-07T11:02:41.982Z</time>
      </trkpt>
      <trkpt lat="48.53996" lon="2.07888">
        <ele>86</ele>
        <time>2021-03-07T11:02:42.982Z</time>
      </trkpt>
      <trkpt lat="48.53996" lon="2.07888">
        <ele>85</ele>
        <time>2021-03-07T11:02:43.982Z</time>
      </trkpt>
      <trkpt lat="48.53995" lon="2.07889">
        <ele>84</ele>
        <time>2021-03-07T11:02:44.982Z</time>
      </trkpt>
      <trkpt lat="48.53994" lon="2.07889">
        <ele>84</ele>
        <time>2021-03-07T11:02:45.982Z</time>
      </trkpt>
      <trkpt lat="48.53993" lon="2.0789">
        <ele>83</ele>
        <time>2021-03-07T11:02:46.982Z</time>
      </trkpt>
      <trkpt lat="48.53993" lon="2.0789">
        <ele>83</ele>
        <time>2021-03-07T11:02:47.982Z</time>
      </trkpt>
      <trkpt lat="48.54014" lon="2.0789">
        <ele>83</ele>
        <time>2021-03-07T11:02:57.981Z</time>
      </trkpt>
      <trkpt lat="48.54001" lon="2.07894">
        <ele>83</ele>
        <time>2021-03-07T11:02:58.982Z</time>
      </trkpt>
      <trkpt lat="48.53995" lon="2.07895">
        <ele>83</ele>
        <time>2021-03-07T11:02:59.982Z</time>
      </trkpt>
      <trkpt lat="48.53995" lon="2.07891">
        <ele>82</ele>
        <time>2021-03-07T11:03:00.982Z</time>
      </trkpt>
      <trkpt lat="48.53992" lon="2.07893">
        <ele>82</ele>
        <time>2021-03-07T11:03:01.981Z</time>
      </trkpt>
      <trkpt lat="48.53988" lon="2.07895">
        <ele>82</ele>
        <time>2021-03-07T11:03:02.981Z</time>
      </trkpt>
      <trkpt lat="48.53986" lon="2.07896">
        <ele>82</ele>
        <time>2021-03-07T11:03:03.982Z</time>
      </trkpt>
      <trkpt lat="48.53984" lon="2.07896">
        <ele>82</ele>
        <time>2021-03-07T11:03:04.981Z</time>
      </trkpt>
      <trkpt lat="48.53983" lon="2.07897">
        <ele>81</ele>
        <time>2021-03-07T11:03:05.982Z</time>
      </trkpt>
      <trkpt lat="48.53982" lon="2.07898">
        <ele>81</ele>
        <time>2021-03-07T11:03:06.982Z</time>
      </trkpt>
      <trkpt lat="48.53981" lon="2.07899">
        <ele>81</ele>
        <time>2021-03-07T11:03:07.981Z</time>
      </trkpt>
      <trkpt lat="48.5398" lon="2.07899">
        <ele>80</ele>
        <time>2021-03-07T11:03:08.982Z</time>
      </trkpt>
      <trkpt lat="48.53979" lon="2.079">
        <ele>80</ele>
        <time>2021-03-07T11:03:09.982Z</time>
      </trkpt>
      <trkpt lat="48.53979" lon="2.07901">
        <ele>81</ele>
        <time>2021-03-07T11:03:10.982Z</time>
      </trkpt>
      <trkpt lat="48.53978" lon="2.07902">
        <ele>81</ele>
        <time>2021-03-07T11:03:11.981Z</time>
      </trkpt>
      <trkpt lat="48.53978" lon="2.07903">
        <ele>81</ele>
        <time>2021-03-07T11:03:12.982Z</time>
      </trkpt>
      <trkpt lat="48.53978" lon="2.07902">
        <ele>82</ele>
        <time>2021-03-07T11:03:13.982Z</time>
      </trkpt>
      <trkpt lat="48.53977" lon="2.07903">
        <ele>82</ele>
        <time>2021-03-07T11:03:14.982Z</time>
      </trkpt>
      <trkpt lat="48.53977" lon="2.07903">
        <ele>83</ele>
        <time>2021-03-07T11:03:15.982Z</time>
      </trkpt>
      <trkpt lat="48.53977" lon="2.07902">
        <ele>83</ele>
        <time>2021-03-07T11:03:16.981Z</time>
      </trkpt>
      <trkpt lat="48.53978" lon="2.07901">
        <ele>83</ele>
        <time>2021-03-07T11:03:17.982Z</time>
      </trkpt>
      <trkpt lat="48.53978" lon="2.079">
        <ele>83</ele>
        <time>2021-03-07T11:03:18.982Z</time>
      </trkpt>
      <trkpt lat="48.53978" lon="2.07899">
        <ele>83</ele>
        <time>2021-03-07T11:03:19.982Z</time>
      </trkpt>
      <trkpt lat="48.53979" lon="2.07898">
        <ele>83</ele>
        <time>2021-03-07T11:03:20.981Z</time>
      </trkpt>
      <trkpt lat="48.53979" lon="2.07898">
        <ele>83</ele>
        <time>2021-03-07T11:03:21.981Z</time>
      </trkpt>
      <trkpt lat="48.53979" lon="2.07897">
        <ele>82</ele>
        <time>2021-03-07T11:03:22.981Z</time>
      </trkpt>
      <trkpt lat="48.53979" lon="2.07897">
        <ele>82</ele>
        <time>2021-03-07T11:03:23.981Z</time>
      </trkpt>
      <trkpt lat="48.5398" lon="2.07897">
        <ele>82</ele>
        <time>2021-03-07T11:03:24.982Z</time>
      </trkpt>
      <trkpt lat="48.53981" lon="2.07897">
        <ele>82</ele>
        <time>2021-03-07T11:03:25.982Z</time>
      </trkpt>
      <trkpt lat="48.53981" lon="2.07897">
        <ele>82</ele>
        <time>2021-03-07T11:03:26.982Z</time>
      </trkpt>
      <trkpt lat="48.5398" lon="2.07897">
        <ele>82</ele>
        <time>2021-03-07T11:03:27.982Z</time>
      </trkpt>
      <trkpt lat="48.5398" lon="2.07898">
        <ele>82</ele>
        <time>2021-03-07T11:03:28.981Z</time>
      </trkpt>
      <trkpt lat="48.5398" lon="2.07898">
        <ele>82</ele>
        <time>2021-03-07T11:03:29.981Z</time>
      </trkpt>
      <trkpt lat="48.5398" lon="2.07898">
        <ele>82</ele>
        <time>2021-03-07T11:03:30.981Z</time>
      </trkpt>
      <trkpt lat="48.5398" lon="2.07898">
        <ele>82</ele>
        <time>2021-03-07T11:03:31.981Z</time>
      </trkpt>
      <trkpt lat="48.5398" lon="2.07898">
        <ele>82</ele>
        <time>2021-03-07T11:03:32.982Z</time>
      </trkpt>
      <trkpt lat="48.5398" lon="2.07898">
        <ele>82</ele>
        <time>2021-03-07T11:03:33.982Z</time>
      </trkpt>
      <trkpt lat="48.5398" lon="2.07898">
        <ele>83</ele>
        <time>2021-03-07T11:03:34.982Z</time>
      </trkpt>
      <trkpt lat="48.5398" lon="2.07898">
        <ele>83</ele>
        <time>2021-03-07T11:03:35.981Z</time>
      </trkpt>
      <trkpt lat="48.5398" lon="2.07898">
        <ele>83</ele>
        <time>2021-03-07T11:03:36.982Z</time>
      </trkpt>
      <trkpt lat="48.5398" lon="2.07898">
        <ele>83</ele>
        <time>2021-03-07T11:03:37.982Z</time>
      </trkpt>
      <trkpt lat="48.5398" lon="2.07898">
        <ele>83</ele>
        <time>2021-03-07T11:03:38.982Z</time>
      </trkpt>
      <trkpt lat="48.5398" lon="2.07898">
        <ele>84</ele>
        <time>2021-03-07T11:03:39.982Z</time>
      </trkpt>
      <trkpt lat="48.5398" lon="2.07898">
        <ele>84</ele>
        <time>2021-03-07T11:03:40.982Z</time>
      </trkpt>
      <trkpt lat="48.5398" lon="2.07898">
        <ele>84</ele>
        <time>2021-03-07T11:03:41.982Z</time>
      </trkpt>
      <trkpt lat="48.5398" lon="2.07898">
        <ele>84</ele>
        <time>2021-03-07T11:03:42.982Z</time>
      </trkpt>
      <trkpt lat="48.53979" lon="2.07898">
        <ele>84</ele>
        <time>2021-03-07T11:03:43.982Z</time>
      </trkpt>
      <trkpt lat="48.53979" lon="2.07898">
        <ele>84</ele>
        <time>2021-03-07T11:03:44.982Z</time>
      </trkpt>
      <trkpt lat="48.53979" lon="2.07898">
        <ele>84</ele>
        <time>2021-03-07T11:03:45.982Z</time>
      </trkpt>
      <trkpt lat="48.53979" lon="2.07898">
        <ele>84</ele>
        <time>2021-03-07T11:03:46.982Z</time>
      </trkpt>
      <trkpt lat="48.53979" lon="2.07898">
        <ele>84</ele>
        <time>2021-03-07T11:03:47.982Z</time>
      </trkpt>
      <trkpt lat="48.53978" lon="2.07898">
        <ele>84</ele>
        <time>2021-03-07T11:03:48.982Z</time>
      </trkpt>
      <trkpt lat="48.53978" lon="2.07898">
        <ele>84</ele>
        <time>2021-03-07T11:03:49.981Z</time>
      </trkpt>
      <trkpt lat="48.53978" lon="2.07898">
        <ele>84</ele>
        <time>2021-03-07T11:03:50.981Z</time>
      </trkpt>
      <trkpt lat="48.53978" lon="2.07898">
        <ele>84</ele>
        <time>2021-03-07T11:03:51.982Z</time>
      </trkpt>
      <trkpt lat="48.53977" lon="2.07898">
        <ele>84</ele>
        <time>2021-03-07T11:03:52.982Z</time>
      </trkpt>
      <trkpt lat="48.53977" lon="2.07899">
        <ele>84</ele>
        <time>2021-03-07T11:03:53.981Z</time>
      </trkpt>
      <trkpt lat="48.53976" lon="2.07899">
        <ele>84</ele>
        <time>2021-03-07T11:03:54.982Z</time>
      </trkpt>
      <trkpt lat="48.53976" lon="2.079">
        <ele>84</ele>
        <time>2021-03-07T11:03:55.982Z</time>
      </trkpt>
      <trkpt lat="48.53976" lon="2.079">
        <ele>84</ele>
        <time>2021-03-07T11:03:56.982Z</time>
      </trkpt>
      <trkpt lat="48.53976" lon="2.07901">
        <ele>84</ele>
        <time>2021-03-07T11:03:57.982Z</time>
      </trkpt>
      <trkpt lat="48.53975" lon="2.07901">
        <ele>84</ele>
        <time>2021-03-07T11:03:58.982Z</time>
      </trkpt>
      <trkpt lat="48.53975" lon="2.07901">
        <ele>84</ele>
        <time>2021-03-07T11:03:59.982Z</time>
      </trkpt>
      <trkpt lat="48.53975" lon="2.07901">
        <ele>84</ele>
        <time>2021-03-07T11:04:00.982Z</time>
      </trkpt>
      <trkpt lat="48.53975" lon="2.07901">
        <ele>84</ele>
        <time>2021-03-07T11:04:01.981Z</time>
      </trkpt>
      <trkpt lat="48.53975" lon="2.07901">
        <ele>84</ele>
        <time>2021-03-07T11:04:02.982Z</time>
      </trkpt>
      <trkpt lat="48.53974" lon="2.07901">
        <ele>84</ele>
        <time>2021-03-07T11:04:03.982Z</time>
      </trkpt>
      <trkpt lat="48.53974" lon="2.07901">
        <ele>84</ele>
        <time>2021-03-07T11:04:04.982Z</time>
      </trkpt>
      <trkpt lat="48.53974" lon="2.07901">
        <ele>84</ele>
        <time>2021-03-07T11:04:05.982Z</time>
      </trkpt>
      <trkpt lat="48.53974" lon="2.07902">
        <ele>84</ele>
        <time>2021-03-07T11:04:06.982Z</time>
      </trkpt>
      <trkpt lat="48.53974" lon="2.07902">
        <ele>84</ele>
        <time>2021-03-07T11:04:07.982Z</time>
      </trkpt>
      <trkpt lat="48.53974" lon="2.07902">
        <ele>84</ele>
        <time>2021-03-07T11:04:08.981Z</time>
      </trkpt>
      <trkpt lat="48.53974" lon="2.07902">
        <ele>84</ele>
        <time>2021-03-07T11:04:09.981Z</time>
      </trkpt>
      <trkpt lat="48.53974" lon="2.07902">
        <ele>84</ele>
        <time>2021-03-07T11:04:10.982Z</time>
      </trkpt>
      <trkpt lat="48.53974" lon="2.07902">
        <ele>84</ele>
        <time>2021-03-07T11:04:11.982Z</time>
      </trkpt>
      <trkpt lat="48.53974" lon="2.07902">
        <ele>84</ele>
        <time>2021-03-07T11:04:12.982Z</time>
      </trkpt>
      <trkpt lat="48.53974" lon="2.07902">
        <ele>84</ele>
        <time>2021-03-07T11:04:13.981Z</time>
      </trkpt>
      <trkpt lat="48.53974" lon="2.07903">
        <ele>84</ele>
        <time>2021-03-07T11:04:14.982Z</time>
      </trkpt>
      <trkpt lat="48.53974" lon="2.07903">
        <ele>84</ele>
        <time>2021-03-07T11:04:15.982Z</time>
      </trkpt>
      <trkpt lat="48.53974" lon="2.07903">
        <ele>84</ele>
        <time>2021-03-07T11:04:16.982Z</time>
      </trkpt>
      <trkpt lat="48.53973" lon="2.07905">
        <ele>84</ele>
        <time>2021-03-07T11:04:17.982Z</time>
      </trkpt>
      <trkpt lat="48.53972" lon="2.07905">
        <ele>84</ele>
        <time>2021-03-07T11:04:18.982Z</time>
      </trkpt>
      <trkpt lat="48.53971" lon="2.07906">
        <ele>84</ele>
        <time>2021-03-07T11:04:19.982Z</time>
      </trkpt>
      <trkpt lat="48.5397" lon="2.07908">
        <ele>84</ele>
        <time>2021-03-07T11:04:20.982Z</time>
      </trkpt>
      <trkpt lat="48.53969" lon="2.0791">
        <ele>84</ele>
        <time>2021-03-07T11:04:21.982Z</time>
      </trkpt>
      <trkpt lat="48.53967" lon="2.07911">
        <ele>83</ele>
        <time>2021-03-07T11:04:22.982Z</time>
      </trkpt>
      <trkpt lat="48.53966" lon="2.07913">
        <ele>83</ele>
        <time>2021-03-07T11:04:23.982Z</time>
      </trkpt>
      <trkpt lat="48.53964" lon="2.07916">
        <ele>82</ele>
        <time>2021-03-07T11:04:24.982Z</time>
      </trkpt>
      <trkpt lat="48.53963" lon="2.07918">
        <ele>82</ele>
        <time>2021-03-07T11:04:25.982Z</time>
      </trkpt>
      <trkpt lat="48.53962" lon="2.07919">
        <ele>82</ele>
        <time>2021-03-07T11:04:26.982Z</time>
      </trkpt>
      <trkpt lat="48.53961" lon="2.0792">
        <ele>81</ele>
        <time>2021-03-07T11:04:27.981Z</time>
      </trkpt>
      <trkpt lat="48.5396" lon="2.07921">
        <ele>81</ele>
        <time>2021-03-07T11:04:28.981Z</time>
      </trkpt>
      <trkpt lat="48.53958" lon="2.07922">
        <ele>80</ele>
        <time>2021-03-07T11:04:29.982Z</time>
      </trkpt>
      <trkpt lat="48.53957" lon="2.07923">
        <ele>79</ele>
        <time>2021-03-07T11:04:30.982Z</time>
      </trkpt>
      <trkpt lat="48.53956" lon="2.07924">
        <ele>78</ele>
        <time>2021-03-07T11:04:31.981Z</time>
      </trkpt>
      <trkpt lat="48.53955" lon="2.07925">
        <ele>77</ele>
        <time>2021-03-07T11:04:32.982Z</time>
      </trkpt>
      <trkpt lat="48.53954" lon="2.07926">
        <ele>77</ele>
        <time>2021-03-07T11:04:33.981Z</time>
      </trkpt>
      <trkpt lat="48.53953" lon="2.07927">
        <ele>76</ele>
        <time>2021-03-07T11:04:34.982Z</time>
      </trkpt>
      <trkpt lat="48.53952" lon="2.07929">
        <ele>76</ele>
        <time>2021-03-07T11:04:35.981Z</time>
      </trkpt>
      <trkpt lat="48.5395" lon="2.0793">
        <ele>76</ele>
        <time>2021-03-07T11:04:36.982Z</time>
      </trkpt>
      <trkpt lat="48.53949" lon="2.07931">
        <ele>76</ele>
        <time>2021-03-07T11:04:37.982Z</time>
      </trkpt>
      <trkpt lat="48.53948" lon="2.07932">
        <ele>76</ele>
        <time>2021-03-07T11:04:38.982Z</time>
      </trkpt>
      <trkpt lat="48.53947" lon="2.07933">
        <ele>76</ele>
        <time>2021-03-07T11:04:39.982Z</time>
      </trkpt>
      <trkpt lat="48.53947" lon="2.07933">
        <ele>77</ele>
        <time>2021-03-07T11:04:40.982Z</time>
      </trkpt>
      <trkpt lat="48.53946" lon="2.07934">
        <ele>78</ele>
        <time>2021-03-07T11:04:41.982Z</time>
      </trkpt>
      <trkpt lat="48.53946" lon="2.07934">
        <ele>78</ele>
        <time>2021-03-07T11:04:42.981Z</time>
      </trkpt>
      <trkpt lat="48.53945" lon="2.07935">
        <ele>78</ele>
        <time>2021-03-07T11:04:43.982Z</time>
      </trkpt>
      <trkpt lat="48.53945" lon="2.07935">
        <ele>78</ele>
        <time>2021-03-07T11:04:44.982Z</time>
      </trkpt>
      <trkpt lat="48.53945" lon="2.07935">
        <ele>78</ele>
        <time>2021-03-07T11:04:45.982Z</time>
      </trkpt>
      <trkpt lat="48.53945" lon="2.07935">
        <ele>78</ele>
        <time>2021-03-07T11:04:46.982Z</time>
      </trkpt>
      <trkpt lat="48.53945" lon="2.07934">
        <ele>78</ele>
        <time>2021-03-07T11:04:47.982Z</time>
      </trkpt>
      <trkpt lat="48.53945" lon="2.07934">
        <ele>77</ele>
        <time>2021-03-07T11:04:48.981Z</time>
      </trkpt>
      <trkpt lat="48.53944" lon="2.07934">
        <ele>76</ele>
        <time>2021-03-07T11:04:49.982Z</time>
      </trkpt>
      <trkpt lat="48.53944" lon="2.07935">
        <ele>76</ele>
        <time>2021-03-07T11:04:50.981Z</time>
      </trkpt>
      <trkpt lat="48.53944" lon="2.07935">
        <ele>76</ele>
        <time>2021-03-07T11:04:51.982Z</time>
      </trkpt>
      <trkpt lat="48.53944" lon="2.07935">
        <ele>76</ele>
        <time>2021-03-07T11:04:52.982Z</time>
      </trkpt>
      <trkpt lat="48.53944" lon="2.07935">
        <ele>76</ele>
        <time>2021-03-07T11:04:53.981Z</time>
      </trkpt>
      <trkpt lat="48.53944" lon="2.07937">
        <ele>76</ele>
        <time>2021-03-07T11:04:54.982Z</time>
      </trkpt>
      <trkpt lat="48.53944" lon="2.07936">
        <ele>77</ele>
        <time>2021-03-07T11:04:55.982Z</time>
      </trkpt>
      <trkpt lat="48.53944" lon="2.07936">
        <ele>77</ele>
        <time>2021-03-07T11:04:56.982Z</time>
      </trkpt>
      <trkpt lat="48.53944" lon="2.07936">
        <ele>76</ele>
        <time>2021-03-07T11:04:57.982Z</time>
      </trkpt>
      <trkpt lat="48.53944" lon="2.07938">
        <ele>76</ele>
        <time>2021-03-07T11:04:58.982Z</time>
      </trkpt>
      <trkpt lat="48.53942" lon="2.07939">
        <ele>76</ele>
        <time>2021-03-07T11:04:59.982Z</time>
      </trkpt>
      <trkpt lat="48.53941" lon="2.0794">
        <ele>76</ele>
        <time>2021-03-07T11:05:00.982Z</time>
      </trkpt>
      <trkpt lat="48.5394" lon="2.0794">
        <ele>76</ele>
        <time>2021-03-07T11:05:01.982Z</time>
      </trkpt>
      <trkpt lat="48.53939" lon="2.07941">
        <ele>76</ele>
        <time>2021-03-07T11:05:02.981Z</time>
      </trkpt>
      <trkpt lat="48.53937" lon="2.07942">
        <ele>76</ele>
        <time>2021-03-07T11:05:03.982Z</time>
      </trkpt>
      <trkpt lat="48.53936" lon="2.07942">
        <ele>76</ele>
        <time>2021-03-07T11:05:04.981Z</time>
      </trkpt>
      <trkpt lat="48.53934" lon="2.07943">
        <ele>76</ele>
        <time>2021-03-07T11:05:05.981Z</time>
      </trkpt>
      <trkpt lat="48.53933" lon="2.07943">
        <ele>76</ele>
        <time>2021-03-07T11:05:06.981Z</time>
      </trkpt>
      <trkpt lat="48.53932" lon="2.07943">
        <ele>76</ele>
        <time>2021-03-07T11:05:07.981Z</time>
      </trkpt>
      <trkpt lat="48.5393" lon="2.07943">
        <ele>76</ele>
        <time>2021-03-07T11:05:08.981Z</time>
      </trkpt>
      <trkpt lat="48.53929" lon="2.07944">
        <ele>76</ele>
        <time>2021-03-07T11:05:09.982Z</time>
      </trkpt>
      <trkpt lat="48.53928" lon="2.07944">
        <ele>76</ele>
        <time>2021-03-07T11:05:10.982Z</time>
      </trkpt>
      <trkpt lat="48.53927" lon="2.07946">
        <ele>76</ele>
        <time>2021-03-07T11:05:11.982Z</time>
      </trkpt>
      <trkpt lat="48.53926" lon="2.07946">
        <ele>76</ele>
        <time>2021-03-07T11:05:12.982Z</time>
      </trkpt>
      <trkpt lat="48.53925" lon="2.07946">
        <ele>76</ele>
        <time>2021-03-07T11:05:13.982Z</time>
      </trkpt>
      <trkpt lat="48.53924" lon="2.07947">
        <ele>76</ele>
        <time>2021-03-07T11:05:14.982Z</time>
      </trkpt>
      <trkpt lat="48.53923" lon="2.07948">
        <ele>76</ele>
        <time>2021-03-07T11:05:15.982Z</time>
      </trkpt>
      <trkpt lat="48.53922" lon="2.0795">
        <ele>76</ele>
        <time>2021-03-07T11:05:16.982Z</time>
      </trkpt>
      <trkpt lat="48.53921" lon="2.07951">
        <ele>76</ele>
        <time>2021-03-07T11:05:17.982Z</time>
      </trkpt>
      <trkpt lat="48.53921" lon="2.07952">
        <ele>76</ele>
        <time>2021-03-07T11:05:18.982Z</time>
      </trkpt>
      <trkpt lat="48.5392" lon="2.07953">
        <ele>76</ele>
        <time>2021-03-07T11:05:19.982Z</time>
      </trkpt>
      <trkpt lat="48.53919" lon="2.07954">
        <ele>76</ele>
        <time>2021-03-07T11:05:20.982Z</time>
      </trkpt>
      <trkpt lat="48.53919" lon="2.07955">
        <ele>77</ele>
        <time>2021-03-07T11:05:21.982Z</time>
      </trkpt>
      <trkpt lat="48.53918" lon="2.07956">
        <ele>77</ele>
        <time>2021-03-07T11:05:22.982Z</time>
      </trkpt>
      <trkpt lat="48.53917" lon="2.07957">
        <ele>76</ele>
        <time>2021-03-07T11:05:23.982Z</time>
      </trkpt>
      <trkpt lat="48.53916" lon="2.07957">
        <ele>76</ele>
        <time>2021-03-07T11:05:24.982Z</time>
      </trkpt>
      <trkpt lat="48.53915" lon="2.07957">
        <ele>75</ele>
        <time>2021-03-07T11:05:25.982Z</time>
      </trkpt>
      <trkpt lat="48.53915" lon="2.07957">
        <ele>75</ele>
        <time>2021-03-07T11:05:26.982Z</time>
      </trkpt>
      <trkpt lat="48.53914" lon="2.07958">
        <ele>74</ele>
        <time>2021-03-07T11:05:27.982Z</time>
      </trkpt>
      <trkpt lat="48.53913" lon="2.07959">
        <ele>74</ele>
        <time>2021-03-07T11:05:28.982Z</time>
      </trkpt>
      <trkpt lat="48.53912" lon="2.0796">
        <ele>74</ele>
        <time>2021-03-07T11:05:29.982Z</time>
      </trkpt>
      <trkpt lat="48.53911" lon="2.07961">
        <ele>74</ele>
        <time>2021-03-07T11:05:30.981Z</time>
      </trkpt>
      <trkpt lat="48.5391" lon="2.07962">
        <ele>75</ele>
        <time>2021-03-07T11:05:31.981Z</time>
      </trkpt>
      <trkpt lat="48.53909" lon="2.07963">
        <ele>75</ele>
        <time>2021-03-07T11:05:32.982Z</time>
      </trkpt>
      <trkpt lat="48.53908" lon="2.07964">
        <ele>76</ele>
        <time>2021-03-07T11:05:33.982Z</time>
      </trkpt>
      <trkpt lat="48.53906" lon="2.07965">
        <ele>76</ele>
        <time>2021-03-07T11:05:34.982Z</time>
      </trkpt>
      <trkpt lat="48.53905" lon="2.07966">
        <ele>76</ele>
        <time>2021-03-07T11:05:35.982Z</time>
      </trkpt>
      <trkpt lat="48.53904" lon="2.07967">
        <ele>76</ele>
        <time>2021-03-07T11:05:36.981Z</time>
      </trkpt>
      <trkpt lat="48.53902" lon="2.07968">
        <ele>76</ele>
        <time>2021-03-07T11:05:37.981Z</time>
      </trkpt>
      <trkpt lat="48.53901" lon="2.07969">
        <ele>76</ele>
        <time>2021-03-07T11:05:38.981Z</time>
      </trkpt>
      <trkpt lat="48.53901" lon="2.0797">
        <ele>76</ele>
        <time>2021-03-07T11:05:39.981Z</time>
      </trkpt>
      <trkpt lat="48.539" lon="2.0797">
        <ele>76</ele>
        <time>2021-03-07T11:05:40.982Z</time>
      </trkpt>
      <trkpt lat="48.53899" lon="2.07971">
        <ele>77</ele>
        <time>2021-03-07T11:05:41.982Z</time>
      </trkpt>
      <trkpt lat="48.53898" lon="2.07971">
        <ele>77</ele>
        <time>2021-03-07T11:05:42.982Z</time>
      </trkpt>
      <trkpt lat="48.53897" lon="2.07972">
        <ele>77</ele>
        <time>2021-03-07T11:05:43.982Z</time>
      </trkpt>
      <trkpt lat="48.53897" lon="2.07972">
        <ele>77</ele>
        <time>2021-03-07T11:05:44.982Z</time>
      </trkpt>
      <trkpt lat="48.53896" lon="2.07972">
        <ele>77</ele>
        <time>2021-03-07T11:05:45.982Z</time>
      </trkpt>
      <trkpt lat="48.53896" lon="2.07973">
        <ele>77</ele>
        <time>2021-03-07T11:05:46.982Z</time>
      </trkpt>
      <trkpt lat="48.53895" lon="2.07974">
        <ele>77</ele>
        <time>2021-03-07T11:05:47.982Z</time>
      </trkpt>
      <trkpt lat="48.53894" lon="2.07975">
        <ele>78</ele>
        <time>2021-03-07T11:05:48.982Z</time>
      </trkpt>
      <trkpt lat="48.53893" lon="2.07976">
        <ele>78</ele>
        <time>2021-03-07T11:05:49.981Z</time>
      </trkpt>
      <trkpt lat="48.53891" lon="2.07978">
        <ele>78</ele>
        <time>2021-03-07T11:05:50.982Z</time>
      </trkpt>
      <trkpt lat="48.5389" lon="2.07979">
        <ele>78</ele>
        <time>2021-03-07T11:05:51.982Z</time>
      </trkpt>
      <trkpt lat="48.53889" lon="2.07979">
        <ele>77</ele>
        <time>2021-03-07T11:05:52.982Z</time>
      </trkpt>
      <trkpt lat="48.53887" lon="2.0798">
        <ele>77</ele>
        <time>2021-03-07T11:05:53.982Z</time>
      </trkpt>
      <trkpt lat="48.53886" lon="2.07981">
        <ele>77</ele>
        <time>2021-03-07T11:05:54.982Z</time>
      </trkpt>
      <trkpt lat="48.53885" lon="2.07982">
        <ele>77</ele>
        <time>2021-03-07T11:05:55.982Z</time>
      </trkpt>
      <trkpt lat="48.53883" lon="2.07983">
        <ele>77</ele>
        <time>2021-03-07T11:05:56.982Z</time>
      </trkpt>
      <trkpt lat="48.53882" lon="2.07984">
        <ele>77</ele>
        <time>2021-03-07T11:05:57.982Z</time>
      </trkpt>
      <trkpt lat="48.53881" lon="2.07986">
        <ele>77</ele>
        <time>2021-03-07T11:05:58.982Z</time>
      </trkpt>
      <trkpt lat="48.53879" lon="2.07986">
        <ele>78</ele>
        <time>2021-03-07T11:05:59.982Z</time>
      </trkpt>
      <trkpt lat="48.53878" lon="2.07986">
        <ele>78</ele>
        <time>2021-03-07T11:06:00.982Z</time>
      </trkpt>
      <trkpt lat="48.53877" lon="2.07986">
        <ele>79</ele>
        <time>2021-03-07T11:06:01.982Z</time>
      </trkpt>
      <trkpt lat="48.53876" lon="2.07986">
        <ele>79</ele>
        <time>2021-03-07T11:06:02.982Z</time>
      </trkpt>
      <trkpt lat="48.53874" lon="2.07986">
        <ele>80</ele>
        <time>2021-03-07T11:06:03.982Z</time>
      </trkpt>
      <trkpt lat="48.53873" lon="2.07985">
        <ele>80</ele>
        <time>2021-03-07T11:06:04.982Z</time>
      </trkpt>
      <trkpt lat="48.53872" lon="2.07984">
        <ele>81</ele>
        <time>2021-03-07T11:06:05.982Z</time>
      </trkpt>
      <trkpt lat="48.53871" lon="2.07981">
        <ele>81</ele>
        <time>2021-03-07T11:06:06.981Z</time>
      </trkpt>
      <trkpt lat="48.53871" lon="2.0798">
        <ele>81</ele>
        <time>2021-03-07T11:06:07.982Z</time>
      </trkpt>
      <trkpt lat="48.5387" lon="2.07978">
        <ele>81</ele>
        <time>2021-03-07T11:06:08.982Z</time>
      </trkpt>
      <trkpt lat="48.5387" lon="2.07976">
        <ele>82</ele>
        <time>2021-03-07T11:06:09.981Z</time>
      </trkpt>
      <trkpt lat="48.5387" lon="2.07975">
        <ele>82</ele>
        <time>2021-03-07T11:06:10.982Z</time>
      </trkpt>
      <trkpt lat="48.53869" lon="2.07973">
        <ele>82</ele>
        <time>2021-03-07T11:06:11.982Z</time>
      </trkpt>
      <trkpt lat="48.53869" lon="2.07973">
        <ele>82</ele>
        <time>2021-03-07T11:06:12.982Z</time>
      </trkpt>
      <trkpt lat="48.5387" lon="2.07974">
        <ele>82</ele>
        <time>2021-03-07T11:06:13.982Z</time>
      </trkpt>
      <trkpt lat="48.53869" lon="2.07973">
        <ele>82</ele>
        <time>2021-03-07T11:06:14.982Z</time>
      </trkpt>
      <trkpt lat="48.53869" lon="2.07973">
        <ele>82</ele>
        <time>2021-03-07T11:06:15.982Z</time>
      </trkpt>
      <trkpt lat="48.53869" lon="2.07972">
        <ele>83</ele>
        <time>2021-03-07T11:06:16.982Z</time>
      </trkpt>
      <trkpt lat="48.53869" lon="2.07972">
        <ele>83</ele>
        <time>2021-03-07T11:06:17.982Z</time>
      </trkpt>
      <trkpt lat="48.53869" lon="2.07971">
        <ele>84</ele>
        <time>2021-03-07T11:06:18.982Z</time>
      </trkpt>
      <trkpt lat="48.53869" lon="2.07971">
        <ele>84</ele>
        <time>2021-03-07T11:06:19.982Z</time>
      </trkpt>
      <trkpt lat="48.53869" lon="2.07971">
        <ele>84</ele>
        <time>2021-03-07T11:06:20.982Z</time>
      </trkpt>
      <trkpt lat="48.53869" lon="2.07971">
        <ele>85</ele>
        <time>2021-03-07T11:06:21.982Z</time>
      </trkpt>
      <trkpt lat="48.53869" lon="2.07972">
        <ele>85</ele>
        <time>2021-03-07T11:06:22.982Z</time>
      </trkpt>
      <trkpt lat="48.53869" lon="2.07972">
        <ele>85</ele>
        <time>2021-03-07T11:06:23.982Z</time>
      </trkpt>
      <trkpt lat="48.53869" lon="2.07973">
        <ele>85</ele>
        <time>2021-03-07T11:06:24.981Z</time>
      </trkpt>
      <trkpt lat="48.53869" lon="2.07973">
        <ele>85</ele>
        <time>2021-03-07T11:06:25.981Z</time>
      </trkpt>
      <trkpt lat="48.53869" lon="2.07973">
        <ele>85</ele>
        <time>2021-03-07T11:06:26.981Z</time>
      </trkpt>
      <trkpt lat="48.53869" lon="2.07973">
        <ele>85</ele>
        <time>2021-03-07T11:06:27.982Z</time>
      </trkpt>
      <trkpt lat="48.53869" lon="2.07973">
        <ele>85</ele>
        <time>2021-03-07T11:06:28.981Z</time>
      </trkpt>
      <trkpt lat="48.53869" lon="2.07973">
        <ele>85</ele>
        <time>2021-03-07T11:06:29.981Z</time>
      </trkpt>
      <trkpt lat="48.53869" lon="2.07973">
        <ele>85</ele>
        <time>2021-03-07T11:06:30.981Z</time>
      </trkpt>
      <trkpt lat="48.53869" lon="2.07973">
        <ele>85</ele>
        <time>2021-03-07T11:06:31.982Z</time>
      </trkpt>
      <trkpt lat="48.53869" lon="2.07973">
        <ele>85</ele>
        <time>2021-03-07T11:06:32.982Z</time>
      </trkpt>
      <trkpt lat="48.53869" lon="2.07973">
        <ele>85</ele>
        <time>2021-03-07T11:06:33.982Z</time>
      </trkpt>
      <trkpt lat="48.53869" lon="2.07973">
        <ele>85</ele>
        <time>2021-03-07T11:06:34.982Z</time>
      </trkpt>
      <trkpt lat="48.53869" lon="2.07973">
        <ele>85</ele>
        <time>2021-03-07T11:06:35.982Z</time>
      </trkpt>
      <trkpt lat="48.53869" lon="2.07973">
        <ele>85</ele>
        <time>2021-03-07T11:06:36.981Z</time>
      </trkpt>
      <trkpt lat="48.53869" lon="2.07973">
        <ele>85</ele>
        <time>2021-03-07T11:06:37.981Z</time>
      </trkpt>
      <trkpt lat="48.53869" lon="2.07973">
        <ele>84</ele>
        <time>2021-03-07T11:06:38.981Z</time>
      </trkpt>
      <trkpt lat="48.53869" lon="2.07973">
        <ele>84</ele>
        <time>2021-03-07T11:06:39.982Z</time>
      </trkpt>
      <trkpt lat="48.53869" lon="2.07973">
        <ele>84</ele>
        <time>2021-03-07T11:06:40.982Z</time>
      </trkpt>
      <trkpt lat="48.53869" lon="2.07972">
        <ele>84</ele>
        <time>2021-03-07T11:06:41.982Z</time>
      </trkpt>
      <trkpt lat="48.53868" lon="2.07972">
        <ele>84</ele>
        <time>2021-03-07T11:06:42.982Z</time>
      </trkpt>
      <trkpt lat="48.53868" lon="2.07972">
        <ele>84</ele>
        <time>2021-03-07T11:06:43.982Z</time>
      </trkpt>
      <trkpt lat="48.53868" lon="2.07972">
        <ele>84</ele>
        <time>2021-03-07T11:06:44.982Z</time>
      </trkpt>
      <trkpt lat="48.53868" lon="2.07972">
        <ele>84</ele>
        <time>2021-03-07T11:06:45.981Z</time>
      </trkpt>
      <trkpt lat="48.53868" lon="2.07972">
        <ele>84</ele>
        <time>2021-03-07T11:06:46.982Z</time>
      </trkpt>
      <trkpt lat="48.53868" lon="2.07972">
        <ele>84</ele>
        <time>2021-03-07T11:06:47.982Z</time>
      </trkpt>
      <trkpt lat="48.53868" lon="2.07972">
        <ele>84</ele>
        <time>2021-03-07T11:06:48.981Z</time>
      </trkpt>
      <trkpt lat="48.53868" lon="2.07972">
        <ele>84</ele>
        <time>2021-03-07T11:06:49.982Z</time>
      </trkpt>
      <trkpt lat="48.53868" lon="2.07972">
        <ele>84</ele>
        <time>2021-03-07T11:06:50.982Z</time>
      </trkpt>
      <trkpt lat="48.53868" lon="2.07972">
        <ele>84</ele>
        <time>2021-03-07T11:06:51.981Z</time>
      </trkpt>
      <trkpt lat="48.53868" lon="2.07972">
        <ele>84</ele>
        <time>2021-03-07T11:06:52.981Z</time>
      </trkpt>
      <trkpt lat="48.53868" lon="2.07972">
        <ele>84</ele>
        <time>2021-03-07T11:06:53.982Z</time>
      </trkpt>
      <trkpt lat="48.53868" lon="2.07972">
        <ele>84</ele>
        <time>2021-03-07T11:06:54.982Z</time>
      </trkpt>
      <trkpt lat="48.53868" lon="2.07972">
        <ele>84</ele>
        <time>2021-03-07T11:06:55.982Z</time>
      </trkpt>
      <trkpt lat="48.53868" lon="2.07972">
        <ele>84</ele>
        <time>2021-03-07T11:06:56.981Z</time>
      </trkpt>
      <trkpt lat="48.53868" lon="2.07972">
        <ele>83</ele>
        <time>2021-03-07T11:06:57.982Z</time>
      </trkpt>
      <trkpt lat="48.53868" lon="2.07972">
        <ele>83</ele>
        <time>2021-03-07T11:06:58.982Z</time>
      </trkpt>
      <trkpt lat="48.53868" lon="2.07972">
        <ele>83</ele>
        <time>2021-03-07T11:06:59.982Z</time>
      </trkpt>
      <trkpt lat="48.53868" lon="2.07972">
        <ele>83</ele>
        <time>2021-03-07T11:07:00.982Z</time>
      </trkpt>
      <trkpt lat="48.53868" lon="2.07971">
        <ele>83</ele>
        <time>2021-03-07T11:07:01.981Z</time>
      </trkpt>
      <trkpt lat="48.53868" lon="2.07971">
        <ele>83</ele>
        <time>2021-03-07T11:07:02.982Z</time>
      </trkpt>
      <trkpt lat="48.53868" lon="2.07971">
        <ele>83</ele>
        <time>2021-03-07T11:07:03.982Z</time>
      </trkpt>
      <trkpt lat="48.53868" lon="2.07971">
        <ele>83</ele>
        <time>2021-03-07T11:07:04.981Z</time>
      </trkpt>
      <trkpt lat="48.53868" lon="2.07971">
        <ele>83</ele>
        <time>2021-03-07T11:07:05.982Z</time>
      </trkpt>
      <trkpt lat="48.53868" lon="2.0797">
        <ele>83</ele>
        <time>2021-03-07T11:07:06.982Z</time>
      </trkpt>
      <trkpt lat="48.53868" lon="2.0797">
        <ele>83</ele>
        <time>2021-03-07T11:07:07.982Z</time>
      </trkpt>
      <trkpt lat="48.53868" lon="2.0797">
        <ele>83</ele>
        <time>2021-03-07T11:07:08.981Z</time>
      </trkpt>
      <trkpt lat="48.53868" lon="2.0797">
        <ele>83</ele>
        <time>2021-03-07T11:07:09.982Z</time>
      </trkpt>
      <trkpt lat="48.53868" lon="2.0797">
        <ele>83</ele>
        <time>2021-03-07T11:07:10.982Z</time>
      </trkpt>
      <trkpt lat="48.53868" lon="2.0797">
        <ele>84</ele>
        <time>2021-03-07T11:07:11.981Z</time>
      </trkpt>
      <trkpt lat="48.53868" lon="2.0797">
        <ele>84</ele>
        <time>2021-03-07T11:07:12.981Z</time>
      </trkpt>
      <trkpt lat="48.53868" lon="2.0797">
        <ele>84</ele>
        <time>2021-03-07T11:07:13.982Z</time>
      </trkpt>
      <trkpt lat="48.53868" lon="2.0797">
        <ele>84</ele>
        <time>2021-03-07T11:07:14.982Z</time>
      </trkpt>
      <trkpt lat="48.53868" lon="2.0797">
        <ele>84</ele>
        <time>2021-03-07T11:07:15.982Z</time>
      </trkpt>
      <trkpt lat="48.53868" lon="2.0797">
        <ele>84</ele>
        <time>2021-03-07T11:07:16.981Z</time>
      </trkpt>
      <trkpt lat="48.53868" lon="2.0797">
        <ele>84</ele>
        <time>2021-03-07T11:07:17.981Z</time>
      </trkpt>
      <trkpt lat="48.53868" lon="2.07969">
        <ele>84</ele>
        <time>2021-03-07T11:07:18.981Z</time>
      </trkpt>
      <trkpt lat="48.53869" lon="2.07969">
        <ele>84</ele>
        <time>2021-03-07T11:07:19.982Z</time>
      </trkpt>
      <trkpt lat="48.53869" lon="2.07969">
        <ele>84</ele>
        <time>2021-03-07T11:07:20.982Z</time>
      </trkpt>
      <trkpt lat="48.53869" lon="2.07969">
        <ele>84</ele>
        <time>2021-03-07T11:07:21.982Z</time>
      </trkpt>
      <trkpt lat="48.53869" lon="2.07969">
        <ele>84</ele>
        <time>2021-03-07T11:07:22.981Z</time>
      </trkpt>
      <trkpt lat="48.53869" lon="2.07969">
        <ele>84</ele>
        <time>2021-03-07T11:07:23.982Z</time>
      </trkpt>
      <trkpt lat="48.53869" lon="2.07969">
        <ele>84</ele>
        <time>2021-03-07T11:07:24.982Z</time>
      </trkpt>
      <trkpt lat="48.53868" lon="2.0797">
        <ele>84</ele>
        <time>2021-03-07T11:07:25.982Z</time>
      </trkpt>
      <trkpt lat="48.53867" lon="2.07972">
        <ele>84</ele>
        <time>2021-03-07T11:07:26.982Z</time>
      </trkpt>
      <trkpt lat="48.53865" lon="2.07975">
        <ele>84</ele>
        <time>2021-03-07T11:07:27.982Z</time>
      </trkpt>
      <trkpt lat="48.53864" lon="2.07976">
        <ele>84</ele>
        <time>2021-03-07T11:07:28.982Z</time>
      </trkpt>
      <trkpt lat="48.53864" lon="2.07978">
        <ele>84</ele>
        <time>2021-03-07T11:07:29.982Z</time>
      </trkpt>
      <trkpt lat="48.53863" lon="2.0798">
        <ele>84</ele>
        <time>2021-03-07T11:07:30.982Z</time>
      </trkpt>
      <trkpt lat="48.53862" lon="2.07982">
        <ele>83</ele>
        <time>2021-03-07T11:07:31.982Z</time>
      </trkpt>
      <trkpt lat="48.53861" lon="2.07983">
        <ele>83</ele>
        <time>2021-03-07T11:07:32.982Z</time>
      </trkpt>
      <trkpt lat="48.5386" lon="2.07986">
        <ele>83</ele>
        <time>2021-03-07T11:07:33.981Z</time>
      </trkpt>
      <trkpt lat="48.53859" lon="2.07988">
        <ele>83</ele>
        <time>2021-03-07T11:07:34.981Z</time>
      </trkpt>
      <trkpt lat="48.53858" lon="2.07989">
        <ele>83</ele>
        <time>2021-03-07T11:07:35.982Z</time>
      </trkpt>
      <trkpt lat="48.53857" lon="2.0799">
        <ele>83</ele>
        <time>2021-03-07T11:07:36.982Z</time>
      </trkpt>
      <trkpt lat="48.53856" lon="2.07992">
        <ele>83</ele>
        <time>2021-03-07T11:07:37.982Z</time>
      </trkpt>
      <trkpt lat="48.53856" lon="2.07993">
        <ele>82</ele>
        <time>2021-03-07T11:07:38.981Z</time>
      </trkpt>
      <trkpt lat="48.53855" lon="2.07994">
        <ele>81</ele>
        <time>2021-03-07T11:07:39.982Z</time>
      </trkpt>
      <trkpt lat="48.53854" lon="2.07994">
        <ele>80</ele>
        <time>2021-03-07T11:07:40.982Z</time>
      </trkpt>
      <trkpt lat="48.53853" lon="2.07995">
        <ele>79</ele>
        <time>2021-03-07T11:07:41.982Z</time>
      </trkpt>
      <trkpt lat="48.53852" lon="2.07996">
        <ele>78</ele>
        <time>2021-03-07T11:07:42.982Z</time>
      </trkpt>
      <trkpt lat="48.53851" lon="2.07997">
        <ele>78</ele>
        <time>2021-03-07T11:07:43.982Z</time>
      </trkpt>
      <trkpt lat="48.53851" lon="2.07998">
        <ele>78</ele>
        <time>2021-03-07T11:07:44.982Z</time>
      </trkpt>
      <trkpt lat="48.5385" lon="2.07998">
        <ele>78</ele>
        <time>2021-03-07T11:07:45.982Z</time>
      </trkpt>
      <trkpt lat="48.5385" lon="2.07998">
        <ele>77</ele>
        <time>2021-03-07T11:07:46.982Z</time>
      </trkpt>
      <trkpt lat="48.53849" lon="2.07999">
        <ele>77</ele>
        <time>2021-03-07T11:07:47.982Z</time>
      </trkpt>
      <trkpt lat="48.53848" lon="2.08">
        <ele>77</ele>
        <time>2021-03-07T11:07:48.982Z</time>
      </trkpt>
      <trkpt lat="48.53847" lon="2.08001">
        <ele>77</ele>
        <time>2021-03-07T11:07:49.982Z</time>
      </trkpt>
      <trkpt lat="48.53846" lon="2.08002">
        <ele>76</ele>
        <time>2021-03-07T11:07:50.982Z</time>
      </trkpt>
      <trkpt lat="48.53845" lon="2.08004">
        <ele>76</ele>
        <time>2021-03-07T11:07:51.981Z</time>
      </trkpt>
      <trkpt lat="48.53844" lon="2.08005">
        <ele>76</ele>
        <time>2021-03-07T11:07:52.982Z</time>
      </trkpt>
      <trkpt lat="48.53842" lon="2.08006">
        <ele>77</ele>
        <time>2021-03-07T11:07:53.982Z</time>
      </trkpt>
      <trkpt lat="48.5384" lon="2.08008">
        <ele>77</ele>
        <time>2021-03-07T11:07:54.982Z</time>
      </trkpt>
      <trkpt lat="48.53839" lon="2.08009">
        <ele>78</ele>
        <time>2021-03-07T11:07:55.981Z</time>
      </trkpt>
      <trkpt lat="48.53838" lon="2.08011">
        <ele>78</ele>
        <time>2021-03-07T11:07:56.981Z</time>
      </trkpt>
      <trkpt lat="48.53838" lon="2.08012">
        <ele>79</ele>
        <time>2021-03-07T11:07:57.981Z</time>
      </trkpt>
      <trkpt lat="48.53838" lon="2.08012">
        <ele>79</ele>
        <time>2021-03-07T11:07:58.982Z</time>
      </trkpt>
      <trkpt lat="48.53836" lon="2.08013">
        <ele>78</ele>
        <time>2021-03-07T11:07:59.982Z</time>
      </trkpt>
      <trkpt lat="48.53835" lon="2.08015">
        <ele>78</ele>
        <time>2021-03-07T11:08:00.982Z</time>
      </trkpt>
      <trkpt lat="48.53834" lon="2.08015">
        <ele>78</ele>
        <time>2021-03-07T11:08:01.982Z</time>
      </trkpt>
      <trkpt lat="48.53833" lon="2.08016">
        <ele>78</ele>
        <time>2021-03-07T11:08:02.982Z</time>
      </trkpt>
      <trkpt lat="48.53832" lon="2.08017">
        <ele>78</ele>
        <time>2021-03-07T11:08:03.982Z</time>
      </trkpt>
      <trkpt lat="48.53831" lon="2.08018">
        <ele>78</ele>
        <time>2021-03-07T11:08:04.982Z</time>
      </trkpt>
      <trkpt lat="48.5383" lon="2.08018">
        <ele>78</ele>
        <time>2021-03-07T11:08:05.982Z</time>
      </trkpt>
      <trkpt lat="48.53828" lon="2.08019">
        <ele>78</ele>
        <time>2021-03-07T11:08:06.982Z</time>
      </trkpt>
      <trkpt lat="48.53827" lon="2.0802">
        <ele>78</ele>
        <time>2021-03-07T11:08:07.982Z</time>
      </trkpt>
      <trkpt lat="48.53826" lon="2.08022">
        <ele>78</ele>
        <time>2021-03-07T11:08:08.982Z</time>
      </trkpt>
      <trkpt lat="48.53823" lon="2.08023">
        <ele>78</ele>
        <time>2021-03-07T11:08:09.982Z</time>
      </trkpt>
      <trkpt lat="48.53822" lon="2.08024">
        <ele>78</ele>
        <time>2021-03-07T11:08:10.982Z</time>
      </trkpt>
      <trkpt lat="48.53821" lon="2.08025">
        <ele>78</ele>
        <time>2021-03-07T11:08:11.982Z</time>
      </trkpt>
      <trkpt lat="48.5382" lon="2.08025">
        <ele>78</ele>
        <time>2021-03-07T11:08:12.982Z</time>
      </trkpt>
      <trkpt lat="48.53818" lon="2.08026">
        <ele>78</ele>
        <time>2021-03-07T11:08:13.982Z</time>
      </trkpt>
      <trkpt lat="48.53817" lon="2.08027">
        <ele>78</ele>
        <time>2021-03-07T11:08:14.981Z</time>
      </trkpt>
      <trkpt lat="48.53806" lon="2.08035">
        <ele>81</ele>
        <time>2021-03-07T11:08:26.746Z</time>
      </trkpt>
      <trkpt lat="48.53805" lon="2.08036">
        <ele>81</ele>
        <time>2021-03-07T11:08:27.746Z</time>
      </trkpt>
      <trkpt lat="48.53803" lon="2.08037">
        <ele>81</ele>
        <time>2021-03-07T11:08:28.745Z</time>
      </trkpt>
      <trkpt lat="48.53802" lon="2.08038">
        <ele>80</ele>
        <time>2021-03-07T11:08:29.746Z</time>
      </trkpt>
      <trkpt lat="48.53801" lon="2.08039">
        <ele>80</ele>
        <time>2021-03-07T11:08:30.745Z</time>
      </trkpt>
      <trkpt lat="48.53799" lon="2.08039">
        <ele>80</ele>
        <time>2021-03-07T11:08:31.745Z</time>
      </trkpt>
      <trkpt lat="48.53798" lon="2.0804">
        <ele>80</ele>
        <time>2021-03-07T11:08:32.745Z</time>
      </trkpt>
      <trkpt lat="48.53797" lon="2.08041">
        <ele>80</ele>
        <time>2021-03-07T11:08:33.745Z</time>
      </trkpt>
      <trkpt lat="48.53796" lon="2.08042">
        <ele>80</ele>
        <time>2021-03-07T11:08:34.746Z</time>
      </trkpt>
      <trkpt lat="48.53794" lon="2.08043">
        <ele>80</ele>
        <time>2021-03-07T11:08:35.745Z</time>
      </trkpt>
      <trkpt lat="48.53793" lon="2.08045">
        <ele>79</ele>
        <time>2021-03-07T11:08:36.745Z</time>
      </trkpt>
      <trkpt lat="48.53792" lon="2.08047">
        <ele>79</ele>
        <time>2021-03-07T11:08:37.745Z</time>
      </trkpt>
      <trkpt lat="48.53791" lon="2.08049">
        <ele>79</ele>
        <time>2021-03-07T11:08:38.745Z</time>
      </trkpt>
      <trkpt lat="48.5379" lon="2.08049">
        <ele>79</ele>
        <time>2021-03-07T11:08:39.746Z</time>
      </trkpt>
      <trkpt lat="48.5379" lon="2.08049">
        <ele>79</ele>
        <time>2021-03-07T11:08:40.746Z</time>
      </trkpt>
      <trkpt lat="48.53789" lon="2.08049">
        <ele>79</ele>
        <time>2021-03-07T11:08:41.746Z</time>
      </trkpt>
      <trkpt lat="48.53789" lon="2.08049">
        <ele>79</ele>
        <time>2021-03-07T11:08:42.746Z</time>
      </trkpt>
      <trkpt lat="48.53787" lon="2.08051">
        <ele>79</ele>
        <time>2021-03-07T11:08:43.746Z</time>
      </trkpt>
      <trkpt lat="48.53786" lon="2.08052">
        <ele>79</ele>
        <time>2021-03-07T11:08:44.746Z</time>
      </trkpt>
      <trkpt lat="48.53785" lon="2.08053">
        <ele>80</ele>
        <time>2021-03-07T11:08:45.746Z</time>
      </trkpt>
      <trkpt lat="48.53783" lon="2.08055">
        <ele>80</ele>
        <time>2021-03-07T11:08:46.746Z</time>
      </trkpt>
      <trkpt lat="48.53781" lon="2.08056">
        <ele>81</ele>
        <time>2021-03-07T11:08:47.746Z</time>
      </trkpt>
      <trkpt lat="48.5378" lon="2.08056">
        <ele>81</ele>
        <time>2021-03-07T11:08:48.746Z</time>
      </trkpt>
      <trkpt lat="48.53779" lon="2.08057">
        <ele>82</ele>
        <time>2021-03-07T11:08:49.746Z</time>
      </trkpt>
      <trkpt lat="48.53778" lon="2.08058">
        <ele>82</ele>
        <time>2021-03-07T11:08:50.746Z</time>
      </trkpt>
      <trkpt lat="48.53777" lon="2.08059">
        <ele>81</ele>
        <time>2021-03-07T11:08:51.746Z</time>
      </trkpt>
      <trkpt lat="48.53775" lon="2.0806">
        <ele>81</ele>
        <time>2021-03-07T11:08:52.746Z</time>
      </trkpt>
      <trkpt lat="48.53774" lon="2.08061">
        <ele>81</ele>
        <time>2021-03-07T11:08:53.746Z</time>
      </trkpt>
      <trkpt lat="48.53773" lon="2.08062">
        <ele>80</ele>
        <time>2021-03-07T11:08:54.746Z</time>
      </trkpt>
      <trkpt lat="48.53771" lon="2.08063">
        <ele>80</ele>
        <time>2021-03-07T11:08:55.746Z</time>
      </trkpt>
      <trkpt lat="48.5377" lon="2.08064">
        <ele>79</ele>
        <time>2021-03-07T11:08:56.745Z</time>
      </trkpt>
      <trkpt lat="48.53769" lon="2.08066">
        <ele>79</ele>
        <time>2021-03-07T11:08:57.745Z</time>
      </trkpt>
      <trkpt lat="48.53768" lon="2.08066">
        <ele>79</ele>
        <time>2021-03-07T11:08:58.745Z</time>
      </trkpt>
      <trkpt lat="48.53767" lon="2.08067">
        <ele>78</ele>
        <time>2021-03-07T11:08:59.745Z</time>
      </trkpt>
      <trkpt lat="48.53766" lon="2.08068">
        <ele>78</ele>
        <time>2021-03-07T11:09:00.746Z</time>
      </trkpt>
      <trkpt lat="48.53764" lon="2.08069">
        <ele>78</ele>
        <time>2021-03-07T11:09:01.746Z</time>
      </trkpt>
      <trkpt lat="48.53763" lon="2.08069">
        <ele>78</ele>
        <time>2021-03-07T11:09:02.745Z</time>
      </trkpt>
      <trkpt lat="48.53761" lon="2.08069">
        <ele>78</ele>
        <time>2021-03-07T11:09:03.745Z</time>
      </trkpt>
      <trkpt lat="48.5376" lon="2.0807">
        <ele>77</ele>
        <time>2021-03-07T11:09:04.746Z</time>
      </trkpt>
      <trkpt lat="48.53758" lon="2.08072">
        <ele>77</ele>
        <time>2021-03-07T11:09:05.746Z</time>
      </trkpt>
      <trkpt lat="48.53756" lon="2.08074">
        <ele>77</ele>
        <time>2021-03-07T11:09:06.746Z</time>
      </trkpt>
      <trkpt lat="48.53754" lon="2.08076">
        <ele>77</ele>
        <time>2021-03-07T11:09:07.745Z</time>
      </trkpt>
      <trkpt lat="48.53752" lon="2.08078">
        <ele>77</ele>
        <time>2021-03-07T11:09:08.746Z</time>
      </trkpt>
      <trkpt lat="48.5375" lon="2.08079">
        <ele>78</ele>
        <time>2021-03-07T11:09:09.745Z</time>
      </trkpt>
      <trkpt lat="48.53749" lon="2.08081">
        <ele>78</ele>
        <time>2021-03-07T11:09:10.745Z</time>
      </trkpt>
      <trkpt lat="48.53747" lon="2.08082">
        <ele>78</ele>
        <time>2021-03-07T11:09:11.745Z</time>
      </trkpt>
      <trkpt lat="48.53745" lon="2.08083">
        <ele>78</ele>
        <time>2021-03-07T11:09:12.745Z</time>
      </trkpt>
      <trkpt lat="48.53744" lon="2.08084">
        <ele>78</ele>
        <time>2021-03-07T11:09:13.746Z</time>
      </trkpt>
      <trkpt lat="48.53742" lon="2.08085">
        <ele>79</ele>
        <time>2021-03-07T11:09:14.746Z</time>
      </trkpt>
      <trkpt lat="48.53741" lon="2.08085">
        <ele>79</ele>
        <time>2021-03-07T11:09:15.746Z</time>
      </trkpt>
      <trkpt lat="48.5374" lon="2.08085">
        <ele>78</ele>
        <time>2021-03-07T11:09:16.746Z</time>
      </trkpt>
      <trkpt lat="48.53739" lon="2.08086">
        <ele>78</ele>
        <time>2021-03-07T11:09:17.746Z</time>
      </trkpt>
      <trkpt lat="48.53738" lon="2.08086">
        <ele>78</ele>
        <time>2021-03-07T11:09:18.746Z</time>
      </trkpt>
      <trkpt lat="48.53737" lon="2.08086">
        <ele>78</ele>
        <time>2021-03-07T11:09:19.745Z</time>
      </trkpt>
      <trkpt lat="48.53735" lon="2.08087">
        <ele>77</ele>
        <time>2021-03-07T11:09:20.745Z</time>
      </trkpt>
      <trkpt lat="48.53734" lon="2.08088">
        <ele>77</ele>
        <time>2021-03-07T11:09:21.745Z</time>
      </trkpt>
      <trkpt lat="48.53733" lon="2.08088">
        <ele>77</ele>
        <time>2021-03-07T11:09:22.746Z</time>
      </trkpt>
      <trkpt lat="48.53731" lon="2.08089">
        <ele>76</ele>
        <time>2021-03-07T11:09:23.746Z</time>
      </trkpt>
      <trkpt lat="48.5373" lon="2.08089">
        <ele>75</ele>
        <time>2021-03-07T11:09:24.745Z</time>
      </trkpt>
      <trkpt lat="48.53729" lon="2.08089">
        <ele>75</ele>
        <time>2021-03-07T11:09:25.745Z</time>
      </trkpt>
      <trkpt lat="48.53728" lon="2.08089">
        <ele>75</ele>
        <time>2021-03-07T11:09:26.746Z</time>
      </trkpt>
      <trkpt lat="48.53727" lon="2.0809">
        <ele>74</ele>
        <time>2021-03-07T11:09:27.745Z</time>
      </trkpt>
      <trkpt lat="48.53726" lon="2.0809">
        <ele>74</ele>
        <time>2021-03-07T11:09:28.746Z</time>
      </trkpt>
      <trkpt lat="48.53724" lon="2.08091">
        <ele>74</ele>
        <time>2021-03-07T11:09:29.746Z</time>
      </trkpt>
      <trkpt lat="48.53723" lon="2.08092">
        <ele>74</ele>
        <time>2021-03-07T11:09:30.746Z</time>
      </trkpt>
      <trkpt lat="48.53722" lon="2.08093">
        <ele>74</ele>
        <time>2021-03-07T11:09:31.745Z</time>
      </trkpt>
      <trkpt lat="48.5372" lon="2.08093">
        <ele>74</ele>
        <time>2021-03-07T11:09:32.745Z</time>
      </trkpt>
      <trkpt lat="48.53719" lon="2.08094">
        <ele>74</ele>
        <time>2021-03-07T11:09:33.745Z</time>
      </trkpt>
      <trkpt lat="48.53718" lon="2.08094">
        <ele>74</ele>
        <time>2021-03-07T11:09:34.746Z</time>
      </trkpt>
      <trkpt lat="48.53716" lon="2.08095">
        <ele>74</ele>
        <time>2021-03-07T11:09:35.746Z</time>
      </trkpt>
      <trkpt lat="48.53715" lon="2.08095">
        <ele>74</ele>
        <time>2021-03-07T11:09:36.746Z</time>
      </trkpt>
      <trkpt lat="48.53714" lon="2.08095">
        <ele>73</ele>
        <time>2021-03-07T11:09:37.745Z</time>
      </trkpt>
      <trkpt lat="48.53713" lon="2.08095">
        <ele>73</ele>
        <time>2021-03-07T11:09:38.745Z</time>
      </trkpt>
      <trkpt lat="48.53711" lon="2.08096">
        <ele>73</ele>
        <time>2021-03-07T11:09:39.746Z</time>
      </trkpt>
      <trkpt lat="48.5371" lon="2.08096">
        <ele>73</ele>
        <time>2021-03-07T11:09:40.746Z</time>
      </trkpt>
      <trkpt lat="48.53709" lon="2.08096">
        <ele>73</ele>
        <time>2021-03-07T11:09:41.745Z</time>
      </trkpt>
      <trkpt lat="48.53708" lon="2.08097">
        <ele>73</ele>
        <time>2021-03-07T11:09:42.746Z</time>
      </trkpt>
      <trkpt lat="48.53706" lon="2.08097">
        <ele>73</ele>
        <time>2021-03-07T11:09:43.746Z</time>
      </trkpt>
      <trkpt lat="48.53705" lon="2.08097">
        <ele>73</ele>
        <time>2021-03-07T11:09:44.746Z</time>
      </trkpt>
      <trkpt lat="48.53704" lon="2.08097">
        <ele>73</ele>
        <time>2021-03-07T11:09:45.745Z</time>
      </trkpt>
      <trkpt lat="48.53703" lon="2.08097">
        <ele>73</ele>
        <time>2021-03-07T11:09:46.745Z</time>
      </trkpt>
      <trkpt lat="48.53701" lon="2.08097">
        <ele>73</ele>
        <time>2021-03-07T11:09:47.746Z</time>
      </trkpt>
      <trkpt lat="48.537" lon="2.08097">
        <ele>73</ele>
        <time>2021-03-07T11:09:48.746Z</time>
      </trkpt>
      <trkpt lat="48.53699" lon="2.08098">
        <ele>73</ele>
        <time>2021-03-07T11:09:49.745Z</time>
      </trkpt>
      <trkpt lat="48.53697" lon="2.08098">
        <ele>73</ele>
        <time>2021-03-07T11:09:50.745Z</time>
      </trkpt>
      <trkpt lat="48.53696" lon="2.08098">
        <ele>72</ele>
        <time>2021-03-07T11:09:51.746Z</time>
      </trkpt>
      <trkpt lat="48.53694" lon="2.08098">
        <ele>72</ele>
        <time>2021-03-07T11:09:52.746Z</time>
      </trkpt>
      <trkpt lat="48.53693" lon="2.08098">
        <ele>72</ele>
        <time>2021-03-07T11:09:53.745Z</time>
      </trkpt>
      <trkpt lat="48.53692" lon="2.08098">
        <ele>72</ele>
        <time>2021-03-07T11:09:54.746Z</time>
      </trkpt>
      <trkpt lat="48.53691" lon="2.08098">
        <ele>72</ele>
        <time>2021-03-07T11:09:55.745Z</time>
      </trkpt>
      <trkpt lat="48.5369" lon="2.08098">
        <ele>72</ele>
        <time>2021-03-07T11:09:56.745Z</time>
      </trkpt>
      <trkpt lat="48.53688" lon="2.08098">
        <ele>72</ele>
        <time>2021-03-07T11:09:57.745Z</time>
      </trkpt>
      <trkpt lat="48.53687" lon="2.08097">
        <ele>72</ele>
        <time>2021-03-07T11:09:58.745Z</time>
      </trkpt>
      <trkpt lat="48.53686" lon="2.08097">
        <ele>73</ele>
        <time>2021-03-07T11:09:59.745Z</time>
      </trkpt>
      <trkpt lat="48.53685" lon="2.08098">
        <ele>73</ele>
        <time>2021-03-07T11:10:00.746Z</time>
      </trkpt>
      <trkpt lat="48.53684" lon="2.08098">
        <ele>73</ele>
        <time>2021-03-07T11:10:01.746Z</time>
      </trkpt>
      <trkpt lat="48.53683" lon="2.08098">
        <ele>73</ele>
        <time>2021-03-07T11:10:02.746Z</time>
      </trkpt>
      <trkpt lat="48.53681" lon="2.08098">
        <ele>73</ele>
        <time>2021-03-07T11:10:03.746Z</time>
      </trkpt>
      <trkpt lat="48.5368" lon="2.08099">
        <ele>72</ele>
        <time>2021-03-07T11:10:04.746Z</time>
      </trkpt>
      <trkpt lat="48.53679" lon="2.08099">
        <ele>72</ele>
        <time>2021-03-07T11:10:05.746Z</time>
      </trkpt>
      <trkpt lat="48.53677" lon="2.081">
        <ele>72</ele>
        <time>2021-03-07T11:10:06.746Z</time>
      </trkpt>
      <trkpt lat="48.53676" lon="2.081">
        <ele>72</ele>
        <time>2021-03-07T11:10:07.745Z</time>
      </trkpt>
      <trkpt lat="48.53675" lon="2.081">
        <ele>71</ele>
        <time>2021-03-07T11:10:08.746Z</time>
      </trkpt>
      <trkpt lat="48.53673" lon="2.081">
        <ele>71</ele>
        <time>2021-03-07T11:10:09.745Z</time>
      </trkpt>
      <trkpt lat="48.53672" lon="2.081">
        <ele>71</ele>
        <time>2021-03-07T11:10:10.746Z</time>
      </trkpt>
      <trkpt lat="48.5367" lon="2.08101">
        <ele>71</ele>
        <time>2021-03-07T11:10:11.746Z</time>
      </trkpt>
      <trkpt lat="48.53669" lon="2.08101">
        <ele>72</ele>
        <time>2021-03-07T11:10:12.746Z</time>
      </trkpt>
      <trkpt lat="48.53667" lon="2.08102">
        <ele>72</ele>
        <time>2021-03-07T11:10:13.746Z</time>
      </trkpt>
      <trkpt lat="48.53666" lon="2.08103">
        <ele>73</ele>
        <time>2021-03-07T11:10:14.746Z</time>
      </trkpt>
      <trkpt lat="48.53664" lon="2.08104">
        <ele>73</ele>
        <time>2021-03-07T11:10:15.746Z</time>
      </trkpt>
      <trkpt lat="48.53663" lon="2.08104">
        <ele>74</ele>
        <time>2021-03-07T11:10:16.746Z</time>
      </trkpt>
      <trkpt lat="48.53661" lon="2.08105">
        <ele>74</ele>
        <time>2021-03-07T11:10:17.746Z</time>
      </trkpt>
      <trkpt lat="48.5366" lon="2.08106">
        <ele>74</ele>
        <time>2021-03-07T11:10:18.746Z</time>
      </trkpt>
      <trkpt lat="48.53659" lon="2.08107">
        <ele>75</ele>
        <time>2021-03-07T11:10:19.746Z</time>
      </trkpt>
      <trkpt lat="48.53657" lon="2.08107">
        <ele>75</ele>
        <time>2021-03-07T11:10:20.745Z</time>
      </trkpt>
      <trkpt lat="48.53656" lon="2.08108">
        <ele>75</ele>
        <time>2021-03-07T11:10:21.746Z</time>
      </trkpt>
      <trkpt lat="48.53654" lon="2.08109">
        <ele>75</ele>
        <time>2021-03-07T11:10:22.746Z</time>
      </trkpt>
      <trkpt lat="48.53653" lon="2.0811">
        <ele>75</ele>
        <time>2021-03-07T11:10:23.746Z</time>
      </trkpt>
      <trkpt lat="48.53652" lon="2.08111">
        <ele>75</ele>
        <time>2021-03-07T11:10:24.746Z</time>
      </trkpt>
      <trkpt lat="48.5365" lon="2.08111">
        <ele>75</ele>
        <time>2021-03-07T11:10:25.746Z</time>
      </trkpt>
      <trkpt lat="48.53649" lon="2.08112">
        <ele>74</ele>
        <time>2021-03-07T11:10:26.746Z</time>
      </trkpt>
      <trkpt lat="48.53648" lon="2.08112">
        <ele>74</ele>
        <time>2021-03-07T11:10:27.745Z</time>
      </trkpt>
      <trkpt lat="48.53647" lon="2.08112">
        <ele>74</ele>
        <time>2021-03-07T11:10:28.745Z</time>
      </trkpt>
      <trkpt lat="48.53645" lon="2.08113">
        <ele>74</ele>
        <time>2021-03-07T11:10:29.746Z</time>
      </trkpt>
      <trkpt lat="48.53644" lon="2.08114">
        <ele>74</ele>
        <time>2021-03-07T11:10:30.746Z</time>
      </trkpt>
      <trkpt lat="48.53643" lon="2.08114">
        <ele>74</ele>
        <time>2021-03-07T11:10:31.746Z</time>
      </trkpt>
      <trkpt lat="48.53641" lon="2.08115">
        <ele>74</ele>
        <time>2021-03-07T11:10:32.746Z</time>
      </trkpt>
      <trkpt lat="48.5364" lon="2.08115">
        <ele>74</ele>
        <time>2021-03-07T11:10:33.746Z</time>
      </trkpt>
      <trkpt lat="48.53639" lon="2.08116">
        <ele>74</ele>
        <time>2021-03-07T11:10:34.746Z</time>
      </trkpt>
      <trkpt lat="48.53637" lon="2.08117">
        <ele>74</ele>
        <time>2021-03-07T11:10:35.745Z</time>
      </trkpt>
      <trkpt lat="48.53636" lon="2.08118">
        <ele>75</ele>
        <time>2021-03-07T11:10:36.745Z</time>
      </trkpt>
      <trkpt lat="48.53634" lon="2.08118">
        <ele>75</ele>
        <time>2021-03-07T11:10:37.745Z</time>
      </trkpt>
      <trkpt lat="48.53633" lon="2.08118">
        <ele>75</ele>
        <time>2021-03-07T11:10:38.745Z</time>
      </trkpt>
      <trkpt lat="48.53632" lon="2.08118">
        <ele>75</ele>
        <time>2021-03-07T11:10:39.746Z</time>
      </trkpt>
      <trkpt lat="48.53631" lon="2.08118">
        <ele>75</ele>
        <time>2021-03-07T11:10:40.746Z</time>
      </trkpt>
      <trkpt lat="48.53629" lon="2.08118">
        <ele>75</ele>
        <time>2021-03-07T11:10:41.745Z</time>
      </trkpt>
      <trkpt lat="48.53628" lon="2.08118">
        <ele>75</ele>
        <time>2021-03-07T11:10:42.745Z</time>
      </trkpt>
      <trkpt lat="48.53627" lon="2.08118">
        <ele>75</ele>
        <time>2021-03-07T11:10:43.745Z</time>
      </trkpt>
      <trkpt lat="48.53625" lon="2.08118">
        <ele>76</ele>
        <time>2021-03-07T11:10:44.746Z</time>
      </trkpt>
      <trkpt lat="48.53624" lon="2.08118">
        <ele>76</ele>
        <time>2021-03-07T11:10:45.746Z</time>
      </trkpt>
      <trkpt lat="48.53623" lon="2.08119">
        <ele>76</ele>
        <time>2021-03-07T11:10:46.746Z</time>
      </trkpt>
      <trkpt lat="48.53621" lon="2.08119">
        <ele>76</ele>
        <time>2021-03-07T11:10:47.746Z</time>
      </trkpt>
      <trkpt lat="48.5362" lon="2.0812">
        <ele>76</ele>
        <time>2021-03-07T11:10:48.746Z</time>
      </trkpt>
      <trkpt lat="48.53619" lon="2.0812">
        <ele>75</ele>
        <time>2021-03-07T11:10:49.745Z</time>
      </trkpt>
      <trkpt lat="48.53618" lon="2.0812">
        <ele>75</ele>
        <time>2021-03-07T11:10:50.746Z</time>
      </trkpt>
      <trkpt lat="48.53617" lon="2.0812">
        <ele>75</ele>
        <time>2021-03-07T11:10:51.746Z</time>
      </trkpt>
      <trkpt lat="48.53616" lon="2.08121">
        <ele>75</ele>
        <time>2021-03-07T11:10:52.746Z</time>
      </trkpt>
      <trkpt lat="48.53615" lon="2.08122">
        <ele>75</ele>
        <time>2021-03-07T11:10:53.745Z</time>
      </trkpt>
      <trkpt lat="48.53613" lon="2.08123">
        <ele>75</ele>
        <time>2021-03-07T11:10:54.746Z</time>
      </trkpt>
      <trkpt lat="48.53613" lon="2.08124">
        <ele>76</ele>
        <time>2021-03-07T11:10:55.746Z</time>
      </trkpt>
      <trkpt lat="48.53612" lon="2.08125">
        <ele>76</ele>
        <time>2021-03-07T11:10:56.746Z</time>
      </trkpt>
      <trkpt lat="48.53612" lon="2.08126">
        <ele>76</ele>
        <time>2021-03-07T11:10:57.746Z</time>
      </trkpt>
      <trkpt lat="48.53611" lon="2.08127">
        <ele>76</ele>
        <time>2021-03-07T11:10:58.746Z</time>
      </trkpt>
      <trkpt lat="48.53611" lon="2.08129">
        <ele>75</ele>
        <time>2021-03-07T11:10:59.746Z</time>
      </trkpt>
      <trkpt lat="48.5361" lon="2.0813">
        <ele>75</ele>
        <time>2021-03-07T11:11:00.746Z</time>
      </trkpt>
      <trkpt lat="48.5361" lon="2.08132">
        <ele>75</ele>
        <time>2021-03-07T11:11:01.746Z</time>
      </trkpt>
      <trkpt lat="48.5361" lon="2.08133">
        <ele>75</ele>
        <time>2021-03-07T11:11:02.746Z</time>
      </trkpt>
      <trkpt lat="48.5361" lon="2.08134">
        <ele>75</ele>
        <time>2021-03-07T11:11:03.746Z</time>
      </trkpt>
      <trkpt lat="48.5361" lon="2.08135">
        <ele>75</ele>
        <time>2021-03-07T11:11:04.746Z</time>
      </trkpt>
      <trkpt lat="48.53609" lon="2.08137">
        <ele>76</ele>
        <time>2021-03-07T11:11:05.746Z</time>
      </trkpt>
      <trkpt lat="48.53609" lon="2.08139">
        <ele>76</ele>
        <time>2021-03-07T11:11:06.746Z</time>
      </trkpt>
      <trkpt lat="48.53608" lon="2.08141">
        <ele>76</ele>
        <time>2021-03-07T11:11:07.746Z</time>
      </trkpt>
      <trkpt lat="48.53607" lon="2.08143">
        <ele>77</ele>
        <time>2021-03-07T11:11:08.745Z</time>
      </trkpt>
      <trkpt lat="48.53607" lon="2.08145">
        <ele>77</ele>
        <time>2021-03-07T11:11:09.745Z</time>
      </trkpt>
      <trkpt lat="48.53607" lon="2.08147">
        <ele>77</ele>
        <time>2021-03-07T11:11:10.745Z</time>
      </trkpt>
      <trkpt lat="48.53607" lon="2.08148">
        <ele>77</ele>
        <time>2021-03-07T11:11:11.745Z</time>
      </trkpt>
      <trkpt lat="48.53606" lon="2.0815">
        <ele>78</ele>
        <time>2021-03-07T11:11:12.746Z</time>
      </trkpt>
      <trkpt lat="48.53606" lon="2.08152">
        <ele>78</ele>
        <time>2021-03-07T11:11:13.746Z</time>
      </trkpt>
      <trkpt lat="48.53606" lon="2.08153">
        <ele>79</ele>
        <time>2021-03-07T11:11:14.746Z</time>
      </trkpt>
      <trkpt lat="48.53605" lon="2.08155">
        <ele>79</ele>
        <time>2021-03-07T11:11:15.746Z</time>
      </trkpt>
      <trkpt lat="48.53605" lon="2.08158">
        <ele>80</ele>
        <time>2021-03-07T11:11:16.746Z</time>
      </trkpt>
      <trkpt lat="48.53604" lon="2.0816">
        <ele>80</ele>
        <time>2021-03-07T11:11:17.745Z</time>
      </trkpt>
      <trkpt lat="48.53603" lon="2.08162">
        <ele>80</ele>
        <time>2021-03-07T11:11:18.746Z</time>
      </trkpt>
      <trkpt lat="48.53603" lon="2.08163">
        <ele>80</ele>
        <time>2021-03-07T11:11:19.746Z</time>
      </trkpt>
      <trkpt lat="48.53602" lon="2.08165">
        <ele>80</ele>
        <time>2021-03-07T11:11:20.746Z</time>
      </trkpt>
      <trkpt lat="48.53602" lon="2.08167">
        <ele>80</ele>
        <time>2021-03-07T11:11:21.746Z</time>
      </trkpt>
      <trkpt lat="48.53601" lon="2.08169">
        <ele>80</ele>
        <time>2021-03-07T11:11:22.746Z</time>
      </trkpt>
      <trkpt lat="48.536" lon="2.08171">
        <ele>80</ele>
        <time>2021-03-07T11:11:23.746Z</time>
      </trkpt>
      <trkpt lat="48.536" lon="2.08172">
        <ele>80</ele>
        <time>2021-03-07T11:11:24.746Z</time>
      </trkpt>
      <trkpt lat="48.53599" lon="2.08173">
        <ele>81</ele>
        <time>2021-03-07T11:11:25.745Z</time>
      </trkpt>
      <trkpt lat="48.53599" lon="2.08174">
        <ele>81</ele>
        <time>2021-03-07T11:11:26.746Z</time>
      </trkpt>
      <trkpt lat="48.53599" lon="2.08175">
        <ele>81</ele>
        <time>2021-03-07T11:11:27.745Z</time>
      </trkpt>
      <trkpt lat="48.53599" lon="2.08176">
        <ele>81</ele>
        <time>2021-03-07T11:11:28.746Z</time>
      </trkpt>
      <trkpt lat="48.53599" lon="2.08177">
        <ele>82</ele>
        <time>2021-03-07T11:11:29.746Z</time>
      </trkpt>
      <trkpt lat="48.53599" lon="2.08178">
        <ele>82</ele>
        <time>2021-03-07T11:11:30.745Z</time>
      </trkpt>
      <trkpt lat="48.53599" lon="2.08179">
        <ele>82</ele>
        <time>2021-03-07T11:11:31.745Z</time>
      </trkpt>
      <trkpt lat="48.53598" lon="2.08181">
        <ele>82</ele>
        <time>2021-03-07T11:11:32.745Z</time>
      </trkpt>
      <trkpt lat="48.53599" lon="2.08182">
        <ele>82</ele>
        <time>2021-03-07T11:11:33.745Z</time>
      </trkpt>
      <trkpt lat="48.53598" lon="2.08183">
        <ele>82</ele>
        <time>2021-03-07T11:11:34.746Z</time>
      </trkpt>
      <trkpt lat="48.53599" lon="2.08183">
        <ele>82</ele>
        <time>2021-03-07T11:11:35.746Z</time>
      </trkpt>
      <trkpt lat="48.53598" lon="2.08184">
        <ele>82</ele>
        <time>2021-03-07T11:11:36.745Z</time>
      </trkpt>
      <trkpt lat="48.53597" lon="2.08185">
        <ele>82</ele>
        <time>2021-03-07T11:11:37.745Z</time>
      </trkpt>
      <trkpt lat="48.53596" lon="2.08187">
        <ele>82</ele>
        <time>2021-03-07T11:11:38.745Z</time>
      </trkpt>
      <trkpt lat="48.53593" lon="2.0819">
        <ele>83</ele>
        <time>2021-03-07T11:11:39.745Z</time>
      </trkpt>
      <trkpt lat="48.53591" lon="2.08191">
        <ele>83</ele>
        <time>2021-03-07T11:11:40.746Z</time>
      </trkpt>
      <trkpt lat="48.5359" lon="2.08194">
        <ele>83</ele>
        <time>2021-03-07T11:11:41.746Z</time>
      </trkpt>
      <trkpt lat="48.53588" lon="2.08196">
        <ele>83</ele>
        <time>2021-03-07T11:11:42.746Z</time>
      </trkpt>
      <trkpt lat="48.53586" lon="2.08199">
        <ele>83</ele>
        <time>2021-03-07T11:11:43.746Z</time>
      </trkpt>
      <trkpt lat="48.53583" lon="2.08202">
        <ele>83</ele>
        <time>2021-03-07T11:11:44.746Z</time>
      </trkpt>
      <trkpt lat="48.53582" lon="2.08204">
        <ele>83</ele>
        <time>2021-03-07T11:11:45.746Z</time>
      </trkpt>
      <trkpt lat="48.53581" lon="2.08206">
        <ele>83</ele>
        <time>2021-03-07T11:11:46.746Z</time>
      </trkpt>
      <trkpt lat="48.5358" lon="2.08208">
        <ele>83</ele>
        <time>2021-03-07T11:11:47.746Z</time>
      </trkpt>
      <trkpt lat="48.5358" lon="2.08209">
        <ele>84</ele>
        <time>2021-03-07T11:11:48.746Z</time>
      </trkpt>
      <trkpt lat="48.53579" lon="2.0821">
        <ele>84</ele>
        <time>2021-03-07T11:11:49.746Z</time>
      </trkpt>
      <trkpt lat="48.53578" lon="2.08212">
        <ele>84</ele>
        <time>2021-03-07T11:11:50.746Z</time>
      </trkpt>
      <trkpt lat="48.53577" lon="2.08214">
        <ele>84</ele>
        <time>2021-03-07T11:11:51.746Z</time>
      </trkpt>
      <trkpt lat="48.53576" lon="2.08215">
        <ele>85</ele>
        <time>2021-03-07T11:11:52.746Z</time>
      </trkpt>
      <trkpt lat="48.53575" lon="2.08217">
        <ele>85</ele>
        <time>2021-03-07T11:11:53.746Z</time>
      </trkpt>
      <trkpt lat="48.53574" lon="2.08219">
        <ele>85</ele>
        <time>2021-03-07T11:11:54.746Z</time>
      </trkpt>
      <trkpt lat="48.53573" lon="2.08221">
        <ele>85</ele>
        <time>2021-03-07T11:11:55.746Z</time>
      </trkpt>
      <trkpt lat="48.53572" lon="2.08222">
        <ele>85</ele>
        <time>2021-03-07T11:11:56.745Z</time>
      </trkpt>
      <trkpt lat="48.53571" lon="2.08224">
        <ele>85</ele>
        <time>2021-03-07T11:11:57.746Z</time>
      </trkpt>
      <trkpt lat="48.5357" lon="2.08226">
        <ele>85</ele>
        <time>2021-03-07T11:11:58.746Z</time>
      </trkpt>
      <trkpt lat="48.5357" lon="2.08228">
        <ele>85</ele>
        <time>2021-03-07T11:11:59.746Z</time>
      </trkpt>
      <trkpt lat="48.5357" lon="2.08229">
        <ele>85</ele>
        <time>2021-03-07T11:12:00.746Z</time>
      </trkpt>
      <trkpt lat="48.53568" lon="2.08231">
        <ele>85</ele>
        <time>2021-03-07T11:12:01.746Z</time>
      </trkpt>
      <trkpt lat="48.53567" lon="2.08233">
        <ele>85</ele>
        <time>2021-03-07T11:12:02.746Z</time>
      </trkpt>
      <trkpt lat="48.53567" lon="2.08234">
        <ele>85</ele>
        <time>2021-03-07T11:12:03.746Z</time>
      </trkpt>
      <trkpt lat="48.53567" lon="2.08235">
        <ele>85</ele>
        <time>2021-03-07T11:12:04.746Z</time>
      </trkpt>
      <trkpt lat="48.53568" lon="2.08237">
        <ele>85</ele>
        <time>2021-03-07T11:12:05.746Z</time>
      </trkpt>
      <trkpt lat="48.53568" lon="2.08238">
        <ele>85</ele>
        <time>2021-03-07T11:12:06.746Z</time>
      </trkpt>
      <trkpt lat="48.53567" lon="2.0824">
        <ele>85</ele>
        <time>2021-03-07T11:12:07.745Z</time>
      </trkpt>
      <trkpt lat="48.53565" lon="2.08242">
        <ele>86</ele>
        <time>2021-03-07T11:12:08.745Z</time>
      </trkpt>
      <trkpt lat="48.53564" lon="2.08245">
        <ele>86</ele>
        <time>2021-03-07T11:12:09.745Z</time>
      </trkpt>
      <trkpt lat="48.53563" lon="2.08247">
        <ele>87</ele>
        <time>2021-03-07T11:12:10.746Z</time>
      </trkpt>
      <trkpt lat="48.53563" lon="2.08249">
        <ele>87</ele>
        <time>2021-03-07T11:12:11.746Z</time>
      </trkpt>
      <trkpt lat="48.53561" lon="2.08251">
        <ele>87</ele>
        <time>2021-03-07T11:12:12.745Z</time>
      </trkpt>
      <trkpt lat="48.5356" lon="2.08253">
        <ele>88</ele>
        <time>2021-03-07T11:12:13.745Z</time>
      </trkpt>
      <trkpt lat="48.53559" lon="2.08256">
        <ele>89</ele>
        <time>2021-03-07T11:12:14.746Z</time>
      </trkpt>
      <trkpt lat="48.53558" lon="2.08257">
        <ele>89</ele>
        <time>2021-03-07T11:12:15.746Z</time>
      </trkpt>
      <trkpt lat="48.53557" lon="2.08259">
        <ele>90</ele>
        <time>2021-03-07T11:12:16.745Z</time>
      </trkpt>
      <trkpt lat="48.53557" lon="2.08261">
        <ele>90</ele>
        <time>2021-03-07T11:12:17.746Z</time>
      </trkpt>
      <trkpt lat="48.53556" lon="2.08262">
        <ele>90</ele>
        <time>2021-03-07T11:12:18.746Z</time>
      </trkpt>
      <trkpt lat="48.53556" lon="2.08264">
        <ele>90</ele>
        <time>2021-03-07T11:12:19.746Z</time>
      </trkpt>
      <trkpt lat="48.53556" lon="2.08265">
        <ele>90</ele>
        <time>2021-03-07T11:12:20.746Z</time>
      </trkpt>
      <trkpt lat="48.53555" lon="2.08266">
        <ele>90</ele>
        <time>2021-03-07T11:12:21.746Z</time>
      </trkpt>
      <trkpt lat="48.53555" lon="2.08268">
        <ele>91</ele>
        <time>2021-03-07T11:12:22.746Z</time>
      </trkpt>
      <trkpt lat="48.53555" lon="2.0827">
        <ele>91</ele>
        <time>2021-03-07T11:12:23.746Z</time>
      </trkpt>
      <trkpt lat="48.53556" lon="2.0827">
        <ele>92</ele>
        <time>2021-03-07T11:12:24.745Z</time>
      </trkpt>
      <trkpt lat="48.53556" lon="2.08272">
        <ele>93</ele>
        <time>2021-03-07T11:12:25.746Z</time>
      </trkpt>
      <trkpt lat="48.53556" lon="2.08274">
        <ele>93</ele>
        <time>2021-03-07T11:12:26.746Z</time>
      </trkpt>
      <trkpt lat="48.53556" lon="2.08277">
        <ele>94</ele>
        <time>2021-03-07T11:12:27.746Z</time>
      </trkpt>
      <trkpt lat="48.53556" lon="2.08279">
        <ele>94</ele>
        <time>2021-03-07T11:12:28.746Z</time>
      </trkpt>
      <trkpt lat="48.53556" lon="2.08281">
        <ele>94</ele>
        <time>2021-03-07T11:12:29.746Z</time>
      </trkpt>
      <trkpt lat="48.53556" lon="2.08283">
        <ele>95</ele>
        <time>2021-03-07T11:12:30.746Z</time>
      </trkpt>
      <trkpt lat="48.53556" lon="2.08285">
        <ele>95</ele>
        <time>2021-03-07T11:12:31.746Z</time>
      </trkpt>
      <trkpt lat="48.53556" lon="2.08286">
        <ele>95</ele>
        <time>2021-03-07T11:12:32.746Z</time>
      </trkpt>
      <trkpt lat="48.53556" lon="2.08288">
        <ele>96</ele>
        <time>2021-03-07T11:12:33.746Z</time>
      </trkpt>
      <trkpt lat="48.53556" lon="2.0829">
        <ele>96</ele>
        <time>2021-03-07T11:12:34.746Z</time>
      </trkpt>
      <trkpt lat="48.53555" lon="2.08292">
        <ele>96</ele>
        <time>2021-03-07T11:12:35.746Z</time>
      </trkpt>
      <trkpt lat="48.53555" lon="2.08294">
        <ele>97</ele>
        <time>2021-03-07T11:12:36.745Z</time>
      </trkpt>
      <trkpt lat="48.53555" lon="2.08295">
        <ele>98</ele>
        <time>2021-03-07T11:12:37.745Z</time>
      </trkpt>
      <trkpt lat="48.53555" lon="2.08297">
        <ele>98</ele>
        <time>2021-03-07T11:12:38.745Z</time>
      </trkpt>
      <trkpt lat="48.53555" lon="2.08299">
        <ele>99</ele>
        <time>2021-03-07T11:12:39.746Z</time>
      </trkpt>
      <trkpt lat="48.53555" lon="2.08301">
        <ele>100</ele>
        <time>2021-03-07T11:12:40.746Z</time>
      </trkpt>
      <trkpt lat="48.53555" lon="2.08303">
        <ele>100</ele>
        <time>2021-03-07T11:12:41.746Z</time>
      </trkpt>
      <trkpt lat="48.53555" lon="2.08305">
        <ele>100</ele>
        <time>2021-03-07T11:12:42.745Z</time>
      </trkpt>
      <trkpt lat="48.53555" lon="2.08307">
        <ele>100</ele>
        <time>2021-03-07T11:12:43.745Z</time>
      </trkpt>
      <trkpt lat="48.53555" lon="2.08309">
        <ele>100</ele>
        <time>2021-03-07T11:12:44.746Z</time>
      </trkpt>
      <trkpt lat="48.53555" lon="2.08311">
        <ele>99</ele>
        <time>2021-03-07T11:12:45.746Z</time>
      </trkpt>
      <trkpt lat="48.53555" lon="2.08312">
        <ele>99</ele>
        <time>2021-03-07T11:12:46.745Z</time>
      </trkpt>
      <trkpt lat="48.53555" lon="2.08313">
        <ele>100</ele>
        <time>2021-03-07T11:12:47.746Z</time>
      </trkpt>
      <trkpt lat="48.53555" lon="2.08314">
        <ele>100</ele>
        <time>2021-03-07T11:12:48.746Z</time>
      </trkpt>
      <trkpt lat="48.53555" lon="2.08315">
        <ele>100</ele>
        <time>2021-03-07T11:12:49.746Z</time>
      </trkpt>
      <trkpt lat="48.53555" lon="2.08316">
        <ele>101</ele>
        <time>2021-03-07T11:12:50.746Z</time>
      </trkpt>
      <trkpt lat="48.53555" lon="2.08318">
        <ele>101</ele>
        <time>2021-03-07T11:12:51.746Z</time>
      </trkpt>
      <trkpt lat="48.53554" lon="2.0832">
        <ele>101</ele>
        <time>2021-03-07T11:12:52.745Z</time>
      </trkpt>
      <trkpt lat="48.53554" lon="2.08323">
        <ele>101</ele>
        <time>2021-03-07T11:12:53.746Z</time>
      </trkpt>
      <trkpt lat="48.53554" lon="2.08325">
        <ele>101</ele>
        <time>2021-03-07T11:12:54.746Z</time>
      </trkpt>
      <trkpt lat="48.53554" lon="2.08328">
        <ele>101</ele>
        <time>2021-03-07T11:12:55.746Z</time>
      </trkpt>
      <trkpt lat="48.53554" lon="2.0833">
        <ele>101</ele>
        <time>2021-03-07T11:12:56.746Z</time>
      </trkpt>
      <trkpt lat="48.53555" lon="2.08332">
        <ele>101</ele>
        <time>2021-03-07T11:12:57.745Z</time>
      </trkpt>
      <trkpt lat="48.53555" lon="2.08332">
        <ele>101</ele>
        <time>2021-03-07T11:12:58.745Z</time>
      </trkpt>
      <trkpt lat="48.53555" lon="2.08335">
        <ele>101</ele>
        <time>2021-03-07T11:12:59.746Z</time>
      </trkpt>
      <trkpt lat="48.53555" lon="2.08338">
        <ele>102</ele>
        <time>2021-03-07T11:13:00.746Z</time>
      </trkpt>
      <trkpt lat="48.53556" lon="2.08339">
        <ele>102</ele>
        <time>2021-03-07T11:13:01.745Z</time>
      </trkpt>
      <trkpt lat="48.53556" lon="2.08342">
        <ele>102</ele>
        <time>2021-03-07T11:13:02.745Z</time>
      </trkpt>
      <trkpt lat="48.53556" lon="2.08343">
        <ele>102</ele>
        <time>2021-03-07T11:13:03.746Z</time>
      </trkpt>
      <trkpt lat="48.53555" lon="2.08346">
        <ele>103</ele>
        <time>2021-03-07T11:13:04.746Z</time>
      </trkpt>
      <trkpt lat="48.53555" lon="2.08348">
        <ele>103</ele>
        <time>2021-03-07T11:13:05.746Z</time>
      </trkpt>
      <trkpt lat="48.53556" lon="2.0835">
        <ele>104</ele>
        <time>2021-03-07T11:13:06.746Z</time>
      </trkpt>
      <trkpt lat="48.53557" lon="2.08351">
        <ele>105</ele>
        <time>2021-03-07T11:13:07.746Z</time>
      </trkpt>
      <trkpt lat="48.53557" lon="2.08353">
        <ele>105</ele>
        <time>2021-03-07T11:13:08.746Z</time>
      </trkpt>
      <trkpt lat="48.53558" lon="2.08354">
        <ele>106</ele>
        <time>2021-03-07T11:13:09.746Z</time>
      </trkpt>
      <trkpt lat="48.53559" lon="2.08357">
        <ele>106</ele>
        <time>2021-03-07T11:13:10.746Z</time>
      </trkpt>
      <trkpt lat="48.53559" lon="2.08359">
        <ele>107</ele>
        <time>2021-03-07T11:13:11.745Z</time>
      </trkpt>
      <trkpt lat="48.5356" lon="2.0836">
        <ele>107</ele>
        <time>2021-03-07T11:13:12.745Z</time>
      </trkpt>
      <trkpt lat="48.5356" lon="2.08362">
        <ele>107</ele>
        <time>2021-03-07T11:13:13.745Z</time>
      </trkpt>
      <trkpt lat="48.53559" lon="2.08364">
        <ele>107</ele>
        <time>2021-03-07T11:13:14.745Z</time>
      </trkpt>
      <trkpt lat="48.53558" lon="2.08366">
        <ele>108</ele>
        <time>2021-03-07T11:13:15.746Z</time>
      </trkpt>
      <trkpt lat="48.53558" lon="2.08368">
        <ele>107</ele>
        <time>2021-03-07T11:13:16.746Z</time>
      </trkpt>
      <trkpt lat="48.53558" lon="2.08369">
        <ele>107</ele>
        <time>2021-03-07T11:13:17.746Z</time>
      </trkpt>
      <trkpt lat="48.53558" lon="2.08371">
        <ele>108</ele>
        <time>2021-03-07T11:13:18.746Z</time>
      </trkpt>
      <trkpt lat="48.53558" lon="2.08373">
        <ele>108</ele>
        <time>2021-03-07T11:13:19.746Z</time>
      </trkpt>
      <trkpt lat="48.53558" lon="2.08375">
        <ele>108</ele>
        <time>2021-03-07T11:13:20.746Z</time>
      </trkpt>
      <trkpt lat="48.53558" lon="2.08378">
        <ele>108</ele>
        <time>2021-03-07T11:13:21.745Z</time>
      </trkpt>
      <trkpt lat="48.53558" lon="2.08381">
        <ele>108</ele>
        <time>2021-03-07T11:13:22.746Z</time>
      </trkpt>
      <trkpt lat="48.53557" lon="2.08383">
        <ele>108</ele>
        <time>2021-03-07T11:13:23.746Z</time>
      </trkpt>
      <trkpt lat="48.53557" lon="2.08385">
        <ele>107</ele>
        <time>2021-03-07T11:13:24.745Z</time>
      </trkpt>
      <trkpt lat="48.53557" lon="2.08388">
        <ele>107</ele>
        <time>2021-03-07T11:13:25.746Z</time>
      </trkpt>
      <trkpt lat="48.53557" lon="2.0839">
        <ele>107</ele>
        <time>2021-03-07T11:13:26.746Z</time>
      </trkpt>
      <trkpt lat="48.53557" lon="2.08392">
        <ele>107</ele>
        <time>2021-03-07T11:13:27.746Z</time>
      </trkpt>
      <trkpt lat="48.53557" lon="2.08393">
        <ele>106</ele>
        <time>2021-03-07T11:13:28.746Z</time>
      </trkpt>
      <trkpt lat="48.53557" lon="2.08395">
        <ele>106</ele>
        <time>2021-03-07T11:13:29.746Z</time>
      </trkpt>
      <trkpt lat="48.53557" lon="2.08397">
        <ele>106</ele>
        <time>2021-03-07T11:13:30.745Z</time>
      </trkpt>
      <trkpt lat="48.53557" lon="2.084">
        <ele>106</ele>
        <time>2021-03-07T11:13:31.746Z</time>
      </trkpt>
      <trkpt lat="48.53557" lon="2.08403">
        <ele>105</ele>
        <time>2021-03-07T11:13:32.746Z</time>
      </trkpt>
      <trkpt lat="48.53558" lon="2.08405">
        <ele>105</ele>
        <time>2021-03-07T11:13:33.746Z</time>
      </trkpt>
      <trkpt lat="48.53559" lon="2.08407">
        <ele>105</ele>
        <time>2021-03-07T11:13:34.745Z</time>
      </trkpt>
      <trkpt lat="48.5356" lon="2.0841">
        <ele>105</ele>
        <time>2021-03-07T11:13:35.746Z</time>
      </trkpt>
      <trkpt lat="48.5356" lon="2.08411">
        <ele>105</ele>
        <time>2021-03-07T11:13:36.745Z</time>
      </trkpt>
      <trkpt lat="48.53561" lon="2.08413">
        <ele>105</ele>
        <time>2021-03-07T11:13:37.746Z</time>
      </trkpt>
      <trkpt lat="48.53561" lon="2.08415">
        <ele>105</ele>
        <time>2021-03-07T11:13:38.746Z</time>
      </trkpt>
      <trkpt lat="48.53561" lon="2.08417">
        <ele>106</ele>
        <time>2021-03-07T11:13:39.746Z</time>
      </trkpt>
      <trkpt lat="48.5356" lon="2.08419">
        <ele>106</ele>
        <time>2021-03-07T11:13:40.746Z</time>
      </trkpt>
      <trkpt lat="48.5356" lon="2.08422">
        <ele>106</ele>
        <time>2021-03-07T11:13:41.746Z</time>
      </trkpt>
      <trkpt lat="48.5356" lon="2.08424">
        <ele>107</ele>
        <time>2021-03-07T11:13:42.746Z</time>
      </trkpt>
      <trkpt lat="48.5356" lon="2.08426">
        <ele>108</ele>
        <time>2021-03-07T11:13:43.745Z</time>
      </trkpt>
      <trkpt lat="48.5356" lon="2.08429">
        <ele>108</ele>
        <time>2021-03-07T11:13:44.745Z</time>
      </trkpt>
      <trkpt lat="48.53559" lon="2.08431">
        <ele>109</ele>
        <time>2021-03-07T11:13:45.745Z</time>
      </trkpt>
      <trkpt lat="48.53559" lon="2.08432">
        <ele>109</ele>
        <time>2021-03-07T11:13:46.745Z</time>
      </trkpt>
      <trkpt lat="48.53559" lon="2.08434">
        <ele>109</ele>
        <time>2021-03-07T11:13:47.746Z</time>
      </trkpt>
      <trkpt lat="48.53559" lon="2.08435">
        <ele>110</ele>
        <time>2021-03-07T11:13:48.746Z</time>
      </trkpt>
      <trkpt lat="48.53559" lon="2.08437">
        <ele>110</ele>
        <time>2021-03-07T11:13:49.746Z</time>
      </trkpt>
      <trkpt lat="48.53559" lon="2.08438">
        <ele>111</ele>
        <time>2021-03-07T11:13:50.746Z</time>
      </trkpt>
      <trkpt lat="48.53559" lon="2.08439">
        <ele>111</ele>
        <time>2021-03-07T11:13:51.746Z</time>
      </trkpt>
      <trkpt lat="48.53558" lon="2.08443">
        <ele>111</ele>
        <time>2021-03-07T11:13:52.746Z</time>
      </trkpt>
      <trkpt lat="48.53557" lon="2.08446">
        <ele>111</ele>
        <time>2021-03-07T11:13:53.746Z</time>
      </trkpt>
      <trkpt lat="48.53557" lon="2.08448">
        <ele>111</ele>
        <time>2021-03-07T11:13:54.746Z</time>
      </trkpt>
      <trkpt lat="48.53557" lon="2.0845">
        <ele>111</ele>
        <time>2021-03-07T11:13:55.745Z</time>
      </trkpt>
      <trkpt lat="48.53557" lon="2.08452">
        <ele>111</ele>
        <time>2021-03-07T11:13:56.746Z</time>
      </trkpt>
      <trkpt lat="48.53558" lon="2.08453">
        <ele>111</ele>
        <time>2021-03-07T11:13:57.746Z</time>
      </trkpt>
      <trkpt lat="48.53559" lon="2.08456">
        <ele>111</ele>
        <time>2021-03-07T11:13:58.746Z</time>
      </trkpt>
      <trkpt lat="48.5356" lon="2.08458">
        <ele>111</ele>
        <time>2021-03-07T11:13:59.746Z</time>
      </trkpt>
      <trkpt lat="48.5356" lon="2.0846">
        <ele>111</ele>
        <time>2021-03-07T11:14:00.745Z</time>
      </trkpt>
      <trkpt lat="48.5356" lon="2.08462">
        <ele>111</ele>
        <time>2021-03-07T11:14:01.746Z</time>
      </trkpt>
      <trkpt lat="48.5356" lon="2.08464">
        <ele>111</ele>
        <time>2021-03-07T11:14:02.746Z</time>
      </trkpt>
      <trkpt lat="48.53561" lon="2.08466">
        <ele>111</ele>
        <time>2021-03-07T11:14:03.745Z</time>
      </trkpt>
      <trkpt lat="48.53561" lon="2.08468">
        <ele>110</ele>
        <time>2021-03-07T11:14:04.745Z</time>
      </trkpt>
      <trkpt lat="48.53562" lon="2.0847">
        <ele>111</ele>
        <time>2021-03-07T11:14:05.746Z</time>
      </trkpt>
      <trkpt lat="48.53562" lon="2.08471">
        <ele>111</ele>
        <time>2021-03-07T11:14:06.746Z</time>
      </trkpt>
      <trkpt lat="48.53562" lon="2.08473">
        <ele>112</ele>
        <time>2021-03-07T11:14:07.746Z</time>
      </trkpt>
      <trkpt lat="48.53562" lon="2.08474">
        <ele>113</ele>
        <time>2021-03-07T11:14:08.746Z</time>
      </trkpt>
      <trkpt lat="48.53562" lon="2.08476">
        <ele>114</ele>
        <time>2021-03-07T11:14:09.746Z</time>
      </trkpt>
      <trkpt lat="48.53562" lon="2.08478">
        <ele>115</ele>
        <time>2021-03-07T11:14:10.746Z</time>
      </trkpt>
      <trkpt lat="48.53562" lon="2.08479">
        <ele>115</ele>
        <time>2021-03-07T11:14:11.745Z</time>
      </trkpt>
      <trkpt lat="48.53561" lon="2.08482">
        <ele>115</ele>
        <time>2021-03-07T11:14:12.746Z</time>
      </trkpt>
      <trkpt lat="48.5356" lon="2.08483">
        <ele>116</ele>
        <time>2021-03-07T11:14:13.746Z</time>
      </trkpt>
      <trkpt lat="48.5356" lon="2.08484">
        <ele>116</ele>
        <time>2021-03-07T11:14:14.746Z</time>
      </trkpt>
      <trkpt lat="48.53559" lon="2.08486">
        <ele>116</ele>
        <time>2021-03-07T11:14:15.746Z</time>
      </trkpt>
      <trkpt lat="48.53558" lon="2.08489">
        <ele>116</ele>
        <time>2021-03-07T11:14:16.746Z</time>
      </trkpt>
      <trkpt lat="48.53557" lon="2.08491">
        <ele>116</ele>
        <time>2021-03-07T11:14:17.746Z</time>
      </trkpt>
      <trkpt lat="48.53556" lon="2.08494">
        <ele>115</ele>
        <time>2021-03-07T11:14:18.746Z</time>
      </trkpt>
      <trkpt lat="48.53556" lon="2.08496">
        <ele>115</ele>
        <time>2021-03-07T11:14:19.745Z</time>
      </trkpt>
      <trkpt lat="48.53555" lon="2.08498">
        <ele>115</ele>
        <time>2021-03-07T11:14:20.746Z</time>
      </trkpt>
      <trkpt lat="48.53554" lon="2.085">
        <ele>115</ele>
        <time>2021-03-07T11:14:21.746Z</time>
      </trkpt>
      <trkpt lat="48.53554" lon="2.08501">
        <ele>115</ele>
        <time>2021-03-07T11:14:22.745Z</time>
      </trkpt>
      <trkpt lat="48.53553" lon="2.08503">
        <ele>114</ele>
        <time>2021-03-07T11:14:23.745Z</time>
      </trkpt>
      <trkpt lat="48.53552" lon="2.08505">
        <ele>114</ele>
        <time>2021-03-07T11:14:24.746Z</time>
      </trkpt>
      <trkpt lat="48.53551" lon="2.08506">
        <ele>114</ele>
        <time>2021-03-07T11:14:25.746Z</time>
      </trkpt>
      <trkpt lat="48.5355" lon="2.08508">
        <ele>114</ele>
        <time>2021-03-07T11:14:26.745Z</time>
      </trkpt>
      <trkpt lat="48.53549" lon="2.0851">
        <ele>114</ele>
        <time>2021-03-07T11:14:27.745Z</time>
      </trkpt>
      <trkpt lat="48.53547" lon="2.08512">
        <ele>113</ele>
        <time>2021-03-07T11:14:28.745Z</time>
      </trkpt>
      <trkpt lat="48.53546" lon="2.08515">
        <ele>113</ele>
        <time>2021-03-07T11:14:29.745Z</time>
      </trkpt>
      <trkpt lat="48.53546" lon="2.08516">
        <ele>113</ele>
        <time>2021-03-07T11:14:30.746Z</time>
      </trkpt>
      <trkpt lat="48.53545" lon="2.08518">
        <ele>112</ele>
        <time>2021-03-07T11:14:31.745Z</time>
      </trkpt>
      <trkpt lat="48.53544" lon="2.0852">
        <ele>112</ele>
        <time>2021-03-07T11:14:32.745Z</time>
      </trkpt>
      <trkpt lat="48.53543" lon="2.08521">
        <ele>111</ele>
        <time>2021-03-07T11:14:33.745Z</time>
      </trkpt>
      <trkpt lat="48.53542" lon="2.08523">
        <ele>111</ele>
        <time>2021-03-07T11:14:34.746Z</time>
      </trkpt>
      <trkpt lat="48.53541" lon="2.08525">
        <ele>111</ele>
        <time>2021-03-07T11:14:35.745Z</time>
      </trkpt>
      <trkpt lat="48.5354" lon="2.08526">
        <ele>110</ele>
        <time>2021-03-07T11:14:36.745Z</time>
      </trkpt>
      <trkpt lat="48.5354" lon="2.08528">
        <ele>110</ele>
        <time>2021-03-07T11:14:37.745Z</time>
      </trkpt>
      <trkpt lat="48.53539" lon="2.08531">
        <ele>110</ele>
        <time>2021-03-07T11:14:38.746Z</time>
      </trkpt>
      <trkpt lat="48.53538" lon="2.08534">
        <ele>110</ele>
        <time>2021-03-07T11:14:39.746Z</time>
      </trkpt>
      <trkpt lat="48.53536" lon="2.08536">
        <ele>109</ele>
        <time>2021-03-07T11:14:40.746Z</time>
      </trkpt>
      <trkpt lat="48.53534" lon="2.08539">
        <ele>109</ele>
        <time>2021-03-07T11:14:41.746Z</time>
      </trkpt>
      <trkpt lat="48.53534" lon="2.0854">
        <ele>109</ele>
        <time>2021-03-07T11:14:42.746Z</time>
      </trkpt>
      <trkpt lat="48.53533" lon="2.0854">
        <ele>109</ele>
        <time>2021-03-07T11:14:43.746Z</time>
      </trkpt>
      <trkpt lat="48.53531" lon="2.08539">
        <ele>110</ele>
        <time>2021-03-07T11:14:44.746Z</time>
      </trkpt>
      <trkpt lat="48.5353" lon="2.08538">
        <ele>110</ele>
        <time>2021-03-07T11:14:45.746Z</time>
      </trkpt>
      <trkpt lat="48.53529" lon="2.08537">
        <ele>110</ele>
        <time>2021-03-07T11:14:46.746Z</time>
      </trkpt>
      <trkpt lat="48.53528" lon="2.08535">
        <ele>110</ele>
        <time>2021-03-07T11:14:47.745Z</time>
      </trkpt>
      <trkpt lat="48.53527" lon="2.08534">
        <ele>111</ele>
        <time>2021-03-07T11:14:48.745Z</time>
      </trkpt>
      <trkpt lat="48.53526" lon="2.08533">
        <ele>111</ele>
        <time>2021-03-07T11:14:49.745Z</time>
      </trkpt>
      <trkpt lat="48.53525" lon="2.08531">
        <ele>111</ele>
        <time>2021-03-07T11:14:50.746Z</time>
      </trkpt>
      <trkpt lat="48.53525" lon="2.08529">
        <ele>111</ele>
        <time>2021-03-07T11:14:51.745Z</time>
      </trkpt>
      <trkpt lat="48.53524" lon="2.08527">
        <ele>111</ele>
        <time>2021-03-07T11:14:52.746Z</time>
      </trkpt>
      <trkpt lat="48.53523" lon="2.08526">
        <ele>111</ele>
        <time>2021-03-07T11:14:53.746Z</time>
      </trkpt>
      <trkpt lat="48.53522" lon="2.08523">
        <ele>111</ele>
        <time>2021-03-07T11:14:54.746Z</time>
      </trkpt>
      <trkpt lat="48.53521" lon="2.08521">
        <ele>111</ele>
        <time>2021-03-07T11:14:55.746Z</time>
      </trkpt>
      <trkpt lat="48.5352" lon="2.0852">
        <ele>111</ele>
        <time>2021-03-07T11:14:56.746Z</time>
      </trkpt>
      <trkpt lat="48.53518" lon="2.08519">
        <ele>111</ele>
        <time>2021-03-07T11:14:57.746Z</time>
      </trkpt>
      <trkpt lat="48.53517" lon="2.08519">
        <ele>112</ele>
        <time>2021-03-07T11:14:58.745Z</time>
      </trkpt>
      <trkpt lat="48.53515" lon="2.0852">
        <ele>112</ele>
        <time>2021-03-07T11:14:59.746Z</time>
      </trkpt>
      <trkpt lat="48.53513" lon="2.08521">
        <ele>112</ele>
        <time>2021-03-07T11:15:00.746Z</time>
      </trkpt>
      <trkpt lat="48.53512" lon="2.0852">
        <ele>112</ele>
        <time>2021-03-07T11:15:01.746Z</time>
      </trkpt>
      <trkpt lat="48.5351" lon="2.08519">
        <ele>112</ele>
        <time>2021-03-07T11:15:02.745Z</time>
      </trkpt>
      <trkpt lat="48.53509" lon="2.08518">
        <ele>113</ele>
        <time>2021-03-07T11:15:03.746Z</time>
      </trkpt>
      <trkpt lat="48.53508" lon="2.08516">
        <ele>113</ele>
        <time>2021-03-07T11:15:04.746Z</time>
      </trkpt>
      <trkpt lat="48.53506" lon="2.08515">
        <ele>113</ele>
        <time>2021-03-07T11:15:05.746Z</time>
      </trkpt>
      <trkpt lat="48.53505" lon="2.08515">
        <ele>113</ele>
        <time>2021-03-07T11:15:06.746Z</time>
      </trkpt>
      <trkpt lat="48.53504" lon="2.08514">
        <ele>113</ele>
        <time>2021-03-07T11:15:07.746Z</time>
      </trkpt>
      <trkpt lat="48.53502" lon="2.08513">
        <ele>113</ele>
        <time>2021-03-07T11:15:08.745Z</time>
      </trkpt>
      <trkpt lat="48.53501" lon="2.08512">
        <ele>113</ele>
        <time>2021-03-07T11:15:09.745Z</time>
      </trkpt>
      <trkpt lat="48.535" lon="2.08511">
        <ele>113</ele>
        <time>2021-03-07T11:15:10.746Z</time>
      </trkpt>
      <trkpt lat="48.53499" lon="2.08511">
        <ele>113</ele>
        <time>2021-03-07T11:15:11.746Z</time>
      </trkpt>
      <trkpt lat="48.53498" lon="2.0851">
        <ele>114</ele>
        <time>2021-03-07T11:15:12.746Z</time>
      </trkpt>
      <trkpt lat="48.53496" lon="2.08508">
        <ele>114</ele>
        <time>2021-03-07T11:15:13.746Z</time>
      </trkpt>
      <trkpt lat="48.53495" lon="2.08508">
        <ele>114</ele>
        <time>2021-03-07T11:15:14.746Z</time>
      </trkpt>
      <trkpt lat="48.53493" lon="2.08508">
        <ele>115</ele>
        <time>2021-03-07T11:15:15.745Z</time>
      </trkpt>
      <trkpt lat="48.53492" lon="2.08508">
        <ele>115</ele>
        <time>2021-03-07T11:15:16.745Z</time>
      </trkpt>
      <trkpt lat="48.53491" lon="2.08508">
        <ele>115</ele>
        <time>2021-03-07T11:15:17.746Z</time>
      </trkpt>
      <trkpt lat="48.5349" lon="2.08507">
        <ele>116</ele>
        <time>2021-03-07T11:15:18.745Z</time>
      </trkpt>
      <trkpt lat="48.53489" lon="2.08507">
        <ele>117</ele>
        <time>2021-03-07T11:15:19.745Z</time>
      </trkpt>
      <trkpt lat="48.53488" lon="2.08506">
        <ele>117</ele>
        <time>2021-03-07T11:15:20.746Z</time>
      </trkpt>
      <trkpt lat="48.53487" lon="2.08504">
        <ele>117</ele>
        <time>2021-03-07T11:15:21.746Z</time>
      </trkpt>
      <trkpt lat="48.53485" lon="2.08503">
        <ele>117</ele>
        <time>2021-03-07T11:15:22.746Z</time>
      </trkpt>
      <trkpt lat="48.53484" lon="2.08503">
        <ele>118</ele>
        <time>2021-03-07T11:15:23.746Z</time>
      </trkpt>
      <trkpt lat="48.53483" lon="2.08502">
        <ele>118</ele>
        <time>2021-03-07T11:15:24.746Z</time>
      </trkpt>
      <trkpt lat="48.53482" lon="2.08501">
        <ele>118</ele>
        <time>2021-03-07T11:15:25.745Z</time>
      </trkpt>
      <trkpt lat="48.53481" lon="2.085">
        <ele>118</ele>
        <time>2021-03-07T11:15:26.746Z</time>
      </trkpt>
      <trkpt lat="48.5348" lon="2.08499">
        <ele>118</ele>
        <time>2021-03-07T11:15:27.745Z</time>
      </trkpt>
      <trkpt lat="48.53479" lon="2.08498">
        <ele>118</ele>
        <time>2021-03-07T11:15:28.746Z</time>
      </trkpt>
      <trkpt lat="48.53478" lon="2.08497">
        <ele>118</ele>
        <time>2021-03-07T11:15:29.745Z</time>
      </trkpt>
      <trkpt lat="48.53477" lon="2.08495">
        <ele>119</ele>
        <time>2021-03-07T11:15:30.745Z</time>
      </trkpt>
      <trkpt lat="48.53476" lon="2.08494">
        <ele>119</ele>
        <time>2021-03-07T11:15:31.746Z</time>
      </trkpt>
      <trkpt lat="48.53475" lon="2.08493">
        <ele>120</ele>
        <time>2021-03-07T11:15:32.745Z</time>
      </trkpt>
      <trkpt lat="48.53474" lon="2.08493">
        <ele>120</ele>
        <time>2021-03-07T11:15:33.746Z</time>
      </trkpt>
      <trkpt lat="48.53473" lon="2.08492">
        <ele>120</ele>
        <time>2021-03-07T11:15:34.746Z</time>
      </trkpt>
      <trkpt lat="48.53472" lon="2.0849">
        <ele>121</ele>
        <time>2021-03-07T11:15:35.746Z</time>
      </trkpt>
      <trkpt lat="48.53472" lon="2.08489">
        <ele>121</ele>
        <time>2021-03-07T11:15:36.746Z</time>
      </trkpt>
      <trkpt lat="48.53471" lon="2.08488">
        <ele>121</ele>
        <time>2021-03-07T11:15:37.746Z</time>
      </trkpt>
      <trkpt lat="48.53469" lon="2.08486">
        <ele>121</ele>
        <time>2021-03-07T11:15:38.746Z</time>
      </trkpt>
      <trkpt lat="48.53468" lon="2.08486">
        <ele>121</ele>
        <time>2021-03-07T11:15:39.745Z</time>
      </trkpt>
      <trkpt lat="48.53468" lon="2.08484">
        <ele>122</ele>
        <time>2021-03-07T11:15:40.746Z</time>
      </trkpt>
      <trkpt lat="48.53467" lon="2.08483">
        <ele>122</ele>
        <time>2021-03-07T11:15:41.746Z</time>
      </trkpt>
      <trkpt lat="48.53466" lon="2.08483">
        <ele>122</ele>
        <time>2021-03-07T11:15:42.746Z</time>
      </trkpt>
      <trkpt lat="48.53465" lon="2.08482">
        <ele>122</ele>
        <time>2021-03-07T11:15:43.746Z</time>
      </trkpt>
      <trkpt lat="48.53464" lon="2.08481">
        <ele>122</ele>
        <time>2021-03-07T11:15:44.745Z</time>
      </trkpt>
      <trkpt lat="48.53463" lon="2.0848">
        <ele>123</ele>
        <time>2021-03-07T11:15:45.745Z</time>
      </trkpt>
      <trkpt lat="48.53462" lon="2.08479">
        <ele>123</ele>
        <time>2021-03-07T11:15:46.745Z</time>
      </trkpt>
      <trkpt lat="48.53461" lon="2.08479">
        <ele>124</ele>
        <time>2021-03-07T11:15:47.746Z</time>
      </trkpt>
      <trkpt lat="48.5346" lon="2.08478">
        <ele>125</ele>
        <time>2021-03-07T11:15:48.746Z</time>
      </trkpt>
      <trkpt lat="48.53459" lon="2.08478">
        <ele>125</ele>
        <time>2021-03-07T11:15:49.746Z</time>
      </trkpt>
      <trkpt lat="48.53459" lon="2.08478">
        <ele>126</ele>
        <time>2021-03-07T11:15:50.745Z</time>
      </trkpt>
      <trkpt lat="48.53457" lon="2.08478">
        <ele>126</ele>
        <time>2021-03-07T11:15:51.746Z</time>
      </trkpt>
      <trkpt lat="48.53456" lon="2.08477">
        <ele>126</ele>
        <time>2021-03-07T11:15:52.746Z</time>
      </trkpt>
      <trkpt lat="48.53455" lon="2.08477">
        <ele>126</ele>
        <time>2021-03-07T11:15:53.746Z</time>
      </trkpt>
      <trkpt lat="48.53453" lon="2.08477">
        <ele>126</ele>
        <time>2021-03-07T11:15:54.746Z</time>
      </trkpt>
      <trkpt lat="48.53452" lon="2.08476">
        <ele>126</ele>
        <time>2021-03-07T11:15:55.746Z</time>
      </trkpt>
      <trkpt lat="48.53451" lon="2.08475">
        <ele>126</ele>
        <time>2021-03-07T11:15:56.746Z</time>
      </trkpt>
      <trkpt lat="48.53449" lon="2.08475">
        <ele>126</ele>
        <time>2021-03-07T11:15:57.745Z</time>
      </trkpt>
      <trkpt lat="48.53448" lon="2.08476">
        <ele>127</ele>
        <time>2021-03-07T11:15:58.746Z</time>
      </trkpt>
      <trkpt lat="48.53446" lon="2.08476">
        <ele>128</ele>
        <time>2021-03-07T11:15:59.745Z</time>
      </trkpt>
      <trkpt lat="48.53445" lon="2.08475">
        <ele>128</ele>
        <time>2021-03-07T11:16:00.745Z</time>
      </trkpt>
      <trkpt lat="48.53443" lon="2.08476">
        <ele>129</ele>
        <time>2021-03-07T11:16:01.746Z</time>
      </trkpt>
      <trkpt lat="48.53441" lon="2.08476">
        <ele>129</ele>
        <time>2021-03-07T11:16:02.745Z</time>
      </trkpt>
      <trkpt lat="48.53439" lon="2.08478">
        <ele>130</ele>
        <time>2021-03-07T11:16:03.746Z</time>
      </trkpt>
      <trkpt lat="48.53439" lon="2.08478">
        <ele>130</ele>
        <time>2021-03-07T11:16:04.746Z</time>
      </trkpt>
      <trkpt lat="48.53435" lon="2.08479">
        <ele>130</ele>
        <time>2021-03-07T11:16:05.746Z</time>
      </trkpt>
      <trkpt lat="48.53433" lon="2.0848">
        <ele>130</ele>
        <time>2021-03-07T11:16:06.746Z</time>
      </trkpt>
      <trkpt lat="48.53431" lon="2.08482">
        <ele>130</ele>
        <time>2021-03-07T11:16:07.745Z</time>
      </trkpt>
      <trkpt lat="48.5343" lon="2.08483">
        <ele>131</ele>
        <time>2021-03-07T11:16:08.746Z</time>
      </trkpt>
      <trkpt lat="48.53428" lon="2.08483">
        <ele>131</ele>
        <time>2021-03-07T11:16:09.745Z</time>
      </trkpt>
      <trkpt lat="48.53428" lon="2.08483">
        <ele>131</ele>
        <time>2021-03-07T11:16:10.745Z</time>
      </trkpt>
      <trkpt lat="48.53428" lon="2.08484">
        <ele>131</ele>
        <time>2021-03-07T11:16:11.745Z</time>
      </trkpt>
      <trkpt lat="48.53427" lon="2.08484">
        <ele>131</ele>
        <time>2021-03-07T11:16:12.746Z</time>
      </trkpt>
      <trkpt lat="48.53427" lon="2.08484">
        <ele>132</ele>
        <time>2021-03-07T11:16:13.746Z</time>
      </trkpt>
      <trkpt lat="48.53427" lon="2.08484">
        <ele>132</ele>
        <time>2021-03-07T11:16:14.746Z</time>
      </trkpt>
      <trkpt lat="48.53425" lon="2.08485">
        <ele>133</ele>
        <time>2021-03-07T11:16:15.746Z</time>
      </trkpt>
      <trkpt lat="48.53423" lon="2.08487">
        <ele>133</ele>
        <time>2021-03-07T11:16:16.746Z</time>
      </trkpt>
      <trkpt lat="48.53422" lon="2.08489">
        <ele>133</ele>
        <time>2021-03-07T11:16:17.746Z</time>
      </trkpt>
      <trkpt lat="48.53421" lon="2.0849">
        <ele>133</ele>
        <time>2021-03-07T11:16:18.746Z</time>
      </trkpt>
      <trkpt lat="48.5342" lon="2.0849">
        <ele>133</ele>
        <time>2021-03-07T11:16:19.745Z</time>
      </trkpt>
      <trkpt lat="48.53418" lon="2.08491">
        <ele>133</ele>
        <time>2021-03-07T11:16:20.746Z</time>
      </trkpt>
      <trkpt lat="48.53418" lon="2.08492">
        <ele>133</ele>
        <time>2021-03-07T11:16:21.745Z</time>
      </trkpt>
      <trkpt lat="48.53417" lon="2.08492">
        <ele>133</ele>
        <time>2021-03-07T11:16:22.746Z</time>
      </trkpt>
      <trkpt lat="48.53416" lon="2.08492">
        <ele>133</ele>
        <time>2021-03-07T11:16:23.746Z</time>
      </trkpt>
      <trkpt lat="48.53415" lon="2.08493">
        <ele>134</ele>
        <time>2021-03-07T11:16:24.746Z</time>
      </trkpt>
      <trkpt lat="48.53414" lon="2.08494">
        <ele>134</ele>
        <time>2021-03-07T11:16:25.746Z</time>
      </trkpt>
      <trkpt lat="48.53412" lon="2.08495">
        <ele>134</ele>
        <time>2021-03-07T11:16:26.745Z</time>
      </trkpt>
      <trkpt lat="48.5341" lon="2.08496">
        <ele>134</ele>
        <time>2021-03-07T11:16:27.746Z</time>
      </trkpt>
      <trkpt lat="48.53409" lon="2.08496">
        <ele>134</ele>
        <time>2021-03-07T11:16:28.746Z</time>
      </trkpt>
      <trkpt lat="48.53407" lon="2.08498">
        <ele>134</ele>
        <time>2021-03-07T11:16:29.746Z</time>
      </trkpt>
      <trkpt lat="48.53406" lon="2.085">
        <ele>135</ele>
        <time>2021-03-07T11:16:30.745Z</time>
      </trkpt>
      <trkpt lat="48.53404" lon="2.08502">
        <ele>135</ele>
        <time>2021-03-07T11:16:31.746Z</time>
      </trkpt>
      <trkpt lat="48.53403" lon="2.08503">
        <ele>135</ele>
        <time>2021-03-07T11:16:32.746Z</time>
      </trkpt>
      <trkpt lat="48.53401" lon="2.08505">
        <ele>135</ele>
        <time>2021-03-07T11:16:33.746Z</time>
      </trkpt>
      <trkpt lat="48.53399" lon="2.08507">
        <ele>135</ele>
        <time>2021-03-07T11:16:34.746Z</time>
      </trkpt>
      <trkpt lat="48.53396" lon="2.08509">
        <ele>135</ele>
        <time>2021-03-07T11:16:35.745Z</time>
      </trkpt>
      <trkpt lat="48.53395" lon="2.0851">
        <ele>135</ele>
        <time>2021-03-07T11:16:36.746Z</time>
      </trkpt>
      <trkpt lat="48.53394" lon="2.08512">
        <ele>135</ele>
        <time>2021-03-07T11:16:37.746Z</time>
      </trkpt>
      <trkpt lat="48.53393" lon="2.08513">
        <ele>135</ele>
        <time>2021-03-07T11:16:38.745Z</time>
      </trkpt>
      <trkpt lat="48.53392" lon="2.08514">
        <ele>136</ele>
        <time>2021-03-07T11:16:39.746Z</time>
      </trkpt>
      <trkpt lat="48.53392" lon="2.08515">
        <ele>136</ele>
        <time>2021-03-07T11:16:40.746Z</time>
      </trkpt>
      <trkpt lat="48.53391" lon="2.08515">
        <ele>136</ele>
        <time>2021-03-07T11:16:41.745Z</time>
      </trkpt>
      <trkpt lat="48.5339" lon="2.08516">
        <ele>136</ele>
        <time>2021-03-07T11:16:42.746Z</time>
      </trkpt>
      <trkpt lat="48.53389" lon="2.08516">
        <ele>136</ele>
        <time>2021-03-07T11:16:43.745Z</time>
      </trkpt>
      <trkpt lat="48.53387" lon="2.08517">
        <ele>137</ele>
        <time>2021-03-07T11:16:44.745Z</time>
      </trkpt>
      <trkpt lat="48.53385" lon="2.08518">
        <ele>136</ele>
        <time>2021-03-07T11:16:45.746Z</time>
      </trkpt>
      <trkpt lat="48.53384" lon="2.0852">
        <ele>136</ele>
        <time>2021-03-07T11:16:46.746Z</time>
      </trkpt>
      <trkpt lat="48.53383" lon="2.08521">
        <ele>136</ele>
        <time>2021-03-07T11:16:47.746Z</time>
      </trkpt>
      <trkpt lat="48.53382" lon="2.08522">
        <ele>136</ele>
        <time>2021-03-07T11:16:48.746Z</time>
      </trkpt>
      <trkpt lat="48.53382" lon="2.08524">
        <ele>136</ele>
        <time>2021-03-07T11:16:49.746Z</time>
      </trkpt>
      <trkpt lat="48.53381" lon="2.08525">
        <ele>136</ele>
        <time>2021-03-07T11:16:50.746Z</time>
      </trkpt>
      <trkpt lat="48.5338" lon="2.08525">
        <ele>136</ele>
        <time>2021-03-07T11:16:51.746Z</time>
      </trkpt>
      <trkpt lat="48.5338" lon="2.08526">
        <ele>136</ele>
        <time>2021-03-07T11:16:52.746Z</time>
      </trkpt>
      <trkpt lat="48.5338" lon="2.08527">
        <ele>136</ele>
        <time>2021-03-07T11:16:53.745Z</time>
      </trkpt>
      <trkpt lat="48.53379" lon="2.08527">
        <ele>136</ele>
        <time>2021-03-07T11:16:54.746Z</time>
      </trkpt>
      <trkpt lat="48.53378" lon="2.08528">
        <ele>137</ele>
        <time>2021-03-07T11:16:55.746Z</time>
      </trkpt>
      <trkpt lat="48.53377" lon="2.08529">
        <ele>137</ele>
        <time>2021-03-07T11:16:56.746Z</time>
      </trkpt>
      <trkpt lat="48.53375" lon="2.0853">
        <ele>137</ele>
        <time>2021-03-07T11:16:57.746Z</time>
      </trkpt>
      <trkpt lat="48.53374" lon="2.08531">
        <ele>137</ele>
        <time>2021-03-07T11:16:58.746Z</time>
      </trkpt>
      <trkpt lat="48.53372" lon="2.08532">
        <ele>137</ele>
        <time>2021-03-07T11:16:59.746Z</time>
      </trkpt>
      <trkpt lat="48.53371" lon="2.08532">
        <ele>137</ele>
        <time>2021-03-07T11:17:00.746Z</time>
      </trkpt>
      <trkpt lat="48.53369" lon="2.08533">
        <ele>137</ele>
        <time>2021-03-07T11:17:01.746Z</time>
      </trkpt>
      <trkpt lat="48.53368" lon="2.08533">
        <ele>137</ele>
        <time>2021-03-07T11:17:02.746Z</time>
      </trkpt>
      <trkpt lat="48.53366" lon="2.08534">
        <ele>137</ele>
        <time>2021-03-07T11:17:03.745Z</time>
      </trkpt>
      <trkpt lat="48.53365" lon="2.08535">
        <ele>137</ele>
        <time>2021-03-07T11:17:04.745Z</time>
      </trkpt>
      <trkpt lat="48.53362" lon="2.08536">
        <ele>137</ele>
        <time>2021-03-07T11:17:05.745Z</time>
      </trkpt>
      <trkpt lat="48.5336" lon="2.08538">
        <ele>137</ele>
        <time>2021-03-07T11:17:06.746Z</time>
      </trkpt>
      <trkpt lat="48.53358" lon="2.08539">
        <ele>137</ele>
        <time>2021-03-07T11:17:07.746Z</time>
      </trkpt>
      <trkpt lat="48.53356" lon="2.08541">
        <ele>137</ele>
        <time>2021-03-07T11:17:08.745Z</time>
      </trkpt>
      <trkpt lat="48.53354" lon="2.08544">
        <ele>137</ele>
        <time>2021-03-07T11:17:09.746Z</time>
      </trkpt>
      <trkpt lat="48.53351" lon="2.08547">
        <ele>136</ele>
        <time>2021-03-07T11:17:10.745Z</time>
      </trkpt>
      <trkpt lat="48.53347" lon="2.0855">
        <ele>136</ele>
        <time>2021-03-07T11:17:11.745Z</time>
      </trkpt>
      <trkpt lat="48.53344" lon="2.08553">
        <ele>136</ele>
        <time>2021-03-07T11:17:12.746Z</time>
      </trkpt>
      <trkpt lat="48.53341" lon="2.08557">
        <ele>136</ele>
        <time>2021-03-07T11:17:13.746Z</time>
      </trkpt>
      <trkpt lat="48.53337" lon="2.08561">
        <ele>136</ele>
        <time>2021-03-07T11:17:14.746Z</time>
      </trkpt>
      <trkpt lat="48.53334" lon="2.08565">
        <ele>136</ele>
        <time>2021-03-07T11:17:15.746Z</time>
      </trkpt>
      <trkpt lat="48.5333" lon="2.0857">
        <ele>137</ele>
        <time>2021-03-07T11:17:16.746Z</time>
      </trkpt>
      <trkpt lat="48.53327" lon="2.08575">
        <ele>137</ele>
        <time>2021-03-07T11:17:17.746Z</time>
      </trkpt>
      <trkpt lat="48.53324" lon="2.08579">
        <ele>138</ele>
        <time>2021-03-07T11:17:18.746Z</time>
      </trkpt>
      <trkpt lat="48.5332" lon="2.08583">
        <ele>138</ele>
        <time>2021-03-07T11:17:19.745Z</time>
      </trkpt>
      <trkpt lat="48.53316" lon="2.08587">
        <ele>138</ele>
        <time>2021-03-07T11:17:20.746Z</time>
      </trkpt>
      <trkpt lat="48.53313" lon="2.0859">
        <ele>138</ele>
        <time>2021-03-07T11:17:21.745Z</time>
      </trkpt>
      <trkpt lat="48.53309" lon="2.08593">
        <ele>138</ele>
        <time>2021-03-07T11:17:22.746Z</time>
      </trkpt>
      <trkpt lat="48.53307" lon="2.08595">
        <ele>139</ele>
        <time>2021-03-07T11:17:23.746Z</time>
      </trkpt>
      <trkpt lat="48.53305" lon="2.08596">
        <ele>139</ele>
        <time>2021-03-07T11:17:24.746Z</time>
      </trkpt>
      <trkpt lat="48.53302" lon="2.08598">
        <ele>139</ele>
        <time>2021-03-07T11:17:25.745Z</time>
      </trkpt>
      <trkpt lat="48.533" lon="2.08601">
        <ele>139</ele>
        <time>2021-03-07T11:17:26.746Z</time>
      </trkpt>
      <trkpt lat="48.53298" lon="2.08604">
        <ele>139</ele>
        <time>2021-03-07T11:17:27.746Z</time>
      </trkpt>
      <trkpt lat="48.53295" lon="2.08606">
        <ele>138</ele>
        <time>2021-03-07T11:17:28.746Z</time>
      </trkpt>
      <trkpt lat="48.53292" lon="2.08609">
        <ele>138</ele>
        <time>2021-03-07T11:17:29.746Z</time>
      </trkpt>
      <trkpt lat="48.5329" lon="2.08611">
        <ele>138</ele>
        <time>2021-03-07T11:17:30.746Z</time>
      </trkpt>
      <trkpt lat="48.53288" lon="2.08614">
        <ele>138</ele>
        <time>2021-03-07T11:17:31.746Z</time>
      </trkpt>
      <trkpt lat="48.53285" lon="2.08616">
        <ele>138</ele>
        <time>2021-03-07T11:17:32.746Z</time>
      </trkpt>
      <trkpt lat="48.53282" lon="2.0862">
        <ele>138</ele>
        <time>2021-03-07T11:17:33.746Z</time>
      </trkpt>
      <trkpt lat="48.53278" lon="2.08623">
        <ele>139</ele>
        <time>2021-03-07T11:17:34.746Z</time>
      </trkpt>
      <trkpt lat="48.53274" lon="2.08628">
        <ele>139</ele>
        <time>2021-03-07T11:17:35.745Z</time>
      </trkpt>
      <trkpt lat="48.53269" lon="2.08634">
        <ele>139</ele>
        <time>2021-03-07T11:17:36.745Z</time>
      </trkpt>
      <trkpt lat="48.53264" lon="2.08638">
        <ele>139</ele>
        <time>2021-03-07T11:17:37.746Z</time>
      </trkpt>
      <trkpt lat="48.5326" lon="2.08642">
        <ele>140</ele>
        <time>2021-03-07T11:17:38.746Z</time>
      </trkpt>
      <trkpt lat="48.53256" lon="2.08646">
        <ele>140</ele>
        <time>2021-03-07T11:17:39.746Z</time>
      </trkpt>
      <trkpt lat="48.53252" lon="2.08649">
        <ele>140</ele>
        <time>2021-03-07T11:17:40.745Z</time>
      </trkpt>
      <trkpt lat="48.53249" lon="2.08652">
        <ele>140</ele>
        <time>2021-03-07T11:17:41.746Z</time>
      </trkpt>
      <trkpt lat="48.53246" lon="2.08655">
        <ele>140</ele>
        <time>2021-03-07T11:17:42.746Z</time>
      </trkpt>
      <trkpt lat="48.53243" lon="2.08658">
        <ele>140</ele>
        <time>2021-03-07T11:17:43.746Z</time>
      </trkpt>
      <trkpt lat="48.5324" lon="2.08661">
        <ele>140</ele>
        <time>2021-03-07T11:17:44.746Z</time>
      </trkpt>
      <trkpt lat="48.53237" lon="2.08664">
        <ele>140</ele>
        <time>2021-03-07T11:17:45.746Z</time>
      </trkpt>
      <trkpt lat="48.53234" lon="2.08667">
        <ele>140</ele>
        <time>2021-03-07T11:17:46.746Z</time>
      </trkpt>
      <trkpt lat="48.53231" lon="2.0867">
        <ele>140</ele>
        <time>2021-03-07T11:17:47.746Z</time>
      </trkpt>
      <trkpt lat="48.53229" lon="2.08672">
        <ele>140</ele>
        <time>2021-03-07T11:17:48.745Z</time>
      </trkpt>
      <trkpt lat="48.53226" lon="2.08675">
        <ele>140</ele>
        <time>2021-03-07T11:17:49.746Z</time>
      </trkpt>
      <trkpt lat="48.53224" lon="2.08678">
        <ele>140</ele>
        <time>2021-03-07T11:17:50.746Z</time>
      </trkpt>
      <trkpt lat="48.53223" lon="2.0868">
        <ele>140</ele>
        <time>2021-03-07T11:17:51.746Z</time>
      </trkpt>
      <trkpt lat="48.53221" lon="2.08682">
        <ele>140</ele>
        <time>2021-03-07T11:17:52.745Z</time>
      </trkpt>
      <trkpt lat="48.53219" lon="2.08684">
        <ele>140</ele>
        <time>2021-03-07T11:17:53.745Z</time>
      </trkpt>
      <trkpt lat="48.53216" lon="2.08686">
        <ele>141</ele>
        <time>2021-03-07T11:17:54.746Z</time>
      </trkpt>
      <trkpt lat="48.53213" lon="2.0869">
        <ele>141</ele>
        <time>2021-03-07T11:17:55.746Z</time>
      </trkpt>
      <trkpt lat="48.53211" lon="2.08693">
        <ele>141</ele>
        <time>2021-03-07T11:17:56.746Z</time>
      </trkpt>
      <trkpt lat="48.53208" lon="2.08697">
        <ele>141</ele>
        <time>2021-03-07T11:17:57.746Z</time>
      </trkpt>
      <trkpt lat="48.53206" lon="2.08699">
        <ele>141</ele>
        <time>2021-03-07T11:17:58.746Z</time>
      </trkpt>
      <trkpt lat="48.53204" lon="2.08702">
        <ele>141</ele>
        <time>2021-03-07T11:17:59.746Z</time>
      </trkpt>
      <trkpt lat="48.53202" lon="2.08704">
        <ele>141</ele>
        <time>2021-03-07T11:18:00.745Z</time>
      </trkpt>
      <trkpt lat="48.53199" lon="2.08707">
        <ele>141</ele>
        <time>2021-03-07T11:18:01.746Z</time>
      </trkpt>
      <trkpt lat="48.53197" lon="2.0871">
        <ele>141</ele>
        <time>2021-03-07T11:18:02.746Z</time>
      </trkpt>
      <trkpt lat="48.53195" lon="2.08712">
        <ele>141</ele>
        <time>2021-03-07T11:18:03.746Z</time>
      </trkpt>
      <trkpt lat="48.53193" lon="2.08714">
        <ele>141</ele>
        <time>2021-03-07T11:18:04.746Z</time>
      </trkpt>
      <trkpt lat="48.53191" lon="2.08716">
        <ele>141</ele>
        <time>2021-03-07T11:18:05.745Z</time>
      </trkpt>
      <trkpt lat="48.53189" lon="2.08719">
        <ele>141</ele>
        <time>2021-03-07T11:18:06.745Z</time>
      </trkpt>
      <trkpt lat="48.53187" lon="2.08721">
        <ele>142</ele>
        <time>2021-03-07T11:18:07.746Z</time>
      </trkpt>
      <trkpt lat="48.53184" lon="2.08723">
        <ele>142</ele>
        <time>2021-03-07T11:18:08.746Z</time>
      </trkpt>
      <trkpt lat="48.53181" lon="2.08726">
        <ele>143</ele>
        <time>2021-03-07T11:18:09.746Z</time>
      </trkpt>
      <trkpt lat="48.53178" lon="2.0873">
        <ele>143</ele>
        <time>2021-03-07T11:18:10.746Z</time>
      </trkpt>
      <trkpt lat="48.53176" lon="2.08734">
        <ele>143</ele>
        <time>2021-03-07T11:18:11.746Z</time>
      </trkpt>
      <trkpt lat="48.53173" lon="2.08736">
        <ele>144</ele>
        <time>2021-03-07T11:18:12.746Z</time>
      </trkpt>
      <trkpt lat="48.53171" lon="2.08739">
        <ele>144</ele>
        <time>2021-03-07T11:18:13.746Z</time>
      </trkpt>
      <trkpt lat="48.53169" lon="2.08742">
        <ele>144</ele>
        <time>2021-03-07T11:18:14.745Z</time>
      </trkpt>
      <trkpt lat="48.53166" lon="2.08746">
        <ele>145</ele>
        <time>2021-03-07T11:18:15.745Z</time>
      </trkpt>
      <trkpt lat="48.53163" lon="2.0875">
        <ele>145</ele>
        <time>2021-03-07T11:18:16.746Z</time>
      </trkpt>
      <trkpt lat="48.5316" lon="2.08754">
        <ele>145</ele>
        <time>2021-03-07T11:18:17.746Z</time>
      </trkpt>
      <trkpt lat="48.53158" lon="2.08758">
        <ele>145</ele>
        <time>2021-03-07T11:18:18.745Z</time>
      </trkpt>
      <trkpt lat="48.53156" lon="2.08761">
        <ele>146</ele>
        <time>2021-03-07T11:18:19.746Z</time>
      </trkpt>
      <trkpt lat="48.53154" lon="2.08764">
        <ele>146</ele>
        <time>2021-03-07T11:18:20.745Z</time>
      </trkpt>
      <trkpt lat="48.53152" lon="2.08766">
        <ele>146</ele>
        <time>2021-03-07T11:18:21.746Z</time>
      </trkpt>
      <trkpt lat="48.5315" lon="2.08769">
        <ele>145</ele>
        <time>2021-03-07T11:18:22.745Z</time>
      </trkpt>
      <trkpt lat="48.53147" lon="2.08771">
        <ele>145</ele>
        <time>2021-03-07T11:18:23.746Z</time>
      </trkpt>
      <trkpt lat="48.53145" lon="2.08773">
        <ele>145</ele>
        <time>2021-03-07T11:18:24.746Z</time>
      </trkpt>
      <trkpt lat="48.53143" lon="2.08774">
        <ele>145</ele>
        <time>2021-03-07T11:18:25.746Z</time>
      </trkpt>
      <trkpt lat="48.5314" lon="2.08777">
        <ele>146</ele>
        <time>2021-03-07T11:18:26.746Z</time>
      </trkpt>
      <trkpt lat="48.53138" lon="2.0878">
        <ele>146</ele>
        <time>2021-03-07T11:18:27.746Z</time>
      </trkpt>
      <trkpt lat="48.53135" lon="2.08783">
        <ele>146</ele>
        <time>2021-03-07T11:18:28.746Z</time>
      </trkpt>
      <trkpt lat="48.53131" lon="2.08786">
        <ele>146</ele>
        <time>2021-03-07T11:18:29.746Z</time>
      </trkpt>
      <trkpt lat="48.53128" lon="2.08789">
        <ele>146</ele>
        <time>2021-03-07T11:18:30.746Z</time>
      </trkpt>
      <trkpt lat="48.53125" lon="2.08791">
        <ele>146</ele>
        <time>2021-03-07T11:18:31.746Z</time>
      </trkpt>
      <trkpt lat="48.53122" lon="2.08794">
        <ele>146</ele>
        <time>2021-03-07T11:18:32.746Z</time>
      </trkpt>
      <trkpt lat="48.53118" lon="2.08797">
        <ele>145</ele>
        <time>2021-03-07T11:18:33.745Z</time>
      </trkpt>
      <trkpt lat="48.53115" lon="2.088">
        <ele>145</ele>
        <time>2021-03-07T11:18:34.746Z</time>
      </trkpt>
      <trkpt lat="48.53111" lon="2.08803">
        <ele>145</ele>
        <time>2021-03-07T11:18:35.746Z</time>
      </trkpt>
      <trkpt lat="48.53108" lon="2.08806">
        <ele>144</ele>
        <time>2021-03-07T11:18:36.746Z</time>
      </trkpt>
      <trkpt lat="48.53104" lon="2.08809">
        <ele>144</ele>
        <time>2021-03-07T11:18:37.746Z</time>
      </trkpt>
      <trkpt lat="48.531" lon="2.08812">
        <ele>144</ele>
        <time>2021-03-07T11:18:38.746Z</time>
      </trkpt>
      <trkpt lat="48.53097" lon="2.08815">
        <ele>144</ele>
        <time>2021-03-07T11:18:39.745Z</time>
      </trkpt>
      <trkpt lat="48.53093" lon="2.08819">
        <ele>144</ele>
        <time>2021-03-07T11:18:40.746Z</time>
      </trkpt>
      <trkpt lat="48.53089" lon="2.08823">
        <ele>144</ele>
        <time>2021-03-07T11:18:41.746Z</time>
      </trkpt>
      <trkpt lat="48.53084" lon="2.08827">
        <ele>144</ele>
        <time>2021-03-07T11:18:42.746Z</time>
      </trkpt>
      <trkpt lat="48.5308" lon="2.08831">
        <ele>144</ele>
        <time>2021-03-07T11:18:43.745Z</time>
      </trkpt>
      <trkpt lat="48.53076" lon="2.08835">
        <ele>144</ele>
        <time>2021-03-07T11:18:44.746Z</time>
      </trkpt>
      <trkpt lat="48.53072" lon="2.0884">
        <ele>144</ele>
        <time>2021-03-07T11:18:45.746Z</time>
      </trkpt>
      <trkpt lat="48.53067" lon="2.08845">
        <ele>144</ele>
        <time>2021-03-07T11:18:46.746Z</time>
      </trkpt>
      <trkpt lat="48.53063" lon="2.0885">
        <ele>144</ele>
        <time>2021-03-07T11:18:47.746Z</time>
      </trkpt>
      <trkpt lat="48.53058" lon="2.08855">
        <ele>144</ele>
        <time>2021-03-07T11:18:48.745Z</time>
      </trkpt>
      <trkpt lat="48.53054" lon="2.08859">
        <ele>144</ele>
        <time>2021-03-07T11:18:49.745Z</time>
      </trkpt>
      <trkpt lat="48.53049" lon="2.08863">
        <ele>145</ele>
        <time>2021-03-07T11:18:50.746Z</time>
      </trkpt>
      <trkpt lat="48.53046" lon="2.08865">
        <ele>145</ele>
        <time>2021-03-07T11:18:51.746Z</time>
      </trkpt>
      <trkpt lat="48.53043" lon="2.08867">
        <ele>145</ele>
        <time>2021-03-07T11:18:52.746Z</time>
      </trkpt>
      <trkpt lat="48.5304" lon="2.08869">
        <ele>145</ele>
        <time>2021-03-07T11:18:53.746Z</time>
      </trkpt>
      <trkpt lat="48.53036" lon="2.08871">
        <ele>145</ele>
        <time>2021-03-07T11:18:54.746Z</time>
      </trkpt>
      <trkpt lat="48.53033" lon="2.08873">
        <ele>144</ele>
        <time>2021-03-07T11:18:55.746Z</time>
      </trkpt>
      <trkpt lat="48.5303" lon="2.08875">
        <ele>144</ele>
        <time>2021-03-07T11:18:56.746Z</time>
      </trkpt>
      <trkpt lat="48.53026" lon="2.08877">
        <ele>143</ele>
        <time>2021-03-07T11:18:57.746Z</time>
      </trkpt>
      <trkpt lat="48.53023" lon="2.08879">
        <ele>143</ele>
        <time>2021-03-07T11:18:58.746Z</time>
      </trkpt>
      <trkpt lat="48.5302" lon="2.08881">
        <ele>143</ele>
        <time>2021-03-07T11:18:59.746Z</time>
      </trkpt>
      <trkpt lat="48.53017" lon="2.08883">
        <ele>142</ele>
        <time>2021-03-07T11:19:00.746Z</time>
      </trkpt>
      <trkpt lat="48.53013" lon="2.08886">
        <ele>142</ele>
        <time>2021-03-07T11:19:01.746Z</time>
      </trkpt>
      <trkpt lat="48.5301" lon="2.08888">
        <ele>142</ele>
        <time>2021-03-07T11:19:02.746Z</time>
      </trkpt>
      <trkpt lat="48.53007" lon="2.0889">
        <ele>141</ele>
        <time>2021-03-07T11:19:03.745Z</time>
      </trkpt>
      <trkpt lat="48.53003" lon="2.08893">
        <ele>141</ele>
        <time>2021-03-07T11:19:04.746Z</time>
      </trkpt>
      <trkpt lat="48.52999" lon="2.08895">
        <ele>141</ele>
        <time>2021-03-07T11:19:05.746Z</time>
      </trkpt>
      <trkpt lat="48.52996" lon="2.08898">
        <ele>141</ele>
        <time>2021-03-07T11:19:06.746Z</time>
      </trkpt>
      <trkpt lat="48.52992" lon="2.089">
        <ele>141</ele>
        <time>2021-03-07T11:19:07.746Z</time>
      </trkpt>
      <trkpt lat="48.52989" lon="2.08903">
        <ele>140</ele>
        <time>2021-03-07T11:19:08.746Z</time>
      </trkpt>
      <trkpt lat="48.52985" lon="2.08905">
        <ele>140</ele>
        <time>2021-03-07T11:19:09.745Z</time>
      </trkpt>
      <trkpt lat="48.52982" lon="2.08907">
        <ele>140</ele>
        <time>2021-03-07T11:19:10.745Z</time>
      </trkpt>
      <trkpt lat="48.52979" lon="2.0891">
        <ele>139</ele>
        <time>2021-03-07T11:19:11.746Z</time>
      </trkpt>
      <trkpt lat="48.52975" lon="2.08914">
        <ele>139</ele>
        <time>2021-03-07T11:19:12.746Z</time>
      </trkpt>
      <trkpt lat="48.52971" lon="2.08918">
        <ele>139</ele>
        <time>2021-03-07T11:19:13.746Z</time>
      </trkpt>
      <trkpt lat="48.52967" lon="2.08923">
        <ele>138</ele>
        <time>2021-03-07T11:19:14.746Z</time>
      </trkpt>
      <trkpt lat="48.52963" lon="2.08929">
        <ele>138</ele>
        <time>2021-03-07T11:19:15.746Z</time>
      </trkpt>
      <trkpt lat="48.5296" lon="2.08932">
        <ele>138</ele>
        <time>2021-03-07T11:19:16.746Z</time>
      </trkpt>
      <trkpt lat="48.52956" lon="2.08936">
        <ele>138</ele>
        <time>2021-03-07T11:19:17.746Z</time>
      </trkpt>
      <trkpt lat="48.52953" lon="2.0894">
        <ele>137</ele>
        <time>2021-03-07T11:19:18.746Z</time>
      </trkpt>
      <trkpt lat="48.52949" lon="2.08945">
        <ele>137</ele>
        <time>2021-03-07T11:19:19.746Z</time>
      </trkpt>
      <trkpt lat="48.52945" lon="2.0895">
        <ele>137</ele>
        <time>2021-03-07T11:19:20.745Z</time>
      </trkpt>
      <trkpt lat="48.52943" lon="2.08953">
        <ele>138</ele>
        <time>2021-03-07T11:19:21.746Z</time>
      </trkpt>
      <trkpt lat="48.52939" lon="2.08958">
        <ele>138</ele>
        <time>2021-03-07T11:19:22.746Z</time>
      </trkpt>
      <trkpt lat="48.52935" lon="2.08962">
        <ele>138</ele>
        <time>2021-03-07T11:19:23.746Z</time>
      </trkpt>
      <trkpt lat="48.52933" lon="2.08965">
        <ele>138</ele>
        <time>2021-03-07T11:19:24.746Z</time>
      </trkpt>
      <trkpt lat="48.5293" lon="2.08968">
        <ele>138</ele>
        <time>2021-03-07T11:19:25.746Z</time>
      </trkpt>
      <trkpt lat="48.52926" lon="2.08972">
        <ele>138</ele>
        <time>2021-03-07T11:19:26.746Z</time>
      </trkpt>
      <trkpt lat="48.52923" lon="2.08976">
        <ele>138</ele>
        <time>2021-03-07T11:19:27.746Z</time>
      </trkpt>
      <trkpt lat="48.5292" lon="2.08979">
        <ele>138</ele>
        <time>2021-03-07T11:19:28.746Z</time>
      </trkpt>
      <trkpt lat="48.52917" lon="2.08983">
        <ele>138</ele>
        <time>2021-03-07T11:19:29.746Z</time>
      </trkpt>
      <trkpt lat="48.52914" lon="2.08987">
        <ele>138</ele>
        <time>2021-03-07T11:19:30.745Z</time>
      </trkpt>
      <trkpt lat="48.52911" lon="2.0899">
        <ele>137</ele>
        <time>2021-03-07T11:19:31.745Z</time>
      </trkpt>
      <trkpt lat="48.52909" lon="2.08994">
        <ele>137</ele>
        <time>2021-03-07T11:19:32.746Z</time>
      </trkpt>
      <trkpt lat="48.52906" lon="2.08997">
        <ele>137</ele>
        <time>2021-03-07T11:19:33.746Z</time>
      </trkpt>
      <trkpt lat="48.52904" lon="2.09001">
        <ele>138</ele>
        <time>2021-03-07T11:19:34.746Z</time>
      </trkpt>
      <trkpt lat="48.52901" lon="2.09005">
        <ele>138</ele>
        <time>2021-03-07T11:19:35.745Z</time>
      </trkpt>
      <trkpt lat="48.52899" lon="2.09009">
        <ele>138</ele>
        <time>2021-03-07T11:19:36.745Z</time>
      </trkpt>
      <trkpt lat="48.52896" lon="2.09013">
        <ele>138</ele>
        <time>2021-03-07T11:19:37.746Z</time>
      </trkpt>
      <trkpt lat="48.52894" lon="2.09017">
        <ele>138</ele>
        <time>2021-03-07T11:19:38.746Z</time>
      </trkpt>
      <trkpt lat="48.52892" lon="2.09021">
        <ele>138</ele>
        <time>2021-03-07T11:19:39.745Z</time>
      </trkpt>
      <trkpt lat="48.52891" lon="2.09024">
        <ele>138</ele>
        <time>2021-03-07T11:19:40.746Z</time>
      </trkpt>
      <trkpt lat="48.5289" lon="2.09026">
        <ele>138</ele>
        <time>2021-03-07T11:19:41.746Z</time>
      </trkpt>
      <trkpt lat="48.52889" lon="2.09029">
        <ele>138</ele>
        <time>2021-03-07T11:19:42.746Z</time>
      </trkpt>
      <trkpt lat="48.52888" lon="2.09031">
        <ele>138</ele>
        <time>2021-03-07T11:19:43.746Z</time>
      </trkpt>
      <trkpt lat="48.52887" lon="2.09034">
        <ele>137</ele>
        <time>2021-03-07T11:19:44.745Z</time>
      </trkpt>
      <trkpt lat="48.52886" lon="2.09036">
        <ele>137</ele>
        <time>2021-03-07T11:19:45.746Z</time>
      </trkpt>
      <trkpt lat="48.52885" lon="2.09038">
        <ele>137</ele>
        <time>2021-03-07T11:19:46.746Z</time>
      </trkpt>
      <trkpt lat="48.52885" lon="2.09039">
        <ele>137</ele>
        <time>2021-03-07T11:19:47.746Z</time>
      </trkpt>
      <trkpt lat="48.52886" lon="2.09041">
        <ele>137</ele>
        <time>2021-03-07T11:19:48.745Z</time>
      </trkpt>
      <trkpt lat="48.52887" lon="2.09042">
        <ele>138</ele>
        <time>2021-03-07T11:19:49.746Z</time>
      </trkpt>
      <trkpt lat="48.52887" lon="2.09043">
        <ele>138</ele>
        <time>2021-03-07T11:19:50.745Z</time>
      </trkpt>
      <trkpt lat="48.52889" lon="2.09044">
        <ele>138</ele>
        <time>2021-03-07T11:19:51.745Z</time>
      </trkpt>
      <trkpt lat="48.52891" lon="2.09044">
        <ele>139</ele>
        <time>2021-03-07T11:19:52.746Z</time>
      </trkpt>
      <trkpt lat="48.52893" lon="2.09043">
        <ele>139</ele>
        <time>2021-03-07T11:19:53.746Z</time>
      </trkpt>
      <trkpt lat="48.52895" lon="2.09042">
        <ele>140</ele>
        <time>2021-03-07T11:19:54.746Z</time>
      </trkpt>
      <trkpt lat="48.52897" lon="2.09041">
        <ele>140</ele>
        <time>2021-03-07T11:19:55.745Z</time>
      </trkpt>
      <trkpt lat="48.52898" lon="2.0904">
        <ele>140</ele>
        <time>2021-03-07T11:19:56.746Z</time>
      </trkpt>
      <trkpt lat="48.52899" lon="2.0904">
        <ele>140</ele>
        <time>2021-03-07T11:19:57.746Z</time>
      </trkpt>
      <trkpt lat="48.52901" lon="2.09039">
        <ele>140</ele>
        <time>2021-03-07T11:19:58.745Z</time>
      </trkpt>
      <trkpt lat="48.52902" lon="2.09039">
        <ele>140</ele>
        <time>2021-03-07T11:19:59.746Z</time>
      </trkpt>
      <trkpt lat="48.52903" lon="2.09038">
        <ele>141</ele>
        <time>2021-03-07T11:20:00.746Z</time>
      </trkpt>
      <trkpt lat="48.52904" lon="2.09037">
        <ele>141</ele>
        <time>2021-03-07T11:20:01.745Z</time>
      </trkpt>
      <trkpt lat="48.52906" lon="2.09036">
        <ele>141</ele>
        <time>2021-03-07T11:20:02.746Z</time>
      </trkpt>
      <trkpt lat="48.52907" lon="2.09036">
        <ele>142</ele>
        <time>2021-03-07T11:20:03.746Z</time>
      </trkpt>
      <trkpt lat="48.52908" lon="2.09036">
        <ele>142</ele>
        <time>2021-03-07T11:20:04.746Z</time>
      </trkpt>
      <trkpt lat="48.52909" lon="2.09036">
        <ele>142</ele>
        <time>2021-03-07T11:20:05.746Z</time>
      </trkpt>
      <trkpt lat="48.52911" lon="2.09037">
        <ele>143</ele>
        <time>2021-03-07T11:20:06.746Z</time>
      </trkpt>
      <trkpt lat="48.52913" lon="2.09037">
        <ele>143</ele>
        <time>2021-03-07T11:20:07.746Z</time>
      </trkpt>
      <trkpt lat="48.52915" lon="2.09037">
        <ele>143</ele>
        <time>2021-03-07T11:20:08.745Z</time>
      </trkpt>
      <trkpt lat="48.52917" lon="2.09037">
        <ele>144</ele>
        <time>2021-03-07T11:20:09.746Z</time>
      </trkpt>
      <trkpt lat="48.52918" lon="2.09038">
        <ele>144</ele>
        <time>2021-03-07T11:20:10.746Z</time>
      </trkpt>
      <trkpt lat="48.52919" lon="2.09038">
        <ele>144</ele>
        <time>2021-03-07T11:20:11.746Z</time>
      </trkpt>
      <trkpt lat="48.5292" lon="2.0904">
        <ele>144</ele>
        <time>2021-03-07T11:20:12.746Z</time>
      </trkpt>
      <trkpt lat="48.52921" lon="2.09041">
        <ele>144</ele>
        <time>2021-03-07T11:20:13.746Z</time>
      </trkpt>
      <trkpt lat="48.52922" lon="2.09042">
        <ele>144</ele>
        <time>2021-03-07T11:20:14.746Z</time>
      </trkpt>
      <trkpt lat="48.52923" lon="2.09043">
        <ele>144</ele>
        <time>2021-03-07T11:20:15.746Z</time>
      </trkpt>
      <trkpt lat="48.52924" lon="2.09044">
        <ele>144</ele>
        <time>2021-03-07T11:20:16.746Z</time>
      </trkpt>
      <trkpt lat="48.52924" lon="2.09045">
        <ele>145</ele>
        <time>2021-03-07T11:20:17.745Z</time>
      </trkpt>
      <trkpt lat="48.52924" lon="2.09048">
        <ele>145</ele>
        <time>2021-03-07T11:20:18.745Z</time>
      </trkpt>
      <trkpt lat="48.52924" lon="2.09051">
        <ele>145</ele>
        <time>2021-03-07T11:20:19.746Z</time>
      </trkpt>
      <trkpt lat="48.52923" lon="2.09053">
        <ele>145</ele>
        <time>2021-03-07T11:20:20.745Z</time>
      </trkpt>
      <trkpt lat="48.52923" lon="2.09055">
        <ele>145</ele>
        <time>2021-03-07T11:20:21.746Z</time>
      </trkpt>
      <trkpt lat="48.52922" lon="2.09057">
        <ele>145</ele>
        <time>2021-03-07T11:20:22.746Z</time>
      </trkpt>
      <trkpt lat="48.52921" lon="2.0906">
        <ele>144</ele>
        <time>2021-03-07T11:20:23.746Z</time>
      </trkpt>
      <trkpt lat="48.5292" lon="2.09063">
        <ele>144</ele>
        <time>2021-03-07T11:20:24.746Z</time>
      </trkpt>
      <trkpt lat="48.5292" lon="2.09065">
        <ele>144</ele>
        <time>2021-03-07T11:20:25.746Z</time>
      </trkpt>
      <trkpt lat="48.5292" lon="2.09067">
        <ele>144</ele>
        <time>2021-03-07T11:20:26.746Z</time>
      </trkpt>
      <trkpt lat="48.5292" lon="2.09069">
        <ele>144</ele>
        <time>2021-03-07T11:20:27.745Z</time>
      </trkpt>
      <trkpt lat="48.5292" lon="2.09071">
        <ele>145</ele>
        <time>2021-03-07T11:20:28.745Z</time>
      </trkpt>
      <trkpt lat="48.5292" lon="2.09073">
        <ele>145</ele>
        <time>2021-03-07T11:20:29.746Z</time>
      </trkpt>
      <trkpt lat="48.52919" lon="2.09075">
        <ele>145</ele>
        <time>2021-03-07T11:20:30.746Z</time>
      </trkpt>
      <trkpt lat="48.52918" lon="2.09078">
        <ele>145</ele>
        <time>2021-03-07T11:20:31.746Z</time>
      </trkpt>
      <trkpt lat="48.52918" lon="2.09079">
        <ele>146</ele>
        <time>2021-03-07T11:20:32.746Z</time>
      </trkpt>
      <trkpt lat="48.52918" lon="2.09081">
        <ele>146</ele>
        <time>2021-03-07T11:20:33.746Z</time>
      </trkpt>
      <trkpt lat="48.52919" lon="2.09082">
        <ele>147</ele>
        <time>2021-03-07T11:20:34.746Z</time>
      </trkpt>
      <trkpt lat="48.5292" lon="2.09084">
        <ele>147</ele>
        <time>2021-03-07T11:20:35.746Z</time>
      </trkpt>
      <trkpt lat="48.5292" lon="2.09086">
        <ele>147</ele>
        <time>2021-03-07T11:20:36.746Z</time>
      </trkpt>
      <trkpt lat="48.5292" lon="2.09087">
        <ele>147</ele>
        <time>2021-03-07T11:20:37.745Z</time>
      </trkpt>
      <trkpt lat="48.52919" lon="2.0909">
        <ele>148</ele>
        <time>2021-03-07T11:20:38.746Z</time>
      </trkpt>
      <trkpt lat="48.52919" lon="2.09092">
        <ele>148</ele>
        <time>2021-03-07T11:20:39.746Z</time>
      </trkpt>
      <trkpt lat="48.52918" lon="2.09095">
        <ele>149</ele>
        <time>2021-03-07T11:20:40.745Z</time>
      </trkpt>
      <trkpt lat="48.52918" lon="2.09098">
        <ele>149</ele>
        <time>2021-03-07T11:20:41.745Z</time>
      </trkpt>
      <trkpt lat="48.52918" lon="2.091">
        <ele>149</ele>
        <time>2021-03-07T11:20:42.745Z</time>
      </trkpt>
      <trkpt lat="48.52918" lon="2.09102">
        <ele>150</ele>
        <time>2021-03-07T11:20:43.746Z</time>
      </trkpt>
      <trkpt lat="48.52918" lon="2.09103">
        <ele>150</ele>
        <time>2021-03-07T11:20:44.746Z</time>
      </trkpt>
      <trkpt lat="48.52918" lon="2.09105">
        <ele>150</ele>
        <time>2021-03-07T11:20:45.746Z</time>
      </trkpt>
      <trkpt lat="48.52918" lon="2.09106">
        <ele>151</ele>
        <time>2021-03-07T11:20:46.746Z</time>
      </trkpt>
      <trkpt lat="48.52918" lon="2.09108">
        <ele>151</ele>
        <time>2021-03-07T11:20:47.746Z</time>
      </trkpt>
      <trkpt lat="48.52917" lon="2.09111">
        <ele>152</ele>
        <time>2021-03-07T11:20:48.746Z</time>
      </trkpt>
      <trkpt lat="48.52917" lon="2.09113">
        <ele>152</ele>
        <time>2021-03-07T11:20:49.746Z</time>
      </trkpt>
      <trkpt lat="48.52917" lon="2.09115">
        <ele>153</ele>
        <time>2021-03-07T11:20:50.746Z</time>
      </trkpt>
      <trkpt lat="48.52917" lon="2.09117">
        <ele>153</ele>
        <time>2021-03-07T11:20:51.746Z</time>
      </trkpt>
      <trkpt lat="48.52917" lon="2.0912">
        <ele>154</ele>
        <time>2021-03-07T11:20:52.745Z</time>
      </trkpt>
      <trkpt lat="48.52917" lon="2.09123">
        <ele>154</ele>
        <time>2021-03-07T11:20:53.746Z</time>
      </trkpt>
      <trkpt lat="48.52917" lon="2.09125">
        <ele>155</ele>
        <time>2021-03-07T11:20:54.746Z</time>
      </trkpt>
      <trkpt lat="48.52917" lon="2.09128">
        <ele>155</ele>
        <time>2021-03-07T11:20:55.745Z</time>
      </trkpt>
      <trkpt lat="48.52918" lon="2.09132">
        <ele>155</ele>
        <time>2021-03-07T11:20:56.745Z</time>
      </trkpt>
      <trkpt lat="48.52918" lon="2.09137">
        <ele>155</ele>
        <time>2021-03-07T11:20:57.746Z</time>
      </trkpt>
      <trkpt lat="48.52919" lon="2.09141">
        <ele>155</ele>
        <time>2021-03-07T11:20:58.745Z</time>
      </trkpt>
      <trkpt lat="48.5292" lon="2.09145">
        <ele>155</ele>
        <time>2021-03-07T11:20:59.745Z</time>
      </trkpt>
      <trkpt lat="48.52921" lon="2.09149">
        <ele>156</ele>
        <time>2021-03-07T11:21:00.745Z</time>
      </trkpt>
      <trkpt lat="48.52922" lon="2.09154">
        <ele>156</ele>
        <time>2021-03-07T11:21:01.746Z</time>
      </trkpt>
      <trkpt lat="48.52923" lon="2.09158">
        <ele>156</ele>
        <time>2021-03-07T11:21:02.746Z</time>
      </trkpt>
      <trkpt lat="48.52925" lon="2.09162">
        <ele>157</ele>
        <time>2021-03-07T11:21:03.745Z</time>
      </trkpt>
      <trkpt lat="48.52926" lon="2.09166">
        <ele>157</ele>
        <time>2021-03-07T11:21:04.745Z</time>
      </trkpt>
      <trkpt lat="48.52927" lon="2.09171">
        <ele>157</ele>
        <time>2021-03-07T11:21:05.746Z</time>
      </trkpt>
      <trkpt lat="48.52929" lon="2.09175">
        <ele>157</ele>
        <time>2021-03-07T11:21:06.745Z</time>
      </trkpt>
      <trkpt lat="48.5293" lon="2.09178">
        <ele>157</ele>
        <time>2021-03-07T11:21:07.746Z</time>
      </trkpt>
      <trkpt lat="48.52931" lon="2.09181">
        <ele>158</ele>
        <time>2021-03-07T11:21:08.746Z</time>
      </trkpt>
      <trkpt lat="48.52932" lon="2.09183">
        <ele>158</ele>
        <time>2021-03-07T11:21:09.746Z</time>
      </trkpt>
      <trkpt lat="48.52933" lon="2.09186">
        <ele>158</ele>
        <time>2021-03-07T11:21:10.746Z</time>
      </trkpt>
      <trkpt lat="48.52935" lon="2.09188">
        <ele>158</ele>
        <time>2021-03-07T11:21:11.746Z</time>
      </trkpt>
      <trkpt lat="48.52937" lon="2.09193">
        <ele>158</ele>
        <time>2021-03-07T11:21:12.746Z</time>
      </trkpt>
      <trkpt lat="48.52939" lon="2.09197">
        <ele>158</ele>
        <time>2021-03-07T11:21:13.746Z</time>
      </trkpt>
      <trkpt lat="48.52941" lon="2.092">
        <ele>158</ele>
        <time>2021-03-07T11:21:14.746Z</time>
      </trkpt>
      <trkpt lat="48.52942" lon="2.09204">
        <ele>157</ele>
        <time>2021-03-07T11:21:15.745Z</time>
      </trkpt>
      <trkpt lat="48.52944" lon="2.09207">
        <ele>157</ele>
        <time>2021-03-07T11:21:16.745Z</time>
      </trkpt>
      <trkpt lat="48.52946" lon="2.09209">
        <ele>157</ele>
        <time>2021-03-07T11:21:17.746Z</time>
      </trkpt>
      <trkpt lat="48.52949" lon="2.09211">
        <ele>157</ele>
        <time>2021-03-07T11:21:18.746Z</time>
      </trkpt>
      <trkpt lat="48.52951" lon="2.09213">
        <ele>157</ele>
        <time>2021-03-07T11:21:19.746Z</time>
      </trkpt>
      <trkpt lat="48.52954" lon="2.09214">
        <ele>157</ele>
        <time>2021-03-07T11:21:20.746Z</time>
      </trkpt>
      <trkpt lat="48.52957" lon="2.09216">
        <ele>158</ele>
        <time>2021-03-07T11:21:21.746Z</time>
      </trkpt>
      <trkpt lat="48.5296" lon="2.09217">
        <ele>158</ele>
        <time>2021-03-07T11:21:22.746Z</time>
      </trkpt>
      <trkpt lat="48.52963" lon="2.09219">
        <ele>158</ele>
        <time>2021-03-07T11:21:23.746Z</time>
      </trkpt>
      <trkpt lat="48.52966" lon="2.09221">
        <ele>158</ele>
        <time>2021-03-07T11:21:24.746Z</time>
      </trkpt>
      <trkpt lat="48.52969" lon="2.09223">
        <ele>158</ele>
        <time>2021-03-07T11:21:25.746Z</time>
      </trkpt>
      <trkpt lat="48.52972" lon="2.09225">
        <ele>158</ele>
        <time>2021-03-07T11:21:26.745Z</time>
      </trkpt>
      <trkpt lat="48.52975" lon="2.09227">
        <ele>158</ele>
        <time>2021-03-07T11:21:27.745Z</time>
      </trkpt>
      <trkpt lat="48.52976" lon="2.09229">
        <ele>159</ele>
        <time>2021-03-07T11:21:28.746Z</time>
      </trkpt>
      <trkpt lat="48.52978" lon="2.09231">
        <ele>159</ele>
        <time>2021-03-07T11:21:29.746Z</time>
      </trkpt>
      <trkpt lat="48.52979" lon="2.09233">
        <ele>159</ele>
        <time>2021-03-07T11:21:30.746Z</time>
      </trkpt>
      <trkpt lat="48.5298" lon="2.09236">
        <ele>159</ele>
        <time>2021-03-07T11:21:31.745Z</time>
      </trkpt>
      <trkpt lat="48.52981" lon="2.0924">
        <ele>158</ele>
        <time>2021-03-07T11:21:32.745Z</time>
      </trkpt>
      <trkpt lat="48.52982" lon="2.09244">
        <ele>158</ele>
        <time>2021-03-07T11:21:33.746Z</time>
      </trkpt>
      <trkpt lat="48.52984" lon="2.09247">
        <ele>158</ele>
        <time>2021-03-07T11:21:34.746Z</time>
      </trkpt>
      <trkpt lat="48.52985" lon="2.09251">
        <ele>158</ele>
        <time>2021-03-07T11:21:35.746Z</time>
      </trkpt>
      <trkpt lat="48.52987" lon="2.09256">
        <ele>158</ele>
        <time>2021-03-07T11:21:36.746Z</time>
      </trkpt>
      <trkpt lat="48.52987" lon="2.0926">
        <ele>158</ele>
        <time>2021-03-07T11:21:37.746Z</time>
      </trkpt>
      <trkpt lat="48.52989" lon="2.09264">
        <ele>158</ele>
        <time>2021-03-07T11:21:38.745Z</time>
      </trkpt>
      <trkpt lat="48.5299" lon="2.09267">
        <ele>157</ele>
        <time>2021-03-07T11:21:39.745Z</time>
      </trkpt>
      <trkpt lat="48.52991" lon="2.0927">
        <ele>157</ele>
        <time>2021-03-07T11:21:40.746Z</time>
      </trkpt>
      <trkpt lat="48.52993" lon="2.09274">
        <ele>157</ele>
        <time>2021-03-07T11:21:41.746Z</time>
      </trkpt>
      <trkpt lat="48.52995" lon="2.09277">
        <ele>156</ele>
        <time>2021-03-07T11:21:42.746Z</time>
      </trkpt>
      <trkpt lat="48.52996" lon="2.09279">
        <ele>156</ele>
        <time>2021-03-07T11:21:43.746Z</time>
      </trkpt>
      <trkpt lat="48.52998" lon="2.09281">
        <ele>156</ele>
        <time>2021-03-07T11:21:44.746Z</time>
      </trkpt>
      <trkpt lat="48.52999" lon="2.09282">
        <ele>156</ele>
        <time>2021-03-07T11:21:45.745Z</time>
      </trkpt>
      <trkpt lat="48.53001" lon="2.09283">
        <ele>156</ele>
        <time>2021-03-07T11:21:46.745Z</time>
      </trkpt>
      <trkpt lat="48.53003" lon="2.09284">
        <ele>156</ele>
        <time>2021-03-07T11:21:47.745Z</time>
      </trkpt>
      <trkpt lat="48.53006" lon="2.09284">
        <ele>155</ele>
        <time>2021-03-07T11:21:48.746Z</time>
      </trkpt>
      <trkpt lat="48.53009" lon="2.09284">
        <ele>155</ele>
        <time>2021-03-07T11:21:49.746Z</time>
      </trkpt>
      <trkpt lat="48.53012" lon="2.09284">
        <ele>155</ele>
        <time>2021-03-07T11:21:50.746Z</time>
      </trkpt>
      <trkpt lat="48.53016" lon="2.09283">
        <ele>155</ele>
        <time>2021-03-07T11:21:51.746Z</time>
      </trkpt>
      <trkpt lat="48.53018" lon="2.09283">
        <ele>155</ele>
        <time>2021-03-07T11:21:52.746Z</time>
      </trkpt>
      <trkpt lat="48.53022" lon="2.09282">
        <ele>155</ele>
        <time>2021-03-07T11:21:53.746Z</time>
      </trkpt>
      <trkpt lat="48.53024" lon="2.09282">
        <ele>155</ele>
        <time>2021-03-07T11:21:54.746Z</time>
      </trkpt>
      <trkpt lat="48.53027" lon="2.09282">
        <ele>155</ele>
        <time>2021-03-07T11:21:55.745Z</time>
      </trkpt>
      <trkpt lat="48.53031" lon="2.09282">
        <ele>154</ele>
        <time>2021-03-07T11:21:56.746Z</time>
      </trkpt>
      <trkpt lat="48.53035" lon="2.09282">
        <ele>154</ele>
        <time>2021-03-07T11:21:57.745Z</time>
      </trkpt>
      <trkpt lat="48.53038" lon="2.09282">
        <ele>154</ele>
        <time>2021-03-07T11:21:58.745Z</time>
      </trkpt>
      <trkpt lat="48.53042" lon="2.09283">
        <ele>153</ele>
        <time>2021-03-07T11:21:59.746Z</time>
      </trkpt>
      <trkpt lat="48.53045" lon="2.09284">
        <ele>153</ele>
        <time>2021-03-07T11:22:00.746Z</time>
      </trkpt>
      <trkpt lat="48.53048" lon="2.09284">
        <ele>152</ele>
        <time>2021-03-07T11:22:01.746Z</time>
      </trkpt>
      <trkpt lat="48.5305" lon="2.09285">
        <ele>152</ele>
        <time>2021-03-07T11:22:02.746Z</time>
      </trkpt>
      <trkpt lat="48.53053" lon="2.09285">
        <ele>152</ele>
        <time>2021-03-07T11:22:03.746Z</time>
      </trkpt>
      <trkpt lat="48.53055" lon="2.09285">
        <ele>152</ele>
        <time>2021-03-07T11:22:04.746Z</time>
      </trkpt>
      <trkpt lat="48.53058" lon="2.09285">
        <ele>152</ele>
        <time>2021-03-07T11:22:05.746Z</time>
      </trkpt>
      <trkpt lat="48.5306" lon="2.09285">
        <ele>152</ele>
        <time>2021-03-07T11:22:06.746Z</time>
      </trkpt>
      <trkpt lat="48.53064" lon="2.09284">
        <ele>152</ele>
        <time>2021-03-07T11:22:07.746Z</time>
      </trkpt>
      <trkpt lat="48.53067" lon="2.09283">
        <ele>152</ele>
        <time>2021-03-07T11:22:08.746Z</time>
      </trkpt>
      <trkpt lat="48.5307" lon="2.09283">
        <ele>152</ele>
        <time>2021-03-07T11:22:09.746Z</time>
      </trkpt>
      <trkpt lat="48.53073" lon="2.09282">
        <ele>152</ele>
        <time>2021-03-07T11:22:10.746Z</time>
      </trkpt>
      <trkpt lat="48.53077" lon="2.0928">
        <ele>152</ele>
        <time>2021-03-07T11:22:11.745Z</time>
      </trkpt>
      <trkpt lat="48.53081" lon="2.09279">
        <ele>152</ele>
        <time>2021-03-07T11:22:12.745Z</time>
      </trkpt>
      <trkpt lat="48.53084" lon="2.09278">
        <ele>152</ele>
        <time>2021-03-07T11:22:13.746Z</time>
      </trkpt>
      <trkpt lat="48.53088" lon="2.09279">
        <ele>152</ele>
        <time>2021-03-07T11:22:14.746Z</time>
      </trkpt>
      <trkpt lat="48.53091" lon="2.0928">
        <ele>152</ele>
        <time>2021-03-07T11:22:15.746Z</time>
      </trkpt>
      <trkpt lat="48.53094" lon="2.09282">
        <ele>152</ele>
        <time>2021-03-07T11:22:16.746Z</time>
      </trkpt>
      <trkpt lat="48.53098" lon="2.09284">
        <ele>152</ele>
        <time>2021-03-07T11:22:17.745Z</time>
      </trkpt>
      <trkpt lat="48.53101" lon="2.09285">
        <ele>152</ele>
        <time>2021-03-07T11:22:18.745Z</time>
      </trkpt>
      <trkpt lat="48.53105" lon="2.09286">
        <ele>152</ele>
        <time>2021-03-07T11:22:19.746Z</time>
      </trkpt>
      <trkpt lat="48.53108" lon="2.09288">
        <ele>152</ele>
        <time>2021-03-07T11:22:20.745Z</time>
      </trkpt>
      <trkpt lat="48.53111" lon="2.09289">
        <ele>152</ele>
        <time>2021-03-07T11:22:21.746Z</time>
      </trkpt>
      <trkpt lat="48.53114" lon="2.0929">
        <ele>152</ele>
        <time>2021-03-07T11:22:22.745Z</time>
      </trkpt>
      <trkpt lat="48.53116" lon="2.09292">
        <ele>152</ele>
        <time>2021-03-07T11:22:23.745Z</time>
      </trkpt>
      <trkpt lat="48.53119" lon="2.09293">
        <ele>152</ele>
        <time>2021-03-07T11:22:24.746Z</time>
      </trkpt>
      <trkpt lat="48.53121" lon="2.09295">
        <ele>152</ele>
        <time>2021-03-07T11:22:25.746Z</time>
      </trkpt>
      <trkpt lat="48.53125" lon="2.09296">
        <ele>152</ele>
        <time>2021-03-07T11:22:26.745Z</time>
      </trkpt>
      <trkpt lat="48.53128" lon="2.09297">
        <ele>152</ele>
        <time>2021-03-07T11:22:27.746Z</time>
      </trkpt>
      <trkpt lat="48.5313" lon="2.093">
        <ele>153</ele>
        <time>2021-03-07T11:22:28.745Z</time>
      </trkpt>
      <trkpt lat="48.53131" lon="2.09302">
        <ele>153</ele>
        <time>2021-03-07T11:22:29.745Z</time>
      </trkpt>
      <trkpt lat="48.53132" lon="2.09304">
        <ele>153</ele>
        <time>2021-03-07T11:22:30.745Z</time>
      </trkpt>
      <trkpt lat="48.53135" lon="2.09307">
        <ele>153</ele>
        <time>2021-03-07T11:22:31.746Z</time>
      </trkpt>
      <trkpt lat="48.53138" lon="2.0931">
        <ele>154</ele>
        <time>2021-03-07T11:22:32.746Z</time>
      </trkpt>
      <trkpt lat="48.5314" lon="2.09312">
        <ele>154</ele>
        <time>2021-03-07T11:22:33.745Z</time>
      </trkpt>
      <trkpt lat="48.53143" lon="2.09314">
        <ele>154</ele>
        <time>2021-03-07T11:22:34.746Z</time>
      </trkpt>
      <trkpt lat="48.53145" lon="2.09315">
        <ele>155</ele>
        <time>2021-03-07T11:22:35.746Z</time>
      </trkpt>
      <trkpt lat="48.53148" lon="2.09315">
        <ele>155</ele>
        <time>2021-03-07T11:22:36.745Z</time>
      </trkpt>
      <trkpt lat="48.5315" lon="2.09316">
        <ele>155</ele>
        <time>2021-03-07T11:22:37.746Z</time>
      </trkpt>
      <trkpt lat="48.53153" lon="2.09318">
        <ele>155</ele>
        <time>2021-03-07T11:22:38.746Z</time>
      </trkpt>
      <trkpt lat="48.53156" lon="2.09319">
        <ele>155</ele>
        <time>2021-03-07T11:22:39.746Z</time>
      </trkpt>
      <trkpt lat="48.53159" lon="2.0932">
        <ele>155</ele>
        <time>2021-03-07T11:22:40.746Z</time>
      </trkpt>
      <trkpt lat="48.53161" lon="2.09321">
        <ele>155</ele>
        <time>2021-03-07T11:22:41.746Z</time>
      </trkpt>
      <trkpt lat="48.53163" lon="2.09322">
        <ele>155</ele>
        <time>2021-03-07T11:22:42.746Z</time>
      </trkpt>
      <trkpt lat="48.53166" lon="2.09323">
        <ele>155</ele>
        <time>2021-03-07T11:22:43.746Z</time>
      </trkpt>
      <trkpt lat="48.53168" lon="2.09324">
        <ele>155</ele>
        <time>2021-03-07T11:22:44.746Z</time>
      </trkpt>
      <trkpt lat="48.53171" lon="2.09324">
        <ele>155</ele>
        <time>2021-03-07T11:22:45.746Z</time>
      </trkpt>
      <trkpt lat="48.53174" lon="2.09324">
        <ele>155</ele>
        <time>2021-03-07T11:22:46.746Z</time>
      </trkpt>
      <trkpt lat="48.53176" lon="2.09324">
        <ele>155</ele>
        <time>2021-03-07T11:22:47.746Z</time>
      </trkpt>
      <trkpt lat="48.53177" lon="2.09324">
        <ele>154</ele>
        <time>2021-03-07T11:22:48.746Z</time>
      </trkpt>
      <trkpt lat="48.53178" lon="2.09323">
        <ele>154</ele>
        <time>2021-03-07T11:22:49.746Z</time>
      </trkpt>
      <trkpt lat="48.53179" lon="2.09323">
        <ele>154</ele>
        <time>2021-03-07T11:22:50.745Z</time>
      </trkpt>
      <trkpt lat="48.5318" lon="2.09323">
        <ele>153</ele>
        <time>2021-03-07T11:22:51.746Z</time>
      </trkpt>
      <trkpt lat="48.53181" lon="2.09323">
        <ele>153</ele>
        <time>2021-03-07T11:22:52.746Z</time>
      </trkpt>
      <trkpt lat="48.53182" lon="2.09322">
        <ele>153</ele>
        <time>2021-03-07T11:22:53.746Z</time>
      </trkpt>
      <trkpt lat="48.53184" lon="2.09322">
        <ele>152</ele>
        <time>2021-03-07T11:22:54.746Z</time>
      </trkpt>
      <trkpt lat="48.53186" lon="2.09323">
        <ele>152</ele>
        <time>2021-03-07T11:22:55.746Z</time>
      </trkpt>
      <trkpt lat="48.53187" lon="2.09324">
        <ele>152</ele>
        <time>2021-03-07T11:22:56.745Z</time>
      </trkpt>
      <trkpt lat="48.53188" lon="2.09326">
        <ele>151</ele>
        <time>2021-03-07T11:22:57.746Z</time>
      </trkpt>
      <trkpt lat="48.53189" lon="2.09327">
        <ele>151</ele>
        <time>2021-03-07T11:22:58.746Z</time>
      </trkpt>
      <trkpt lat="48.5319" lon="2.09328">
        <ele>151</ele>
        <time>2021-03-07T11:22:59.746Z</time>
      </trkpt>
      <trkpt lat="48.53191" lon="2.09329">
        <ele>151</ele>
        <time>2021-03-07T11:23:00.746Z</time>
      </trkpt>
      <trkpt lat="48.53192" lon="2.09331">
        <ele>151</ele>
        <time>2021-03-07T11:23:01.746Z</time>
      </trkpt>
      <trkpt lat="48.53193" lon="2.09331">
        <ele>151</ele>
        <time>2021-03-07T11:23:02.746Z</time>
      </trkpt>
      <trkpt lat="48.53194" lon="2.09333">
        <ele>151</ele>
        <time>2021-03-07T11:23:03.746Z</time>
      </trkpt>
      <trkpt lat="48.53194" lon="2.09334">
        <ele>152</ele>
        <time>2021-03-07T11:23:04.746Z</time>
      </trkpt>
      <trkpt lat="48.53195" lon="2.09336">
        <ele>152</ele>
        <time>2021-03-07T11:23:05.746Z</time>
      </trkpt>
      <trkpt lat="48.53196" lon="2.09337">
        <ele>152</ele>
        <time>2021-03-07T11:23:06.745Z</time>
      </trkpt>
      <trkpt lat="48.53197" lon="2.09338">
        <ele>152</ele>
        <time>2021-03-07T11:23:07.745Z</time>
      </trkpt>
      <trkpt lat="48.53199" lon="2.09339">
        <ele>152</ele>
        <time>2021-03-07T11:23:08.745Z</time>
      </trkpt>
      <trkpt lat="48.532" lon="2.09341">
        <ele>152</ele>
        <time>2021-03-07T11:23:09.746Z</time>
      </trkpt>
      <trkpt lat="48.53201" lon="2.09342">
        <ele>152</ele>
        <time>2021-03-07T11:23:10.746Z</time>
      </trkpt>
      <trkpt lat="48.53201" lon="2.09344">
        <ele>153</ele>
        <time>2021-03-07T11:23:11.745Z</time>
      </trkpt>
      <trkpt lat="48.53202" lon="2.09345">
        <ele>153</ele>
        <time>2021-03-07T11:23:12.745Z</time>
      </trkpt>
      <trkpt lat="48.53202" lon="2.09346">
        <ele>154</ele>
        <time>2021-03-07T11:23:13.746Z</time>
      </trkpt>
      <trkpt lat="48.53203" lon="2.09348">
        <ele>154</ele>
        <time>2021-03-07T11:23:14.746Z</time>
      </trkpt>
      <trkpt lat="48.53204" lon="2.09349">
        <ele>155</ele>
        <time>2021-03-07T11:23:15.745Z</time>
      </trkpt>
      <trkpt lat="48.53204" lon="2.0935">
        <ele>155</ele>
        <time>2021-03-07T11:23:16.745Z</time>
      </trkpt>
      <trkpt lat="48.53205" lon="2.09351">
        <ele>156</ele>
        <time>2021-03-07T11:23:17.746Z</time>
      </trkpt>
      <trkpt lat="48.53206" lon="2.09353">
        <ele>156</ele>
        <time>2021-03-07T11:23:18.746Z</time>
      </trkpt>
      <trkpt lat="48.53207" lon="2.09354">
        <ele>156</ele>
        <time>2021-03-07T11:23:19.746Z</time>
      </trkpt>
      <trkpt lat="48.53208" lon="2.09356">
        <ele>157</ele>
        <time>2021-03-07T11:23:20.745Z</time>
      </trkpt>
      <trkpt lat="48.53209" lon="2.09357">
        <ele>157</ele>
        <time>2021-03-07T11:23:21.745Z</time>
      </trkpt>
      <trkpt lat="48.5321" lon="2.0936">
        <ele>157</ele>
        <time>2021-03-07T11:23:22.745Z</time>
      </trkpt>
      <trkpt lat="48.53211" lon="2.09362">
        <ele>158</ele>
        <time>2021-03-07T11:23:23.746Z</time>
      </trkpt>
      <trkpt lat="48.53213" lon="2.09365">
        <ele>158</ele>
        <time>2021-03-07T11:23:24.746Z</time>
      </trkpt>
      <trkpt lat="48.53214" lon="2.09368">
        <ele>158</ele>
        <time>2021-03-07T11:23:25.746Z</time>
      </trkpt>
      <trkpt lat="48.53216" lon="2.0937">
        <ele>158</ele>
        <time>2021-03-07T11:23:26.746Z</time>
      </trkpt>
      <trkpt lat="48.53218" lon="2.09373">
        <ele>158</ele>
        <time>2021-03-07T11:23:27.745Z</time>
      </trkpt>
      <trkpt lat="48.5322" lon="2.09376">
        <ele>158</ele>
        <time>2021-03-07T11:23:28.746Z</time>
      </trkpt>
      <trkpt lat="48.53222" lon="2.0938">
        <ele>158</ele>
        <time>2021-03-07T11:23:29.746Z</time>
      </trkpt>
      <trkpt lat="48.53224" lon="2.09383">
        <ele>158</ele>
        <time>2021-03-07T11:23:30.746Z</time>
      </trkpt>
      <trkpt lat="48.53226" lon="2.09386">
        <ele>158</ele>
        <time>2021-03-07T11:23:31.746Z</time>
      </trkpt>
      <trkpt lat="48.53228" lon="2.0939">
        <ele>158</ele>
        <time>2021-03-07T11:23:32.746Z</time>
      </trkpt>
      <trkpt lat="48.5323" lon="2.09393">
        <ele>158</ele>
        <time>2021-03-07T11:23:33.746Z</time>
      </trkpt>
      <trkpt lat="48.53233" lon="2.09396">
        <ele>157</ele>
        <time>2021-03-07T11:23:34.745Z</time>
      </trkpt>
      <trkpt lat="48.53235" lon="2.09399">
        <ele>157</ele>
        <time>2021-03-07T11:23:35.746Z</time>
      </trkpt>
      <trkpt lat="48.53236" lon="2.09403">
        <ele>156</ele>
        <time>2021-03-07T11:23:36.746Z</time>
      </trkpt>
      <trkpt lat="48.53238" lon="2.09406">
        <ele>156</ele>
        <time>2021-03-07T11:23:37.745Z</time>
      </trkpt>
      <trkpt lat="48.5324" lon="2.09409">
        <ele>156</ele>
        <time>2021-03-07T11:23:38.745Z</time>
      </trkpt>
      <trkpt lat="48.53242" lon="2.09413">
        <ele>155</ele>
        <time>2021-03-07T11:23:39.745Z</time>
      </trkpt>
      <trkpt lat="48.53243" lon="2.09416">
        <ele>155</ele>
        <time>2021-03-07T11:23:40.745Z</time>
      </trkpt>
      <trkpt lat="48.53245" lon="2.0942">
        <ele>155</ele>
        <time>2021-03-07T11:23:41.746Z</time>
      </trkpt>
      <trkpt lat="48.53246" lon="2.09425">
        <ele>155</ele>
        <time>2021-03-07T11:23:42.746Z</time>
      </trkpt>
      <trkpt lat="48.53247" lon="2.09429">
        <ele>155</ele>
        <time>2021-03-07T11:23:43.746Z</time>
      </trkpt>
      <trkpt lat="48.53248" lon="2.09432">
        <ele>154</ele>
        <time>2021-03-07T11:23:44.746Z</time>
      </trkpt>
      <trkpt lat="48.53247" lon="2.09437">
        <ele>154</ele>
        <time>2021-03-07T11:23:45.746Z</time>
      </trkpt>
      <trkpt lat="48.53246" lon="2.09441">
        <ele>153</ele>
        <time>2021-03-07T11:23:46.746Z</time>
      </trkpt>
      <trkpt lat="48.53245" lon="2.09445">
        <ele>153</ele>
        <time>2021-03-07T11:23:47.746Z</time>
      </trkpt>
      <trkpt lat="48.53244" lon="2.09449">
        <ele>152</ele>
        <time>2021-03-07T11:23:48.746Z</time>
      </trkpt>
      <trkpt lat="48.53243" lon="2.09453">
        <ele>151</ele>
        <time>2021-03-07T11:23:49.746Z</time>
      </trkpt>
      <trkpt lat="48.53241" lon="2.09456">
        <ele>151</ele>
        <time>2021-03-07T11:23:50.746Z</time>
      </trkpt>
      <trkpt lat="48.53241" lon="2.0946">
        <ele>150</ele>
        <time>2021-03-07T11:23:51.745Z</time>
      </trkpt>
      <trkpt lat="48.5324" lon="2.09463">
        <ele>149</ele>
        <time>2021-03-07T11:23:52.745Z</time>
      </trkpt>
      <trkpt lat="48.53239" lon="2.09468">
        <ele>148</ele>
        <time>2021-03-07T11:23:53.745Z</time>
      </trkpt>
      <trkpt lat="48.53238" lon="2.09471">
        <ele>148</ele>
        <time>2021-03-07T11:23:54.745Z</time>
      </trkpt>
      <trkpt lat="48.53238" lon="2.09474">
        <ele>147</ele>
        <time>2021-03-07T11:23:55.745Z</time>
      </trkpt>
      <trkpt lat="48.53237" lon="2.09479">
        <ele>146</ele>
        <time>2021-03-07T11:23:56.746Z</time>
      </trkpt>
      <trkpt lat="48.53236" lon="2.09484">
        <ele>146</ele>
        <time>2021-03-07T11:23:57.746Z</time>
      </trkpt>
      <trkpt lat="48.53235" lon="2.09491">
        <ele>146</ele>
        <time>2021-03-07T11:23:58.746Z</time>
      </trkpt>
      <trkpt lat="48.53236" lon="2.09497">
        <ele>145</ele>
        <time>2021-03-07T11:23:59.746Z</time>
      </trkpt>
      <trkpt lat="48.53236" lon="2.09502">
        <ele>145</ele>
        <time>2021-03-07T11:24:00.745Z</time>
      </trkpt>
      <trkpt lat="48.53236" lon="2.09508">
        <ele>146</ele>
        <time>2021-03-07T11:24:01.746Z</time>
      </trkpt>
      <trkpt lat="48.53237" lon="2.09513">
        <ele>146</ele>
        <time>2021-03-07T11:24:02.746Z</time>
      </trkpt>
      <trkpt lat="48.53237" lon="2.0952">
        <ele>146</ele>
        <time>2021-03-07T11:24:03.746Z</time>
      </trkpt>
      <trkpt lat="48.53238" lon="2.09525">
        <ele>146</ele>
        <time>2021-03-07T11:24:04.746Z</time>
      </trkpt>
      <trkpt lat="48.5324" lon="2.0953">
        <ele>146</ele>
        <time>2021-03-07T11:24:05.746Z</time>
      </trkpt>
      <trkpt lat="48.5324" lon="2.09536">
        <ele>147</ele>
        <time>2021-03-07T11:24:06.746Z</time>
      </trkpt>
      <trkpt lat="48.53241" lon="2.09542">
        <ele>147</ele>
        <time>2021-03-07T11:24:07.746Z</time>
      </trkpt>
      <trkpt lat="48.53242" lon="2.09547">
        <ele>147</ele>
        <time>2021-03-07T11:24:08.746Z</time>
      </trkpt>
      <trkpt lat="48.53242" lon="2.09553">
        <ele>148</ele>
        <time>2021-03-07T11:24:09.746Z</time>
      </trkpt>
      <trkpt lat="48.53243" lon="2.09558">
        <ele>148</ele>
        <time>2021-03-07T11:24:10.745Z</time>
      </trkpt>
      <trkpt lat="48.53244" lon="2.09563">
        <ele>148</ele>
        <time>2021-03-07T11:24:11.746Z</time>
      </trkpt>
      <trkpt lat="48.53246" lon="2.09569">
        <ele>148</ele>
        <time>2021-03-07T11:24:12.746Z</time>
      </trkpt>
      <trkpt lat="48.53246" lon="2.09575">
        <ele>148</ele>
        <time>2021-03-07T11:24:13.746Z</time>
      </trkpt>
      <trkpt lat="48.53247" lon="2.09581">
        <ele>148</ele>
        <time>2021-03-07T11:24:14.746Z</time>
      </trkpt>
      <trkpt lat="48.53247" lon="2.09587">
        <ele>149</ele>
        <time>2021-03-07T11:24:15.746Z</time>
      </trkpt>
      <trkpt lat="48.53248" lon="2.09592">
        <ele>149</ele>
        <time>2021-03-07T11:24:16.745Z</time>
      </trkpt>
      <trkpt lat="48.53247" lon="2.09597">
        <ele>149</ele>
        <time>2021-03-07T11:24:17.746Z</time>
      </trkpt>
      <trkpt lat="48.53247" lon="2.09602">
        <ele>149</ele>
        <time>2021-03-07T11:24:18.746Z</time>
      </trkpt>
      <trkpt lat="48.53247" lon="2.09607">
        <ele>148</ele>
        <time>2021-03-07T11:24:19.746Z</time>
      </trkpt>
      <trkpt lat="48.53247" lon="2.09612">
        <ele>148</ele>
        <time>2021-03-07T11:24:20.746Z</time>
      </trkpt>
      <trkpt lat="48.53246" lon="2.09617">
        <ele>147</ele>
        <time>2021-03-07T11:24:21.745Z</time>
      </trkpt>
      <trkpt lat="48.53245" lon="2.09622">
        <ele>147</ele>
        <time>2021-03-07T11:24:22.745Z</time>
      </trkpt>
      <trkpt lat="48.53245" lon="2.09627">
        <ele>146</ele>
        <time>2021-03-07T11:24:23.745Z</time>
      </trkpt>
      <trkpt lat="48.53243" lon="2.09632">
        <ele>145</ele>
        <time>2021-03-07T11:24:24.745Z</time>
      </trkpt>
      <trkpt lat="48.53243" lon="2.09638">
        <ele>145</ele>
        <time>2021-03-07T11:24:25.746Z</time>
      </trkpt>
      <trkpt lat="48.53243" lon="2.09644">
        <ele>144</ele>
        <time>2021-03-07T11:24:26.746Z</time>
      </trkpt>
      <trkpt lat="48.53243" lon="2.0965">
        <ele>144</ele>
        <time>2021-03-07T11:24:27.746Z</time>
      </trkpt>
      <trkpt lat="48.53243" lon="2.09655">
        <ele>144</ele>
        <time>2021-03-07T11:24:28.746Z</time>
      </trkpt>
      <trkpt lat="48.53244" lon="2.0966">
        <ele>143</ele>
        <time>2021-03-07T11:24:29.746Z</time>
      </trkpt>
      <trkpt lat="48.53245" lon="2.09665">
        <ele>143</ele>
        <time>2021-03-07T11:24:30.746Z</time>
      </trkpt>
      <trkpt lat="48.53246" lon="2.0967">
        <ele>143</ele>
        <time>2021-03-07T11:24:31.746Z</time>
      </trkpt>
      <trkpt lat="48.53246" lon="2.09676">
        <ele>143</ele>
        <time>2021-03-07T11:24:32.746Z</time>
      </trkpt>
      <trkpt lat="48.53247" lon="2.09681">
        <ele>143</ele>
        <time>2021-03-07T11:24:33.746Z</time>
      </trkpt>
      <trkpt lat="48.53248" lon="2.09686">
        <ele>143</ele>
        <time>2021-03-07T11:24:34.746Z</time>
      </trkpt>
      <trkpt lat="48.53249" lon="2.0969">
        <ele>143</ele>
        <time>2021-03-07T11:24:35.746Z</time>
      </trkpt>
      <trkpt lat="48.5325" lon="2.09695">
        <ele>143</ele>
        <time>2021-03-07T11:24:36.746Z</time>
      </trkpt>
      <trkpt lat="48.53251" lon="2.097">
        <ele>143</ele>
        <time>2021-03-07T11:24:37.746Z</time>
      </trkpt>
      <trkpt lat="48.53252" lon="2.09704">
        <ele>143</ele>
        <time>2021-03-07T11:24:38.746Z</time>
      </trkpt>
      <trkpt lat="48.53254" lon="2.09709">
        <ele>144</ele>
        <time>2021-03-07T11:24:39.746Z</time>
      </trkpt>
      <trkpt lat="48.53255" lon="2.09713">
        <ele>144</ele>
        <time>2021-03-07T11:24:40.745Z</time>
      </trkpt>
      <trkpt lat="48.53256" lon="2.09718">
        <ele>144</ele>
        <time>2021-03-07T11:24:41.746Z</time>
      </trkpt>
      <trkpt lat="48.53257" lon="2.09723">
        <ele>143</ele>
        <time>2021-03-07T11:24:42.746Z</time>
      </trkpt>
      <trkpt lat="48.53259" lon="2.09726">
        <ele>143</ele>
        <time>2021-03-07T11:24:43.746Z</time>
      </trkpt>
      <trkpt lat="48.5326" lon="2.09731">
        <ele>143</ele>
        <time>2021-03-07T11:24:44.745Z</time>
      </trkpt>
      <trkpt lat="48.53261" lon="2.09735">
        <ele>143</ele>
        <time>2021-03-07T11:24:45.746Z</time>
      </trkpt>
      <trkpt lat="48.53263" lon="2.0974">
        <ele>143</ele>
        <time>2021-03-07T11:24:46.746Z</time>
      </trkpt>
      <trkpt lat="48.53264" lon="2.09746">
        <ele>142</ele>
        <time>2021-03-07T11:24:47.746Z</time>
      </trkpt>
      <trkpt lat="48.53265" lon="2.09749">
        <ele>142</ele>
        <time>2021-03-07T11:24:48.746Z</time>
      </trkpt>
      <trkpt lat="48.53267" lon="2.09754">
        <ele>142</ele>
        <time>2021-03-07T11:24:49.746Z</time>
      </trkpt>
      <trkpt lat="48.53268" lon="2.09759">
        <ele>142</ele>
        <time>2021-03-07T11:24:50.746Z</time>
      </trkpt>
      <trkpt lat="48.5327" lon="2.09763">
        <ele>142</ele>
        <time>2021-03-07T11:24:51.746Z</time>
      </trkpt>
      <trkpt lat="48.53271" lon="2.09768">
        <ele>142</ele>
        <time>2021-03-07T11:24:52.745Z</time>
      </trkpt>
      <trkpt lat="48.53272" lon="2.09773">
        <ele>142</ele>
        <time>2021-03-07T11:24:53.746Z</time>
      </trkpt>
      <trkpt lat="48.53274" lon="2.09777">
        <ele>142</ele>
        <time>2021-03-07T11:24:54.745Z</time>
      </trkpt>
      <trkpt lat="48.53275" lon="2.09781">
        <ele>142</ele>
        <time>2021-03-07T11:24:55.745Z</time>
      </trkpt>
      <trkpt lat="48.53277" lon="2.09785">
        <ele>142</ele>
        <time>2021-03-07T11:24:56.746Z</time>
      </trkpt>
      <trkpt lat="48.53278" lon="2.09788">
        <ele>142</ele>
        <time>2021-03-07T11:24:57.746Z</time>
      </trkpt>
      <trkpt lat="48.53279" lon="2.09792">
        <ele>142</ele>
        <time>2021-03-07T11:24:58.746Z</time>
      </trkpt>
      <trkpt lat="48.5328" lon="2.09795">
        <ele>142</ele>
        <time>2021-03-07T11:24:59.746Z</time>
      </trkpt>
      <trkpt lat="48.53281" lon="2.09798">
        <ele>142</ele>
        <time>2021-03-07T11:25:00.746Z</time>
      </trkpt>
      <trkpt lat="48.53282" lon="2.098">
        <ele>142</ele>
        <time>2021-03-07T11:25:01.745Z</time>
      </trkpt>
      <trkpt lat="48.53283" lon="2.09802">
        <ele>142</ele>
        <time>2021-03-07T11:25:02.746Z</time>
      </trkpt>
      <trkpt lat="48.53283" lon="2.09805">
        <ele>143</ele>
        <time>2021-03-07T11:25:03.746Z</time>
      </trkpt>
      <trkpt lat="48.53284" lon="2.09807">
        <ele>143</ele>
        <time>2021-03-07T11:25:04.745Z</time>
      </trkpt>
      <trkpt lat="48.53284" lon="2.09809">
        <ele>142</ele>
        <time>2021-03-07T11:25:05.745Z</time>
      </trkpt>
      <trkpt lat="48.53285" lon="2.09811">
        <ele>142</ele>
        <time>2021-03-07T11:25:06.745Z</time>
      </trkpt>
      <trkpt lat="48.53285" lon="2.09813">
        <ele>141</ele>
        <time>2021-03-07T11:25:07.746Z</time>
      </trkpt>
      <trkpt lat="48.53286" lon="2.09815">
        <ele>141</ele>
        <time>2021-03-07T11:25:08.746Z</time>
      </trkpt>
      <trkpt lat="48.53286" lon="2.09816">
        <ele>140</ele>
        <time>2021-03-07T11:25:09.746Z</time>
      </trkpt>
      <trkpt lat="48.53287" lon="2.09819">
        <ele>140</ele>
        <time>2021-03-07T11:25:10.746Z</time>
      </trkpt>
      <trkpt lat="48.53287" lon="2.0982">
        <ele>140</ele>
        <time>2021-03-07T11:25:11.745Z</time>
      </trkpt>
      <trkpt lat="48.53288" lon="2.09823">
        <ele>139</ele>
        <time>2021-03-07T11:25:12.745Z</time>
      </trkpt>
      <trkpt lat="48.53289" lon="2.09825">
        <ele>139</ele>
        <time>2021-03-07T11:25:13.746Z</time>
      </trkpt>
      <trkpt lat="48.53289" lon="2.09827">
        <ele>139</ele>
        <time>2021-03-07T11:25:14.746Z</time>
      </trkpt>
      <trkpt lat="48.5329" lon="2.0983">
        <ele>139</ele>
        <time>2021-03-07T11:25:15.746Z</time>
      </trkpt>
      <trkpt lat="48.53291" lon="2.09831">
        <ele>139</ele>
        <time>2021-03-07T11:25:16.746Z</time>
      </trkpt>
      <trkpt lat="48.53291" lon="2.09833">
        <ele>139</ele>
        <time>2021-03-07T11:25:17.746Z</time>
      </trkpt>
      <trkpt lat="48.53292" lon="2.09835">
        <ele>139</ele>
        <time>2021-03-07T11:25:18.746Z</time>
      </trkpt>
      <trkpt lat="48.53293" lon="2.09838">
        <ele>139</ele>
        <time>2021-03-07T11:25:19.746Z</time>
      </trkpt>
      <trkpt lat="48.53293" lon="2.09839">
        <ele>138</ele>
        <time>2021-03-07T11:25:20.746Z</time>
      </trkpt>
      <trkpt lat="48.53294" lon="2.09841">
        <ele>138</ele>
        <time>2021-03-07T11:25:21.746Z</time>
      </trkpt>
      <trkpt lat="48.53295" lon="2.09843">
        <ele>137</ele>
        <time>2021-03-07T11:25:22.745Z</time>
      </trkpt>
      <trkpt lat="48.53295" lon="2.09845">
        <ele>137</ele>
        <time>2021-03-07T11:25:23.745Z</time>
      </trkpt>
      <trkpt lat="48.53296" lon="2.09847">
        <ele>137</ele>
        <time>2021-03-07T11:25:24.745Z</time>
      </trkpt>
      <trkpt lat="48.53297" lon="2.09848">
        <ele>137</ele>
        <time>2021-03-07T11:25:25.745Z</time>
      </trkpt>
      <trkpt lat="48.53297" lon="2.0985">
        <ele>138</ele>
        <time>2021-03-07T11:25:26.746Z</time>
      </trkpt>
      <trkpt lat="48.53298" lon="2.09852">
        <ele>138</ele>
        <time>2021-03-07T11:25:27.746Z</time>
      </trkpt>
      <trkpt lat="48.53299" lon="2.09854">
        <ele>139</ele>
        <time>2021-03-07T11:25:28.746Z</time>
      </trkpt>
      <trkpt lat="48.533" lon="2.09856">
        <ele>140</ele>
        <time>2021-03-07T11:25:29.746Z</time>
      </trkpt>
      <trkpt lat="48.533" lon="2.09858">
        <ele>141</ele>
        <time>2021-03-07T11:25:30.746Z</time>
      </trkpt>
      <trkpt lat="48.53301" lon="2.0986">
        <ele>141</ele>
        <time>2021-03-07T11:25:31.745Z</time>
      </trkpt>
      <trkpt lat="48.53302" lon="2.09862">
        <ele>142</ele>
        <time>2021-03-07T11:25:32.746Z</time>
      </trkpt>
      <trkpt lat="48.53303" lon="2.09864">
        <ele>143</ele>
        <time>2021-03-07T11:25:33.746Z</time>
      </trkpt>
      <trkpt lat="48.53303" lon="2.09866">
        <ele>143</ele>
        <time>2021-03-07T11:25:34.746Z</time>
      </trkpt>
      <trkpt lat="48.53304" lon="2.09868">
        <ele>144</ele>
        <time>2021-03-07T11:25:35.746Z</time>
      </trkpt>
      <trkpt lat="48.53304" lon="2.0987">
        <ele>144</ele>
        <time>2021-03-07T11:25:36.746Z</time>
      </trkpt>
      <trkpt lat="48.53305" lon="2.09872">
        <ele>144</ele>
        <time>2021-03-07T11:25:37.746Z</time>
      </trkpt>
      <trkpt lat="48.53305" lon="2.09874">
        <ele>144</ele>
        <time>2021-03-07T11:25:38.745Z</time>
      </trkpt>
      <trkpt lat="48.53305" lon="2.09875">
        <ele>145</ele>
        <time>2021-03-07T11:25:39.746Z</time>
      </trkpt>
      <trkpt lat="48.53306" lon="2.09876">
        <ele>145</ele>
        <time>2021-03-07T11:25:40.746Z</time>
      </trkpt>
      <trkpt lat="48.53306" lon="2.09878">
        <ele>144</ele>
        <time>2021-03-07T11:25:41.746Z</time>
      </trkpt>
      <trkpt lat="48.53307" lon="2.0988">
        <ele>144</ele>
        <time>2021-03-07T11:25:42.746Z</time>
      </trkpt>
      <trkpt lat="48.53308" lon="2.09882">
        <ele>144</ele>
        <time>2021-03-07T11:25:43.746Z</time>
      </trkpt>
      <trkpt lat="48.53308" lon="2.09884">
        <ele>143</ele>
        <time>2021-03-07T11:25:44.745Z</time>
      </trkpt>
      <trkpt lat="48.53309" lon="2.09886">
        <ele>143</ele>
        <time>2021-03-07T11:25:45.745Z</time>
      </trkpt>
      <trkpt lat="48.53309" lon="2.09888">
        <ele>142</ele>
        <time>2021-03-07T11:25:46.746Z</time>
      </trkpt>
      <trkpt lat="48.5331" lon="2.0989">
        <ele>141</ele>
        <time>2021-03-07T11:25:47.746Z</time>
      </trkpt>
      <trkpt lat="48.5331" lon="2.09891">
        <ele>141</ele>
        <time>2021-03-07T11:25:48.746Z</time>
      </trkpt>
      <trkpt lat="48.53311" lon="2.09893">
        <ele>140</ele>
        <time>2021-03-07T11:25:49.746Z</time>
      </trkpt>
      <trkpt lat="48.53311" lon="2.09895">
        <ele>140</ele>
        <time>2021-03-07T11:25:50.746Z</time>
      </trkpt>
      <trkpt lat="48.53312" lon="2.09897">
        <ele>140</ele>
        <time>2021-03-07T11:25:51.746Z</time>
      </trkpt>
      <trkpt lat="48.53312" lon="2.09898">
        <ele>140</ele>
        <time>2021-03-07T11:25:52.745Z</time>
      </trkpt>
      <trkpt lat="48.53313" lon="2.099">
        <ele>140</ele>
        <time>2021-03-07T11:25:53.745Z</time>
      </trkpt>
      <trkpt lat="48.53314" lon="2.09902">
        <ele>139</ele>
        <time>2021-03-07T11:25:54.745Z</time>
      </trkpt>
      <trkpt lat="48.53315" lon="2.09904">
        <ele>140</ele>
        <time>2021-03-07T11:25:55.746Z</time>
      </trkpt>
      <trkpt lat="48.53315" lon="2.09906">
        <ele>140</ele>
        <time>2021-03-07T11:25:56.746Z</time>
      </trkpt>
      <trkpt lat="48.53316" lon="2.09908">
        <ele>140</ele>
        <time>2021-03-07T11:25:57.746Z</time>
      </trkpt>
      <trkpt lat="48.53316" lon="2.0991">
        <ele>140</ele>
        <time>2021-03-07T11:25:58.746Z</time>
      </trkpt>
      <trkpt lat="48.53317" lon="2.09912">
        <ele>140</ele>
        <time>2021-03-07T11:25:59.746Z</time>
      </trkpt>
      <trkpt lat="48.53318" lon="2.09915">
        <ele>141</ele>
        <time>2021-03-07T11:26:00.746Z</time>
      </trkpt>
      <trkpt lat="48.53318" lon="2.09917">
        <ele>141</ele>
        <time>2021-03-07T11:26:01.746Z</time>
      </trkpt>
      <trkpt lat="48.53318" lon="2.09919">
        <ele>141</ele>
        <time>2021-03-07T11:26:02.746Z</time>
      </trkpt>
      <trkpt lat="48.53319" lon="2.09921">
        <ele>141</ele>
        <time>2021-03-07T11:26:03.746Z</time>
      </trkpt>
      <trkpt lat="48.53319" lon="2.09923">
        <ele>140</ele>
        <time>2021-03-07T11:26:04.746Z</time>
      </trkpt>
      <trkpt lat="48.53319" lon="2.09926">
        <ele>141</ele>
        <time>2021-03-07T11:26:05.746Z</time>
      </trkpt>
      <trkpt lat="48.53319" lon="2.09928">
        <ele>141</ele>
        <time>2021-03-07T11:26:06.746Z</time>
      </trkpt>
      <trkpt lat="48.53319" lon="2.0993">
        <ele>141</ele>
        <time>2021-03-07T11:26:07.746Z</time>
      </trkpt>
      <trkpt lat="48.53319" lon="2.09932">
        <ele>141</ele>
        <time>2021-03-07T11:26:08.746Z</time>
      </trkpt>
      <trkpt lat="48.53319" lon="2.09934">
        <ele>141</ele>
        <time>2021-03-07T11:26:09.746Z</time>
      </trkpt>
      <trkpt lat="48.53319" lon="2.09936">
        <ele>141</ele>
        <time>2021-03-07T11:26:10.746Z</time>
      </trkpt>
      <trkpt lat="48.53319" lon="2.09938">
        <ele>141</ele>
        <time>2021-03-07T11:26:11.745Z</time>
      </trkpt>
      <trkpt lat="48.53319" lon="2.0994">
        <ele>141</ele>
        <time>2021-03-07T11:26:12.745Z</time>
      </trkpt>
      <trkpt lat="48.53319" lon="2.09942">
        <ele>141</ele>
        <time>2021-03-07T11:26:13.745Z</time>
      </trkpt>
      <trkpt lat="48.53319" lon="2.09945">
        <ele>140</ele>
        <time>2021-03-07T11:26:14.746Z</time>
      </trkpt>
      <trkpt lat="48.53319" lon="2.09947">
        <ele>140</ele>
        <time>2021-03-07T11:26:15.746Z</time>
      </trkpt>
      <trkpt lat="48.53319" lon="2.09949">
        <ele>140</ele>
        <time>2021-03-07T11:26:16.746Z</time>
      </trkpt>
      <trkpt lat="48.53319" lon="2.09951">
        <ele>140</ele>
        <time>2021-03-07T11:26:17.745Z</time>
      </trkpt>
      <trkpt lat="48.53319" lon="2.09953">
        <ele>139</ele>
        <time>2021-03-07T11:26:18.745Z</time>
      </trkpt>
      <trkpt lat="48.53318" lon="2.09954">
        <ele>139</ele>
        <time>2021-03-07T11:26:19.745Z</time>
      </trkpt>
      <trkpt lat="48.53318" lon="2.09956">
        <ele>139</ele>
        <time>2021-03-07T11:26:20.745Z</time>
      </trkpt>
      <trkpt lat="48.53318" lon="2.09958">
        <ele>139</ele>
        <time>2021-03-07T11:26:21.745Z</time>
      </trkpt>
      <trkpt lat="48.53318" lon="2.0996">
        <ele>138</ele>
        <time>2021-03-07T11:26:22.746Z</time>
      </trkpt>
      <trkpt lat="48.53318" lon="2.09962">
        <ele>138</ele>
        <time>2021-03-07T11:26:23.745Z</time>
      </trkpt>
      <trkpt lat="48.53318" lon="2.09964">
        <ele>138</ele>
        <time>2021-03-07T11:26:24.745Z</time>
      </trkpt>
      <trkpt lat="48.53318" lon="2.09966">
        <ele>138</ele>
        <time>2021-03-07T11:26:25.745Z</time>
      </trkpt>
      <trkpt lat="48.53317" lon="2.09969">
        <ele>138</ele>
        <time>2021-03-07T11:26:26.745Z</time>
      </trkpt>
      <trkpt lat="48.53317" lon="2.0997">
        <ele>138</ele>
        <time>2021-03-07T11:26:27.745Z</time>
      </trkpt>
      <trkpt lat="48.53317" lon="2.09972">
        <ele>138</ele>
        <time>2021-03-07T11:26:28.746Z</time>
      </trkpt>
      <trkpt lat="48.53317" lon="2.09974">
        <ele>139</ele>
        <time>2021-03-07T11:26:29.746Z</time>
      </trkpt>
      <trkpt lat="48.53317" lon="2.09977">
        <ele>139</ele>
        <time>2021-03-07T11:26:30.746Z</time>
      </trkpt>
      <trkpt lat="48.53317" lon="2.09979">
        <ele>140</ele>
        <time>2021-03-07T11:26:31.745Z</time>
      </trkpt>
      <trkpt lat="48.53318" lon="2.09981">
        <ele>140</ele>
        <time>2021-03-07T11:26:32.745Z</time>
      </trkpt>
      <trkpt lat="48.53318" lon="2.09983">
        <ele>140</ele>
        <time>2021-03-07T11:26:33.745Z</time>
      </trkpt>
      <trkpt lat="48.53318" lon="2.09986">
        <ele>140</ele>
        <time>2021-03-07T11:26:34.746Z</time>
      </trkpt>
      <trkpt lat="48.53318" lon="2.09988">
        <ele>140</ele>
        <time>2021-03-07T11:26:35.746Z</time>
      </trkpt>
      <trkpt lat="48.53317" lon="2.0999">
        <ele>140</ele>
        <time>2021-03-07T11:26:36.746Z</time>
      </trkpt>
      <trkpt lat="48.53317" lon="2.09992">
        <ele>140</ele>
        <time>2021-03-07T11:26:37.746Z</time>
      </trkpt>
      <trkpt lat="48.53317" lon="2.09994">
        <ele>140</ele>
        <time>2021-03-07T11:26:38.745Z</time>
      </trkpt>
      <trkpt lat="48.53317" lon="2.09996">
        <ele>139</ele>
        <time>2021-03-07T11:26:39.746Z</time>
      </trkpt>
      <trkpt lat="48.53317" lon="2.09998">
        <ele>138</ele>
        <time>2021-03-07T11:26:40.746Z</time>
      </trkpt>
      <trkpt lat="48.53317" lon="2.1">
        <ele>138</ele>
        <time>2021-03-07T11:26:41.746Z</time>
      </trkpt>
      <trkpt lat="48.53316" lon="2.10002">
        <ele>138</ele>
        <time>2021-03-07T11:26:42.746Z</time>
      </trkpt>
      <trkpt lat="48.53317" lon="2.10004">
        <ele>138</ele>
        <time>2021-03-07T11:26:43.746Z</time>
      </trkpt>
      <trkpt lat="48.53316" lon="2.10006">
        <ele>138</ele>
        <time>2021-03-07T11:26:44.745Z</time>
      </trkpt>
      <trkpt lat="48.53316" lon="2.10008">
        <ele>139</ele>
        <time>2021-03-07T11:26:45.746Z</time>
      </trkpt>
      <trkpt lat="48.53316" lon="2.1001">
        <ele>139</ele>
        <time>2021-03-07T11:26:46.746Z</time>
      </trkpt>
      <trkpt lat="48.53317" lon="2.10012">
        <ele>139</ele>
        <time>2021-03-07T11:26:47.746Z</time>
      </trkpt>
      <trkpt lat="48.53316" lon="2.10014">
        <ele>139</ele>
        <time>2021-03-07T11:26:48.746Z</time>
      </trkpt>
      <trkpt lat="48.53316" lon="2.10017">
        <ele>140</ele>
        <time>2021-03-07T11:26:49.745Z</time>
      </trkpt>
      <trkpt lat="48.53317" lon="2.10019">
        <ele>140</ele>
        <time>2021-03-07T11:26:50.745Z</time>
      </trkpt>
      <trkpt lat="48.53317" lon="2.10021">
        <ele>140</ele>
        <time>2021-03-07T11:26:51.746Z</time>
      </trkpt>
      <trkpt lat="48.53317" lon="2.10023">
        <ele>140</ele>
        <time>2021-03-07T11:26:52.745Z</time>
      </trkpt>
      <trkpt lat="48.53317" lon="2.10025">
        <ele>141</ele>
        <time>2021-03-07T11:26:53.745Z</time>
      </trkpt>
      <trkpt lat="48.53318" lon="2.10027">
        <ele>141</ele>
        <time>2021-03-07T11:26:54.746Z</time>
      </trkpt>
      <trkpt lat="48.53318" lon="2.10028">
        <ele>141</ele>
        <time>2021-03-07T11:26:55.745Z</time>
      </trkpt>
      <trkpt lat="48.53319" lon="2.1003">
        <ele>142</ele>
        <time>2021-03-07T11:26:56.745Z</time>
      </trkpt>
      <trkpt lat="48.53319" lon="2.10032">
        <ele>142</ele>
        <time>2021-03-07T11:26:57.745Z</time>
      </trkpt>
      <trkpt lat="48.5332" lon="2.10034">
        <ele>143</ele>
        <time>2021-03-07T11:26:58.745Z</time>
      </trkpt>
      <trkpt lat="48.53321" lon="2.10036">
        <ele>143</ele>
        <time>2021-03-07T11:26:59.745Z</time>
      </trkpt>
      <trkpt lat="48.53322" lon="2.10037">
        <ele>144</ele>
        <time>2021-03-07T11:27:00.745Z</time>
      </trkpt>
      <trkpt lat="48.53323" lon="2.10039">
        <ele>145</ele>
        <time>2021-03-07T11:27:01.745Z</time>
      </trkpt>
      <trkpt lat="48.53323" lon="2.10041">
        <ele>146</ele>
        <time>2021-03-07T11:27:02.745Z</time>
      </trkpt>
      <trkpt lat="48.53323" lon="2.10043">
        <ele>146</ele>
        <time>2021-03-07T11:27:03.745Z</time>
      </trkpt>
      <trkpt lat="48.53324" lon="2.10045">
        <ele>147</ele>
        <time>2021-03-07T11:27:04.745Z</time>
      </trkpt>
      <trkpt lat="48.53325" lon="2.10047">
        <ele>148</ele>
        <time>2021-03-07T11:27:05.745Z</time>
      </trkpt>
      <trkpt lat="48.53325" lon="2.10049">
        <ele>149</ele>
        <time>2021-03-07T11:27:06.745Z</time>
      </trkpt>
      <trkpt lat="48.53326" lon="2.10051">
        <ele>149</ele>
        <time>2021-03-07T11:27:07.745Z</time>
      </trkpt>
      <trkpt lat="48.53326" lon="2.10053">
        <ele>149</ele>
        <time>2021-03-07T11:27:08.746Z</time>
      </trkpt>
      <trkpt lat="48.53327" lon="2.10055">
        <ele>149</ele>
        <time>2021-03-07T11:27:09.746Z</time>
      </trkpt>
      <trkpt lat="48.53327" lon="2.10057">
        <ele>149</ele>
        <time>2021-03-07T11:27:10.746Z</time>
      </trkpt>
      <trkpt lat="48.53328" lon="2.10059">
        <ele>149</ele>
        <time>2021-03-07T11:27:11.746Z</time>
      </trkpt>
      <trkpt lat="48.53329" lon="2.10061">
        <ele>150</ele>
        <time>2021-03-07T11:27:12.745Z</time>
      </trkpt>
      <trkpt lat="48.53329" lon="2.10063">
        <ele>149</ele>
        <time>2021-03-07T11:27:13.745Z</time>
      </trkpt>
      <trkpt lat="48.5333" lon="2.10064">
        <ele>149</ele>
        <time>2021-03-07T11:27:14.746Z</time>
      </trkpt>
      <trkpt lat="48.53331" lon="2.10066">
        <ele>149</ele>
        <time>2021-03-07T11:27:15.746Z</time>
      </trkpt>
      <trkpt lat="48.53331" lon="2.10066">
        <ele>149</ele>
        <time>2021-03-07T11:27:16.745Z</time>
      </trkpt>
      <trkpt lat="48.53331" lon="2.10068">
        <ele>147</ele>
        <time>2021-03-07T11:27:17.745Z</time>
      </trkpt>
      <trkpt lat="48.53331" lon="2.1007">
        <ele>147</ele>
        <time>2021-03-07T11:27:18.746Z</time>
      </trkpt>
      <trkpt lat="48.53332" lon="2.10072">
        <ele>146</ele>
        <time>2021-03-07T11:27:19.746Z</time>
      </trkpt>
      <trkpt lat="48.53333" lon="2.10074">
        <ele>146</ele>
        <time>2021-03-07T11:27:20.746Z</time>
      </trkpt>
      <trkpt lat="48.53334" lon="2.10076">
        <ele>146</ele>
        <time>2021-03-07T11:27:21.746Z</time>
      </trkpt>
      <trkpt lat="48.53335" lon="2.10078">
        <ele>146</ele>
        <time>2021-03-07T11:27:22.746Z</time>
      </trkpt>
      <trkpt lat="48.53335" lon="2.10081">
        <ele>147</ele>
        <time>2021-03-07T11:27:23.746Z</time>
      </trkpt>
      <trkpt lat="48.53334" lon="2.10083">
        <ele>147</ele>
        <time>2021-03-07T11:27:24.746Z</time>
      </trkpt>
      <trkpt lat="48.53333" lon="2.10085">
        <ele>147</ele>
        <time>2021-03-07T11:27:25.745Z</time>
      </trkpt>
      <trkpt lat="48.53332" lon="2.10087">
        <ele>146</ele>
        <time>2021-03-07T11:27:26.745Z</time>
      </trkpt>
      <trkpt lat="48.53332" lon="2.10089">
        <ele>145</ele>
        <time>2021-03-07T11:27:27.745Z</time>
      </trkpt>
      <trkpt lat="48.53331" lon="2.10091">
        <ele>145</ele>
        <time>2021-03-07T11:27:28.745Z</time>
      </trkpt>
      <trkpt lat="48.53331" lon="2.10093">
        <ele>145</ele>
        <time>2021-03-07T11:27:29.745Z</time>
      </trkpt>
      <trkpt lat="48.53331" lon="2.10095">
        <ele>144</ele>
        <time>2021-03-07T11:27:30.746Z</time>
      </trkpt>
      <trkpt lat="48.53331" lon="2.10097">
        <ele>144</ele>
        <time>2021-03-07T11:27:31.746Z</time>
      </trkpt>
      <trkpt lat="48.53331" lon="2.10098">
        <ele>145</ele>
        <time>2021-03-07T11:27:32.746Z</time>
      </trkpt>
      <trkpt lat="48.5333" lon="2.101">
        <ele>145</ele>
        <time>2021-03-07T11:27:33.746Z</time>
      </trkpt>
      <trkpt lat="48.5333" lon="2.101">
        <ele>145</ele>
        <time>2021-03-07T11:27:34.745Z</time>
      </trkpt>
      <trkpt lat="48.5333" lon="2.10104">
        <ele>145</ele>
        <time>2021-03-07T11:27:35.746Z</time>
      </trkpt>
      <trkpt lat="48.5333" lon="2.10106">
        <ele>145</ele>
        <time>2021-03-07T11:27:36.746Z</time>
      </trkpt>
      <trkpt lat="48.53329" lon="2.10108">
        <ele>145</ele>
        <time>2021-03-07T11:27:37.746Z</time>
      </trkpt>
      <trkpt lat="48.53329" lon="2.10108">
        <ele>145</ele>
        <time>2021-03-07T11:27:38.745Z</time>
      </trkpt>
      <trkpt lat="48.53329" lon="2.10111">
        <ele>145</ele>
        <time>2021-03-07T11:27:39.745Z</time>
      </trkpt>
      <trkpt lat="48.53329" lon="2.10111">
        <ele>145</ele>
        <time>2021-03-07T11:27:40.746Z</time>
      </trkpt>
      <trkpt lat="48.53328" lon="2.10116">
        <ele>146</ele>
        <time>2021-03-07T11:27:41.746Z</time>
      </trkpt>
      <trkpt lat="48.53327" lon="2.10118">
        <ele>146</ele>
        <time>2021-03-07T11:27:42.745Z</time>
      </trkpt>
      <trkpt lat="48.53327" lon="2.1012">
        <ele>146</ele>
        <time>2021-03-07T11:27:43.745Z</time>
      </trkpt>
      <trkpt lat="48.53326" lon="2.10122">
        <ele>146</ele>
        <time>2021-03-07T11:27:44.745Z</time>
      </trkpt>
      <trkpt lat="48.53326" lon="2.10125">
        <ele>146</ele>
        <time>2021-03-07T11:27:45.746Z</time>
      </trkpt>
      <trkpt lat="48.53326" lon="2.10125">
        <ele>146</ele>
        <time>2021-03-07T11:27:46.745Z</time>
      </trkpt>
      <trkpt lat="48.53325" lon="2.10129">
        <ele>145</ele>
        <time>2021-03-07T11:27:47.746Z</time>
      </trkpt>
      <trkpt lat="48.53324" lon="2.10131">
        <ele>144</ele>
        <time>2021-03-07T11:27:48.745Z</time>
      </trkpt>
      <trkpt lat="48.53324" lon="2.10133">
        <ele>144</ele>
        <time>2021-03-07T11:27:49.746Z</time>
      </trkpt>
      <trkpt lat="48.53323" lon="2.10135">
        <ele>144</ele>
        <time>2021-03-07T11:27:50.746Z</time>
      </trkpt>
      <trkpt lat="48.53323" lon="2.10137">
        <ele>144</ele>
        <time>2021-03-07T11:27:51.746Z</time>
      </trkpt>
      <trkpt lat="48.53323" lon="2.10137">
        <ele>144</ele>
        <time>2021-03-07T11:27:52.746Z</time>
      </trkpt>
      <trkpt lat="48.53322" lon="2.1014">
        <ele>144</ele>
        <time>2021-03-07T11:27:53.746Z</time>
      </trkpt>
      <trkpt lat="48.53322" lon="2.10141">
        <ele>143</ele>
        <time>2021-03-07T11:27:54.745Z</time>
      </trkpt>
      <trkpt lat="48.53322" lon="2.10141">
        <ele>143</ele>
        <time>2021-03-07T11:27:55.745Z</time>
      </trkpt>
      <trkpt lat="48.53321" lon="2.10145">
        <ele>143</ele>
        <time>2021-03-07T11:27:56.746Z</time>
      </trkpt>
      <trkpt lat="48.53321" lon="2.10146">
        <ele>142</ele>
        <time>2021-03-07T11:27:57.746Z</time>
      </trkpt>
      <trkpt lat="48.53321" lon="2.10148">
        <ele>142</ele>
        <time>2021-03-07T11:27:58.746Z</time>
      </trkpt>
      <trkpt lat="48.53321" lon="2.1015">
        <ele>142</ele>
        <time>2021-03-07T11:27:59.746Z</time>
      </trkpt>
      <trkpt lat="48.53321" lon="2.10151">
        <ele>142</ele>
        <time>2021-03-07T11:28:00.746Z</time>
      </trkpt>
      <trkpt lat="48.53321" lon="2.10153">
        <ele>143</ele>
        <time>2021-03-07T11:28:01.745Z</time>
      </trkpt>
      <trkpt lat="48.53322" lon="2.10155">
        <ele>143</ele>
        <time>2021-03-07T11:28:02.746Z</time>
      </trkpt>
      <trkpt lat="48.53322" lon="2.10157">
        <ele>143</ele>
        <time>2021-03-07T11:28:03.745Z</time>
      </trkpt>
      <trkpt lat="48.53323" lon="2.10158">
        <ele>143</ele>
        <time>2021-03-07T11:28:04.745Z</time>
      </trkpt>
      <trkpt lat="48.53323" lon="2.1016">
        <ele>143</ele>
        <time>2021-03-07T11:28:05.746Z</time>
      </trkpt>
      <trkpt lat="48.53324" lon="2.10161">
        <ele>143</ele>
        <time>2021-03-07T11:28:06.745Z</time>
      </trkpt>
      <trkpt lat="48.53325" lon="2.10163">
        <ele>144</ele>
        <time>2021-03-07T11:28:07.745Z</time>
      </trkpt>
      <trkpt lat="48.53325" lon="2.10163">
        <ele>144</ele>
        <time>2021-03-07T11:28:08.745Z</time>
      </trkpt>
      <trkpt lat="48.53327" lon="2.10166">
        <ele>145</ele>
        <time>2021-03-07T11:28:09.746Z</time>
      </trkpt>
      <trkpt lat="48.53327" lon="2.10166">
        <ele>145</ele>
        <time>2021-03-07T11:28:10.746Z</time>
      </trkpt>
      <trkpt lat="48.53328" lon="2.10167">
        <ele>145</ele>
        <time>2021-03-07T11:28:11.745Z</time>
      </trkpt>
      <trkpt lat="48.53329" lon="2.10167">
        <ele>146</ele>
        <time>2021-03-07T11:28:12.746Z</time>
      </trkpt>
      <trkpt lat="48.53329" lon="2.10168">
        <ele>147</ele>
        <time>2021-03-07T11:28:13.745Z</time>
      </trkpt>
      <trkpt lat="48.53329" lon="2.10168">
        <ele>148</ele>
        <time>2021-03-07T11:28:14.745Z</time>
      </trkpt>
      <trkpt lat="48.5333" lon="2.10168">
        <ele>149</ele>
        <time>2021-03-07T11:28:15.745Z</time>
      </trkpt>
      <trkpt lat="48.5333" lon="2.10168">
        <ele>149</ele>
        <time>2021-03-07T11:28:16.745Z</time>
      </trkpt>
      <trkpt lat="48.5333" lon="2.10168">
        <ele>150</ele>
        <time>2021-03-07T11:28:17.745Z</time>
      </trkpt>
      <trkpt lat="48.5333" lon="2.10168">
        <ele>150</ele>
        <time>2021-03-07T11:28:18.746Z</time>
      </trkpt>
      <trkpt lat="48.53331" lon="2.10168">
        <ele>151</ele>
        <time>2021-03-07T11:28:19.745Z</time>
      </trkpt>
      <trkpt lat="48.53331" lon="2.10168">
        <ele>151</ele>
        <time>2021-03-07T11:28:20.745Z</time>
      </trkpt>
      <trkpt lat="48.53331" lon="2.10169">
        <ele>152</ele>
        <time>2021-03-07T11:28:21.745Z</time>
      </trkpt>
      <trkpt lat="48.53331" lon="2.10169">
        <ele>152</ele>
        <time>2021-03-07T11:28:22.745Z</time>
      </trkpt>
      <trkpt lat="48.53332" lon="2.1017">
        <ele>152</ele>
        <time>2021-03-07T11:28:23.746Z</time>
      </trkpt>
      <trkpt lat="48.53333" lon="2.1017">
        <ele>152</ele>
        <time>2021-03-07T11:28:24.745Z</time>
      </trkpt>
      <trkpt lat="48.53334" lon="2.10171">
        <ele>152</ele>
        <time>2021-03-07T11:28:25.746Z</time>
      </trkpt>
      <trkpt lat="48.53335" lon="2.10171">
        <ele>152</ele>
        <time>2021-03-07T11:28:26.745Z</time>
      </trkpt>
      <trkpt lat="48.53338" lon="2.10173">
        <ele>152</ele>
        <time>2021-03-07T11:28:27.746Z</time>
      </trkpt>
      <trkpt lat="48.53338" lon="2.10173">
        <ele>152</ele>
        <time>2021-03-07T11:28:28.745Z</time>
      </trkpt>
      <trkpt lat="48.53339" lon="2.10174">
        <ele>151</ele>
        <time>2021-03-07T11:28:29.745Z</time>
      </trkpt>
      <trkpt lat="48.53341" lon="2.10175">
        <ele>151</ele>
        <time>2021-03-07T11:28:30.746Z</time>
      </trkpt>
      <trkpt lat="48.53341" lon="2.10175">
        <ele>151</ele>
        <time>2021-03-07T11:28:31.746Z</time>
      </trkpt>
      <trkpt lat="48.53343" lon="2.10175">
        <ele>151</ele>
        <time>2021-03-07T11:28:32.745Z</time>
      </trkpt>
      <trkpt lat="48.53344" lon="2.10175">
        <ele>151</ele>
        <time>2021-03-07T11:28:33.745Z</time>
      </trkpt>
      <trkpt lat="48.53345" lon="2.10176">
        <ele>150</ele>
        <time>2021-03-07T11:28:34.745Z</time>
      </trkpt>
      <trkpt lat="48.53347" lon="2.10176">
        <ele>150</ele>
        <time>2021-03-07T11:28:35.745Z</time>
      </trkpt>
      <trkpt lat="48.53347" lon="2.10176">
        <ele>150</ele>
        <time>2021-03-07T11:28:36.746Z</time>
      </trkpt>
      <trkpt lat="48.53349" lon="2.10177">
        <ele>150</ele>
        <time>2021-03-07T11:28:37.745Z</time>
      </trkpt>
      <trkpt lat="48.5335" lon="2.10177">
        <ele>149</ele>
        <time>2021-03-07T11:28:38.745Z</time>
      </trkpt>
      <trkpt lat="48.53352" lon="2.10177">
        <ele>149</ele>
        <time>2021-03-07T11:28:39.746Z</time>
      </trkpt>
      <trkpt lat="48.53353" lon="2.10176">
        <ele>149</ele>
        <time>2021-03-07T11:28:40.745Z</time>
      </trkpt>
      <trkpt lat="48.53354" lon="2.10176">
        <ele>149</ele>
        <time>2021-03-07T11:28:41.746Z</time>
      </trkpt>
      <trkpt lat="48.53355" lon="2.10176">
        <ele>149</ele>
        <time>2021-03-07T11:28:42.745Z</time>
      </trkpt>
      <trkpt lat="48.53356" lon="2.10176">
        <ele>149</ele>
        <time>2021-03-07T11:28:43.746Z</time>
      </trkpt>
      <trkpt lat="48.53357" lon="2.10177">
        <ele>149</ele>
        <time>2021-03-07T11:28:44.745Z</time>
      </trkpt>
      <trkpt lat="48.53359" lon="2.10177">
        <ele>149</ele>
        <time>2021-03-07T11:28:45.745Z</time>
      </trkpt>
      <trkpt lat="48.5336" lon="2.10177">
        <ele>149</ele>
        <time>2021-03-07T11:28:46.746Z</time>
      </trkpt>
      <trkpt lat="48.53362" lon="2.10177">
        <ele>148</ele>
        <time>2021-03-07T11:28:47.745Z</time>
      </trkpt>
      <trkpt lat="48.53364" lon="2.10178">
        <ele>148</ele>
        <time>2021-03-07T11:28:48.746Z</time>
      </trkpt>
      <trkpt lat="48.53364" lon="2.10178">
        <ele>148</ele>
        <time>2021-03-07T11:28:49.746Z</time>
      </trkpt>
      <trkpt lat="48.53365" lon="2.10178">
        <ele>148</ele>
        <time>2021-03-07T11:28:50.745Z</time>
      </trkpt>
      <trkpt lat="48.53367" lon="2.10178">
        <ele>148</ele>
        <time>2021-03-07T11:28:51.746Z</time>
      </trkpt>
      <trkpt lat="48.53368" lon="2.10178">
        <ele>148</ele>
        <time>2021-03-07T11:28:52.745Z</time>
      </trkpt>
      <trkpt lat="48.5337" lon="2.10178">
        <ele>148</ele>
        <time>2021-03-07T11:28:53.746Z</time>
      </trkpt>
      <trkpt lat="48.53371" lon="2.10178">
        <ele>148</ele>
        <time>2021-03-07T11:28:54.745Z</time>
      </trkpt>
      <trkpt lat="48.53372" lon="2.10178">
        <ele>148</ele>
        <time>2021-03-07T11:28:55.746Z</time>
      </trkpt>
      <trkpt lat="48.53374" lon="2.10178">
        <ele>148</ele>
        <time>2021-03-07T11:28:56.745Z</time>
      </trkpt>
      <trkpt lat="48.53375" lon="2.10179">
        <ele>148</ele>
        <time>2021-03-07T11:28:57.746Z</time>
      </trkpt>
      <trkpt lat="48.53376" lon="2.10179">
        <ele>149</ele>
        <time>2021-03-07T11:28:58.745Z</time>
      </trkpt>
      <trkpt lat="48.53378" lon="2.10179">
        <ele>149</ele>
        <time>2021-03-07T11:28:59.746Z</time>
      </trkpt>
      <trkpt lat="48.53379" lon="2.10179">
        <ele>149</ele>
        <time>2021-03-07T11:29:00.745Z</time>
      </trkpt>
      <trkpt lat="48.5338" lon="2.10179">
        <ele>149</ele>
        <time>2021-03-07T11:29:01.746Z</time>
      </trkpt>
      <trkpt lat="48.53381" lon="2.1018">
        <ele>149</ele>
        <time>2021-03-07T11:29:02.745Z</time>
      </trkpt>
      <trkpt lat="48.53383" lon="2.1018">
        <ele>149</ele>
        <time>2021-03-07T11:29:03.746Z</time>
      </trkpt>
      <trkpt lat="48.53384" lon="2.1018">
        <ele>149</ele>
        <time>2021-03-07T11:29:04.745Z</time>
      </trkpt>
      <trkpt lat="48.53385" lon="2.10181">
        <ele>149</ele>
        <time>2021-03-07T11:29:05.746Z</time>
      </trkpt>
      <trkpt lat="48.53386" lon="2.10181">
        <ele>148</ele>
        <time>2021-03-07T11:29:06.745Z</time>
      </trkpt>
      <trkpt lat="48.53386" lon="2.10182">
        <ele>148</ele>
        <time>2021-03-07T11:29:07.746Z</time>
      </trkpt>
      <trkpt lat="48.53387" lon="2.10182">
        <ele>148</ele>
        <time>2021-03-07T11:29:08.745Z</time>
      </trkpt>
      <trkpt lat="48.53387" lon="2.10182">
        <ele>148</ele>
        <time>2021-03-07T11:29:09.746Z</time>
      </trkpt>
      <trkpt lat="48.53388" lon="2.10182">
        <ele>148</ele>
        <time>2021-03-07T11:29:10.745Z</time>
      </trkpt>
      <trkpt lat="48.53388" lon="2.10182">
        <ele>148</ele>
        <time>2021-03-07T11:29:11.746Z</time>
      </trkpt>
      <trkpt lat="48.53389" lon="2.10182">
        <ele>148</ele>
        <time>2021-03-07T11:29:12.745Z</time>
      </trkpt>
      <trkpt lat="48.5339" lon="2.10182">
        <ele>147</ele>
        <time>2021-03-07T11:29:13.746Z</time>
      </trkpt>
      <trkpt lat="48.5339" lon="2.10182">
        <ele>147</ele>
        <time>2021-03-07T11:29:14.745Z</time>
      </trkpt>
      <trkpt lat="48.53391" lon="2.10181">
        <ele>147</ele>
        <time>2021-03-07T11:29:15.746Z</time>
      </trkpt>
      <trkpt lat="48.53393" lon="2.10182">
        <ele>147</ele>
        <time>2021-03-07T11:29:16.745Z</time>
      </trkpt>
      <trkpt lat="48.53394" lon="2.10182">
        <ele>147</ele>
        <time>2021-03-07T11:29:17.745Z</time>
      </trkpt>
      <trkpt lat="48.53395" lon="2.10182">
        <ele>147</ele>
        <time>2021-03-07T11:29:18.745Z</time>
      </trkpt>
      <trkpt lat="48.53396" lon="2.10182">
        <ele>146</ele>
        <time>2021-03-07T11:29:19.746Z</time>
      </trkpt>
      <trkpt lat="48.53398" lon="2.10182">
        <ele>146</ele>
        <time>2021-03-07T11:29:20.745Z</time>
      </trkpt>
      <trkpt lat="48.53399" lon="2.10182">
        <ele>146</ele>
        <time>2021-03-07T11:29:21.745Z</time>
      </trkpt>
      <trkpt lat="48.534" lon="2.10183">
        <ele>146</ele>
        <time>2021-03-07T11:29:22.745Z</time>
      </trkpt>
      <trkpt lat="48.53402" lon="2.10183">
        <ele>146</ele>
        <time>2021-03-07T11:29:23.745Z</time>
      </trkpt>
      <trkpt lat="48.53404" lon="2.10184">
        <ele>147</ele>
        <time>2021-03-07T11:29:24.745Z</time>
      </trkpt>
      <trkpt lat="48.53405" lon="2.10184">
        <ele>148</ele>
        <time>2021-03-07T11:29:25.746Z</time>
      </trkpt>
      <trkpt lat="48.53406" lon="2.10185">
        <ele>149</ele>
        <time>2021-03-07T11:29:26.745Z</time>
      </trkpt>
      <trkpt lat="48.53407" lon="2.10185">
        <ele>149</ele>
        <time>2021-03-07T11:29:27.745Z</time>
      </trkpt>
      <trkpt lat="48.53409" lon="2.10186">
        <ele>150</ele>
        <time>2021-03-07T11:29:28.745Z</time>
      </trkpt>
      <trkpt lat="48.5341" lon="2.10186">
        <ele>150</ele>
        <time>2021-03-07T11:29:29.746Z</time>
      </trkpt>
      <trkpt lat="48.53411" lon="2.10187">
        <ele>150</ele>
        <time>2021-03-07T11:29:30.746Z</time>
      </trkpt>
      <trkpt lat="48.53412" lon="2.10188">
        <ele>150</ele>
        <time>2021-03-07T11:29:31.745Z</time>
      </trkpt>
      <trkpt lat="48.53412" lon="2.10188">
        <ele>150</ele>
        <time>2021-03-07T11:29:32.745Z</time>
      </trkpt>
      <trkpt lat="48.53414" lon="2.10189">
        <ele>150</ele>
        <time>2021-03-07T11:29:33.745Z</time>
      </trkpt>
      <trkpt lat="48.53415" lon="2.10189">
        <ele>150</ele>
        <time>2021-03-07T11:29:34.746Z</time>
      </trkpt>
      <trkpt lat="48.53416" lon="2.1019">
        <ele>150</ele>
        <time>2021-03-07T11:29:35.746Z</time>
      </trkpt>
      <trkpt lat="48.53417" lon="2.10191">
        <ele>150</ele>
        <time>2021-03-07T11:29:36.745Z</time>
      </trkpt>
      <trkpt lat="48.53418" lon="2.10192">
        <ele>150</ele>
        <time>2021-03-07T11:29:37.745Z</time>
      </trkpt>
      <trkpt lat="48.53419" lon="2.10194">
        <ele>150</ele>
        <time>2021-03-07T11:29:38.745Z</time>
      </trkpt>
      <trkpt lat="48.53419" lon="2.10194">
        <ele>150</ele>
        <time>2021-03-07T11:29:39.746Z</time>
      </trkpt>
      <trkpt lat="48.5342" lon="2.10195">
        <ele>150</ele>
        <time>2021-03-07T11:29:40.746Z</time>
      </trkpt>
      <trkpt lat="48.53421" lon="2.10197">
        <ele>150</ele>
        <time>2021-03-07T11:29:41.745Z</time>
      </trkpt>
      <trkpt lat="48.53422" lon="2.10198">
        <ele>150</ele>
        <time>2021-03-07T11:29:42.746Z</time>
      </trkpt>
      <trkpt lat="48.53423" lon="2.10199">
        <ele>149</ele>
        <time>2021-03-07T11:29:43.745Z</time>
      </trkpt>
      <trkpt lat="48.53424" lon="2.10201">
        <ele>149</ele>
        <time>2021-03-07T11:29:44.745Z</time>
      </trkpt>
      <trkpt lat="48.53425" lon="2.10203">
        <ele>149</ele>
        <time>2021-03-07T11:29:45.745Z</time>
      </trkpt>
      <trkpt lat="48.53425" lon="2.10205">
        <ele>149</ele>
        <time>2021-03-07T11:29:46.745Z</time>
      </trkpt>
      <trkpt lat="48.53425" lon="2.10207">
        <ele>149</ele>
        <time>2021-03-07T11:29:47.745Z</time>
      </trkpt>
      <trkpt lat="48.53426" lon="2.10209">
        <ele>148</ele>
        <time>2021-03-07T11:29:48.745Z</time>
      </trkpt>
      <trkpt lat="48.53427" lon="2.10211">
        <ele>148</ele>
        <time>2021-03-07T11:29:49.746Z</time>
      </trkpt>
      <trkpt lat="48.53428" lon="2.10212">
        <ele>148</ele>
        <time>2021-03-07T11:29:50.745Z</time>
      </trkpt>
      <trkpt lat="48.53429" lon="2.10214">
        <ele>147</ele>
        <time>2021-03-07T11:29:51.746Z</time>
      </trkpt>
      <trkpt lat="48.53429" lon="2.10215">
        <ele>147</ele>
        <time>2021-03-07T11:29:52.745Z</time>
      </trkpt>
      <trkpt lat="48.5343" lon="2.10216">
        <ele>147</ele>
        <time>2021-03-07T11:29:53.746Z</time>
      </trkpt>
      <trkpt lat="48.53431" lon="2.10218">
        <ele>147</ele>
        <time>2021-03-07T11:29:54.745Z</time>
      </trkpt>
      <trkpt lat="48.53431" lon="2.10219">
        <ele>146</ele>
        <time>2021-03-07T11:29:55.746Z</time>
      </trkpt>
      <trkpt lat="48.53432" lon="2.1022">
        <ele>146</ele>
        <time>2021-03-07T11:29:56.745Z</time>
      </trkpt>
      <trkpt lat="48.53433" lon="2.10223">
        <ele>146</ele>
        <time>2021-03-07T11:29:57.746Z</time>
      </trkpt>
      <trkpt lat="48.53433" lon="2.10223">
        <ele>146</ele>
        <time>2021-03-07T11:29:58.745Z</time>
      </trkpt>
      <trkpt lat="48.53434" lon="2.10225">
        <ele>146</ele>
        <time>2021-03-07T11:29:59.745Z</time>
      </trkpt>
      <trkpt lat="48.53434" lon="2.10226">
        <ele>146</ele>
        <time>2021-03-07T11:30:00.746Z</time>
      </trkpt>
      <trkpt lat="48.53435" lon="2.10227">
        <ele>146</ele>
        <time>2021-03-07T11:30:01.745Z</time>
      </trkpt>
      <trkpt lat="48.53436" lon="2.10229">
        <ele>146</ele>
        <time>2021-03-07T11:30:02.746Z</time>
      </trkpt>
      <trkpt lat="48.53437" lon="2.1023">
        <ele>146</ele>
        <time>2021-03-07T11:30:03.745Z</time>
      </trkpt>
      <trkpt lat="48.53438" lon="2.10231">
        <ele>145</ele>
        <time>2021-03-07T11:30:04.745Z</time>
      </trkpt>
      <trkpt lat="48.53439" lon="2.10232">
        <ele>145</ele>
        <time>2021-03-07T11:30:05.745Z</time>
      </trkpt>
      <trkpt lat="48.5344" lon="2.10234">
        <ele>145</ele>
        <time>2021-03-07T11:30:06.745Z</time>
      </trkpt>
      <trkpt lat="48.53442" lon="2.10236">
        <ele>145</ele>
        <time>2021-03-07T11:30:07.746Z</time>
      </trkpt>
      <trkpt lat="48.53442" lon="2.10236">
        <ele>145</ele>
        <time>2021-03-07T11:30:08.745Z</time>
      </trkpt>
      <trkpt lat="48.53445" lon="2.1024">
        <ele>145</ele>
        <time>2021-03-07T11:30:09.745Z</time>
      </trkpt>
      <trkpt lat="48.53445" lon="2.1024">
        <ele>145</ele>
        <time>2021-03-07T11:30:10.745Z</time>
      </trkpt>
      <trkpt lat="48.53446" lon="2.10241">
        <ele>145</ele>
        <time>2021-03-07T11:30:11.746Z</time>
      </trkpt>
      <trkpt lat="48.53446" lon="2.10243">
        <ele>145</ele>
        <time>2021-03-07T11:30:12.746Z</time>
      </trkpt>
      <trkpt lat="48.53448" lon="2.10245">
        <ele>145</ele>
        <time>2021-03-07T11:30:13.746Z</time>
      </trkpt>
      <trkpt lat="48.53448" lon="2.10245">
        <ele>145</ele>
        <time>2021-03-07T11:30:14.745Z</time>
      </trkpt>
      <trkpt lat="48.53449" lon="2.10247">
        <ele>145</ele>
        <time>2021-03-07T11:30:15.745Z</time>
      </trkpt>
      <trkpt lat="48.5345" lon="2.10248">
        <ele>145</ele>
        <time>2021-03-07T11:30:16.745Z</time>
      </trkpt>
      <trkpt lat="48.53451" lon="2.10249">
        <ele>145</ele>
        <time>2021-03-07T11:30:17.745Z</time>
      </trkpt>
      <trkpt lat="48.53452" lon="2.10251">
        <ele>144</ele>
        <time>2021-03-07T11:30:18.745Z</time>
      </trkpt>
      <trkpt lat="48.53453" lon="2.10252">
        <ele>144</ele>
        <time>2021-03-07T11:30:19.745Z</time>
      </trkpt>
      <trkpt lat="48.53454" lon="2.10253">
        <ele>144</ele>
        <time>2021-03-07T11:30:20.746Z</time>
      </trkpt>
      <trkpt lat="48.53455" lon="2.10254">
        <ele>144</ele>
        <time>2021-03-07T11:30:21.745Z</time>
      </trkpt>
      <trkpt lat="48.53456" lon="2.10255">
        <ele>144</ele>
        <time>2021-03-07T11:30:22.745Z</time>
      </trkpt>
      <trkpt lat="48.53457" lon="2.10256">
        <ele>144</ele>
        <time>2021-03-07T11:30:23.745Z</time>
      </trkpt>
      <trkpt lat="48.53458" lon="2.10258">
        <ele>144</ele>
        <time>2021-03-07T11:30:24.745Z</time>
      </trkpt>
      <trkpt lat="48.53459" lon="2.10259">
        <ele>144</ele>
        <time>2021-03-07T11:30:25.745Z</time>
      </trkpt>
      <trkpt lat="48.5346" lon="2.10261">
        <ele>145</ele>
        <time>2021-03-07T11:30:26.745Z</time>
      </trkpt>
      <trkpt lat="48.5346" lon="2.10263">
        <ele>144</ele>
        <time>2021-03-07T11:30:27.745Z</time>
      </trkpt>
      <trkpt lat="48.53461" lon="2.10265">
        <ele>143</ele>
        <time>2021-03-07T11:30:28.745Z</time>
      </trkpt>
      <trkpt lat="48.5346" lon="2.10267">
        <ele>143</ele>
        <time>2021-03-07T11:30:29.745Z</time>
      </trkpt>
      <trkpt lat="48.5346" lon="2.10269">
        <ele>142</ele>
        <time>2021-03-07T11:30:30.745Z</time>
      </trkpt>
      <trkpt lat="48.53459" lon="2.10271">
        <ele>142</ele>
        <time>2021-03-07T11:30:31.745Z</time>
      </trkpt>
      <trkpt lat="48.53459" lon="2.10272">
        <ele>141</ele>
        <time>2021-03-07T11:30:32.745Z</time>
      </trkpt>
      <trkpt lat="48.53458" lon="2.10273">
        <ele>142</ele>
        <time>2021-03-07T11:30:33.745Z</time>
      </trkpt>
      <trkpt lat="48.53457" lon="2.10275">
        <ele>142</ele>
        <time>2021-03-07T11:30:34.745Z</time>
      </trkpt>
      <trkpt lat="48.53456" lon="2.10276">
        <ele>142</ele>
        <time>2021-03-07T11:30:35.745Z</time>
      </trkpt>
      <trkpt lat="48.53455" lon="2.10277">
        <ele>143</ele>
        <time>2021-03-07T11:30:36.746Z</time>
      </trkpt>
      <trkpt lat="48.53453" lon="2.10278">
        <ele>143</ele>
        <time>2021-03-07T11:30:37.745Z</time>
      </trkpt>
      <trkpt lat="48.53452" lon="2.10279">
        <ele>142</ele>
        <time>2021-03-07T11:30:38.746Z</time>
      </trkpt>
      <trkpt lat="48.53451" lon="2.1028">
        <ele>142</ele>
        <time>2021-03-07T11:30:39.745Z</time>
      </trkpt>
      <trkpt lat="48.53449" lon="2.1028">
        <ele>141</ele>
        <time>2021-03-07T11:30:40.746Z</time>
      </trkpt>
      <trkpt lat="48.53447" lon="2.10281">
        <ele>141</ele>
        <time>2021-03-07T11:30:41.745Z</time>
      </trkpt>
      <trkpt lat="48.53447" lon="2.10283">
        <ele>140</ele>
        <time>2021-03-07T11:30:42.746Z</time>
      </trkpt>
      <trkpt lat="48.53445" lon="2.10283">
        <ele>140</ele>
        <time>2021-03-07T11:30:43.745Z</time>
      </trkpt>
      <trkpt lat="48.53444" lon="2.10284">
        <ele>139</ele>
        <time>2021-03-07T11:30:44.745Z</time>
      </trkpt>
      <trkpt lat="48.53443" lon="2.10284">
        <ele>139</ele>
        <time>2021-03-07T11:30:45.745Z</time>
      </trkpt>
      <trkpt lat="48.53442" lon="2.10285">
        <ele>139</ele>
        <time>2021-03-07T11:30:46.746Z</time>
      </trkpt>
      <trkpt lat="48.5344" lon="2.10286">
        <ele>139</ele>
        <time>2021-03-07T11:30:47.746Z</time>
      </trkpt>
      <trkpt lat="48.53439" lon="2.10286">
        <ele>139</ele>
        <time>2021-03-07T11:30:48.745Z</time>
      </trkpt>
      <trkpt lat="48.53438" lon="2.10286">
        <ele>138</ele>
        <time>2021-03-07T11:30:49.746Z</time>
      </trkpt>
      <trkpt lat="48.53438" lon="2.10287">
        <ele>138</ele>
        <time>2021-03-07T11:30:50.746Z</time>
      </trkpt>
      <trkpt lat="48.53438" lon="2.10287">
        <ele>138</ele>
        <time>2021-03-07T11:30:51.745Z</time>
      </trkpt>
      <trkpt lat="48.53437" lon="2.10288">
        <ele>137</ele>
        <time>2021-03-07T11:30:52.745Z</time>
      </trkpt>
      <trkpt lat="48.53436" lon="2.10288">
        <ele>137</ele>
        <time>2021-03-07T11:30:53.745Z</time>
      </trkpt>
      <trkpt lat="48.53435" lon="2.10289">
        <ele>137</ele>
        <time>2021-03-07T11:30:54.745Z</time>
      </trkpt>
      <trkpt lat="48.53434" lon="2.1029">
        <ele>137</ele>
        <time>2021-03-07T11:30:55.745Z</time>
      </trkpt>
      <trkpt lat="48.53432" lon="2.10291">
        <ele>137</ele>
        <time>2021-03-07T11:30:56.745Z</time>
      </trkpt>
      <trkpt lat="48.53432" lon="2.10292">
        <ele>137</ele>
        <time>2021-03-07T11:30:57.745Z</time>
      </trkpt>
      <trkpt lat="48.53431" lon="2.10293">
        <ele>137</ele>
        <time>2021-03-07T11:30:58.745Z</time>
      </trkpt>
      <trkpt lat="48.5343" lon="2.10293">
        <ele>137</ele>
        <time>2021-03-07T11:30:59.745Z</time>
      </trkpt>
      <trkpt lat="48.53429" lon="2.10294">
        <ele>137</ele>
        <time>2021-03-07T11:31:00.745Z</time>
      </trkpt>
      <trkpt lat="48.53428" lon="2.10295">
        <ele>137</ele>
        <time>2021-03-07T11:31:01.746Z</time>
      </trkpt>
      <trkpt lat="48.53427" lon="2.10296">
        <ele>137</ele>
        <time>2021-03-07T11:31:02.746Z</time>
      </trkpt>
      <trkpt lat="48.53426" lon="2.10297">
        <ele>137</ele>
        <time>2021-03-07T11:31:03.745Z</time>
      </trkpt>
      <trkpt lat="48.53425" lon="2.10298">
        <ele>137</ele>
        <time>2021-03-07T11:31:04.746Z</time>
      </trkpt>
      <trkpt lat="48.53423" lon="2.10299">
        <ele>137</ele>
        <time>2021-03-07T11:31:05.745Z</time>
      </trkpt>
      <trkpt lat="48.53422" lon="2.103">
        <ele>138</ele>
        <time>2021-03-07T11:31:06.745Z</time>
      </trkpt>
      <trkpt lat="48.53421" lon="2.10301">
        <ele>138</ele>
        <time>2021-03-07T11:31:07.745Z</time>
      </trkpt>
      <trkpt lat="48.5342" lon="2.10302">
        <ele>138</ele>
        <time>2021-03-07T11:31:08.746Z</time>
      </trkpt>
      <trkpt lat="48.5342" lon="2.10303">
        <ele>138</ele>
        <time>2021-03-07T11:31:09.746Z</time>
      </trkpt>
      <trkpt lat="48.53419" lon="2.10304">
        <ele>139</ele>
        <time>2021-03-07T11:31:10.745Z</time>
      </trkpt>
      <trkpt lat="48.53419" lon="2.10305">
        <ele>139</ele>
        <time>2021-03-07T11:31:11.746Z</time>
      </trkpt>
      <trkpt lat="48.53418" lon="2.10306">
        <ele>139</ele>
        <time>2021-03-07T11:31:12.745Z</time>
      </trkpt>
      <trkpt lat="48.53417" lon="2.10307">
        <ele>139</ele>
        <time>2021-03-07T11:31:13.745Z</time>
      </trkpt>
      <trkpt lat="48.53416" lon="2.10308">
        <ele>139</ele>
        <time>2021-03-07T11:31:14.745Z</time>
      </trkpt>
      <trkpt lat="48.53416" lon="2.1031">
        <ele>140</ele>
        <time>2021-03-07T11:31:15.745Z</time>
      </trkpt>
      <trkpt lat="48.53415" lon="2.10311">
        <ele>140</ele>
        <time>2021-03-07T11:31:16.745Z</time>
      </trkpt>
      <trkpt lat="48.53414" lon="2.10312">
        <ele>140</ele>
        <time>2021-03-07T11:31:17.746Z</time>
      </trkpt>
      <trkpt lat="48.53413" lon="2.10314">
        <ele>141</ele>
        <time>2021-03-07T11:31:18.745Z</time>
      </trkpt>
      <trkpt lat="48.53412" lon="2.10316">
        <ele>141</ele>
        <time>2021-03-07T11:31:19.746Z</time>
      </trkpt>
      <trkpt lat="48.53411" lon="2.10317">
        <ele>140</ele>
        <time>2021-03-07T11:31:20.745Z</time>
      </trkpt>
      <trkpt lat="48.53411" lon="2.10318">
        <ele>140</ele>
        <time>2021-03-07T11:31:21.746Z</time>
      </trkpt>
      <trkpt lat="48.5341" lon="2.10319">
        <ele>140</ele>
        <time>2021-03-07T11:31:22.745Z</time>
      </trkpt>
      <trkpt lat="48.5341" lon="2.10321">
        <ele>140</ele>
        <time>2021-03-07T11:31:23.746Z</time>
      </trkpt>
      <trkpt lat="48.53409" lon="2.10323">
        <ele>140</ele>
        <time>2021-03-07T11:31:24.745Z</time>
      </trkpt>
      <trkpt lat="48.53409" lon="2.10325">
        <ele>140</ele>
        <time>2021-03-07T11:31:25.746Z</time>
      </trkpt>
      <trkpt lat="48.53409" lon="2.10328">
        <ele>140</ele>
        <time>2021-03-07T11:31:26.745Z</time>
      </trkpt>
      <trkpt lat="48.5341" lon="2.10329">
        <ele>140</ele>
        <time>2021-03-07T11:31:27.745Z</time>
      </trkpt>
      <trkpt lat="48.5341" lon="2.10331">
        <ele>140</ele>
        <time>2021-03-07T11:31:28.746Z</time>
      </trkpt>
      <trkpt lat="48.5341" lon="2.10332">
        <ele>141</ele>
        <time>2021-03-07T11:31:29.745Z</time>
      </trkpt>
      <trkpt lat="48.53411" lon="2.10334">
        <ele>141</ele>
        <time>2021-03-07T11:31:30.746Z</time>
      </trkpt>
      <trkpt lat="48.53412" lon="2.10335">
        <ele>141</ele>
        <time>2021-03-07T11:31:31.745Z</time>
      </trkpt>
      <trkpt lat="48.53413" lon="2.10336">
        <ele>141</ele>
        <time>2021-03-07T11:31:32.746Z</time>
      </trkpt>
      <trkpt lat="48.53414" lon="2.10337">
        <ele>141</ele>
        <time>2021-03-07T11:31:33.746Z</time>
      </trkpt>
      <trkpt lat="48.53415" lon="2.10339">
        <ele>141</ele>
        <time>2021-03-07T11:31:34.746Z</time>
      </trkpt>
      <trkpt lat="48.53416" lon="2.10341">
        <ele>141</ele>
        <time>2021-03-07T11:31:35.745Z</time>
      </trkpt>
      <trkpt lat="48.53416" lon="2.10342">
        <ele>142</ele>
        <time>2021-03-07T11:31:36.745Z</time>
      </trkpt>
      <trkpt lat="48.53418" lon="2.10343">
        <ele>142</ele>
        <time>2021-03-07T11:31:37.745Z</time>
      </trkpt>
      <trkpt lat="48.53418" lon="2.10345">
        <ele>142</ele>
        <time>2021-03-07T11:31:38.745Z</time>
      </trkpt>
      <trkpt lat="48.53419" lon="2.10347">
        <ele>142</ele>
        <time>2021-03-07T11:31:39.746Z</time>
      </trkpt>
      <trkpt lat="48.5342" lon="2.10348">
        <ele>143</ele>
        <time>2021-03-07T11:31:40.745Z</time>
      </trkpt>
      <trkpt lat="48.53421" lon="2.1035">
        <ele>143</ele>
        <time>2021-03-07T11:31:41.746Z</time>
      </trkpt>
      <trkpt lat="48.53422" lon="2.10351">
        <ele>144</ele>
        <time>2021-03-07T11:31:42.746Z</time>
      </trkpt>
      <trkpt lat="48.53423" lon="2.10352">
        <ele>144</ele>
        <time>2021-03-07T11:31:43.745Z</time>
      </trkpt>
      <trkpt lat="48.53424" lon="2.10353">
        <ele>144</ele>
        <time>2021-03-07T11:31:44.745Z</time>
      </trkpt>
      <trkpt lat="48.53424" lon="2.10354">
        <ele>145</ele>
        <time>2021-03-07T11:31:45.745Z</time>
      </trkpt>
      <trkpt lat="48.53425" lon="2.10355">
        <ele>145</ele>
        <time>2021-03-07T11:31:46.746Z</time>
      </trkpt>
      <trkpt lat="48.53426" lon="2.10356">
        <ele>146</ele>
        <time>2021-03-07T11:31:47.745Z</time>
      </trkpt>
      <trkpt lat="48.53428" lon="2.10358">
        <ele>146</ele>
        <time>2021-03-07T11:31:48.746Z</time>
      </trkpt>
      <trkpt lat="48.53428" lon="2.10359">
        <ele>146</ele>
        <time>2021-03-07T11:31:49.745Z</time>
      </trkpt>
      <trkpt lat="48.53429" lon="2.10361">
        <ele>146</ele>
        <time>2021-03-07T11:31:50.745Z</time>
      </trkpt>
      <trkpt lat="48.53431" lon="2.10363">
        <ele>147</ele>
        <time>2021-03-07T11:31:51.746Z</time>
      </trkpt>
      <trkpt lat="48.53432" lon="2.10364">
        <ele>147</ele>
        <time>2021-03-07T11:31:52.745Z</time>
      </trkpt>
      <trkpt lat="48.53433" lon="2.10366">
        <ele>147</ele>
        <time>2021-03-07T11:31:53.745Z</time>
      </trkpt>
      <trkpt lat="48.53434" lon="2.10368">
        <ele>147</ele>
        <time>2021-03-07T11:31:54.745Z</time>
      </trkpt>
      <trkpt lat="48.53436" lon="2.1037">
        <ele>147</ele>
        <time>2021-03-07T11:31:55.745Z</time>
      </trkpt>
      <trkpt lat="48.53437" lon="2.10373">
        <ele>146</ele>
        <time>2021-03-07T11:31:56.745Z</time>
      </trkpt>
      <trkpt lat="48.53439" lon="2.10374">
        <ele>146</ele>
        <time>2021-03-07T11:31:57.746Z</time>
      </trkpt>
      <trkpt lat="48.5344" lon="2.10376">
        <ele>145</ele>
        <time>2021-03-07T11:31:58.745Z</time>
      </trkpt>
      <trkpt lat="48.53441" lon="2.10378">
        <ele>145</ele>
        <time>2021-03-07T11:31:59.745Z</time>
      </trkpt>
      <trkpt lat="48.53441" lon="2.10379">
        <ele>144</ele>
        <time>2021-03-07T11:32:00.745Z</time>
      </trkpt>
      <trkpt lat="48.53443" lon="2.10381">
        <ele>144</ele>
        <time>2021-03-07T11:32:01.745Z</time>
      </trkpt>
      <trkpt lat="48.53444" lon="2.10383">
        <ele>144</ele>
        <time>2021-03-07T11:32:02.745Z</time>
      </trkpt>
      <trkpt lat="48.53444" lon="2.10384">
        <ele>143</ele>
        <time>2021-03-07T11:32:03.745Z</time>
      </trkpt>
      <trkpt lat="48.53445" lon="2.10385">
        <ele>143</ele>
        <time>2021-03-07T11:32:04.746Z</time>
      </trkpt>
      <trkpt lat="48.53446" lon="2.10386">
        <ele>143</ele>
        <time>2021-03-07T11:32:05.745Z</time>
      </trkpt>
      <trkpt lat="48.53447" lon="2.10388">
        <ele>142</ele>
        <time>2021-03-07T11:32:06.745Z</time>
      </trkpt>
      <trkpt lat="48.53448" lon="2.1039">
        <ele>142</ele>
        <time>2021-03-07T11:32:07.745Z</time>
      </trkpt>
      <trkpt lat="48.53449" lon="2.10392">
        <ele>141</ele>
        <time>2021-03-07T11:32:08.745Z</time>
      </trkpt>
      <trkpt lat="48.5345" lon="2.10394">
        <ele>141</ele>
        <time>2021-03-07T11:32:09.745Z</time>
      </trkpt>
      <trkpt lat="48.53451" lon="2.10396">
        <ele>141</ele>
        <time>2021-03-07T11:32:10.746Z</time>
      </trkpt>
      <trkpt lat="48.53452" lon="2.10398">
        <ele>141</ele>
        <time>2021-03-07T11:32:11.745Z</time>
      </trkpt>
      <trkpt lat="48.53453" lon="2.104">
        <ele>141</ele>
        <time>2021-03-07T11:32:12.746Z</time>
      </trkpt>
      <trkpt lat="48.53454" lon="2.10401">
        <ele>141</ele>
        <time>2021-03-07T11:32:13.745Z</time>
      </trkpt>
      <trkpt lat="48.53455" lon="2.10403">
        <ele>141</ele>
        <time>2021-03-07T11:32:14.745Z</time>
      </trkpt>
      <trkpt lat="48.53457" lon="2.10405">
        <ele>141</ele>
        <time>2021-03-07T11:32:15.745Z</time>
      </trkpt>
      <trkpt lat="48.53458" lon="2.10407">
        <ele>141</ele>
        <time>2021-03-07T11:32:16.745Z</time>
      </trkpt>
      <trkpt lat="48.53459" lon="2.10409">
        <ele>141</ele>
        <time>2021-03-07T11:32:17.746Z</time>
      </trkpt>
      <trkpt lat="48.5346" lon="2.1041">
        <ele>141</ele>
        <time>2021-03-07T11:32:18.745Z</time>
      </trkpt>
      <trkpt lat="48.53461" lon="2.10412">
        <ele>141</ele>
        <time>2021-03-07T11:32:19.745Z</time>
      </trkpt>
      <trkpt lat="48.53462" lon="2.10414">
        <ele>141</ele>
        <time>2021-03-07T11:32:20.745Z</time>
      </trkpt>
      <trkpt lat="48.53463" lon="2.10416">
        <ele>142</ele>
        <time>2021-03-07T11:32:21.745Z</time>
      </trkpt>
      <trkpt lat="48.53464" lon="2.10418">
        <ele>142</ele>
        <time>2021-03-07T11:32:22.745Z</time>
      </trkpt>
      <trkpt lat="48.53465" lon="2.10419">
        <ele>142</ele>
        <time>2021-03-07T11:32:23.746Z</time>
      </trkpt>
      <trkpt lat="48.53467" lon="2.10421">
        <ele>142</ele>
        <time>2021-03-07T11:32:24.745Z</time>
      </trkpt>
      <trkpt lat="48.53468" lon="2.10423">
        <ele>142</ele>
        <time>2021-03-07T11:32:25.746Z</time>
      </trkpt>
      <trkpt lat="48.53469" lon="2.10425">
        <ele>142</ele>
        <time>2021-03-07T11:32:26.745Z</time>
      </trkpt>
      <trkpt lat="48.5347" lon="2.10426">
        <ele>142</ele>
        <time>2021-03-07T11:32:27.746Z</time>
      </trkpt>
      <trkpt lat="48.53471" lon="2.10427">
        <ele>143</ele>
        <time>2021-03-07T11:32:28.745Z</time>
      </trkpt>
      <trkpt lat="48.53472" lon="2.10429">
        <ele>143</ele>
        <time>2021-03-07T11:32:29.746Z</time>
      </trkpt>
      <trkpt lat="48.53473" lon="2.10431">
        <ele>142</ele>
        <time>2021-03-07T11:32:30.746Z</time>
      </trkpt>
      <trkpt lat="48.53474" lon="2.10432">
        <ele>142</ele>
        <time>2021-03-07T11:32:31.745Z</time>
      </trkpt>
      <trkpt lat="48.53474" lon="2.10434">
        <ele>142</ele>
        <time>2021-03-07T11:32:32.746Z</time>
      </trkpt>
      <trkpt lat="48.53475" lon="2.10436">
        <ele>142</ele>
        <time>2021-03-07T11:32:33.746Z</time>
      </trkpt>
      <trkpt lat="48.53476" lon="2.10438">
        <ele>142</ele>
        <time>2021-03-07T11:32:34.745Z</time>
      </trkpt>
      <trkpt lat="48.53476" lon="2.1044">
        <ele>142</ele>
        <time>2021-03-07T11:32:35.746Z</time>
      </trkpt>
      <trkpt lat="48.53477" lon="2.10442">
        <ele>142</ele>
        <time>2021-03-07T11:32:36.745Z</time>
      </trkpt>
      <trkpt lat="48.53478" lon="2.10444">
        <ele>143</ele>
        <time>2021-03-07T11:32:37.745Z</time>
      </trkpt>
      <trkpt lat="48.53479" lon="2.10446">
        <ele>143</ele>
        <time>2021-03-07T11:32:38.745Z</time>
      </trkpt>
      <trkpt lat="48.53479" lon="2.10448">
        <ele>142</ele>
        <time>2021-03-07T11:32:39.745Z</time>
      </trkpt>
      <trkpt lat="48.5348" lon="2.1045">
        <ele>142</ele>
        <time>2021-03-07T11:32:40.745Z</time>
      </trkpt>
      <trkpt lat="48.53481" lon="2.10453">
        <ele>142</ele>
        <time>2021-03-07T11:32:41.745Z</time>
      </trkpt>
      <trkpt lat="48.53482" lon="2.10456">
        <ele>142</ele>
        <time>2021-03-07T11:32:42.745Z</time>
      </trkpt>
      <trkpt lat="48.53483" lon="2.10459">
        <ele>142</ele>
        <time>2021-03-07T11:32:43.745Z</time>
      </trkpt>
      <trkpt lat="48.53484" lon="2.10464">
        <ele>142</ele>
        <time>2021-03-07T11:32:44.745Z</time>
      </trkpt>
      <trkpt lat="48.53485" lon="2.10468">
        <ele>141</ele>
        <time>2021-03-07T11:32:45.745Z</time>
      </trkpt>
      <trkpt lat="48.53487" lon="2.10473">
        <ele>141</ele>
        <time>2021-03-07T11:32:46.746Z</time>
      </trkpt>
      <trkpt lat="48.53488" lon="2.10478">
        <ele>141</ele>
        <time>2021-03-07T11:32:47.745Z</time>
      </trkpt>
      <trkpt lat="48.53489" lon="2.10484">
        <ele>141</ele>
        <time>2021-03-07T11:32:48.745Z</time>
      </trkpt>
      <trkpt lat="48.53491" lon="2.10491">
        <ele>141</ele>
        <time>2021-03-07T11:32:49.745Z</time>
      </trkpt>
      <trkpt lat="48.53492" lon="2.10497">
        <ele>141</ele>
        <time>2021-03-07T11:32:50.745Z</time>
      </trkpt>
      <trkpt lat="48.53493" lon="2.10503">
        <ele>141</ele>
        <time>2021-03-07T11:32:51.745Z</time>
      </trkpt>
      <trkpt lat="48.53494" lon="2.1051">
        <ele>141</ele>
        <time>2021-03-07T11:32:52.745Z</time>
      </trkpt>
      <trkpt lat="48.53495" lon="2.10516">
        <ele>141</ele>
        <time>2021-03-07T11:32:53.745Z</time>
      </trkpt>
      <trkpt lat="48.53497" lon="2.10523">
        <ele>141</ele>
        <time>2021-03-07T11:32:54.745Z</time>
      </trkpt>
      <trkpt lat="48.53499" lon="2.10529">
        <ele>141</ele>
        <time>2021-03-07T11:32:55.745Z</time>
      </trkpt>
      <trkpt lat="48.535" lon="2.10536">
        <ele>141</ele>
        <time>2021-03-07T11:32:56.745Z</time>
      </trkpt>
      <trkpt lat="48.53502" lon="2.10542">
        <ele>141</ele>
        <time>2021-03-07T11:32:57.745Z</time>
      </trkpt>
      <trkpt lat="48.53503" lon="2.10549">
        <ele>142</ele>
        <time>2021-03-07T11:32:58.745Z</time>
      </trkpt>
      <trkpt lat="48.53505" lon="2.10556">
        <ele>142</ele>
        <time>2021-03-07T11:32:59.745Z</time>
      </trkpt>
      <trkpt lat="48.53506" lon="2.10563">
        <ele>143</ele>
        <time>2021-03-07T11:33:00.745Z</time>
      </trkpt>
      <trkpt lat="48.53508" lon="2.1057">
        <ele>143</ele>
        <time>2021-03-07T11:33:01.746Z</time>
      </trkpt>
      <trkpt lat="48.53509" lon="2.10577">
        <ele>144</ele>
        <time>2021-03-07T11:33:02.746Z</time>
      </trkpt>
      <trkpt lat="48.53511" lon="2.10584">
        <ele>144</ele>
        <time>2021-03-07T11:33:03.745Z</time>
      </trkpt>
      <trkpt lat="48.53512" lon="2.10591">
        <ele>144</ele>
        <time>2021-03-07T11:33:04.746Z</time>
      </trkpt>
      <trkpt lat="48.53513" lon="2.10598">
        <ele>145</ele>
        <time>2021-03-07T11:33:05.746Z</time>
      </trkpt>
      <trkpt lat="48.53515" lon="2.10605">
        <ele>145</ele>
        <time>2021-03-07T11:33:06.746Z</time>
      </trkpt>
      <trkpt lat="48.53516" lon="2.10612">
        <ele>145</ele>
        <time>2021-03-07T11:33:07.745Z</time>
      </trkpt>
      <trkpt lat="48.53517" lon="2.10619">
        <ele>144</ele>
        <time>2021-03-07T11:33:08.745Z</time>
      </trkpt>
      <trkpt lat="48.53518" lon="2.10627">
        <ele>143</ele>
        <time>2021-03-07T11:33:09.745Z</time>
      </trkpt>
      <trkpt lat="48.5352" lon="2.10634">
        <ele>142</ele>
        <time>2021-03-07T11:33:10.745Z</time>
      </trkpt>
      <trkpt lat="48.53521" lon="2.10642">
        <ele>142</ele>
        <time>2021-03-07T11:33:11.745Z</time>
      </trkpt>
      <trkpt lat="48.53522" lon="2.1065">
        <ele>141</ele>
        <time>2021-03-07T11:33:12.745Z</time>
      </trkpt>
      <trkpt lat="48.53523" lon="2.10658">
        <ele>141</ele>
        <time>2021-03-07T11:33:13.745Z</time>
      </trkpt>
      <trkpt lat="48.53524" lon="2.10665">
        <ele>141</ele>
        <time>2021-03-07T11:33:14.746Z</time>
      </trkpt>
      <trkpt lat="48.53526" lon="2.10673">
        <ele>141</ele>
        <time>2021-03-07T11:33:15.745Z</time>
      </trkpt>
      <trkpt lat="48.53526" lon="2.10681">
        <ele>141</ele>
        <time>2021-03-07T11:33:16.746Z</time>
      </trkpt>
      <trkpt lat="48.53527" lon="2.10688">
        <ele>141</ele>
        <time>2021-03-07T11:33:17.746Z</time>
      </trkpt>
      <trkpt lat="48.53528" lon="2.10695">
        <ele>141</ele>
        <time>2021-03-07T11:33:18.745Z</time>
      </trkpt>
      <trkpt lat="48.53529" lon="2.10702">
        <ele>141</ele>
        <time>2021-03-07T11:33:19.746Z</time>
      </trkpt>
      <trkpt lat="48.53531" lon="2.1071">
        <ele>141</ele>
        <time>2021-03-07T11:33:20.745Z</time>
      </trkpt>
      <trkpt lat="48.53532" lon="2.10717">
        <ele>141</ele>
        <time>2021-03-07T11:33:21.746Z</time>
      </trkpt>
      <trkpt lat="48.53533" lon="2.10725">
        <ele>141</ele>
        <time>2021-03-07T11:33:22.745Z</time>
      </trkpt>
      <trkpt lat="48.53534" lon="2.10732">
        <ele>141</ele>
        <time>2021-03-07T11:33:23.745Z</time>
      </trkpt>
      <trkpt lat="48.53535" lon="2.1074">
        <ele>140</ele>
        <time>2021-03-07T11:33:24.745Z</time>
      </trkpt>
      <trkpt lat="48.53536" lon="2.10747">
        <ele>141</ele>
        <time>2021-03-07T11:33:25.746Z</time>
      </trkpt>
      <trkpt lat="48.53537" lon="2.10755">
        <ele>141</ele>
        <time>2021-03-07T11:33:26.746Z</time>
      </trkpt>
      <trkpt lat="48.53538" lon="2.10762">
        <ele>141</ele>
        <time>2021-03-07T11:33:27.746Z</time>
      </trkpt>
      <trkpt lat="48.5354" lon="2.10769">
        <ele>141</ele>
        <time>2021-03-07T11:33:28.745Z</time>
      </trkpt>
      <trkpt lat="48.53541" lon="2.10775">
        <ele>142</ele>
        <time>2021-03-07T11:33:29.746Z</time>
      </trkpt>
      <trkpt lat="48.53542" lon="2.10782">
        <ele>142</ele>
        <time>2021-03-07T11:33:30.745Z</time>
      </trkpt>
      <trkpt lat="48.53543" lon="2.10787">
        <ele>142</ele>
        <time>2021-03-07T11:33:31.745Z</time>
      </trkpt>
      <trkpt lat="48.53544" lon="2.10792">
        <ele>143</ele>
        <time>2021-03-07T11:33:32.745Z</time>
      </trkpt>
      <trkpt lat="48.53545" lon="2.10798">
        <ele>143</ele>
        <time>2021-03-07T11:33:33.746Z</time>
      </trkpt>
      <trkpt lat="48.53545" lon="2.10804">
        <ele>143</ele>
        <time>2021-03-07T11:33:34.745Z</time>
      </trkpt>
      <trkpt lat="48.53546" lon="2.10809">
        <ele>143</ele>
        <time>2021-03-07T11:33:35.745Z</time>
      </trkpt>
      <trkpt lat="48.53546" lon="2.10814">
        <ele>144</ele>
        <time>2021-03-07T11:33:36.746Z</time>
      </trkpt>
      <trkpt lat="48.53545" lon="2.10819">
        <ele>144</ele>
        <time>2021-03-07T11:33:37.745Z</time>
      </trkpt>
      <trkpt lat="48.53544" lon="2.10825">
        <ele>144</ele>
        <time>2021-03-07T11:33:38.746Z</time>
      </trkpt>
      <trkpt lat="48.53544" lon="2.10831">
        <ele>144</ele>
        <time>2021-03-07T11:33:39.745Z</time>
      </trkpt>
      <trkpt lat="48.53543" lon="2.10837">
        <ele>144</ele>
        <time>2021-03-07T11:33:40.745Z</time>
      </trkpt>
      <trkpt lat="48.53543" lon="2.10843">
        <ele>144</ele>
        <time>2021-03-07T11:33:41.745Z</time>
      </trkpt>
      <trkpt lat="48.53542" lon="2.1085">
        <ele>145</ele>
        <time>2021-03-07T11:33:42.745Z</time>
      </trkpt>
      <trkpt lat="48.53542" lon="2.10857">
        <ele>145</ele>
        <time>2021-03-07T11:33:43.745Z</time>
      </trkpt>
      <trkpt lat="48.53542" lon="2.10863">
        <ele>145</ele>
        <time>2021-03-07T11:33:44.746Z</time>
      </trkpt>
      <trkpt lat="48.53542" lon="2.10869">
        <ele>145</ele>
        <time>2021-03-07T11:33:45.745Z</time>
      </trkpt>
      <trkpt lat="48.53542" lon="2.10876">
        <ele>145</ele>
        <time>2021-03-07T11:33:46.745Z</time>
      </trkpt>
      <trkpt lat="48.53542" lon="2.10883">
        <ele>145</ele>
        <time>2021-03-07T11:33:47.746Z</time>
      </trkpt>
      <trkpt lat="48.53543" lon="2.1089">
        <ele>145</ele>
        <time>2021-03-07T11:33:48.745Z</time>
      </trkpt>
      <trkpt lat="48.53544" lon="2.10897">
        <ele>145</ele>
        <time>2021-03-07T11:33:49.745Z</time>
      </trkpt>
      <trkpt lat="48.53545" lon="2.10904">
        <ele>145</ele>
        <time>2021-03-07T11:33:50.746Z</time>
      </trkpt>
      <trkpt lat="48.53548" lon="2.1091">
        <ele>145</ele>
        <time>2021-03-07T11:33:51.745Z</time>
      </trkpt>
      <trkpt lat="48.53552" lon="2.10916">
        <ele>145</ele>
        <time>2021-03-07T11:33:52.746Z</time>
      </trkpt>
      <trkpt lat="48.53555" lon="2.10922">
        <ele>145</ele>
        <time>2021-03-07T11:33:53.745Z</time>
      </trkpt>
      <trkpt lat="48.53558" lon="2.10928">
        <ele>145</ele>
        <time>2021-03-07T11:33:54.746Z</time>
      </trkpt>
      <trkpt lat="48.53561" lon="2.10934">
        <ele>145</ele>
        <time>2021-03-07T11:33:55.745Z</time>
      </trkpt>
      <trkpt lat="48.53565" lon="2.1094">
        <ele>145</ele>
        <time>2021-03-07T11:33:56.745Z</time>
      </trkpt>
      <trkpt lat="48.53568" lon="2.10948">
        <ele>145</ele>
        <time>2021-03-07T11:33:57.745Z</time>
      </trkpt>
      <trkpt lat="48.53571" lon="2.10954">
        <ele>145</ele>
        <time>2021-03-07T11:33:58.745Z</time>
      </trkpt>
      <trkpt lat="48.53575" lon="2.1096">
        <ele>145</ele>
        <time>2021-03-07T11:33:59.745Z</time>
      </trkpt>
      <trkpt lat="48.53579" lon="2.10966">
        <ele>145</ele>
        <time>2021-03-07T11:34:00.745Z</time>
      </trkpt>
      <trkpt lat="48.53584" lon="2.10973">
        <ele>145</ele>
        <time>2021-03-07T11:34:01.745Z</time>
      </trkpt>
      <trkpt lat="48.53588" lon="2.10979">
        <ele>145</ele>
        <time>2021-03-07T11:34:02.745Z</time>
      </trkpt>
      <trkpt lat="48.53591" lon="2.10986">
        <ele>145</ele>
        <time>2021-03-07T11:34:03.746Z</time>
      </trkpt>
      <trkpt lat="48.53594" lon="2.10992">
        <ele>146</ele>
        <time>2021-03-07T11:34:04.745Z</time>
      </trkpt>
      <trkpt lat="48.53598" lon="2.10997">
        <ele>146</ele>
        <time>2021-03-07T11:34:05.746Z</time>
      </trkpt>
      <trkpt lat="48.53601" lon="2.11003">
        <ele>146</ele>
        <time>2021-03-07T11:34:06.745Z</time>
      </trkpt>
      <trkpt lat="48.53605" lon="2.11009">
        <ele>146</ele>
        <time>2021-03-07T11:34:07.745Z</time>
      </trkpt>
      <trkpt lat="48.53608" lon="2.11017">
        <ele>146</ele>
        <time>2021-03-07T11:34:08.745Z</time>
      </trkpt>
      <trkpt lat="48.5361" lon="2.11023">
        <ele>146</ele>
        <time>2021-03-07T11:34:09.745Z</time>
      </trkpt>
      <trkpt lat="48.53612" lon="2.1103">
        <ele>146</ele>
        <time>2021-03-07T11:34:10.745Z</time>
      </trkpt>
      <trkpt lat="48.53613" lon="2.11038">
        <ele>146</ele>
        <time>2021-03-07T11:34:11.745Z</time>
      </trkpt>
      <trkpt lat="48.53615" lon="2.11045">
        <ele>146</ele>
        <time>2021-03-07T11:34:12.746Z</time>
      </trkpt>
      <trkpt lat="48.53617" lon="2.11051">
        <ele>146</ele>
        <time>2021-03-07T11:34:13.746Z</time>
      </trkpt>
      <trkpt lat="48.53619" lon="2.11057">
        <ele>145</ele>
        <time>2021-03-07T11:34:14.745Z</time>
      </trkpt>
      <trkpt lat="48.5362" lon="2.11062">
        <ele>145</ele>
        <time>2021-03-07T11:34:15.745Z</time>
      </trkpt>
      <trkpt lat="48.53621" lon="2.11067">
        <ele>145</ele>
        <time>2021-03-07T11:34:16.746Z</time>
      </trkpt>
      <trkpt lat="48.53623" lon="2.11073">
        <ele>145</ele>
        <time>2021-03-07T11:34:17.745Z</time>
      </trkpt>
      <trkpt lat="48.53624" lon="2.11079">
        <ele>145</ele>
        <time>2021-03-07T11:34:18.745Z</time>
      </trkpt>
      <trkpt lat="48.53625" lon="2.11084">
        <ele>145</ele>
        <time>2021-03-07T11:34:19.745Z</time>
      </trkpt>
      <trkpt lat="48.53625" lon="2.1109">
        <ele>145</ele>
        <time>2021-03-07T11:34:20.745Z</time>
      </trkpt>
      <trkpt lat="48.53625" lon="2.11095">
        <ele>145</ele>
        <time>2021-03-07T11:34:21.745Z</time>
      </trkpt>
      <trkpt lat="48.53626" lon="2.11101">
        <ele>145</ele>
        <time>2021-03-07T11:34:22.745Z</time>
      </trkpt>
      <trkpt lat="48.53627" lon="2.11105">
        <ele>145</ele>
        <time>2021-03-07T11:34:23.745Z</time>
      </trkpt>
      <trkpt lat="48.53628" lon="2.1111">
        <ele>145</ele>
        <time>2021-03-07T11:34:24.746Z</time>
      </trkpt>
      <trkpt lat="48.53629" lon="2.11115">
        <ele>145</ele>
        <time>2021-03-07T11:34:25.745Z</time>
      </trkpt>
      <trkpt lat="48.5363" lon="2.11119">
        <ele>146</ele>
        <time>2021-03-07T11:34:26.745Z</time>
      </trkpt>
      <trkpt lat="48.53631" lon="2.11124">
        <ele>146</ele>
        <time>2021-03-07T11:34:27.745Z</time>
      </trkpt>
      <trkpt lat="48.53632" lon="2.1113">
        <ele>146</ele>
        <time>2021-03-07T11:34:28.745Z</time>
      </trkpt>
      <trkpt lat="48.53633" lon="2.11135">
        <ele>146</ele>
        <time>2021-03-07T11:34:29.746Z</time>
      </trkpt>
      <trkpt lat="48.53635" lon="2.1114">
        <ele>147</ele>
        <time>2021-03-07T11:34:30.745Z</time>
      </trkpt>
      <trkpt lat="48.53636" lon="2.11145">
        <ele>147</ele>
        <time>2021-03-07T11:34:31.746Z</time>
      </trkpt>
      <trkpt lat="48.53638" lon="2.11151">
        <ele>147</ele>
        <time>2021-03-07T11:34:32.745Z</time>
      </trkpt>
      <trkpt lat="48.53639" lon="2.11156">
        <ele>147</ele>
        <time>2021-03-07T11:34:33.746Z</time>
      </trkpt>
      <trkpt lat="48.5364" lon="2.11162">
        <ele>147</ele>
        <time>2021-03-07T11:34:34.745Z</time>
      </trkpt>
      <trkpt lat="48.53641" lon="2.11168">
        <ele>148</ele>
        <time>2021-03-07T11:34:35.746Z</time>
      </trkpt>
      <trkpt lat="48.53642" lon="2.11173">
        <ele>148</ele>
        <time>2021-03-07T11:34:36.745Z</time>
      </trkpt>
      <trkpt lat="48.53644" lon="2.1118">
        <ele>148</ele>
        <time>2021-03-07T11:34:37.746Z</time>
      </trkpt>
      <trkpt lat="48.53646" lon="2.11185">
        <ele>148</ele>
        <time>2021-03-07T11:34:38.745Z</time>
      </trkpt>
      <trkpt lat="48.53648" lon="2.11191">
        <ele>148</ele>
        <time>2021-03-07T11:34:39.745Z</time>
      </trkpt>
      <trkpt lat="48.53652" lon="2.11196">
        <ele>149</ele>
        <time>2021-03-07T11:34:40.745Z</time>
      </trkpt>
      <trkpt lat="48.53654" lon="2.11201">
        <ele>149</ele>
        <time>2021-03-07T11:34:41.745Z</time>
      </trkpt>
      <trkpt lat="48.53658" lon="2.11206">
        <ele>149</ele>
        <time>2021-03-07T11:34:42.746Z</time>
      </trkpt>
      <trkpt lat="48.5366" lon="2.1121">
        <ele>149</ele>
        <time>2021-03-07T11:34:43.746Z</time>
      </trkpt>
      <trkpt lat="48.53663" lon="2.11214">
        <ele>149</ele>
        <time>2021-03-07T11:34:44.746Z</time>
      </trkpt>
      <trkpt lat="48.53667" lon="2.11218">
        <ele>149</ele>
        <time>2021-03-07T11:34:45.745Z</time>
      </trkpt>
      <trkpt lat="48.5367" lon="2.11222">
        <ele>149</ele>
        <time>2021-03-07T11:34:46.745Z</time>
      </trkpt>
      <trkpt lat="48.53674" lon="2.11226">
        <ele>149</ele>
        <time>2021-03-07T11:34:47.745Z</time>
      </trkpt>
      <trkpt lat="48.53681" lon="2.11232">
        <ele>149</ele>
        <time>2021-03-07T11:34:48.745Z</time>
      </trkpt>
      <trkpt lat="48.53686" lon="2.11237">
        <ele>149</ele>
        <time>2021-03-07T11:34:49.745Z</time>
      </trkpt>
      <trkpt lat="48.53691" lon="2.1124">
        <ele>150</ele>
        <time>2021-03-07T11:34:50.745Z</time>
      </trkpt>
      <trkpt lat="48.53696" lon="2.11243">
        <ele>150</ele>
        <time>2021-03-07T11:34:51.745Z</time>
      </trkpt>
      <trkpt lat="48.537" lon="2.11246">
        <ele>150</ele>
        <time>2021-03-07T11:34:52.746Z</time>
      </trkpt>
      <trkpt lat="48.53704" lon="2.11249">
        <ele>150</ele>
        <time>2021-03-07T11:34:53.745Z</time>
      </trkpt>
      <trkpt lat="48.53708" lon="2.11252">
        <ele>150</ele>
        <time>2021-03-07T11:34:54.745Z</time>
      </trkpt>
      <trkpt lat="48.53712" lon="2.11255">
        <ele>150</ele>
        <time>2021-03-07T11:34:55.746Z</time>
      </trkpt>
      <trkpt lat="48.53716" lon="2.11257">
        <ele>150</ele>
        <time>2021-03-07T11:34:56.745Z</time>
      </trkpt>
      <trkpt lat="48.5372" lon="2.11258">
        <ele>151</ele>
        <time>2021-03-07T11:34:57.745Z</time>
      </trkpt>
      <trkpt lat="48.53723" lon="2.11258">
        <ele>151</ele>
        <time>2021-03-07T11:34:58.746Z</time>
      </trkpt>
      <trkpt lat="48.53727" lon="2.11259">
        <ele>151</ele>
        <time>2021-03-07T11:34:59.745Z</time>
      </trkpt>
      <trkpt lat="48.53729" lon="2.11259">
        <ele>151</ele>
        <time>2021-03-07T11:35:00.746Z</time>
      </trkpt>
      <trkpt lat="48.53732" lon="2.11261">
        <ele>151</ele>
        <time>2021-03-07T11:35:01.745Z</time>
      </trkpt>
      <trkpt lat="48.53735" lon="2.11264">
        <ele>152</ele>
        <time>2021-03-07T11:35:02.746Z</time>
      </trkpt>
      <trkpt lat="48.53737" lon="2.11269">
        <ele>152</ele>
        <time>2021-03-07T11:35:03.745Z</time>
      </trkpt>
      <trkpt lat="48.53739" lon="2.11273">
        <ele>152</ele>
        <time>2021-03-07T11:35:04.745Z</time>
      </trkpt>
      <trkpt lat="48.5374" lon="2.11277">
        <ele>152</ele>
        <time>2021-03-07T11:35:05.745Z</time>
      </trkpt>
      <trkpt lat="48.5374" lon="2.1128">
        <ele>151</ele>
        <time>2021-03-07T11:35:06.745Z</time>
      </trkpt>
      <trkpt lat="48.5374" lon="2.11284">
        <ele>151</ele>
        <time>2021-03-07T11:35:07.745Z</time>
      </trkpt>
      <trkpt lat="48.53739" lon="2.11288">
        <ele>151</ele>
        <time>2021-03-07T11:35:08.746Z</time>
      </trkpt>
      <trkpt lat="48.53739" lon="2.11291">
        <ele>151</ele>
        <time>2021-03-07T11:35:09.745Z</time>
      </trkpt>
      <trkpt lat="48.53738" lon="2.11295">
        <ele>150</ele>
        <time>2021-03-07T11:35:10.746Z</time>
      </trkpt>
      <trkpt lat="48.53737" lon="2.113">
        <ele>150</ele>
        <time>2021-03-07T11:35:11.746Z</time>
      </trkpt>
      <trkpt lat="48.53735" lon="2.11306">
        <ele>150</ele>
        <time>2021-03-07T11:35:12.745Z</time>
      </trkpt>
      <trkpt lat="48.53732" lon="2.11312">
        <ele>150</ele>
        <time>2021-03-07T11:35:13.745Z</time>
      </trkpt>
      <trkpt lat="48.5373" lon="2.1132">
        <ele>149</ele>
        <time>2021-03-07T11:35:14.746Z</time>
      </trkpt>
      <trkpt lat="48.53729" lon="2.11328">
        <ele>149</ele>
        <time>2021-03-07T11:35:15.745Z</time>
      </trkpt>
      <trkpt lat="48.53728" lon="2.11336">
        <ele>148</ele>
        <time>2021-03-07T11:35:16.746Z</time>
      </trkpt>
      <trkpt lat="48.53727" lon="2.11345">
        <ele>148</ele>
        <time>2021-03-07T11:35:17.746Z</time>
      </trkpt>
      <trkpt lat="48.53726" lon="2.11353">
        <ele>148</ele>
        <time>2021-03-07T11:35:18.745Z</time>
      </trkpt>
      <trkpt lat="48.53725" lon="2.11363">
        <ele>147</ele>
        <time>2021-03-07T11:35:19.746Z</time>
      </trkpt>
      <trkpt lat="48.53726" lon="2.11368">
        <ele>147</ele>
        <time>2021-03-07T11:35:20.745Z</time>
      </trkpt>
      <trkpt lat="48.53725" lon="2.11377">
        <ele>146</ele>
        <time>2021-03-07T11:35:21.745Z</time>
      </trkpt>
      <trkpt lat="48.53724" lon="2.11387">
        <ele>145</ele>
        <time>2021-03-07T11:35:22.745Z</time>
      </trkpt>
      <trkpt lat="48.53723" lon="2.11394">
        <ele>145</ele>
        <time>2021-03-07T11:35:23.745Z</time>
      </trkpt>
      <trkpt lat="48.53722" lon="2.11399">
        <ele>144</ele>
        <time>2021-03-07T11:35:24.745Z</time>
      </trkpt>
      <trkpt lat="48.53722" lon="2.11406">
        <ele>144</ele>
        <time>2021-03-07T11:35:25.745Z</time>
      </trkpt>
      <trkpt lat="48.5372" lon="2.11415">
        <ele>143</ele>
        <time>2021-03-07T11:35:26.745Z</time>
      </trkpt>
      <trkpt lat="48.53719" lon="2.11422">
        <ele>142</ele>
        <time>2021-03-07T11:35:27.745Z</time>
      </trkpt>
      <trkpt lat="48.53718" lon="2.11428">
        <ele>142</ele>
        <time>2021-03-07T11:35:28.746Z</time>
      </trkpt>
      <trkpt lat="48.53716" lon="2.11437">
        <ele>141</ele>
        <time>2021-03-07T11:35:29.745Z</time>
      </trkpt>
      <trkpt lat="48.53715" lon="2.11445">
        <ele>141</ele>
        <time>2021-03-07T11:35:30.745Z</time>
      </trkpt>
      <trkpt lat="48.53713" lon="2.11451">
        <ele>140</ele>
        <time>2021-03-07T11:35:31.746Z</time>
      </trkpt>
      <trkpt lat="48.53712" lon="2.11459">
        <ele>140</ele>
        <time>2021-03-07T11:35:32.745Z</time>
      </trkpt>
      <trkpt lat="48.5371" lon="2.11468">
        <ele>140</ele>
        <time>2021-03-07T11:35:33.746Z</time>
      </trkpt>
      <trkpt lat="48.53709" lon="2.11476">
        <ele>140</ele>
        <time>2021-03-07T11:35:34.745Z</time>
      </trkpt>
      <trkpt lat="48.53707" lon="2.11484">
        <ele>139</ele>
        <time>2021-03-07T11:35:35.745Z</time>
      </trkpt>
      <trkpt lat="48.53706" lon="2.11491">
        <ele>139</ele>
        <time>2021-03-07T11:35:36.746Z</time>
      </trkpt>
      <trkpt lat="48.53705" lon="2.11499">
        <ele>138</ele>
        <time>2021-03-07T11:35:37.745Z</time>
      </trkpt>
      <trkpt lat="48.53704" lon="2.11505">
        <ele>138</ele>
        <time>2021-03-07T11:35:38.746Z</time>
      </trkpt>
      <trkpt lat="48.53702" lon="2.11513">
        <ele>137</ele>
        <time>2021-03-07T11:35:39.745Z</time>
      </trkpt>
      <trkpt lat="48.53701" lon="2.1152">
        <ele>137</ele>
        <time>2021-03-07T11:35:40.745Z</time>
      </trkpt>
      <trkpt lat="48.53699" lon="2.11529">
        <ele>136</ele>
        <time>2021-03-07T11:35:41.746Z</time>
      </trkpt>
      <trkpt lat="48.53698" lon="2.11536">
        <ele>136</ele>
        <time>2021-03-07T11:35:42.746Z</time>
      </trkpt>
      <trkpt lat="48.53696" lon="2.11543">
        <ele>136</ele>
        <time>2021-03-07T11:35:43.745Z</time>
      </trkpt>
      <trkpt lat="48.53695" lon="2.1155">
        <ele>135</ele>
        <time>2021-03-07T11:35:44.745Z</time>
      </trkpt>
      <trkpt lat="48.53694" lon="2.11557">
        <ele>135</ele>
        <time>2021-03-07T11:35:45.745Z</time>
      </trkpt>
      <trkpt lat="48.53693" lon="2.11565">
        <ele>135</ele>
        <time>2021-03-07T11:35:46.745Z</time>
      </trkpt>
      <trkpt lat="48.53691" lon="2.11572">
        <ele>135</ele>
        <time>2021-03-07T11:35:47.745Z</time>
      </trkpt>
      <trkpt lat="48.53691" lon="2.11578">
        <ele>135</ele>
        <time>2021-03-07T11:35:48.745Z</time>
      </trkpt>
      <trkpt lat="48.5369" lon="2.11585">
        <ele>135</ele>
        <time>2021-03-07T11:35:49.745Z</time>
      </trkpt>
      <trkpt lat="48.53688" lon="2.11592">
        <ele>135</ele>
        <time>2021-03-07T11:35:50.745Z</time>
      </trkpt>
      <trkpt lat="48.53686" lon="2.11598">
        <ele>134</ele>
        <time>2021-03-07T11:35:51.746Z</time>
      </trkpt>
      <trkpt lat="48.53685" lon="2.11605">
        <ele>134</ele>
        <time>2021-03-07T11:35:52.745Z</time>
      </trkpt>
      <trkpt lat="48.53684" lon="2.11611">
        <ele>134</ele>
        <time>2021-03-07T11:35:53.745Z</time>
      </trkpt>
      <trkpt lat="48.53683" lon="2.11616">
        <ele>134</ele>
        <time>2021-03-07T11:35:54.746Z</time>
      </trkpt>
      <trkpt lat="48.53682" lon="2.11622">
        <ele>134</ele>
        <time>2021-03-07T11:35:55.745Z</time>
      </trkpt>
      <trkpt lat="48.53681" lon="2.11627">
        <ele>134</ele>
        <time>2021-03-07T11:35:56.746Z</time>
      </trkpt>
      <trkpt lat="48.5368" lon="2.11633">
        <ele>134</ele>
        <time>2021-03-07T11:35:57.745Z</time>
      </trkpt>
      <trkpt lat="48.53679" lon="2.11638">
        <ele>134</ele>
        <time>2021-03-07T11:35:58.745Z</time>
      </trkpt>
      <trkpt lat="48.53677" lon="2.11643">
        <ele>135</ele>
        <time>2021-03-07T11:35:59.745Z</time>
      </trkpt>
      <trkpt lat="48.53675" lon="2.11647">
        <ele>135</ele>
        <time>2021-03-07T11:36:00.745Z</time>
      </trkpt>
      <trkpt lat="48.53672" lon="2.1165">
        <ele>135</ele>
        <time>2021-03-07T11:36:01.746Z</time>
      </trkpt>
      <trkpt lat="48.53669" lon="2.11651">
        <ele>136</ele>
        <time>2021-03-07T11:36:02.746Z</time>
      </trkpt>
      <trkpt lat="48.53665" lon="2.11653">
        <ele>136</ele>
        <time>2021-03-07T11:36:03.745Z</time>
      </trkpt>
      <trkpt lat="48.53661" lon="2.11654">
        <ele>135</ele>
        <time>2021-03-07T11:36:04.746Z</time>
      </trkpt>
      <trkpt lat="48.53656" lon="2.11653">
        <ele>135</ele>
        <time>2021-03-07T11:36:05.745Z</time>
      </trkpt>
      <trkpt lat="48.53651" lon="2.11654">
        <ele>136</ele>
        <time>2021-03-07T11:36:06.745Z</time>
      </trkpt>
      <trkpt lat="48.53646" lon="2.11655">
        <ele>136</ele>
        <time>2021-03-07T11:36:07.745Z</time>
      </trkpt>
      <trkpt lat="48.53641" lon="2.11655">
        <ele>136</ele>
        <time>2021-03-07T11:36:08.745Z</time>
      </trkpt>
      <trkpt lat="48.53636" lon="2.11656">
        <ele>136</ele>
        <time>2021-03-07T11:36:09.746Z</time>
      </trkpt>
      <trkpt lat="48.5363" lon="2.11658">
        <ele>136</ele>
        <time>2021-03-07T11:36:10.745Z</time>
      </trkpt>
      <trkpt lat="48.53624" lon="2.11659">
        <ele>136</ele>
        <time>2021-03-07T11:36:11.745Z</time>
      </trkpt>
      <trkpt lat="48.53619" lon="2.1166">
        <ele>136</ele>
        <time>2021-03-07T11:36:12.745Z</time>
      </trkpt>
      <trkpt lat="48.53614" lon="2.11661">
        <ele>136</ele>
        <time>2021-03-07T11:36:13.745Z</time>
      </trkpt>
      <trkpt lat="48.53609" lon="2.11663">
        <ele>136</ele>
        <time>2021-03-07T11:36:14.745Z</time>
      </trkpt>
      <trkpt lat="48.53604" lon="2.11665">
        <ele>136</ele>
        <time>2021-03-07T11:36:15.746Z</time>
      </trkpt>
      <trkpt lat="48.53599" lon="2.11666">
        <ele>136</ele>
        <time>2021-03-07T11:36:16.745Z</time>
      </trkpt>
      <trkpt lat="48.53595" lon="2.11668">
        <ele>136</ele>
        <time>2021-03-07T11:36:17.745Z</time>
      </trkpt>
      <trkpt lat="48.53588" lon="2.1167">
        <ele>136</ele>
        <time>2021-03-07T11:36:18.745Z</time>
      </trkpt>
      <trkpt lat="48.53584" lon="2.11672">
        <ele>137</ele>
        <time>2021-03-07T11:36:19.746Z</time>
      </trkpt>
      <trkpt lat="48.53578" lon="2.11674">
        <ele>137</ele>
        <time>2021-03-07T11:36:20.745Z</time>
      </trkpt>
      <trkpt lat="48.53574" lon="2.11676">
        <ele>137</ele>
        <time>2021-03-07T11:36:21.746Z</time>
      </trkpt>
      <trkpt lat="48.5357" lon="2.11677">
        <ele>137</ele>
        <time>2021-03-07T11:36:22.745Z</time>
      </trkpt>
      <trkpt lat="48.53566" lon="2.11679">
        <ele>138</ele>
        <time>2021-03-07T11:36:23.746Z</time>
      </trkpt>
      <trkpt lat="48.53562" lon="2.11681">
        <ele>138</ele>
        <time>2021-03-07T11:36:24.745Z</time>
      </trkpt>
      <trkpt lat="48.53559" lon="2.11682">
        <ele>138</ele>
        <time>2021-03-07T11:36:25.745Z</time>
      </trkpt>
      <trkpt lat="48.53556" lon="2.11683">
        <ele>138</ele>
        <time>2021-03-07T11:36:26.745Z</time>
      </trkpt>
      <trkpt lat="48.53554" lon="2.11683">
        <ele>138</ele>
        <time>2021-03-07T11:36:27.745Z</time>
      </trkpt>
      <trkpt lat="48.53552" lon="2.11684">
        <ele>138</ele>
        <time>2021-03-07T11:36:28.745Z</time>
      </trkpt>
      <trkpt lat="48.53549" lon="2.11685">
        <ele>138</ele>
        <time>2021-03-07T11:36:29.745Z</time>
      </trkpt>
      <trkpt lat="48.53547" lon="2.11687">
        <ele>138</ele>
        <time>2021-03-07T11:36:30.745Z</time>
      </trkpt>
      <trkpt lat="48.53546" lon="2.1169">
        <ele>138</ele>
        <time>2021-03-07T11:36:31.745Z</time>
      </trkpt>
      <trkpt lat="48.53545" lon="2.11694">
        <ele>138</ele>
        <time>2021-03-07T11:36:32.745Z</time>
      </trkpt>
      <trkpt lat="48.53546" lon="2.11699">
        <ele>138</ele>
        <time>2021-03-07T11:36:33.745Z</time>
      </trkpt>
      <trkpt lat="48.53546" lon="2.11705">
        <ele>138</ele>
        <time>2021-03-07T11:36:34.746Z</time>
      </trkpt>
      <trkpt lat="48.53548" lon="2.11711">
        <ele>138</ele>
        <time>2021-03-07T11:36:35.745Z</time>
      </trkpt>
      <trkpt lat="48.53549" lon="2.11717">
        <ele>138</ele>
        <time>2021-03-07T11:36:36.746Z</time>
      </trkpt>
      <trkpt lat="48.5355" lon="2.11725">
        <ele>138</ele>
        <time>2021-03-07T11:36:37.745Z</time>
      </trkpt>
      <trkpt lat="48.53551" lon="2.11731">
        <ele>138</ele>
        <time>2021-03-07T11:36:38.746Z</time>
      </trkpt>
      <trkpt lat="48.53552" lon="2.11738">
        <ele>138</ele>
        <time>2021-03-07T11:36:39.745Z</time>
      </trkpt>
      <trkpt lat="48.53553" lon="2.11744">
        <ele>138</ele>
        <time>2021-03-07T11:36:40.745Z</time>
      </trkpt>
      <trkpt lat="48.53555" lon="2.11752">
        <ele>139</ele>
        <time>2021-03-07T11:36:41.745Z</time>
      </trkpt>
      <trkpt lat="48.53556" lon="2.11758">
        <ele>139</ele>
        <time>2021-03-07T11:36:42.745Z</time>
      </trkpt>
      <trkpt lat="48.53557" lon="2.11765">
        <ele>139</ele>
        <time>2021-03-07T11:36:43.746Z</time>
      </trkpt>
      <trkpt lat="48.53557" lon="2.11772">
        <ele>139</ele>
        <time>2021-03-07T11:36:44.745Z</time>
      </trkpt>
      <trkpt lat="48.53558" lon="2.11779">
        <ele>139</ele>
        <time>2021-03-07T11:36:45.745Z</time>
      </trkpt>
      <trkpt lat="48.53559" lon="2.11786">
        <ele>139</ele>
        <time>2021-03-07T11:36:46.745Z</time>
      </trkpt>
      <trkpt lat="48.5356" lon="2.11793">
        <ele>139</ele>
        <time>2021-03-07T11:36:47.745Z</time>
      </trkpt>
      <trkpt lat="48.53561" lon="2.11801">
        <ele>139</ele>
        <time>2021-03-07T11:36:48.746Z</time>
      </trkpt>
      <trkpt lat="48.53562" lon="2.11808">
        <ele>139</ele>
        <time>2021-03-07T11:36:49.745Z</time>
      </trkpt>
      <trkpt lat="48.53564" lon="2.11815">
        <ele>139</ele>
        <time>2021-03-07T11:36:50.745Z</time>
      </trkpt>
      <trkpt lat="48.53565" lon="2.11822">
        <ele>139</ele>
        <time>2021-03-07T11:36:51.745Z</time>
      </trkpt>
      <trkpt lat="48.53566" lon="2.1183">
        <ele>139</ele>
        <time>2021-03-07T11:36:52.745Z</time>
      </trkpt>
      <trkpt lat="48.53567" lon="2.11837">
        <ele>139</ele>
        <time>2021-03-07T11:36:53.746Z</time>
      </trkpt>
      <trkpt lat="48.53568" lon="2.11844">
        <ele>139</ele>
        <time>2021-03-07T11:36:54.745Z</time>
      </trkpt>
      <trkpt lat="48.53569" lon="2.11852">
        <ele>139</ele>
        <time>2021-03-07T11:36:55.745Z</time>
      </trkpt>
      <trkpt lat="48.53569" lon="2.11859">
        <ele>139</ele>
        <time>2021-03-07T11:36:56.745Z</time>
      </trkpt>
      <trkpt lat="48.5357" lon="2.11866">
        <ele>139</ele>
        <time>2021-03-07T11:36:57.745Z</time>
      </trkpt>
      <trkpt lat="48.53571" lon="2.11874">
        <ele>138</ele>
        <time>2021-03-07T11:36:58.746Z</time>
      </trkpt>
      <trkpt lat="48.53572" lon="2.11882">
        <ele>138</ele>
        <time>2021-03-07T11:36:59.745Z</time>
      </trkpt>
      <trkpt lat="48.53574" lon="2.1189">
        <ele>138</ele>
        <time>2021-03-07T11:37:00.745Z</time>
      </trkpt>
      <trkpt lat="48.53575" lon="2.11897">
        <ele>137</ele>
        <time>2021-03-07T11:37:01.745Z</time>
      </trkpt>
      <trkpt lat="48.53575" lon="2.11905">
        <ele>137</ele>
        <time>2021-03-07T11:37:02.745Z</time>
      </trkpt>
      <trkpt lat="48.53576" lon="2.11912">
        <ele>137</ele>
        <time>2021-03-07T11:37:03.745Z</time>
      </trkpt>
      <trkpt lat="48.53577" lon="2.1192">
        <ele>137</ele>
        <time>2021-03-07T11:37:04.746Z</time>
      </trkpt>
      <trkpt lat="48.53578" lon="2.11927">
        <ele>137</ele>
        <time>2021-03-07T11:37:05.745Z</time>
      </trkpt>
      <trkpt lat="48.53579" lon="2.11934">
        <ele>137</ele>
        <time>2021-03-07T11:37:06.745Z</time>
      </trkpt>
      <trkpt lat="48.5358" lon="2.11941">
        <ele>137</ele>
        <time>2021-03-07T11:37:07.746Z</time>
      </trkpt>
      <trkpt lat="48.53581" lon="2.11948">
        <ele>138</ele>
        <time>2021-03-07T11:37:08.745Z</time>
      </trkpt>
      <trkpt lat="48.53582" lon="2.11954">
        <ele>139</ele>
        <time>2021-03-07T11:37:09.745Z</time>
      </trkpt>
      <trkpt lat="48.53584" lon="2.11961">
        <ele>139</ele>
        <time>2021-03-07T11:37:10.745Z</time>
      </trkpt>
      <trkpt lat="48.53585" lon="2.11966">
        <ele>140</ele>
        <time>2021-03-07T11:37:11.745Z</time>
      </trkpt>
      <trkpt lat="48.53586" lon="2.11975">
        <ele>140</ele>
        <time>2021-03-07T11:37:12.745Z</time>
      </trkpt>
      <trkpt lat="48.53586" lon="2.11981">
        <ele>140</ele>
        <time>2021-03-07T11:37:13.746Z</time>
      </trkpt>
      <trkpt lat="48.53587" lon="2.11986">
        <ele>140</ele>
        <time>2021-03-07T11:37:14.745Z</time>
      </trkpt>
      <trkpt lat="48.53588" lon="2.11992">
        <ele>141</ele>
        <time>2021-03-07T11:37:15.746Z</time>
      </trkpt>
      <trkpt lat="48.5359" lon="2.11999">
        <ele>141</ele>
        <time>2021-03-07T11:37:16.745Z</time>
      </trkpt>
      <trkpt lat="48.53591" lon="2.12005">
        <ele>141</ele>
        <time>2021-03-07T11:37:17.745Z</time>
      </trkpt>
      <trkpt lat="48.53592" lon="2.12012">
        <ele>142</ele>
        <time>2021-03-07T11:37:18.746Z</time>
      </trkpt>
      <trkpt lat="48.53593" lon="2.12018">
        <ele>142</ele>
        <time>2021-03-07T11:37:19.745Z</time>
      </trkpt>
      <trkpt lat="48.53594" lon="2.12022">
        <ele>142</ele>
        <time>2021-03-07T11:37:20.746Z</time>
      </trkpt>
      <trkpt lat="48.53596" lon="2.12028">
        <ele>142</ele>
        <time>2021-03-07T11:37:21.746Z</time>
      </trkpt>
      <trkpt lat="48.53597" lon="2.12032">
        <ele>143</ele>
        <time>2021-03-07T11:37:22.745Z</time>
      </trkpt>
      <trkpt lat="48.53598" lon="2.12037">
        <ele>143</ele>
        <time>2021-03-07T11:37:23.746Z</time>
      </trkpt>
      <trkpt lat="48.536" lon="2.1204">
        <ele>143</ele>
        <time>2021-03-07T11:37:24.745Z</time>
      </trkpt>
      <trkpt lat="48.53601" lon="2.12044">
        <ele>143</ele>
        <time>2021-03-07T11:37:25.746Z</time>
      </trkpt>
      <trkpt lat="48.53602" lon="2.12048">
        <ele>143</ele>
        <time>2021-03-07T11:37:26.745Z</time>
      </trkpt>
      <trkpt lat="48.53603" lon="2.12052">
        <ele>144</ele>
        <time>2021-03-07T11:37:27.746Z</time>
      </trkpt>
      <trkpt lat="48.53604" lon="2.12056">
        <ele>144</ele>
        <time>2021-03-07T11:37:28.745Z</time>
      </trkpt>
      <trkpt lat="48.53605" lon="2.12059">
        <ele>144</ele>
        <time>2021-03-07T11:37:29.746Z</time>
      </trkpt>
      <trkpt lat="48.53606" lon="2.12063">
        <ele>144</ele>
        <time>2021-03-07T11:37:30.745Z</time>
      </trkpt>
      <trkpt lat="48.53608" lon="2.12068">
        <ele>145</ele>
        <time>2021-03-07T11:37:31.745Z</time>
      </trkpt>
      <trkpt lat="48.53609" lon="2.12072">
        <ele>145</ele>
        <time>2021-03-07T11:37:32.745Z</time>
      </trkpt>
      <trkpt lat="48.5361" lon="2.12076">
        <ele>145</ele>
        <time>2021-03-07T11:37:33.745Z</time>
      </trkpt>
      <trkpt lat="48.53611" lon="2.12079">
        <ele>145</ele>
        <time>2021-03-07T11:37:34.745Z</time>
      </trkpt>
      <trkpt lat="48.53612" lon="2.12083">
        <ele>145</ele>
        <time>2021-03-07T11:37:35.746Z</time>
      </trkpt>
      <trkpt lat="48.53614" lon="2.12087">
        <ele>146</ele>
        <time>2021-03-07T11:37:36.745Z</time>
      </trkpt>
      <trkpt lat="48.53615" lon="2.12091">
        <ele>146</ele>
        <time>2021-03-07T11:37:37.746Z</time>
      </trkpt>
      <trkpt lat="48.53616" lon="2.12093">
        <ele>146</ele>
        <time>2021-03-07T11:37:38.746Z</time>
      </trkpt>
      <trkpt lat="48.53617" lon="2.12095">
        <ele>146</ele>
        <time>2021-03-07T11:37:39.745Z</time>
      </trkpt>
      <trkpt lat="48.53618" lon="2.12098">
        <ele>146</ele>
        <time>2021-03-07T11:37:40.745Z</time>
      </trkpt>
      <trkpt lat="48.53619" lon="2.12101">
        <ele>146</ele>
        <time>2021-03-07T11:37:41.745Z</time>
      </trkpt>
      <trkpt lat="48.5362" lon="2.12102">
        <ele>146</ele>
        <time>2021-03-07T11:37:42.745Z</time>
      </trkpt>
      <trkpt lat="48.5362" lon="2.12104">
        <ele>145</ele>
        <time>2021-03-07T11:37:43.745Z</time>
      </trkpt>
      <trkpt lat="48.53621" lon="2.12106">
        <ele>145</ele>
        <time>2021-03-07T11:37:44.745Z</time>
      </trkpt>
      <trkpt lat="48.53622" lon="2.12108">
        <ele>145</ele>
        <time>2021-03-07T11:37:45.745Z</time>
      </trkpt>
      <trkpt lat="48.53622" lon="2.12111">
        <ele>145</ele>
        <time>2021-03-07T11:37:46.745Z</time>
      </trkpt>
      <trkpt lat="48.53623" lon="2.12113">
        <ele>145</ele>
        <time>2021-03-07T11:37:47.745Z</time>
      </trkpt>
      <trkpt lat="48.53624" lon="2.12115">
        <ele>145</ele>
        <time>2021-03-07T11:37:48.745Z</time>
      </trkpt>
      <trkpt lat="48.53625" lon="2.12116">
        <ele>145</ele>
        <time>2021-03-07T11:37:49.745Z</time>
      </trkpt>
      <trkpt lat="48.53626" lon="2.12119">
        <ele>145</ele>
        <time>2021-03-07T11:37:50.746Z</time>
      </trkpt>
      <trkpt lat="48.53627" lon="2.12122">
        <ele>145</ele>
        <time>2021-03-07T11:37:51.745Z</time>
      </trkpt>
      <trkpt lat="48.53628" lon="2.12124">
        <ele>144</ele>
        <time>2021-03-07T11:37:52.745Z</time>
      </trkpt>
      <trkpt lat="48.53628" lon="2.12126">
        <ele>144</ele>
        <time>2021-03-07T11:37:53.745Z</time>
      </trkpt>
      <trkpt lat="48.53628" lon="2.12128">
        <ele>144</ele>
        <time>2021-03-07T11:37:54.745Z</time>
      </trkpt>
      <trkpt lat="48.53629" lon="2.1213">
        <ele>144</ele>
        <time>2021-03-07T11:37:55.746Z</time>
      </trkpt>
      <trkpt lat="48.5363" lon="2.12133">
        <ele>144</ele>
        <time>2021-03-07T11:37:56.745Z</time>
      </trkpt>
      <trkpt lat="48.53631" lon="2.12135">
        <ele>144</ele>
        <time>2021-03-07T11:37:57.745Z</time>
      </trkpt>
      <trkpt lat="48.53632" lon="2.12137">
        <ele>144</ele>
        <time>2021-03-07T11:37:58.745Z</time>
      </trkpt>
      <trkpt lat="48.53633" lon="2.1214">
        <ele>144</ele>
        <time>2021-03-07T11:37:59.745Z</time>
      </trkpt>
      <trkpt lat="48.53633" lon="2.12142">
        <ele>144</ele>
        <time>2021-03-07T11:38:00.746Z</time>
      </trkpt>
      <trkpt lat="48.53634" lon="2.12145">
        <ele>143</ele>
        <time>2021-03-07T11:38:01.745Z</time>
      </trkpt>
      <trkpt lat="48.53634" lon="2.12147">
        <ele>143</ele>
        <time>2021-03-07T11:38:02.745Z</time>
      </trkpt>
      <trkpt lat="48.53635" lon="2.12149">
        <ele>142</ele>
        <time>2021-03-07T11:38:03.745Z</time>
      </trkpt>
      <trkpt lat="48.53635" lon="2.12152">
        <ele>142</ele>
        <time>2021-03-07T11:38:04.745Z</time>
      </trkpt>
      <trkpt lat="48.53636" lon="2.12154">
        <ele>142</ele>
        <time>2021-03-07T11:38:05.745Z</time>
      </trkpt>
      <trkpt lat="48.53637" lon="2.12156">
        <ele>142</ele>
        <time>2021-03-07T11:38:06.745Z</time>
      </trkpt>
      <trkpt lat="48.53637" lon="2.12158">
        <ele>142</ele>
        <time>2021-03-07T11:38:07.745Z</time>
      </trkpt>
      <trkpt lat="48.53638" lon="2.12161">
        <ele>142</ele>
        <time>2021-03-07T11:38:08.746Z</time>
      </trkpt>
      <trkpt lat="48.53639" lon="2.12163">
        <ele>142</ele>
        <time>2021-03-07T11:38:09.745Z</time>
      </trkpt>
      <trkpt lat="48.5364" lon="2.12166">
        <ele>142</ele>
        <time>2021-03-07T11:38:10.746Z</time>
      </trkpt>
      <trkpt lat="48.5364" lon="2.12168">
        <ele>141</ele>
        <time>2021-03-07T11:38:11.745Z</time>
      </trkpt>
      <trkpt lat="48.53641" lon="2.1217">
        <ele>141</ele>
        <time>2021-03-07T11:38:12.745Z</time>
      </trkpt>
      <trkpt lat="48.53641" lon="2.12172">
        <ele>141</ele>
        <time>2021-03-07T11:38:13.745Z</time>
      </trkpt>
      <trkpt lat="48.53642" lon="2.12174">
        <ele>140</ele>
        <time>2021-03-07T11:38:14.745Z</time>
      </trkpt>
      <trkpt lat="48.53643" lon="2.12177">
        <ele>140</ele>
        <time>2021-03-07T11:38:15.745Z</time>
      </trkpt>
      <trkpt lat="48.53644" lon="2.12179">
        <ele>139</ele>
        <time>2021-03-07T11:38:16.745Z</time>
      </trkpt>
      <trkpt lat="48.53644" lon="2.12181">
        <ele>139</ele>
        <time>2021-03-07T11:38:17.745Z</time>
      </trkpt>
      <trkpt lat="48.53645" lon="2.12183">
        <ele>139</ele>
        <time>2021-03-07T11:38:18.745Z</time>
      </trkpt>
      <trkpt lat="48.53646" lon="2.12186">
        <ele>139</ele>
        <time>2021-03-07T11:38:19.745Z</time>
      </trkpt>
      <trkpt lat="48.53647" lon="2.12189">
        <ele>139</ele>
        <time>2021-03-07T11:38:20.745Z</time>
      </trkpt>
      <trkpt lat="48.53648" lon="2.1219">
        <ele>139</ele>
        <time>2021-03-07T11:38:21.745Z</time>
      </trkpt>
      <trkpt lat="48.53649" lon="2.12192">
        <ele>139</ele>
        <time>2021-03-07T11:38:22.745Z</time>
      </trkpt>
      <trkpt lat="48.53649" lon="2.12194">
        <ele>140</ele>
        <time>2021-03-07T11:38:23.746Z</time>
      </trkpt>
      <trkpt lat="48.5365" lon="2.12197">
        <ele>140</ele>
        <time>2021-03-07T11:38:24.746Z</time>
      </trkpt>
      <trkpt lat="48.53651" lon="2.12199">
        <ele>140</ele>
        <time>2021-03-07T11:38:25.745Z</time>
      </trkpt>
      <trkpt lat="48.53652" lon="2.12201">
        <ele>141</ele>
        <time>2021-03-07T11:38:26.746Z</time>
      </trkpt>
      <trkpt lat="48.53653" lon="2.12204">
        <ele>141</ele>
        <time>2021-03-07T11:38:27.745Z</time>
      </trkpt>
      <trkpt lat="48.53654" lon="2.12206">
        <ele>141</ele>
        <time>2021-03-07T11:38:28.745Z</time>
      </trkpt>
      <trkpt lat="48.53655" lon="2.12208">
        <ele>141</ele>
        <time>2021-03-07T11:38:29.745Z</time>
      </trkpt>
      <trkpt lat="48.53655" lon="2.1221">
        <ele>141</ele>
        <time>2021-03-07T11:38:30.745Z</time>
      </trkpt>
      <trkpt lat="48.53656" lon="2.12212">
        <ele>141</ele>
        <time>2021-03-07T11:38:31.746Z</time>
      </trkpt>
      <trkpt lat="48.53658" lon="2.12215">
        <ele>141</ele>
        <time>2021-03-07T11:38:32.745Z</time>
      </trkpt>
      <trkpt lat="48.53658" lon="2.12216">
        <ele>142</ele>
        <time>2021-03-07T11:38:33.746Z</time>
      </trkpt>
      <trkpt lat="48.53659" lon="2.12218">
        <ele>142</ele>
        <time>2021-03-07T11:38:34.745Z</time>
      </trkpt>
      <trkpt lat="48.5366" lon="2.1222">
        <ele>142</ele>
        <time>2021-03-07T11:38:35.746Z</time>
      </trkpt>
      <trkpt lat="48.53661" lon="2.12223">
        <ele>143</ele>
        <time>2021-03-07T11:38:36.745Z</time>
      </trkpt>
      <trkpt lat="48.53662" lon="2.12225">
        <ele>143</ele>
        <time>2021-03-07T11:38:37.745Z</time>
      </trkpt>
      <trkpt lat="48.53663" lon="2.12227">
        <ele>143</ele>
        <time>2021-03-07T11:38:38.745Z</time>
      </trkpt>
      <trkpt lat="48.53664" lon="2.12229">
        <ele>142</ele>
        <time>2021-03-07T11:38:39.745Z</time>
      </trkpt>
      <trkpt lat="48.53665" lon="2.12231">
        <ele>142</ele>
        <time>2021-03-07T11:38:40.745Z</time>
      </trkpt>
      <trkpt lat="48.53666" lon="2.12234">
        <ele>142</ele>
        <time>2021-03-07T11:38:41.745Z</time>
      </trkpt>
      <trkpt lat="48.53667" lon="2.12236">
        <ele>141</ele>
        <time>2021-03-07T11:38:42.745Z</time>
      </trkpt>
      <trkpt lat="48.53668" lon="2.12238">
        <ele>141</ele>
        <time>2021-03-07T11:38:43.745Z</time>
      </trkpt>
      <trkpt lat="48.53669" lon="2.1224">
        <ele>140</ele>
        <time>2021-03-07T11:38:44.745Z</time>
      </trkpt>
      <trkpt lat="48.5367" lon="2.12242">
        <ele>140</ele>
        <time>2021-03-07T11:38:45.745Z</time>
      </trkpt>
      <trkpt lat="48.53671" lon="2.12245">
        <ele>140</ele>
        <time>2021-03-07T11:38:46.745Z</time>
      </trkpt>
      <trkpt lat="48.53672" lon="2.12247">
        <ele>140</ele>
        <time>2021-03-07T11:38:47.745Z</time>
      </trkpt>
      <trkpt lat="48.53672" lon="2.12248">
        <ele>139</ele>
        <time>2021-03-07T11:38:48.745Z</time>
      </trkpt>
      <trkpt lat="48.53673" lon="2.12251">
        <ele>139</ele>
        <time>2021-03-07T11:38:49.745Z</time>
      </trkpt>
      <trkpt lat="48.53674" lon="2.12253">
        <ele>139</ele>
        <time>2021-03-07T11:38:50.745Z</time>
      </trkpt>
      <trkpt lat="48.53675" lon="2.12255">
        <ele>139</ele>
        <time>2021-03-07T11:38:51.746Z</time>
      </trkpt>
      <trkpt lat="48.53676" lon="2.12257">
        <ele>139</ele>
        <time>2021-03-07T11:38:52.746Z</time>
      </trkpt>
      <trkpt lat="48.53677" lon="2.12259">
        <ele>139</ele>
        <time>2021-03-07T11:38:53.745Z</time>
      </trkpt>
      <trkpt lat="48.53678" lon="2.12261">
        <ele>139</ele>
        <time>2021-03-07T11:38:54.746Z</time>
      </trkpt>
      <trkpt lat="48.53679" lon="2.12264">
        <ele>139</ele>
        <time>2021-03-07T11:38:55.745Z</time>
      </trkpt>
      <trkpt lat="48.53679" lon="2.12266">
        <ele>140</ele>
        <time>2021-03-07T11:38:56.745Z</time>
      </trkpt>
      <trkpt lat="48.5368" lon="2.12268">
        <ele>140</ele>
        <time>2021-03-07T11:38:57.745Z</time>
      </trkpt>
      <trkpt lat="48.53681" lon="2.1227">
        <ele>139</ele>
        <time>2021-03-07T11:38:58.745Z</time>
      </trkpt>
      <trkpt lat="48.53682" lon="2.12273">
        <ele>139</ele>
        <time>2021-03-07T11:38:59.746Z</time>
      </trkpt>
      <trkpt lat="48.53683" lon="2.12275">
        <ele>139</ele>
        <time>2021-03-07T11:39:00.745Z</time>
      </trkpt>
      <trkpt lat="48.53685" lon="2.12278">
        <ele>139</ele>
        <time>2021-03-07T11:39:01.746Z</time>
      </trkpt>
      <trkpt lat="48.53686" lon="2.1228">
        <ele>139</ele>
        <time>2021-03-07T11:39:02.745Z</time>
      </trkpt>
      <trkpt lat="48.53687" lon="2.12282">
        <ele>139</ele>
        <time>2021-03-07T11:39:03.745Z</time>
      </trkpt>
      <trkpt lat="48.53688" lon="2.12284">
        <ele>139</ele>
        <time>2021-03-07T11:39:04.746Z</time>
      </trkpt>
      <trkpt lat="48.53689" lon="2.12287">
        <ele>139</ele>
        <time>2021-03-07T11:39:05.745Z</time>
      </trkpt>
      <trkpt lat="48.5369" lon="2.12289">
        <ele>139</ele>
        <time>2021-03-07T11:39:06.745Z</time>
      </trkpt>
      <trkpt lat="48.5369" lon="2.1229">
        <ele>139</ele>
        <time>2021-03-07T11:39:07.746Z</time>
      </trkpt>
      <trkpt lat="48.53691" lon="2.12292">
        <ele>138</ele>
        <time>2021-03-07T11:39:08.745Z</time>
      </trkpt>
      <trkpt lat="48.53692" lon="2.12294">
        <ele>138</ele>
        <time>2021-03-07T11:39:09.745Z</time>
      </trkpt>
      <trkpt lat="48.53692" lon="2.12297">
        <ele>137</ele>
        <time>2021-03-07T11:39:10.745Z</time>
      </trkpt>
      <trkpt lat="48.53693" lon="2.12299">
        <ele>137</ele>
        <time>2021-03-07T11:39:11.745Z</time>
      </trkpt>
      <trkpt lat="48.53694" lon="2.12301">
        <ele>136</ele>
        <time>2021-03-07T11:39:12.745Z</time>
      </trkpt>
      <trkpt lat="48.53694" lon="2.12302">
        <ele>136</ele>
        <time>2021-03-07T11:39:13.745Z</time>
      </trkpt>
      <trkpt lat="48.53694" lon="2.12304">
        <ele>136</ele>
        <time>2021-03-07T11:39:14.745Z</time>
      </trkpt>
      <trkpt lat="48.53695" lon="2.12306">
        <ele>136</ele>
        <time>2021-03-07T11:39:15.745Z</time>
      </trkpt>
      <trkpt lat="48.53697" lon="2.12309">
        <ele>136</ele>
        <time>2021-03-07T11:39:16.745Z</time>
      </trkpt>
      <trkpt lat="48.53698" lon="2.12311">
        <ele>136</ele>
        <time>2021-03-07T11:39:17.745Z</time>
      </trkpt>
      <trkpt lat="48.53699" lon="2.12313">
        <ele>136</ele>
        <time>2021-03-07T11:39:18.745Z</time>
      </trkpt>
      <trkpt lat="48.537" lon="2.12315">
        <ele>136</ele>
        <time>2021-03-07T11:39:19.745Z</time>
      </trkpt>
      <trkpt lat="48.53701" lon="2.12317">
        <ele>136</ele>
        <time>2021-03-07T11:39:20.745Z</time>
      </trkpt>
      <trkpt lat="48.53702" lon="2.12319">
        <ele>136</ele>
        <time>2021-03-07T11:39:21.746Z</time>
      </trkpt>
      <trkpt lat="48.53703" lon="2.12321">
        <ele>137</ele>
        <time>2021-03-07T11:39:22.746Z</time>
      </trkpt>
      <trkpt lat="48.53704" lon="2.12323">
        <ele>137</ele>
        <time>2021-03-07T11:39:23.745Z</time>
      </trkpt>
      <trkpt lat="48.53705" lon="2.12325">
        <ele>137</ele>
        <time>2021-03-07T11:39:24.746Z</time>
      </trkpt>
      <trkpt lat="48.53706" lon="2.12327">
        <ele>138</ele>
        <time>2021-03-07T11:39:25.746Z</time>
      </trkpt>
      <trkpt lat="48.53707" lon="2.12329">
        <ele>138</ele>
        <time>2021-03-07T11:39:26.745Z</time>
      </trkpt>
      <trkpt lat="48.53709" lon="2.12331">
        <ele>138</ele>
        <time>2021-03-07T11:39:27.745Z</time>
      </trkpt>
      <trkpt lat="48.53709" lon="2.12334">
        <ele>139</ele>
        <time>2021-03-07T11:39:28.745Z</time>
      </trkpt>
      <trkpt lat="48.5371" lon="2.12336">
        <ele>139</ele>
        <time>2021-03-07T11:39:29.745Z</time>
      </trkpt>
      <trkpt lat="48.53711" lon="2.12338">
        <ele>140</ele>
        <time>2021-03-07T11:39:30.746Z</time>
      </trkpt>
      <trkpt lat="48.53712" lon="2.12341">
        <ele>140</ele>
        <time>2021-03-07T11:39:31.746Z</time>
      </trkpt>
      <trkpt lat="48.53713" lon="2.12344">
        <ele>140</ele>
        <time>2021-03-07T11:39:32.745Z</time>
      </trkpt>
      <trkpt lat="48.53713" lon="2.12346">
        <ele>141</ele>
        <time>2021-03-07T11:39:33.745Z</time>
      </trkpt>
      <trkpt lat="48.53714" lon="2.12348">
        <ele>140</ele>
        <time>2021-03-07T11:39:34.745Z</time>
      </trkpt>
      <trkpt lat="48.53714" lon="2.1235">
        <ele>140</ele>
        <time>2021-03-07T11:39:35.745Z</time>
      </trkpt>
      <trkpt lat="48.53715" lon="2.12353">
        <ele>140</ele>
        <time>2021-03-07T11:39:36.745Z</time>
      </trkpt>
      <trkpt lat="48.53716" lon="2.12355">
        <ele>140</ele>
        <time>2021-03-07T11:39:37.746Z</time>
      </trkpt>
      <trkpt lat="48.53716" lon="2.12357">
        <ele>140</ele>
        <time>2021-03-07T11:39:38.746Z</time>
      </trkpt>
      <trkpt lat="48.53717" lon="2.12359">
        <ele>140</ele>
        <time>2021-03-07T11:39:39.745Z</time>
      </trkpt>
      <trkpt lat="48.53717" lon="2.12361">
        <ele>140</ele>
        <time>2021-03-07T11:39:40.746Z</time>
      </trkpt>
      <trkpt lat="48.53718" lon="2.12364">
        <ele>139</ele>
        <time>2021-03-07T11:39:41.746Z</time>
      </trkpt>
      <trkpt lat="48.53718" lon="2.12366">
        <ele>139</ele>
        <time>2021-03-07T11:39:42.745Z</time>
      </trkpt>
      <trkpt lat="48.53719" lon="2.12368">
        <ele>139</ele>
        <time>2021-03-07T11:39:43.745Z</time>
      </trkpt>
      <trkpt lat="48.5372" lon="2.12371">
        <ele>139</ele>
        <time>2021-03-07T11:39:44.745Z</time>
      </trkpt>
      <trkpt lat="48.53721" lon="2.12373">
        <ele>139</ele>
        <time>2021-03-07T11:39:45.745Z</time>
      </trkpt>
      <trkpt lat="48.53721" lon="2.12376">
        <ele>139</ele>
        <time>2021-03-07T11:39:46.745Z</time>
      </trkpt>
      <trkpt lat="48.53722" lon="2.12379">
        <ele>138</ele>
        <time>2021-03-07T11:39:47.745Z</time>
      </trkpt>
      <trkpt lat="48.53722" lon="2.1238">
        <ele>138</ele>
        <time>2021-03-07T11:39:48.746Z</time>
      </trkpt>
      <trkpt lat="48.53722" lon="2.12383">
        <ele>137</ele>
        <time>2021-03-07T11:39:49.746Z</time>
      </trkpt>
      <trkpt lat="48.53723" lon="2.12385">
        <ele>136</ele>
        <time>2021-03-07T11:39:50.745Z</time>
      </trkpt>
      <trkpt lat="48.53723" lon="2.12387">
        <ele>136</ele>
        <time>2021-03-07T11:39:51.746Z</time>
      </trkpt>
      <trkpt lat="48.53723" lon="2.12389">
        <ele>135</ele>
        <time>2021-03-07T11:39:52.745Z</time>
      </trkpt>
      <trkpt lat="48.53724" lon="2.12391">
        <ele>135</ele>
        <time>2021-03-07T11:39:53.745Z</time>
      </trkpt>
      <trkpt lat="48.53725" lon="2.12393">
        <ele>135</ele>
        <time>2021-03-07T11:39:54.745Z</time>
      </trkpt>
      <trkpt lat="48.53726" lon="2.12396">
        <ele>135</ele>
        <time>2021-03-07T11:39:55.745Z</time>
      </trkpt>
      <trkpt lat="48.53726" lon="2.12398">
        <ele>135</ele>
        <time>2021-03-07T11:39:56.745Z</time>
      </trkpt>
      <trkpt lat="48.53727" lon="2.12401">
        <ele>135</ele>
        <time>2021-03-07T11:39:57.745Z</time>
      </trkpt>
      <trkpt lat="48.53728" lon="2.12403">
        <ele>135</ele>
        <time>2021-03-07T11:39:58.745Z</time>
      </trkpt>
      <trkpt lat="48.53728" lon="2.12405">
        <ele>135</ele>
        <time>2021-03-07T11:39:59.745Z</time>
      </trkpt>
      <trkpt lat="48.53729" lon="2.12408">
        <ele>135</ele>
        <time>2021-03-07T11:40:00.745Z</time>
      </trkpt>
      <trkpt lat="48.53729" lon="2.12409">
        <ele>135</ele>
        <time>2021-03-07T11:40:01.746Z</time>
      </trkpt>
      <trkpt lat="48.5373" lon="2.12412">
        <ele>135</ele>
        <time>2021-03-07T11:40:02.746Z</time>
      </trkpt>
      <trkpt lat="48.53731" lon="2.12414">
        <ele>135</ele>
        <time>2021-03-07T11:40:03.746Z</time>
      </trkpt>
      <trkpt lat="48.53731" lon="2.12416">
        <ele>135</ele>
        <time>2021-03-07T11:40:04.746Z</time>
      </trkpt>
      <trkpt lat="48.53732" lon="2.12418">
        <ele>135</ele>
        <time>2021-03-07T11:40:05.745Z</time>
      </trkpt>
      <trkpt lat="48.53733" lon="2.12421">
        <ele>135</ele>
        <time>2021-03-07T11:40:06.745Z</time>
      </trkpt>
      <trkpt lat="48.53733" lon="2.12423">
        <ele>135</ele>
        <time>2021-03-07T11:40:07.745Z</time>
      </trkpt>
      <trkpt lat="48.53734" lon="2.12425">
        <ele>135</ele>
        <time>2021-03-07T11:40:08.745Z</time>
      </trkpt>
      <trkpt lat="48.53734" lon="2.12428">
        <ele>135</ele>
        <time>2021-03-07T11:40:09.746Z</time>
      </trkpt>
      <trkpt lat="48.53735" lon="2.12431">
        <ele>135</ele>
        <time>2021-03-07T11:40:10.745Z</time>
      </trkpt>
      <trkpt lat="48.53736" lon="2.12433">
        <ele>135</ele>
        <time>2021-03-07T11:40:11.745Z</time>
      </trkpt>
      <trkpt lat="48.53736" lon="2.12436">
        <ele>135</ele>
        <time>2021-03-07T11:40:12.745Z</time>
      </trkpt>
      <trkpt lat="48.53737" lon="2.12438">
        <ele>135</ele>
        <time>2021-03-07T11:40:13.746Z</time>
      </trkpt>
      <trkpt lat="48.53737" lon="2.1244">
        <ele>135</ele>
        <time>2021-03-07T11:40:14.745Z</time>
      </trkpt>
      <trkpt lat="48.53737" lon="2.12443">
        <ele>136</ele>
        <time>2021-03-07T11:40:15.745Z</time>
      </trkpt>
      <trkpt lat="48.53738" lon="2.12445">
        <ele>136</ele>
        <time>2021-03-07T11:40:16.745Z</time>
      </trkpt>
      <trkpt lat="48.53738" lon="2.12448">
        <ele>136</ele>
        <time>2021-03-07T11:40:17.745Z</time>
      </trkpt>
      <trkpt lat="48.53738" lon="2.1245">
        <ele>137</ele>
        <time>2021-03-07T11:40:18.745Z</time>
      </trkpt>
      <trkpt lat="48.53739" lon="2.12453">
        <ele>137</ele>
        <time>2021-03-07T11:40:19.745Z</time>
      </trkpt>
      <trkpt lat="48.53739" lon="2.12455">
        <ele>138</ele>
        <time>2021-03-07T11:40:20.746Z</time>
      </trkpt>
      <trkpt lat="48.5374" lon="2.12457">
        <ele>138</ele>
        <time>2021-03-07T11:40:21.746Z</time>
      </trkpt>
      <trkpt lat="48.53741" lon="2.12459">
        <ele>138</ele>
        <time>2021-03-07T11:40:22.746Z</time>
      </trkpt>
      <trkpt lat="48.53741" lon="2.12462">
        <ele>138</ele>
        <time>2021-03-07T11:40:23.746Z</time>
      </trkpt>
      <trkpt lat="48.53742" lon="2.12464">
        <ele>139</ele>
        <time>2021-03-07T11:40:24.745Z</time>
      </trkpt>
      <trkpt lat="48.53742" lon="2.12467">
        <ele>139</ele>
        <time>2021-03-07T11:40:25.745Z</time>
      </trkpt>
      <trkpt lat="48.53743" lon="2.12469">
        <ele>139</ele>
        <time>2021-03-07T11:40:26.745Z</time>
      </trkpt>
      <trkpt lat="48.53743" lon="2.12472">
        <ele>139</ele>
        <time>2021-03-07T11:40:27.745Z</time>
      </trkpt>
      <trkpt lat="48.53744" lon="2.12474">
        <ele>138</ele>
        <time>2021-03-07T11:40:28.745Z</time>
      </trkpt>
      <trkpt lat="48.53745" lon="2.12476">
        <ele>138</ele>
        <time>2021-03-07T11:40:29.745Z</time>
      </trkpt>
      <trkpt lat="48.53746" lon="2.12479">
        <ele>138</ele>
        <time>2021-03-07T11:40:30.745Z</time>
      </trkpt>
      <trkpt lat="48.53747" lon="2.12481">
        <ele>139</ele>
        <time>2021-03-07T11:40:31.745Z</time>
      </trkpt>
      <trkpt lat="48.53747" lon="2.12483">
        <ele>139</ele>
        <time>2021-03-07T11:40:32.746Z</time>
      </trkpt>
      <trkpt lat="48.53748" lon="2.12486">
        <ele>139</ele>
        <time>2021-03-07T11:40:33.746Z</time>
      </trkpt>
      <trkpt lat="48.53748" lon="2.12488">
        <ele>140</ele>
        <time>2021-03-07T11:40:34.746Z</time>
      </trkpt>
      <trkpt lat="48.53749" lon="2.12491">
        <ele>140</ele>
        <time>2021-03-07T11:40:35.746Z</time>
      </trkpt>
      <trkpt lat="48.53749" lon="2.12493">
        <ele>141</ele>
        <time>2021-03-07T11:40:36.745Z</time>
      </trkpt>
      <trkpt lat="48.5375" lon="2.12495">
        <ele>141</ele>
        <time>2021-03-07T11:40:37.745Z</time>
      </trkpt>
      <trkpt lat="48.5375" lon="2.12498">
        <ele>142</ele>
        <time>2021-03-07T11:40:38.745Z</time>
      </trkpt>
      <trkpt lat="48.53751" lon="2.125">
        <ele>142</ele>
        <time>2021-03-07T11:40:39.745Z</time>
      </trkpt>
      <trkpt lat="48.53752" lon="2.12503">
        <ele>142</ele>
        <time>2021-03-07T11:40:40.745Z</time>
      </trkpt>
      <trkpt lat="48.53753" lon="2.12505">
        <ele>143</ele>
        <time>2021-03-07T11:40:41.745Z</time>
      </trkpt>
      <trkpt lat="48.53754" lon="2.12508">
        <ele>142</ele>
        <time>2021-03-07T11:40:42.746Z</time>
      </trkpt>
      <trkpt lat="48.53754" lon="2.12511">
        <ele>142</ele>
        <time>2021-03-07T11:40:43.746Z</time>
      </trkpt>
      <trkpt lat="48.53755" lon="2.12513">
        <ele>142</ele>
        <time>2021-03-07T11:40:44.745Z</time>
      </trkpt>
      <trkpt lat="48.53755" lon="2.12515">
        <ele>142</ele>
        <time>2021-03-07T11:40:45.745Z</time>
      </trkpt>
      <trkpt lat="48.53755" lon="2.12517">
        <ele>142</ele>
        <time>2021-03-07T11:40:46.745Z</time>
      </trkpt>
      <trkpt lat="48.53756" lon="2.1252">
        <ele>141</ele>
        <time>2021-03-07T11:40:47.745Z</time>
      </trkpt>
      <trkpt lat="48.53756" lon="2.12523">
        <ele>141</ele>
        <time>2021-03-07T11:40:48.745Z</time>
      </trkpt>
      <trkpt lat="48.53757" lon="2.12525">
        <ele>141</ele>
        <time>2021-03-07T11:40:49.745Z</time>
      </trkpt>
      <trkpt lat="48.53758" lon="2.12528">
        <ele>141</ele>
        <time>2021-03-07T11:40:50.745Z</time>
      </trkpt>
      <trkpt lat="48.53758" lon="2.1253">
        <ele>140</ele>
        <time>2021-03-07T11:40:51.745Z</time>
      </trkpt>
      <trkpt lat="48.53759" lon="2.12533">
        <ele>140</ele>
        <time>2021-03-07T11:40:52.745Z</time>
      </trkpt>
      <trkpt lat="48.53759" lon="2.12535">
        <ele>140</ele>
        <time>2021-03-07T11:40:53.745Z</time>
      </trkpt>
      <trkpt lat="48.53759" lon="2.12537">
        <ele>140</ele>
        <time>2021-03-07T11:40:54.745Z</time>
      </trkpt>
      <trkpt lat="48.5376" lon="2.12539">
        <ele>139</ele>
        <time>2021-03-07T11:40:55.745Z</time>
      </trkpt>
      <trkpt lat="48.53761" lon="2.12542">
        <ele>139</ele>
        <time>2021-03-07T11:40:56.745Z</time>
      </trkpt>
      <trkpt lat="48.53762" lon="2.12544">
        <ele>139</ele>
        <time>2021-03-07T11:40:57.745Z</time>
      </trkpt>
      <trkpt lat="48.53762" lon="2.12546">
        <ele>139</ele>
        <time>2021-03-07T11:40:58.745Z</time>
      </trkpt>
      <trkpt lat="48.53763" lon="2.12549">
        <ele>139</ele>
        <time>2021-03-07T11:40:59.745Z</time>
      </trkpt>
      <trkpt lat="48.53763" lon="2.12551">
        <ele>139</ele>
        <time>2021-03-07T11:41:00.745Z</time>
      </trkpt>
      <trkpt lat="48.53764" lon="2.12553">
        <ele>140</ele>
        <time>2021-03-07T11:41:01.745Z</time>
      </trkpt>
      <trkpt lat="48.53764" lon="2.12556">
        <ele>140</ele>
        <time>2021-03-07T11:41:02.746Z</time>
      </trkpt>
      <trkpt lat="48.53765" lon="2.12558">
        <ele>140</ele>
        <time>2021-03-07T11:41:03.746Z</time>
      </trkpt>
      <trkpt lat="48.53766" lon="2.1256">
        <ele>141</ele>
        <time>2021-03-07T11:41:04.746Z</time>
      </trkpt>
      <trkpt lat="48.53766" lon="2.12563">
        <ele>141</ele>
        <time>2021-03-07T11:41:05.746Z</time>
      </trkpt>
      <trkpt lat="48.53767" lon="2.12565">
        <ele>141</ele>
        <time>2021-03-07T11:41:06.746Z</time>
      </trkpt>
      <trkpt lat="48.53768" lon="2.12567">
        <ele>141</ele>
        <time>2021-03-07T11:41:07.746Z</time>
      </trkpt>
      <trkpt lat="48.53768" lon="2.12569">
        <ele>141</ele>
        <time>2021-03-07T11:41:08.745Z</time>
      </trkpt>
      <trkpt lat="48.53769" lon="2.12572">
        <ele>141</ele>
        <time>2021-03-07T11:41:09.745Z</time>
      </trkpt>
      <trkpt lat="48.53769" lon="2.12574">
        <ele>140</ele>
        <time>2021-03-07T11:41:10.745Z</time>
      </trkpt>
      <trkpt lat="48.5377" lon="2.12576">
        <ele>140</ele>
        <time>2021-03-07T11:41:11.745Z</time>
      </trkpt>
      <trkpt lat="48.53771" lon="2.12579">
        <ele>140</ele>
        <time>2021-03-07T11:41:12.745Z</time>
      </trkpt>
      <trkpt lat="48.53771" lon="2.12581">
        <ele>139</ele>
        <time>2021-03-07T11:41:13.745Z</time>
      </trkpt>
      <trkpt lat="48.53772" lon="2.12583">
        <ele>139</ele>
        <time>2021-03-07T11:41:14.746Z</time>
      </trkpt>
      <trkpt lat="48.53773" lon="2.12585">
        <ele>139</ele>
        <time>2021-03-07T11:41:15.746Z</time>
      </trkpt>
      <trkpt lat="48.53773" lon="2.12587">
        <ele>139</ele>
        <time>2021-03-07T11:41:16.746Z</time>
      </trkpt>
      <trkpt lat="48.53774" lon="2.12589">
        <ele>139</ele>
        <time>2021-03-07T11:41:17.746Z</time>
      </trkpt>
      <trkpt lat="48.53774" lon="2.12592">
        <ele>139</ele>
        <time>2021-03-07T11:41:18.746Z</time>
      </trkpt>
      <trkpt lat="48.53775" lon="2.12593">
        <ele>139</ele>
        <time>2021-03-07T11:41:19.746Z</time>
      </trkpt>
      <trkpt lat="48.53775" lon="2.12596">
        <ele>139</ele>
        <time>2021-03-07T11:41:20.745Z</time>
      </trkpt>
      <trkpt lat="48.53776" lon="2.12598">
        <ele>139</ele>
        <time>2021-03-07T11:41:21.745Z</time>
      </trkpt>
      <trkpt lat="48.53777" lon="2.126">
        <ele>139</ele>
        <time>2021-03-07T11:41:22.745Z</time>
      </trkpt>
      <trkpt lat="48.53777" lon="2.12603">
        <ele>139</ele>
        <time>2021-03-07T11:41:23.745Z</time>
      </trkpt>
      <trkpt lat="48.53778" lon="2.12604">
        <ele>139</ele>
        <time>2021-03-07T11:41:24.745Z</time>
      </trkpt>
      <trkpt lat="48.53778" lon="2.12606">
        <ele>139</ele>
        <time>2021-03-07T11:41:25.745Z</time>
      </trkpt>
      <trkpt lat="48.53779" lon="2.12608">
        <ele>140</ele>
        <time>2021-03-07T11:41:26.745Z</time>
      </trkpt>
      <trkpt lat="48.5378" lon="2.1261">
        <ele>140</ele>
        <time>2021-03-07T11:41:27.745Z</time>
      </trkpt>
      <trkpt lat="48.5378" lon="2.12612">
        <ele>140</ele>
        <time>2021-03-07T11:41:28.745Z</time>
      </trkpt>
      <trkpt lat="48.53781" lon="2.12614">
        <ele>140</ele>
        <time>2021-03-07T11:41:29.745Z</time>
      </trkpt>
      <trkpt lat="48.53781" lon="2.12616">
        <ele>141</ele>
        <time>2021-03-07T11:41:30.745Z</time>
      </trkpt>
      <trkpt lat="48.53781" lon="2.12618">
        <ele>141</ele>
        <time>2021-03-07T11:41:31.745Z</time>
      </trkpt>
      <trkpt lat="48.53782" lon="2.1262">
        <ele>142</ele>
        <time>2021-03-07T11:41:32.745Z</time>
      </trkpt>
      <trkpt lat="48.53782" lon="2.12622">
        <ele>142</ele>
        <time>2021-03-07T11:41:33.745Z</time>
      </trkpt>
      <trkpt lat="48.53782" lon="2.12624">
        <ele>142</ele>
        <time>2021-03-07T11:41:34.745Z</time>
      </trkpt>
      <trkpt lat="48.53783" lon="2.12625">
        <ele>142</ele>
        <time>2021-03-07T11:41:35.746Z</time>
      </trkpt>
      <trkpt lat="48.53783" lon="2.12627">
        <ele>142</ele>
        <time>2021-03-07T11:41:36.746Z</time>
      </trkpt>
      <trkpt lat="48.53784" lon="2.12629">
        <ele>142</ele>
        <time>2021-03-07T11:41:37.746Z</time>
      </trkpt>
      <trkpt lat="48.53785" lon="2.12631">
        <ele>142</ele>
        <time>2021-03-07T11:41:38.746Z</time>
      </trkpt>
      <trkpt lat="48.53785" lon="2.12633">
        <ele>142</ele>
        <time>2021-03-07T11:41:39.745Z</time>
      </trkpt>
      <trkpt lat="48.53786" lon="2.12635">
        <ele>142</ele>
        <time>2021-03-07T11:41:40.746Z</time>
      </trkpt>
      <trkpt lat="48.53787" lon="2.12636">
        <ele>142</ele>
        <time>2021-03-07T11:41:41.746Z</time>
      </trkpt>
      <trkpt lat="48.53788" lon="2.12638">
        <ele>142</ele>
        <time>2021-03-07T11:41:42.746Z</time>
      </trkpt>
      <trkpt lat="48.53789" lon="2.1264">
        <ele>142</ele>
        <time>2021-03-07T11:41:43.746Z</time>
      </trkpt>
      <trkpt lat="48.5379" lon="2.12642">
        <ele>142</ele>
        <time>2021-03-07T11:41:44.746Z</time>
      </trkpt>
      <trkpt lat="48.53791" lon="2.12644">
        <ele>142</ele>
        <time>2021-03-07T11:41:45.746Z</time>
      </trkpt>
      <trkpt lat="48.53791" lon="2.12646">
        <ele>142</ele>
        <time>2021-03-07T11:41:46.745Z</time>
      </trkpt>
      <trkpt lat="48.53792" lon="2.12648">
        <ele>142</ele>
        <time>2021-03-07T11:41:47.745Z</time>
      </trkpt>
      <trkpt lat="48.53793" lon="2.12649">
        <ele>142</ele>
        <time>2021-03-07T11:41:48.745Z</time>
      </trkpt>
      <trkpt lat="48.53793" lon="2.12651">
        <ele>141</ele>
        <time>2021-03-07T11:41:49.745Z</time>
      </trkpt>
      <trkpt lat="48.53794" lon="2.12653">
        <ele>141</ele>
        <time>2021-03-07T11:41:50.746Z</time>
      </trkpt>
      <trkpt lat="48.53794" lon="2.12655">
        <ele>140</ele>
        <time>2021-03-07T11:41:51.746Z</time>
      </trkpt>
      <trkpt lat="48.53795" lon="2.12657">
        <ele>140</ele>
        <time>2021-03-07T11:41:52.746Z</time>
      </trkpt>
      <trkpt lat="48.53795" lon="2.12659">
        <ele>139</ele>
        <time>2021-03-07T11:41:53.745Z</time>
      </trkpt>
      <trkpt lat="48.53796" lon="2.12661">
        <ele>139</ele>
        <time>2021-03-07T11:41:54.745Z</time>
      </trkpt>
      <trkpt lat="48.53797" lon="2.12663">
        <ele>139</ele>
        <time>2021-03-07T11:41:55.745Z</time>
      </trkpt>
      <trkpt lat="48.53798" lon="2.12665">
        <ele>139</ele>
        <time>2021-03-07T11:41:56.745Z</time>
      </trkpt>
      <trkpt lat="48.53799" lon="2.12667">
        <ele>140</ele>
        <time>2021-03-07T11:41:57.745Z</time>
      </trkpt>
      <trkpt lat="48.538" lon="2.12669">
        <ele>139</ele>
        <time>2021-03-07T11:41:58.746Z</time>
      </trkpt>
      <trkpt lat="48.53801" lon="2.1267">
        <ele>139</ele>
        <time>2021-03-07T11:41:59.745Z</time>
      </trkpt>
      <trkpt lat="48.53802" lon="2.12672">
        <ele>139</ele>
        <time>2021-03-07T11:42:00.745Z</time>
      </trkpt>
      <trkpt lat="48.53802" lon="2.12674">
        <ele>139</ele>
        <time>2021-03-07T11:42:01.746Z</time>
      </trkpt>
      <trkpt lat="48.53803" lon="2.12675">
        <ele>139</ele>
        <time>2021-03-07T11:42:02.745Z</time>
      </trkpt>
      <trkpt lat="48.53804" lon="2.12678">
        <ele>139</ele>
        <time>2021-03-07T11:42:03.746Z</time>
      </trkpt>
      <trkpt lat="48.53806" lon="2.1268">
        <ele>140</ele>
        <time>2021-03-07T11:42:04.745Z</time>
      </trkpt>
      <trkpt lat="48.53806" lon="2.12682">
        <ele>140</ele>
        <time>2021-03-07T11:42:05.745Z</time>
      </trkpt>
      <trkpt lat="48.53807" lon="2.12683">
        <ele>140</ele>
        <time>2021-03-07T11:42:06.745Z</time>
      </trkpt>
      <trkpt lat="48.53808" lon="2.12685">
        <ele>141</ele>
        <time>2021-03-07T11:42:07.745Z</time>
      </trkpt>
      <trkpt lat="48.53809" lon="2.12687">
        <ele>141</ele>
        <time>2021-03-07T11:42:08.745Z</time>
      </trkpt>
      <trkpt lat="48.5381" lon="2.12688">
        <ele>141</ele>
        <time>2021-03-07T11:42:09.745Z</time>
      </trkpt>
      <trkpt lat="48.53811" lon="2.1269">
        <ele>141</ele>
        <time>2021-03-07T11:42:10.745Z</time>
      </trkpt>
      <trkpt lat="48.53811" lon="2.12691">
        <ele>142</ele>
        <time>2021-03-07T11:42:11.745Z</time>
      </trkpt>
      <trkpt lat="48.53812" lon="2.12693">
        <ele>142</ele>
        <time>2021-03-07T11:42:12.745Z</time>
      </trkpt>
      <trkpt lat="48.53813" lon="2.12695">
        <ele>142</ele>
        <time>2021-03-07T11:42:13.745Z</time>
      </trkpt>
      <trkpt lat="48.53814" lon="2.12697">
        <ele>142</ele>
        <time>2021-03-07T11:42:14.745Z</time>
      </trkpt>
      <trkpt lat="48.53815" lon="2.127">
        <ele>142</ele>
        <time>2021-03-07T11:42:15.745Z</time>
      </trkpt>
      <trkpt lat="48.53816" lon="2.12702">
        <ele>142</ele>
        <time>2021-03-07T11:42:16.745Z</time>
      </trkpt>
      <trkpt lat="48.53817" lon="2.12704">
        <ele>142</ele>
        <time>2021-03-07T11:42:17.745Z</time>
      </trkpt>
      <trkpt lat="48.53817" lon="2.12706">
        <ele>142</ele>
        <time>2021-03-07T11:42:18.746Z</time>
      </trkpt>
      <trkpt lat="48.53818" lon="2.12709">
        <ele>142</ele>
        <time>2021-03-07T11:42:19.745Z</time>
      </trkpt>
      <trkpt lat="48.53818" lon="2.12711">
        <ele>142</ele>
        <time>2021-03-07T11:42:20.745Z</time>
      </trkpt>
      <trkpt lat="48.53819" lon="2.12712">
        <ele>142</ele>
        <time>2021-03-07T11:42:21.745Z</time>
      </trkpt>
      <trkpt lat="48.53819" lon="2.12714">
        <ele>142</ele>
        <time>2021-03-07T11:42:22.745Z</time>
      </trkpt>
      <trkpt lat="48.53819" lon="2.12716">
        <ele>142</ele>
        <time>2021-03-07T11:42:23.746Z</time>
      </trkpt>
      <trkpt lat="48.5382" lon="2.12718">
        <ele>142</ele>
        <time>2021-03-07T11:42:24.746Z</time>
      </trkpt>
      <trkpt lat="48.5382" lon="2.1272">
        <ele>141</ele>
        <time>2021-03-07T11:42:25.746Z</time>
      </trkpt>
      <trkpt lat="48.53821" lon="2.12722">
        <ele>141</ele>
        <time>2021-03-07T11:42:26.746Z</time>
      </trkpt>
      <trkpt lat="48.53822" lon="2.12724">
        <ele>141</ele>
        <time>2021-03-07T11:42:27.746Z</time>
      </trkpt>
      <trkpt lat="48.53822" lon="2.12726">
        <ele>141</ele>
        <time>2021-03-07T11:42:28.746Z</time>
      </trkpt>
      <trkpt lat="48.53822" lon="2.12728">
        <ele>141</ele>
        <time>2021-03-07T11:42:29.746Z</time>
      </trkpt>
      <trkpt lat="48.53823" lon="2.1273">
        <ele>140</ele>
        <time>2021-03-07T11:42:30.745Z</time>
      </trkpt>
      <trkpt lat="48.53823" lon="2.12732">
        <ele>140</ele>
        <time>2021-03-07T11:42:31.745Z</time>
      </trkpt>
      <trkpt lat="48.53823" lon="2.12734">
        <ele>140</ele>
        <time>2021-03-07T11:42:32.745Z</time>
      </trkpt>
      <trkpt lat="48.53824" lon="2.12736">
        <ele>140</ele>
        <time>2021-03-07T11:42:33.745Z</time>
      </trkpt>
      <trkpt lat="48.53824" lon="2.12738">
        <ele>140</ele>
        <time>2021-03-07T11:42:34.745Z</time>
      </trkpt>
      <trkpt lat="48.53825" lon="2.1274">
        <ele>140</ele>
        <time>2021-03-07T11:42:35.745Z</time>
      </trkpt>
      <trkpt lat="48.53826" lon="2.12741">
        <ele>139</ele>
        <time>2021-03-07T11:42:36.745Z</time>
      </trkpt>
      <trkpt lat="48.53826" lon="2.12743">
        <ele>139</ele>
        <time>2021-03-07T11:42:37.745Z</time>
      </trkpt>
      <trkpt lat="48.53827" lon="2.12745">
        <ele>138</ele>
        <time>2021-03-07T11:42:38.745Z</time>
      </trkpt>
      <trkpt lat="48.53828" lon="2.12747">
        <ele>138</ele>
        <time>2021-03-07T11:42:39.746Z</time>
      </trkpt>
      <trkpt lat="48.53829" lon="2.12749">
        <ele>138</ele>
        <time>2021-03-07T11:42:40.746Z</time>
      </trkpt>
      <trkpt lat="48.5383" lon="2.12751">
        <ele>139</ele>
        <time>2021-03-07T11:42:41.745Z</time>
      </trkpt>
      <trkpt lat="48.5383" lon="2.12753">
        <ele>139</ele>
        <time>2021-03-07T11:42:42.745Z</time>
      </trkpt>
      <trkpt lat="48.53831" lon="2.12755">
        <ele>140</ele>
        <time>2021-03-07T11:42:43.745Z</time>
      </trkpt>
      <trkpt lat="48.53832" lon="2.12756">
        <ele>140</ele>
        <time>2021-03-07T11:42:44.745Z</time>
      </trkpt>
      <trkpt lat="48.53833" lon="2.12758">
        <ele>141</ele>
        <time>2021-03-07T11:42:45.746Z</time>
      </trkpt>
      <trkpt lat="48.53834" lon="2.1276">
        <ele>141</ele>
        <time>2021-03-07T11:42:46.746Z</time>
      </trkpt>
      <trkpt lat="48.53835" lon="2.12762">
        <ele>142</ele>
        <time>2021-03-07T11:42:47.746Z</time>
      </trkpt>
      <trkpt lat="48.53836" lon="2.12764">
        <ele>142</ele>
        <time>2021-03-07T11:42:48.746Z</time>
      </trkpt>
      <trkpt lat="48.53837" lon="2.12766">
        <ele>142</ele>
        <time>2021-03-07T11:42:49.745Z</time>
      </trkpt>
      <trkpt lat="48.53838" lon="2.12767">
        <ele>142</ele>
        <time>2021-03-07T11:42:50.745Z</time>
      </trkpt>
      <trkpt lat="48.53838" lon="2.12768">
        <ele>142</ele>
        <time>2021-03-07T11:42:51.745Z</time>
      </trkpt>
      <trkpt lat="48.53839" lon="2.1277">
        <ele>142</ele>
        <time>2021-03-07T11:42:52.746Z</time>
      </trkpt>
      <trkpt lat="48.5384" lon="2.12771">
        <ele>142</ele>
        <time>2021-03-07T11:42:53.745Z</time>
      </trkpt>
      <trkpt lat="48.5384" lon="2.12773">
        <ele>142</ele>
        <time>2021-03-07T11:42:54.746Z</time>
      </trkpt>
      <trkpt lat="48.53841" lon="2.12775">
        <ele>142</ele>
        <time>2021-03-07T11:42:55.745Z</time>
      </trkpt>
      <trkpt lat="48.53842" lon="2.12776">
        <ele>142</ele>
        <time>2021-03-07T11:42:56.745Z</time>
      </trkpt>
      <trkpt lat="48.53842" lon="2.12778">
        <ele>142</ele>
        <time>2021-03-07T11:42:57.745Z</time>
      </trkpt>
      <trkpt lat="48.53843" lon="2.12781">
        <ele>142</ele>
        <time>2021-03-07T11:42:58.745Z</time>
      </trkpt>
      <trkpt lat="48.53844" lon="2.12784">
        <ele>141</ele>
        <time>2021-03-07T11:42:59.746Z</time>
      </trkpt>
      <trkpt lat="48.53844" lon="2.12786">
        <ele>142</ele>
        <time>2021-03-07T11:43:00.745Z</time>
      </trkpt>
      <trkpt lat="48.53845" lon="2.12788">
        <ele>142</ele>
        <time>2021-03-07T11:43:01.745Z</time>
      </trkpt>
      <trkpt lat="48.53846" lon="2.1279">
        <ele>142</ele>
        <time>2021-03-07T11:43:02.745Z</time>
      </trkpt>
      <trkpt lat="48.53846" lon="2.12791">
        <ele>142</ele>
        <time>2021-03-07T11:43:03.745Z</time>
      </trkpt>
      <trkpt lat="48.53847" lon="2.12793">
        <ele>142</ele>
        <time>2021-03-07T11:43:04.745Z</time>
      </trkpt>
      <trkpt lat="48.53848" lon="2.12795">
        <ele>142</ele>
        <time>2021-03-07T11:43:05.745Z</time>
      </trkpt>
      <trkpt lat="48.53849" lon="2.12797">
        <ele>142</ele>
        <time>2021-03-07T11:43:06.745Z</time>
      </trkpt>
      <trkpt lat="48.53849" lon="2.12798">
        <ele>142</ele>
        <time>2021-03-07T11:43:07.745Z</time>
      </trkpt>
      <trkpt lat="48.5385" lon="2.128">
        <ele>142</ele>
        <time>2021-03-07T11:43:08.745Z</time>
      </trkpt>
      <trkpt lat="48.5385" lon="2.12802">
        <ele>142</ele>
        <time>2021-03-07T11:43:09.745Z</time>
      </trkpt>
      <trkpt lat="48.53851" lon="2.12803">
        <ele>142</ele>
        <time>2021-03-07T11:43:10.745Z</time>
      </trkpt>
      <trkpt lat="48.53852" lon="2.12805">
        <ele>143</ele>
        <time>2021-03-07T11:43:11.745Z</time>
      </trkpt>
      <trkpt lat="48.53852" lon="2.12806">
        <ele>143</ele>
        <time>2021-03-07T11:43:12.745Z</time>
      </trkpt>
      <trkpt lat="48.53852" lon="2.12808">
        <ele>144</ele>
        <time>2021-03-07T11:43:13.746Z</time>
      </trkpt>
      <trkpt lat="48.53853" lon="2.1281">
        <ele>144</ele>
        <time>2021-03-07T11:43:14.746Z</time>
      </trkpt>
      <trkpt lat="48.53853" lon="2.12812">
        <ele>145</ele>
        <time>2021-03-07T11:43:15.746Z</time>
      </trkpt>
      <trkpt lat="48.53853" lon="2.12813">
        <ele>145</ele>
        <time>2021-03-07T11:43:16.745Z</time>
      </trkpt>
      <trkpt lat="48.53854" lon="2.12814">
        <ele>146</ele>
        <time>2021-03-07T11:43:17.745Z</time>
      </trkpt>
      <trkpt lat="48.53855" lon="2.12816">
        <ele>146</ele>
        <time>2021-03-07T11:43:18.746Z</time>
      </trkpt>
      <trkpt lat="48.53855" lon="2.12818">
        <ele>147</ele>
        <time>2021-03-07T11:43:19.745Z</time>
      </trkpt>
      <trkpt lat="48.53856" lon="2.12819">
        <ele>147</ele>
        <time>2021-03-07T11:43:20.745Z</time>
      </trkpt>
      <trkpt lat="48.53856" lon="2.12821">
        <ele>147</ele>
        <time>2021-03-07T11:43:21.746Z</time>
      </trkpt>
      <trkpt lat="48.53857" lon="2.12822">
        <ele>148</ele>
        <time>2021-03-07T11:43:22.745Z</time>
      </trkpt>
      <trkpt lat="48.53857" lon="2.12822">
        <ele>149</ele>
        <time>2021-03-07T11:43:23.745Z</time>
      </trkpt>
      <trkpt lat="48.53858" lon="2.12823">
        <ele>149</ele>
        <time>2021-03-07T11:43:24.746Z</time>
      </trkpt>
      <trkpt lat="48.53858" lon="2.12824">
        <ele>150</ele>
        <time>2021-03-07T11:43:25.746Z</time>
      </trkpt>
      <trkpt lat="48.53859" lon="2.12826">
        <ele>150</ele>
        <time>2021-03-07T11:43:26.746Z</time>
      </trkpt>
      <trkpt lat="48.53859" lon="2.12828">
        <ele>150</ele>
        <time>2021-03-07T11:43:27.746Z</time>
      </trkpt>
      <trkpt lat="48.5386" lon="2.1283">
        <ele>151</ele>
        <time>2021-03-07T11:43:28.745Z</time>
      </trkpt>
      <trkpt lat="48.53859" lon="2.12832">
        <ele>151</ele>
        <time>2021-03-07T11:43:29.745Z</time>
      </trkpt>
      <trkpt lat="48.53859" lon="2.12833">
        <ele>151</ele>
        <time>2021-03-07T11:43:30.745Z</time>
      </trkpt>
      <trkpt lat="48.53858" lon="2.12835">
        <ele>151</ele>
        <time>2021-03-07T11:43:31.745Z</time>
      </trkpt>
      <trkpt lat="48.53858" lon="2.12837">
        <ele>151</ele>
        <time>2021-03-07T11:43:32.745Z</time>
      </trkpt>
      <trkpt lat="48.53859" lon="2.12839">
        <ele>151</ele>
        <time>2021-03-07T11:43:33.745Z</time>
      </trkpt>
      <trkpt lat="48.53859" lon="2.12841">
        <ele>151</ele>
        <time>2021-03-07T11:43:34.745Z</time>
      </trkpt>
      <trkpt lat="48.53859" lon="2.12843">
        <ele>151</ele>
        <time>2021-03-07T11:43:35.746Z</time>
      </trkpt>
      <trkpt lat="48.53858" lon="2.12845">
        <ele>151</ele>
        <time>2021-03-07T11:43:36.745Z</time>
      </trkpt>
      <trkpt lat="48.53858" lon="2.12847">
        <ele>151</ele>
        <time>2021-03-07T11:43:37.745Z</time>
      </trkpt>
      <trkpt lat="48.53858" lon="2.12849">
        <ele>151</ele>
        <time>2021-03-07T11:43:38.745Z</time>
      </trkpt>
      <trkpt lat="48.53858" lon="2.1285">
        <ele>151</ele>
        <time>2021-03-07T11:43:39.745Z</time>
      </trkpt>
      <trkpt lat="48.53858" lon="2.12852">
        <ele>151</ele>
        <time>2021-03-07T11:43:40.745Z</time>
      </trkpt>
      <trkpt lat="48.53858" lon="2.12853">
        <ele>151</ele>
        <time>2021-03-07T11:43:41.745Z</time>
      </trkpt>
      <trkpt lat="48.53858" lon="2.12854">
        <ele>151</ele>
        <time>2021-03-07T11:43:42.746Z</time>
      </trkpt>
      <trkpt lat="48.53858" lon="2.12857">
        <ele>151</ele>
        <time>2021-03-07T11:43:43.746Z</time>
      </trkpt>
      <trkpt lat="48.53857" lon="2.1286">
        <ele>150</ele>
        <time>2021-03-07T11:43:44.746Z</time>
      </trkpt>
      <trkpt lat="48.53857" lon="2.12863">
        <ele>150</ele>
        <time>2021-03-07T11:43:45.746Z</time>
      </trkpt>
      <trkpt lat="48.53858" lon="2.12865">
        <ele>150</ele>
        <time>2021-03-07T11:43:46.746Z</time>
      </trkpt>
      <trkpt lat="48.53858" lon="2.12867">
        <ele>150</ele>
        <time>2021-03-07T11:43:47.746Z</time>
      </trkpt>
      <trkpt lat="48.53858" lon="2.12868">
        <ele>150</ele>
        <time>2021-03-07T11:43:48.746Z</time>
      </trkpt>
      <trkpt lat="48.53857" lon="2.1287">
        <ele>150</ele>
        <time>2021-03-07T11:43:49.745Z</time>
      </trkpt>
      <trkpt lat="48.53856" lon="2.12872">
        <ele>150</ele>
        <time>2021-03-07T11:43:50.745Z</time>
      </trkpt>
      <trkpt lat="48.53856" lon="2.12874">
        <ele>150</ele>
        <time>2021-03-07T11:43:51.745Z</time>
      </trkpt>
      <trkpt lat="48.53856" lon="2.12876">
        <ele>150</ele>
        <time>2021-03-07T11:43:52.745Z</time>
      </trkpt>
      <trkpt lat="48.53856" lon="2.12879">
        <ele>150</ele>
        <time>2021-03-07T11:43:53.745Z</time>
      </trkpt>
      <trkpt lat="48.53857" lon="2.12882">
        <ele>151</ele>
        <time>2021-03-07T11:43:54.745Z</time>
      </trkpt>
      <trkpt lat="48.53857" lon="2.12884">
        <ele>151</ele>
        <time>2021-03-07T11:43:55.745Z</time>
      </trkpt>
      <trkpt lat="48.53857" lon="2.12887">
        <ele>151</ele>
        <time>2021-03-07T11:43:56.745Z</time>
      </trkpt>
      <trkpt lat="48.53856" lon="2.12889">
        <ele>151</ele>
        <time>2021-03-07T11:43:57.746Z</time>
      </trkpt>
      <trkpt lat="48.53856" lon="2.12891">
        <ele>152</ele>
        <time>2021-03-07T11:43:58.745Z</time>
      </trkpt>
      <trkpt lat="48.53856" lon="2.12892">
        <ele>152</ele>
        <time>2021-03-07T11:43:59.745Z</time>
      </trkpt>
      <trkpt lat="48.53856" lon="2.12893">
        <ele>152</ele>
        <time>2021-03-07T11:44:00.745Z</time>
      </trkpt>
      <trkpt lat="48.53856" lon="2.12894">
        <ele>152</ele>
        <time>2021-03-07T11:44:01.745Z</time>
      </trkpt>
      <trkpt lat="48.53856" lon="2.12896">
        <ele>152</ele>
        <time>2021-03-07T11:44:02.745Z</time>
      </trkpt>
      <trkpt lat="48.53856" lon="2.12898">
        <ele>151</ele>
        <time>2021-03-07T11:44:03.745Z</time>
      </trkpt>
      <trkpt lat="48.53856" lon="2.129">
        <ele>151</ele>
        <time>2021-03-07T11:44:04.745Z</time>
      </trkpt>
      <trkpt lat="48.53857" lon="2.12902">
        <ele>151</ele>
        <time>2021-03-07T11:44:05.745Z</time>
      </trkpt>
      <trkpt lat="48.53857" lon="2.12905">
        <ele>151</ele>
        <time>2021-03-07T11:44:06.745Z</time>
      </trkpt>
      <trkpt lat="48.53856" lon="2.12907">
        <ele>151</ele>
        <time>2021-03-07T11:44:07.746Z</time>
      </trkpt>
      <trkpt lat="48.53856" lon="2.12909">
        <ele>151</ele>
        <time>2021-03-07T11:44:08.746Z</time>
      </trkpt>
      <trkpt lat="48.53855" lon="2.12911">
        <ele>151</ele>
        <time>2021-03-07T11:44:09.746Z</time>
      </trkpt>
      <trkpt lat="48.53855" lon="2.12912">
        <ele>151</ele>
        <time>2021-03-07T11:44:10.746Z</time>
      </trkpt>
      <trkpt lat="48.53855" lon="2.12914">
        <ele>151</ele>
        <time>2021-03-07T11:44:11.746Z</time>
      </trkpt>
      <trkpt lat="48.53854" lon="2.12916">
        <ele>151</ele>
        <time>2021-03-07T11:44:12.745Z</time>
      </trkpt>
      <trkpt lat="48.53854" lon="2.12918">
        <ele>151</ele>
        <time>2021-03-07T11:44:13.745Z</time>
      </trkpt>
      <trkpt lat="48.53854" lon="2.1292">
        <ele>150</ele>
        <time>2021-03-07T11:44:14.745Z</time>
      </trkpt>
      <trkpt lat="48.53854" lon="2.12922">
        <ele>150</ele>
        <time>2021-03-07T11:44:15.746Z</time>
      </trkpt>
      <trkpt lat="48.53853" lon="2.12924">
        <ele>150</ele>
        <time>2021-03-07T11:44:16.746Z</time>
      </trkpt>
      <trkpt lat="48.53853" lon="2.12926">
        <ele>151</ele>
        <time>2021-03-07T11:44:17.745Z</time>
      </trkpt>
      <trkpt lat="48.53853" lon="2.12928">
        <ele>151</ele>
        <time>2021-03-07T11:44:18.745Z</time>
      </trkpt>
      <trkpt lat="48.53852" lon="2.12929">
        <ele>151</ele>
        <time>2021-03-07T11:44:19.745Z</time>
      </trkpt>
      <trkpt lat="48.53853" lon="2.12931">
        <ele>151</ele>
        <time>2021-03-07T11:44:20.745Z</time>
      </trkpt>
      <trkpt lat="48.53853" lon="2.12933">
        <ele>151</ele>
        <time>2021-03-07T11:44:21.745Z</time>
      </trkpt>
      <trkpt lat="48.53853" lon="2.12935">
        <ele>152</ele>
        <time>2021-03-07T11:44:22.746Z</time>
      </trkpt>
      <trkpt lat="48.53853" lon="2.12937">
        <ele>152</ele>
        <time>2021-03-07T11:44:23.746Z</time>
      </trkpt>
      <trkpt lat="48.53853" lon="2.12938">
        <ele>152</ele>
        <time>2021-03-07T11:44:24.746Z</time>
      </trkpt>
      <trkpt lat="48.53853" lon="2.1294">
        <ele>152</ele>
        <time>2021-03-07T11:44:25.745Z</time>
      </trkpt>
      <trkpt lat="48.53853" lon="2.12942">
        <ele>153</ele>
        <time>2021-03-07T11:44:26.745Z</time>
      </trkpt>
      <trkpt lat="48.53852" lon="2.12946">
        <ele>153</ele>
        <time>2021-03-07T11:44:27.746Z</time>
      </trkpt>
      <trkpt lat="48.53852" lon="2.12949">
        <ele>153</ele>
        <time>2021-03-07T11:44:28.746Z</time>
      </trkpt>
      <trkpt lat="48.53851" lon="2.12951">
        <ele>152</ele>
        <time>2021-03-07T11:44:29.746Z</time>
      </trkpt>
      <trkpt lat="48.53851" lon="2.12954">
        <ele>152</ele>
        <time>2021-03-07T11:44:30.745Z</time>
      </trkpt>
      <trkpt lat="48.53851" lon="2.12956">
        <ele>152</ele>
        <time>2021-03-07T11:44:31.745Z</time>
      </trkpt>
      <trkpt lat="48.53851" lon="2.12958">
        <ele>151</ele>
        <time>2021-03-07T11:44:32.745Z</time>
      </trkpt>
      <trkpt lat="48.53851" lon="2.12961">
        <ele>151</ele>
        <time>2021-03-07T11:44:33.745Z</time>
      </trkpt>
      <trkpt lat="48.53851" lon="2.12964">
        <ele>150</ele>
        <time>2021-03-07T11:44:34.745Z</time>
      </trkpt>
      <trkpt lat="48.5385" lon="2.12966">
        <ele>150</ele>
        <time>2021-03-07T11:44:35.746Z</time>
      </trkpt>
      <trkpt lat="48.53849" lon="2.12969">
        <ele>149</ele>
        <time>2021-03-07T11:44:36.745Z</time>
      </trkpt>
      <trkpt lat="48.53849" lon="2.12972">
        <ele>149</ele>
        <time>2021-03-07T11:44:37.746Z</time>
      </trkpt>
      <trkpt lat="48.53849" lon="2.12974">
        <ele>149</ele>
        <time>2021-03-07T11:44:38.746Z</time>
      </trkpt>
      <trkpt lat="48.5385" lon="2.12976">
        <ele>148</ele>
        <time>2021-03-07T11:44:39.746Z</time>
      </trkpt>
      <trkpt lat="48.5385" lon="2.12977">
        <ele>149</ele>
        <time>2021-03-07T11:44:40.746Z</time>
      </trkpt>
      <trkpt lat="48.5385" lon="2.12979">
        <ele>149</ele>
        <time>2021-03-07T11:44:41.745Z</time>
      </trkpt>
      <trkpt lat="48.5385" lon="2.1298">
        <ele>149</ele>
        <time>2021-03-07T11:44:42.745Z</time>
      </trkpt>
      <trkpt lat="48.53849" lon="2.12982">
        <ele>149</ele>
        <time>2021-03-07T11:44:43.745Z</time>
      </trkpt>
      <trkpt lat="48.53849" lon="2.12983">
        <ele>150</ele>
        <time>2021-03-07T11:44:44.745Z</time>
      </trkpt>
      <trkpt lat="48.53849" lon="2.12985">
        <ele>150</ele>
        <time>2021-03-07T11:44:45.745Z</time>
      </trkpt>
      <trkpt lat="48.53849" lon="2.12987">
        <ele>150</ele>
        <time>2021-03-07T11:44:46.746Z</time>
      </trkpt>
      <trkpt lat="48.53849" lon="2.12989">
        <ele>151</ele>
        <time>2021-03-07T11:44:47.746Z</time>
      </trkpt>
      <trkpt lat="48.53849" lon="2.12991">
        <ele>151</ele>
        <time>2021-03-07T11:44:48.745Z</time>
      </trkpt>
      <trkpt lat="48.53849" lon="2.12993">
        <ele>152</ele>
        <time>2021-03-07T11:44:49.745Z</time>
      </trkpt>
      <trkpt lat="48.53849" lon="2.12997">
        <ele>152</ele>
        <time>2021-03-07T11:44:50.745Z</time>
      </trkpt>
      <trkpt lat="48.53848" lon="2.13001">
        <ele>153</ele>
        <time>2021-03-07T11:44:51.745Z</time>
      </trkpt>
      <trkpt lat="48.53849" lon="2.13003">
        <ele>153</ele>
        <time>2021-03-07T11:44:52.745Z</time>
      </trkpt>
      <trkpt lat="48.53849" lon="2.13005">
        <ele>153</ele>
        <time>2021-03-07T11:44:53.745Z</time>
      </trkpt>
      <trkpt lat="48.53848" lon="2.13008">
        <ele>153</ele>
        <time>2021-03-07T11:44:54.745Z</time>
      </trkpt>
      <trkpt lat="48.53848" lon="2.1301">
        <ele>154</ele>
        <time>2021-03-07T11:44:55.745Z</time>
      </trkpt>
      <trkpt lat="48.53848" lon="2.13012">
        <ele>154</ele>
        <time>2021-03-07T11:44:56.745Z</time>
      </trkpt>
      <trkpt lat="48.53847" lon="2.13014">
        <ele>153</ele>
        <time>2021-03-07T11:44:57.745Z</time>
      </trkpt>
      <trkpt lat="48.53847" lon="2.13015">
        <ele>154</ele>
        <time>2021-03-07T11:44:58.745Z</time>
      </trkpt>
      <trkpt lat="48.53848" lon="2.13017">
        <ele>154</ele>
        <time>2021-03-07T11:44:59.745Z</time>
      </trkpt>
      <trkpt lat="48.53848" lon="2.13019">
        <ele>154</ele>
        <time>2021-03-07T11:45:00.746Z</time>
      </trkpt>
      <trkpt lat="48.53848" lon="2.1302">
        <ele>155</ele>
        <time>2021-03-07T11:45:01.746Z</time>
      </trkpt>
      <trkpt lat="48.53848" lon="2.13022">
        <ele>155</ele>
        <time>2021-03-07T11:45:02.745Z</time>
      </trkpt>
      <trkpt lat="48.53848" lon="2.13024">
        <ele>155</ele>
        <time>2021-03-07T11:45:03.745Z</time>
      </trkpt>
      <trkpt lat="48.53848" lon="2.13026">
        <ele>155</ele>
        <time>2021-03-07T11:45:04.745Z</time>
      </trkpt>
      <trkpt lat="48.53848" lon="2.13028">
        <ele>155</ele>
        <time>2021-03-07T11:45:05.745Z</time>
      </trkpt>
      <trkpt lat="48.53848" lon="2.13031">
        <ele>155</ele>
        <time>2021-03-07T11:45:06.746Z</time>
      </trkpt>
      <trkpt lat="48.53847" lon="2.13032">
        <ele>155</ele>
        <time>2021-03-07T11:45:07.745Z</time>
      </trkpt>
      <trkpt lat="48.53847" lon="2.13035">
        <ele>155</ele>
        <time>2021-03-07T11:45:08.745Z</time>
      </trkpt>
      <trkpt lat="48.53847" lon="2.13037">
        <ele>155</ele>
        <time>2021-03-07T11:45:09.745Z</time>
      </trkpt>
      <trkpt lat="48.53847" lon="2.13039">
        <ele>154</ele>
        <time>2021-03-07T11:45:10.746Z</time>
      </trkpt>
      <trkpt lat="48.53847" lon="2.13041">
        <ele>154</ele>
        <time>2021-03-07T11:45:11.745Z</time>
      </trkpt>
      <trkpt lat="48.53846" lon="2.13044">
        <ele>154</ele>
        <time>2021-03-07T11:45:12.746Z</time>
      </trkpt>
      <trkpt lat="48.53846" lon="2.13046">
        <ele>154</ele>
        <time>2021-03-07T11:45:13.746Z</time>
      </trkpt>
      <trkpt lat="48.53845" lon="2.13049">
        <ele>153</ele>
        <time>2021-03-07T11:45:14.745Z</time>
      </trkpt>
      <trkpt lat="48.53845" lon="2.1305">
        <ele>153</ele>
        <time>2021-03-07T11:45:15.745Z</time>
      </trkpt>
      <trkpt lat="48.53845" lon="2.13052">
        <ele>153</ele>
        <time>2021-03-07T11:45:16.745Z</time>
      </trkpt>
      <trkpt lat="48.53845" lon="2.13054">
        <ele>153</ele>
        <time>2021-03-07T11:45:17.745Z</time>
      </trkpt>
      <trkpt lat="48.53845" lon="2.13056">
        <ele>153</ele>
        <time>2021-03-07T11:45:18.745Z</time>
      </trkpt>
      <trkpt lat="48.53844" lon="2.13058">
        <ele>153</ele>
        <time>2021-03-07T11:45:19.746Z</time>
      </trkpt>
      <trkpt lat="48.53843" lon="2.1306">
        <ele>153</ele>
        <time>2021-03-07T11:45:20.745Z</time>
      </trkpt>
      <trkpt lat="48.53843" lon="2.13062">
        <ele>153</ele>
        <time>2021-03-07T11:45:21.745Z</time>
      </trkpt>
      <trkpt lat="48.53844" lon="2.13064">
        <ele>153</ele>
        <time>2021-03-07T11:45:22.746Z</time>
      </trkpt>
      <trkpt lat="48.53844" lon="2.13066">
        <ele>153</ele>
        <time>2021-03-07T11:45:23.746Z</time>
      </trkpt>
      <trkpt lat="48.53844" lon="2.13069">
        <ele>152</ele>
        <time>2021-03-07T11:45:24.745Z</time>
      </trkpt>
      <trkpt lat="48.53844" lon="2.13072">
        <ele>152</ele>
        <time>2021-03-07T11:45:25.746Z</time>
      </trkpt>
      <trkpt lat="48.53844" lon="2.13074">
        <ele>152</ele>
        <time>2021-03-07T11:45:26.745Z</time>
      </trkpt>
      <trkpt lat="48.53844" lon="2.13075">
        <ele>152</ele>
        <time>2021-03-07T11:45:27.746Z</time>
      </trkpt>
      <trkpt lat="48.53844" lon="2.13077">
        <ele>152</ele>
        <time>2021-03-07T11:45:28.746Z</time>
      </trkpt>
      <trkpt lat="48.53843" lon="2.13078">
        <ele>152</ele>
        <time>2021-03-07T11:45:29.746Z</time>
      </trkpt>
      <trkpt lat="48.53843" lon="2.1308">
        <ele>152</ele>
        <time>2021-03-07T11:45:30.746Z</time>
      </trkpt>
      <trkpt lat="48.53843" lon="2.13082">
        <ele>152</ele>
        <time>2021-03-07T11:45:31.745Z</time>
      </trkpt>
      <trkpt lat="48.53845" lon="2.13084">
        <ele>152</ele>
        <time>2021-03-07T11:45:32.745Z</time>
      </trkpt>
      <trkpt lat="48.53846" lon="2.13086">
        <ele>152</ele>
        <time>2021-03-07T11:45:33.745Z</time>
      </trkpt>
      <trkpt lat="48.53846" lon="2.13088">
        <ele>151</ele>
        <time>2021-03-07T11:45:34.745Z</time>
      </trkpt>
      <trkpt lat="48.53846" lon="2.1309">
        <ele>151</ele>
        <time>2021-03-07T11:45:35.746Z</time>
      </trkpt>
      <trkpt lat="48.53847" lon="2.13093">
        <ele>151</ele>
        <time>2021-03-07T11:45:36.745Z</time>
      </trkpt>
      <trkpt lat="48.53848" lon="2.13094">
        <ele>151</ele>
        <time>2021-03-07T11:45:37.745Z</time>
      </trkpt>
      <trkpt lat="48.53849" lon="2.13096">
        <ele>151</ele>
        <time>2021-03-07T11:45:38.745Z</time>
      </trkpt>
      <trkpt lat="48.5385" lon="2.13098">
        <ele>151</ele>
        <time>2021-03-07T11:45:39.745Z</time>
      </trkpt>
      <trkpt lat="48.5385" lon="2.13099">
        <ele>151</ele>
        <time>2021-03-07T11:45:40.745Z</time>
      </trkpt>
      <trkpt lat="48.53851" lon="2.13101">
        <ele>152</ele>
        <time>2021-03-07T11:45:41.745Z</time>
      </trkpt>
      <trkpt lat="48.53852" lon="2.13103">
        <ele>152</ele>
        <time>2021-03-07T11:45:42.745Z</time>
      </trkpt>
      <trkpt lat="48.53853" lon="2.13104">
        <ele>152</ele>
        <time>2021-03-07T11:45:43.745Z</time>
      </trkpt>
      <trkpt lat="48.53853" lon="2.13107">
        <ele>152</ele>
        <time>2021-03-07T11:45:44.746Z</time>
      </trkpt>
      <trkpt lat="48.53854" lon="2.13109">
        <ele>153</ele>
        <time>2021-03-07T11:45:45.745Z</time>
      </trkpt>
      <trkpt lat="48.53855" lon="2.1311">
        <ele>153</ele>
        <time>2021-03-07T11:45:46.745Z</time>
      </trkpt>
      <trkpt lat="48.53855" lon="2.13112">
        <ele>153</ele>
        <time>2021-03-07T11:45:47.745Z</time>
      </trkpt>
      <trkpt lat="48.53856" lon="2.13114">
        <ele>153</ele>
        <time>2021-03-07T11:45:48.745Z</time>
      </trkpt>
      <trkpt lat="48.53857" lon="2.13116">
        <ele>152</ele>
        <time>2021-03-07T11:45:49.745Z</time>
      </trkpt>
      <trkpt lat="48.53858" lon="2.13119">
        <ele>152</ele>
        <time>2021-03-07T11:45:50.745Z</time>
      </trkpt>
      <trkpt lat="48.53859" lon="2.1312">
        <ele>152</ele>
        <time>2021-03-07T11:45:51.746Z</time>
      </trkpt>
      <trkpt lat="48.53859" lon="2.13123">
        <ele>152</ele>
        <time>2021-03-07T11:45:52.746Z</time>
      </trkpt>
      <trkpt lat="48.5386" lon="2.13125">
        <ele>151</ele>
        <time>2021-03-07T11:45:53.745Z</time>
      </trkpt>
      <trkpt lat="48.53861" lon="2.13127">
        <ele>151</ele>
        <time>2021-03-07T11:45:54.745Z</time>
      </trkpt>
      <trkpt lat="48.53861" lon="2.13129">
        <ele>151</ele>
        <time>2021-03-07T11:45:55.745Z</time>
      </trkpt>
      <trkpt lat="48.53862" lon="2.13131">
        <ele>150</ele>
        <time>2021-03-07T11:45:56.745Z</time>
      </trkpt>
      <trkpt lat="48.53862" lon="2.13133">
        <ele>150</ele>
        <time>2021-03-07T11:45:57.746Z</time>
      </trkpt>
      <trkpt lat="48.53863" lon="2.13135">
        <ele>150</ele>
        <time>2021-03-07T11:45:58.745Z</time>
      </trkpt>
      <trkpt lat="48.53864" lon="2.13137">
        <ele>149</ele>
        <time>2021-03-07T11:45:59.746Z</time>
      </trkpt>
      <trkpt lat="48.53865" lon="2.13139">
        <ele>149</ele>
        <time>2021-03-07T11:46:00.745Z</time>
      </trkpt>
      <trkpt lat="48.53865" lon="2.13141">
        <ele>149</ele>
        <time>2021-03-07T11:46:01.746Z</time>
      </trkpt>
      <trkpt lat="48.53866" lon="2.13142">
        <ele>149</ele>
        <time>2021-03-07T11:46:02.745Z</time>
      </trkpt>
      <trkpt lat="48.53867" lon="2.13144">
        <ele>149</ele>
        <time>2021-03-07T11:46:03.746Z</time>
      </trkpt>
      <trkpt lat="48.53867" lon="2.13146">
        <ele>149</ele>
        <time>2021-03-07T11:46:04.745Z</time>
      </trkpt>
      <trkpt lat="48.53868" lon="2.13148">
        <ele>149</ele>
        <time>2021-03-07T11:46:05.745Z</time>
      </trkpt>
      <trkpt lat="48.53869" lon="2.1315">
        <ele>149</ele>
        <time>2021-03-07T11:46:06.745Z</time>
      </trkpt>
      <trkpt lat="48.53869" lon="2.13152">
        <ele>149</ele>
        <time>2021-03-07T11:46:07.746Z</time>
      </trkpt>
      <trkpt lat="48.5387" lon="2.13154">
        <ele>149</ele>
        <time>2021-03-07T11:46:08.745Z</time>
      </trkpt>
      <trkpt lat="48.5387" lon="2.13156">
        <ele>149</ele>
        <time>2021-03-07T11:46:09.746Z</time>
      </trkpt>
      <trkpt lat="48.53871" lon="2.13157">
        <ele>149</ele>
        <time>2021-03-07T11:46:10.745Z</time>
      </trkpt>
      <trkpt lat="48.53871" lon="2.1316">
        <ele>148</ele>
        <time>2021-03-07T11:46:11.745Z</time>
      </trkpt>
      <trkpt lat="48.53872" lon="2.13161">
        <ele>148</ele>
        <time>2021-03-07T11:46:12.745Z</time>
      </trkpt>
      <trkpt lat="48.53873" lon="2.13163">
        <ele>148</ele>
        <time>2021-03-07T11:46:13.745Z</time>
      </trkpt>
      <trkpt lat="48.53874" lon="2.13165">
        <ele>148</ele>
        <time>2021-03-07T11:46:14.746Z</time>
      </trkpt>
      <trkpt lat="48.53875" lon="2.13167">
        <ele>148</ele>
        <time>2021-03-07T11:46:15.746Z</time>
      </trkpt>
      <trkpt lat="48.53877" lon="2.13169">
        <ele>148</ele>
        <time>2021-03-07T11:46:16.745Z</time>
      </trkpt>
      <trkpt lat="48.53878" lon="2.13171">
        <ele>147</ele>
        <time>2021-03-07T11:46:17.746Z</time>
      </trkpt>
      <trkpt lat="48.53878" lon="2.13173">
        <ele>147</ele>
        <time>2021-03-07T11:46:18.745Z</time>
      </trkpt>
      <trkpt lat="48.53878" lon="2.13175">
        <ele>147</ele>
        <time>2021-03-07T11:46:19.745Z</time>
      </trkpt>
      <trkpt lat="48.53879" lon="2.13177">
        <ele>147</ele>
        <time>2021-03-07T11:46:20.745Z</time>
      </trkpt>
      <trkpt lat="48.5388" lon="2.13179">
        <ele>147</ele>
        <time>2021-03-07T11:46:21.745Z</time>
      </trkpt>
      <trkpt lat="48.53881" lon="2.13181">
        <ele>147</ele>
        <time>2021-03-07T11:46:22.746Z</time>
      </trkpt>
      <trkpt lat="48.53882" lon="2.13183">
        <ele>148</ele>
        <time>2021-03-07T11:46:23.745Z</time>
      </trkpt>
      <trkpt lat="48.53882" lon="2.13185">
        <ele>148</ele>
        <time>2021-03-07T11:46:24.746Z</time>
      </trkpt>
      <trkpt lat="48.53883" lon="2.13187">
        <ele>148</ele>
        <time>2021-03-07T11:46:25.745Z</time>
      </trkpt>
      <trkpt lat="48.53884" lon="2.13188">
        <ele>148</ele>
        <time>2021-03-07T11:46:26.745Z</time>
      </trkpt>
      <trkpt lat="48.53884" lon="2.1319">
        <ele>148</ele>
        <time>2021-03-07T11:46:27.745Z</time>
      </trkpt>
      <trkpt lat="48.53885" lon="2.13192">
        <ele>148</ele>
        <time>2021-03-07T11:46:28.745Z</time>
      </trkpt>
      <trkpt lat="48.53886" lon="2.13194">
        <ele>148</ele>
        <time>2021-03-07T11:46:29.746Z</time>
      </trkpt>
      <trkpt lat="48.53886" lon="2.13196">
        <ele>147</ele>
        <time>2021-03-07T11:46:30.745Z</time>
      </trkpt>
      <trkpt lat="48.53887" lon="2.13198">
        <ele>147</ele>
        <time>2021-03-07T11:46:31.745Z</time>
      </trkpt>
      <trkpt lat="48.53888" lon="2.13199">
        <ele>147</ele>
        <time>2021-03-07T11:46:32.745Z</time>
      </trkpt>
      <trkpt lat="48.53889" lon="2.13202">
        <ele>147</ele>
        <time>2021-03-07T11:46:33.746Z</time>
      </trkpt>
      <trkpt lat="48.53889" lon="2.13203">
        <ele>147</ele>
        <time>2021-03-07T11:46:34.745Z</time>
      </trkpt>
      <trkpt lat="48.53889" lon="2.13205">
        <ele>146</ele>
        <time>2021-03-07T11:46:35.745Z</time>
      </trkpt>
      <trkpt lat="48.5389" lon="2.13207">
        <ele>146</ele>
        <time>2021-03-07T11:46:36.745Z</time>
      </trkpt>
      <trkpt lat="48.53891" lon="2.13209">
        <ele>146</ele>
        <time>2021-03-07T11:46:37.745Z</time>
      </trkpt>
      <trkpt lat="48.53892" lon="2.1321">
        <ele>146</ele>
        <time>2021-03-07T11:46:38.746Z</time>
      </trkpt>
      <trkpt lat="48.53892" lon="2.13212">
        <ele>146</ele>
        <time>2021-03-07T11:46:39.745Z</time>
      </trkpt>
      <trkpt lat="48.53892" lon="2.13213">
        <ele>146</ele>
        <time>2021-03-07T11:46:40.746Z</time>
      </trkpt>
      <trkpt lat="48.53893" lon="2.13215">
        <ele>146</ele>
        <time>2021-03-07T11:46:41.745Z</time>
      </trkpt>
      <trkpt lat="48.53893" lon="2.13217">
        <ele>146</ele>
        <time>2021-03-07T11:46:42.746Z</time>
      </trkpt>
      <trkpt lat="48.53894" lon="2.13218">
        <ele>146</ele>
        <time>2021-03-07T11:46:43.745Z</time>
      </trkpt>
      <trkpt lat="48.53894" lon="2.1322">
        <ele>146</ele>
        <time>2021-03-07T11:46:44.745Z</time>
      </trkpt>
      <trkpt lat="48.53895" lon="2.13221">
        <ele>146</ele>
        <time>2021-03-07T11:46:45.745Z</time>
      </trkpt>
      <trkpt lat="48.53896" lon="2.13224">
        <ele>146</ele>
        <time>2021-03-07T11:46:46.745Z</time>
      </trkpt>
      <trkpt lat="48.53897" lon="2.13226">
        <ele>145</ele>
        <time>2021-03-07T11:46:47.745Z</time>
      </trkpt>
      <trkpt lat="48.53897" lon="2.13227">
        <ele>145</ele>
        <time>2021-03-07T11:46:48.745Z</time>
      </trkpt>
      <trkpt lat="48.53898" lon="2.13229">
        <ele>145</ele>
        <time>2021-03-07T11:46:49.745Z</time>
      </trkpt>
      <trkpt lat="48.53899" lon="2.13231">
        <ele>145</ele>
        <time>2021-03-07T11:46:50.745Z</time>
      </trkpt>
      <trkpt lat="48.53899" lon="2.13232">
        <ele>145</ele>
        <time>2021-03-07T11:46:51.745Z</time>
      </trkpt>
      <trkpt lat="48.539" lon="2.13235">
        <ele>145</ele>
        <time>2021-03-07T11:46:52.745Z</time>
      </trkpt>
      <trkpt lat="48.539" lon="2.13236">
        <ele>145</ele>
        <time>2021-03-07T11:46:53.745Z</time>
      </trkpt>
      <trkpt lat="48.53901" lon="2.13238">
        <ele>145</ele>
        <time>2021-03-07T11:46:54.745Z</time>
      </trkpt>
      <trkpt lat="48.53902" lon="2.13239">
        <ele>145</ele>
        <time>2021-03-07T11:46:55.746Z</time>
      </trkpt>
      <trkpt lat="48.53903" lon="2.13241">
        <ele>145</ele>
        <time>2021-03-07T11:46:56.746Z</time>
      </trkpt>
      <trkpt lat="48.53903" lon="2.13243">
        <ele>145</ele>
        <time>2021-03-07T11:46:57.745Z</time>
      </trkpt>
      <trkpt lat="48.53904" lon="2.13245">
        <ele>145</ele>
        <time>2021-03-07T11:46:58.746Z</time>
      </trkpt>
      <trkpt lat="48.53904" lon="2.13246">
        <ele>145</ele>
        <time>2021-03-07T11:46:59.745Z</time>
      </trkpt>
      <trkpt lat="48.53905" lon="2.13248">
        <ele>145</ele>
        <time>2021-03-07T11:47:00.746Z</time>
      </trkpt>
      <trkpt lat="48.53906" lon="2.1325">
        <ele>145</ele>
        <time>2021-03-07T11:47:01.745Z</time>
      </trkpt>
      <trkpt lat="48.53906" lon="2.13252">
        <ele>146</ele>
        <time>2021-03-07T11:47:02.745Z</time>
      </trkpt>
      <trkpt lat="48.53907" lon="2.13253">
        <ele>146</ele>
        <time>2021-03-07T11:47:03.745Z</time>
      </trkpt>
      <trkpt lat="48.53907" lon="2.13255">
        <ele>147</ele>
        <time>2021-03-07T11:47:04.745Z</time>
      </trkpt>
      <trkpt lat="48.53908" lon="2.13256">
        <ele>147</ele>
        <time>2021-03-07T11:47:05.745Z</time>
      </trkpt>
      <trkpt lat="48.53909" lon="2.13258">
        <ele>147</ele>
        <time>2021-03-07T11:47:06.745Z</time>
      </trkpt>
      <trkpt lat="48.53909" lon="2.1326">
        <ele>148</ele>
        <time>2021-03-07T11:47:07.745Z</time>
      </trkpt>
      <trkpt lat="48.5391" lon="2.13262">
        <ele>148</ele>
        <time>2021-03-07T11:47:08.745Z</time>
      </trkpt>
      <trkpt lat="48.5391" lon="2.13263">
        <ele>149</ele>
        <time>2021-03-07T11:47:09.745Z</time>
      </trkpt>
      <trkpt lat="48.53911" lon="2.13265">
        <ele>150</ele>
        <time>2021-03-07T11:47:10.745Z</time>
      </trkpt>
      <trkpt lat="48.53912" lon="2.13267">
        <ele>150</ele>
        <time>2021-03-07T11:47:11.745Z</time>
      </trkpt>
      <trkpt lat="48.53913" lon="2.13269">
        <ele>151</ele>
        <time>2021-03-07T11:47:12.745Z</time>
      </trkpt>
      <trkpt lat="48.53913" lon="2.13271">
        <ele>152</ele>
        <time>2021-03-07T11:47:13.745Z</time>
      </trkpt>
      <trkpt lat="48.53914" lon="2.13273">
        <ele>152</ele>
        <time>2021-03-07T11:47:14.745Z</time>
      </trkpt>
      <trkpt lat="48.53914" lon="2.13274">
        <ele>152</ele>
        <time>2021-03-07T11:47:15.746Z</time>
      </trkpt>
      <trkpt lat="48.53915" lon="2.13276">
        <ele>153</ele>
        <time>2021-03-07T11:47:16.745Z</time>
      </trkpt>
      <trkpt lat="48.53915" lon="2.13278">
        <ele>153</ele>
        <time>2021-03-07T11:47:17.746Z</time>
      </trkpt>
      <trkpt lat="48.53916" lon="2.1328">
        <ele>154</ele>
        <time>2021-03-07T11:47:18.745Z</time>
      </trkpt>
      <trkpt lat="48.53917" lon="2.13282">
        <ele>154</ele>
        <time>2021-03-07T11:47:19.746Z</time>
      </trkpt>
      <trkpt lat="48.53918" lon="2.13284">
        <ele>154</ele>
        <time>2021-03-07T11:47:20.746Z</time>
      </trkpt>
      <trkpt lat="48.53919" lon="2.13286">
        <ele>155</ele>
        <time>2021-03-07T11:47:21.745Z</time>
      </trkpt>
      <trkpt lat="48.53919" lon="2.13288">
        <ele>155</ele>
        <time>2021-03-07T11:47:22.745Z</time>
      </trkpt>
      <trkpt lat="48.5392" lon="2.13289">
        <ele>155</ele>
        <time>2021-03-07T11:47:23.745Z</time>
      </trkpt>
      <trkpt lat="48.5392" lon="2.13291">
        <ele>155</ele>
        <time>2021-03-07T11:47:24.745Z</time>
      </trkpt>
      <trkpt lat="48.5392" lon="2.13294">
        <ele>155</ele>
        <time>2021-03-07T11:47:25.745Z</time>
      </trkpt>
      <trkpt lat="48.53921" lon="2.13296">
        <ele>154</ele>
        <time>2021-03-07T11:47:26.745Z</time>
      </trkpt>
      <trkpt lat="48.53921" lon="2.13297">
        <ele>154</ele>
        <time>2021-03-07T11:47:27.746Z</time>
      </trkpt>
      <trkpt lat="48.53921" lon="2.13299">
        <ele>153</ele>
        <time>2021-03-07T11:47:28.745Z</time>
      </trkpt>
      <trkpt lat="48.53921" lon="2.13301">
        <ele>153</ele>
        <time>2021-03-07T11:47:29.745Z</time>
      </trkpt>
      <trkpt lat="48.53921" lon="2.13303">
        <ele>152</ele>
        <time>2021-03-07T11:47:30.745Z</time>
      </trkpt>
      <trkpt lat="48.53921" lon="2.13305">
        <ele>152</ele>
        <time>2021-03-07T11:47:31.745Z</time>
      </trkpt>
      <trkpt lat="48.53922" lon="2.13307">
        <ele>152</ele>
        <time>2021-03-07T11:47:32.746Z</time>
      </trkpt>
      <trkpt lat="48.53922" lon="2.13309">
        <ele>151</ele>
        <time>2021-03-07T11:47:33.745Z</time>
      </trkpt>
      <trkpt lat="48.53922" lon="2.13311">
        <ele>151</ele>
        <time>2021-03-07T11:47:34.746Z</time>
      </trkpt>
      <trkpt lat="48.53922" lon="2.13313">
        <ele>150</ele>
        <time>2021-03-07T11:47:35.745Z</time>
      </trkpt>
      <trkpt lat="48.53922" lon="2.13316">
        <ele>150</ele>
        <time>2021-03-07T11:47:36.746Z</time>
      </trkpt>
      <trkpt lat="48.53923" lon="2.13318">
        <ele>150</ele>
        <time>2021-03-07T11:47:37.745Z</time>
      </trkpt>
      <trkpt lat="48.53923" lon="2.1332">
        <ele>150</ele>
        <time>2021-03-07T11:47:38.746Z</time>
      </trkpt>
      <trkpt lat="48.53923" lon="2.13322">
        <ele>150</ele>
        <time>2021-03-07T11:47:39.745Z</time>
      </trkpt>
      <trkpt lat="48.53923" lon="2.13324">
        <ele>149</ele>
        <time>2021-03-07T11:47:40.745Z</time>
      </trkpt>
      <trkpt lat="48.53923" lon="2.13326">
        <ele>149</ele>
        <time>2021-03-07T11:47:41.745Z</time>
      </trkpt>
      <trkpt lat="48.53922" lon="2.13329">
        <ele>148</ele>
        <time>2021-03-07T11:47:42.745Z</time>
      </trkpt>
      <trkpt lat="48.53922" lon="2.1333">
        <ele>147</ele>
        <time>2021-03-07T11:47:43.745Z</time>
      </trkpt>
      <trkpt lat="48.53922" lon="2.13332">
        <ele>147</ele>
        <time>2021-03-07T11:47:44.746Z</time>
      </trkpt>
      <trkpt lat="48.53922" lon="2.13335">
        <ele>146</ele>
        <time>2021-03-07T11:47:45.745Z</time>
      </trkpt>
      <trkpt lat="48.53923" lon="2.13337">
        <ele>146</ele>
        <time>2021-03-07T11:47:46.746Z</time>
      </trkpt>
      <trkpt lat="48.53923" lon="2.13339">
        <ele>145</ele>
        <time>2021-03-07T11:47:47.746Z</time>
      </trkpt>
      <trkpt lat="48.53923" lon="2.13342">
        <ele>145</ele>
        <time>2021-03-07T11:47:48.745Z</time>
      </trkpt>
      <trkpt lat="48.53923" lon="2.13344">
        <ele>145</ele>
        <time>2021-03-07T11:47:49.746Z</time>
      </trkpt>
      <trkpt lat="48.53924" lon="2.13346">
        <ele>145</ele>
        <time>2021-03-07T11:47:50.745Z</time>
      </trkpt>
      <trkpt lat="48.53925" lon="2.13348">
        <ele>145</ele>
        <time>2021-03-07T11:47:51.746Z</time>
      </trkpt>
      <trkpt lat="48.53925" lon="2.1335">
        <ele>145</ele>
        <time>2021-03-07T11:47:52.745Z</time>
      </trkpt>
      <trkpt lat="48.53925" lon="2.13352">
        <ele>145</ele>
        <time>2021-03-07T11:47:53.745Z</time>
      </trkpt>
      <trkpt lat="48.53926" lon="2.13354">
        <ele>144</ele>
        <time>2021-03-07T11:47:54.745Z</time>
      </trkpt>
      <trkpt lat="48.53926" lon="2.13355">
        <ele>144</ele>
        <time>2021-03-07T11:47:55.745Z</time>
      </trkpt>
      <trkpt lat="48.53927" lon="2.13357">
        <ele>144</ele>
        <time>2021-03-07T11:47:56.745Z</time>
      </trkpt>
      <trkpt lat="48.53928" lon="2.13359">
        <ele>144</ele>
        <time>2021-03-07T11:47:57.745Z</time>
      </trkpt>
      <trkpt lat="48.53929" lon="2.13361">
        <ele>143</ele>
        <time>2021-03-07T11:47:58.745Z</time>
      </trkpt>
      <trkpt lat="48.53929" lon="2.13363">
        <ele>143</ele>
        <time>2021-03-07T11:47:59.745Z</time>
      </trkpt>
      <trkpt lat="48.5393" lon="2.13365">
        <ele>143</ele>
        <time>2021-03-07T11:48:00.745Z</time>
      </trkpt>
      <trkpt lat="48.5393" lon="2.13368">
        <ele>143</ele>
        <time>2021-03-07T11:48:01.745Z</time>
      </trkpt>
      <trkpt lat="48.53931" lon="2.1337">
        <ele>143</ele>
        <time>2021-03-07T11:48:02.745Z</time>
      </trkpt>
      <trkpt lat="48.53931" lon="2.13373">
        <ele>144</ele>
        <time>2021-03-07T11:48:03.745Z</time>
      </trkpt>
      <trkpt lat="48.53932" lon="2.13376">
        <ele>144</ele>
        <time>2021-03-07T11:48:04.745Z</time>
      </trkpt>
      <trkpt lat="48.53932" lon="2.13378">
        <ele>144</ele>
        <time>2021-03-07T11:48:05.746Z</time>
      </trkpt>
      <trkpt lat="48.53933" lon="2.1338">
        <ele>144</ele>
        <time>2021-03-07T11:48:06.745Z</time>
      </trkpt>
      <trkpt lat="48.53933" lon="2.13382">
        <ele>144</ele>
        <time>2021-03-07T11:48:07.745Z</time>
      </trkpt>
      <trkpt lat="48.53933" lon="2.13383">
        <ele>144</ele>
        <time>2021-03-07T11:48:08.746Z</time>
      </trkpt>
      <trkpt lat="48.53934" lon="2.13386">
        <ele>144</ele>
        <time>2021-03-07T11:48:09.745Z</time>
      </trkpt>
      <trkpt lat="48.53934" lon="2.13388">
        <ele>145</ele>
        <time>2021-03-07T11:48:10.745Z</time>
      </trkpt>
      <trkpt lat="48.53935" lon="2.1339">
        <ele>145</ele>
        <time>2021-03-07T11:48:11.745Z</time>
      </trkpt>
      <trkpt lat="48.53936" lon="2.13392">
        <ele>145</ele>
        <time>2021-03-07T11:48:12.745Z</time>
      </trkpt>
      <trkpt lat="48.53937" lon="2.13394">
        <ele>145</ele>
        <time>2021-03-07T11:48:13.745Z</time>
      </trkpt>
      <trkpt lat="48.53937" lon="2.13397">
        <ele>146</ele>
        <time>2021-03-07T11:48:14.746Z</time>
      </trkpt>
      <trkpt lat="48.53938" lon="2.13399">
        <ele>146</ele>
        <time>2021-03-07T11:48:15.745Z</time>
      </trkpt>
      <trkpt lat="48.53939" lon="2.13401">
        <ele>146</ele>
        <time>2021-03-07T11:48:16.746Z</time>
      </trkpt>
      <trkpt lat="48.53939" lon="2.13402">
        <ele>147</ele>
        <time>2021-03-07T11:48:17.745Z</time>
      </trkpt>
      <trkpt lat="48.5394" lon="2.13405">
        <ele>147</ele>
        <time>2021-03-07T11:48:18.746Z</time>
      </trkpt>
      <trkpt lat="48.53941" lon="2.13407">
        <ele>147</ele>
        <time>2021-03-07T11:48:19.745Z</time>
      </trkpt>
      <trkpt lat="48.53941" lon="2.13409">
        <ele>147</ele>
        <time>2021-03-07T11:48:20.746Z</time>
      </trkpt>
      <trkpt lat="48.53941" lon="2.13411">
        <ele>146</ele>
        <time>2021-03-07T11:48:21.745Z</time>
      </trkpt>
      <trkpt lat="48.53942" lon="2.13413">
        <ele>146</ele>
        <time>2021-03-07T11:48:22.746Z</time>
      </trkpt>
      <trkpt lat="48.53942" lon="2.13415">
        <ele>146</ele>
        <time>2021-03-07T11:48:23.745Z</time>
      </trkpt>
      <trkpt lat="48.53944" lon="2.13418">
        <ele>146</ele>
        <time>2021-03-07T11:48:24.746Z</time>
      </trkpt>
      <trkpt lat="48.53945" lon="2.13421">
        <ele>147</ele>
        <time>2021-03-07T11:48:25.746Z</time>
      </trkpt>
      <trkpt lat="48.53946" lon="2.13423">
        <ele>147</ele>
        <time>2021-03-07T11:48:26.746Z</time>
      </trkpt>
      <trkpt lat="48.53947" lon="2.13425">
        <ele>148</ele>
        <time>2021-03-07T11:48:27.745Z</time>
      </trkpt>
      <trkpt lat="48.53947" lon="2.13427">
        <ele>148</ele>
        <time>2021-03-07T11:48:28.746Z</time>
      </trkpt>
      <trkpt lat="48.53947" lon="2.13429">
        <ele>148</ele>
        <time>2021-03-07T11:48:29.745Z</time>
      </trkpt>
      <trkpt lat="48.53948" lon="2.13431">
        <ele>148</ele>
        <time>2021-03-07T11:48:30.746Z</time>
      </trkpt>
      <trkpt lat="48.53948" lon="2.13433">
        <ele>148</ele>
        <time>2021-03-07T11:48:31.745Z</time>
      </trkpt>
      <trkpt lat="48.53949" lon="2.13435">
        <ele>147</ele>
        <time>2021-03-07T11:48:32.745Z</time>
      </trkpt>
      <trkpt lat="48.5395" lon="2.13437">
        <ele>148</ele>
        <time>2021-03-07T11:48:33.745Z</time>
      </trkpt>
      <trkpt lat="48.5395" lon="2.13439">
        <ele>148</ele>
        <time>2021-03-07T11:48:34.746Z</time>
      </trkpt>
      <trkpt lat="48.53951" lon="2.13442">
        <ele>148</ele>
        <time>2021-03-07T11:48:35.745Z</time>
      </trkpt>
      <trkpt lat="48.53951" lon="2.13443">
        <ele>149</ele>
        <time>2021-03-07T11:48:36.746Z</time>
      </trkpt>
      <trkpt lat="48.53952" lon="2.13445">
        <ele>149</ele>
        <time>2021-03-07T11:48:37.745Z</time>
      </trkpt>
      <trkpt lat="48.53953" lon="2.13448">
        <ele>149</ele>
        <time>2021-03-07T11:48:38.746Z</time>
      </trkpt>
      <trkpt lat="48.53954" lon="2.1345">
        <ele>149</ele>
        <time>2021-03-07T11:48:39.745Z</time>
      </trkpt>
      <trkpt lat="48.53954" lon="2.13452">
        <ele>150</ele>
        <time>2021-03-07T11:48:40.746Z</time>
      </trkpt>
      <trkpt lat="48.53955" lon="2.13454">
        <ele>150</ele>
        <time>2021-03-07T11:48:41.745Z</time>
      </trkpt>
      <trkpt lat="48.53956" lon="2.13456">
        <ele>150</ele>
        <time>2021-03-07T11:48:42.745Z</time>
      </trkpt>
      <trkpt lat="48.53956" lon="2.13458">
        <ele>150</ele>
        <time>2021-03-07T11:48:43.745Z</time>
      </trkpt>
      <trkpt lat="48.53957" lon="2.1346">
        <ele>150</ele>
        <time>2021-03-07T11:48:44.745Z</time>
      </trkpt>
      <trkpt lat="48.53958" lon="2.13462">
        <ele>150</ele>
        <time>2021-03-07T11:48:45.745Z</time>
      </trkpt>
      <trkpt lat="48.53959" lon="2.13464">
        <ele>150</ele>
        <time>2021-03-07T11:48:46.745Z</time>
      </trkpt>
      <trkpt lat="48.53959" lon="2.13466">
        <ele>150</ele>
        <time>2021-03-07T11:48:47.745Z</time>
      </trkpt>
      <trkpt lat="48.5396" lon="2.13468">
        <ele>150</ele>
        <time>2021-03-07T11:48:48.745Z</time>
      </trkpt>
      <trkpt lat="48.5396" lon="2.1347">
        <ele>149</ele>
        <time>2021-03-07T11:48:49.746Z</time>
      </trkpt>
      <trkpt lat="48.53961" lon="2.13472">
        <ele>150</ele>
        <time>2021-03-07T11:48:50.745Z</time>
      </trkpt>
      <trkpt lat="48.53962" lon="2.13474">
        <ele>150</ele>
        <time>2021-03-07T11:48:51.745Z</time>
      </trkpt>
      <trkpt lat="48.53963" lon="2.13476">
        <ele>151</ele>
        <time>2021-03-07T11:48:52.746Z</time>
      </trkpt>
      <trkpt lat="48.53964" lon="2.13479">
        <ele>151</ele>
        <time>2021-03-07T11:48:53.745Z</time>
      </trkpt>
      <trkpt lat="48.53965" lon="2.1348">
        <ele>151</ele>
        <time>2021-03-07T11:48:54.746Z</time>
      </trkpt>
      <trkpt lat="48.53965" lon="2.13482">
        <ele>151</ele>
        <time>2021-03-07T11:48:55.745Z</time>
      </trkpt>
      <trkpt lat="48.53966" lon="2.13484">
        <ele>152</ele>
        <time>2021-03-07T11:48:56.745Z</time>
      </trkpt>
      <trkpt lat="48.53967" lon="2.13487">
        <ele>152</ele>
        <time>2021-03-07T11:48:57.745Z</time>
      </trkpt>
      <trkpt lat="48.53967" lon="2.13489">
        <ele>151</ele>
        <time>2021-03-07T11:48:58.745Z</time>
      </trkpt>
      <trkpt lat="48.53968" lon="2.13491">
        <ele>152</ele>
        <time>2021-03-07T11:48:59.745Z</time>
      </trkpt>
      <trkpt lat="48.53969" lon="2.13493">
        <ele>152</ele>
        <time>2021-03-07T11:49:00.745Z</time>
      </trkpt>
      <trkpt lat="48.5397" lon="2.13496">
        <ele>152</ele>
        <time>2021-03-07T11:49:01.745Z</time>
      </trkpt>
      <trkpt lat="48.53971" lon="2.13498">
        <ele>153</ele>
        <time>2021-03-07T11:49:02.745Z</time>
      </trkpt>
      <trkpt lat="48.53971" lon="2.135">
        <ele>153</ele>
        <time>2021-03-07T11:49:03.745Z</time>
      </trkpt>
      <trkpt lat="48.53972" lon="2.13502">
        <ele>153</ele>
        <time>2021-03-07T11:49:04.745Z</time>
      </trkpt>
      <trkpt lat="48.53973" lon="2.13504">
        <ele>153</ele>
        <time>2021-03-07T11:49:05.746Z</time>
      </trkpt>
      <trkpt lat="48.53974" lon="2.13506">
        <ele>153</ele>
        <time>2021-03-07T11:49:06.745Z</time>
      </trkpt>
      <trkpt lat="48.53975" lon="2.13508">
        <ele>153</ele>
        <time>2021-03-07T11:49:07.745Z</time>
      </trkpt>
      <trkpt lat="48.53976" lon="2.13511">
        <ele>153</ele>
        <time>2021-03-07T11:49:08.746Z</time>
      </trkpt>
      <trkpt lat="48.53976" lon="2.13513">
        <ele>154</ele>
        <time>2021-03-07T11:49:09.745Z</time>
      </trkpt>
      <trkpt lat="48.53977" lon="2.13515">
        <ele>153</ele>
        <time>2021-03-07T11:49:10.746Z</time>
      </trkpt>
      <trkpt lat="48.53978" lon="2.13517">
        <ele>153</ele>
        <time>2021-03-07T11:49:11.745Z</time>
      </trkpt>
      <trkpt lat="48.53978" lon="2.1352">
        <ele>154</ele>
        <time>2021-03-07T11:49:12.745Z</time>
      </trkpt>
      <trkpt lat="48.53979" lon="2.13522">
        <ele>154</ele>
        <time>2021-03-07T11:49:13.746Z</time>
      </trkpt>
      <trkpt lat="48.53979" lon="2.13524">
        <ele>154</ele>
        <time>2021-03-07T11:49:14.745Z</time>
      </trkpt>
      <trkpt lat="48.5398" lon="2.13526">
        <ele>153</ele>
        <time>2021-03-07T11:49:15.746Z</time>
      </trkpt>
      <trkpt lat="48.53981" lon="2.13529">
        <ele>153</ele>
        <time>2021-03-07T11:49:16.745Z</time>
      </trkpt>
      <trkpt lat="48.53981" lon="2.13531">
        <ele>152</ele>
        <time>2021-03-07T11:49:17.746Z</time>
      </trkpt>
      <trkpt lat="48.53982" lon="2.13533">
        <ele>152</ele>
        <time>2021-03-07T11:49:18.745Z</time>
      </trkpt>
      <trkpt lat="48.53983" lon="2.13536">
        <ele>152</ele>
        <time>2021-03-07T11:49:19.746Z</time>
      </trkpt>
      <trkpt lat="48.53984" lon="2.13538">
        <ele>152</ele>
        <time>2021-03-07T11:49:20.746Z</time>
      </trkpt>
      <trkpt lat="48.53985" lon="2.1354">
        <ele>152</ele>
        <time>2021-03-07T11:49:21.745Z</time>
      </trkpt>
      <trkpt lat="48.53986" lon="2.13542">
        <ele>152</ele>
        <time>2021-03-07T11:49:22.746Z</time>
      </trkpt>
      <trkpt lat="48.53987" lon="2.13544">
        <ele>152</ele>
        <time>2021-03-07T11:49:23.746Z</time>
      </trkpt>
      <trkpt lat="48.53987" lon="2.13546">
        <ele>152</ele>
        <time>2021-03-07T11:49:24.746Z</time>
      </trkpt>
      <trkpt lat="48.53988" lon="2.13548">
        <ele>153</ele>
        <time>2021-03-07T11:49:25.745Z</time>
      </trkpt>
      <trkpt lat="48.53989" lon="2.1355">
        <ele>153</ele>
        <time>2021-03-07T11:49:26.746Z</time>
      </trkpt>
      <trkpt lat="48.5399" lon="2.13553">
        <ele>153</ele>
        <time>2021-03-07T11:49:27.746Z</time>
      </trkpt>
      <trkpt lat="48.53992" lon="2.13555">
        <ele>154</ele>
        <time>2021-03-07T11:49:28.745Z</time>
      </trkpt>
      <trkpt lat="48.53992" lon="2.13557">
        <ele>154</ele>
        <time>2021-03-07T11:49:29.745Z</time>
      </trkpt>
      <trkpt lat="48.53993" lon="2.13559">
        <ele>154</ele>
        <time>2021-03-07T11:49:30.745Z</time>
      </trkpt>
      <trkpt lat="48.53994" lon="2.13561">
        <ele>154</ele>
        <time>2021-03-07T11:49:31.745Z</time>
      </trkpt>
      <trkpt lat="48.53995" lon="2.13563">
        <ele>154</ele>
        <time>2021-03-07T11:49:32.745Z</time>
      </trkpt>
      <trkpt lat="48.53996" lon="2.13565">
        <ele>154</ele>
        <time>2021-03-07T11:49:33.745Z</time>
      </trkpt>
      <trkpt lat="48.53996" lon="2.13567">
        <ele>154</ele>
        <time>2021-03-07T11:49:34.745Z</time>
      </trkpt>
      <trkpt lat="48.53997" lon="2.1357">
        <ele>154</ele>
        <time>2021-03-07T11:49:35.745Z</time>
      </trkpt>
      <trkpt lat="48.53997" lon="2.13572">
        <ele>154</ele>
        <time>2021-03-07T11:49:36.745Z</time>
      </trkpt>
      <trkpt lat="48.53997" lon="2.13574">
        <ele>153</ele>
        <time>2021-03-07T11:49:37.746Z</time>
      </trkpt>
      <trkpt lat="48.53998" lon="2.13576">
        <ele>153</ele>
        <time>2021-03-07T11:49:38.745Z</time>
      </trkpt>
      <trkpt lat="48.53998" lon="2.13578">
        <ele>153</ele>
        <time>2021-03-07T11:49:39.745Z</time>
      </trkpt>
      <trkpt lat="48.53999" lon="2.1358">
        <ele>153</ele>
        <time>2021-03-07T11:49:40.746Z</time>
      </trkpt>
      <trkpt lat="48.53999" lon="2.13582">
        <ele>153</ele>
        <time>2021-03-07T11:49:41.745Z</time>
      </trkpt>
      <trkpt lat="48.54" lon="2.13585">
        <ele>154</ele>
        <time>2021-03-07T11:49:42.745Z</time>
      </trkpt>
      <trkpt lat="48.54" lon="2.13587">
        <ele>154</ele>
        <time>2021-03-07T11:49:43.745Z</time>
      </trkpt>
      <trkpt lat="48.54001" lon="2.13589">
        <ele>153</ele>
        <time>2021-03-07T11:49:44.745Z</time>
      </trkpt>
      <trkpt lat="48.54001" lon="2.13591">
        <ele>153</ele>
        <time>2021-03-07T11:49:45.745Z</time>
      </trkpt>
      <trkpt lat="48.54001" lon="2.13593">
        <ele>153</ele>
        <time>2021-03-07T11:49:46.745Z</time>
      </trkpt>
      <trkpt lat="48.54002" lon="2.13595">
        <ele>153</ele>
        <time>2021-03-07T11:49:47.746Z</time>
      </trkpt>
      <trkpt lat="48.54003" lon="2.13597">
        <ele>152</ele>
        <time>2021-03-07T11:49:48.745Z</time>
      </trkpt>
      <trkpt lat="48.54003" lon="2.13599">
        <ele>152</ele>
        <time>2021-03-07T11:49:49.746Z</time>
      </trkpt>
      <trkpt lat="48.54003" lon="2.136">
        <ele>152</ele>
        <time>2021-03-07T11:49:50.745Z</time>
      </trkpt>
      <trkpt lat="48.54004" lon="2.13603">
        <ele>152</ele>
        <time>2021-03-07T11:49:51.745Z</time>
      </trkpt>
      <trkpt lat="48.54004" lon="2.13605">
        <ele>151</ele>
        <time>2021-03-07T11:49:52.745Z</time>
      </trkpt>
      <trkpt lat="48.54004" lon="2.13607">
        <ele>151</ele>
        <time>2021-03-07T11:49:53.745Z</time>
      </trkpt>
      <trkpt lat="48.54005" lon="2.13609">
        <ele>151</ele>
        <time>2021-03-07T11:49:54.745Z</time>
      </trkpt>
      <trkpt lat="48.54006" lon="2.13611">
        <ele>151</ele>
        <time>2021-03-07T11:49:55.745Z</time>
      </trkpt>
      <trkpt lat="48.54006" lon="2.13613">
        <ele>151</ele>
        <time>2021-03-07T11:49:56.745Z</time>
      </trkpt>
      <trkpt lat="48.54006" lon="2.13616">
        <ele>150</ele>
        <time>2021-03-07T11:49:57.745Z</time>
      </trkpt>
      <trkpt lat="48.54007" lon="2.13618">
        <ele>150</ele>
        <time>2021-03-07T11:49:58.745Z</time>
      </trkpt>
      <trkpt lat="48.54007" lon="2.1362">
        <ele>150</ele>
        <time>2021-03-07T11:49:59.745Z</time>
      </trkpt>
      <trkpt lat="48.54008" lon="2.13623">
        <ele>150</ele>
        <time>2021-03-07T11:50:00.745Z</time>
      </trkpt>
      <trkpt lat="48.54009" lon="2.13625">
        <ele>150</ele>
        <time>2021-03-07T11:50:01.746Z</time>
      </trkpt>
      <trkpt lat="48.5401" lon="2.13627">
        <ele>150</ele>
        <time>2021-03-07T11:50:02.745Z</time>
      </trkpt>
      <trkpt lat="48.5401" lon="2.13629">
        <ele>150</ele>
        <time>2021-03-07T11:50:03.745Z</time>
      </trkpt>
      <trkpt lat="48.54011" lon="2.13632">
        <ele>151</ele>
        <time>2021-03-07T11:50:04.746Z</time>
      </trkpt>
      <trkpt lat="48.54012" lon="2.13634">
        <ele>151</ele>
        <time>2021-03-07T11:50:05.745Z</time>
      </trkpt>
      <trkpt lat="48.54012" lon="2.13636">
        <ele>152</ele>
        <time>2021-03-07T11:50:06.745Z</time>
      </trkpt>
      <trkpt lat="48.54013" lon="2.13638">
        <ele>152</ele>
        <time>2021-03-07T11:50:07.746Z</time>
      </trkpt>
      <trkpt lat="48.54013" lon="2.1364">
        <ele>153</ele>
        <time>2021-03-07T11:50:08.745Z</time>
      </trkpt>
      <trkpt lat="48.54014" lon="2.13642">
        <ele>154</ele>
        <time>2021-03-07T11:50:09.746Z</time>
      </trkpt>
      <trkpt lat="48.54014" lon="2.13645">
        <ele>154</ele>
        <time>2021-03-07T11:50:10.745Z</time>
      </trkpt>
      <trkpt lat="48.54015" lon="2.13647">
        <ele>154</ele>
        <time>2021-03-07T11:50:11.746Z</time>
      </trkpt>
      <trkpt lat="48.54016" lon="2.1365">
        <ele>153</ele>
        <time>2021-03-07T11:50:12.745Z</time>
      </trkpt>
      <trkpt lat="48.54016" lon="2.13651">
        <ele>153</ele>
        <time>2021-03-07T11:50:13.745Z</time>
      </trkpt>
      <trkpt lat="48.54017" lon="2.13654">
        <ele>153</ele>
        <time>2021-03-07T11:50:14.745Z</time>
      </trkpt>
      <trkpt lat="48.54017" lon="2.13656">
        <ele>153</ele>
        <time>2021-03-07T11:50:15.745Z</time>
      </trkpt>
      <trkpt lat="48.54018" lon="2.13658">
        <ele>152</ele>
        <time>2021-03-07T11:50:16.745Z</time>
      </trkpt>
      <trkpt lat="48.54019" lon="2.1366">
        <ele>152</ele>
        <time>2021-03-07T11:50:17.745Z</time>
      </trkpt>
      <trkpt lat="48.54019" lon="2.13662">
        <ele>151</ele>
        <time>2021-03-07T11:50:18.745Z</time>
      </trkpt>
      <trkpt lat="48.5402" lon="2.13664">
        <ele>151</ele>
        <time>2021-03-07T11:50:19.746Z</time>
      </trkpt>
      <trkpt lat="48.5402" lon="2.13666">
        <ele>151</ele>
        <time>2021-03-07T11:50:20.746Z</time>
      </trkpt>
      <trkpt lat="48.54021" lon="2.13668">
        <ele>150</ele>
        <time>2021-03-07T11:50:21.745Z</time>
      </trkpt>
      <trkpt lat="48.54021" lon="2.1367">
        <ele>150</ele>
        <time>2021-03-07T11:50:22.746Z</time>
      </trkpt>
      <trkpt lat="48.54022" lon="2.13672">
        <ele>151</ele>
        <time>2021-03-07T11:50:23.745Z</time>
      </trkpt>
      <trkpt lat="48.54023" lon="2.13674">
        <ele>151</ele>
        <time>2021-03-07T11:50:24.746Z</time>
      </trkpt>
      <trkpt lat="48.54024" lon="2.13676">
        <ele>151</ele>
        <time>2021-03-07T11:50:25.745Z</time>
      </trkpt>
      <trkpt lat="48.54024" lon="2.13678">
        <ele>152</ele>
        <time>2021-03-07T11:50:26.745Z</time>
      </trkpt>
      <trkpt lat="48.54025" lon="2.13681">
        <ele>152</ele>
        <time>2021-03-07T11:50:27.746Z</time>
      </trkpt>
      <trkpt lat="48.54026" lon="2.13684">
        <ele>152</ele>
        <time>2021-03-07T11:50:28.746Z</time>
      </trkpt>
      <trkpt lat="48.54026" lon="2.13685">
        <ele>151</ele>
        <time>2021-03-07T11:50:29.746Z</time>
      </trkpt>
      <trkpt lat="48.54027" lon="2.13687">
        <ele>151</ele>
        <time>2021-03-07T11:50:30.746Z</time>
      </trkpt>
      <trkpt lat="48.54028" lon="2.1369">
        <ele>152</ele>
        <time>2021-03-07T11:50:31.745Z</time>
      </trkpt>
      <trkpt lat="48.54029" lon="2.13692">
        <ele>152</ele>
        <time>2021-03-07T11:50:32.745Z</time>
      </trkpt>
      <trkpt lat="48.5403" lon="2.13694">
        <ele>152</ele>
        <time>2021-03-07T11:50:33.745Z</time>
      </trkpt>
      <trkpt lat="48.5403" lon="2.13696">
        <ele>153</ele>
        <time>2021-03-07T11:50:34.745Z</time>
      </trkpt>
      <trkpt lat="48.54031" lon="2.13698">
        <ele>153</ele>
        <time>2021-03-07T11:50:35.745Z</time>
      </trkpt>
      <trkpt lat="48.54031" lon="2.13701">
        <ele>153</ele>
        <time>2021-03-07T11:50:36.746Z</time>
      </trkpt>
      <trkpt lat="48.54031" lon="2.13703">
        <ele>153</ele>
        <time>2021-03-07T11:50:37.745Z</time>
      </trkpt>
      <trkpt lat="48.54031" lon="2.13705">
        <ele>152</ele>
        <time>2021-03-07T11:50:38.745Z</time>
      </trkpt>
      <trkpt lat="48.54032" lon="2.13707">
        <ele>152</ele>
        <time>2021-03-07T11:50:39.746Z</time>
      </trkpt>
      <trkpt lat="48.54032" lon="2.13709">
        <ele>152</ele>
        <time>2021-03-07T11:50:40.746Z</time>
      </trkpt>
      <trkpt lat="48.54033" lon="2.13711">
        <ele>152</ele>
        <time>2021-03-07T11:50:41.745Z</time>
      </trkpt>
      <trkpt lat="48.54033" lon="2.13714">
        <ele>152</ele>
        <time>2021-03-07T11:50:42.746Z</time>
      </trkpt>
      <trkpt lat="48.54034" lon="2.13716">
        <ele>152</ele>
        <time>2021-03-07T11:50:43.745Z</time>
      </trkpt>
      <trkpt lat="48.54034" lon="2.13718">
        <ele>152</ele>
        <time>2021-03-07T11:50:44.745Z</time>
      </trkpt>
      <trkpt lat="48.54035" lon="2.1372">
        <ele>153</ele>
        <time>2021-03-07T11:50:45.746Z</time>
      </trkpt>
      <trkpt lat="48.54036" lon="2.13723">
        <ele>153</ele>
        <time>2021-03-07T11:50:46.745Z</time>
      </trkpt>
      <trkpt lat="48.54036" lon="2.13725">
        <ele>154</ele>
        <time>2021-03-07T11:50:47.745Z</time>
      </trkpt>
      <trkpt lat="48.54037" lon="2.13727">
        <ele>154</ele>
        <time>2021-03-07T11:50:48.745Z</time>
      </trkpt>
      <trkpt lat="48.54037" lon="2.13729">
        <ele>153</ele>
        <time>2021-03-07T11:50:49.745Z</time>
      </trkpt>
      <trkpt lat="48.54038" lon="2.13731">
        <ele>153</ele>
        <time>2021-03-07T11:50:50.745Z</time>
      </trkpt>
      <trkpt lat="48.54039" lon="2.13734">
        <ele>153</ele>
        <time>2021-03-07T11:50:51.745Z</time>
      </trkpt>
      <trkpt lat="48.5404" lon="2.13736">
        <ele>153</ele>
        <time>2021-03-07T11:50:52.746Z</time>
      </trkpt>
      <trkpt lat="48.5404" lon="2.13738">
        <ele>153</ele>
        <time>2021-03-07T11:50:53.745Z</time>
      </trkpt>
      <trkpt lat="48.54041" lon="2.1374">
        <ele>153</ele>
        <time>2021-03-07T11:50:54.746Z</time>
      </trkpt>
      <trkpt lat="48.54041" lon="2.13742">
        <ele>153</ele>
        <time>2021-03-07T11:50:55.746Z</time>
      </trkpt>
      <trkpt lat="48.54042" lon="2.13745">
        <ele>153</ele>
        <time>2021-03-07T11:50:56.745Z</time>
      </trkpt>
      <trkpt lat="48.54042" lon="2.13747">
        <ele>153</ele>
        <time>2021-03-07T11:50:57.745Z</time>
      </trkpt>
      <trkpt lat="48.54043" lon="2.13749">
        <ele>152</ele>
        <time>2021-03-07T11:50:58.745Z</time>
      </trkpt>
      <trkpt lat="48.54043" lon="2.13751">
        <ele>152</ele>
        <time>2021-03-07T11:50:59.745Z</time>
      </trkpt>
      <trkpt lat="48.54043" lon="2.13754">
        <ele>152</ele>
        <time>2021-03-07T11:51:00.745Z</time>
      </trkpt>
      <trkpt lat="48.54044" lon="2.13756">
        <ele>152</ele>
        <time>2021-03-07T11:51:01.745Z</time>
      </trkpt>
      <trkpt lat="48.54044" lon="2.13758">
        <ele>151</ele>
        <time>2021-03-07T11:51:02.745Z</time>
      </trkpt>
      <trkpt lat="48.54045" lon="2.13761">
        <ele>152</ele>
        <time>2021-03-07T11:51:03.745Z</time>
      </trkpt>
      <trkpt lat="48.54046" lon="2.13763">
        <ele>152</ele>
        <time>2021-03-07T11:51:04.745Z</time>
      </trkpt>
      <trkpt lat="48.54046" lon="2.13765">
        <ele>152</ele>
        <time>2021-03-07T11:51:05.745Z</time>
      </trkpt>
      <trkpt lat="48.54047" lon="2.13768">
        <ele>152</ele>
        <time>2021-03-07T11:51:06.745Z</time>
      </trkpt>
      <trkpt lat="48.54047" lon="2.1377">
        <ele>152</ele>
        <time>2021-03-07T11:51:07.745Z</time>
      </trkpt>
      <trkpt lat="48.54048" lon="2.13772">
        <ele>152</ele>
        <time>2021-03-07T11:51:08.745Z</time>
      </trkpt>
      <trkpt lat="48.54048" lon="2.13774">
        <ele>152</ele>
        <time>2021-03-07T11:51:09.745Z</time>
      </trkpt>
      <trkpt lat="48.54049" lon="2.13777">
        <ele>153</ele>
        <time>2021-03-07T11:51:10.745Z</time>
      </trkpt>
      <trkpt lat="48.5405" lon="2.13779">
        <ele>153</ele>
        <time>2021-03-07T11:51:11.745Z</time>
      </trkpt>
      <trkpt lat="48.54051" lon="2.13781">
        <ele>152</ele>
        <time>2021-03-07T11:51:12.745Z</time>
      </trkpt>
      <trkpt lat="48.54051" lon="2.13783">
        <ele>152</ele>
        <time>2021-03-07T11:51:13.746Z</time>
      </trkpt>
      <trkpt lat="48.54052" lon="2.13785">
        <ele>151</ele>
        <time>2021-03-07T11:51:14.745Z</time>
      </trkpt>
      <trkpt lat="48.54052" lon="2.13788">
        <ele>152</ele>
        <time>2021-03-07T11:51:15.745Z</time>
      </trkpt>
      <trkpt lat="48.54053" lon="2.1379">
        <ele>152</ele>
        <time>2021-03-07T11:51:16.745Z</time>
      </trkpt>
      <trkpt lat="48.54053" lon="2.13792">
        <ele>152</ele>
        <time>2021-03-07T11:51:17.745Z</time>
      </trkpt>
      <trkpt lat="48.54054" lon="2.13794">
        <ele>152</ele>
        <time>2021-03-07T11:51:18.745Z</time>
      </trkpt>
      <trkpt lat="48.54055" lon="2.13796">
        <ele>152</ele>
        <time>2021-03-07T11:51:19.746Z</time>
      </trkpt>
      <trkpt lat="48.54056" lon="2.13799">
        <ele>153</ele>
        <time>2021-03-07T11:51:20.745Z</time>
      </trkpt>
      <trkpt lat="48.54056" lon="2.13801">
        <ele>153</ele>
        <time>2021-03-07T11:51:21.746Z</time>
      </trkpt>
      <trkpt lat="48.54057" lon="2.13803">
        <ele>152</ele>
        <time>2021-03-07T11:51:22.745Z</time>
      </trkpt>
      <trkpt lat="48.54057" lon="2.13804">
        <ele>152</ele>
        <time>2021-03-07T11:51:23.745Z</time>
      </trkpt>
      <trkpt lat="48.54058" lon="2.13806">
        <ele>152</ele>
        <time>2021-03-07T11:51:24.746Z</time>
      </trkpt>
      <trkpt lat="48.54058" lon="2.13809">
        <ele>152</ele>
        <time>2021-03-07T11:51:25.745Z</time>
      </trkpt>
      <trkpt lat="48.54059" lon="2.13811">
        <ele>151</ele>
        <time>2021-03-07T11:51:26.746Z</time>
      </trkpt>
      <trkpt lat="48.5406" lon="2.13813">
        <ele>151</ele>
        <time>2021-03-07T11:51:27.745Z</time>
      </trkpt>
      <trkpt lat="48.5406" lon="2.13814">
        <ele>151</ele>
        <time>2021-03-07T11:51:28.746Z</time>
      </trkpt>
      <trkpt lat="48.54061" lon="2.13817">
        <ele>150</ele>
        <time>2021-03-07T11:51:29.745Z</time>
      </trkpt>
      <trkpt lat="48.54062" lon="2.13819">
        <ele>150</ele>
        <time>2021-03-07T11:51:30.745Z</time>
      </trkpt>
      <trkpt lat="48.54063" lon="2.13821">
        <ele>150</ele>
        <time>2021-03-07T11:51:31.745Z</time>
      </trkpt>
      <trkpt lat="48.54063" lon="2.13823">
        <ele>149</ele>
        <time>2021-03-07T11:51:32.745Z</time>
      </trkpt>
      <trkpt lat="48.54064" lon="2.13825">
        <ele>149</ele>
        <time>2021-03-07T11:51:33.745Z</time>
      </trkpt>
      <trkpt lat="48.54065" lon="2.13827">
        <ele>150</ele>
        <time>2021-03-07T11:51:34.745Z</time>
      </trkpt>
      <trkpt lat="48.54066" lon="2.13829">
        <ele>150</ele>
        <time>2021-03-07T11:51:35.745Z</time>
      </trkpt>
      <trkpt lat="48.54067" lon="2.1383">
        <ele>150</ele>
        <time>2021-03-07T11:51:36.745Z</time>
      </trkpt>
      <trkpt lat="48.54068" lon="2.13831">
        <ele>150</ele>
        <time>2021-03-07T11:51:37.745Z</time>
      </trkpt>
      <trkpt lat="48.5407" lon="2.13833">
        <ele>151</ele>
        <time>2021-03-07T11:51:38.745Z</time>
      </trkpt>
      <trkpt lat="48.54071" lon="2.13834">
        <ele>151</ele>
        <time>2021-03-07T11:51:39.745Z</time>
      </trkpt>
      <trkpt lat="48.54073" lon="2.13835">
        <ele>152</ele>
        <time>2021-03-07T11:51:40.746Z</time>
      </trkpt>
      <trkpt lat="48.54074" lon="2.13836">
        <ele>153</ele>
        <time>2021-03-07T11:51:41.745Z</time>
      </trkpt>
      <trkpt lat="48.54076" lon="2.13837">
        <ele>153</ele>
        <time>2021-03-07T11:51:42.745Z</time>
      </trkpt>
      <trkpt lat="48.54078" lon="2.13837">
        <ele>153</ele>
        <time>2021-03-07T11:51:43.746Z</time>
      </trkpt>
      <trkpt lat="48.54079" lon="2.13838">
        <ele>153</ele>
        <time>2021-03-07T11:51:44.745Z</time>
      </trkpt>
      <trkpt lat="48.54081" lon="2.13838">
        <ele>154</ele>
        <time>2021-03-07T11:51:45.746Z</time>
      </trkpt>
      <trkpt lat="48.54083" lon="2.13838">
        <ele>154</ele>
        <time>2021-03-07T11:51:46.745Z</time>
      </trkpt>
      <trkpt lat="48.54084" lon="2.13838">
        <ele>153</ele>
        <time>2021-03-07T11:51:47.746Z</time>
      </trkpt>
      <trkpt lat="48.54085" lon="2.13838">
        <ele>153</ele>
        <time>2021-03-07T11:51:48.746Z</time>
      </trkpt>
      <trkpt lat="48.54086" lon="2.13838">
        <ele>153</ele>
        <time>2021-03-07T11:51:49.745Z</time>
      </trkpt>
      <trkpt lat="48.54088" lon="2.13838">
        <ele>153</ele>
        <time>2021-03-07T11:51:50.745Z</time>
      </trkpt>
      <trkpt lat="48.5409" lon="2.13839">
        <ele>153</ele>
        <time>2021-03-07T11:51:51.745Z</time>
      </trkpt>
      <trkpt lat="48.54091" lon="2.13839">
        <ele>154</ele>
        <time>2021-03-07T11:51:52.745Z</time>
      </trkpt>
      <trkpt lat="48.54093" lon="2.13839">
        <ele>154</ele>
        <time>2021-03-07T11:51:53.745Z</time>
      </trkpt>
      <trkpt lat="48.54095" lon="2.13839">
        <ele>155</ele>
        <time>2021-03-07T11:51:54.745Z</time>
      </trkpt>
      <trkpt lat="48.54096" lon="2.13839">
        <ele>154</ele>
        <time>2021-03-07T11:51:55.745Z</time>
      </trkpt>
      <trkpt lat="48.54098" lon="2.13839">
        <ele>154</ele>
        <time>2021-03-07T11:51:56.745Z</time>
      </trkpt>
      <trkpt lat="48.54099" lon="2.13839">
        <ele>154</ele>
        <time>2021-03-07T11:51:57.746Z</time>
      </trkpt>
      <trkpt lat="48.54101" lon="2.1384">
        <ele>154</ele>
        <time>2021-03-07T11:51:58.745Z</time>
      </trkpt>
      <trkpt lat="48.54102" lon="2.1384">
        <ele>154</ele>
        <time>2021-03-07T11:51:59.745Z</time>
      </trkpt>
      <trkpt lat="48.54104" lon="2.1384">
        <ele>153</ele>
        <time>2021-03-07T11:52:00.746Z</time>
      </trkpt>
      <trkpt lat="48.54105" lon="2.13841">
        <ele>153</ele>
        <time>2021-03-07T11:52:01.745Z</time>
      </trkpt>
      <trkpt lat="48.54106" lon="2.13841">
        <ele>153</ele>
        <time>2021-03-07T11:52:02.745Z</time>
      </trkpt>
      <trkpt lat="48.54107" lon="2.13841">
        <ele>153</ele>
        <time>2021-03-07T11:52:03.745Z</time>
      </trkpt>
      <trkpt lat="48.54109" lon="2.13841">
        <ele>153</ele>
        <time>2021-03-07T11:52:04.746Z</time>
      </trkpt>
      <trkpt lat="48.54111" lon="2.13841">
        <ele>154</ele>
        <time>2021-03-07T11:52:05.745Z</time>
      </trkpt>
      <trkpt lat="48.54112" lon="2.13842">
        <ele>154</ele>
        <time>2021-03-07T11:52:06.746Z</time>
      </trkpt>
      <trkpt lat="48.54114" lon="2.13842">
        <ele>155</ele>
        <time>2021-03-07T11:52:07.745Z</time>
      </trkpt>
      <trkpt lat="48.54116" lon="2.13843">
        <ele>155</ele>
        <time>2021-03-07T11:52:08.746Z</time>
      </trkpt>
      <trkpt lat="48.54117" lon="2.13843">
        <ele>156</ele>
        <time>2021-03-07T11:52:09.745Z</time>
      </trkpt>
      <trkpt lat="48.54119" lon="2.13843">
        <ele>156</ele>
        <time>2021-03-07T11:52:10.745Z</time>
      </trkpt>
      <trkpt lat="48.5412" lon="2.13844">
        <ele>156</ele>
        <time>2021-03-07T11:52:11.746Z</time>
      </trkpt>
      <trkpt lat="48.54121" lon="2.13844">
        <ele>156</ele>
        <time>2021-03-07T11:52:12.745Z</time>
      </trkpt>
      <trkpt lat="48.54123" lon="2.13845">
        <ele>156</ele>
        <time>2021-03-07T11:52:13.746Z</time>
      </trkpt>
      <trkpt lat="48.54124" lon="2.13846">
        <ele>156</ele>
        <time>2021-03-07T11:52:14.745Z</time>
      </trkpt>
      <trkpt lat="48.54125" lon="2.13846">
        <ele>156</ele>
        <time>2021-03-07T11:52:15.746Z</time>
      </trkpt>
      <trkpt lat="48.54126" lon="2.13847">
        <ele>156</ele>
        <time>2021-03-07T11:52:16.745Z</time>
      </trkpt>
      <trkpt lat="48.54128" lon="2.13848">
        <ele>156</ele>
        <time>2021-03-07T11:52:17.746Z</time>
      </trkpt>
      <trkpt lat="48.54129" lon="2.13848">
        <ele>156</ele>
        <time>2021-03-07T11:52:18.745Z</time>
      </trkpt>
      <trkpt lat="48.5413" lon="2.13849">
        <ele>156</ele>
        <time>2021-03-07T11:52:19.746Z</time>
      </trkpt>
      <trkpt lat="48.54132" lon="2.13849">
        <ele>156</ele>
        <time>2021-03-07T11:52:20.745Z</time>
      </trkpt>
      <trkpt lat="48.54133" lon="2.1385">
        <ele>156</ele>
        <time>2021-03-07T11:52:21.746Z</time>
      </trkpt>
      <trkpt lat="48.54135" lon="2.13851">
        <ele>156</ele>
        <time>2021-03-07T11:52:22.745Z</time>
      </trkpt>
      <trkpt lat="48.54136" lon="2.13851">
        <ele>156</ele>
        <time>2021-03-07T11:52:23.746Z</time>
      </trkpt>
      <trkpt lat="48.54137" lon="2.13852">
        <ele>155</ele>
        <time>2021-03-07T11:52:24.745Z</time>
      </trkpt>
      <trkpt lat="48.54139" lon="2.13852">
        <ele>155</ele>
        <time>2021-03-07T11:52:25.746Z</time>
      </trkpt>
      <trkpt lat="48.5414" lon="2.13853">
        <ele>154</ele>
        <time>2021-03-07T11:52:26.745Z</time>
      </trkpt>
      <trkpt lat="48.54141" lon="2.13854">
        <ele>154</ele>
        <time>2021-03-07T11:52:27.745Z</time>
      </trkpt>
      <trkpt lat="48.54143" lon="2.13854">
        <ele>153</ele>
        <time>2021-03-07T11:52:28.745Z</time>
      </trkpt>
      <trkpt lat="48.54144" lon="2.13855">
        <ele>153</ele>
        <time>2021-03-07T11:52:29.746Z</time>
      </trkpt>
      <trkpt lat="48.54146" lon="2.13855">
        <ele>153</ele>
        <time>2021-03-07T11:52:30.745Z</time>
      </trkpt>
      <trkpt lat="48.54147" lon="2.13856">
        <ele>152</ele>
        <time>2021-03-07T11:52:31.745Z</time>
      </trkpt>
      <trkpt lat="48.54148" lon="2.13856">
        <ele>152</ele>
        <time>2021-03-07T11:52:32.745Z</time>
      </trkpt>
      <trkpt lat="48.5415" lon="2.13857">
        <ele>153</ele>
        <time>2021-03-07T11:52:33.745Z</time>
      </trkpt>
      <trkpt lat="48.54152" lon="2.13858">
        <ele>153</ele>
        <time>2021-03-07T11:52:34.745Z</time>
      </trkpt>
      <trkpt lat="48.54153" lon="2.13858">
        <ele>153</ele>
        <time>2021-03-07T11:52:35.746Z</time>
      </trkpt>
      <trkpt lat="48.54154" lon="2.13859">
        <ele>153</ele>
        <time>2021-03-07T11:52:36.745Z</time>
      </trkpt>
      <trkpt lat="48.54156" lon="2.1386">
        <ele>153</ele>
        <time>2021-03-07T11:52:37.746Z</time>
      </trkpt>
      <trkpt lat="48.54157" lon="2.1386">
        <ele>153</ele>
        <time>2021-03-07T11:52:38.746Z</time>
      </trkpt>
      <trkpt lat="48.54159" lon="2.1386">
        <ele>153</ele>
        <time>2021-03-07T11:52:39.745Z</time>
      </trkpt>
      <trkpt lat="48.54161" lon="2.13861">
        <ele>154</ele>
        <time>2021-03-07T11:52:40.745Z</time>
      </trkpt>
      <trkpt lat="48.54162" lon="2.13862">
        <ele>154</ele>
        <time>2021-03-07T11:52:41.745Z</time>
      </trkpt>
      <trkpt lat="48.54163" lon="2.13862">
        <ele>154</ele>
        <time>2021-03-07T11:52:42.745Z</time>
      </trkpt>
      <trkpt lat="48.54165" lon="2.13863">
        <ele>154</ele>
        <time>2021-03-07T11:52:43.745Z</time>
      </trkpt>
      <trkpt lat="48.54166" lon="2.13863">
        <ele>154</ele>
        <time>2021-03-07T11:52:44.745Z</time>
      </trkpt>
      <trkpt lat="48.54167" lon="2.13863">
        <ele>154</ele>
        <time>2021-03-07T11:52:45.745Z</time>
      </trkpt>
      <trkpt lat="48.54168" lon="2.13863">
        <ele>154</ele>
        <time>2021-03-07T11:52:46.745Z</time>
      </trkpt>
      <trkpt lat="48.54169" lon="2.13863">
        <ele>154</ele>
        <time>2021-03-07T11:52:47.745Z</time>
      </trkpt>
      <trkpt lat="48.54171" lon="2.13863">
        <ele>154</ele>
        <time>2021-03-07T11:52:48.745Z</time>
      </trkpt>
      <trkpt lat="48.54172" lon="2.13863">
        <ele>153</ele>
        <time>2021-03-07T11:52:49.745Z</time>
      </trkpt>
      <trkpt lat="48.54174" lon="2.13864">
        <ele>154</ele>
        <time>2021-03-07T11:52:50.746Z</time>
      </trkpt>
      <trkpt lat="48.54175" lon="2.13863">
        <ele>154</ele>
        <time>2021-03-07T11:52:51.745Z</time>
      </trkpt>
      <trkpt lat="48.54176" lon="2.13863">
        <ele>154</ele>
        <time>2021-03-07T11:52:52.746Z</time>
      </trkpt>
      <trkpt lat="48.54176" lon="2.13862">
        <ele>154</ele>
        <time>2021-03-07T11:52:53.745Z</time>
      </trkpt>
      <trkpt lat="48.54177" lon="2.13862">
        <ele>154</ele>
        <time>2021-03-07T11:52:54.745Z</time>
      </trkpt>
      <trkpt lat="48.54179" lon="2.13862">
        <ele>154</ele>
        <time>2021-03-07T11:52:55.745Z</time>
      </trkpt>
      <trkpt lat="48.5418" lon="2.13862">
        <ele>155</ele>
        <time>2021-03-07T11:52:56.745Z</time>
      </trkpt>
      <trkpt lat="48.54182" lon="2.13864">
        <ele>155</ele>
        <time>2021-03-07T11:52:57.746Z</time>
      </trkpt>
      <trkpt lat="48.54183" lon="2.13864">
        <ele>155</ele>
        <time>2021-03-07T11:52:58.745Z</time>
      </trkpt>
      <trkpt lat="48.54184" lon="2.13864">
        <ele>155</ele>
        <time>2021-03-07T11:52:59.745Z</time>
      </trkpt>
      <trkpt lat="48.54186" lon="2.13864">
        <ele>156</ele>
        <time>2021-03-07T11:53:00.745Z</time>
      </trkpt>
      <trkpt lat="48.54187" lon="2.13863">
        <ele>156</ele>
        <time>2021-03-07T11:53:01.745Z</time>
      </trkpt>
      <trkpt lat="48.54189" lon="2.13862">
        <ele>157</ele>
        <time>2021-03-07T11:53:02.745Z</time>
      </trkpt>
      <trkpt lat="48.5419" lon="2.13862">
        <ele>157</ele>
        <time>2021-03-07T11:53:03.745Z</time>
      </trkpt>
      <trkpt lat="48.54192" lon="2.13862">
        <ele>157</ele>
        <time>2021-03-07T11:53:04.745Z</time>
      </trkpt>
      <trkpt lat="48.54193" lon="2.13862">
        <ele>157</ele>
        <time>2021-03-07T11:53:05.745Z</time>
      </trkpt>
      <trkpt lat="48.54195" lon="2.13862">
        <ele>157</ele>
        <time>2021-03-07T11:53:06.745Z</time>
      </trkpt>
      <trkpt lat="48.54196" lon="2.13862">
        <ele>157</ele>
        <time>2021-03-07T11:53:07.745Z</time>
      </trkpt>
      <trkpt lat="48.54198" lon="2.13861">
        <ele>157</ele>
        <time>2021-03-07T11:53:08.745Z</time>
      </trkpt>
      <trkpt lat="48.54199" lon="2.1386">
        <ele>157</ele>
        <time>2021-03-07T11:53:09.745Z</time>
      </trkpt>
      <trkpt lat="48.54201" lon="2.1386">
        <ele>158</ele>
        <time>2021-03-07T11:53:10.746Z</time>
      </trkpt>
      <trkpt lat="48.54202" lon="2.1386">
        <ele>158</ele>
        <time>2021-03-07T11:53:11.746Z</time>
      </trkpt>
      <trkpt lat="48.54203" lon="2.1386">
        <ele>158</ele>
        <time>2021-03-07T11:53:12.746Z</time>
      </trkpt>
      <trkpt lat="48.54204" lon="2.1386">
        <ele>158</ele>
        <time>2021-03-07T11:53:13.746Z</time>
      </trkpt>
      <trkpt lat="48.54206" lon="2.13861">
        <ele>158</ele>
        <time>2021-03-07T11:53:14.745Z</time>
      </trkpt>
      <trkpt lat="48.54208" lon="2.13861">
        <ele>158</ele>
        <time>2021-03-07T11:53:15.745Z</time>
      </trkpt>
      <trkpt lat="48.54209" lon="2.13861">
        <ele>157</ele>
        <time>2021-03-07T11:53:16.745Z</time>
      </trkpt>
      <trkpt lat="48.5421" lon="2.13861">
        <ele>156</ele>
        <time>2021-03-07T11:53:17.746Z</time>
      </trkpt>
      <trkpt lat="48.54211" lon="2.13861">
        <ele>156</ele>
        <time>2021-03-07T11:53:18.745Z</time>
      </trkpt>
      <trkpt lat="48.54212" lon="2.13861">
        <ele>155</ele>
        <time>2021-03-07T11:53:19.745Z</time>
      </trkpt>
      <trkpt lat="48.54214" lon="2.1386">
        <ele>155</ele>
        <time>2021-03-07T11:53:20.746Z</time>
      </trkpt>
      <trkpt lat="48.54215" lon="2.1386">
        <ele>154</ele>
        <time>2021-03-07T11:53:21.745Z</time>
      </trkpt>
      <trkpt lat="48.54216" lon="2.1386">
        <ele>154</ele>
        <time>2021-03-07T11:53:22.745Z</time>
      </trkpt>
      <trkpt lat="48.54217" lon="2.13859">
        <ele>154</ele>
        <time>2021-03-07T11:53:23.745Z</time>
      </trkpt>
      <trkpt lat="48.54218" lon="2.13859">
        <ele>154</ele>
        <time>2021-03-07T11:53:24.745Z</time>
      </trkpt>
      <trkpt lat="48.5422" lon="2.13859">
        <ele>153</ele>
        <time>2021-03-07T11:53:25.746Z</time>
      </trkpt>
      <trkpt lat="48.54221" lon="2.13858">
        <ele>153</ele>
        <time>2021-03-07T11:53:26.745Z</time>
      </trkpt>
      <trkpt lat="48.54222" lon="2.13858">
        <ele>153</ele>
        <time>2021-03-07T11:53:27.746Z</time>
      </trkpt>
      <trkpt lat="48.54223" lon="2.13858">
        <ele>153</ele>
        <time>2021-03-07T11:53:28.745Z</time>
      </trkpt>
      <trkpt lat="48.54224" lon="2.13859">
        <ele>153</ele>
        <time>2021-03-07T11:53:29.745Z</time>
      </trkpt>
      <trkpt lat="48.54225" lon="2.13859">
        <ele>153</ele>
        <time>2021-03-07T11:53:30.746Z</time>
      </trkpt>
      <trkpt lat="48.54226" lon="2.13859">
        <ele>153</ele>
        <time>2021-03-07T11:53:31.745Z</time>
      </trkpt>
      <trkpt lat="48.54227" lon="2.13859">
        <ele>154</ele>
        <time>2021-03-07T11:53:32.746Z</time>
      </trkpt>
      <trkpt lat="48.54228" lon="2.13859">
        <ele>154</ele>
        <time>2021-03-07T11:53:33.745Z</time>
      </trkpt>
      <trkpt lat="48.5423" lon="2.13859">
        <ele>154</ele>
        <time>2021-03-07T11:53:34.746Z</time>
      </trkpt>
      <trkpt lat="48.5423" lon="2.13858">
        <ele>154</ele>
        <time>2021-03-07T11:53:35.745Z</time>
      </trkpt>
      <trkpt lat="48.54232" lon="2.13859">
        <ele>154</ele>
        <time>2021-03-07T11:53:36.746Z</time>
      </trkpt>
      <trkpt lat="48.54233" lon="2.13859">
        <ele>154</ele>
        <time>2021-03-07T11:53:37.745Z</time>
      </trkpt>
      <trkpt lat="48.54234" lon="2.13859">
        <ele>154</ele>
        <time>2021-03-07T11:53:38.746Z</time>
      </trkpt>
      <trkpt lat="48.54235" lon="2.13859">
        <ele>154</ele>
        <time>2021-03-07T11:53:39.745Z</time>
      </trkpt>
      <trkpt lat="48.54236" lon="2.13858">
        <ele>153</ele>
        <time>2021-03-07T11:53:40.745Z</time>
      </trkpt>
      <trkpt lat="48.54238" lon="2.13858">
        <ele>153</ele>
        <time>2021-03-07T11:53:41.745Z</time>
      </trkpt>
      <trkpt lat="48.54239" lon="2.13858">
        <ele>153</ele>
        <time>2021-03-07T11:53:42.745Z</time>
      </trkpt>
      <trkpt lat="48.5424" lon="2.13857">
        <ele>153</ele>
        <time>2021-03-07T11:53:43.746Z</time>
      </trkpt>
      <trkpt lat="48.54241" lon="2.13856">
        <ele>153</ele>
        <time>2021-03-07T11:53:44.745Z</time>
      </trkpt>
      <trkpt lat="48.54243" lon="2.13856">
        <ele>153</ele>
        <time>2021-03-07T11:53:45.746Z</time>
      </trkpt>
      <trkpt lat="48.54244" lon="2.13856">
        <ele>153</ele>
        <time>2021-03-07T11:53:46.745Z</time>
      </trkpt>
      <trkpt lat="48.54246" lon="2.13855">
        <ele>153</ele>
        <time>2021-03-07T11:53:47.745Z</time>
      </trkpt>
      <trkpt lat="48.54247" lon="2.13855">
        <ele>153</ele>
        <time>2021-03-07T11:53:48.745Z</time>
      </trkpt>
      <trkpt lat="48.54249" lon="2.13854">
        <ele>154</ele>
        <time>2021-03-07T11:53:49.746Z</time>
      </trkpt>
      <trkpt lat="48.54251" lon="2.13855">
        <ele>154</ele>
        <time>2021-03-07T11:53:50.745Z</time>
      </trkpt>
      <trkpt lat="48.54252" lon="2.13854">
        <ele>154</ele>
        <time>2021-03-07T11:53:51.745Z</time>
      </trkpt>
      <trkpt lat="48.54253" lon="2.13854">
        <ele>154</ele>
        <time>2021-03-07T11:53:52.745Z</time>
      </trkpt>
      <trkpt lat="48.54255" lon="2.13853">
        <ele>154</ele>
        <time>2021-03-07T11:53:53.745Z</time>
      </trkpt>
      <trkpt lat="48.54256" lon="2.13852">
        <ele>154</ele>
        <time>2021-03-07T11:53:54.746Z</time>
      </trkpt>
      <trkpt lat="48.54257" lon="2.13852">
        <ele>154</ele>
        <time>2021-03-07T11:53:55.745Z</time>
      </trkpt>
      <trkpt lat="48.54258" lon="2.13851">
        <ele>154</ele>
        <time>2021-03-07T11:53:56.746Z</time>
      </trkpt>
      <trkpt lat="48.54259" lon="2.13851">
        <ele>153</ele>
        <time>2021-03-07T11:53:57.746Z</time>
      </trkpt>
      <trkpt lat="48.54261" lon="2.1385">
        <ele>153</ele>
        <time>2021-03-07T11:53:58.745Z</time>
      </trkpt>
      <trkpt lat="48.54262" lon="2.1385">
        <ele>153</ele>
        <time>2021-03-07T11:53:59.746Z</time>
      </trkpt>
      <trkpt lat="48.54263" lon="2.13849">
        <ele>153</ele>
        <time>2021-03-07T11:54:00.746Z</time>
      </trkpt>
      <trkpt lat="48.54265" lon="2.13849">
        <ele>153</ele>
        <time>2021-03-07T11:54:01.746Z</time>
      </trkpt>
      <trkpt lat="48.54266" lon="2.13849">
        <ele>152</ele>
        <time>2021-03-07T11:54:02.745Z</time>
      </trkpt>
      <trkpt lat="48.54267" lon="2.13848">
        <ele>151</ele>
        <time>2021-03-07T11:54:03.745Z</time>
      </trkpt>
      <trkpt lat="48.54269" lon="2.13848">
        <ele>151</ele>
        <time>2021-03-07T11:54:04.745Z</time>
      </trkpt>
      <trkpt lat="48.5427" lon="2.13848">
        <ele>151</ele>
        <time>2021-03-07T11:54:05.745Z</time>
      </trkpt>
      <trkpt lat="48.54272" lon="2.13848">
        <ele>151</ele>
        <time>2021-03-07T11:54:06.745Z</time>
      </trkpt>
      <trkpt lat="48.54273" lon="2.13848">
        <ele>151</ele>
        <time>2021-03-07T11:54:07.745Z</time>
      </trkpt>
      <trkpt lat="48.54274" lon="2.13848">
        <ele>151</ele>
        <time>2021-03-07T11:54:08.746Z</time>
      </trkpt>
      <trkpt lat="48.54276" lon="2.13847">
        <ele>152</ele>
        <time>2021-03-07T11:54:09.745Z</time>
      </trkpt>
      <trkpt lat="48.54277" lon="2.13847">
        <ele>152</ele>
        <time>2021-03-07T11:54:10.746Z</time>
      </trkpt>
      <trkpt lat="48.54278" lon="2.13847">
        <ele>153</ele>
        <time>2021-03-07T11:54:11.745Z</time>
      </trkpt>
      <trkpt lat="48.54279" lon="2.13846">
        <ele>153</ele>
        <time>2021-03-07T11:54:12.745Z</time>
      </trkpt>
      <trkpt lat="48.5428" lon="2.13846">
        <ele>153</ele>
        <time>2021-03-07T11:54:13.746Z</time>
      </trkpt>
      <trkpt lat="48.54282" lon="2.13845">
        <ele>152</ele>
        <time>2021-03-07T11:54:14.745Z</time>
      </trkpt>
      <trkpt lat="48.54283" lon="2.13845">
        <ele>152</ele>
        <time>2021-03-07T11:54:15.746Z</time>
      </trkpt>
      <trkpt lat="48.54284" lon="2.13844">
        <ele>152</ele>
        <time>2021-03-07T11:54:16.746Z</time>
      </trkpt>
      <trkpt lat="48.54285" lon="2.13844">
        <ele>152</ele>
        <time>2021-03-07T11:54:17.745Z</time>
      </trkpt>
      <trkpt lat="48.54286" lon="2.13844">
        <ele>151</ele>
        <time>2021-03-07T11:54:18.745Z</time>
      </trkpt>
      <trkpt lat="48.54287" lon="2.13843">
        <ele>151</ele>
        <time>2021-03-07T11:54:19.745Z</time>
      </trkpt>
      <trkpt lat="48.54288" lon="2.13843">
        <ele>151</ele>
        <time>2021-03-07T11:54:20.745Z</time>
      </trkpt>
      <trkpt lat="48.54289" lon="2.13843">
        <ele>150</ele>
        <time>2021-03-07T11:54:21.746Z</time>
      </trkpt>
      <trkpt lat="48.5429" lon="2.13843">
        <ele>150</ele>
        <time>2021-03-07T11:54:22.746Z</time>
      </trkpt>
      <trkpt lat="48.54291" lon="2.13843">
        <ele>150</ele>
        <time>2021-03-07T11:54:23.745Z</time>
      </trkpt>
      <trkpt lat="48.54292" lon="2.13842">
        <ele>150</ele>
        <time>2021-03-07T11:54:24.746Z</time>
      </trkpt>
      <trkpt lat="48.54293" lon="2.13842">
        <ele>150</ele>
        <time>2021-03-07T11:54:25.745Z</time>
      </trkpt>
      <trkpt lat="48.54294" lon="2.13841">
        <ele>151</ele>
        <time>2021-03-07T11:54:26.746Z</time>
      </trkpt>
      <trkpt lat="48.54295" lon="2.1384">
        <ele>152</ele>
        <time>2021-03-07T11:54:27.745Z</time>
      </trkpt>
      <trkpt lat="48.54296" lon="2.13839">
        <ele>152</ele>
        <time>2021-03-07T11:54:28.745Z</time>
      </trkpt>
      <trkpt lat="48.54297" lon="2.13839">
        <ele>152</ele>
        <time>2021-03-07T11:54:29.746Z</time>
      </trkpt>
      <trkpt lat="48.54299" lon="2.13839">
        <ele>152</ele>
        <time>2021-03-07T11:54:30.745Z</time>
      </trkpt>
      <trkpt lat="48.543" lon="2.13838">
        <ele>153</ele>
        <time>2021-03-07T11:54:31.745Z</time>
      </trkpt>
      <trkpt lat="48.54302" lon="2.13837">
        <ele>154</ele>
        <time>2021-03-07T11:54:32.746Z</time>
      </trkpt>
      <trkpt lat="48.54303" lon="2.13836">
        <ele>154</ele>
        <time>2021-03-07T11:54:33.745Z</time>
      </trkpt>
      <trkpt lat="48.54305" lon="2.13835">
        <ele>154</ele>
        <time>2021-03-07T11:54:34.746Z</time>
      </trkpt>
      <trkpt lat="48.54307" lon="2.13834">
        <ele>154</ele>
        <time>2021-03-07T11:54:35.745Z</time>
      </trkpt>
      <trkpt lat="48.54308" lon="2.13834">
        <ele>154</ele>
        <time>2021-03-07T11:54:36.746Z</time>
      </trkpt>
      <trkpt lat="48.54309" lon="2.13833">
        <ele>154</ele>
        <time>2021-03-07T11:54:37.745Z</time>
      </trkpt>
      <trkpt lat="48.5431" lon="2.13833">
        <ele>153</ele>
        <time>2021-03-07T11:54:38.745Z</time>
      </trkpt>
      <trkpt lat="48.54312" lon="2.13832">
        <ele>153</ele>
        <time>2021-03-07T11:54:39.745Z</time>
      </trkpt>
      <trkpt lat="48.54314" lon="2.13831">
        <ele>154</ele>
        <time>2021-03-07T11:54:40.745Z</time>
      </trkpt>
      <trkpt lat="48.54315" lon="2.1383">
        <ele>154</ele>
        <time>2021-03-07T11:54:41.746Z</time>
      </trkpt>
      <trkpt lat="48.54317" lon="2.1383">
        <ele>154</ele>
        <time>2021-03-07T11:54:42.745Z</time>
      </trkpt>
      <trkpt lat="48.54318" lon="2.13829">
        <ele>154</ele>
        <time>2021-03-07T11:54:43.746Z</time>
      </trkpt>
      <trkpt lat="48.5432" lon="2.13829">
        <ele>154</ele>
        <time>2021-03-07T11:54:44.745Z</time>
      </trkpt>
      <trkpt lat="48.54321" lon="2.13828">
        <ele>154</ele>
        <time>2021-03-07T11:54:45.745Z</time>
      </trkpt>
      <trkpt lat="48.54323" lon="2.13828">
        <ele>153</ele>
        <time>2021-03-07T11:54:46.745Z</time>
      </trkpt>
      <trkpt lat="48.54324" lon="2.13827">
        <ele>153</ele>
        <time>2021-03-07T11:54:47.746Z</time>
      </trkpt>
      <trkpt lat="48.54325" lon="2.13826">
        <ele>153</ele>
        <time>2021-03-07T11:54:48.745Z</time>
      </trkpt>
      <trkpt lat="48.54326" lon="2.13826">
        <ele>152</ele>
        <time>2021-03-07T11:54:49.745Z</time>
      </trkpt>
      <trkpt lat="48.54327" lon="2.13825">
        <ele>152</ele>
        <time>2021-03-07T11:54:50.745Z</time>
      </trkpt>
      <trkpt lat="48.54328" lon="2.13825">
        <ele>152</ele>
        <time>2021-03-07T11:54:51.745Z</time>
      </trkpt>
      <trkpt lat="48.54329" lon="2.13824">
        <ele>151</ele>
        <time>2021-03-07T11:54:52.745Z</time>
      </trkpt>
      <trkpt lat="48.5433" lon="2.13823">
        <ele>151</ele>
        <time>2021-03-07T11:54:53.745Z</time>
      </trkpt>
      <trkpt lat="48.54331" lon="2.13822">
        <ele>151</ele>
        <time>2021-03-07T11:54:54.745Z</time>
      </trkpt>
      <trkpt lat="48.54332" lon="2.13822">
        <ele>151</ele>
        <time>2021-03-07T11:54:55.745Z</time>
      </trkpt>
      <trkpt lat="48.54333" lon="2.13821">
        <ele>151</ele>
        <time>2021-03-07T11:54:56.745Z</time>
      </trkpt>
      <trkpt lat="48.54335" lon="2.13821">
        <ele>151</ele>
        <time>2021-03-07T11:54:57.745Z</time>
      </trkpt>
      <trkpt lat="48.54336" lon="2.1382">
        <ele>152</ele>
        <time>2021-03-07T11:54:58.745Z</time>
      </trkpt>
      <trkpt lat="48.54338" lon="2.13819">
        <ele>152</ele>
        <time>2021-03-07T11:54:59.745Z</time>
      </trkpt>
      <trkpt lat="48.54339" lon="2.13819">
        <ele>153</ele>
        <time>2021-03-07T11:55:00.746Z</time>
      </trkpt>
      <trkpt lat="48.54341" lon="2.13818">
        <ele>153</ele>
        <time>2021-03-07T11:55:01.745Z</time>
      </trkpt>
      <trkpt lat="48.54342" lon="2.13817">
        <ele>153</ele>
        <time>2021-03-07T11:55:02.746Z</time>
      </trkpt>
      <trkpt lat="48.54343" lon="2.13816">
        <ele>153</ele>
        <time>2021-03-07T11:55:03.745Z</time>
      </trkpt>
      <trkpt lat="48.54345" lon="2.13815">
        <ele>153</ele>
        <time>2021-03-07T11:55:04.746Z</time>
      </trkpt>
      <trkpt lat="48.54345" lon="2.13814">
        <ele>153</ele>
        <time>2021-03-07T11:55:05.745Z</time>
      </trkpt>
      <trkpt lat="48.54347" lon="2.13813">
        <ele>153</ele>
        <time>2021-03-07T11:55:06.746Z</time>
      </trkpt>
      <trkpt lat="48.54348" lon="2.13811">
        <ele>154</ele>
        <time>2021-03-07T11:55:07.745Z</time>
      </trkpt>
      <trkpt lat="48.54349" lon="2.1381">
        <ele>154</ele>
        <time>2021-03-07T11:55:08.746Z</time>
      </trkpt>
      <trkpt lat="48.5435" lon="2.13809">
        <ele>154</ele>
        <time>2021-03-07T11:55:09.745Z</time>
      </trkpt>
      <trkpt lat="48.54352" lon="2.13808">
        <ele>155</ele>
        <time>2021-03-07T11:55:10.746Z</time>
      </trkpt>
      <trkpt lat="48.54354" lon="2.13808">
        <ele>155</ele>
        <time>2021-03-07T11:55:11.745Z</time>
      </trkpt>
      <trkpt lat="48.54355" lon="2.13807">
        <ele>155</ele>
        <time>2021-03-07T11:55:12.745Z</time>
      </trkpt>
      <trkpt lat="48.54356" lon="2.13806">
        <ele>155</ele>
        <time>2021-03-07T11:55:13.745Z</time>
      </trkpt>
      <trkpt lat="48.54357" lon="2.13805">
        <ele>155</ele>
        <time>2021-03-07T11:55:14.746Z</time>
      </trkpt>
      <trkpt lat="48.54359" lon="2.13805">
        <ele>155</ele>
        <time>2021-03-07T11:55:15.745Z</time>
      </trkpt>
      <trkpt lat="48.5436" lon="2.13804">
        <ele>154</ele>
        <time>2021-03-07T11:55:16.745Z</time>
      </trkpt>
      <trkpt lat="48.54361" lon="2.13804">
        <ele>154</ele>
        <time>2021-03-07T11:55:17.745Z</time>
      </trkpt>
      <trkpt lat="48.54362" lon="2.13804">
        <ele>153</ele>
        <time>2021-03-07T11:55:18.745Z</time>
      </trkpt>
      <trkpt lat="48.54363" lon="2.13804">
        <ele>153</ele>
        <time>2021-03-07T11:55:19.745Z</time>
      </trkpt>
      <trkpt lat="48.54364" lon="2.13803">
        <ele>153</ele>
        <time>2021-03-07T11:55:20.746Z</time>
      </trkpt>
      <trkpt lat="48.54366" lon="2.13802">
        <ele>153</ele>
        <time>2021-03-07T11:55:21.745Z</time>
      </trkpt>
      <trkpt lat="48.54367" lon="2.13802">
        <ele>153</ele>
        <time>2021-03-07T11:55:22.746Z</time>
      </trkpt>
      <trkpt lat="48.54368" lon="2.13802">
        <ele>153</ele>
        <time>2021-03-07T11:55:23.745Z</time>
      </trkpt>
      <trkpt lat="48.54369" lon="2.13802">
        <ele>153</ele>
        <time>2021-03-07T11:55:24.745Z</time>
      </trkpt>
      <trkpt lat="48.54371" lon="2.13801">
        <ele>153</ele>
        <time>2021-03-07T11:55:25.745Z</time>
      </trkpt>
      <trkpt lat="48.54372" lon="2.13801">
        <ele>153</ele>
        <time>2021-03-07T11:55:26.746Z</time>
      </trkpt>
      <trkpt lat="48.54374" lon="2.138">
        <ele>153</ele>
        <time>2021-03-07T11:55:27.745Z</time>
      </trkpt>
      <trkpt lat="48.54376" lon="2.138">
        <ele>153</ele>
        <time>2021-03-07T11:55:28.745Z</time>
      </trkpt>
      <trkpt lat="48.54377" lon="2.13799">
        <ele>153</ele>
        <time>2021-03-07T11:55:29.745Z</time>
      </trkpt>
      <trkpt lat="48.54378" lon="2.13799">
        <ele>153</ele>
        <time>2021-03-07T11:55:30.745Z</time>
      </trkpt>
      <trkpt lat="48.54379" lon="2.13798">
        <ele>153</ele>
        <time>2021-03-07T11:55:31.746Z</time>
      </trkpt>
      <trkpt lat="48.54381" lon="2.13798">
        <ele>153</ele>
        <time>2021-03-07T11:55:32.746Z</time>
      </trkpt>
      <trkpt lat="48.54382" lon="2.13798">
        <ele>153</ele>
        <time>2021-03-07T11:55:33.745Z</time>
      </trkpt>
      <trkpt lat="48.54383" lon="2.13798">
        <ele>152</ele>
        <time>2021-03-07T11:55:34.745Z</time>
      </trkpt>
      <trkpt lat="48.54384" lon="2.13798">
        <ele>152</ele>
        <time>2021-03-07T11:55:35.745Z</time>
      </trkpt>
      <trkpt lat="48.54385" lon="2.13797">
        <ele>152</ele>
        <time>2021-03-07T11:55:36.745Z</time>
      </trkpt>
      <trkpt lat="48.54386" lon="2.13796">
        <ele>152</ele>
        <time>2021-03-07T11:55:37.745Z</time>
      </trkpt>
      <trkpt lat="48.54387" lon="2.13796">
        <ele>152</ele>
        <time>2021-03-07T11:55:38.746Z</time>
      </trkpt>
      <trkpt lat="48.54389" lon="2.13796">
        <ele>152</ele>
        <time>2021-03-07T11:55:39.745Z</time>
      </trkpt>
      <trkpt lat="48.5439" lon="2.13795">
        <ele>152</ele>
        <time>2021-03-07T11:55:40.745Z</time>
      </trkpt>
      <trkpt lat="48.54392" lon="2.13795">
        <ele>153</ele>
        <time>2021-03-07T11:55:41.745Z</time>
      </trkpt>
      <trkpt lat="48.54393" lon="2.13795">
        <ele>154</ele>
        <time>2021-03-07T11:55:42.746Z</time>
      </trkpt>
      <trkpt lat="48.54395" lon="2.13794">
        <ele>154</ele>
        <time>2021-03-07T11:55:43.745Z</time>
      </trkpt>
      <trkpt lat="48.54397" lon="2.13794">
        <ele>155</ele>
        <time>2021-03-07T11:55:44.746Z</time>
      </trkpt>
      <trkpt lat="48.54398" lon="2.13794">
        <ele>155</ele>
        <time>2021-03-07T11:55:45.745Z</time>
      </trkpt>
      <trkpt lat="48.544" lon="2.13795">
        <ele>156</ele>
        <time>2021-03-07T11:55:46.746Z</time>
      </trkpt>
      <trkpt lat="48.54402" lon="2.13794">
        <ele>156</ele>
        <time>2021-03-07T11:55:47.745Z</time>
      </trkpt>
      <trkpt lat="48.54403" lon="2.13795">
        <ele>157</ele>
        <time>2021-03-07T11:55:48.745Z</time>
      </trkpt>
      <trkpt lat="48.54405" lon="2.13795">
        <ele>157</ele>
        <time>2021-03-07T11:55:49.745Z</time>
      </trkpt>
      <trkpt lat="48.54406" lon="2.13795">
        <ele>157</ele>
        <time>2021-03-07T11:55:50.745Z</time>
      </trkpt>
      <trkpt lat="48.54407" lon="2.13795">
        <ele>158</ele>
        <time>2021-03-07T11:55:51.745Z</time>
      </trkpt>
      <trkpt lat="48.54408" lon="2.13796">
        <ele>158</ele>
        <time>2021-03-07T11:55:52.746Z</time>
      </trkpt>
      <trkpt lat="48.54409" lon="2.13796">
        <ele>157</ele>
        <time>2021-03-07T11:55:53.746Z</time>
      </trkpt>
      <trkpt lat="48.5441" lon="2.13797">
        <ele>157</ele>
        <time>2021-03-07T11:55:54.746Z</time>
      </trkpt>
      <trkpt lat="48.54411" lon="2.13797">
        <ele>156</ele>
        <time>2021-03-07T11:55:55.745Z</time>
      </trkpt>
      <trkpt lat="48.54412" lon="2.13797">
        <ele>156</ele>
        <time>2021-03-07T11:55:56.745Z</time>
      </trkpt>
      <trkpt lat="48.54413" lon="2.13796">
        <ele>156</ele>
        <time>2021-03-07T11:55:57.746Z</time>
      </trkpt>
      <trkpt lat="48.54413" lon="2.13796">
        <ele>155</ele>
        <time>2021-03-07T11:55:58.745Z</time>
      </trkpt>
      <trkpt lat="48.54415" lon="2.13795">
        <ele>155</ele>
        <time>2021-03-07T11:55:59.746Z</time>
      </trkpt>
      <trkpt lat="48.54415" lon="2.13795">
        <ele>154</ele>
        <time>2021-03-07T11:56:00.745Z</time>
      </trkpt>
      <trkpt lat="48.54417" lon="2.13794">
        <ele>154</ele>
        <time>2021-03-07T11:56:01.746Z</time>
      </trkpt>
      <trkpt lat="48.54418" lon="2.13794">
        <ele>154</ele>
        <time>2021-03-07T11:56:02.746Z</time>
      </trkpt>
      <trkpt lat="48.54419" lon="2.13794">
        <ele>153</ele>
        <time>2021-03-07T11:56:03.745Z</time>
      </trkpt>
      <trkpt lat="48.5442" lon="2.13794">
        <ele>152</ele>
        <time>2021-03-07T11:56:04.746Z</time>
      </trkpt>
      <trkpt lat="48.5442" lon="2.13794">
        <ele>151</ele>
        <time>2021-03-07T11:56:05.745Z</time>
      </trkpt>
      <trkpt lat="48.54421" lon="2.13793">
        <ele>150</ele>
        <time>2021-03-07T11:56:06.746Z</time>
      </trkpt>
      <trkpt lat="48.54421" lon="2.13793">
        <ele>150</ele>
        <time>2021-03-07T11:56:07.745Z</time>
      </trkpt>
      <trkpt lat="48.54422" lon="2.13792">
        <ele>150</ele>
        <time>2021-03-07T11:56:08.746Z</time>
      </trkpt>
      <trkpt lat="48.54422" lon="2.13791">
        <ele>150</ele>
        <time>2021-03-07T11:56:09.745Z</time>
      </trkpt>
      <trkpt lat="48.54422" lon="2.13791">
        <ele>150</ele>
        <time>2021-03-07T11:56:10.746Z</time>
      </trkpt>
      <trkpt lat="48.54422" lon="2.1379">
        <ele>150</ele>
        <time>2021-03-07T11:56:11.745Z</time>
      </trkpt>
      <trkpt lat="48.54423" lon="2.13788">
        <ele>150</ele>
        <time>2021-03-07T11:56:12.746Z</time>
      </trkpt>
      <trkpt lat="48.54424" lon="2.13787">
        <ele>150</ele>
        <time>2021-03-07T11:56:13.745Z</time>
      </trkpt>
      <trkpt lat="48.54424" lon="2.13786">
        <ele>151</ele>
        <time>2021-03-07T11:56:14.745Z</time>
      </trkpt>
      <trkpt lat="48.54424" lon="2.13784">
        <ele>151</ele>
        <time>2021-03-07T11:56:15.745Z</time>
      </trkpt>
      <trkpt lat="48.54424" lon="2.13782">
        <ele>151</ele>
        <time>2021-03-07T11:56:16.745Z</time>
      </trkpt>
      <trkpt lat="48.54424" lon="2.13781">
        <ele>152</ele>
        <time>2021-03-07T11:56:17.745Z</time>
      </trkpt>
      <trkpt lat="48.54425" lon="2.1378">
        <ele>152</ele>
        <time>2021-03-07T11:56:18.746Z</time>
      </trkpt>
      <trkpt lat="48.54425" lon="2.13779">
        <ele>153</ele>
        <time>2021-03-07T11:56:19.746Z</time>
      </trkpt>
      <trkpt lat="48.54426" lon="2.13776">
        <ele>154</ele>
        <time>2021-03-07T11:56:20.745Z</time>
      </trkpt>
      <trkpt lat="48.54426" lon="2.13775">
        <ele>155</ele>
        <time>2021-03-07T11:56:21.746Z</time>
      </trkpt>
      <trkpt lat="48.54427" lon="2.13774">
        <ele>156</ele>
        <time>2021-03-07T11:56:22.746Z</time>
      </trkpt>
      <trkpt lat="48.54427" lon="2.13772">
        <ele>156</ele>
        <time>2021-03-07T11:56:23.745Z</time>
      </trkpt>
      <trkpt lat="48.54427" lon="2.1377">
        <ele>157</ele>
        <time>2021-03-07T11:56:24.746Z</time>
      </trkpt>
      <trkpt lat="48.54426" lon="2.13767">
        <ele>158</ele>
        <time>2021-03-07T11:56:25.745Z</time>
      </trkpt>
      <trkpt lat="48.54425" lon="2.13764">
        <ele>158</ele>
        <time>2021-03-07T11:56:26.746Z</time>
      </trkpt>
      <trkpt lat="48.54425" lon="2.13762">
        <ele>159</ele>
        <time>2021-03-07T11:56:27.745Z</time>
      </trkpt>
      <trkpt lat="48.54427" lon="2.13759">
        <ele>160</ele>
        <time>2021-03-07T11:56:28.745Z</time>
      </trkpt>
      <trkpt lat="48.54427" lon="2.13757">
        <ele>160</ele>
        <time>2021-03-07T11:56:29.746Z</time>
      </trkpt>
      <trkpt lat="48.54427" lon="2.13755">
        <ele>160</ele>
        <time>2021-03-07T11:56:30.745Z</time>
      </trkpt>
      <trkpt lat="48.54428" lon="2.13753">
        <ele>161</ele>
        <time>2021-03-07T11:56:31.745Z</time>
      </trkpt>
      <trkpt lat="48.54428" lon="2.13751">
        <ele>161</ele>
        <time>2021-03-07T11:56:32.746Z</time>
      </trkpt>
      <trkpt lat="48.54428" lon="2.13749">
        <ele>161</ele>
        <time>2021-03-07T11:56:33.745Z</time>
      </trkpt>
      <trkpt lat="48.54428" lon="2.13747">
        <ele>161</ele>
        <time>2021-03-07T11:56:34.745Z</time>
      </trkpt>
      <trkpt lat="48.54428" lon="2.13745">
        <ele>162</ele>
        <time>2021-03-07T11:56:35.745Z</time>
      </trkpt>
      <trkpt lat="48.54427" lon="2.13744">
        <ele>162</ele>
        <time>2021-03-07T11:56:36.745Z</time>
      </trkpt>
      <trkpt lat="48.54427" lon="2.13742">
        <ele>162</ele>
        <time>2021-03-07T11:56:37.746Z</time>
      </trkpt>
      <trkpt lat="48.54427" lon="2.1374">
        <ele>162</ele>
        <time>2021-03-07T11:56:38.745Z</time>
      </trkpt>
      <trkpt lat="48.54428" lon="2.13738">
        <ele>163</ele>
        <time>2021-03-07T11:56:39.746Z</time>
      </trkpt>
      <trkpt lat="48.54428" lon="2.13737">
        <ele>163</ele>
        <time>2021-03-07T11:56:40.745Z</time>
      </trkpt>
      <trkpt lat="48.54427" lon="2.13735">
        <ele>163</ele>
        <time>2021-03-07T11:56:41.746Z</time>
      </trkpt>
      <trkpt lat="48.54426" lon="2.13733">
        <ele>163</ele>
        <time>2021-03-07T11:56:42.745Z</time>
      </trkpt>
      <trkpt lat="48.54425" lon="2.13731">
        <ele>164</ele>
        <time>2021-03-07T11:56:43.746Z</time>
      </trkpt>
      <trkpt lat="48.54425" lon="2.1373">
        <ele>164</ele>
        <time>2021-03-07T11:56:44.745Z</time>
      </trkpt>
      <trkpt lat="48.54424" lon="2.13728">
        <ele>164</ele>
        <time>2021-03-07T11:56:45.746Z</time>
      </trkpt>
      <trkpt lat="48.54424" lon="2.13726">
        <ele>164</ele>
        <time>2021-03-07T11:56:46.745Z</time>
      </trkpt>
      <trkpt lat="48.54424" lon="2.13725">
        <ele>163</ele>
        <time>2021-03-07T11:56:47.745Z</time>
      </trkpt>
      <trkpt lat="48.54424" lon="2.13723">
        <ele>163</ele>
        <time>2021-03-07T11:56:48.745Z</time>
      </trkpt>
      <trkpt lat="48.54425" lon="2.13721">
        <ele>163</ele>
        <time>2021-03-07T11:56:49.745Z</time>
      </trkpt>
      <trkpt lat="48.54425" lon="2.1372">
        <ele>162</ele>
        <time>2021-03-07T11:56:50.746Z</time>
      </trkpt>
      <trkpt lat="48.54425" lon="2.13718">
        <ele>162</ele>
        <time>2021-03-07T11:56:51.745Z</time>
      </trkpt>
      <trkpt lat="48.54426" lon="2.13716">
        <ele>162</ele>
        <time>2021-03-07T11:56:52.745Z</time>
      </trkpt>
      <trkpt lat="48.54426" lon="2.13715">
        <ele>161</ele>
        <time>2021-03-07T11:56:53.745Z</time>
      </trkpt>
      <trkpt lat="48.54427" lon="2.13713">
        <ele>161</ele>
        <time>2021-03-07T11:56:54.745Z</time>
      </trkpt>
      <trkpt lat="48.54429" lon="2.13711">
        <ele>161</ele>
        <time>2021-03-07T11:56:55.745Z</time>
      </trkpt>
      <trkpt lat="48.5443" lon="2.13709">
        <ele>161</ele>
        <time>2021-03-07T11:56:56.745Z</time>
      </trkpt>
      <trkpt lat="48.54431" lon="2.13707">
        <ele>161</ele>
        <time>2021-03-07T11:56:57.746Z</time>
      </trkpt>
      <trkpt lat="48.54432" lon="2.13704">
        <ele>161</ele>
        <time>2021-03-07T11:56:58.745Z</time>
      </trkpt>
      <trkpt lat="48.54433" lon="2.13701">
        <ele>161</ele>
        <time>2021-03-07T11:56:59.746Z</time>
      </trkpt>
      <trkpt lat="48.54435" lon="2.13699">
        <ele>161</ele>
        <time>2021-03-07T11:57:00.745Z</time>
      </trkpt>
      <trkpt lat="48.54436" lon="2.13697">
        <ele>161</ele>
        <time>2021-03-07T11:57:01.745Z</time>
      </trkpt>
      <trkpt lat="48.54437" lon="2.13696">
        <ele>161</ele>
        <time>2021-03-07T11:57:02.745Z</time>
      </trkpt>
      <trkpt lat="48.54438" lon="2.13694">
        <ele>161</ele>
        <time>2021-03-07T11:57:03.745Z</time>
      </trkpt>
      <trkpt lat="48.54438" lon="2.13692">
        <ele>161</ele>
        <time>2021-03-07T11:57:04.746Z</time>
      </trkpt>
      <trkpt lat="48.54438" lon="2.13689">
        <ele>161</ele>
        <time>2021-03-07T11:57:05.745Z</time>
      </trkpt>
      <trkpt lat="48.54437" lon="2.13688">
        <ele>160</ele>
        <time>2021-03-07T11:57:06.745Z</time>
      </trkpt>
      <trkpt lat="48.54437" lon="2.13686">
        <ele>160</ele>
        <time>2021-03-07T11:57:07.745Z</time>
      </trkpt>
      <trkpt lat="48.54438" lon="2.13685">
        <ele>161</ele>
        <time>2021-03-07T11:57:08.745Z</time>
      </trkpt>
      <trkpt lat="48.54439" lon="2.13684">
        <ele>161</ele>
        <time>2021-03-07T11:57:09.746Z</time>
      </trkpt>
      <trkpt lat="48.54441" lon="2.13682">
        <ele>161</ele>
        <time>2021-03-07T11:57:10.746Z</time>
      </trkpt>
      <trkpt lat="48.54442" lon="2.13681">
        <ele>161</ele>
        <time>2021-03-07T11:57:11.745Z</time>
      </trkpt>
      <trkpt lat="48.54444" lon="2.13679">
        <ele>162</ele>
        <time>2021-03-07T11:57:12.745Z</time>
      </trkpt>
      <trkpt lat="48.54446" lon="2.13677">
        <ele>162</ele>
        <time>2021-03-07T11:57:13.745Z</time>
      </trkpt>
      <trkpt lat="48.54448" lon="2.13676">
        <ele>162</ele>
        <time>2021-03-07T11:57:14.746Z</time>
      </trkpt>
      <trkpt lat="48.54449" lon="2.13674">
        <ele>162</ele>
        <time>2021-03-07T11:57:15.745Z</time>
      </trkpt>
      <trkpt lat="48.5445" lon="2.13673">
        <ele>162</ele>
        <time>2021-03-07T11:57:16.745Z</time>
      </trkpt>
      <trkpt lat="48.54452" lon="2.13672">
        <ele>162</ele>
        <time>2021-03-07T11:57:17.745Z</time>
      </trkpt>
      <trkpt lat="48.54453" lon="2.13672">
        <ele>162</ele>
        <time>2021-03-07T11:57:18.745Z</time>
      </trkpt>
      <trkpt lat="48.54454" lon="2.13672">
        <ele>162</ele>
        <time>2021-03-07T11:57:19.746Z</time>
      </trkpt>
      <trkpt lat="48.54456" lon="2.13671">
        <ele>161</ele>
        <time>2021-03-07T11:57:20.745Z</time>
      </trkpt>
      <trkpt lat="48.54457" lon="2.13671">
        <ele>160</ele>
        <time>2021-03-07T11:57:21.745Z</time>
      </trkpt>
      <trkpt lat="48.54459" lon="2.13671">
        <ele>160</ele>
        <time>2021-03-07T11:57:22.746Z</time>
      </trkpt>
      <trkpt lat="48.54461" lon="2.13672">
        <ele>159</ele>
        <time>2021-03-07T11:57:23.745Z</time>
      </trkpt>
      <trkpt lat="48.54462" lon="2.13672">
        <ele>158</ele>
        <time>2021-03-07T11:57:24.746Z</time>
      </trkpt>
      <trkpt lat="48.54464" lon="2.13673">
        <ele>157</ele>
        <time>2021-03-07T11:57:25.746Z</time>
      </trkpt>
      <trkpt lat="48.54465" lon="2.13674">
        <ele>157</ele>
        <time>2021-03-07T11:57:26.745Z</time>
      </trkpt>
      <trkpt lat="48.54466" lon="2.13674">
        <ele>155</ele>
        <time>2021-03-07T11:57:27.745Z</time>
      </trkpt>
      <trkpt lat="48.54467" lon="2.13674">
        <ele>154</ele>
        <time>2021-03-07T11:57:28.745Z</time>
      </trkpt>
      <trkpt lat="48.54469" lon="2.13673">
        <ele>153</ele>
        <time>2021-03-07T11:57:29.746Z</time>
      </trkpt>
      <trkpt lat="48.5447" lon="2.13672">
        <ele>152</ele>
        <time>2021-03-07T11:57:30.745Z</time>
      </trkpt>
      <trkpt lat="48.54472" lon="2.13672">
        <ele>152</ele>
        <time>2021-03-07T11:57:31.746Z</time>
      </trkpt>
      <trkpt lat="48.54473" lon="2.13671">
        <ele>152</ele>
        <time>2021-03-07T11:57:32.745Z</time>
      </trkpt>
      <trkpt lat="48.54474" lon="2.1367">
        <ele>151</ele>
        <time>2021-03-07T11:57:33.746Z</time>
      </trkpt>
      <trkpt lat="48.54475" lon="2.13669">
        <ele>151</ele>
        <time>2021-03-07T11:57:34.746Z</time>
      </trkpt>
      <trkpt lat="48.54476" lon="2.13668">
        <ele>152</ele>
        <time>2021-03-07T11:57:35.745Z</time>
      </trkpt>
      <trkpt lat="48.54477" lon="2.13667">
        <ele>152</ele>
        <time>2021-03-07T11:57:36.746Z</time>
      </trkpt>
      <trkpt lat="48.54478" lon="2.13666">
        <ele>152</ele>
        <time>2021-03-07T11:57:37.745Z</time>
      </trkpt>
      <trkpt lat="48.54479" lon="2.13666">
        <ele>152</ele>
        <time>2021-03-07T11:57:38.746Z</time>
      </trkpt>
      <trkpt lat="48.5448" lon="2.13665">
        <ele>152</ele>
        <time>2021-03-07T11:57:39.745Z</time>
      </trkpt>
      <trkpt lat="48.54482" lon="2.13663">
        <ele>152</ele>
        <time>2021-03-07T11:57:40.746Z</time>
      </trkpt>
      <trkpt lat="48.54484" lon="2.13661">
        <ele>152</ele>
        <time>2021-03-07T11:57:41.745Z</time>
      </trkpt>
      <trkpt lat="48.54485" lon="2.1366">
        <ele>152</ele>
        <time>2021-03-07T11:57:42.746Z</time>
      </trkpt>
      <trkpt lat="48.54486" lon="2.13658">
        <ele>152</ele>
        <time>2021-03-07T11:57:43.745Z</time>
      </trkpt>
      <trkpt lat="48.54487" lon="2.13657">
        <ele>152</ele>
        <time>2021-03-07T11:57:44.746Z</time>
      </trkpt>
      <trkpt lat="48.54488" lon="2.13656">
        <ele>152</ele>
        <time>2021-03-07T11:57:45.745Z</time>
      </trkpt>
      <trkpt lat="48.54489" lon="2.13654">
        <ele>153</ele>
        <time>2021-03-07T11:57:46.746Z</time>
      </trkpt>
      <trkpt lat="48.5449" lon="2.13654">
        <ele>153</ele>
        <time>2021-03-07T11:57:47.745Z</time>
      </trkpt>
      <trkpt lat="48.5449" lon="2.13653">
        <ele>154</ele>
        <time>2021-03-07T11:57:48.746Z</time>
      </trkpt>
      <trkpt lat="48.54491" lon="2.13652">
        <ele>154</ele>
        <time>2021-03-07T11:57:49.745Z</time>
      </trkpt>
      <trkpt lat="48.54491" lon="2.13652">
        <ele>154</ele>
        <time>2021-03-07T11:57:50.745Z</time>
      </trkpt>
      <trkpt lat="48.54492" lon="2.1365">
        <ele>155</ele>
        <time>2021-03-07T11:57:51.746Z</time>
      </trkpt>
      <trkpt lat="48.54494" lon="2.13649">
        <ele>155</ele>
        <time>2021-03-07T11:57:52.745Z</time>
      </trkpt>
      <trkpt lat="48.54495" lon="2.13647">
        <ele>156</ele>
        <time>2021-03-07T11:57:53.746Z</time>
      </trkpt>
      <trkpt lat="48.54496" lon="2.13646">
        <ele>156</ele>
        <time>2021-03-07T11:57:54.745Z</time>
      </trkpt>
      <trkpt lat="48.54498" lon="2.13644">
        <ele>156</ele>
        <time>2021-03-07T11:57:55.746Z</time>
      </trkpt>
      <trkpt lat="48.54499" lon="2.13643">
        <ele>156</ele>
        <time>2021-03-07T11:57:56.745Z</time>
      </trkpt>
      <trkpt lat="48.545" lon="2.13642">
        <ele>156</ele>
        <time>2021-03-07T11:57:57.746Z</time>
      </trkpt>
      <trkpt lat="48.54501" lon="2.13641">
        <ele>156</ele>
        <time>2021-03-07T11:57:58.745Z</time>
      </trkpt>
      <trkpt lat="48.54502" lon="2.1364">
        <ele>155</ele>
        <time>2021-03-07T11:57:59.746Z</time>
      </trkpt>
      <trkpt lat="48.54503" lon="2.13639">
        <ele>155</ele>
        <time>2021-03-07T11:58:00.745Z</time>
      </trkpt>
      <trkpt lat="48.54503" lon="2.13639">
        <ele>155</ele>
        <time>2021-03-07T11:58:01.745Z</time>
      </trkpt>
      <trkpt lat="48.54503" lon="2.13637">
        <ele>155</ele>
        <time>2021-03-07T11:58:02.745Z</time>
      </trkpt>
      <trkpt lat="48.54505" lon="2.13636">
        <ele>155</ele>
        <time>2021-03-07T11:58:03.745Z</time>
      </trkpt>
      <trkpt lat="48.54506" lon="2.13635">
        <ele>155</ele>
        <time>2021-03-07T11:58:04.745Z</time>
      </trkpt>
      <trkpt lat="48.54507" lon="2.13634">
        <ele>155</ele>
        <time>2021-03-07T11:58:05.746Z</time>
      </trkpt>
      <trkpt lat="48.54508" lon="2.13634">
        <ele>155</ele>
        <time>2021-03-07T11:58:06.745Z</time>
      </trkpt>
      <trkpt lat="48.54509" lon="2.13633">
        <ele>154</ele>
        <time>2021-03-07T11:58:07.746Z</time>
      </trkpt>
      <trkpt lat="48.5451" lon="2.13632">
        <ele>154</ele>
        <time>2021-03-07T11:58:08.745Z</time>
      </trkpt>
      <trkpt lat="48.54511" lon="2.13631">
        <ele>153</ele>
        <time>2021-03-07T11:58:09.745Z</time>
      </trkpt>
      <trkpt lat="48.54512" lon="2.1363">
        <ele>153</ele>
        <time>2021-03-07T11:58:10.745Z</time>
      </trkpt>
      <trkpt lat="48.54513" lon="2.13629">
        <ele>153</ele>
        <time>2021-03-07T11:58:11.745Z</time>
      </trkpt>
      <trkpt lat="48.54514" lon="2.13628">
        <ele>153</ele>
        <time>2021-03-07T11:58:12.746Z</time>
      </trkpt>
      <trkpt lat="48.54515" lon="2.13628">
        <ele>152</ele>
        <time>2021-03-07T11:58:13.745Z</time>
      </trkpt>
      <trkpt lat="48.54517" lon="2.13627">
        <ele>151</ele>
        <time>2021-03-07T11:58:14.745Z</time>
      </trkpt>
      <trkpt lat="48.54518" lon="2.13626">
        <ele>151</ele>
        <time>2021-03-07T11:58:15.745Z</time>
      </trkpt>
      <trkpt lat="48.54519" lon="2.13626">
        <ele>150</ele>
        <time>2021-03-07T11:58:16.746Z</time>
      </trkpt>
      <trkpt lat="48.5452" lon="2.13625">
        <ele>149</ele>
        <time>2021-03-07T11:58:17.745Z</time>
      </trkpt>
      <trkpt lat="48.54521" lon="2.13625">
        <ele>148</ele>
        <time>2021-03-07T11:58:18.746Z</time>
      </trkpt>
      <trkpt lat="48.54523" lon="2.13624">
        <ele>147</ele>
        <time>2021-03-07T11:58:19.745Z</time>
      </trkpt>
      <trkpt lat="48.54524" lon="2.13624">
        <ele>147</ele>
        <time>2021-03-07T11:58:20.746Z</time>
      </trkpt>
      <trkpt lat="48.54525" lon="2.13624">
        <ele>147</ele>
        <time>2021-03-07T11:58:21.745Z</time>
      </trkpt>
      <trkpt lat="48.54526" lon="2.13623">
        <ele>147</ele>
        <time>2021-03-07T11:58:22.745Z</time>
      </trkpt>
      <trkpt lat="48.54527" lon="2.13622">
        <ele>147</ele>
        <time>2021-03-07T11:58:23.745Z</time>
      </trkpt>
      <trkpt lat="48.54529" lon="2.13621">
        <ele>146</ele>
        <time>2021-03-07T11:58:24.745Z</time>
      </trkpt>
      <trkpt lat="48.5453" lon="2.13621">
        <ele>146</ele>
        <time>2021-03-07T11:58:25.746Z</time>
      </trkpt>
      <trkpt lat="48.54531" lon="2.1362">
        <ele>146</ele>
        <time>2021-03-07T11:58:26.745Z</time>
      </trkpt>
      <trkpt lat="48.54532" lon="2.13619">
        <ele>146</ele>
        <time>2021-03-07T11:58:27.745Z</time>
      </trkpt>
      <trkpt lat="48.54533" lon="2.13618">
        <ele>146</ele>
        <time>2021-03-07T11:58:28.746Z</time>
      </trkpt>
      <trkpt lat="48.54533" lon="2.13617">
        <ele>146</ele>
        <time>2021-03-07T11:58:29.745Z</time>
      </trkpt>
      <trkpt lat="48.54534" lon="2.13615">
        <ele>146</ele>
        <time>2021-03-07T11:58:30.745Z</time>
      </trkpt>
      <trkpt lat="48.54534" lon="2.13614">
        <ele>146</ele>
        <time>2021-03-07T11:58:31.745Z</time>
      </trkpt>
      <trkpt lat="48.54534" lon="2.13612">
        <ele>146</ele>
        <time>2021-03-07T11:58:32.745Z</time>
      </trkpt>
      <trkpt lat="48.54534" lon="2.13611">
        <ele>146</ele>
        <time>2021-03-07T11:58:33.746Z</time>
      </trkpt>
      <trkpt lat="48.54535" lon="2.1361">
        <ele>145</ele>
        <time>2021-03-07T11:58:34.745Z</time>
      </trkpt>
      <trkpt lat="48.54535" lon="2.13609">
        <ele>145</ele>
        <time>2021-03-07T11:58:35.745Z</time>
      </trkpt>
      <trkpt lat="48.54535" lon="2.13607">
        <ele>146</ele>
        <time>2021-03-07T11:58:36.746Z</time>
      </trkpt>
      <trkpt lat="48.54536" lon="2.13606">
        <ele>146</ele>
        <time>2021-03-07T11:58:37.746Z</time>
      </trkpt>
      <trkpt lat="48.54536" lon="2.13604">
        <ele>146</ele>
        <time>2021-03-07T11:58:38.746Z</time>
      </trkpt>
      <trkpt lat="48.54536" lon="2.13602">
        <ele>146</ele>
        <time>2021-03-07T11:58:39.745Z</time>
      </trkpt>
      <trkpt lat="48.54536" lon="2.136">
        <ele>147</ele>
        <time>2021-03-07T11:58:40.745Z</time>
      </trkpt>
      <trkpt lat="48.54536" lon="2.13598">
        <ele>147</ele>
        <time>2021-03-07T11:58:41.746Z</time>
      </trkpt>
      <trkpt lat="48.54535" lon="2.13595">
        <ele>147</ele>
        <time>2021-03-07T11:58:42.746Z</time>
      </trkpt>
      <trkpt lat="48.54534" lon="2.13592">
        <ele>147</ele>
        <time>2021-03-07T11:58:43.745Z</time>
      </trkpt>
      <trkpt lat="48.54534" lon="2.13589">
        <ele>146</ele>
        <time>2021-03-07T11:58:44.745Z</time>
      </trkpt>
      <trkpt lat="48.54533" lon="2.13587">
        <ele>146</ele>
        <time>2021-03-07T11:58:45.745Z</time>
      </trkpt>
      <trkpt lat="48.54533" lon="2.13585">
        <ele>146</ele>
        <time>2021-03-07T11:58:46.745Z</time>
      </trkpt>
      <trkpt lat="48.54532" lon="2.13584">
        <ele>145</ele>
        <time>2021-03-07T11:58:47.745Z</time>
      </trkpt>
      <trkpt lat="48.54532" lon="2.13582">
        <ele>145</ele>
        <time>2021-03-07T11:58:48.746Z</time>
      </trkpt>
      <trkpt lat="48.54532" lon="2.1358">
        <ele>145</ele>
        <time>2021-03-07T11:58:49.745Z</time>
      </trkpt>
      <trkpt lat="48.54532" lon="2.13578">
        <ele>144</ele>
        <time>2021-03-07T11:58:50.745Z</time>
      </trkpt>
      <trkpt lat="48.54532" lon="2.13576">
        <ele>144</ele>
        <time>2021-03-07T11:58:51.746Z</time>
      </trkpt>
      <trkpt lat="48.54531" lon="2.13574">
        <ele>143</ele>
        <time>2021-03-07T11:58:52.745Z</time>
      </trkpt>
      <trkpt lat="48.54531" lon="2.13572">
        <ele>143</ele>
        <time>2021-03-07T11:58:53.746Z</time>
      </trkpt>
      <trkpt lat="48.54532" lon="2.13571">
        <ele>143</ele>
        <time>2021-03-07T11:58:54.746Z</time>
      </trkpt>
      <trkpt lat="48.54532" lon="2.13569">
        <ele>142</ele>
        <time>2021-03-07T11:58:55.745Z</time>
      </trkpt>
      <trkpt lat="48.54532" lon="2.13568">
        <ele>142</ele>
        <time>2021-03-07T11:58:56.745Z</time>
      </trkpt>
      <trkpt lat="48.54533" lon="2.13566">
        <ele>142</ele>
        <time>2021-03-07T11:58:57.745Z</time>
      </trkpt>
      <trkpt lat="48.54533" lon="2.13564">
        <ele>141</ele>
        <time>2021-03-07T11:58:58.745Z</time>
      </trkpt>
      <trkpt lat="48.54533" lon="2.13562">
        <ele>140</ele>
        <time>2021-03-07T11:58:59.745Z</time>
      </trkpt>
      <trkpt lat="48.54534" lon="2.1356">
        <ele>140</ele>
        <time>2021-03-07T11:59:00.745Z</time>
      </trkpt>
      <trkpt lat="48.54534" lon="2.13557">
        <ele>139</ele>
        <time>2021-03-07T11:59:01.745Z</time>
      </trkpt>
      <trkpt lat="48.54535" lon="2.13555">
        <ele>138</ele>
        <time>2021-03-07T11:59:02.746Z</time>
      </trkpt>
      <trkpt lat="48.54535" lon="2.13553">
        <ele>138</ele>
        <time>2021-03-07T11:59:03.745Z</time>
      </trkpt>
      <trkpt lat="48.54537" lon="2.13551">
        <ele>137</ele>
        <time>2021-03-07T11:59:04.746Z</time>
      </trkpt>
      <trkpt lat="48.54538" lon="2.13549">
        <ele>137</ele>
        <time>2021-03-07T11:59:05.745Z</time>
      </trkpt>
      <trkpt lat="48.54539" lon="2.13548">
        <ele>136</ele>
        <time>2021-03-07T11:59:06.745Z</time>
      </trkpt>
      <trkpt lat="48.54539" lon="2.13546">
        <ele>136</ele>
        <time>2021-03-07T11:59:07.745Z</time>
      </trkpt>
      <trkpt lat="48.5454" lon="2.13545">
        <ele>136</ele>
        <time>2021-03-07T11:59:08.745Z</time>
      </trkpt>
      <trkpt lat="48.54541" lon="2.13543">
        <ele>135</ele>
        <time>2021-03-07T11:59:09.745Z</time>
      </trkpt>
      <trkpt lat="48.54541" lon="2.13541">
        <ele>135</ele>
        <time>2021-03-07T11:59:10.745Z</time>
      </trkpt>
      <trkpt lat="48.54543" lon="2.1354">
        <ele>135</ele>
        <time>2021-03-07T11:59:11.745Z</time>
      </trkpt>
      <trkpt lat="48.54543" lon="2.13538">
        <ele>135</ele>
        <time>2021-03-07T11:59:12.746Z</time>
      </trkpt>
      <trkpt lat="48.54544" lon="2.13536">
        <ele>135</ele>
        <time>2021-03-07T11:59:13.746Z</time>
      </trkpt>
      <trkpt lat="48.54544" lon="2.13534">
        <ele>134</ele>
        <time>2021-03-07T11:59:14.745Z</time>
      </trkpt>
      <trkpt lat="48.54545" lon="2.13532">
        <ele>134</ele>
        <time>2021-03-07T11:59:15.745Z</time>
      </trkpt>
      <trkpt lat="48.54546" lon="2.1353">
        <ele>134</ele>
        <time>2021-03-07T11:59:16.746Z</time>
      </trkpt>
      <trkpt lat="48.54547" lon="2.13527">
        <ele>134</ele>
        <time>2021-03-07T11:59:17.745Z</time>
      </trkpt>
      <trkpt lat="48.54547" lon="2.13525">
        <ele>134</ele>
        <time>2021-03-07T11:59:18.746Z</time>
      </trkpt>
      <trkpt lat="48.54548" lon="2.13524">
        <ele>133</ele>
        <time>2021-03-07T11:59:19.745Z</time>
      </trkpt>
      <trkpt lat="48.54549" lon="2.13522">
        <ele>133</ele>
        <time>2021-03-07T11:59:20.746Z</time>
      </trkpt>
      <trkpt lat="48.54549" lon="2.13521">
        <ele>133</ele>
        <time>2021-03-07T11:59:21.745Z</time>
      </trkpt>
      <trkpt lat="48.54549" lon="2.1352">
        <ele>133</ele>
        <time>2021-03-07T11:59:22.746Z</time>
      </trkpt>
      <trkpt lat="48.5455" lon="2.13519">
        <ele>133</ele>
        <time>2021-03-07T11:59:23.745Z</time>
      </trkpt>
      <trkpt lat="48.5455" lon="2.13517">
        <ele>133</ele>
        <time>2021-03-07T11:59:24.746Z</time>
      </trkpt>
      <trkpt lat="48.54551" lon="2.13516">
        <ele>133</ele>
        <time>2021-03-07T11:59:25.745Z</time>
      </trkpt>
      <trkpt lat="48.54552" lon="2.13515">
        <ele>132</ele>
        <time>2021-03-07T11:59:26.746Z</time>
      </trkpt>
      <trkpt lat="48.54553" lon="2.13513">
        <ele>131</ele>
        <time>2021-03-07T11:59:27.745Z</time>
      </trkpt>
      <trkpt lat="48.54554" lon="2.13512">
        <ele>131</ele>
        <time>2021-03-07T11:59:28.745Z</time>
      </trkpt>
      <trkpt lat="48.54554" lon="2.1351">
        <ele>130</ele>
        <time>2021-03-07T11:59:29.745Z</time>
      </trkpt>
      <trkpt lat="48.54555" lon="2.13508">
        <ele>130</ele>
        <time>2021-03-07T11:59:30.745Z</time>
      </trkpt>
      <trkpt lat="48.54555" lon="2.13507">
        <ele>129</ele>
        <time>2021-03-07T11:59:31.745Z</time>
      </trkpt>
      <trkpt lat="48.54556" lon="2.13506">
        <ele>129</ele>
        <time>2021-03-07T11:59:32.745Z</time>
      </trkpt>
      <trkpt lat="48.54556" lon="2.13505">
        <ele>128</ele>
        <time>2021-03-07T11:59:33.745Z</time>
      </trkpt>
      <trkpt lat="48.54558" lon="2.13503">
        <ele>128</ele>
        <time>2021-03-07T11:59:34.746Z</time>
      </trkpt>
      <trkpt lat="48.54559" lon="2.13502">
        <ele>127</ele>
        <time>2021-03-07T11:59:35.746Z</time>
      </trkpt>
      <trkpt lat="48.5456" lon="2.135">
        <ele>126</ele>
        <time>2021-03-07T11:59:36.745Z</time>
      </trkpt>
      <trkpt lat="48.54561" lon="2.13499">
        <ele>125</ele>
        <time>2021-03-07T11:59:37.745Z</time>
      </trkpt>
      <trkpt lat="48.54563" lon="2.13497">
        <ele>124</ele>
        <time>2021-03-07T11:59:38.745Z</time>
      </trkpt>
      <trkpt lat="48.54563" lon="2.13495">
        <ele>123</ele>
        <time>2021-03-07T11:59:39.745Z</time>
      </trkpt>
      <trkpt lat="48.54564" lon="2.13492">
        <ele>122</ele>
        <time>2021-03-07T11:59:40.745Z</time>
      </trkpt>
      <trkpt lat="48.54565" lon="2.13489">
        <ele>121</ele>
        <time>2021-03-07T11:59:41.746Z</time>
      </trkpt>
      <trkpt lat="48.54566" lon="2.13488">
        <ele>121</ele>
        <time>2021-03-07T11:59:42.745Z</time>
      </trkpt>
      <trkpt lat="48.54567" lon="2.13485">
        <ele>121</ele>
        <time>2021-03-07T11:59:43.745Z</time>
      </trkpt>
      <trkpt lat="48.54568" lon="2.13484">
        <ele>121</ele>
        <time>2021-03-07T11:59:44.745Z</time>
      </trkpt>
      <trkpt lat="48.54569" lon="2.13483">
        <ele>122</ele>
        <time>2021-03-07T11:59:45.746Z</time>
      </trkpt>
      <trkpt lat="48.54569" lon="2.13481">
        <ele>122</ele>
        <time>2021-03-07T11:59:46.745Z</time>
      </trkpt>
      <trkpt lat="48.5457" lon="2.1348">
        <ele>122</ele>
        <time>2021-03-07T11:59:47.745Z</time>
      </trkpt>
      <trkpt lat="48.54571" lon="2.13479">
        <ele>123</ele>
        <time>2021-03-07T11:59:48.745Z</time>
      </trkpt>
      <trkpt lat="48.54572" lon="2.13477">
        <ele>123</ele>
        <time>2021-03-07T11:59:49.745Z</time>
      </trkpt>
      <trkpt lat="48.54572" lon="2.13475">
        <ele>123</ele>
        <time>2021-03-07T11:59:50.745Z</time>
      </trkpt>
      <trkpt lat="48.54573" lon="2.13474">
        <ele>123</ele>
        <time>2021-03-07T11:59:51.745Z</time>
      </trkpt>
      <trkpt lat="48.54574" lon="2.13472">
        <ele>123</ele>
        <time>2021-03-07T11:59:52.745Z</time>
      </trkpt>
      <trkpt lat="48.54575" lon="2.13471">
        <ele>123</ele>
        <time>2021-03-07T11:59:53.745Z</time>
      </trkpt>
      <trkpt lat="48.54576" lon="2.13469">
        <ele>123</ele>
        <time>2021-03-07T11:59:54.745Z</time>
      </trkpt>
      <trkpt lat="48.54578" lon="2.13467">
        <ele>123</ele>
        <time>2021-03-07T11:59:55.745Z</time>
      </trkpt>
      <trkpt lat="48.54579" lon="2.13465">
        <ele>123</ele>
        <time>2021-03-07T11:59:56.745Z</time>
      </trkpt>
      <trkpt lat="48.54579" lon="2.13463">
        <ele>123</ele>
        <time>2021-03-07T11:59:57.745Z</time>
      </trkpt>
      <trkpt lat="48.5458" lon="2.13462">
        <ele>122</ele>
        <time>2021-03-07T11:59:58.746Z</time>
      </trkpt>
      <trkpt lat="48.54581" lon="2.13461">
        <ele>122</ele>
        <time>2021-03-07T11:59:59.745Z</time>
      </trkpt>
      <trkpt lat="48.54581" lon="2.13459">
        <ele>121</ele>
        <time>2021-03-07T12:00:00.746Z</time>
      </trkpt>
      <trkpt lat="48.54583" lon="2.13455">
        <ele>121</ele>
        <time>2021-03-07T12:00:01.745Z</time>
      </trkpt>
      <trkpt lat="48.54583" lon="2.13452">
        <ele>120</ele>
        <time>2021-03-07T12:00:02.745Z</time>
      </trkpt>
      <trkpt lat="48.54584" lon="2.1345">
        <ele>120</ele>
        <time>2021-03-07T12:00:03.745Z</time>
      </trkpt>
      <trkpt lat="48.54584" lon="2.13447">
        <ele>120</ele>
        <time>2021-03-07T12:00:04.745Z</time>
      </trkpt>
      <trkpt lat="48.54586" lon="2.13444">
        <ele>121</ele>
        <time>2021-03-07T12:00:05.745Z</time>
      </trkpt>
      <trkpt lat="48.54587" lon="2.13442">
        <ele>121</ele>
        <time>2021-03-07T12:00:06.745Z</time>
      </trkpt>
      <trkpt lat="48.54588" lon="2.1344">
        <ele>121</ele>
        <time>2021-03-07T12:00:07.745Z</time>
      </trkpt>
      <trkpt lat="48.54589" lon="2.13439">
        <ele>121</ele>
        <time>2021-03-07T12:00:08.745Z</time>
      </trkpt>
      <trkpt lat="48.54589" lon="2.13437">
        <ele>121</ele>
        <time>2021-03-07T12:00:09.745Z</time>
      </trkpt>
      <trkpt lat="48.5459" lon="2.13435">
        <ele>120</ele>
        <time>2021-03-07T12:00:10.745Z</time>
      </trkpt>
      <trkpt lat="48.54591" lon="2.13434">
        <ele>120</ele>
        <time>2021-03-07T12:00:11.745Z</time>
      </trkpt>
      <trkpt lat="48.54591" lon="2.13431">
        <ele>119</ele>
        <time>2021-03-07T12:00:12.745Z</time>
      </trkpt>
      <trkpt lat="48.54592" lon="2.1343">
        <ele>119</ele>
        <time>2021-03-07T12:00:13.746Z</time>
      </trkpt>
      <trkpt lat="48.54593" lon="2.13428">
        <ele>119</ele>
        <time>2021-03-07T12:00:14.745Z</time>
      </trkpt>
      <trkpt lat="48.54595" lon="2.13427">
        <ele>119</ele>
        <time>2021-03-07T12:00:15.745Z</time>
      </trkpt>
      <trkpt lat="48.54596" lon="2.13425">
        <ele>119</ele>
        <time>2021-03-07T12:00:16.745Z</time>
      </trkpt>
      <trkpt lat="48.54596" lon="2.13423">
        <ele>119</ele>
        <time>2021-03-07T12:00:17.745Z</time>
      </trkpt>
      <trkpt lat="48.54597" lon="2.13419">
        <ele>119</ele>
        <time>2021-03-07T12:00:18.746Z</time>
      </trkpt>
      <trkpt lat="48.54597" lon="2.13415">
        <ele>119</ele>
        <time>2021-03-07T12:00:19.745Z</time>
      </trkpt>
      <trkpt lat="48.54597" lon="2.13412">
        <ele>120</ele>
        <time>2021-03-07T12:00:20.745Z</time>
      </trkpt>
      <trkpt lat="48.54599" lon="2.13409">
        <ele>120</ele>
        <time>2021-03-07T12:00:21.745Z</time>
      </trkpt>
      <trkpt lat="48.54599" lon="2.13406">
        <ele>121</ele>
        <time>2021-03-07T12:00:22.745Z</time>
      </trkpt>
      <trkpt lat="48.54599" lon="2.13404">
        <ele>122</ele>
        <time>2021-03-07T12:00:23.745Z</time>
      </trkpt>
      <trkpt lat="48.546" lon="2.13401">
        <ele>122</ele>
        <time>2021-03-07T12:00:24.745Z</time>
      </trkpt>
      <trkpt lat="48.54601" lon="2.13399">
        <ele>123</ele>
        <time>2021-03-07T12:00:25.745Z</time>
      </trkpt>
      <trkpt lat="48.54602" lon="2.13397">
        <ele>123</ele>
        <time>2021-03-07T12:00:26.745Z</time>
      </trkpt>
      <trkpt lat="48.54604" lon="2.13396">
        <ele>124</ele>
        <time>2021-03-07T12:00:27.745Z</time>
      </trkpt>
      <trkpt lat="48.54605" lon="2.13396">
        <ele>123</ele>
        <time>2021-03-07T12:00:28.745Z</time>
      </trkpt>
      <trkpt lat="48.54607" lon="2.13395">
        <ele>123</ele>
        <time>2021-03-07T12:00:29.745Z</time>
      </trkpt>
      <trkpt lat="48.54608" lon="2.13394">
        <ele>123</ele>
        <time>2021-03-07T12:00:30.745Z</time>
      </trkpt>
      <trkpt lat="48.54609" lon="2.13393">
        <ele>123</ele>
        <time>2021-03-07T12:00:31.745Z</time>
      </trkpt>
      <trkpt lat="48.5461" lon="2.13393">
        <ele>122</ele>
        <time>2021-03-07T12:00:32.745Z</time>
      </trkpt>
      <trkpt lat="48.54611" lon="2.13392">
        <ele>122</ele>
        <time>2021-03-07T12:00:33.746Z</time>
      </trkpt>
      <trkpt lat="48.54612" lon="2.13391">
        <ele>121</ele>
        <time>2021-03-07T12:00:34.745Z</time>
      </trkpt>
      <trkpt lat="48.54613" lon="2.13391">
        <ele>121</ele>
        <time>2021-03-07T12:00:35.745Z</time>
      </trkpt>
      <trkpt lat="48.54615" lon="2.1339">
        <ele>120</ele>
        <time>2021-03-07T12:00:36.745Z</time>
      </trkpt>
      <trkpt lat="48.54617" lon="2.13389">
        <ele>119</ele>
        <time>2021-03-07T12:00:37.745Z</time>
      </trkpt>
      <trkpt lat="48.54618" lon="2.13388">
        <ele>118</ele>
        <time>2021-03-07T12:00:38.746Z</time>
      </trkpt>
      <trkpt lat="48.5462" lon="2.13387">
        <ele>117</ele>
        <time>2021-03-07T12:00:39.745Z</time>
      </trkpt>
      <trkpt lat="48.54622" lon="2.13387">
        <ele>116</ele>
        <time>2021-03-07T12:00:40.746Z</time>
      </trkpt>
      <trkpt lat="48.54624" lon="2.13386">
        <ele>114</ele>
        <time>2021-03-07T12:00:41.745Z</time>
      </trkpt>
      <trkpt lat="48.54626" lon="2.13386">
        <ele>114</ele>
        <time>2021-03-07T12:00:42.745Z</time>
      </trkpt>
      <trkpt lat="48.54628" lon="2.13385">
        <ele>113</ele>
        <time>2021-03-07T12:00:43.745Z</time>
      </trkpt>
      <trkpt lat="48.54629" lon="2.13384">
        <ele>113</ele>
        <time>2021-03-07T12:00:44.745Z</time>
      </trkpt>
      <trkpt lat="48.5463" lon="2.13383">
        <ele>112</ele>
        <time>2021-03-07T12:00:45.745Z</time>
      </trkpt>
      <trkpt lat="48.54631" lon="2.13383">
        <ele>112</ele>
        <time>2021-03-07T12:00:46.745Z</time>
      </trkpt>
      <trkpt lat="48.54632" lon="2.13382">
        <ele>112</ele>
        <time>2021-03-07T12:00:47.745Z</time>
      </trkpt>
      <trkpt lat="48.54633" lon="2.13381">
        <ele>111</ele>
        <time>2021-03-07T12:00:48.745Z</time>
      </trkpt>
      <trkpt lat="48.54635" lon="2.1338">
        <ele>111</ele>
        <time>2021-03-07T12:00:49.745Z</time>
      </trkpt>
      <trkpt lat="48.54636" lon="2.13379">
        <ele>110</ele>
        <time>2021-03-07T12:00:50.746Z</time>
      </trkpt>
      <trkpt lat="48.54637" lon="2.13378">
        <ele>109</ele>
        <time>2021-03-07T12:00:51.745Z</time>
      </trkpt>
      <trkpt lat="48.54639" lon="2.13378">
        <ele>109</ele>
        <time>2021-03-07T12:00:52.746Z</time>
      </trkpt>
      <trkpt lat="48.54641" lon="2.13377">
        <ele>109</ele>
        <time>2021-03-07T12:00:53.745Z</time>
      </trkpt>
      <trkpt lat="48.54642" lon="2.13375">
        <ele>108</ele>
        <time>2021-03-07T12:00:54.746Z</time>
      </trkpt>
      <trkpt lat="48.54643" lon="2.13375">
        <ele>107</ele>
        <time>2021-03-07T12:00:55.745Z</time>
      </trkpt>
      <trkpt lat="48.54644" lon="2.13374">
        <ele>107</ele>
        <time>2021-03-07T12:00:56.746Z</time>
      </trkpt>
      <trkpt lat="48.54646" lon="2.13373">
        <ele>106</ele>
        <time>2021-03-07T12:00:57.745Z</time>
      </trkpt>
      <trkpt lat="48.54647" lon="2.13373">
        <ele>105</ele>
        <time>2021-03-07T12:00:58.745Z</time>
      </trkpt>
      <trkpt lat="48.54649" lon="2.13372">
        <ele>104</ele>
        <time>2021-03-07T12:00:59.745Z</time>
      </trkpt>
      <trkpt lat="48.5465" lon="2.13371">
        <ele>104</ele>
        <time>2021-03-07T12:01:00.746Z</time>
      </trkpt>
      <trkpt lat="48.54651" lon="2.1337">
        <ele>103</ele>
        <time>2021-03-07T12:01:01.745Z</time>
      </trkpt>
      <trkpt lat="48.54652" lon="2.13369">
        <ele>103</ele>
        <time>2021-03-07T12:01:02.746Z</time>
      </trkpt>
      <trkpt lat="48.54653" lon="2.13368">
        <ele>102</ele>
        <time>2021-03-07T12:01:03.745Z</time>
      </trkpt>
      <trkpt lat="48.54654" lon="2.13368">
        <ele>102</ele>
        <time>2021-03-07T12:01:04.745Z</time>
      </trkpt>
      <trkpt lat="48.54655" lon="2.13367">
        <ele>101</ele>
        <time>2021-03-07T12:01:05.745Z</time>
      </trkpt>
      <trkpt lat="48.54656" lon="2.13366">
        <ele>101</ele>
        <time>2021-03-07T12:01:06.745Z</time>
      </trkpt>
      <trkpt lat="48.54657" lon="2.13366">
        <ele>100</ele>
        <time>2021-03-07T12:01:07.746Z</time>
      </trkpt>
      <trkpt lat="48.54658" lon="2.13365">
        <ele>100</ele>
        <time>2021-03-07T12:01:08.745Z</time>
      </trkpt>
      <trkpt lat="48.54659" lon="2.13364">
        <ele>100</ele>
        <time>2021-03-07T12:01:09.746Z</time>
      </trkpt>
      <trkpt lat="48.54661" lon="2.13363">
        <ele>100</ele>
        <time>2021-03-07T12:01:10.745Z</time>
      </trkpt>
      <trkpt lat="48.54662" lon="2.13363">
        <ele>100</ele>
        <time>2021-03-07T12:01:11.746Z</time>
      </trkpt>
      <trkpt lat="48.54663" lon="2.13362">
        <ele>99</ele>
        <time>2021-03-07T12:01:12.745Z</time>
      </trkpt>
      <trkpt lat="48.54664" lon="2.13361">
        <ele>99</ele>
        <time>2021-03-07T12:01:13.746Z</time>
      </trkpt>
      <trkpt lat="48.54665" lon="2.13361">
        <ele>98</ele>
        <time>2021-03-07T12:01:14.745Z</time>
      </trkpt>
      <trkpt lat="48.54666" lon="2.13359">
        <ele>98</ele>
        <time>2021-03-07T12:01:15.745Z</time>
      </trkpt>
      <trkpt lat="48.54668" lon="2.13358">
        <ele>98</ele>
        <time>2021-03-07T12:01:16.745Z</time>
      </trkpt>
      <trkpt lat="48.54669" lon="2.13357">
        <ele>99</ele>
        <time>2021-03-07T12:01:17.745Z</time>
      </trkpt>
      <trkpt lat="48.5467" lon="2.13356">
        <ele>99</ele>
        <time>2021-03-07T12:01:18.745Z</time>
      </trkpt>
      <trkpt lat="48.54671" lon="2.13356">
        <ele>99</ele>
        <time>2021-03-07T12:01:19.745Z</time>
      </trkpt>
      <trkpt lat="48.54672" lon="2.13355">
        <ele>99</ele>
        <time>2021-03-07T12:01:20.746Z</time>
      </trkpt>
      <trkpt lat="48.54673" lon="2.13354">
        <ele>99</ele>
        <time>2021-03-07T12:01:21.745Z</time>
      </trkpt>
      <trkpt lat="48.54675" lon="2.13353">
        <ele>99</ele>
        <time>2021-03-07T12:01:22.745Z</time>
      </trkpt>
      <trkpt lat="48.54676" lon="2.13352">
        <ele>100</ele>
        <time>2021-03-07T12:01:23.745Z</time>
      </trkpt>
      <trkpt lat="48.54677" lon="2.1335">
        <ele>100</ele>
        <time>2021-03-07T12:01:24.746Z</time>
      </trkpt>
      <trkpt lat="48.54678" lon="2.1335">
        <ele>99</ele>
        <time>2021-03-07T12:01:25.745Z</time>
      </trkpt>
      <trkpt lat="48.54679" lon="2.13349">
        <ele>100</ele>
        <time>2021-03-07T12:01:26.746Z</time>
      </trkpt>
      <trkpt lat="48.5468" lon="2.13348">
        <ele>100</ele>
        <time>2021-03-07T12:01:27.745Z</time>
      </trkpt>
      <trkpt lat="48.54681" lon="2.13346">
        <ele>100</ele>
        <time>2021-03-07T12:01:28.746Z</time>
      </trkpt>
      <trkpt lat="48.54682" lon="2.13345">
        <ele>101</ele>
        <time>2021-03-07T12:01:29.746Z</time>
      </trkpt>
      <trkpt lat="48.54683" lon="2.13343">
        <ele>101</ele>
        <time>2021-03-07T12:01:30.745Z</time>
      </trkpt>
      <trkpt lat="48.54684" lon="2.13342">
        <ele>100</ele>
        <time>2021-03-07T12:01:31.746Z</time>
      </trkpt>
      <trkpt lat="48.54685" lon="2.13341">
        <ele>100</ele>
        <time>2021-03-07T12:01:32.745Z</time>
      </trkpt>
      <trkpt lat="48.54686" lon="2.1334">
        <ele>100</ele>
        <time>2021-03-07T12:01:33.745Z</time>
      </trkpt>
      <trkpt lat="48.54687" lon="2.13338">
        <ele>99</ele>
        <time>2021-03-07T12:01:34.745Z</time>
      </trkpt>
      <trkpt lat="48.54689" lon="2.13336">
        <ele>99</ele>
        <time>2021-03-07T12:01:35.745Z</time>
      </trkpt>
      <trkpt lat="48.5469" lon="2.13335">
        <ele>99</ele>
        <time>2021-03-07T12:01:36.745Z</time>
      </trkpt>
      <trkpt lat="48.54691" lon="2.13334">
        <ele>99</ele>
        <time>2021-03-07T12:01:37.745Z</time>
      </trkpt>
      <trkpt lat="48.54692" lon="2.13332">
        <ele>99</ele>
        <time>2021-03-07T12:01:38.745Z</time>
      </trkpt>
      <trkpt lat="48.54693" lon="2.13331">
        <ele>99</ele>
        <time>2021-03-07T12:01:39.745Z</time>
      </trkpt>
      <trkpt lat="48.54695" lon="2.1333">
        <ele>99</ele>
        <time>2021-03-07T12:01:40.746Z</time>
      </trkpt>
      <trkpt lat="48.54696" lon="2.13329">
        <ele>99</ele>
        <time>2021-03-07T12:01:41.746Z</time>
      </trkpt>
      <trkpt lat="48.54696" lon="2.13327">
        <ele>99</ele>
        <time>2021-03-07T12:01:42.745Z</time>
      </trkpt>
      <trkpt lat="48.54697" lon="2.13326">
        <ele>98</ele>
        <time>2021-03-07T12:01:43.745Z</time>
      </trkpt>
      <trkpt lat="48.54698" lon="2.13324">
        <ele>98</ele>
        <time>2021-03-07T12:01:44.746Z</time>
      </trkpt>
      <trkpt lat="48.54699" lon="2.13323">
        <ele>98</ele>
        <time>2021-03-07T12:01:45.745Z</time>
      </trkpt>
      <trkpt lat="48.54699" lon="2.13322">
        <ele>98</ele>
        <time>2021-03-07T12:01:46.745Z</time>
      </trkpt>
      <trkpt lat="48.547" lon="2.1332">
        <ele>98</ele>
        <time>2021-03-07T12:01:47.745Z</time>
      </trkpt>
      <trkpt lat="48.54701" lon="2.13319">
        <ele>98</ele>
        <time>2021-03-07T12:01:48.746Z</time>
      </trkpt>
      <trkpt lat="48.54702" lon="2.13318">
        <ele>98</ele>
        <time>2021-03-07T12:01:49.745Z</time>
      </trkpt>
      <trkpt lat="48.54702" lon="2.13316">
        <ele>98</ele>
        <time>2021-03-07T12:01:50.745Z</time>
      </trkpt>
      <trkpt lat="48.54703" lon="2.13314">
        <ele>99</ele>
        <time>2021-03-07T12:01:51.745Z</time>
      </trkpt>
      <trkpt lat="48.54703" lon="2.13313">
        <ele>99</ele>
        <time>2021-03-07T12:01:52.745Z</time>
      </trkpt>
      <trkpt lat="48.54704" lon="2.13312">
        <ele>99</ele>
        <time>2021-03-07T12:01:53.745Z</time>
      </trkpt>
      <trkpt lat="48.54705" lon="2.1331">
        <ele>99</ele>
        <time>2021-03-07T12:01:54.745Z</time>
      </trkpt>
      <trkpt lat="48.54706" lon="2.13309">
        <ele>99</ele>
        <time>2021-03-07T12:01:55.745Z</time>
      </trkpt>
      <trkpt lat="48.54706" lon="2.13307">
        <ele>98</ele>
        <time>2021-03-07T12:01:56.745Z</time>
      </trkpt>
      <trkpt lat="48.54707" lon="2.13306">
        <ele>98</ele>
        <time>2021-03-07T12:01:57.745Z</time>
      </trkpt>
      <trkpt lat="48.54709" lon="2.13304">
        <ele>97</ele>
        <time>2021-03-07T12:01:58.745Z</time>
      </trkpt>
      <trkpt lat="48.5471" lon="2.13302">
        <ele>96</ele>
        <time>2021-03-07T12:01:59.746Z</time>
      </trkpt>
      <trkpt lat="48.54711" lon="2.13301">
        <ele>96</ele>
        <time>2021-03-07T12:02:00.746Z</time>
      </trkpt>
      <trkpt lat="48.54713" lon="2.13299">
        <ele>95</ele>
        <time>2021-03-07T12:02:01.746Z</time>
      </trkpt>
      <trkpt lat="48.54714" lon="2.13298">
        <ele>95</ele>
        <time>2021-03-07T12:02:02.746Z</time>
      </trkpt>
      <trkpt lat="48.54715" lon="2.13297">
        <ele>94</ele>
        <time>2021-03-07T12:02:03.746Z</time>
      </trkpt>
      <trkpt lat="48.54716" lon="2.13296">
        <ele>94</ele>
        <time>2021-03-07T12:02:04.745Z</time>
      </trkpt>
      <trkpt lat="48.54717" lon="2.13296">
        <ele>94</ele>
        <time>2021-03-07T12:02:05.746Z</time>
      </trkpt>
      <trkpt lat="48.54718" lon="2.13296">
        <ele>94</ele>
        <time>2021-03-07T12:02:06.745Z</time>
      </trkpt>
      <trkpt lat="48.54719" lon="2.13296">
        <ele>94</ele>
        <time>2021-03-07T12:02:07.745Z</time>
      </trkpt>
      <trkpt lat="48.5472" lon="2.13295">
        <ele>94</ele>
        <time>2021-03-07T12:02:08.745Z</time>
      </trkpt>
      <trkpt lat="48.54721" lon="2.13295">
        <ele>94</ele>
        <time>2021-03-07T12:02:09.746Z</time>
      </trkpt>
      <trkpt lat="48.54722" lon="2.13294">
        <ele>94</ele>
        <time>2021-03-07T12:02:10.745Z</time>
      </trkpt>
      <trkpt lat="48.54723" lon="2.13293">
        <ele>94</ele>
        <time>2021-03-07T12:02:11.745Z</time>
      </trkpt>
      <trkpt lat="48.54724" lon="2.13292">
        <ele>94</ele>
        <time>2021-03-07T12:02:12.745Z</time>
      </trkpt>
      <trkpt lat="48.54725" lon="2.13291">
        <ele>95</ele>
        <time>2021-03-07T12:02:13.745Z</time>
      </trkpt>
      <trkpt lat="48.54727" lon="2.1329">
        <ele>95</ele>
        <time>2021-03-07T12:02:14.746Z</time>
      </trkpt>
      <trkpt lat="48.54728" lon="2.13289">
        <ele>95</ele>
        <time>2021-03-07T12:02:15.745Z</time>
      </trkpt>
      <trkpt lat="48.5473" lon="2.13288">
        <ele>95</ele>
        <time>2021-03-07T12:02:16.746Z</time>
      </trkpt>
      <trkpt lat="48.54731" lon="2.13287">
        <ele>95</ele>
        <time>2021-03-07T12:02:17.746Z</time>
      </trkpt>
      <trkpt lat="48.54732" lon="2.13286">
        <ele>95</ele>
        <time>2021-03-07T12:02:18.745Z</time>
      </trkpt>
      <trkpt lat="48.54734" lon="2.13285">
        <ele>96</ele>
        <time>2021-03-07T12:02:19.746Z</time>
      </trkpt>
      <trkpt lat="48.54735" lon="2.13284">
        <ele>96</ele>
        <time>2021-03-07T12:02:20.745Z</time>
      </trkpt>
      <trkpt lat="48.54735" lon="2.13284">
        <ele>96</ele>
        <time>2021-03-07T12:02:21.746Z</time>
      </trkpt>
      <trkpt lat="48.54736" lon="2.13283">
        <ele>96</ele>
        <time>2021-03-07T12:02:22.745Z</time>
      </trkpt>
      <trkpt lat="48.54738" lon="2.13282">
        <ele>96</ele>
        <time>2021-03-07T12:02:23.746Z</time>
      </trkpt>
      <trkpt lat="48.54739" lon="2.1328">
        <ele>96</ele>
        <time>2021-03-07T12:02:24.745Z</time>
      </trkpt>
      <trkpt lat="48.5474" lon="2.1328">
        <ele>96</ele>
        <time>2021-03-07T12:02:25.746Z</time>
      </trkpt>
      <trkpt lat="48.54741" lon="2.13279">
        <ele>96</ele>
        <time>2021-03-07T12:02:26.745Z</time>
      </trkpt>
      <trkpt lat="48.54742" lon="2.13278">
        <ele>96</ele>
        <time>2021-03-07T12:02:27.746Z</time>
      </trkpt>
      <trkpt lat="48.54744" lon="2.13277">
        <ele>95</ele>
        <time>2021-03-07T12:02:28.745Z</time>
      </trkpt>
      <trkpt lat="48.54745" lon="2.13276">
        <ele>95</ele>
        <time>2021-03-07T12:02:29.745Z</time>
      </trkpt>
      <trkpt lat="48.54746" lon="2.13275">
        <ele>94</ele>
        <time>2021-03-07T12:02:30.745Z</time>
      </trkpt>
      <trkpt lat="48.54747" lon="2.13275">
        <ele>94</ele>
        <time>2021-03-07T12:02:31.745Z</time>
      </trkpt>
      <trkpt lat="48.54749" lon="2.13274">
        <ele>93</ele>
        <time>2021-03-07T12:02:32.745Z</time>
      </trkpt>
      <trkpt lat="48.5475" lon="2.13273">
        <ele>93</ele>
        <time>2021-03-07T12:02:33.745Z</time>
      </trkpt>
      <trkpt lat="48.54751" lon="2.13272">
        <ele>93</ele>
        <time>2021-03-07T12:02:34.745Z</time>
      </trkpt>
      <trkpt lat="48.54753" lon="2.13272">
        <ele>93</ele>
        <time>2021-03-07T12:02:35.745Z</time>
      </trkpt>
      <trkpt lat="48.54754" lon="2.13271">
        <ele>93</ele>
        <time>2021-03-07T12:02:36.745Z</time>
      </trkpt>
      <trkpt lat="48.54755" lon="2.1327">
        <ele>93</ele>
        <time>2021-03-07T12:02:37.746Z</time>
      </trkpt>
      <trkpt lat="48.54756" lon="2.13269">
        <ele>93</ele>
        <time>2021-03-07T12:02:38.745Z</time>
      </trkpt>
      <trkpt lat="48.54758" lon="2.13268">
        <ele>92</ele>
        <time>2021-03-07T12:02:39.746Z</time>
      </trkpt>
      <trkpt lat="48.54759" lon="2.13267">
        <ele>92</ele>
        <time>2021-03-07T12:02:40.746Z</time>
      </trkpt>
      <trkpt lat="48.5476" lon="2.13266">
        <ele>92</ele>
        <time>2021-03-07T12:02:41.745Z</time>
      </trkpt>
      <trkpt lat="48.54762" lon="2.13265">
        <ele>91</ele>
        <time>2021-03-07T12:02:42.745Z</time>
      </trkpt>
      <trkpt lat="48.54763" lon="2.13264">
        <ele>90</ele>
        <time>2021-03-07T12:02:43.745Z</time>
      </trkpt>
      <trkpt lat="48.54764" lon="2.13264">
        <ele>90</ele>
        <time>2021-03-07T12:02:44.745Z</time>
      </trkpt>
      <trkpt lat="48.54765" lon="2.13264">
        <ele>90</ele>
        <time>2021-03-07T12:02:45.745Z</time>
      </trkpt>
      <trkpt lat="48.54767" lon="2.13264">
        <ele>89</ele>
        <time>2021-03-07T12:02:46.745Z</time>
      </trkpt>
      <trkpt lat="48.54768" lon="2.13264">
        <ele>89</ele>
        <time>2021-03-07T12:02:47.745Z</time>
      </trkpt>
      <trkpt lat="48.5477" lon="2.13265">
        <ele>89</ele>
        <time>2021-03-07T12:02:48.745Z</time>
      </trkpt>
      <trkpt lat="48.54771" lon="2.13266">
        <ele>89</ele>
        <time>2021-03-07T12:02:49.745Z</time>
      </trkpt>
      <trkpt lat="48.54772" lon="2.13266">
        <ele>89</ele>
        <time>2021-03-07T12:02:50.746Z</time>
      </trkpt>
      <trkpt lat="48.54773" lon="2.13267">
        <ele>89</ele>
        <time>2021-03-07T12:02:51.745Z</time>
      </trkpt>
      <trkpt lat="48.54774" lon="2.13268">
        <ele>88</ele>
        <time>2021-03-07T12:02:52.746Z</time>
      </trkpt>
      <trkpt lat="48.54775" lon="2.13269">
        <ele>88</ele>
        <time>2021-03-07T12:02:53.745Z</time>
      </trkpt>
      <trkpt lat="48.54776" lon="2.13271">
        <ele>88</ele>
        <time>2021-03-07T12:02:54.745Z</time>
      </trkpt>
      <trkpt lat="48.54777" lon="2.13272">
        <ele>87</ele>
        <time>2021-03-07T12:02:55.746Z</time>
      </trkpt>
      <trkpt lat="48.54778" lon="2.13273">
        <ele>87</ele>
        <time>2021-03-07T12:02:56.746Z</time>
      </trkpt>
      <trkpt lat="48.54779" lon="2.13275">
        <ele>87</ele>
        <time>2021-03-07T12:02:57.745Z</time>
      </trkpt>
      <trkpt lat="48.5478" lon="2.13276">
        <ele>86</ele>
        <time>2021-03-07T12:02:58.745Z</time>
      </trkpt>
      <trkpt lat="48.54781" lon="2.13277">
        <ele>86</ele>
        <time>2021-03-07T12:02:59.745Z</time>
      </trkpt>
      <trkpt lat="48.54782" lon="2.13278">
        <ele>86</ele>
        <time>2021-03-07T12:03:00.746Z</time>
      </trkpt>
      <trkpt lat="48.54784" lon="2.13279">
        <ele>86</ele>
        <time>2021-03-07T12:03:01.746Z</time>
      </trkpt>
      <trkpt lat="48.54785" lon="2.1328">
        <ele>86</ele>
        <time>2021-03-07T12:03:02.745Z</time>
      </trkpt>
      <trkpt lat="48.54786" lon="2.13281">
        <ele>85</ele>
        <time>2021-03-07T12:03:03.746Z</time>
      </trkpt>
      <trkpt lat="48.54787" lon="2.13283">
        <ele>85</ele>
        <time>2021-03-07T12:03:04.745Z</time>
      </trkpt>
      <trkpt lat="48.54788" lon="2.13284">
        <ele>84</ele>
        <time>2021-03-07T12:03:05.745Z</time>
      </trkpt>
      <trkpt lat="48.54789" lon="2.13285">
        <ele>84</ele>
        <time>2021-03-07T12:03:06.745Z</time>
      </trkpt>
      <trkpt lat="48.54791" lon="2.13286">
        <ele>84</ele>
        <time>2021-03-07T12:03:07.745Z</time>
      </trkpt>
      <trkpt lat="48.54792" lon="2.13287">
        <ele>84</ele>
        <time>2021-03-07T12:03:08.745Z</time>
      </trkpt>
      <trkpt lat="48.54793" lon="2.13288">
        <ele>84</ele>
        <time>2021-03-07T12:03:09.746Z</time>
      </trkpt>
      <trkpt lat="48.54794" lon="2.13289">
        <ele>83</ele>
        <time>2021-03-07T12:03:10.745Z</time>
      </trkpt>
      <trkpt lat="48.54795" lon="2.13289">
        <ele>83</ele>
        <time>2021-03-07T12:03:11.745Z</time>
      </trkpt>
      <trkpt lat="48.54796" lon="2.1329">
        <ele>83</ele>
        <time>2021-03-07T12:03:12.745Z</time>
      </trkpt>
      <trkpt lat="48.54798" lon="2.1329">
        <ele>83</ele>
        <time>2021-03-07T12:03:13.745Z</time>
      </trkpt>
      <trkpt lat="48.54799" lon="2.13291">
        <ele>84</ele>
        <time>2021-03-07T12:03:14.745Z</time>
      </trkpt>
      <trkpt lat="48.548" lon="2.13292">
        <ele>84</ele>
        <time>2021-03-07T12:03:15.745Z</time>
      </trkpt>
      <trkpt lat="48.54802" lon="2.13292">
        <ele>84</ele>
        <time>2021-03-07T12:03:16.746Z</time>
      </trkpt>
      <trkpt lat="48.54803" lon="2.13293">
        <ele>84</ele>
        <time>2021-03-07T12:03:17.746Z</time>
      </trkpt>
      <trkpt lat="48.54804" lon="2.13293">
        <ele>84</ele>
        <time>2021-03-07T12:03:18.745Z</time>
      </trkpt>
      <trkpt lat="48.54806" lon="2.13293">
        <ele>84</ele>
        <time>2021-03-07T12:03:19.746Z</time>
      </trkpt>
      <trkpt lat="48.54807" lon="2.13294">
        <ele>83</ele>
        <time>2021-03-07T12:03:20.745Z</time>
      </trkpt>
      <trkpt lat="48.54809" lon="2.13294">
        <ele>83</ele>
        <time>2021-03-07T12:03:21.746Z</time>
      </trkpt>
      <trkpt lat="48.5481" lon="2.13295">
        <ele>83</ele>
        <time>2021-03-07T12:03:22.746Z</time>
      </trkpt>
      <trkpt lat="48.54812" lon="2.13295">
        <ele>83</ele>
        <time>2021-03-07T12:03:23.745Z</time>
      </trkpt>
      <trkpt lat="48.54813" lon="2.13295">
        <ele>83</ele>
        <time>2021-03-07T12:03:24.746Z</time>
      </trkpt>
      <trkpt lat="48.54815" lon="2.13295">
        <ele>84</ele>
        <time>2021-03-07T12:03:25.745Z</time>
      </trkpt>
      <trkpt lat="48.54816" lon="2.13295">
        <ele>84</ele>
        <time>2021-03-07T12:03:26.746Z</time>
      </trkpt>
      <trkpt lat="48.54817" lon="2.13296">
        <ele>83</ele>
        <time>2021-03-07T12:03:27.745Z</time>
      </trkpt>
      <trkpt lat="48.54819" lon="2.13296">
        <ele>83</ele>
        <time>2021-03-07T12:03:28.745Z</time>
      </trkpt>
      <trkpt lat="48.54821" lon="2.13296">
        <ele>82</ele>
        <time>2021-03-07T12:03:29.745Z</time>
      </trkpt>
      <trkpt lat="48.54822" lon="2.13297">
        <ele>82</ele>
        <time>2021-03-07T12:03:30.746Z</time>
      </trkpt>
      <trkpt lat="48.54823" lon="2.13297">
        <ele>81</ele>
        <time>2021-03-07T12:03:31.745Z</time>
      </trkpt>
      <trkpt lat="48.54825" lon="2.13298">
        <ele>81</ele>
        <time>2021-03-07T12:03:32.746Z</time>
      </trkpt>
      <trkpt lat="48.54826" lon="2.13298">
        <ele>81</ele>
        <time>2021-03-07T12:03:33.746Z</time>
      </trkpt>
      <trkpt lat="48.54827" lon="2.13299">
        <ele>81</ele>
        <time>2021-03-07T12:03:34.745Z</time>
      </trkpt>
      <trkpt lat="48.54829" lon="2.133">
        <ele>80</ele>
        <time>2021-03-07T12:03:35.745Z</time>
      </trkpt>
      <trkpt lat="48.5483" lon="2.133">
        <ele>80</ele>
        <time>2021-03-07T12:03:36.746Z</time>
      </trkpt>
      <trkpt lat="48.54831" lon="2.13301">
        <ele>79</ele>
        <time>2021-03-07T12:03:37.746Z</time>
      </trkpt>
      <trkpt lat="48.54833" lon="2.13302">
        <ele>79</ele>
        <time>2021-03-07T12:03:38.745Z</time>
      </trkpt>
      <trkpt lat="48.54834" lon="2.13302">
        <ele>79</ele>
        <time>2021-03-07T12:03:39.745Z</time>
      </trkpt>
      <trkpt lat="48.54835" lon="2.13303">
        <ele>79</ele>
        <time>2021-03-07T12:03:40.745Z</time>
      </trkpt>
      <trkpt lat="48.54837" lon="2.13304">
        <ele>79</ele>
        <time>2021-03-07T12:03:41.745Z</time>
      </trkpt>
      <trkpt lat="48.54838" lon="2.13304">
        <ele>78</ele>
        <time>2021-03-07T12:03:42.746Z</time>
      </trkpt>
      <trkpt lat="48.54839" lon="2.13305">
        <ele>78</ele>
        <time>2021-03-07T12:03:43.745Z</time>
      </trkpt>
      <trkpt lat="48.54841" lon="2.13305">
        <ele>79</ele>
        <time>2021-03-07T12:03:44.745Z</time>
      </trkpt>
      <trkpt lat="48.54842" lon="2.13305">
        <ele>79</ele>
        <time>2021-03-07T12:03:45.746Z</time>
      </trkpt>
      <trkpt lat="48.54843" lon="2.13306">
        <ele>79</ele>
        <time>2021-03-07T12:03:46.745Z</time>
      </trkpt>
      <trkpt lat="48.54845" lon="2.13306">
        <ele>80</ele>
        <time>2021-03-07T12:03:47.745Z</time>
      </trkpt>
      <trkpt lat="48.54845" lon="2.13306">
        <ele>79</ele>
        <time>2021-03-07T12:03:48.745Z</time>
      </trkpt>
      <trkpt lat="48.54847" lon="2.13307">
        <ele>79</ele>
        <time>2021-03-07T12:03:49.746Z</time>
      </trkpt>
      <trkpt lat="48.54848" lon="2.13308">
        <ele>79</ele>
        <time>2021-03-07T12:03:50.745Z</time>
      </trkpt>
      <trkpt lat="48.5485" lon="2.13309">
        <ele>79</ele>
        <time>2021-03-07T12:03:51.745Z</time>
      </trkpt>
      <trkpt lat="48.54851" lon="2.13309">
        <ele>79</ele>
        <time>2021-03-07T12:03:52.745Z</time>
      </trkpt>
      <trkpt lat="48.54853" lon="2.1331">
        <ele>79</ele>
        <time>2021-03-07T12:03:53.745Z</time>
      </trkpt>
      <trkpt lat="48.54854" lon="2.13312">
        <ele>79</ele>
        <time>2021-03-07T12:03:54.745Z</time>
      </trkpt>
      <trkpt lat="48.54855" lon="2.13313">
        <ele>79</ele>
        <time>2021-03-07T12:03:55.745Z</time>
      </trkpt>
      <trkpt lat="48.54857" lon="2.13314">
        <ele>79</ele>
        <time>2021-03-07T12:03:56.746Z</time>
      </trkpt>
      <trkpt lat="48.54859" lon="2.13315">
        <ele>79</ele>
        <time>2021-03-07T12:03:57.745Z</time>
      </trkpt>
      <trkpt lat="48.5486" lon="2.13316">
        <ele>78</ele>
        <time>2021-03-07T12:03:58.746Z</time>
      </trkpt>
      <trkpt lat="48.54861" lon="2.13317">
        <ele>78</ele>
        <time>2021-03-07T12:03:59.745Z</time>
      </trkpt>
      <trkpt lat="48.54862" lon="2.13318">
        <ele>78</ele>
        <time>2021-03-07T12:04:00.746Z</time>
      </trkpt>
      <trkpt lat="48.54863" lon="2.13319">
        <ele>78</ele>
        <time>2021-03-07T12:04:01.745Z</time>
      </trkpt>
      <trkpt lat="48.54865" lon="2.1332">
        <ele>78</ele>
        <time>2021-03-07T12:04:02.745Z</time>
      </trkpt>
      <trkpt lat="48.54867" lon="2.13321">
        <ele>77</ele>
        <time>2021-03-07T12:04:03.745Z</time>
      </trkpt>
      <trkpt lat="48.54868" lon="2.13322">
        <ele>77</ele>
        <time>2021-03-07T12:04:04.746Z</time>
      </trkpt>
      <trkpt lat="48.54869" lon="2.13323">
        <ele>77</ele>
        <time>2021-03-07T12:04:05.745Z</time>
      </trkpt>
      <trkpt lat="48.54871" lon="2.13324">
        <ele>77</ele>
        <time>2021-03-07T12:04:06.745Z</time>
      </trkpt>
      <trkpt lat="48.54872" lon="2.13324">
        <ele>77</ele>
        <time>2021-03-07T12:04:07.745Z</time>
      </trkpt>
      <trkpt lat="48.54873" lon="2.13325">
        <ele>77</ele>
        <time>2021-03-07T12:04:08.745Z</time>
      </trkpt>
      <trkpt lat="48.54875" lon="2.13326">
        <ele>77</ele>
        <time>2021-03-07T12:04:09.745Z</time>
      </trkpt>
      <trkpt lat="48.54876" lon="2.13327">
        <ele>78</ele>
        <time>2021-03-07T12:04:10.745Z</time>
      </trkpt>
      <trkpt lat="48.54877" lon="2.13329">
        <ele>78</ele>
        <time>2021-03-07T12:04:11.745Z</time>
      </trkpt>
      <trkpt lat="48.54879" lon="2.1333">
        <ele>78</ele>
        <time>2021-03-07T12:04:12.746Z</time>
      </trkpt>
      <trkpt lat="48.5488" lon="2.13331">
        <ele>77</ele>
        <time>2021-03-07T12:04:13.745Z</time>
      </trkpt>
      <trkpt lat="48.54882" lon="2.13331">
        <ele>77</ele>
        <time>2021-03-07T12:04:14.746Z</time>
      </trkpt>
      <trkpt lat="48.54883" lon="2.13332">
        <ele>77</ele>
        <time>2021-03-07T12:04:15.745Z</time>
      </trkpt>
      <trkpt lat="48.54884" lon="2.13333">
        <ele>77</ele>
        <time>2021-03-07T12:04:16.745Z</time>
      </trkpt>
      <trkpt lat="48.54886" lon="2.13333">
        <ele>77</ele>
        <time>2021-03-07T12:04:17.745Z</time>
      </trkpt>
      <trkpt lat="48.54887" lon="2.13334">
        <ele>77</ele>
        <time>2021-03-07T12:04:18.745Z</time>
      </trkpt>
      <trkpt lat="48.54888" lon="2.13335">
        <ele>77</ele>
        <time>2021-03-07T12:04:19.746Z</time>
      </trkpt>
      <trkpt lat="48.5489" lon="2.13336">
        <ele>76</ele>
        <time>2021-03-07T12:04:20.745Z</time>
      </trkpt>
      <trkpt lat="48.54891" lon="2.13337">
        <ele>76</ele>
        <time>2021-03-07T12:04:21.745Z</time>
      </trkpt>
      <trkpt lat="48.54893" lon="2.13338">
        <ele>76</ele>
        <time>2021-03-07T12:04:22.745Z</time>
      </trkpt>
      <trkpt lat="48.54894" lon="2.1334">
        <ele>76</ele>
        <time>2021-03-07T12:04:23.745Z</time>
      </trkpt>
      <trkpt lat="48.54896" lon="2.13341">
        <ele>75</ele>
        <time>2021-03-07T12:04:24.746Z</time>
      </trkpt>
      <trkpt lat="48.54898" lon="2.13342">
        <ele>75</ele>
        <time>2021-03-07T12:04:25.746Z</time>
      </trkpt>
      <trkpt lat="48.54899" lon="2.13343">
        <ele>75</ele>
        <time>2021-03-07T12:04:26.745Z</time>
      </trkpt>
      <trkpt lat="48.549" lon="2.13344">
        <ele>75</ele>
        <time>2021-03-07T12:04:27.745Z</time>
      </trkpt>
      <trkpt lat="48.54901" lon="2.13345">
        <ele>75</ele>
        <time>2021-03-07T12:04:28.745Z</time>
      </trkpt>
      <trkpt lat="48.54902" lon="2.13345">
        <ele>75</ele>
        <time>2021-03-07T12:04:29.745Z</time>
      </trkpt>
      <trkpt lat="48.54904" lon="2.13347">
        <ele>75</ele>
        <time>2021-03-07T12:04:30.745Z</time>
      </trkpt>
      <trkpt lat="48.54905" lon="2.13348">
        <ele>75</ele>
        <time>2021-03-07T12:04:31.745Z</time>
      </trkpt>
      <trkpt lat="48.54906" lon="2.13349">
        <ele>75</ele>
        <time>2021-03-07T12:04:32.745Z</time>
      </trkpt>
      <trkpt lat="48.54908" lon="2.1335">
        <ele>75</ele>
        <time>2021-03-07T12:04:33.746Z</time>
      </trkpt>
      <trkpt lat="48.54909" lon="2.1335">
        <ele>75</ele>
        <time>2021-03-07T12:04:34.745Z</time>
      </trkpt>
      <trkpt lat="48.5491" lon="2.13351">
        <ele>76</ele>
        <time>2021-03-07T12:04:35.746Z</time>
      </trkpt>
      <trkpt lat="48.54912" lon="2.13352">
        <ele>76</ele>
        <time>2021-03-07T12:04:36.745Z</time>
      </trkpt>
      <trkpt lat="48.54913" lon="2.13353">
        <ele>76</ele>
        <time>2021-03-07T12:04:37.745Z</time>
      </trkpt>
      <trkpt lat="48.54914" lon="2.13354">
        <ele>76</ele>
        <time>2021-03-07T12:04:38.745Z</time>
      </trkpt>
      <trkpt lat="48.54916" lon="2.13355">
        <ele>76</ele>
        <time>2021-03-07T12:04:39.745Z</time>
      </trkpt>
      <trkpt lat="48.54917" lon="2.13355">
        <ele>76</ele>
        <time>2021-03-07T12:04:40.745Z</time>
      </trkpt>
      <trkpt lat="48.54919" lon="2.13356">
        <ele>75</ele>
        <time>2021-03-07T12:04:41.745Z</time>
      </trkpt>
      <trkpt lat="48.5492" lon="2.13357">
        <ele>75</ele>
        <time>2021-03-07T12:04:42.745Z</time>
      </trkpt>
      <trkpt lat="48.54922" lon="2.13358">
        <ele>75</ele>
        <time>2021-03-07T12:04:43.746Z</time>
      </trkpt>
      <trkpt lat="48.54923" lon="2.13359">
        <ele>75</ele>
        <time>2021-03-07T12:04:44.745Z</time>
      </trkpt>
      <trkpt lat="48.54924" lon="2.1336">
        <ele>75</ele>
        <time>2021-03-07T12:04:45.746Z</time>
      </trkpt>
      <trkpt lat="48.54926" lon="2.13361">
        <ele>75</ele>
        <time>2021-03-07T12:04:46.745Z</time>
      </trkpt>
      <trkpt lat="48.54927" lon="2.13362">
        <ele>75</ele>
        <time>2021-03-07T12:04:47.745Z</time>
      </trkpt>
      <trkpt lat="48.54929" lon="2.13363">
        <ele>75</ele>
        <time>2021-03-07T12:04:48.746Z</time>
      </trkpt>
      <trkpt lat="48.5493" lon="2.13364">
        <ele>75</ele>
        <time>2021-03-07T12:04:49.746Z</time>
      </trkpt>
      <trkpt lat="48.54932" lon="2.13365">
        <ele>75</ele>
        <time>2021-03-07T12:04:50.745Z</time>
      </trkpt>
      <trkpt lat="48.54934" lon="2.13366">
        <ele>74</ele>
        <time>2021-03-07T12:04:51.746Z</time>
      </trkpt>
      <trkpt lat="48.54935" lon="2.13368">
        <ele>74</ele>
        <time>2021-03-07T12:04:52.745Z</time>
      </trkpt>
      <trkpt lat="48.54937" lon="2.13369">
        <ele>74</ele>
        <time>2021-03-07T12:04:53.746Z</time>
      </trkpt>
      <trkpt lat="48.54938" lon="2.13369">
        <ele>74</ele>
        <time>2021-03-07T12:04:54.745Z</time>
      </trkpt>
      <trkpt lat="48.5494" lon="2.13371">
        <ele>75</ele>
        <time>2021-03-07T12:04:55.745Z</time>
      </trkpt>
      <trkpt lat="48.54942" lon="2.13372">
        <ele>75</ele>
        <time>2021-03-07T12:04:56.745Z</time>
      </trkpt>
      <trkpt lat="48.54943" lon="2.13373">
        <ele>75</ele>
        <time>2021-03-07T12:04:57.746Z</time>
      </trkpt>
      <trkpt lat="48.54944" lon="2.13374">
        <ele>75</ele>
        <time>2021-03-07T12:04:58.745Z</time>
      </trkpt>
      <trkpt lat="48.54946" lon="2.13375">
        <ele>75</ele>
        <time>2021-03-07T12:04:59.746Z</time>
      </trkpt>
      <trkpt lat="48.54948" lon="2.13376">
        <ele>75</ele>
        <time>2021-03-07T12:05:00.745Z</time>
      </trkpt>
      <trkpt lat="48.5495" lon="2.13378">
        <ele>75</ele>
        <time>2021-03-07T12:05:01.746Z</time>
      </trkpt>
      <trkpt lat="48.54952" lon="2.13379">
        <ele>74</ele>
        <time>2021-03-07T12:05:02.746Z</time>
      </trkpt>
      <trkpt lat="48.54954" lon="2.1338">
        <ele>74</ele>
        <time>2021-03-07T12:05:03.745Z</time>
      </trkpt>
      <trkpt lat="48.54956" lon="2.13381">
        <ele>73</ele>
        <time>2021-03-07T12:05:04.745Z</time>
      </trkpt>
      <trkpt lat="48.54957" lon="2.13383">
        <ele>73</ele>
        <time>2021-03-07T12:05:05.746Z</time>
      </trkpt>
      <trkpt lat="48.54959" lon="2.13384">
        <ele>73</ele>
        <time>2021-03-07T12:05:06.746Z</time>
      </trkpt>
      <trkpt lat="48.5496" lon="2.13385">
        <ele>73</ele>
        <time>2021-03-07T12:05:07.746Z</time>
      </trkpt>
      <trkpt lat="48.54961" lon="2.13385">
        <ele>73</ele>
        <time>2021-03-07T12:05:08.745Z</time>
      </trkpt>
      <trkpt lat="48.54963" lon="2.13386">
        <ele>72</ele>
        <time>2021-03-07T12:05:09.746Z</time>
      </trkpt>
      <trkpt lat="48.54964" lon="2.13387">
        <ele>72</ele>
        <time>2021-03-07T12:05:10.745Z</time>
      </trkpt>
      <trkpt lat="48.54966" lon="2.13387">
        <ele>72</ele>
        <time>2021-03-07T12:05:11.746Z</time>
      </trkpt>
      <trkpt lat="48.54967" lon="2.13388">
        <ele>72</ele>
        <time>2021-03-07T12:05:12.746Z</time>
      </trkpt>
      <trkpt lat="48.54969" lon="2.1339">
        <ele>71</ele>
        <time>2021-03-07T12:05:13.745Z</time>
      </trkpt>
      <trkpt lat="48.5497" lon="2.13391">
        <ele>71</ele>
        <time>2021-03-07T12:05:14.746Z</time>
      </trkpt>
      <trkpt lat="48.54972" lon="2.13392">
        <ele>71</ele>
        <time>2021-03-07T12:05:15.745Z</time>
      </trkpt>
      <trkpt lat="48.54974" lon="2.13393">
        <ele>72</ele>
        <time>2021-03-07T12:05:16.745Z</time>
      </trkpt>
      <trkpt lat="48.54975" lon="2.13394">
        <ele>72</ele>
        <time>2021-03-07T12:05:17.745Z</time>
      </trkpt>
      <trkpt lat="48.54976" lon="2.13394">
        <ele>72</ele>
        <time>2021-03-07T12:05:18.746Z</time>
      </trkpt>
      <trkpt lat="48.54977" lon="2.13395">
        <ele>72</ele>
        <time>2021-03-07T12:05:19.746Z</time>
      </trkpt>
      <trkpt lat="48.54978" lon="2.13396">
        <ele>72</ele>
        <time>2021-03-07T12:05:20.745Z</time>
      </trkpt>
      <trkpt lat="48.5498" lon="2.13397">
        <ele>72</ele>
        <time>2021-03-07T12:05:21.745Z</time>
      </trkpt>
      <trkpt lat="48.54982" lon="2.13398">
        <ele>71</ele>
        <time>2021-03-07T12:05:22.746Z</time>
      </trkpt>
      <trkpt lat="48.54983" lon="2.13399">
        <ele>72</ele>
        <time>2021-03-07T12:05:23.746Z</time>
      </trkpt>
      <trkpt lat="48.54985" lon="2.134">
        <ele>72</ele>
        <time>2021-03-07T12:05:24.746Z</time>
      </trkpt>
      <trkpt lat="48.54986" lon="2.13401">
        <ele>72</ele>
        <time>2021-03-07T12:05:25.746Z</time>
      </trkpt>
      <trkpt lat="48.54988" lon="2.13402">
        <ele>72</ele>
        <time>2021-03-07T12:05:26.746Z</time>
      </trkpt>
      <trkpt lat="48.5499" lon="2.13403">
        <ele>72</ele>
        <time>2021-03-07T12:05:27.745Z</time>
      </trkpt>
      <trkpt lat="48.54991" lon="2.13404">
        <ele>72</ele>
        <time>2021-03-07T12:05:28.746Z</time>
      </trkpt>
      <trkpt lat="48.54992" lon="2.13405">
        <ele>72</ele>
        <time>2021-03-07T12:05:29.746Z</time>
      </trkpt>
      <trkpt lat="48.54994" lon="2.13406">
        <ele>71</ele>
        <time>2021-03-07T12:05:30.745Z</time>
      </trkpt>
      <trkpt lat="48.54996" lon="2.13407">
        <ele>71</ele>
        <time>2021-03-07T12:05:31.745Z</time>
      </trkpt>
      <trkpt lat="48.54997" lon="2.13409">
        <ele>71</ele>
        <time>2021-03-07T12:05:32.745Z</time>
      </trkpt>
      <trkpt lat="48.54999" lon="2.1341">
        <ele>70</ele>
        <time>2021-03-07T12:05:33.745Z</time>
      </trkpt>
      <trkpt lat="48.55" lon="2.13411">
        <ele>70</ele>
        <time>2021-03-07T12:05:34.746Z</time>
      </trkpt>
      <trkpt lat="48.55002" lon="2.13413">
        <ele>70</ele>
        <time>2021-03-07T12:05:35.746Z</time>
      </trkpt>
      <trkpt lat="48.55003" lon="2.13414">
        <ele>70</ele>
        <time>2021-03-07T12:05:36.745Z</time>
      </trkpt>
      <trkpt lat="48.55005" lon="2.13415">
        <ele>70</ele>
        <time>2021-03-07T12:05:37.745Z</time>
      </trkpt>
      <trkpt lat="48.55006" lon="2.13416">
        <ele>70</ele>
        <time>2021-03-07T12:05:38.745Z</time>
      </trkpt>
      <trkpt lat="48.55007" lon="2.13417">
        <ele>70</ele>
        <time>2021-03-07T12:05:39.746Z</time>
      </trkpt>
      <trkpt lat="48.55008" lon="2.13418">
        <ele>69</ele>
        <time>2021-03-07T12:05:40.746Z</time>
      </trkpt>
      <trkpt lat="48.5501" lon="2.1342">
        <ele>70</ele>
        <time>2021-03-07T12:05:41.745Z</time>
      </trkpt>
      <trkpt lat="48.55012" lon="2.13421">
        <ele>70</ele>
        <time>2021-03-07T12:05:42.745Z</time>
      </trkpt>
      <trkpt lat="48.55013" lon="2.13422">
        <ele>71</ele>
        <time>2021-03-07T12:05:43.746Z</time>
      </trkpt>
      <trkpt lat="48.55015" lon="2.13423">
        <ele>71</ele>
        <time>2021-03-07T12:05:44.745Z</time>
      </trkpt>
      <trkpt lat="48.55016" lon="2.13424">
        <ele>71</ele>
        <time>2021-03-07T12:05:45.745Z</time>
      </trkpt>
      <trkpt lat="48.55018" lon="2.13425">
        <ele>71</ele>
        <time>2021-03-07T12:05:46.746Z</time>
      </trkpt>
      <trkpt lat="48.55019" lon="2.13427">
        <ele>71</ele>
        <time>2021-03-07T12:05:47.746Z</time>
      </trkpt>
      <trkpt lat="48.5502" lon="2.13429">
        <ele>71</ele>
        <time>2021-03-07T12:05:48.746Z</time>
      </trkpt>
      <trkpt lat="48.55022" lon="2.1343">
        <ele>71</ele>
        <time>2021-03-07T12:05:49.746Z</time>
      </trkpt>
      <trkpt lat="48.55023" lon="2.13431">
        <ele>70</ele>
        <time>2021-03-07T12:05:50.746Z</time>
      </trkpt>
      <trkpt lat="48.55024" lon="2.13433">
        <ele>70</ele>
        <time>2021-03-07T12:05:51.746Z</time>
      </trkpt>
      <trkpt lat="48.55026" lon="2.13434">
        <ele>70</ele>
        <time>2021-03-07T12:05:52.745Z</time>
      </trkpt>
      <trkpt lat="48.55027" lon="2.13435">
        <ele>70</ele>
        <time>2021-03-07T12:05:53.745Z</time>
      </trkpt>
      <trkpt lat="48.55029" lon="2.13437">
        <ele>70</ele>
        <time>2021-03-07T12:05:54.745Z</time>
      </trkpt>
      <trkpt lat="48.5503" lon="2.13438">
        <ele>70</ele>
        <time>2021-03-07T12:05:55.745Z</time>
      </trkpt>
      <trkpt lat="48.55032" lon="2.1344">
        <ele>70</ele>
        <time>2021-03-07T12:05:56.746Z</time>
      </trkpt>
      <trkpt lat="48.55033" lon="2.13442">
        <ele>70</ele>
        <time>2021-03-07T12:05:57.745Z</time>
      </trkpt>
      <trkpt lat="48.55035" lon="2.13443">
        <ele>70</ele>
        <time>2021-03-07T12:05:58.745Z</time>
      </trkpt>
      <trkpt lat="48.55036" lon="2.13445">
        <ele>70</ele>
        <time>2021-03-07T12:05:59.745Z</time>
      </trkpt>
      <trkpt lat="48.55037" lon="2.13446">
        <ele>69</ele>
        <time>2021-03-07T12:06:00.746Z</time>
      </trkpt>
      <trkpt lat="48.55039" lon="2.13448">
        <ele>69</ele>
        <time>2021-03-07T12:06:01.745Z</time>
      </trkpt>
      <trkpt lat="48.5504" lon="2.13449">
        <ele>69</ele>
        <time>2021-03-07T12:06:02.746Z</time>
      </trkpt>
      <trkpt lat="48.55041" lon="2.13451">
        <ele>69</ele>
        <time>2021-03-07T12:06:03.746Z</time>
      </trkpt>
      <trkpt lat="48.55042" lon="2.13453">
        <ele>69</ele>
        <time>2021-03-07T12:06:04.746Z</time>
      </trkpt>
      <trkpt lat="48.55043" lon="2.13454">
        <ele>69</ele>
        <time>2021-03-07T12:06:05.746Z</time>
      </trkpt>
      <trkpt lat="48.55045" lon="2.13456">
        <ele>69</ele>
        <time>2021-03-07T12:06:06.745Z</time>
      </trkpt>
      <trkpt lat="48.55046" lon="2.13458">
        <ele>69</ele>
        <time>2021-03-07T12:06:07.745Z</time>
      </trkpt>
      <trkpt lat="48.55047" lon="2.13459">
        <ele>69</ele>
        <time>2021-03-07T12:06:08.745Z</time>
      </trkpt>
      <trkpt lat="48.55048" lon="2.1346">
        <ele>68</ele>
        <time>2021-03-07T12:06:09.745Z</time>
      </trkpt>
      <trkpt lat="48.55049" lon="2.13462">
        <ele>68</ele>
        <time>2021-03-07T12:06:10.745Z</time>
      </trkpt>
      <trkpt lat="48.5505" lon="2.13464">
        <ele>68</ele>
        <time>2021-03-07T12:06:11.746Z</time>
      </trkpt>
      <trkpt lat="48.55052" lon="2.13465">
        <ele>68</ele>
        <time>2021-03-07T12:06:12.746Z</time>
      </trkpt>
      <trkpt lat="48.55053" lon="2.13466">
        <ele>68</ele>
        <time>2021-03-07T12:06:13.746Z</time>
      </trkpt>
      <trkpt lat="48.55054" lon="2.13468">
        <ele>68</ele>
        <time>2021-03-07T12:06:14.746Z</time>
      </trkpt>
      <trkpt lat="48.55056" lon="2.1347">
        <ele>68</ele>
        <time>2021-03-07T12:06:15.745Z</time>
      </trkpt>
      <trkpt lat="48.55058" lon="2.13472">
        <ele>68</ele>
        <time>2021-03-07T12:06:16.746Z</time>
      </trkpt>
      <trkpt lat="48.55059" lon="2.13473">
        <ele>68</ele>
        <time>2021-03-07T12:06:17.746Z</time>
      </trkpt>
      <trkpt lat="48.5506" lon="2.13475">
        <ele>68</ele>
        <time>2021-03-07T12:06:18.745Z</time>
      </trkpt>
      <trkpt lat="48.55061" lon="2.13477">
        <ele>67</ele>
        <time>2021-03-07T12:06:19.745Z</time>
      </trkpt>
      <trkpt lat="48.55062" lon="2.13478">
        <ele>67</ele>
        <time>2021-03-07T12:06:20.745Z</time>
      </trkpt>
      <trkpt lat="48.55064" lon="2.1348">
        <ele>67</ele>
        <time>2021-03-07T12:06:21.745Z</time>
      </trkpt>
      <trkpt lat="48.55065" lon="2.13482">
        <ele>66</ele>
        <time>2021-03-07T12:06:22.745Z</time>
      </trkpt>
      <trkpt lat="48.55066" lon="2.13484">
        <ele>66</ele>
        <time>2021-03-07T12:06:23.746Z</time>
      </trkpt>
      <trkpt lat="48.55067" lon="2.13485">
        <ele>66</ele>
        <time>2021-03-07T12:06:24.745Z</time>
      </trkpt>
      <trkpt lat="48.55068" lon="2.13487">
        <ele>66</ele>
        <time>2021-03-07T12:06:25.746Z</time>
      </trkpt>
      <trkpt lat="48.55069" lon="2.13489">
        <ele>65</ele>
        <time>2021-03-07T12:06:26.746Z</time>
      </trkpt>
      <trkpt lat="48.5507" lon="2.13491">
        <ele>65</ele>
        <time>2021-03-07T12:06:27.745Z</time>
      </trkpt>
      <trkpt lat="48.55071" lon="2.13492">
        <ele>65</ele>
        <time>2021-03-07T12:06:28.746Z</time>
      </trkpt>
      <trkpt lat="48.55072" lon="2.13494">
        <ele>65</ele>
        <time>2021-03-07T12:06:29.746Z</time>
      </trkpt>
      <trkpt lat="48.55073" lon="2.13496">
        <ele>65</ele>
        <time>2021-03-07T12:06:30.746Z</time>
      </trkpt>
      <trkpt lat="48.55074" lon="2.13497">
        <ele>66</ele>
        <time>2021-03-07T12:06:31.745Z</time>
      </trkpt>
      <trkpt lat="48.55076" lon="2.135">
        <ele>66</ele>
        <time>2021-03-07T12:06:32.746Z</time>
      </trkpt>
      <trkpt lat="48.55077" lon="2.13502">
        <ele>67</ele>
        <time>2021-03-07T12:06:33.746Z</time>
      </trkpt>
      <trkpt lat="48.55078" lon="2.13503">
        <ele>67</ele>
        <time>2021-03-07T12:06:34.745Z</time>
      </trkpt>
      <trkpt lat="48.55078" lon="2.13505">
        <ele>67</ele>
        <time>2021-03-07T12:06:35.746Z</time>
      </trkpt>
      <trkpt lat="48.55079" lon="2.13507">
        <ele>67</ele>
        <time>2021-03-07T12:06:36.746Z</time>
      </trkpt>
      <trkpt lat="48.5508" lon="2.13509">
        <ele>68</ele>
        <time>2021-03-07T12:06:37.746Z</time>
      </trkpt>
      <trkpt lat="48.55082" lon="2.13511">
        <ele>68</ele>
        <time>2021-03-07T12:06:38.746Z</time>
      </trkpt>
      <trkpt lat="48.55083" lon="2.13513">
        <ele>68</ele>
        <time>2021-03-07T12:06:39.745Z</time>
      </trkpt>
      <trkpt lat="48.55084" lon="2.13514">
        <ele>68</ele>
        <time>2021-03-07T12:06:40.745Z</time>
      </trkpt>
      <trkpt lat="48.55085" lon="2.13517">
        <ele>69</ele>
        <time>2021-03-07T12:06:41.745Z</time>
      </trkpt>
      <trkpt lat="48.55086" lon="2.13518">
        <ele>69</ele>
        <time>2021-03-07T12:06:42.746Z</time>
      </trkpt>
      <trkpt lat="48.55087" lon="2.1352">
        <ele>69</ele>
        <time>2021-03-07T12:06:43.746Z</time>
      </trkpt>
      <trkpt lat="48.55088" lon="2.13522">
        <ele>70</ele>
        <time>2021-03-07T12:06:44.746Z</time>
      </trkpt>
      <trkpt lat="48.55089" lon="2.13524">
        <ele>70</ele>
        <time>2021-03-07T12:06:45.745Z</time>
      </trkpt>
      <trkpt lat="48.5509" lon="2.13526">
        <ele>71</ele>
        <time>2021-03-07T12:06:46.745Z</time>
      </trkpt>
      <trkpt lat="48.55091" lon="2.13528">
        <ele>71</ele>
        <time>2021-03-07T12:06:47.746Z</time>
      </trkpt>
      <trkpt lat="48.55091" lon="2.1353">
        <ele>71</ele>
        <time>2021-03-07T12:06:48.746Z</time>
      </trkpt>
      <trkpt lat="48.55092" lon="2.13532">
        <ele>71</ele>
        <time>2021-03-07T12:06:49.746Z</time>
      </trkpt>
      <trkpt lat="48.55093" lon="2.13534">
        <ele>71</ele>
        <time>2021-03-07T12:06:50.746Z</time>
      </trkpt>
      <trkpt lat="48.55093" lon="2.13536">
        <ele>71</ele>
        <time>2021-03-07T12:06:51.745Z</time>
      </trkpt>
      <trkpt lat="48.55094" lon="2.13539">
        <ele>72</ele>
        <time>2021-03-07T12:06:52.745Z</time>
      </trkpt>
      <trkpt lat="48.55095" lon="2.1354">
        <ele>72</ele>
        <time>2021-03-07T12:06:53.745Z</time>
      </trkpt>
      <trkpt lat="48.55095" lon="2.13541">
        <ele>72</ele>
        <time>2021-03-07T12:06:54.745Z</time>
      </trkpt>
      <trkpt lat="48.55096" lon="2.13543">
        <ele>72</ele>
        <time>2021-03-07T12:06:55.745Z</time>
      </trkpt>
      <trkpt lat="48.55096" lon="2.13545">
        <ele>71</ele>
        <time>2021-03-07T12:06:56.745Z</time>
      </trkpt>
      <trkpt lat="48.55097" lon="2.13547">
        <ele>71</ele>
        <time>2021-03-07T12:06:57.745Z</time>
      </trkpt>
      <trkpt lat="48.55098" lon="2.13549">
        <ele>70</ele>
        <time>2021-03-07T12:06:58.745Z</time>
      </trkpt>
      <trkpt lat="48.55098" lon="2.13551">
        <ele>70</ele>
        <time>2021-03-07T12:06:59.745Z</time>
      </trkpt>
      <trkpt lat="48.55098" lon="2.13553">
        <ele>69</ele>
        <time>2021-03-07T12:07:00.745Z</time>
      </trkpt>
      <trkpt lat="48.55099" lon="2.13555">
        <ele>69</ele>
        <time>2021-03-07T12:07:01.745Z</time>
      </trkpt>
      <trkpt lat="48.551" lon="2.13557">
        <ele>68</ele>
        <time>2021-03-07T12:07:02.746Z</time>
      </trkpt>
      <trkpt lat="48.551" lon="2.13559">
        <ele>68</ele>
        <time>2021-03-07T12:07:03.745Z</time>
      </trkpt>
      <trkpt lat="48.551" lon="2.13561">
        <ele>68</ele>
        <time>2021-03-07T12:07:04.745Z</time>
      </trkpt>
      <trkpt lat="48.55101" lon="2.13563">
        <ele>68</ele>
        <time>2021-03-07T12:07:05.746Z</time>
      </trkpt>
      <trkpt lat="48.55102" lon="2.13566">
        <ele>68</ele>
        <time>2021-03-07T12:07:06.745Z</time>
      </trkpt>
      <trkpt lat="48.55103" lon="2.13568">
        <ele>67</ele>
        <time>2021-03-07T12:07:07.746Z</time>
      </trkpt>
      <trkpt lat="48.55104" lon="2.13571">
        <ele>67</ele>
        <time>2021-03-07T12:07:08.746Z</time>
      </trkpt>
      <trkpt lat="48.55104" lon="2.13574">
        <ele>66</ele>
        <time>2021-03-07T12:07:09.746Z</time>
      </trkpt>
      <trkpt lat="48.55104" lon="2.13577">
        <ele>66</ele>
        <time>2021-03-07T12:07:10.745Z</time>
      </trkpt>
      <trkpt lat="48.55105" lon="2.13582">
        <ele>65</ele>
        <time>2021-03-07T12:07:11.746Z</time>
      </trkpt>
      <trkpt lat="48.55107" lon="2.13587">
        <ele>64</ele>
        <time>2021-03-07T12:07:12.746Z</time>
      </trkpt>
      <trkpt lat="48.55108" lon="2.13592">
        <ele>64</ele>
        <time>2021-03-07T12:07:13.745Z</time>
      </trkpt>
      <trkpt lat="48.55109" lon="2.13597">
        <ele>63</ele>
        <time>2021-03-07T12:07:14.746Z</time>
      </trkpt>
      <trkpt lat="48.5511" lon="2.136">
        <ele>63</ele>
        <time>2021-03-07T12:07:15.745Z</time>
      </trkpt>
      <trkpt lat="48.55112" lon="2.13606">
        <ele>63</ele>
        <time>2021-03-07T12:07:16.745Z</time>
      </trkpt>
      <trkpt lat="48.55114" lon="2.13611">
        <ele>63</ele>
        <time>2021-03-07T12:07:17.746Z</time>
      </trkpt>
      <trkpt lat="48.55115" lon="2.13615">
        <ele>63</ele>
        <time>2021-03-07T12:07:18.746Z</time>
      </trkpt>
      <trkpt lat="48.55117" lon="2.1362">
        <ele>63</ele>
        <time>2021-03-07T12:07:19.746Z</time>
      </trkpt>
      <trkpt lat="48.55118" lon="2.13624">
        <ele>64</ele>
        <time>2021-03-07T12:07:20.745Z</time>
      </trkpt>
      <trkpt lat="48.55119" lon="2.13628">
        <ele>64</ele>
        <time>2021-03-07T12:07:21.745Z</time>
      </trkpt>
      <trkpt lat="48.5512" lon="2.13632">
        <ele>65</ele>
        <time>2021-03-07T12:07:22.746Z</time>
      </trkpt>
      <trkpt lat="48.55121" lon="2.13636">
        <ele>65</ele>
        <time>2021-03-07T12:07:23.745Z</time>
      </trkpt>
      <trkpt lat="48.55123" lon="2.13641">
        <ele>66</ele>
        <time>2021-03-07T12:07:24.745Z</time>
      </trkpt>
      <trkpt lat="48.55125" lon="2.13646">
        <ele>66</ele>
        <time>2021-03-07T12:07:25.746Z</time>
      </trkpt>
      <trkpt lat="48.55126" lon="2.1365">
        <ele>67</ele>
        <time>2021-03-07T12:07:26.746Z</time>
      </trkpt>
      <trkpt lat="48.55127" lon="2.13655">
        <ele>67</ele>
        <time>2021-03-07T12:07:27.746Z</time>
      </trkpt>
      <trkpt lat="48.55128" lon="2.13661">
        <ele>68</ele>
        <time>2021-03-07T12:07:28.746Z</time>
      </trkpt>
      <trkpt lat="48.55129" lon="2.13667">
        <ele>68</ele>
        <time>2021-03-07T12:07:29.746Z</time>
      </trkpt>
      <trkpt lat="48.5513" lon="2.1367">
        <ele>69</ele>
        <time>2021-03-07T12:07:30.746Z</time>
      </trkpt>
      <trkpt lat="48.5513" lon="2.13675">
        <ele>69</ele>
        <time>2021-03-07T12:07:31.745Z</time>
      </trkpt>
      <trkpt lat="48.55131" lon="2.1368">
        <ele>69</ele>
        <time>2021-03-07T12:07:32.745Z</time>
      </trkpt>
      <trkpt lat="48.55132" lon="2.13685">
        <ele>69</ele>
        <time>2021-03-07T12:07:33.746Z</time>
      </trkpt>
      <trkpt lat="48.55133" lon="2.1369">
        <ele>69</ele>
        <time>2021-03-07T12:07:34.746Z</time>
      </trkpt>
      <trkpt lat="48.55133" lon="2.13695">
        <ele>70</ele>
        <time>2021-03-07T12:07:35.746Z</time>
      </trkpt>
      <trkpt lat="48.55134" lon="2.13698">
        <ele>70</ele>
        <time>2021-03-07T12:07:36.746Z</time>
      </trkpt>
      <trkpt lat="48.55134" lon="2.13703">
        <ele>70</ele>
        <time>2021-03-07T12:07:37.745Z</time>
      </trkpt>
      <trkpt lat="48.55134" lon="2.13707">
        <ele>70</ele>
        <time>2021-03-07T12:07:38.746Z</time>
      </trkpt>
      <trkpt lat="48.55135" lon="2.1371">
        <ele>70</ele>
        <time>2021-03-07T12:07:39.746Z</time>
      </trkpt>
      <trkpt lat="48.55135" lon="2.13714">
        <ele>70</ele>
        <time>2021-03-07T12:07:40.746Z</time>
      </trkpt>
      <trkpt lat="48.55135" lon="2.1372">
        <ele>70</ele>
        <time>2021-03-07T12:07:41.746Z</time>
      </trkpt>
      <trkpt lat="48.55135" lon="2.13723">
        <ele>70</ele>
        <time>2021-03-07T12:07:42.746Z</time>
      </trkpt>
      <trkpt lat="48.55135" lon="2.13726">
        <ele>70</ele>
        <time>2021-03-07T12:07:43.746Z</time>
      </trkpt>
      <trkpt lat="48.55135" lon="2.13729">
        <ele>70</ele>
        <time>2021-03-07T12:07:44.745Z</time>
      </trkpt>
      <trkpt lat="48.55136" lon="2.13732">
        <ele>70</ele>
        <time>2021-03-07T12:07:45.746Z</time>
      </trkpt>
      <trkpt lat="48.55137" lon="2.13735">
        <ele>70</ele>
        <time>2021-03-07T12:07:46.745Z</time>
      </trkpt>
      <trkpt lat="48.55138" lon="2.13739">
        <ele>71</ele>
        <time>2021-03-07T12:07:47.746Z</time>
      </trkpt>
      <trkpt lat="48.55139" lon="2.13742">
        <ele>71</ele>
        <time>2021-03-07T12:07:48.745Z</time>
      </trkpt>
      <trkpt lat="48.55142" lon="2.13748">
        <ele>71</ele>
        <time>2021-03-07T12:07:49.746Z</time>
      </trkpt>
      <trkpt lat="48.55144" lon="2.13752">
        <ele>71</ele>
        <time>2021-03-07T12:07:50.745Z</time>
      </trkpt>
      <trkpt lat="48.55145" lon="2.13755">
        <ele>71</ele>
        <time>2021-03-07T12:07:51.745Z</time>
      </trkpt>
      <trkpt lat="48.55147" lon="2.13759">
        <ele>71</ele>
        <time>2021-03-07T12:07:52.746Z</time>
      </trkpt>
      <trkpt lat="48.55148" lon="2.13762">
        <ele>71</ele>
        <time>2021-03-07T12:07:53.746Z</time>
      </trkpt>
      <trkpt lat="48.5515" lon="2.13766">
        <ele>71</ele>
        <time>2021-03-07T12:07:54.746Z</time>
      </trkpt>
      <trkpt lat="48.55151" lon="2.1377">
        <ele>71</ele>
        <time>2021-03-07T12:07:55.746Z</time>
      </trkpt>
      <trkpt lat="48.55153" lon="2.13774">
        <ele>71</ele>
        <time>2021-03-07T12:07:56.745Z</time>
      </trkpt>
      <trkpt lat="48.55155" lon="2.13777">
        <ele>71</ele>
        <time>2021-03-07T12:07:57.746Z</time>
      </trkpt>
      <trkpt lat="48.55156" lon="2.13782">
        <ele>71</ele>
        <time>2021-03-07T12:07:58.745Z</time>
      </trkpt>
      <trkpt lat="48.55158" lon="2.13787">
        <ele>71</ele>
        <time>2021-03-07T12:07:59.745Z</time>
      </trkpt>
      <trkpt lat="48.5516" lon="2.13791">
        <ele>71</ele>
        <time>2021-03-07T12:08:00.745Z</time>
      </trkpt>
      <trkpt lat="48.5516" lon="2.13795">
        <ele>71</ele>
        <time>2021-03-07T12:08:01.746Z</time>
      </trkpt>
      <trkpt lat="48.55161" lon="2.13798">
        <ele>70</ele>
        <time>2021-03-07T12:08:02.745Z</time>
      </trkpt>
      <trkpt lat="48.55162" lon="2.13802">
        <ele>70</ele>
        <time>2021-03-07T12:08:03.746Z</time>
      </trkpt>
      <trkpt lat="48.55163" lon="2.13806">
        <ele>70</ele>
        <time>2021-03-07T12:08:04.745Z</time>
      </trkpt>
      <trkpt lat="48.55165" lon="2.1381">
        <ele>69</ele>
        <time>2021-03-07T12:08:05.746Z</time>
      </trkpt>
      <trkpt lat="48.55166" lon="2.13814">
        <ele>69</ele>
        <time>2021-03-07T12:08:06.746Z</time>
      </trkpt>
      <trkpt lat="48.55166" lon="2.13818">
        <ele>69</ele>
        <time>2021-03-07T12:08:07.745Z</time>
      </trkpt>
      <trkpt lat="48.55167" lon="2.13821">
        <ele>69</ele>
        <time>2021-03-07T12:08:08.746Z</time>
      </trkpt>
      <trkpt lat="48.55167" lon="2.13824">
        <ele>69</ele>
        <time>2021-03-07T12:08:09.746Z</time>
      </trkpt>
      <trkpt lat="48.55168" lon="2.13828">
        <ele>68</ele>
        <time>2021-03-07T12:08:10.746Z</time>
      </trkpt>
      <trkpt lat="48.55168" lon="2.13832">
        <ele>68</ele>
        <time>2021-03-07T12:08:11.746Z</time>
      </trkpt>
      <trkpt lat="48.55168" lon="2.13835">
        <ele>68</ele>
        <time>2021-03-07T12:08:12.746Z</time>
      </trkpt>
      <trkpt lat="48.55169" lon="2.13839">
        <ele>68</ele>
        <time>2021-03-07T12:08:13.746Z</time>
      </trkpt>
      <trkpt lat="48.55169" lon="2.13842">
        <ele>68</ele>
        <time>2021-03-07T12:08:14.746Z</time>
      </trkpt>
      <trkpt lat="48.55168" lon="2.13845">
        <ele>68</ele>
        <time>2021-03-07T12:08:15.745Z</time>
      </trkpt>
      <trkpt lat="48.55169" lon="2.13849">
        <ele>68</ele>
        <time>2021-03-07T12:08:16.745Z</time>
      </trkpt>
      <trkpt lat="48.55169" lon="2.13853">
        <ele>68</ele>
        <time>2021-03-07T12:08:17.746Z</time>
      </trkpt>
      <trkpt lat="48.5517" lon="2.13857">
        <ele>67</ele>
        <time>2021-03-07T12:08:18.745Z</time>
      </trkpt>
      <trkpt lat="48.55171" lon="2.13861">
        <ele>67</ele>
        <time>2021-03-07T12:08:19.746Z</time>
      </trkpt>
      <trkpt lat="48.55173" lon="2.13867">
        <ele>67</ele>
        <time>2021-03-07T12:08:20.746Z</time>
      </trkpt>
      <trkpt lat="48.55174" lon="2.13873">
        <ele>67</ele>
        <time>2021-03-07T12:08:21.746Z</time>
      </trkpt>
      <trkpt lat="48.55174" lon="2.13881">
        <ele>67</ele>
        <time>2021-03-07T12:08:22.746Z</time>
      </trkpt>
      <trkpt lat="48.55176" lon="2.13886">
        <ele>67</ele>
        <time>2021-03-07T12:08:23.746Z</time>
      </trkpt>
      <trkpt lat="48.55179" lon="2.13892">
        <ele>67</ele>
        <time>2021-03-07T12:08:24.745Z</time>
      </trkpt>
      <trkpt lat="48.55181" lon="2.13896">
        <ele>67</ele>
        <time>2021-03-07T12:08:25.746Z</time>
      </trkpt>
      <trkpt lat="48.55183" lon="2.13901">
        <ele>68</ele>
        <time>2021-03-07T12:08:26.746Z</time>
      </trkpt>
      <trkpt lat="48.55185" lon="2.13906">
        <ele>68</ele>
        <time>2021-03-07T12:08:27.745Z</time>
      </trkpt>
      <trkpt lat="48.55186" lon="2.1391">
        <ele>68</ele>
        <time>2021-03-07T12:08:28.746Z</time>
      </trkpt>
      <trkpt lat="48.55187" lon="2.13915">
        <ele>69</ele>
        <time>2021-03-07T12:08:29.746Z</time>
      </trkpt>
      <trkpt lat="48.55189" lon="2.13919">
        <ele>69</ele>
        <time>2021-03-07T12:08:30.746Z</time>
      </trkpt>
      <trkpt lat="48.55191" lon="2.13923">
        <ele>69</ele>
        <time>2021-03-07T12:08:31.745Z</time>
      </trkpt>
      <trkpt lat="48.55194" lon="2.13927">
        <ele>70</ele>
        <time>2021-03-07T12:08:32.746Z</time>
      </trkpt>
      <trkpt lat="48.55195" lon="2.13931">
        <ele>70</ele>
        <time>2021-03-07T12:08:33.745Z</time>
      </trkpt>
      <trkpt lat="48.55197" lon="2.13937">
        <ele>70</ele>
        <time>2021-03-07T12:08:34.746Z</time>
      </trkpt>
      <trkpt lat="48.55199" lon="2.13941">
        <ele>71</ele>
        <time>2021-03-07T12:08:35.746Z</time>
      </trkpt>
      <trkpt lat="48.55201" lon="2.13945">
        <ele>71</ele>
        <time>2021-03-07T12:08:36.746Z</time>
      </trkpt>
      <trkpt lat="48.55203" lon="2.13951">
        <ele>71</ele>
        <time>2021-03-07T12:08:37.746Z</time>
      </trkpt>
      <trkpt lat="48.55205" lon="2.13956">
        <ele>72</ele>
        <time>2021-03-07T12:08:38.745Z</time>
      </trkpt>
      <trkpt lat="48.55208" lon="2.1396">
        <ele>72</ele>
        <time>2021-03-07T12:08:39.746Z</time>
      </trkpt>
      <trkpt lat="48.5521" lon="2.13965">
        <ele>72</ele>
        <time>2021-03-07T12:08:40.745Z</time>
      </trkpt>
      <trkpt lat="48.55211" lon="2.13969">
        <ele>73</ele>
        <time>2021-03-07T12:08:41.746Z</time>
      </trkpt>
      <trkpt lat="48.55213" lon="2.13975">
        <ele>73</ele>
        <time>2021-03-07T12:08:42.745Z</time>
      </trkpt>
      <trkpt lat="48.55214" lon="2.13978">
        <ele>74</ele>
        <time>2021-03-07T12:08:43.745Z</time>
      </trkpt>
      <trkpt lat="48.55215" lon="2.13981">
        <ele>74</ele>
        <time>2021-03-07T12:08:44.746Z</time>
      </trkpt>
      <trkpt lat="48.55217" lon="2.13985">
        <ele>74</ele>
        <time>2021-03-07T12:08:45.746Z</time>
      </trkpt>
      <trkpt lat="48.55218" lon="2.13988">
        <ele>75</ele>
        <time>2021-03-07T12:08:46.746Z</time>
      </trkpt>
      <trkpt lat="48.5522" lon="2.13992">
        <ele>75</ele>
        <time>2021-03-07T12:08:47.746Z</time>
      </trkpt>
      <trkpt lat="48.55222" lon="2.13996">
        <ele>75</ele>
        <time>2021-03-07T12:08:48.746Z</time>
      </trkpt>
      <trkpt lat="48.55224" lon="2.14">
        <ele>76</ele>
        <time>2021-03-07T12:08:49.746Z</time>
      </trkpt>
      <trkpt lat="48.55226" lon="2.14004">
        <ele>76</ele>
        <time>2021-03-07T12:08:50.745Z</time>
      </trkpt>
      <trkpt lat="48.55228" lon="2.14008">
        <ele>76</ele>
        <time>2021-03-07T12:08:51.746Z</time>
      </trkpt>
      <trkpt lat="48.5523" lon="2.14012">
        <ele>77</ele>
        <time>2021-03-07T12:08:52.746Z</time>
      </trkpt>
      <trkpt lat="48.55232" lon="2.14016">
        <ele>77</ele>
        <time>2021-03-07T12:08:53.746Z</time>
      </trkpt>
      <trkpt lat="48.55234" lon="2.1402">
        <ele>77</ele>
        <time>2021-03-07T12:08:54.746Z</time>
      </trkpt>
      <trkpt lat="48.55235" lon="2.14024">
        <ele>77</ele>
        <time>2021-03-07T12:08:55.746Z</time>
      </trkpt>
      <trkpt lat="48.55238" lon="2.14029">
        <ele>77</ele>
        <time>2021-03-07T12:08:56.746Z</time>
      </trkpt>
      <trkpt lat="48.5524" lon="2.14034">
        <ele>77</ele>
        <time>2021-03-07T12:08:57.745Z</time>
      </trkpt>
      <trkpt lat="48.55241" lon="2.14038">
        <ele>77</ele>
        <time>2021-03-07T12:08:58.746Z</time>
      </trkpt>
      <trkpt lat="48.55243" lon="2.14043">
        <ele>76</ele>
        <time>2021-03-07T12:08:59.746Z</time>
      </trkpt>
      <trkpt lat="48.55245" lon="2.14048">
        <ele>76</ele>
        <time>2021-03-07T12:09:00.746Z</time>
      </trkpt>
      <trkpt lat="48.55247" lon="2.14052">
        <ele>76</ele>
        <time>2021-03-07T12:09:01.746Z</time>
      </trkpt>
      <trkpt lat="48.55249" lon="2.14056">
        <ele>75</ele>
        <time>2021-03-07T12:09:02.746Z</time>
      </trkpt>
      <trkpt lat="48.5525" lon="2.1406">
        <ele>75</ele>
        <time>2021-03-07T12:09:03.745Z</time>
      </trkpt>
      <trkpt lat="48.55252" lon="2.14064">
        <ele>75</ele>
        <time>2021-03-07T12:09:04.746Z</time>
      </trkpt>
      <trkpt lat="48.55255" lon="2.14069">
        <ele>75</ele>
        <time>2021-03-07T12:09:05.745Z</time>
      </trkpt>
      <trkpt lat="48.55256" lon="2.14073">
        <ele>75</ele>
        <time>2021-03-07T12:09:06.745Z</time>
      </trkpt>
      <trkpt lat="48.55258" lon="2.14078">
        <ele>74</ele>
        <time>2021-03-07T12:09:07.746Z</time>
      </trkpt>
      <trkpt lat="48.5526" lon="2.14082">
        <ele>74</ele>
        <time>2021-03-07T12:09:08.746Z</time>
      </trkpt>
      <trkpt lat="48.55262" lon="2.14086">
        <ele>74</ele>
        <time>2021-03-07T12:09:09.746Z</time>
      </trkpt>
      <trkpt lat="48.55263" lon="2.1409">
        <ele>74</ele>
        <time>2021-03-07T12:09:10.746Z</time>
      </trkpt>
      <trkpt lat="48.55264" lon="2.14096">
        <ele>74</ele>
        <time>2021-03-07T12:09:11.745Z</time>
      </trkpt>
      <trkpt lat="48.55266" lon="2.14101">
        <ele>73</ele>
        <time>2021-03-07T12:09:12.746Z</time>
      </trkpt>
      <trkpt lat="48.55267" lon="2.14107">
        <ele>74</ele>
        <time>2021-03-07T12:09:13.745Z</time>
      </trkpt>
      <trkpt lat="48.55268" lon="2.14112">
        <ele>74</ele>
        <time>2021-03-07T12:09:14.746Z</time>
      </trkpt>
      <trkpt lat="48.5527" lon="2.14117">
        <ele>74</ele>
        <time>2021-03-07T12:09:15.745Z</time>
      </trkpt>
      <trkpt lat="48.55273" lon="2.14122">
        <ele>74</ele>
        <time>2021-03-07T12:09:16.745Z</time>
      </trkpt>
      <trkpt lat="48.55274" lon="2.14127">
        <ele>74</ele>
        <time>2021-03-07T12:09:17.746Z</time>
      </trkpt>
      <trkpt lat="48.55275" lon="2.14131">
        <ele>74</ele>
        <time>2021-03-07T12:09:18.746Z</time>
      </trkpt>
      <trkpt lat="48.55276" lon="2.14135">
        <ele>74</ele>
        <time>2021-03-07T12:09:19.746Z</time>
      </trkpt>
      <trkpt lat="48.55277" lon="2.14139">
        <ele>74</ele>
        <time>2021-03-07T12:09:20.746Z</time>
      </trkpt>
      <trkpt lat="48.55279" lon="2.14146">
        <ele>73</ele>
        <time>2021-03-07T12:09:21.746Z</time>
      </trkpt>
      <trkpt lat="48.55282" lon="2.14152">
        <ele>73</ele>
        <time>2021-03-07T12:09:22.745Z</time>
      </trkpt>
      <trkpt lat="48.55284" lon="2.14157">
        <ele>73</ele>
        <time>2021-03-07T12:09:23.746Z</time>
      </trkpt>
      <trkpt lat="48.55286" lon="2.14161">
        <ele>72</ele>
        <time>2021-03-07T12:09:24.745Z</time>
      </trkpt>
      <trkpt lat="48.55287" lon="2.14166">
        <ele>72</ele>
        <time>2021-03-07T12:09:25.746Z</time>
      </trkpt>
      <trkpt lat="48.55288" lon="2.14171">
        <ele>72</ele>
        <time>2021-03-07T12:09:26.746Z</time>
      </trkpt>
      <trkpt lat="48.55288" lon="2.14175">
        <ele>72</ele>
        <time>2021-03-07T12:09:27.745Z</time>
      </trkpt>
      <trkpt lat="48.55288" lon="2.14179">
        <ele>73</ele>
        <time>2021-03-07T12:09:28.746Z</time>
      </trkpt>
      <trkpt lat="48.55289" lon="2.14184">
        <ele>73</ele>
        <time>2021-03-07T12:09:29.745Z</time>
      </trkpt>
      <trkpt lat="48.55289" lon="2.14189">
        <ele>73</ele>
        <time>2021-03-07T12:09:30.746Z</time>
      </trkpt>
      <trkpt lat="48.55289" lon="2.14193">
        <ele>72</ele>
        <time>2021-03-07T12:09:31.746Z</time>
      </trkpt>
      <trkpt lat="48.5529" lon="2.14197">
        <ele>72</ele>
        <time>2021-03-07T12:09:32.745Z</time>
      </trkpt>
      <trkpt lat="48.55291" lon="2.14201">
        <ele>72</ele>
        <time>2021-03-07T12:09:33.746Z</time>
      </trkpt>
      <trkpt lat="48.55292" lon="2.14206">
        <ele>72</ele>
        <time>2021-03-07T12:09:34.746Z</time>
      </trkpt>
      <trkpt lat="48.55293" lon="2.14211">
        <ele>72</ele>
        <time>2021-03-07T12:09:35.746Z</time>
      </trkpt>
      <trkpt lat="48.55294" lon="2.14216">
        <ele>71</ele>
        <time>2021-03-07T12:09:36.745Z</time>
      </trkpt>
      <trkpt lat="48.55295" lon="2.14221">
        <ele>71</ele>
        <time>2021-03-07T12:09:37.745Z</time>
      </trkpt>
      <trkpt lat="48.55295" lon="2.14225">
        <ele>71</ele>
        <time>2021-03-07T12:09:38.746Z</time>
      </trkpt>
      <trkpt lat="48.55295" lon="2.14229">
        <ele>71</ele>
        <time>2021-03-07T12:09:39.746Z</time>
      </trkpt>
      <trkpt lat="48.55297" lon="2.14233">
        <ele>71</ele>
        <time>2021-03-07T12:09:40.746Z</time>
      </trkpt>
      <trkpt lat="48.55297" lon="2.14236">
        <ele>71</ele>
        <time>2021-03-07T12:09:41.746Z</time>
      </trkpt>
      <trkpt lat="48.55297" lon="2.1424">
        <ele>71</ele>
        <time>2021-03-07T12:09:42.746Z</time>
      </trkpt>
      <trkpt lat="48.55298" lon="2.14244">
        <ele>71</ele>
        <time>2021-03-07T12:09:43.746Z</time>
      </trkpt>
      <trkpt lat="48.55299" lon="2.14248">
        <ele>70</ele>
        <time>2021-03-07T12:09:44.746Z</time>
      </trkpt>
      <trkpt lat="48.55299" lon="2.14252">
        <ele>70</ele>
        <time>2021-03-07T12:09:45.746Z</time>
      </trkpt>
      <trkpt lat="48.553" lon="2.14257">
        <ele>70</ele>
        <time>2021-03-07T12:09:46.745Z</time>
      </trkpt>
      <trkpt lat="48.553" lon="2.14261">
        <ele>69</ele>
        <time>2021-03-07T12:09:47.746Z</time>
      </trkpt>
      <trkpt lat="48.553" lon="2.14267">
        <ele>69</ele>
        <time>2021-03-07T12:09:48.746Z</time>
      </trkpt>
      <trkpt lat="48.55299" lon="2.14272">
        <ele>69</ele>
        <time>2021-03-07T12:09:49.745Z</time>
      </trkpt>
      <trkpt lat="48.55299" lon="2.14277">
        <ele>68</ele>
        <time>2021-03-07T12:09:50.746Z</time>
      </trkpt>
      <trkpt lat="48.55299" lon="2.14282">
        <ele>68</ele>
        <time>2021-03-07T12:09:51.746Z</time>
      </trkpt>
      <trkpt lat="48.553" lon="2.14287">
        <ele>68</ele>
        <time>2021-03-07T12:09:52.745Z</time>
      </trkpt>
      <trkpt lat="48.55301" lon="2.14292">
        <ele>67</ele>
        <time>2021-03-07T12:09:53.746Z</time>
      </trkpt>
      <trkpt lat="48.55302" lon="2.14298">
        <ele>67</ele>
        <time>2021-03-07T12:09:54.746Z</time>
      </trkpt>
      <trkpt lat="48.55302" lon="2.14303">
        <ele>67</ele>
        <time>2021-03-07T12:09:55.746Z</time>
      </trkpt>
      <trkpt lat="48.55303" lon="2.14309">
        <ele>66</ele>
        <time>2021-03-07T12:09:56.745Z</time>
      </trkpt>
      <trkpt lat="48.55305" lon="2.14315">
        <ele>66</ele>
        <time>2021-03-07T12:09:57.746Z</time>
      </trkpt>
      <trkpt lat="48.55306" lon="2.14321">
        <ele>65</ele>
        <time>2021-03-07T12:09:58.745Z</time>
      </trkpt>
      <trkpt lat="48.55307" lon="2.14328">
        <ele>65</ele>
        <time>2021-03-07T12:09:59.746Z</time>
      </trkpt>
      <trkpt lat="48.55308" lon="2.14333">
        <ele>65</ele>
        <time>2021-03-07T12:10:00.745Z</time>
      </trkpt>
      <trkpt lat="48.55309" lon="2.14338">
        <ele>64</ele>
        <time>2021-03-07T12:10:01.746Z</time>
      </trkpt>
      <trkpt lat="48.5531" lon="2.14343">
        <ele>64</ele>
        <time>2021-03-07T12:10:02.746Z</time>
      </trkpt>
      <trkpt lat="48.55311" lon="2.14349">
        <ele>63</ele>
        <time>2021-03-07T12:10:03.746Z</time>
      </trkpt>
      <trkpt lat="48.55312" lon="2.14353">
        <ele>63</ele>
        <time>2021-03-07T12:10:04.746Z</time>
      </trkpt>
      <trkpt lat="48.55312" lon="2.1436">
        <ele>63</ele>
        <time>2021-03-07T12:10:05.746Z</time>
      </trkpt>
      <trkpt lat="48.55313" lon="2.14365">
        <ele>62</ele>
        <time>2021-03-07T12:10:06.746Z</time>
      </trkpt>
      <trkpt lat="48.55314" lon="2.1437">
        <ele>62</ele>
        <time>2021-03-07T12:10:07.746Z</time>
      </trkpt>
      <trkpt lat="48.55315" lon="2.14375">
        <ele>62</ele>
        <time>2021-03-07T12:10:08.746Z</time>
      </trkpt>
      <trkpt lat="48.55315" lon="2.1438">
        <ele>62</ele>
        <time>2021-03-07T12:10:09.745Z</time>
      </trkpt>
      <trkpt lat="48.55316" lon="2.14384">
        <ele>61</ele>
        <time>2021-03-07T12:10:10.746Z</time>
      </trkpt>
      <trkpt lat="48.55316" lon="2.1439">
        <ele>61</ele>
        <time>2021-03-07T12:10:11.745Z</time>
      </trkpt>
      <trkpt lat="48.55316" lon="2.14395">
        <ele>61</ele>
        <time>2021-03-07T12:10:12.746Z</time>
      </trkpt>
      <trkpt lat="48.55316" lon="2.14399">
        <ele>60</ele>
        <time>2021-03-07T12:10:13.746Z</time>
      </trkpt>
      <trkpt lat="48.55315" lon="2.14403">
        <ele>60</ele>
        <time>2021-03-07T12:10:14.746Z</time>
      </trkpt>
      <trkpt lat="48.55315" lon="2.14406">
        <ele>60</ele>
        <time>2021-03-07T12:10:15.745Z</time>
      </trkpt>
      <trkpt lat="48.55314" lon="2.14412">
        <ele>59</ele>
        <time>2021-03-07T12:10:16.745Z</time>
      </trkpt>
      <trkpt lat="48.55314" lon="2.14417">
        <ele>59</ele>
        <time>2021-03-07T12:10:17.746Z</time>
      </trkpt>
      <trkpt lat="48.55314" lon="2.14422">
        <ele>58</ele>
        <time>2021-03-07T12:10:18.746Z</time>
      </trkpt>
      <trkpt lat="48.55315" lon="2.14426">
        <ele>57</ele>
        <time>2021-03-07T12:10:19.746Z</time>
      </trkpt>
      <trkpt lat="48.55316" lon="2.1443">
        <ele>57</ele>
        <time>2021-03-07T12:10:20.746Z</time>
      </trkpt>
      <trkpt lat="48.55316" lon="2.14435">
        <ele>57</ele>
        <time>2021-03-07T12:10:21.745Z</time>
      </trkpt>
      <trkpt lat="48.55318" lon="2.14441">
        <ele>57</ele>
        <time>2021-03-07T12:10:22.746Z</time>
      </trkpt>
      <trkpt lat="48.55319" lon="2.14447">
        <ele>56</ele>
        <time>2021-03-07T12:10:23.745Z</time>
      </trkpt>
      <trkpt lat="48.55321" lon="2.14453">
        <ele>56</ele>
        <time>2021-03-07T12:10:24.746Z</time>
      </trkpt>
      <trkpt lat="48.55322" lon="2.1446">
        <ele>56</ele>
        <time>2021-03-07T12:10:25.746Z</time>
      </trkpt>
      <trkpt lat="48.55323" lon="2.14467">
        <ele>56</ele>
        <time>2021-03-07T12:10:26.746Z</time>
      </trkpt>
      <trkpt lat="48.55325" lon="2.14473">
        <ele>56</ele>
        <time>2021-03-07T12:10:27.745Z</time>
      </trkpt>
      <trkpt lat="48.55325" lon="2.14479">
        <ele>56</ele>
        <time>2021-03-07T12:10:28.746Z</time>
      </trkpt>
      <trkpt lat="48.55325" lon="2.14485">
        <ele>56</ele>
        <time>2021-03-07T12:10:29.745Z</time>
      </trkpt>
      <trkpt lat="48.55325" lon="2.14491">
        <ele>56</ele>
        <time>2021-03-07T12:10:30.745Z</time>
      </trkpt>
      <trkpt lat="48.55326" lon="2.14496">
        <ele>56</ele>
        <time>2021-03-07T12:10:31.746Z</time>
      </trkpt>
      <trkpt lat="48.55326" lon="2.14503">
        <ele>56</ele>
        <time>2021-03-07T12:10:32.746Z</time>
      </trkpt>
      <trkpt lat="48.55326" lon="2.14508">
        <ele>56</ele>
        <time>2021-03-07T12:10:33.745Z</time>
      </trkpt>
      <trkpt lat="48.55326" lon="2.14514">
        <ele>56</ele>
        <time>2021-03-07T12:10:34.745Z</time>
      </trkpt>
      <trkpt lat="48.55326" lon="2.1452">
        <ele>56</ele>
        <time>2021-03-07T12:10:35.746Z</time>
      </trkpt>
      <trkpt lat="48.55325" lon="2.14525">
        <ele>56</ele>
        <time>2021-03-07T12:10:36.746Z</time>
      </trkpt>
      <trkpt lat="48.55325" lon="2.1453">
        <ele>56</ele>
        <time>2021-03-07T12:10:37.746Z</time>
      </trkpt>
      <trkpt lat="48.55325" lon="2.14535">
        <ele>56</ele>
        <time>2021-03-07T12:10:38.746Z</time>
      </trkpt>
      <trkpt lat="48.55323" lon="2.14539">
        <ele>56</ele>
        <time>2021-03-07T12:10:39.746Z</time>
      </trkpt>
      <trkpt lat="48.55323" lon="2.14544">
        <ele>56</ele>
        <time>2021-03-07T12:10:40.746Z</time>
      </trkpt>
      <trkpt lat="48.55323" lon="2.14551">
        <ele>56</ele>
        <time>2021-03-07T12:10:41.746Z</time>
      </trkpt>
      <trkpt lat="48.55324" lon="2.14557">
        <ele>56</ele>
        <time>2021-03-07T12:10:42.746Z</time>
      </trkpt>
      <trkpt lat="48.55325" lon="2.14563">
        <ele>57</ele>
        <time>2021-03-07T12:10:43.746Z</time>
      </trkpt>
      <trkpt lat="48.55326" lon="2.1457">
        <ele>57</ele>
        <time>2021-03-07T12:10:44.746Z</time>
      </trkpt>
      <trkpt lat="48.55327" lon="2.14575">
        <ele>57</ele>
        <time>2021-03-07T12:10:45.746Z</time>
      </trkpt>
      <trkpt lat="48.55327" lon="2.1458">
        <ele>57</ele>
        <time>2021-03-07T12:10:46.746Z</time>
      </trkpt>
      <trkpt lat="48.55326" lon="2.14585">
        <ele>57</ele>
        <time>2021-03-07T12:10:47.746Z</time>
      </trkpt>
      <trkpt lat="48.55326" lon="2.14589">
        <ele>58</ele>
        <time>2021-03-07T12:10:48.745Z</time>
      </trkpt>
      <trkpt lat="48.55328" lon="2.14594">
        <ele>58</ele>
        <time>2021-03-07T12:10:49.745Z</time>
      </trkpt>
      <trkpt lat="48.55329" lon="2.14599">
        <ele>58</ele>
        <time>2021-03-07T12:10:50.745Z</time>
      </trkpt>
      <trkpt lat="48.5533" lon="2.14604">
        <ele>58</ele>
        <time>2021-03-07T12:10:51.745Z</time>
      </trkpt>
      <trkpt lat="48.55331" lon="2.1461">
        <ele>59</ele>
        <time>2021-03-07T12:10:52.745Z</time>
      </trkpt>
      <trkpt lat="48.55332" lon="2.14615">
        <ele>59</ele>
        <time>2021-03-07T12:10:53.745Z</time>
      </trkpt>
      <trkpt lat="48.55333" lon="2.14618">
        <ele>59</ele>
        <time>2021-03-07T12:10:54.745Z</time>
      </trkpt>
      <trkpt lat="48.55335" lon="2.14623">
        <ele>59</ele>
        <time>2021-03-07T12:10:55.745Z</time>
      </trkpt>
      <trkpt lat="48.55336" lon="2.14628">
        <ele>59</ele>
        <time>2021-03-07T12:10:56.745Z</time>
      </trkpt>
      <trkpt lat="48.55337" lon="2.14632">
        <ele>59</ele>
        <time>2021-03-07T12:10:57.746Z</time>
      </trkpt>
      <trkpt lat="48.55338" lon="2.14636">
        <ele>60</ele>
        <time>2021-03-07T12:10:58.746Z</time>
      </trkpt>
      <trkpt lat="48.55339" lon="2.14641">
        <ele>60</ele>
        <time>2021-03-07T12:10:59.745Z</time>
      </trkpt>
      <trkpt lat="48.5534" lon="2.14645">
        <ele>60</ele>
        <time>2021-03-07T12:11:00.746Z</time>
      </trkpt>
      <trkpt lat="48.55341" lon="2.1465">
        <ele>60</ele>
        <time>2021-03-07T12:11:01.745Z</time>
      </trkpt>
      <trkpt lat="48.55342" lon="2.14654">
        <ele>60</ele>
        <time>2021-03-07T12:11:02.745Z</time>
      </trkpt>
      <trkpt lat="48.55343" lon="2.14659">
        <ele>61</ele>
        <time>2021-03-07T12:11:03.746Z</time>
      </trkpt>
      <trkpt lat="48.55345" lon="2.14664">
        <ele>61</ele>
        <time>2021-03-07T12:11:04.746Z</time>
      </trkpt>
      <trkpt lat="48.55346" lon="2.14669">
        <ele>61</ele>
        <time>2021-03-07T12:11:05.746Z</time>
      </trkpt>
      <trkpt lat="48.55348" lon="2.14674">
        <ele>61</ele>
        <time>2021-03-07T12:11:06.746Z</time>
      </trkpt>
      <trkpt lat="48.55349" lon="2.14679">
        <ele>61</ele>
        <time>2021-03-07T12:11:07.745Z</time>
      </trkpt>
      <trkpt lat="48.5535" lon="2.14684">
        <ele>61</ele>
        <time>2021-03-07T12:11:08.746Z</time>
      </trkpt>
      <trkpt lat="48.55351" lon="2.14688">
        <ele>61</ele>
        <time>2021-03-07T12:11:09.745Z</time>
      </trkpt>
      <trkpt lat="48.55351" lon="2.14693">
        <ele>61</ele>
        <time>2021-03-07T12:11:10.746Z</time>
      </trkpt>
      <trkpt lat="48.55352" lon="2.14698">
        <ele>62</ele>
        <time>2021-03-07T12:11:11.746Z</time>
      </trkpt>
      <trkpt lat="48.55352" lon="2.14703">
        <ele>62</ele>
        <time>2021-03-07T12:11:12.746Z</time>
      </trkpt>
      <trkpt lat="48.55352" lon="2.14707">
        <ele>62</ele>
        <time>2021-03-07T12:11:13.745Z</time>
      </trkpt>
      <trkpt lat="48.55352" lon="2.14711">
        <ele>62</ele>
        <time>2021-03-07T12:11:14.745Z</time>
      </trkpt>
      <trkpt lat="48.55352" lon="2.14716">
        <ele>63</ele>
        <time>2021-03-07T12:11:15.746Z</time>
      </trkpt>
      <trkpt lat="48.55352" lon="2.1472">
        <ele>63</ele>
        <time>2021-03-07T12:11:16.746Z</time>
      </trkpt>
      <trkpt lat="48.55352" lon="2.14724">
        <ele>63</ele>
        <time>2021-03-07T12:11:17.746Z</time>
      </trkpt>
      <trkpt lat="48.55351" lon="2.14727">
        <ele>63</ele>
        <time>2021-03-07T12:11:18.746Z</time>
      </trkpt>
      <trkpt lat="48.55351" lon="2.14732">
        <ele>63</ele>
        <time>2021-03-07T12:11:19.746Z</time>
      </trkpt>
      <trkpt lat="48.5535" lon="2.14736">
        <ele>63</ele>
        <time>2021-03-07T12:11:20.746Z</time>
      </trkpt>
      <trkpt lat="48.5535" lon="2.14741">
        <ele>64</ele>
        <time>2021-03-07T12:11:21.745Z</time>
      </trkpt>
      <trkpt lat="48.55349" lon="2.14746">
        <ele>64</ele>
        <time>2021-03-07T12:11:22.746Z</time>
      </trkpt>
      <trkpt lat="48.55348" lon="2.14751">
        <ele>64</ele>
        <time>2021-03-07T12:11:23.746Z</time>
      </trkpt>
      <trkpt lat="48.55348" lon="2.14758">
        <ele>64</ele>
        <time>2021-03-07T12:11:24.746Z</time>
      </trkpt>
      <trkpt lat="48.55346" lon="2.14766">
        <ele>64</ele>
        <time>2021-03-07T12:11:25.746Z</time>
      </trkpt>
      <trkpt lat="48.55346" lon="2.14771">
        <ele>64</ele>
        <time>2021-03-07T12:11:26.746Z</time>
      </trkpt>
      <trkpt lat="48.55345" lon="2.14776">
        <ele>65</ele>
        <time>2021-03-07T12:11:27.745Z</time>
      </trkpt>
      <trkpt lat="48.55344" lon="2.14781">
        <ele>65</ele>
        <time>2021-03-07T12:11:28.745Z</time>
      </trkpt>
      <trkpt lat="48.55343" lon="2.14786">
        <ele>65</ele>
        <time>2021-03-07T12:11:29.746Z</time>
      </trkpt>
      <trkpt lat="48.55342" lon="2.1479">
        <ele>66</ele>
        <time>2021-03-07T12:11:30.746Z</time>
      </trkpt>
      <trkpt lat="48.55341" lon="2.14794">
        <ele>66</ele>
        <time>2021-03-07T12:11:31.746Z</time>
      </trkpt>
      <trkpt lat="48.55341" lon="2.148">
        <ele>66</ele>
        <time>2021-03-07T12:11:32.746Z</time>
      </trkpt>
      <trkpt lat="48.5534" lon="2.14805">
        <ele>66</ele>
        <time>2021-03-07T12:11:33.746Z</time>
      </trkpt>
      <trkpt lat="48.5534" lon="2.1481">
        <ele>67</ele>
        <time>2021-03-07T12:11:34.746Z</time>
      </trkpt>
      <trkpt lat="48.5534" lon="2.14816">
        <ele>67</ele>
        <time>2021-03-07T12:11:35.746Z</time>
      </trkpt>
      <trkpt lat="48.55339" lon="2.14822">
        <ele>67</ele>
        <time>2021-03-07T12:11:36.746Z</time>
      </trkpt>
      <trkpt lat="48.55339" lon="2.14829">
        <ele>68</ele>
        <time>2021-03-07T12:11:37.746Z</time>
      </trkpt>
      <trkpt lat="48.55338" lon="2.14835">
        <ele>68</ele>
        <time>2021-03-07T12:11:38.746Z</time>
      </trkpt>
      <trkpt lat="48.55338" lon="2.14839">
        <ele>68</ele>
        <time>2021-03-07T12:11:39.746Z</time>
      </trkpt>
      <trkpt lat="48.55339" lon="2.14844">
        <ele>69</ele>
        <time>2021-03-07T12:11:40.746Z</time>
      </trkpt>
      <trkpt lat="48.55338" lon="2.14851">
        <ele>69</ele>
        <time>2021-03-07T12:11:41.746Z</time>
      </trkpt>
      <trkpt lat="48.55339" lon="2.14856">
        <ele>69</ele>
        <time>2021-03-07T12:11:42.746Z</time>
      </trkpt>
      <trkpt lat="48.55339" lon="2.14863">
        <ele>70</ele>
        <time>2021-03-07T12:11:43.746Z</time>
      </trkpt>
      <trkpt lat="48.5534" lon="2.14868">
        <ele>70</ele>
        <time>2021-03-07T12:11:44.746Z</time>
      </trkpt>
      <trkpt lat="48.55341" lon="2.14873">
        <ele>70</ele>
        <time>2021-03-07T12:11:45.745Z</time>
      </trkpt>
      <trkpt lat="48.55342" lon="2.14878">
        <ele>70</ele>
        <time>2021-03-07T12:11:46.745Z</time>
      </trkpt>
      <trkpt lat="48.55344" lon="2.14883">
        <ele>70</ele>
        <time>2021-03-07T12:11:47.746Z</time>
      </trkpt>
      <trkpt lat="48.55345" lon="2.14888">
        <ele>70</ele>
        <time>2021-03-07T12:11:48.746Z</time>
      </trkpt>
      <trkpt lat="48.55346" lon="2.14894">
        <ele>69</ele>
        <time>2021-03-07T12:11:49.745Z</time>
      </trkpt>
      <trkpt lat="48.55347" lon="2.14899">
        <ele>69</ele>
        <time>2021-03-07T12:11:50.746Z</time>
      </trkpt>
      <trkpt lat="48.5535" lon="2.14905">
        <ele>69</ele>
        <time>2021-03-07T12:11:51.746Z</time>
      </trkpt>
      <trkpt lat="48.55351" lon="2.1491">
        <ele>68</ele>
        <time>2021-03-07T12:11:52.746Z</time>
      </trkpt>
      <trkpt lat="48.55354" lon="2.14914">
        <ele>68</ele>
        <time>2021-03-07T12:11:53.745Z</time>
      </trkpt>
      <trkpt lat="48.55355" lon="2.14918">
        <ele>68</ele>
        <time>2021-03-07T12:11:54.746Z</time>
      </trkpt>
      <trkpt lat="48.55357" lon="2.14922">
        <ele>67</ele>
        <time>2021-03-07T12:11:55.746Z</time>
      </trkpt>
      <trkpt lat="48.55359" lon="2.14927">
        <ele>67</ele>
        <time>2021-03-07T12:11:56.745Z</time>
      </trkpt>
      <trkpt lat="48.55362" lon="2.14931">
        <ele>67</ele>
        <time>2021-03-07T12:11:57.745Z</time>
      </trkpt>
      <trkpt lat="48.55364" lon="2.14935">
        <ele>66</ele>
        <time>2021-03-07T12:11:58.746Z</time>
      </trkpt>
      <trkpt lat="48.55366" lon="2.1494">
        <ele>66</ele>
        <time>2021-03-07T12:11:59.746Z</time>
      </trkpt>
      <trkpt lat="48.55369" lon="2.14944">
        <ele>66</ele>
        <time>2021-03-07T12:12:00.746Z</time>
      </trkpt>
      <trkpt lat="48.55371" lon="2.14947">
        <ele>65</ele>
        <time>2021-03-07T12:12:01.746Z</time>
      </trkpt>
      <trkpt lat="48.55374" lon="2.14951">
        <ele>65</ele>
        <time>2021-03-07T12:12:02.746Z</time>
      </trkpt>
      <trkpt lat="48.55376" lon="2.14955">
        <ele>65</ele>
        <time>2021-03-07T12:12:03.746Z</time>
      </trkpt>
      <trkpt lat="48.55379" lon="2.14959">
        <ele>64</ele>
        <time>2021-03-07T12:12:04.746Z</time>
      </trkpt>
      <trkpt lat="48.55381" lon="2.14963">
        <ele>64</ele>
        <time>2021-03-07T12:12:05.746Z</time>
      </trkpt>
      <trkpt lat="48.55384" lon="2.14966">
        <ele>65</ele>
        <time>2021-03-07T12:12:06.746Z</time>
      </trkpt>
      <trkpt lat="48.55387" lon="2.1497">
        <ele>65</ele>
        <time>2021-03-07T12:12:07.746Z</time>
      </trkpt>
      <trkpt lat="48.55389" lon="2.14973">
        <ele>64</ele>
        <time>2021-03-07T12:12:08.745Z</time>
      </trkpt>
      <trkpt lat="48.55391" lon="2.14977">
        <ele>64</ele>
        <time>2021-03-07T12:12:09.746Z</time>
      </trkpt>
      <trkpt lat="48.55393" lon="2.14981">
        <ele>64</ele>
        <time>2021-03-07T12:12:10.746Z</time>
      </trkpt>
      <trkpt lat="48.55395" lon="2.14984">
        <ele>64</ele>
        <time>2021-03-07T12:12:11.746Z</time>
      </trkpt>
      <trkpt lat="48.55397" lon="2.14987">
        <ele>65</ele>
        <time>2021-03-07T12:12:12.746Z</time>
      </trkpt>
      <trkpt lat="48.554" lon="2.14991">
        <ele>65</ele>
        <time>2021-03-07T12:12:13.746Z</time>
      </trkpt>
      <trkpt lat="48.55401" lon="2.14995">
        <ele>65</ele>
        <time>2021-03-07T12:12:14.746Z</time>
      </trkpt>
      <trkpt lat="48.55403" lon="2.15">
        <ele>65</ele>
        <time>2021-03-07T12:12:15.746Z</time>
      </trkpt>
      <trkpt lat="48.55404" lon="2.15003">
        <ele>65</ele>
        <time>2021-03-07T12:12:16.746Z</time>
      </trkpt>
      <trkpt lat="48.55406" lon="2.15007">
        <ele>65</ele>
        <time>2021-03-07T12:12:17.746Z</time>
      </trkpt>
      <trkpt lat="48.55407" lon="2.15011">
        <ele>65</ele>
        <time>2021-03-07T12:12:18.746Z</time>
      </trkpt>
      <trkpt lat="48.55408" lon="2.15015">
        <ele>65</ele>
        <time>2021-03-07T12:12:19.745Z</time>
      </trkpt>
      <trkpt lat="48.55409" lon="2.15019">
        <ele>65</ele>
        <time>2021-03-07T12:12:20.745Z</time>
      </trkpt>
      <trkpt lat="48.55411" lon="2.15024">
        <ele>65</ele>
        <time>2021-03-07T12:12:21.746Z</time>
      </trkpt>
      <trkpt lat="48.55413" lon="2.15028">
        <ele>65</ele>
        <time>2021-03-07T12:12:22.746Z</time>
      </trkpt>
      <trkpt lat="48.55415" lon="2.15033">
        <ele>65</ele>
        <time>2021-03-07T12:12:23.745Z</time>
      </trkpt>
      <trkpt lat="48.55416" lon="2.15037">
        <ele>64</ele>
        <time>2021-03-07T12:12:24.745Z</time>
      </trkpt>
      <trkpt lat="48.55418" lon="2.15041">
        <ele>64</ele>
        <time>2021-03-07T12:12:25.746Z</time>
      </trkpt>
      <trkpt lat="48.5542" lon="2.15045">
        <ele>64</ele>
        <time>2021-03-07T12:12:26.746Z</time>
      </trkpt>
      <trkpt lat="48.55422" lon="2.15049">
        <ele>64</ele>
        <time>2021-03-07T12:12:27.745Z</time>
      </trkpt>
      <trkpt lat="48.55425" lon="2.15052">
        <ele>64</ele>
        <time>2021-03-07T12:12:28.745Z</time>
      </trkpt>
      <trkpt lat="48.55426" lon="2.15055">
        <ele>64</ele>
        <time>2021-03-07T12:12:29.745Z</time>
      </trkpt>
      <trkpt lat="48.55427" lon="2.15059">
        <ele>65</ele>
        <time>2021-03-07T12:12:30.745Z</time>
      </trkpt>
      <trkpt lat="48.55429" lon="2.15063">
        <ele>65</ele>
        <time>2021-03-07T12:12:31.746Z</time>
      </trkpt>
      <trkpt lat="48.55431" lon="2.15067">
        <ele>65</ele>
        <time>2021-03-07T12:12:32.745Z</time>
      </trkpt>
      <trkpt lat="48.55433" lon="2.1507">
        <ele>65</ele>
        <time>2021-03-07T12:12:33.745Z</time>
      </trkpt>
      <trkpt lat="48.55435" lon="2.15074">
        <ele>65</ele>
        <time>2021-03-07T12:12:34.746Z</time>
      </trkpt>
      <trkpt lat="48.55436" lon="2.15077">
        <ele>66</ele>
        <time>2021-03-07T12:12:35.745Z</time>
      </trkpt>
      <trkpt lat="48.55437" lon="2.1508">
        <ele>66</ele>
        <time>2021-03-07T12:12:36.745Z</time>
      </trkpt>
      <trkpt lat="48.55439" lon="2.15083">
        <ele>66</ele>
        <time>2021-03-07T12:12:37.746Z</time>
      </trkpt>
      <trkpt lat="48.55441" lon="2.15086">
        <ele>66</ele>
        <time>2021-03-07T12:12:38.746Z</time>
      </trkpt>
      <trkpt lat="48.55445" lon="2.1509">
        <ele>67</ele>
        <time>2021-03-07T12:12:39.746Z</time>
      </trkpt>
      <trkpt lat="48.55448" lon="2.15093">
        <ele>67</ele>
        <time>2021-03-07T12:12:40.746Z</time>
      </trkpt>
      <trkpt lat="48.5545" lon="2.15096">
        <ele>68</ele>
        <time>2021-03-07T12:12:41.745Z</time>
      </trkpt>
      <trkpt lat="48.55452" lon="2.15099">
        <ele>68</ele>
        <time>2021-03-07T12:12:42.746Z</time>
      </trkpt>
      <trkpt lat="48.55454" lon="2.15101">
        <ele>69</ele>
        <time>2021-03-07T12:12:43.746Z</time>
      </trkpt>
      <trkpt lat="48.55457" lon="2.15104">
        <ele>69</ele>
        <time>2021-03-07T12:12:44.746Z</time>
      </trkpt>
      <trkpt lat="48.55459" lon="2.15107">
        <ele>69</ele>
        <time>2021-03-07T12:12:45.746Z</time>
      </trkpt>
      <trkpt lat="48.55461" lon="2.1511">
        <ele>69</ele>
        <time>2021-03-07T12:12:46.746Z</time>
      </trkpt>
      <trkpt lat="48.55463" lon="2.15113">
        <ele>70</ele>
        <time>2021-03-07T12:12:47.746Z</time>
      </trkpt>
      <trkpt lat="48.55466" lon="2.15115">
        <ele>70</ele>
        <time>2021-03-07T12:12:48.746Z</time>
      </trkpt>
      <trkpt lat="48.55468" lon="2.15118">
        <ele>70</ele>
        <time>2021-03-07T12:12:49.746Z</time>
      </trkpt>
      <trkpt lat="48.5547" lon="2.15121">
        <ele>70</ele>
        <time>2021-03-07T12:12:50.746Z</time>
      </trkpt>
      <trkpt lat="48.55473" lon="2.15124">
        <ele>70</ele>
        <time>2021-03-07T12:12:51.746Z</time>
      </trkpt>
      <trkpt lat="48.55476" lon="2.15128">
        <ele>71</ele>
        <time>2021-03-07T12:12:52.746Z</time>
      </trkpt>
      <trkpt lat="48.55478" lon="2.15131">
        <ele>71</ele>
        <time>2021-03-07T12:12:53.745Z</time>
      </trkpt>
      <trkpt lat="48.5548" lon="2.15134">
        <ele>71</ele>
        <time>2021-03-07T12:12:54.746Z</time>
      </trkpt>
      <trkpt lat="48.55481" lon="2.15136">
        <ele>71</ele>
        <time>2021-03-07T12:12:55.745Z</time>
      </trkpt>
      <trkpt lat="48.55483" lon="2.15139">
        <ele>71</ele>
        <time>2021-03-07T12:12:56.745Z</time>
      </trkpt>
      <trkpt lat="48.55485" lon="2.15142">
        <ele>71</ele>
        <time>2021-03-07T12:12:57.745Z</time>
      </trkpt>
      <trkpt lat="48.55487" lon="2.15144">
        <ele>71</ele>
        <time>2021-03-07T12:12:58.746Z</time>
      </trkpt>
      <trkpt lat="48.55489" lon="2.15147">
        <ele>71</ele>
        <time>2021-03-07T12:12:59.746Z</time>
      </trkpt>
      <trkpt lat="48.55492" lon="2.1515">
        <ele>71</ele>
        <time>2021-03-07T12:13:00.746Z</time>
      </trkpt>
      <trkpt lat="48.55493" lon="2.15153">
        <ele>70</ele>
        <time>2021-03-07T12:13:01.746Z</time>
      </trkpt>
      <trkpt lat="48.55495" lon="2.15157">
        <ele>70</ele>
        <time>2021-03-07T12:13:02.746Z</time>
      </trkpt>
      <trkpt lat="48.55497" lon="2.15161">
        <ele>70</ele>
        <time>2021-03-07T12:13:03.745Z</time>
      </trkpt>
      <trkpt lat="48.55499" lon="2.15165">
        <ele>69</ele>
        <time>2021-03-07T12:13:04.745Z</time>
      </trkpt>
      <trkpt lat="48.555" lon="2.15169">
        <ele>68</ele>
        <time>2021-03-07T12:13:05.745Z</time>
      </trkpt>
      <trkpt lat="48.55502" lon="2.15173">
        <ele>67</ele>
        <time>2021-03-07T12:13:06.746Z</time>
      </trkpt>
      <trkpt lat="48.55504" lon="2.15177">
        <ele>66</ele>
        <time>2021-03-07T12:13:07.746Z</time>
      </trkpt>
      <trkpt lat="48.55505" lon="2.15181">
        <ele>65</ele>
        <time>2021-03-07T12:13:08.746Z</time>
      </trkpt>
      <trkpt lat="48.55507" lon="2.15185">
        <ele>65</ele>
        <time>2021-03-07T12:13:09.746Z</time>
      </trkpt>
      <trkpt lat="48.55508" lon="2.15189">
        <ele>64</ele>
        <time>2021-03-07T12:13:10.746Z</time>
      </trkpt>
      <trkpt lat="48.5551" lon="2.15193">
        <ele>64</ele>
        <time>2021-03-07T12:13:11.745Z</time>
      </trkpt>
      <trkpt lat="48.55511" lon="2.15197">
        <ele>63</ele>
        <time>2021-03-07T12:13:12.746Z</time>
      </trkpt>
      <trkpt lat="48.55512" lon="2.15201">
        <ele>62</ele>
        <time>2021-03-07T12:13:13.746Z</time>
      </trkpt>
      <trkpt lat="48.55513" lon="2.15205">
        <ele>62</ele>
        <time>2021-03-07T12:13:14.746Z</time>
      </trkpt>
      <trkpt lat="48.55515" lon="2.15209">
        <ele>62</ele>
        <time>2021-03-07T12:13:15.746Z</time>
      </trkpt>
      <trkpt lat="48.55516" lon="2.15213">
        <ele>62</ele>
        <time>2021-03-07T12:13:16.745Z</time>
      </trkpt>
      <trkpt lat="48.55517" lon="2.15217">
        <ele>62</ele>
        <time>2021-03-07T12:13:17.745Z</time>
      </trkpt>
      <trkpt lat="48.55518" lon="2.15221">
        <ele>62</ele>
        <time>2021-03-07T12:13:18.746Z</time>
      </trkpt>
      <trkpt lat="48.5552" lon="2.15226">
        <ele>62</ele>
        <time>2021-03-07T12:13:19.746Z</time>
      </trkpt>
      <trkpt lat="48.55521" lon="2.1523">
        <ele>62</ele>
        <time>2021-03-07T12:13:20.746Z</time>
      </trkpt>
      <trkpt lat="48.55522" lon="2.15234">
        <ele>62</ele>
        <time>2021-03-07T12:13:21.746Z</time>
      </trkpt>
      <trkpt lat="48.55523" lon="2.15239">
        <ele>62</ele>
        <time>2021-03-07T12:13:22.746Z</time>
      </trkpt>
      <trkpt lat="48.55523" lon="2.15242">
        <ele>62</ele>
        <time>2021-03-07T12:13:23.746Z</time>
      </trkpt>
      <trkpt lat="48.55524" lon="2.15247">
        <ele>62</ele>
        <time>2021-03-07T12:13:24.746Z</time>
      </trkpt>
      <trkpt lat="48.55525" lon="2.15251">
        <ele>62</ele>
        <time>2021-03-07T12:13:25.745Z</time>
      </trkpt>
      <trkpt lat="48.55527" lon="2.15255">
        <ele>61</ele>
        <time>2021-03-07T12:13:26.746Z</time>
      </trkpt>
      <trkpt lat="48.55528" lon="2.15258">
        <ele>61</ele>
        <time>2021-03-07T12:13:27.746Z</time>
      </trkpt>
      <trkpt lat="48.55529" lon="2.15261">
        <ele>61</ele>
        <time>2021-03-07T12:13:28.746Z</time>
      </trkpt>
      <trkpt lat="48.5553" lon="2.15266">
        <ele>61</ele>
        <time>2021-03-07T12:13:29.746Z</time>
      </trkpt>
      <trkpt lat="48.55531" lon="2.1527">
        <ele>60</ele>
        <time>2021-03-07T12:13:30.746Z</time>
      </trkpt>
      <trkpt lat="48.55532" lon="2.15275">
        <ele>60</ele>
        <time>2021-03-07T12:13:31.745Z</time>
      </trkpt>
      <trkpt lat="48.55534" lon="2.1528">
        <ele>60</ele>
        <time>2021-03-07T12:13:32.746Z</time>
      </trkpt>
      <trkpt lat="48.55535" lon="2.15285">
        <ele>61</ele>
        <time>2021-03-07T12:13:33.745Z</time>
      </trkpt>
      <trkpt lat="48.55537" lon="2.1529">
        <ele>61</ele>
        <time>2021-03-07T12:13:34.745Z</time>
      </trkpt>
      <trkpt lat="48.55538" lon="2.15295">
        <ele>61</ele>
        <time>2021-03-07T12:13:35.745Z</time>
      </trkpt>
      <trkpt lat="48.5554" lon="2.15299">
        <ele>62</ele>
        <time>2021-03-07T12:13:36.745Z</time>
      </trkpt>
      <trkpt lat="48.55541" lon="2.15304">
        <ele>62</ele>
        <time>2021-03-07T12:13:37.746Z</time>
      </trkpt>
      <trkpt lat="48.55542" lon="2.15309">
        <ele>63</ele>
        <time>2021-03-07T12:13:38.746Z</time>
      </trkpt>
      <trkpt lat="48.55543" lon="2.15314">
        <ele>63</ele>
        <time>2021-03-07T12:13:39.746Z</time>
      </trkpt>
      <trkpt lat="48.55543" lon="2.15318">
        <ele>63</ele>
        <time>2021-03-07T12:13:40.745Z</time>
      </trkpt>
      <trkpt lat="48.55545" lon="2.15323">
        <ele>63</ele>
        <time>2021-03-07T12:13:41.745Z</time>
      </trkpt>
      <trkpt lat="48.55546" lon="2.15327">
        <ele>62</ele>
        <time>2021-03-07T12:13:42.745Z</time>
      </trkpt>
      <trkpt lat="48.55547" lon="2.15332">
        <ele>62</ele>
        <time>2021-03-07T12:13:43.746Z</time>
      </trkpt>
      <trkpt lat="48.55549" lon="2.15336">
        <ele>62</ele>
        <time>2021-03-07T12:13:44.746Z</time>
      </trkpt>
      <trkpt lat="48.55549" lon="2.15339">
        <ele>61</ele>
        <time>2021-03-07T12:13:45.746Z</time>
      </trkpt>
      <trkpt lat="48.55551" lon="2.15344">
        <ele>61</ele>
        <time>2021-03-07T12:13:46.746Z</time>
      </trkpt>
      <trkpt lat="48.55552" lon="2.15347">
        <ele>61</ele>
        <time>2021-03-07T12:13:47.745Z</time>
      </trkpt>
      <trkpt lat="48.55552" lon="2.1535">
        <ele>61</ele>
        <time>2021-03-07T12:13:48.746Z</time>
      </trkpt>
      <trkpt lat="48.55553" lon="2.15354">
        <ele>61</ele>
        <time>2021-03-07T12:13:49.746Z</time>
      </trkpt>
      <trkpt lat="48.55554" lon="2.15356">
        <ele>61</ele>
        <time>2021-03-07T12:13:50.745Z</time>
      </trkpt>
      <trkpt lat="48.55555" lon="2.15359">
        <ele>61</ele>
        <time>2021-03-07T12:13:51.746Z</time>
      </trkpt>
      <trkpt lat="48.55555" lon="2.15361">
        <ele>60</ele>
        <time>2021-03-07T12:13:52.746Z</time>
      </trkpt>
      <trkpt lat="48.55555" lon="2.15362">
        <ele>60</ele>
        <time>2021-03-07T12:13:53.746Z</time>
      </trkpt>
      <trkpt lat="48.55555" lon="2.15364">
        <ele>60</ele>
        <time>2021-03-07T12:13:54.746Z</time>
      </trkpt>
      <trkpt lat="48.55555" lon="2.15365">
        <ele>60</ele>
        <time>2021-03-07T12:13:55.746Z</time>
      </trkpt>
      <trkpt lat="48.55556" lon="2.15367">
        <ele>60</ele>
        <time>2021-03-07T12:13:56.746Z</time>
      </trkpt>
      <trkpt lat="48.55556" lon="2.15369">
        <ele>60</ele>
        <time>2021-03-07T12:13:57.745Z</time>
      </trkpt>
      <trkpt lat="48.55557" lon="2.15371">
        <ele>60</ele>
        <time>2021-03-07T12:13:58.746Z</time>
      </trkpt>
      <trkpt lat="48.55557" lon="2.15373">
        <ele>60</ele>
        <time>2021-03-07T12:13:59.746Z</time>
      </trkpt>
      <trkpt lat="48.55558" lon="2.15374">
        <ele>61</ele>
        <time>2021-03-07T12:14:00.745Z</time>
      </trkpt>
      <trkpt lat="48.55557" lon="2.15376">
        <ele>61</ele>
        <time>2021-03-07T12:14:01.746Z</time>
      </trkpt>
      <trkpt lat="48.55557" lon="2.15377">
        <ele>61</ele>
        <time>2021-03-07T12:14:02.745Z</time>
      </trkpt>
      <trkpt lat="48.55558" lon="2.15379">
        <ele>61</ele>
        <time>2021-03-07T12:14:03.746Z</time>
      </trkpt>
      <trkpt lat="48.55559" lon="2.15382">
        <ele>62</ele>
        <time>2021-03-07T12:14:04.746Z</time>
      </trkpt>
      <trkpt lat="48.55559" lon="2.15384">
        <ele>61</ele>
        <time>2021-03-07T12:14:05.745Z</time>
      </trkpt>
      <trkpt lat="48.5556" lon="2.15387">
        <ele>61</ele>
        <time>2021-03-07T12:14:06.745Z</time>
      </trkpt>
      <trkpt lat="48.55561" lon="2.15389">
        <ele>60</ele>
        <time>2021-03-07T12:14:07.745Z</time>
      </trkpt>
      <trkpt lat="48.55561" lon="2.15391">
        <ele>60</ele>
        <time>2021-03-07T12:14:08.745Z</time>
      </trkpt>
      <trkpt lat="48.55563" lon="2.15394">
        <ele>59</ele>
        <time>2021-03-07T12:14:09.746Z</time>
      </trkpt>
      <trkpt lat="48.55563" lon="2.15396">
        <ele>59</ele>
        <time>2021-03-07T12:14:10.745Z</time>
      </trkpt>
      <trkpt lat="48.55564" lon="2.15398">
        <ele>59</ele>
        <time>2021-03-07T12:14:11.746Z</time>
      </trkpt>
      <trkpt lat="48.55565" lon="2.154">
        <ele>58</ele>
        <time>2021-03-07T12:14:12.746Z</time>
      </trkpt>
      <trkpt lat="48.55565" lon="2.15401">
        <ele>58</ele>
        <time>2021-03-07T12:14:13.746Z</time>
      </trkpt>
      <trkpt lat="48.55565" lon="2.15403">
        <ele>58</ele>
        <time>2021-03-07T12:14:14.746Z</time>
      </trkpt>
      <trkpt lat="48.55566" lon="2.15405">
        <ele>59</ele>
        <time>2021-03-07T12:14:15.746Z</time>
      </trkpt>
      <trkpt lat="48.55566" lon="2.15407">
        <ele>59</ele>
        <time>2021-03-07T12:14:16.746Z</time>
      </trkpt>
      <trkpt lat="48.55567" lon="2.15409">
        <ele>59</ele>
        <time>2021-03-07T12:14:17.746Z</time>
      </trkpt>
      <trkpt lat="48.55568" lon="2.15412">
        <ele>60</ele>
        <time>2021-03-07T12:14:18.746Z</time>
      </trkpt>
      <trkpt lat="48.55568" lon="2.15413">
        <ele>60</ele>
        <time>2021-03-07T12:14:19.746Z</time>
      </trkpt>
      <trkpt lat="48.55569" lon="2.15416">
        <ele>60</ele>
        <time>2021-03-07T12:14:20.745Z</time>
      </trkpt>
      <trkpt lat="48.5557" lon="2.15419">
        <ele>61</ele>
        <time>2021-03-07T12:14:21.745Z</time>
      </trkpt>
      <trkpt lat="48.55572" lon="2.1542">
        <ele>61</ele>
        <time>2021-03-07T12:14:22.746Z</time>
      </trkpt>
      <trkpt lat="48.55572" lon="2.15423">
        <ele>61</ele>
        <time>2021-03-07T12:14:23.746Z</time>
      </trkpt>
      <trkpt lat="48.55573" lon="2.15425">
        <ele>62</ele>
        <time>2021-03-07T12:14:24.746Z</time>
      </trkpt>
      <trkpt lat="48.55573" lon="2.15428">
        <ele>62</ele>
        <time>2021-03-07T12:14:25.746Z</time>
      </trkpt>
      <trkpt lat="48.55574" lon="2.1543">
        <ele>62</ele>
        <time>2021-03-07T12:14:26.746Z</time>
      </trkpt>
      <trkpt lat="48.55575" lon="2.15432">
        <ele>63</ele>
        <time>2021-03-07T12:14:27.745Z</time>
      </trkpt>
      <trkpt lat="48.55575" lon="2.15434">
        <ele>63</ele>
        <time>2021-03-07T12:14:28.745Z</time>
      </trkpt>
      <trkpt lat="48.55576" lon="2.15436">
        <ele>64</ele>
        <time>2021-03-07T12:14:29.746Z</time>
      </trkpt>
      <trkpt lat="48.55576" lon="2.15438">
        <ele>64</ele>
        <time>2021-03-07T12:14:30.745Z</time>
      </trkpt>
      <trkpt lat="48.55576" lon="2.1544">
        <ele>64</ele>
        <time>2021-03-07T12:14:31.745Z</time>
      </trkpt>
      <trkpt lat="48.55577" lon="2.15442">
        <ele>65</ele>
        <time>2021-03-07T12:14:32.746Z</time>
      </trkpt>
      <trkpt lat="48.55577" lon="2.15444">
        <ele>64</ele>
        <time>2021-03-07T12:14:33.746Z</time>
      </trkpt>
      <trkpt lat="48.55578" lon="2.15446">
        <ele>64</ele>
        <time>2021-03-07T12:14:34.746Z</time>
      </trkpt>
      <trkpt lat="48.55579" lon="2.15448">
        <ele>65</ele>
        <time>2021-03-07T12:14:35.746Z</time>
      </trkpt>
      <trkpt lat="48.5558" lon="2.1545">
        <ele>65</ele>
        <time>2021-03-07T12:14:36.746Z</time>
      </trkpt>
      <trkpt lat="48.5558" lon="2.15452">
        <ele>65</ele>
        <time>2021-03-07T12:14:37.746Z</time>
      </trkpt>
      <trkpt lat="48.5558" lon="2.15454">
        <ele>65</ele>
        <time>2021-03-07T12:14:38.746Z</time>
      </trkpt>
      <trkpt lat="48.55581" lon="2.15456">
        <ele>65</ele>
        <time>2021-03-07T12:14:39.746Z</time>
      </trkpt>
      <trkpt lat="48.55581" lon="2.15458">
        <ele>65</ele>
        <time>2021-03-07T12:14:40.745Z</time>
      </trkpt>
      <trkpt lat="48.55581" lon="2.1546">
        <ele>65</ele>
        <time>2021-03-07T12:14:41.745Z</time>
      </trkpt>
      <trkpt lat="48.55581" lon="2.15462">
        <ele>65</ele>
        <time>2021-03-07T12:14:42.746Z</time>
      </trkpt>
      <trkpt lat="48.55582" lon="2.15465">
        <ele>65</ele>
        <time>2021-03-07T12:14:43.746Z</time>
      </trkpt>
      <trkpt lat="48.55582" lon="2.15467">
        <ele>65</ele>
        <time>2021-03-07T12:14:44.746Z</time>
      </trkpt>
      <trkpt lat="48.55582" lon="2.15469">
        <ele>65</ele>
        <time>2021-03-07T12:14:45.745Z</time>
      </trkpt>
      <trkpt lat="48.55582" lon="2.15471">
        <ele>65</ele>
        <time>2021-03-07T12:14:46.745Z</time>
      </trkpt>
      <trkpt lat="48.55583" lon="2.15473">
        <ele>65</ele>
        <time>2021-03-07T12:14:47.746Z</time>
      </trkpt>
      <trkpt lat="48.55583" lon="2.15475">
        <ele>65</ele>
        <time>2021-03-07T12:14:48.745Z</time>
      </trkpt>
      <trkpt lat="48.55583" lon="2.15478">
        <ele>65</ele>
        <time>2021-03-07T12:14:49.745Z</time>
      </trkpt>
      <trkpt lat="48.55584" lon="2.1548">
        <ele>65</ele>
        <time>2021-03-07T12:14:50.745Z</time>
      </trkpt>
      <trkpt lat="48.55584" lon="2.15482">
        <ele>65</ele>
        <time>2021-03-07T12:14:51.746Z</time>
      </trkpt>
      <trkpt lat="48.55584" lon="2.15484">
        <ele>65</ele>
        <time>2021-03-07T12:14:52.746Z</time>
      </trkpt>
      <trkpt lat="48.55584" lon="2.15486">
        <ele>65</ele>
        <time>2021-03-07T12:14:53.746Z</time>
      </trkpt>
      <trkpt lat="48.55585" lon="2.15488">
        <ele>65</ele>
        <time>2021-03-07T12:14:54.746Z</time>
      </trkpt>
      <trkpt lat="48.55586" lon="2.1549">
        <ele>65</ele>
        <time>2021-03-07T12:14:55.746Z</time>
      </trkpt>
      <trkpt lat="48.55586" lon="2.15492">
        <ele>65</ele>
        <time>2021-03-07T12:14:56.746Z</time>
      </trkpt>
      <trkpt lat="48.55587" lon="2.15494">
        <ele>65</ele>
        <time>2021-03-07T12:14:57.746Z</time>
      </trkpt>
      <trkpt lat="48.55588" lon="2.15496">
        <ele>66</ele>
        <time>2021-03-07T12:14:58.746Z</time>
      </trkpt>
      <trkpt lat="48.55588" lon="2.15498">
        <ele>66</ele>
        <time>2021-03-07T12:14:59.746Z</time>
      </trkpt>
      <trkpt lat="48.55588" lon="2.155">
        <ele>66</ele>
        <time>2021-03-07T12:15:00.746Z</time>
      </trkpt>
      <trkpt lat="48.55589" lon="2.15502">
        <ele>66</ele>
        <time>2021-03-07T12:15:01.746Z</time>
      </trkpt>
      <trkpt lat="48.55589" lon="2.15503">
        <ele>66</ele>
        <time>2021-03-07T12:15:02.745Z</time>
      </trkpt>
      <trkpt lat="48.5559" lon="2.15505">
        <ele>66</ele>
        <time>2021-03-07T12:15:03.745Z</time>
      </trkpt>
      <trkpt lat="48.5559" lon="2.15507">
        <ele>66</ele>
        <time>2021-03-07T12:15:04.746Z</time>
      </trkpt>
      <trkpt lat="48.55591" lon="2.15508">
        <ele>65</ele>
        <time>2021-03-07T12:15:05.746Z</time>
      </trkpt>
      <trkpt lat="48.55591" lon="2.1551">
        <ele>65</ele>
        <time>2021-03-07T12:15:06.746Z</time>
      </trkpt>
      <trkpt lat="48.55592" lon="2.15512">
        <ele>64</ele>
        <time>2021-03-07T12:15:07.745Z</time>
      </trkpt>
      <trkpt lat="48.55593" lon="2.15514">
        <ele>64</ele>
        <time>2021-03-07T12:15:08.746Z</time>
      </trkpt>
      <trkpt lat="48.55593" lon="2.15516">
        <ele>63</ele>
        <time>2021-03-07T12:15:09.746Z</time>
      </trkpt>
      <trkpt lat="48.55594" lon="2.15518">
        <ele>64</ele>
        <time>2021-03-07T12:15:10.745Z</time>
      </trkpt>
      <trkpt lat="48.55595" lon="2.1552">
        <ele>64</ele>
        <time>2021-03-07T12:15:11.746Z</time>
      </trkpt>
      <trkpt lat="48.55596" lon="2.15522">
        <ele>65</ele>
        <time>2021-03-07T12:15:12.746Z</time>
      </trkpt>
      <trkpt lat="48.55597" lon="2.15524">
        <ele>65</ele>
        <time>2021-03-07T12:15:13.746Z</time>
      </trkpt>
      <trkpt lat="48.55598" lon="2.15526">
        <ele>65</ele>
        <time>2021-03-07T12:15:14.746Z</time>
      </trkpt>
      <trkpt lat="48.55599" lon="2.15529">
        <ele>65</ele>
        <time>2021-03-07T12:15:15.745Z</time>
      </trkpt>
      <trkpt lat="48.55599" lon="2.15531">
        <ele>65</ele>
        <time>2021-03-07T12:15:16.746Z</time>
      </trkpt>
      <trkpt lat="48.556" lon="2.15532">
        <ele>64</ele>
        <time>2021-03-07T12:15:17.746Z</time>
      </trkpt>
      <trkpt lat="48.55601" lon="2.15534">
        <ele>64</ele>
        <time>2021-03-07T12:15:18.746Z</time>
      </trkpt>
      <trkpt lat="48.55601" lon="2.15536">
        <ele>63</ele>
        <time>2021-03-07T12:15:19.746Z</time>
      </trkpt>
      <trkpt lat="48.55603" lon="2.15538">
        <ele>63</ele>
        <time>2021-03-07T12:15:20.746Z</time>
      </trkpt>
      <trkpt lat="48.55604" lon="2.15539">
        <ele>63</ele>
        <time>2021-03-07T12:15:21.746Z</time>
      </trkpt>
      <trkpt lat="48.55605" lon="2.15541">
        <ele>63</ele>
        <time>2021-03-07T12:15:22.746Z</time>
      </trkpt>
      <trkpt lat="48.55605" lon="2.15543">
        <ele>62</ele>
        <time>2021-03-07T12:15:23.746Z</time>
      </trkpt>
      <trkpt lat="48.55606" lon="2.15544">
        <ele>63</ele>
        <time>2021-03-07T12:15:24.746Z</time>
      </trkpt>
      <trkpt lat="48.55607" lon="2.15546">
        <ele>63</ele>
        <time>2021-03-07T12:15:25.746Z</time>
      </trkpt>
      <trkpt lat="48.55608" lon="2.15548">
        <ele>63</ele>
        <time>2021-03-07T12:15:26.745Z</time>
      </trkpt>
      <trkpt lat="48.55609" lon="2.1555">
        <ele>63</ele>
        <time>2021-03-07T12:15:27.746Z</time>
      </trkpt>
      <trkpt lat="48.5561" lon="2.15551">
        <ele>63</ele>
        <time>2021-03-07T12:15:28.746Z</time>
      </trkpt>
      <trkpt lat="48.55611" lon="2.15553">
        <ele>63</ele>
        <time>2021-03-07T12:15:29.746Z</time>
      </trkpt>
      <trkpt lat="48.55612" lon="2.15554">
        <ele>63</ele>
        <time>2021-03-07T12:15:30.746Z</time>
      </trkpt>
      <trkpt lat="48.55613" lon="2.15556">
        <ele>63</ele>
        <time>2021-03-07T12:15:31.746Z</time>
      </trkpt>
      <trkpt lat="48.55614" lon="2.15558">
        <ele>63</ele>
        <time>2021-03-07T12:15:32.745Z</time>
      </trkpt>
      <trkpt lat="48.55615" lon="2.1556">
        <ele>63</ele>
        <time>2021-03-07T12:15:33.745Z</time>
      </trkpt>
      <trkpt lat="48.55616" lon="2.15562">
        <ele>63</ele>
        <time>2021-03-07T12:15:34.745Z</time>
      </trkpt>
      <trkpt lat="48.55617" lon="2.15563">
        <ele>63</ele>
        <time>2021-03-07T12:15:35.745Z</time>
      </trkpt>
      <trkpt lat="48.55618" lon="2.15565">
        <ele>63</ele>
        <time>2021-03-07T12:15:36.746Z</time>
      </trkpt>
      <trkpt lat="48.55619" lon="2.15567">
        <ele>63</ele>
        <time>2021-03-07T12:15:37.746Z</time>
      </trkpt>
      <trkpt lat="48.5562" lon="2.15568">
        <ele>63</ele>
        <time>2021-03-07T12:15:38.746Z</time>
      </trkpt>
      <trkpt lat="48.55621" lon="2.1557">
        <ele>62</ele>
        <time>2021-03-07T12:15:39.745Z</time>
      </trkpt>
      <trkpt lat="48.55621" lon="2.15572">
        <ele>62</ele>
        <time>2021-03-07T12:15:40.745Z</time>
      </trkpt>
      <trkpt lat="48.55622" lon="2.15574">
        <ele>62</ele>
        <time>2021-03-07T12:15:41.746Z</time>
      </trkpt>
      <trkpt lat="48.55623" lon="2.15575">
        <ele>63</ele>
        <time>2021-03-07T12:15:42.746Z</time>
      </trkpt>
      <trkpt lat="48.55624" lon="2.15577">
        <ele>63</ele>
        <time>2021-03-07T12:15:43.746Z</time>
      </trkpt>
      <trkpt lat="48.55625" lon="2.15579">
        <ele>63</ele>
        <time>2021-03-07T12:15:44.746Z</time>
      </trkpt>
      <trkpt lat="48.55626" lon="2.15581">
        <ele>63</ele>
        <time>2021-03-07T12:15:45.745Z</time>
      </trkpt>
      <trkpt lat="48.55627" lon="2.15582">
        <ele>63</ele>
        <time>2021-03-07T12:15:46.746Z</time>
      </trkpt>
      <trkpt lat="48.55628" lon="2.15584">
        <ele>63</ele>
        <time>2021-03-07T12:15:47.746Z</time>
      </trkpt>
      <trkpt lat="48.55628" lon="2.15586">
        <ele>63</ele>
        <time>2021-03-07T12:15:48.746Z</time>
      </trkpt>
      <trkpt lat="48.55629" lon="2.15587">
        <ele>63</ele>
        <time>2021-03-07T12:15:49.746Z</time>
      </trkpt>
      <trkpt lat="48.5563" lon="2.15589">
        <ele>63</ele>
        <time>2021-03-07T12:15:50.746Z</time>
      </trkpt>
      <trkpt lat="48.55631" lon="2.1559">
        <ele>63</ele>
        <time>2021-03-07T12:15:51.746Z</time>
      </trkpt>
      <trkpt lat="48.55632" lon="2.15592">
        <ele>63</ele>
        <time>2021-03-07T12:15:52.745Z</time>
      </trkpt>
      <trkpt lat="48.55633" lon="2.15594">
        <ele>63</ele>
        <time>2021-03-07T12:15:53.745Z</time>
      </trkpt>
      <trkpt lat="48.55633" lon="2.15596">
        <ele>64</ele>
        <time>2021-03-07T12:15:54.746Z</time>
      </trkpt>
      <trkpt lat="48.55634" lon="2.15597">
        <ele>64</ele>
        <time>2021-03-07T12:15:55.746Z</time>
      </trkpt>
      <trkpt lat="48.55635" lon="2.15599">
        <ele>64</ele>
        <time>2021-03-07T12:15:56.745Z</time>
      </trkpt>
      <trkpt lat="48.55636" lon="2.15601">
        <ele>64</ele>
        <time>2021-03-07T12:15:57.745Z</time>
      </trkpt>
      <trkpt lat="48.55637" lon="2.15603">
        <ele>64</ele>
        <time>2021-03-07T12:15:58.745Z</time>
      </trkpt>
      <trkpt lat="48.55637" lon="2.15604">
        <ele>64</ele>
        <time>2021-03-07T12:15:59.745Z</time>
      </trkpt>
      <trkpt lat="48.55638" lon="2.15606">
        <ele>64</ele>
        <time>2021-03-07T12:16:00.746Z</time>
      </trkpt>
      <trkpt lat="48.55639" lon="2.15607">
        <ele>64</ele>
        <time>2021-03-07T12:16:01.746Z</time>
      </trkpt>
      <trkpt lat="48.5564" lon="2.15609">
        <ele>64</ele>
        <time>2021-03-07T12:16:02.745Z</time>
      </trkpt>
      <trkpt lat="48.5564" lon="2.1561">
        <ele>64</ele>
        <time>2021-03-07T12:16:03.745Z</time>
      </trkpt>
      <trkpt lat="48.55641" lon="2.15611">
        <ele>64</ele>
        <time>2021-03-07T12:16:04.746Z</time>
      </trkpt>
      <trkpt lat="48.55642" lon="2.15612">
        <ele>64</ele>
        <time>2021-03-07T12:16:05.745Z</time>
      </trkpt>
      <trkpt lat="48.55643" lon="2.15613">
        <ele>64</ele>
        <time>2021-03-07T12:16:06.746Z</time>
      </trkpt>
      <trkpt lat="48.55644" lon="2.15613">
        <ele>63</ele>
        <time>2021-03-07T12:16:07.746Z</time>
      </trkpt>
      <trkpt lat="48.55645" lon="2.15613">
        <ele>63</ele>
        <time>2021-03-07T12:16:08.746Z</time>
      </trkpt>
      <trkpt lat="48.55647" lon="2.15613">
        <ele>63</ele>
        <time>2021-03-07T12:16:09.746Z</time>
      </trkpt>
      <trkpt lat="48.55648" lon="2.15613">
        <ele>63</ele>
        <time>2021-03-07T12:16:10.746Z</time>
      </trkpt>
      <trkpt lat="48.5565" lon="2.15613">
        <ele>63</ele>
        <time>2021-03-07T12:16:11.746Z</time>
      </trkpt>
      <trkpt lat="48.55651" lon="2.15612">
        <ele>62</ele>
        <time>2021-03-07T12:16:12.746Z</time>
      </trkpt>
      <trkpt lat="48.55653" lon="2.15612">
        <ele>63</ele>
        <time>2021-03-07T12:16:13.745Z</time>
      </trkpt>
      <trkpt lat="48.55654" lon="2.15611">
        <ele>63</ele>
        <time>2021-03-07T12:16:14.746Z</time>
      </trkpt>
      <trkpt lat="48.55655" lon="2.15611">
        <ele>64</ele>
        <time>2021-03-07T12:16:15.745Z</time>
      </trkpt>
      <trkpt lat="48.55657" lon="2.1561">
        <ele>64</ele>
        <time>2021-03-07T12:16:16.745Z</time>
      </trkpt>
      <trkpt lat="48.55658" lon="2.15609">
        <ele>64</ele>
        <time>2021-03-07T12:16:17.745Z</time>
      </trkpt>
      <trkpt lat="48.55659" lon="2.15608">
        <ele>65</ele>
        <time>2021-03-07T12:16:18.745Z</time>
      </trkpt>
      <trkpt lat="48.55661" lon="2.15607">
        <ele>65</ele>
        <time>2021-03-07T12:16:19.746Z</time>
      </trkpt>
      <trkpt lat="48.55662" lon="2.15606">
        <ele>65</ele>
        <time>2021-03-07T12:16:20.746Z</time>
      </trkpt>
      <trkpt lat="48.55664" lon="2.15606">
        <ele>65</ele>
        <time>2021-03-07T12:16:21.746Z</time>
      </trkpt>
      <trkpt lat="48.55665" lon="2.15604">
        <ele>65</ele>
        <time>2021-03-07T12:16:22.746Z</time>
      </trkpt>
      <trkpt lat="48.55667" lon="2.15603">
        <ele>65</ele>
        <time>2021-03-07T12:16:23.746Z</time>
      </trkpt>
      <trkpt lat="48.55668" lon="2.15602">
        <ele>65</ele>
        <time>2021-03-07T12:16:24.746Z</time>
      </trkpt>
      <trkpt lat="48.55669" lon="2.15601">
        <ele>65</ele>
        <time>2021-03-07T12:16:25.745Z</time>
      </trkpt>
      <trkpt lat="48.55671" lon="2.156">
        <ele>65</ele>
        <time>2021-03-07T12:16:26.746Z</time>
      </trkpt>
      <trkpt lat="48.55672" lon="2.15599">
        <ele>66</ele>
        <time>2021-03-07T12:16:27.746Z</time>
      </trkpt>
      <trkpt lat="48.55674" lon="2.15598">
        <ele>66</ele>
        <time>2021-03-07T12:16:28.746Z</time>
      </trkpt>
      <trkpt lat="48.55675" lon="2.15597">
        <ele>67</ele>
        <time>2021-03-07T12:16:29.746Z</time>
      </trkpt>
      <trkpt lat="48.55676" lon="2.15596">
        <ele>67</ele>
        <time>2021-03-07T12:16:30.746Z</time>
      </trkpt>
      <trkpt lat="48.55678" lon="2.15594">
        <ele>67</ele>
        <time>2021-03-07T12:16:31.746Z</time>
      </trkpt>
      <trkpt lat="48.55679" lon="2.15593">
        <ele>68</ele>
        <time>2021-03-07T12:16:32.746Z</time>
      </trkpt>
      <trkpt lat="48.5568" lon="2.15592">
        <ele>68</ele>
        <time>2021-03-07T12:16:33.746Z</time>
      </trkpt>
      <trkpt lat="48.55682" lon="2.15591">
        <ele>69</ele>
        <time>2021-03-07T12:16:34.746Z</time>
      </trkpt>
      <trkpt lat="48.55683" lon="2.1559">
        <ele>69</ele>
        <time>2021-03-07T12:16:35.746Z</time>
      </trkpt>
      <trkpt lat="48.55685" lon="2.15589">
        <ele>70</ele>
        <time>2021-03-07T12:16:36.746Z</time>
      </trkpt>
      <trkpt lat="48.55686" lon="2.15588">
        <ele>71</ele>
        <time>2021-03-07T12:16:37.745Z</time>
      </trkpt>
      <trkpt lat="48.55687" lon="2.15587">
        <ele>72</ele>
        <time>2021-03-07T12:16:38.746Z</time>
      </trkpt>
      <trkpt lat="48.55689" lon="2.15587">
        <ele>72</ele>
        <time>2021-03-07T12:16:39.746Z</time>
      </trkpt>
      <trkpt lat="48.5569" lon="2.15586">
        <ele>72</ele>
        <time>2021-03-07T12:16:40.746Z</time>
      </trkpt>
      <trkpt lat="48.55692" lon="2.15585">
        <ele>72</ele>
        <time>2021-03-07T12:16:41.746Z</time>
      </trkpt>
      <trkpt lat="48.55693" lon="2.15584">
        <ele>72</ele>
        <time>2021-03-07T12:16:42.746Z</time>
      </trkpt>
      <trkpt lat="48.55694" lon="2.15583">
        <ele>72</ele>
        <time>2021-03-07T12:16:43.746Z</time>
      </trkpt>
      <trkpt lat="48.55696" lon="2.15582">
        <ele>71</ele>
        <time>2021-03-07T12:16:44.746Z</time>
      </trkpt>
      <trkpt lat="48.55697" lon="2.15582">
        <ele>71</ele>
        <time>2021-03-07T12:16:45.745Z</time>
      </trkpt>
      <trkpt lat="48.55699" lon="2.15581">
        <ele>71</ele>
        <time>2021-03-07T12:16:46.745Z</time>
      </trkpt>
      <trkpt lat="48.557" lon="2.1558">
        <ele>70</ele>
        <time>2021-03-07T12:16:47.746Z</time>
      </trkpt>
      <trkpt lat="48.55701" lon="2.1558">
        <ele>70</ele>
        <time>2021-03-07T12:16:48.745Z</time>
      </trkpt>
      <trkpt lat="48.55702" lon="2.15579">
        <ele>69</ele>
        <time>2021-03-07T12:16:49.746Z</time>
      </trkpt>
      <trkpt lat="48.55704" lon="2.15578">
        <ele>68</ele>
        <time>2021-03-07T12:16:50.745Z</time>
      </trkpt>
      <trkpt lat="48.55705" lon="2.15578">
        <ele>68</ele>
        <time>2021-03-07T12:16:51.746Z</time>
      </trkpt>
      <trkpt lat="48.55707" lon="2.15577">
        <ele>67</ele>
        <time>2021-03-07T12:16:52.746Z</time>
      </trkpt>
      <trkpt lat="48.55708" lon="2.15575">
        <ele>67</ele>
        <time>2021-03-07T12:16:53.746Z</time>
      </trkpt>
      <trkpt lat="48.5571" lon="2.15575">
        <ele>68</ele>
        <time>2021-03-07T12:16:54.746Z</time>
      </trkpt>
      <trkpt lat="48.55711" lon="2.15574">
        <ele>68</ele>
        <time>2021-03-07T12:16:55.745Z</time>
      </trkpt>
      <trkpt lat="48.55713" lon="2.15573">
        <ele>68</ele>
        <time>2021-03-07T12:16:56.745Z</time>
      </trkpt>
      <trkpt lat="48.55714" lon="2.15573">
        <ele>68</ele>
        <time>2021-03-07T12:16:57.745Z</time>
      </trkpt>
      <trkpt lat="48.55715" lon="2.15572">
        <ele>68</ele>
        <time>2021-03-07T12:16:58.745Z</time>
      </trkpt>
      <trkpt lat="48.55716" lon="2.15571">
        <ele>67</ele>
        <time>2021-03-07T12:16:59.746Z</time>
      </trkpt>
      <trkpt lat="48.55717" lon="2.1557">
        <ele>67</ele>
        <time>2021-03-07T12:17:00.746Z</time>
      </trkpt>
      <trkpt lat="48.55719" lon="2.1557">
        <ele>66</ele>
        <time>2021-03-07T12:17:01.746Z</time>
      </trkpt>
      <trkpt lat="48.5572" lon="2.1557">
        <ele>66</ele>
        <time>2021-03-07T12:17:02.746Z</time>
      </trkpt>
      <trkpt lat="48.55721" lon="2.1557">
        <ele>65</ele>
        <time>2021-03-07T12:17:03.746Z</time>
      </trkpt>
      <trkpt lat="48.55723" lon="2.15569">
        <ele>65</ele>
        <time>2021-03-07T12:17:04.746Z</time>
      </trkpt>
      <trkpt lat="48.55724" lon="2.15568">
        <ele>64</ele>
        <time>2021-03-07T12:17:05.746Z</time>
      </trkpt>
      <trkpt lat="48.55725" lon="2.15567">
        <ele>64</ele>
        <time>2021-03-07T12:17:06.746Z</time>
      </trkpt>
      <trkpt lat="48.55726" lon="2.15567">
        <ele>64</ele>
        <time>2021-03-07T12:17:07.746Z</time>
      </trkpt>
      <trkpt lat="48.55727" lon="2.15567">
        <ele>63</ele>
        <time>2021-03-07T12:17:08.746Z</time>
      </trkpt>
      <trkpt lat="48.55728" lon="2.15566">
        <ele>63</ele>
        <time>2021-03-07T12:17:09.746Z</time>
      </trkpt>
      <trkpt lat="48.55728" lon="2.15566">
        <ele>64</ele>
        <time>2021-03-07T12:17:10.746Z</time>
      </trkpt>
      <trkpt lat="48.55728" lon="2.15566">
        <ele>64</ele>
        <time>2021-03-07T12:17:11.746Z</time>
      </trkpt>
      <trkpt lat="48.55729" lon="2.15566">
        <ele>64</ele>
        <time>2021-03-07T12:17:12.746Z</time>
      </trkpt>
      <trkpt lat="48.55728" lon="2.15566">
        <ele>64</ele>
        <time>2021-03-07T12:17:13.746Z</time>
      </trkpt>
      <trkpt lat="48.55728" lon="2.15566">
        <ele>63</ele>
        <time>2021-03-07T12:17:14.746Z</time>
      </trkpt>
      <trkpt lat="48.55727" lon="2.15566">
        <ele>63</ele>
        <time>2021-03-07T12:17:15.746Z</time>
      </trkpt>
      <trkpt lat="48.55727" lon="2.15567">
        <ele>63</ele>
        <time>2021-03-07T12:17:16.746Z</time>
      </trkpt>
      <trkpt lat="48.55727" lon="2.15567">
        <ele>63</ele>
        <time>2021-03-07T12:17:17.745Z</time>
      </trkpt>
      <trkpt lat="48.55726" lon="2.15568">
        <ele>63</ele>
        <time>2021-03-07T12:17:18.745Z</time>
      </trkpt>
      <trkpt lat="48.55726" lon="2.15569">
        <ele>62</ele>
        <time>2021-03-07T12:17:19.746Z</time>
      </trkpt>
      <trkpt lat="48.55725" lon="2.15569">
        <ele>62</ele>
        <time>2021-03-07T12:17:20.746Z</time>
      </trkpt>
      <trkpt lat="48.55723" lon="2.15569">
        <ele>61</ele>
        <time>2021-03-07T12:17:21.746Z</time>
      </trkpt>
      <trkpt lat="48.55721" lon="2.1557">
        <ele>61</ele>
        <time>2021-03-07T12:17:22.746Z</time>
      </trkpt>
      <trkpt lat="48.5572" lon="2.15572">
        <ele>60</ele>
        <time>2021-03-07T12:17:23.745Z</time>
      </trkpt>
      <trkpt lat="48.55719" lon="2.15573">
        <ele>60</ele>
        <time>2021-03-07T12:17:24.745Z</time>
      </trkpt>
      <trkpt lat="48.55719" lon="2.15574">
        <ele>60</ele>
        <time>2021-03-07T12:17:25.745Z</time>
      </trkpt>
      <trkpt lat="48.55718" lon="2.15575">
        <ele>60</ele>
        <time>2021-03-07T12:17:26.746Z</time>
      </trkpt>
      <trkpt lat="48.55717" lon="2.15576">
        <ele>60</ele>
        <time>2021-03-07T12:17:27.746Z</time>
      </trkpt>
      <trkpt lat="48.55717" lon="2.15577">
        <ele>60</ele>
        <time>2021-03-07T12:17:28.746Z</time>
      </trkpt>
      <trkpt lat="48.55717" lon="2.15577">
        <ele>60</ele>
        <time>2021-03-07T12:17:29.746Z</time>
      </trkpt>
      <trkpt lat="48.55718" lon="2.15578">
        <ele>60</ele>
        <time>2021-03-07T12:17:30.745Z</time>
      </trkpt>
      <trkpt lat="48.55719" lon="2.15579">
        <ele>60</ele>
        <time>2021-03-07T12:17:31.745Z</time>
      </trkpt>
      <trkpt lat="48.5572" lon="2.1558">
        <ele>59</ele>
        <time>2021-03-07T12:17:32.746Z</time>
      </trkpt>
      <trkpt lat="48.55721" lon="2.15581">
        <ele>59</ele>
        <time>2021-03-07T12:17:33.746Z</time>
      </trkpt>
      <trkpt lat="48.55721" lon="2.15582">
        <ele>59</ele>
        <time>2021-03-07T12:17:34.746Z</time>
      </trkpt>
      <trkpt lat="48.55721" lon="2.15584">
        <ele>59</ele>
        <time>2021-03-07T12:17:35.746Z</time>
      </trkpt>
      <trkpt lat="48.55721" lon="2.15585">
        <ele>59</ele>
        <time>2021-03-07T12:17:36.746Z</time>
      </trkpt>
      <trkpt lat="48.55721" lon="2.15585">
        <ele>59</ele>
        <time>2021-03-07T12:17:37.746Z</time>
      </trkpt>
      <trkpt lat="48.55721" lon="2.15586">
        <ele>59</ele>
        <time>2021-03-07T12:17:38.745Z</time>
      </trkpt>
      <trkpt lat="48.5572" lon="2.15586">
        <ele>59</ele>
        <time>2021-03-07T12:17:39.746Z</time>
      </trkpt>
      <trkpt lat="48.5572" lon="2.15586">
        <ele>59</ele>
        <time>2021-03-07T12:17:40.746Z</time>
      </trkpt>
      <trkpt lat="48.5572" lon="2.15585">
        <ele>59</ele>
        <time>2021-03-07T12:17:41.746Z</time>
      </trkpt>
      <trkpt lat="48.5572" lon="2.15585">
        <ele>59</ele>
        <time>2021-03-07T12:17:42.746Z</time>
      </trkpt>
      <trkpt lat="48.5572" lon="2.15585">
        <ele>59</ele>
        <time>2021-03-07T12:17:43.745Z</time>
      </trkpt>
      <trkpt lat="48.5572" lon="2.15586">
        <ele>59</ele>
        <time>2021-03-07T12:17:44.746Z</time>
      </trkpt>
      <trkpt lat="48.55721" lon="2.15586">
        <ele>59</ele>
        <time>2021-03-07T12:17:45.746Z</time>
      </trkpt>
      <trkpt lat="48.55721" lon="2.15586">
        <ele>60</ele>
        <time>2021-03-07T12:17:46.746Z</time>
      </trkpt>
      <trkpt lat="48.55721" lon="2.15586">
        <ele>60</ele>
        <time>2021-03-07T12:17:47.746Z</time>
      </trkpt>
      <trkpt lat="48.55721" lon="2.15586">
        <ele>61</ele>
        <time>2021-03-07T12:17:48.746Z</time>
      </trkpt>
      <trkpt lat="48.55721" lon="2.15586">
        <ele>61</ele>
        <time>2021-03-07T12:17:49.746Z</time>
      </trkpt>
      <trkpt lat="48.55721" lon="2.15586">
        <ele>61</ele>
        <time>2021-03-07T12:17:50.746Z</time>
      </trkpt>
      <trkpt lat="48.55721" lon="2.15586">
        <ele>61</ele>
        <time>2021-03-07T12:17:51.746Z</time>
      </trkpt>
      <trkpt lat="48.55721" lon="2.15586">
        <ele>62</ele>
        <time>2021-03-07T12:17:52.746Z</time>
      </trkpt>
      <trkpt lat="48.55721" lon="2.15586">
        <ele>62</ele>
        <time>2021-03-07T12:17:53.746Z</time>
      </trkpt>
      <trkpt lat="48.55721" lon="2.15586">
        <ele>62</ele>
        <time>2021-03-07T12:17:54.746Z</time>
      </trkpt>
      <trkpt lat="48.55721" lon="2.15586">
        <ele>62</ele>
        <time>2021-03-07T12:17:55.746Z</time>
      </trkpt>
      <trkpt lat="48.55721" lon="2.15586">
        <ele>62</ele>
        <time>2021-03-07T12:17:56.745Z</time>
      </trkpt>
      <trkpt lat="48.55721" lon="2.15586">
        <ele>62</ele>
        <time>2021-03-07T12:17:57.745Z</time>
      </trkpt>
      <trkpt lat="48.55721" lon="2.15586">
        <ele>62</ele>
        <time>2021-03-07T12:17:58.745Z</time>
      </trkpt>
      <trkpt lat="48.55721" lon="2.15586">
        <ele>62</ele>
        <time>2021-03-07T12:17:59.745Z</time>
      </trkpt>
      <trkpt lat="48.55721" lon="2.15586">
        <ele>62</ele>
        <time>2021-03-07T12:18:00.746Z</time>
      </trkpt>
      <trkpt lat="48.55721" lon="2.15586">
        <ele>62</ele>
        <time>2021-03-07T12:18:01.745Z</time>
      </trkpt>
      <trkpt lat="48.55721" lon="2.15586">
        <ele>62</ele>
        <time>2021-03-07T12:18:02.745Z</time>
      </trkpt>
      <trkpt lat="48.55721" lon="2.15586">
        <ele>62</ele>
        <time>2021-03-07T12:18:03.746Z</time>
      </trkpt>
      <trkpt lat="48.55721" lon="2.15586">
        <ele>61</ele>
        <time>2021-03-07T12:18:04.746Z</time>
      </trkpt>
      <trkpt lat="48.55721" lon="2.15586">
        <ele>61</ele>
        <time>2021-03-07T12:18:05.746Z</time>
      </trkpt>
      <trkpt lat="48.55721" lon="2.15586">
        <ele>61</ele>
        <time>2021-03-07T12:18:06.746Z</time>
      </trkpt>
      <trkpt lat="48.55721" lon="2.15586">
        <ele>61</ele>
        <time>2021-03-07T12:18:07.745Z</time>
      </trkpt>
      <trkpt lat="48.55721" lon="2.15586">
        <ele>61</ele>
        <time>2021-03-07T12:18:08.746Z</time>
      </trkpt>
      <trkpt lat="48.55722" lon="2.15585">
        <ele>61</ele>
        <time>2021-03-07T12:18:09.746Z</time>
      </trkpt>
      <trkpt lat="48.55722" lon="2.15585">
        <ele>61</ele>
        <time>2021-03-07T12:18:10.746Z</time>
      </trkpt>
      <trkpt lat="48.55722" lon="2.15585">
        <ele>61</ele>
        <time>2021-03-07T12:18:11.746Z</time>
      </trkpt>
      <trkpt lat="48.55723" lon="2.15585">
        <ele>61</ele>
        <time>2021-03-07T12:18:12.746Z</time>
      </trkpt>
      <trkpt lat="48.55723" lon="2.15585">
        <ele>61</ele>
        <time>2021-03-07T12:18:13.746Z</time>
      </trkpt>
      <trkpt lat="48.55724" lon="2.15585">
        <ele>61</ele>
        <time>2021-03-07T12:18:14.746Z</time>
      </trkpt>
      <trkpt lat="48.55724" lon="2.15585">
        <ele>61</ele>
        <time>2021-03-07T12:18:15.746Z</time>
      </trkpt>
      <trkpt lat="48.55724" lon="2.15585">
        <ele>61</ele>
        <time>2021-03-07T12:18:16.746Z</time>
      </trkpt>
      <trkpt lat="48.55724" lon="2.15585">
        <ele>61</ele>
        <time>2021-03-07T12:18:17.746Z</time>
      </trkpt>
      <trkpt lat="48.55724" lon="2.15584">
        <ele>61</ele>
        <time>2021-03-07T12:18:18.746Z</time>
      </trkpt>
      <trkpt lat="48.55724" lon="2.15584">
        <ele>61</ele>
        <time>2021-03-07T12:18:19.746Z</time>
      </trkpt>
      <trkpt lat="48.55724" lon="2.15584">
        <ele>61</ele>
        <time>2021-03-07T12:18:20.746Z</time>
      </trkpt>
      <trkpt lat="48.55724" lon="2.15584">
        <ele>61</ele>
        <time>2021-03-07T12:18:21.746Z</time>
      </trkpt>
      <trkpt lat="48.55724" lon="2.15584">
        <ele>61</ele>
        <time>2021-03-07T12:18:22.746Z</time>
      </trkpt>
      <trkpt lat="48.55724" lon="2.15583">
        <ele>61</ele>
        <time>2021-03-07T12:18:23.746Z</time>
      </trkpt>
      <trkpt lat="48.55722" lon="2.15582">
        <ele>61</ele>
        <time>2021-03-07T12:18:24.746Z</time>
      </trkpt>
      <trkpt lat="48.55721" lon="2.15581">
        <ele>61</ele>
        <time>2021-03-07T12:18:25.746Z</time>
      </trkpt>
      <trkpt lat="48.5572" lon="2.15579">
        <ele>61</ele>
        <time>2021-03-07T12:18:26.746Z</time>
      </trkpt>
      <trkpt lat="48.5572" lon="2.15577">
        <ele>61</ele>
        <time>2021-03-07T12:18:27.746Z</time>
      </trkpt>
      <trkpt lat="48.5572" lon="2.15575">
        <ele>62</ele>
        <time>2021-03-07T12:18:28.745Z</time>
      </trkpt>
      <trkpt lat="48.55721" lon="2.15572">
        <ele>62</ele>
        <time>2021-03-07T12:18:29.746Z</time>
      </trkpt>
      <trkpt lat="48.55722" lon="2.1557">
        <ele>63</ele>
        <time>2021-03-07T12:18:30.746Z</time>
      </trkpt>
      <trkpt lat="48.55723" lon="2.15569">
        <ele>63</ele>
        <time>2021-03-07T12:18:31.746Z</time>
      </trkpt>
      <trkpt lat="48.55725" lon="2.15567">
        <ele>64</ele>
        <time>2021-03-07T12:18:32.746Z</time>
      </trkpt>
      <trkpt lat="48.55726" lon="2.15566">
        <ele>65</ele>
        <time>2021-03-07T12:18:33.746Z</time>
      </trkpt>
      <trkpt lat="48.55727" lon="2.15565">
        <ele>65</ele>
        <time>2021-03-07T12:18:34.746Z</time>
      </trkpt>
      <trkpt lat="48.55728" lon="2.15565">
        <ele>65</ele>
        <time>2021-03-07T12:18:35.746Z</time>
      </trkpt>
      <trkpt lat="48.5573" lon="2.15564">
        <ele>65</ele>
        <time>2021-03-07T12:18:36.745Z</time>
      </trkpt>
      <trkpt lat="48.55732" lon="2.15564">
        <ele>66</ele>
        <time>2021-03-07T12:18:37.746Z</time>
      </trkpt>
      <trkpt lat="48.55733" lon="2.15563">
        <ele>66</ele>
        <time>2021-03-07T12:18:38.746Z</time>
      </trkpt>
      <trkpt lat="48.55734" lon="2.15563">
        <ele>65</ele>
        <time>2021-03-07T12:18:39.746Z</time>
      </trkpt>
      <trkpt lat="48.55735" lon="2.15562">
        <ele>65</ele>
        <time>2021-03-07T12:18:40.746Z</time>
      </trkpt>
      <trkpt lat="48.55736" lon="2.15562">
        <ele>65</ele>
        <time>2021-03-07T12:18:41.746Z</time>
      </trkpt>
      <trkpt lat="48.55737" lon="2.1556">
        <ele>65</ele>
        <time>2021-03-07T12:18:42.745Z</time>
      </trkpt>
      <trkpt lat="48.55738" lon="2.1556">
        <ele>65</ele>
        <time>2021-03-07T12:18:43.746Z</time>
      </trkpt>
      <trkpt lat="48.55739" lon="2.15559">
        <ele>65</ele>
        <time>2021-03-07T12:18:44.745Z</time>
      </trkpt>
      <trkpt lat="48.5574" lon="2.15558">
        <ele>65</ele>
        <time>2021-03-07T12:18:45.745Z</time>
      </trkpt>
      <trkpt lat="48.55741" lon="2.15558">
        <ele>65</ele>
        <time>2021-03-07T12:18:46.745Z</time>
      </trkpt>
      <trkpt lat="48.55743" lon="2.15557">
        <ele>65</ele>
        <time>2021-03-07T12:18:47.746Z</time>
      </trkpt>
      <trkpt lat="48.55744" lon="2.15556">
        <ele>65</ele>
        <time>2021-03-07T12:18:48.746Z</time>
      </trkpt>
      <trkpt lat="48.55746" lon="2.15555">
        <ele>64</ele>
        <time>2021-03-07T12:18:49.746Z</time>
      </trkpt>
      <trkpt lat="48.55747" lon="2.15555">
        <ele>64</ele>
        <time>2021-03-07T12:18:50.746Z</time>
      </trkpt>
      <trkpt lat="48.55748" lon="2.15554">
        <ele>64</ele>
        <time>2021-03-07T12:18:51.746Z</time>
      </trkpt>
      <trkpt lat="48.5575" lon="2.15553">
        <ele>64</ele>
        <time>2021-03-07T12:18:52.745Z</time>
      </trkpt>
      <trkpt lat="48.55751" lon="2.15552">
        <ele>65</ele>
        <time>2021-03-07T12:18:53.745Z</time>
      </trkpt>
      <trkpt lat="48.55752" lon="2.15551">
        <ele>65</ele>
        <time>2021-03-07T12:18:54.745Z</time>
      </trkpt>
      <trkpt lat="48.55753" lon="2.15551">
        <ele>66</ele>
        <time>2021-03-07T12:18:55.746Z</time>
      </trkpt>
      <trkpt lat="48.55754" lon="2.1555">
        <ele>66</ele>
        <time>2021-03-07T12:18:56.746Z</time>
      </trkpt>
      <trkpt lat="48.55756" lon="2.1555">
        <ele>66</ele>
        <time>2021-03-07T12:18:57.745Z</time>
      </trkpt>
      <trkpt lat="48.55757" lon="2.15549">
        <ele>65</ele>
        <time>2021-03-07T12:18:58.746Z</time>
      </trkpt>
      <trkpt lat="48.55759" lon="2.15549">
        <ele>64</ele>
        <time>2021-03-07T12:18:59.746Z</time>
      </trkpt>
      <trkpt lat="48.55759" lon="2.15548">
        <ele>64</ele>
        <time>2021-03-07T12:19:00.746Z</time>
      </trkpt>
      <trkpt lat="48.55761" lon="2.15547">
        <ele>64</ele>
        <time>2021-03-07T12:19:01.746Z</time>
      </trkpt>
      <trkpt lat="48.55762" lon="2.15546">
        <ele>64</ele>
        <time>2021-03-07T12:19:02.746Z</time>
      </trkpt>
      <trkpt lat="48.55763" lon="2.15544">
        <ele>64</ele>
        <time>2021-03-07T12:19:03.746Z</time>
      </trkpt>
      <trkpt lat="48.55764" lon="2.15543">
        <ele>65</ele>
        <time>2021-03-07T12:19:04.745Z</time>
      </trkpt>
      <trkpt lat="48.55765" lon="2.15542">
        <ele>65</ele>
        <time>2021-03-07T12:19:05.746Z</time>
      </trkpt>
      <trkpt lat="48.55767" lon="2.15541">
        <ele>65</ele>
        <time>2021-03-07T12:19:06.746Z</time>
      </trkpt>
      <trkpt lat="48.55767" lon="2.1554">
        <ele>66</ele>
        <time>2021-03-07T12:19:07.746Z</time>
      </trkpt>
      <trkpt lat="48.55769" lon="2.15539">
        <ele>66</ele>
        <time>2021-03-07T12:19:08.746Z</time>
      </trkpt>
      <trkpt lat="48.5577" lon="2.15537">
        <ele>66</ele>
        <time>2021-03-07T12:19:09.746Z</time>
      </trkpt>
      <trkpt lat="48.55771" lon="2.15537">
        <ele>67</ele>
        <time>2021-03-07T12:19:10.746Z</time>
      </trkpt>
      <trkpt lat="48.55772" lon="2.15536">
        <ele>66</ele>
        <time>2021-03-07T12:19:11.746Z</time>
      </trkpt>
      <trkpt lat="48.55773" lon="2.15535">
        <ele>66</ele>
        <time>2021-03-07T12:19:12.746Z</time>
      </trkpt>
      <trkpt lat="48.55774" lon="2.15534">
        <ele>66</ele>
        <time>2021-03-07T12:19:13.746Z</time>
      </trkpt>
      <trkpt lat="48.55775" lon="2.15533">
        <ele>66</ele>
        <time>2021-03-07T12:19:14.746Z</time>
      </trkpt>
      <trkpt lat="48.55776" lon="2.15532">
        <ele>67</ele>
        <time>2021-03-07T12:19:15.746Z</time>
      </trkpt>
      <trkpt lat="48.55776" lon="2.15531">
        <ele>67</ele>
        <time>2021-03-07T12:19:16.746Z</time>
      </trkpt>
      <trkpt lat="48.55777" lon="2.15529">
        <ele>67</ele>
        <time>2021-03-07T12:19:17.746Z</time>
      </trkpt>
      <trkpt lat="48.55778" lon="2.15529">
        <ele>68</ele>
        <time>2021-03-07T12:19:18.745Z</time>
      </trkpt>
      <trkpt lat="48.55779" lon="2.15528">
        <ele>68</ele>
        <time>2021-03-07T12:19:19.746Z</time>
      </trkpt>
      <trkpt lat="48.55779" lon="2.15527">
        <ele>68</ele>
        <time>2021-03-07T12:19:20.746Z</time>
      </trkpt>
      <trkpt lat="48.5578" lon="2.15526">
        <ele>68</ele>
        <time>2021-03-07T12:19:21.746Z</time>
      </trkpt>
      <trkpt lat="48.55781" lon="2.15524">
        <ele>68</ele>
        <time>2021-03-07T12:19:22.746Z</time>
      </trkpt>
      <trkpt lat="48.55781" lon="2.15523">
        <ele>68</ele>
        <time>2021-03-07T12:19:23.746Z</time>
      </trkpt>
      <trkpt lat="48.55782" lon="2.15521">
        <ele>68</ele>
        <time>2021-03-07T12:19:24.745Z</time>
      </trkpt>
      <trkpt lat="48.55783" lon="2.15519">
        <ele>68</ele>
        <time>2021-03-07T12:19:25.745Z</time>
      </trkpt>
      <trkpt lat="48.55784" lon="2.15518">
        <ele>68</ele>
        <time>2021-03-07T12:19:26.745Z</time>
      </trkpt>
      <trkpt lat="48.55784" lon="2.15516">
        <ele>68</ele>
        <time>2021-03-07T12:19:27.746Z</time>
      </trkpt>
      <trkpt lat="48.55785" lon="2.15514">
        <ele>68</ele>
        <time>2021-03-07T12:19:28.746Z</time>
      </trkpt>
      <trkpt lat="48.55785" lon="2.15512">
        <ele>68</ele>
        <time>2021-03-07T12:19:29.746Z</time>
      </trkpt>
      <trkpt lat="48.55785" lon="2.15511">
        <ele>67</ele>
        <time>2021-03-07T12:19:30.745Z</time>
      </trkpt>
      <trkpt lat="48.55785" lon="2.15509">
        <ele>67</ele>
        <time>2021-03-07T12:19:31.746Z</time>
      </trkpt>
      <trkpt lat="48.55786" lon="2.15508">
        <ele>67</ele>
        <time>2021-03-07T12:19:32.746Z</time>
      </trkpt>
      <trkpt lat="48.55786" lon="2.15506">
        <ele>67</ele>
        <time>2021-03-07T12:19:33.746Z</time>
      </trkpt>
      <trkpt lat="48.55787" lon="2.15504">
        <ele>66</ele>
        <time>2021-03-07T12:19:34.746Z</time>
      </trkpt>
      <trkpt lat="48.55787" lon="2.15503">
        <ele>66</ele>
        <time>2021-03-07T12:19:35.746Z</time>
      </trkpt>
      <trkpt lat="48.55788" lon="2.15501">
        <ele>66</ele>
        <time>2021-03-07T12:19:36.745Z</time>
      </trkpt>
      <trkpt lat="48.55788" lon="2.15501">
        <ele>66</ele>
        <time>2021-03-07T12:19:37.746Z</time>
      </trkpt>
      <trkpt lat="48.55787" lon="2.155">
        <ele>66</ele>
        <time>2021-03-07T12:19:38.745Z</time>
      </trkpt>
      <trkpt lat="48.55787" lon="2.155">
        <ele>66</ele>
        <time>2021-03-07T12:19:39.746Z</time>
      </trkpt>
      <trkpt lat="48.55787" lon="2.15499">
        <ele>66</ele>
        <time>2021-03-07T12:19:40.746Z</time>
      </trkpt>
      <trkpt lat="48.55788" lon="2.15499">
        <ele>66</ele>
        <time>2021-03-07T12:19:41.746Z</time>
      </trkpt>
      <trkpt lat="48.55788" lon="2.15499">
        <ele>65</ele>
        <time>2021-03-07T12:19:42.746Z</time>
      </trkpt>
      <trkpt lat="48.55788" lon="2.15499">
        <ele>65</ele>
        <time>2021-03-07T12:19:43.746Z</time>
      </trkpt>
      <trkpt lat="48.55788" lon="2.15499">
        <ele>65</ele>
        <time>2021-03-07T12:19:44.746Z</time>
      </trkpt>
      <trkpt lat="48.55788" lon="2.15499">
        <ele>66</ele>
        <time>2021-03-07T12:19:45.746Z</time>
      </trkpt>
      <trkpt lat="48.55787" lon="2.15499">
        <ele>67</ele>
        <time>2021-03-07T12:19:46.746Z</time>
      </trkpt>
      <trkpt lat="48.55787" lon="2.15499">
        <ele>67</ele>
        <time>2021-03-07T12:19:47.745Z</time>
      </trkpt>
      <trkpt lat="48.55787" lon="2.15499">
        <ele>69</ele>
        <time>2021-03-07T12:19:48.746Z</time>
      </trkpt>
      <trkpt lat="48.55787" lon="2.155">
        <ele>70</ele>
        <time>2021-03-07T12:19:49.746Z</time>
      </trkpt>
      <trkpt lat="48.55787" lon="2.155">
        <ele>70</ele>
        <time>2021-03-07T12:19:50.746Z</time>
      </trkpt>
      <trkpt lat="48.55787" lon="2.155">
        <ele>71</ele>
        <time>2021-03-07T12:19:51.746Z</time>
      </trkpt>
      <trkpt lat="48.55787" lon="2.155">
        <ele>71</ele>
        <time>2021-03-07T12:19:52.746Z</time>
      </trkpt>
      <trkpt lat="48.55787" lon="2.155">
        <ele>72</ele>
        <time>2021-03-07T12:19:53.746Z</time>
      </trkpt>
      <trkpt lat="48.55787" lon="2.155">
        <ele>72</ele>
        <time>2021-03-07T12:19:54.746Z</time>
      </trkpt>
      <trkpt lat="48.55787" lon="2.155">
        <ele>72</ele>
        <time>2021-03-07T12:19:55.746Z</time>
      </trkpt>
      <trkpt lat="48.55787" lon="2.155">
        <ele>72</ele>
        <time>2021-03-07T12:19:56.746Z</time>
      </trkpt>
      <trkpt lat="48.55787" lon="2.155">
        <ele>71</ele>
        <time>2021-03-07T12:19:57.746Z</time>
      </trkpt>
      <trkpt lat="48.55787" lon="2.155">
        <ele>71</ele>
        <time>2021-03-07T12:19:58.745Z</time>
      </trkpt>
      <trkpt lat="48.55787" lon="2.155">
        <ele>71</ele>
        <time>2021-03-07T12:19:59.746Z</time>
      </trkpt>
      <trkpt lat="48.55787" lon="2.155">
        <ele>71</ele>
        <time>2021-03-07T12:20:00.746Z</time>
      </trkpt>
      <trkpt lat="48.55787" lon="2.155">
        <ele>71</ele>
        <time>2021-03-07T12:20:01.746Z</time>
      </trkpt>
      <trkpt lat="48.55787" lon="2.155">
        <ele>70</ele>
        <time>2021-03-07T12:20:02.746Z</time>
      </trkpt>
      <trkpt lat="48.55787" lon="2.155">
        <ele>70</ele>
        <time>2021-03-07T12:20:03.745Z</time>
      </trkpt>
      <trkpt lat="48.55787" lon="2.155">
        <ele>70</ele>
        <time>2021-03-07T12:20:04.745Z</time>
      </trkpt>
      <trkpt lat="48.55787" lon="2.155">
        <ele>70</ele>
        <time>2021-03-07T12:20:05.745Z</time>
      </trkpt>
      <trkpt lat="48.55787" lon="2.155">
        <ele>70</ele>
        <time>2021-03-07T12:20:06.746Z</time>
      </trkpt>
      <trkpt lat="48.55787" lon="2.155">
        <ele>69</ele>
        <time>2021-03-07T12:20:07.746Z</time>
      </trkpt>
      <trkpt lat="48.55787" lon="2.155">
        <ele>69</ele>
        <time>2021-03-07T12:20:08.746Z</time>
      </trkpt>
      <trkpt lat="48.55787" lon="2.155">
        <ele>69</ele>
        <time>2021-03-07T12:20:09.746Z</time>
      </trkpt>
      <trkpt lat="48.55787" lon="2.155">
        <ele>69</ele>
        <time>2021-03-07T12:20:10.745Z</time>
      </trkpt>
      <trkpt lat="48.55787" lon="2.155">
        <ele>69</ele>
        <time>2021-03-07T12:20:11.746Z</time>
      </trkpt>
      <trkpt lat="48.55787" lon="2.155">
        <ele>69</ele>
        <time>2021-03-07T12:20:12.746Z</time>
      </trkpt>
      <trkpt lat="48.55787" lon="2.155">
        <ele>69</ele>
        <time>2021-03-07T12:20:13.746Z</time>
      </trkpt>
      <trkpt lat="48.55787" lon="2.155">
        <ele>69</ele>
        <time>2021-03-07T12:20:14.746Z</time>
      </trkpt>
      <trkpt lat="48.55787" lon="2.155">
        <ele>69</ele>
        <time>2021-03-07T12:20:15.746Z</time>
      </trkpt>
      <trkpt lat="48.55787" lon="2.155">
        <ele>69</ele>
        <time>2021-03-07T12:20:16.746Z</time>
      </trkpt>
      <trkpt lat="48.55787" lon="2.155">
        <ele>69</ele>
        <time>2021-03-07T12:20:17.746Z</time>
      </trkpt>
      <trkpt lat="48.55787" lon="2.155">
        <ele>68</ele>
        <time>2021-03-07T12:20:18.746Z</time>
      </trkpt>
      <trkpt lat="48.55787" lon="2.155">
        <ele>68</ele>
        <time>2021-03-07T12:20:19.746Z</time>
      </trkpt>
      <trkpt lat="48.55787" lon="2.155">
        <ele>68</ele>
        <time>2021-03-07T12:20:20.746Z</time>
      </trkpt>
      <trkpt lat="48.55787" lon="2.155">
        <ele>68</ele>
        <time>2021-03-07T12:20:21.745Z</time>
      </trkpt>
      <trkpt lat="48.55787" lon="2.155">
        <ele>68</ele>
        <time>2021-03-07T12:20:22.745Z</time>
      </trkpt>
      <trkpt lat="48.55787" lon="2.155">
        <ele>68</ele>
        <time>2021-03-07T12:20:23.745Z</time>
      </trkpt>
      <trkpt lat="48.55787" lon="2.155">
        <ele>68</ele>
        <time>2021-03-07T12:20:24.745Z</time>
      </trkpt>
      <trkpt lat="48.55787" lon="2.155">
        <ele>68</ele>
        <time>2021-03-07T12:20:25.746Z</time>
      </trkpt>
      <trkpt lat="48.55787" lon="2.155">
        <ele>68</ele>
        <time>2021-03-07T12:20:26.746Z</time>
      </trkpt>
      <trkpt lat="48.55788" lon="2.15497">
        <ele>68</ele>
        <time>2021-03-07T12:20:27.746Z</time>
      </trkpt>
      <trkpt lat="48.55789" lon="2.15495">
        <ele>68</ele>
        <time>2021-03-07T12:20:28.745Z</time>
      </trkpt>
      <trkpt lat="48.5579" lon="2.15493">
        <ele>68</ele>
        <time>2021-03-07T12:20:29.745Z</time>
      </trkpt>
      <trkpt lat="48.55791" lon="2.1549">
        <ele>68</ele>
        <time>2021-03-07T12:20:30.745Z</time>
      </trkpt>
      <trkpt lat="48.55792" lon="2.15487">
        <ele>68</ele>
        <time>2021-03-07T12:20:31.746Z</time>
      </trkpt>
      <trkpt lat="48.55793" lon="2.15485">
        <ele>68</ele>
        <time>2021-03-07T12:20:32.746Z</time>
      </trkpt>
      <trkpt lat="48.55794" lon="2.15482">
        <ele>68</ele>
        <time>2021-03-07T12:20:33.746Z</time>
      </trkpt>
      <trkpt lat="48.55796" lon="2.1548">
        <ele>68</ele>
        <time>2021-03-07T12:20:34.745Z</time>
      </trkpt>
      <trkpt lat="48.55797" lon="2.15478">
        <ele>69</ele>
        <time>2021-03-07T12:20:35.745Z</time>
      </trkpt>
      <trkpt lat="48.55797" lon="2.15477">
        <ele>69</ele>
        <time>2021-03-07T12:20:36.746Z</time>
      </trkpt>
      <trkpt lat="48.55798" lon="2.15476">
        <ele>70</ele>
        <time>2021-03-07T12:20:37.746Z</time>
      </trkpt>
      <trkpt lat="48.55799" lon="2.15475">
        <ele>70</ele>
        <time>2021-03-07T12:20:38.746Z</time>
      </trkpt>
      <trkpt lat="48.558" lon="2.15474">
        <ele>69</ele>
        <time>2021-03-07T12:20:39.746Z</time>
      </trkpt>
      <trkpt lat="48.55801" lon="2.15474">
        <ele>69</ele>
        <time>2021-03-07T12:20:40.745Z</time>
      </trkpt>
      <trkpt lat="48.55802" lon="2.15473">
        <ele>68</ele>
        <time>2021-03-07T12:20:41.746Z</time>
      </trkpt>
      <trkpt lat="48.55802" lon="2.15473">
        <ele>67</ele>
        <time>2021-03-07T12:20:42.745Z</time>
      </trkpt>
      <trkpt lat="48.55804" lon="2.15472">
        <ele>67</ele>
        <time>2021-03-07T12:20:43.746Z</time>
      </trkpt>
      <trkpt lat="48.55805" lon="2.15471">
        <ele>67</ele>
        <time>2021-03-07T12:20:44.746Z</time>
      </trkpt>
      <trkpt lat="48.55807" lon="2.1547">
        <ele>66</ele>
        <time>2021-03-07T12:20:45.746Z</time>
      </trkpt>
      <trkpt lat="48.55808" lon="2.15469">
        <ele>66</ele>
        <time>2021-03-07T12:20:46.745Z</time>
      </trkpt>
      <trkpt lat="48.55809" lon="2.15469">
        <ele>66</ele>
        <time>2021-03-07T12:20:47.746Z</time>
      </trkpt>
      <trkpt lat="48.55811" lon="2.15468">
        <ele>66</ele>
        <time>2021-03-07T12:20:48.745Z</time>
      </trkpt>
      <trkpt lat="48.55812" lon="2.15465">
        <ele>67</ele>
        <time>2021-03-07T12:20:49.745Z</time>
      </trkpt>
      <trkpt lat="48.55813" lon="2.15464">
        <ele>67</ele>
        <time>2021-03-07T12:20:50.746Z</time>
      </trkpt>
      <trkpt lat="48.55813" lon="2.15462">
        <ele>67</ele>
        <time>2021-03-07T12:20:51.745Z</time>
      </trkpt>
      <trkpt lat="48.55813" lon="2.1546">
        <ele>67</ele>
        <time>2021-03-07T12:20:52.746Z</time>
      </trkpt>
      <trkpt lat="48.55814" lon="2.15459">
        <ele>67</ele>
        <time>2021-03-07T12:20:53.746Z</time>
      </trkpt>
      <trkpt lat="48.55814" lon="2.15457">
        <ele>67</ele>
        <time>2021-03-07T12:20:54.745Z</time>
      </trkpt>
      <trkpt lat="48.55814" lon="2.15455">
        <ele>67</ele>
        <time>2021-03-07T12:20:55.746Z</time>
      </trkpt>
      <trkpt lat="48.55814" lon="2.15453">
        <ele>67</ele>
        <time>2021-03-07T12:20:56.746Z</time>
      </trkpt>
      <trkpt lat="48.55814" lon="2.1545">
        <ele>67</ele>
        <time>2021-03-07T12:20:57.745Z</time>
      </trkpt>
      <trkpt lat="48.55813" lon="2.15448">
        <ele>66</ele>
        <time>2021-03-07T12:20:58.745Z</time>
      </trkpt>
      <trkpt lat="48.55813" lon="2.15446">
        <ele>66</ele>
        <time>2021-03-07T12:20:59.745Z</time>
      </trkpt>
      <trkpt lat="48.55812" lon="2.15444">
        <ele>66</ele>
        <time>2021-03-07T12:21:00.745Z</time>
      </trkpt>
      <trkpt lat="48.55812" lon="2.15442">
        <ele>66</ele>
        <time>2021-03-07T12:21:01.745Z</time>
      </trkpt>
      <trkpt lat="48.55811" lon="2.1544">
        <ele>66</ele>
        <time>2021-03-07T12:21:02.746Z</time>
      </trkpt>
      <trkpt lat="48.5581" lon="2.15437">
        <ele>67</ele>
        <time>2021-03-07T12:21:03.745Z</time>
      </trkpt>
      <trkpt lat="48.5581" lon="2.15435">
        <ele>68</ele>
        <time>2021-03-07T12:21:04.745Z</time>
      </trkpt>
      <trkpt lat="48.5581" lon="2.15432">
        <ele>68</ele>
        <time>2021-03-07T12:21:05.745Z</time>
      </trkpt>
      <trkpt lat="48.5581" lon="2.1543">
        <ele>68</ele>
        <time>2021-03-07T12:21:06.745Z</time>
      </trkpt>
      <trkpt lat="48.5581" lon="2.15428">
        <ele>68</ele>
        <time>2021-03-07T12:21:07.746Z</time>
      </trkpt>
      <trkpt lat="48.5581" lon="2.15425">
        <ele>68</ele>
        <time>2021-03-07T12:21:08.746Z</time>
      </trkpt>
      <trkpt lat="48.55809" lon="2.15423">
        <ele>68</ele>
        <time>2021-03-07T12:21:09.746Z</time>
      </trkpt>
      <trkpt lat="48.5581" lon="2.1542">
        <ele>68</ele>
        <time>2021-03-07T12:21:10.745Z</time>
      </trkpt>
      <trkpt lat="48.5581" lon="2.15418">
        <ele>68</ele>
        <time>2021-03-07T12:21:11.745Z</time>
      </trkpt>
      <trkpt lat="48.5581" lon="2.15416">
        <ele>68</ele>
        <time>2021-03-07T12:21:12.745Z</time>
      </trkpt>
      <trkpt lat="48.5581" lon="2.15414">
        <ele>67</ele>
        <time>2021-03-07T12:21:13.746Z</time>
      </trkpt>
      <trkpt lat="48.5581" lon="2.15413">
        <ele>67</ele>
        <time>2021-03-07T12:21:14.746Z</time>
      </trkpt>
      <trkpt lat="48.5581" lon="2.1541">
        <ele>67</ele>
        <time>2021-03-07T12:21:15.745Z</time>
      </trkpt>
      <trkpt lat="48.5581" lon="2.15409">
        <ele>67</ele>
        <time>2021-03-07T12:21:16.745Z</time>
      </trkpt>
      <trkpt lat="48.55811" lon="2.15408">
        <ele>67</ele>
        <time>2021-03-07T12:21:17.746Z</time>
      </trkpt>
      <trkpt lat="48.55811" lon="2.15406">
        <ele>67</ele>
        <time>2021-03-07T12:21:18.746Z</time>
      </trkpt>
      <trkpt lat="48.55812" lon="2.15405">
        <ele>67</ele>
        <time>2021-03-07T12:21:19.745Z</time>
      </trkpt>
      <trkpt lat="48.55813" lon="2.15404">
        <ele>67</ele>
        <time>2021-03-07T12:21:20.746Z</time>
      </trkpt>
      <trkpt lat="48.55814" lon="2.15402">
        <ele>67</ele>
        <time>2021-03-07T12:21:21.745Z</time>
      </trkpt>
      <trkpt lat="48.55814" lon="2.15401">
        <ele>67</ele>
        <time>2021-03-07T12:21:22.745Z</time>
      </trkpt>
      <trkpt lat="48.55815" lon="2.154">
        <ele>67</ele>
        <time>2021-03-07T12:21:23.746Z</time>
      </trkpt>
      <trkpt lat="48.55816" lon="2.15399">
        <ele>67</ele>
        <time>2021-03-07T12:21:24.746Z</time>
      </trkpt>
      <trkpt lat="48.55816" lon="2.15398">
        <ele>68</ele>
        <time>2021-03-07T12:21:25.746Z</time>
      </trkpt>
      <trkpt lat="48.55817" lon="2.15396">
        <ele>69</ele>
        <time>2021-03-07T12:21:26.746Z</time>
      </trkpt>
      <trkpt lat="48.55818" lon="2.15395">
        <ele>69</ele>
        <time>2021-03-07T12:21:27.746Z</time>
      </trkpt>
      <trkpt lat="48.55819" lon="2.15393">
        <ele>70</ele>
        <time>2021-03-07T12:21:28.746Z</time>
      </trkpt>
      <trkpt lat="48.5582" lon="2.15392">
        <ele>70</ele>
        <time>2021-03-07T12:21:29.745Z</time>
      </trkpt>
      <trkpt lat="48.55821" lon="2.1539">
        <ele>71</ele>
        <time>2021-03-07T12:21:30.746Z</time>
      </trkpt>
      <trkpt lat="48.55821" lon="2.15388">
        <ele>71</ele>
        <time>2021-03-07T12:21:31.746Z</time>
      </trkpt>
      <trkpt lat="48.55822" lon="2.15386">
        <ele>71</ele>
        <time>2021-03-07T12:21:32.746Z</time>
      </trkpt>
      <trkpt lat="48.55824" lon="2.15385">
        <ele>71</ele>
        <time>2021-03-07T12:21:33.746Z</time>
      </trkpt>
      <trkpt lat="48.55824" lon="2.15383">
        <ele>71</ele>
        <time>2021-03-07T12:21:34.745Z</time>
      </trkpt>
      <trkpt lat="48.55825" lon="2.15381">
        <ele>71</ele>
        <time>2021-03-07T12:21:35.746Z</time>
      </trkpt>
      <trkpt lat="48.55826" lon="2.15379">
        <ele>71</ele>
        <time>2021-03-07T12:21:36.746Z</time>
      </trkpt>
      <trkpt lat="48.55826" lon="2.15378">
        <ele>71</ele>
        <time>2021-03-07T12:21:37.746Z</time>
      </trkpt>
      <trkpt lat="48.55827" lon="2.15376">
        <ele>71</ele>
        <time>2021-03-07T12:21:38.745Z</time>
      </trkpt>
      <trkpt lat="48.55828" lon="2.15375">
        <ele>71</ele>
        <time>2021-03-07T12:21:39.745Z</time>
      </trkpt>
      <trkpt lat="48.55829" lon="2.15374">
        <ele>71</ele>
        <time>2021-03-07T12:21:40.746Z</time>
      </trkpt>
      <trkpt lat="48.5583" lon="2.15372">
        <ele>71</ele>
        <time>2021-03-07T12:21:41.746Z</time>
      </trkpt>
      <trkpt lat="48.55831" lon="2.1537">
        <ele>72</ele>
        <time>2021-03-07T12:21:42.746Z</time>
      </trkpt>
      <trkpt lat="48.55832" lon="2.15369">
        <ele>72</ele>
        <time>2021-03-07T12:21:43.746Z</time>
      </trkpt>
      <trkpt lat="48.55833" lon="2.15367">
        <ele>73</ele>
        <time>2021-03-07T12:21:44.746Z</time>
      </trkpt>
      <trkpt lat="48.55834" lon="2.15366">
        <ele>73</ele>
        <time>2021-03-07T12:21:45.746Z</time>
      </trkpt>
      <trkpt lat="48.55835" lon="2.15365">
        <ele>74</ele>
        <time>2021-03-07T12:21:46.745Z</time>
      </trkpt>
      <trkpt lat="48.55836" lon="2.15364">
        <ele>74</ele>
        <time>2021-03-07T12:21:47.745Z</time>
      </trkpt>
      <trkpt lat="48.55837" lon="2.15362">
        <ele>75</ele>
        <time>2021-03-07T12:21:48.745Z</time>
      </trkpt>
      <trkpt lat="48.55838" lon="2.15361">
        <ele>75</ele>
        <time>2021-03-07T12:21:49.746Z</time>
      </trkpt>
      <trkpt lat="48.55839" lon="2.1536">
        <ele>75</ele>
        <time>2021-03-07T12:21:50.746Z</time>
      </trkpt>
      <trkpt lat="48.5584" lon="2.15359">
        <ele>75</ele>
        <time>2021-03-07T12:21:51.745Z</time>
      </trkpt>
      <trkpt lat="48.55841" lon="2.15358">
        <ele>75</ele>
        <time>2021-03-07T12:21:52.746Z</time>
      </trkpt>
      <trkpt lat="48.55842" lon="2.15358">
        <ele>75</ele>
        <time>2021-03-07T12:21:53.746Z</time>
      </trkpt>
      <trkpt lat="48.55843" lon="2.15356">
        <ele>75</ele>
        <time>2021-03-07T12:21:54.746Z</time>
      </trkpt>
      <trkpt lat="48.55843" lon="2.15355">
        <ele>75</ele>
        <time>2021-03-07T12:21:55.746Z</time>
      </trkpt>
      <trkpt lat="48.55844" lon="2.15354">
        <ele>75</ele>
        <time>2021-03-07T12:21:56.746Z</time>
      </trkpt>
      <trkpt lat="48.55845" lon="2.15353">
        <ele>75</ele>
        <time>2021-03-07T12:21:57.746Z</time>
      </trkpt>
      <trkpt lat="48.55846" lon="2.15352">
        <ele>76</ele>
        <time>2021-03-07T12:21:58.745Z</time>
      </trkpt>
      <trkpt lat="48.55847" lon="2.15351">
        <ele>76</ele>
        <time>2021-03-07T12:21:59.746Z</time>
      </trkpt>
      <trkpt lat="48.55848" lon="2.1535">
        <ele>76</ele>
        <time>2021-03-07T12:22:00.745Z</time>
      </trkpt>
      <trkpt lat="48.55848" lon="2.1535">
        <ele>75</ele>
        <time>2021-03-07T12:22:01.746Z</time>
      </trkpt>
      <trkpt lat="48.55849" lon="2.15349">
        <ele>76</ele>
        <time>2021-03-07T12:22:02.745Z</time>
      </trkpt>
      <trkpt lat="48.5585" lon="2.15348">
        <ele>76</ele>
        <time>2021-03-07T12:22:03.746Z</time>
      </trkpt>
      <trkpt lat="48.55851" lon="2.15347">
        <ele>76</ele>
        <time>2021-03-07T12:22:04.746Z</time>
      </trkpt>
      <trkpt lat="48.55852" lon="2.15346">
        <ele>76</ele>
        <time>2021-03-07T12:22:05.746Z</time>
      </trkpt>
      <trkpt lat="48.55853" lon="2.15345">
        <ele>76</ele>
        <time>2021-03-07T12:22:06.745Z</time>
      </trkpt>
      <trkpt lat="48.55854" lon="2.15344">
        <ele>76</ele>
        <time>2021-03-07T12:22:07.745Z</time>
      </trkpt>
      <trkpt lat="48.55855" lon="2.15343">
        <ele>76</ele>
        <time>2021-03-07T12:22:08.746Z</time>
      </trkpt>
      <trkpt lat="48.55856" lon="2.15341">
        <ele>77</ele>
        <time>2021-03-07T12:22:09.746Z</time>
      </trkpt>
      <trkpt lat="48.55857" lon="2.15339">
        <ele>77</ele>
        <time>2021-03-07T12:22:10.746Z</time>
      </trkpt>
      <trkpt lat="48.55858" lon="2.15338">
        <ele>77</ele>
        <time>2021-03-07T12:22:11.746Z</time>
      </trkpt>
      <trkpt lat="48.55859" lon="2.15336">
        <ele>77</ele>
        <time>2021-03-07T12:22:12.745Z</time>
      </trkpt>
      <trkpt lat="48.5586" lon="2.15336">
        <ele>78</ele>
        <time>2021-03-07T12:22:13.745Z</time>
      </trkpt>
      <trkpt lat="48.55861" lon="2.15335">
        <ele>78</ele>
        <time>2021-03-07T12:22:14.746Z</time>
      </trkpt>
      <trkpt lat="48.55863" lon="2.15334">
        <ele>78</ele>
        <time>2021-03-07T12:22:15.746Z</time>
      </trkpt>
      <trkpt lat="48.55864" lon="2.15333">
        <ele>78</ele>
        <time>2021-03-07T12:22:16.745Z</time>
      </trkpt>
      <trkpt lat="48.55865" lon="2.15332">
        <ele>78</ele>
        <time>2021-03-07T12:22:17.745Z</time>
      </trkpt>
      <trkpt lat="48.55867" lon="2.15332">
        <ele>78</ele>
        <time>2021-03-07T12:22:18.746Z</time>
      </trkpt>
      <trkpt lat="48.55868" lon="2.15331">
        <ele>78</ele>
        <time>2021-03-07T12:22:19.746Z</time>
      </trkpt>
      <trkpt lat="48.5587" lon="2.15329">
        <ele>78</ele>
        <time>2021-03-07T12:22:20.746Z</time>
      </trkpt>
      <trkpt lat="48.5587" lon="2.15328">
        <ele>78</ele>
        <time>2021-03-07T12:22:21.746Z</time>
      </trkpt>
      <trkpt lat="48.55871" lon="2.15327">
        <ele>77</ele>
        <time>2021-03-07T12:22:22.745Z</time>
      </trkpt>
      <trkpt lat="48.55872" lon="2.15326">
        <ele>77</ele>
        <time>2021-03-07T12:22:23.746Z</time>
      </trkpt>
      <trkpt lat="48.55874" lon="2.15325">
        <ele>78</ele>
        <time>2021-03-07T12:22:24.746Z</time>
      </trkpt>
      <trkpt lat="48.55875" lon="2.15323">
        <ele>78</ele>
        <time>2021-03-07T12:22:25.746Z</time>
      </trkpt>
      <trkpt lat="48.55876" lon="2.15322">
        <ele>79</ele>
        <time>2021-03-07T12:22:26.746Z</time>
      </trkpt>
      <trkpt lat="48.55877" lon="2.15321">
        <ele>79</ele>
        <time>2021-03-07T12:22:27.746Z</time>
      </trkpt>
      <trkpt lat="48.55879" lon="2.15319">
        <ele>80</ele>
        <time>2021-03-07T12:22:28.746Z</time>
      </trkpt>
      <trkpt lat="48.5588" lon="2.15318">
        <ele>80</ele>
        <time>2021-03-07T12:22:29.746Z</time>
      </trkpt>
      <trkpt lat="48.55881" lon="2.15317">
        <ele>80</ele>
        <time>2021-03-07T12:22:30.746Z</time>
      </trkpt>
      <trkpt lat="48.55882" lon="2.15315">
        <ele>81</ele>
        <time>2021-03-07T12:22:31.746Z</time>
      </trkpt>
      <trkpt lat="48.55884" lon="2.15314">
        <ele>81</ele>
        <time>2021-03-07T12:22:32.746Z</time>
      </trkpt>
      <trkpt lat="48.55885" lon="2.15312">
        <ele>81</ele>
        <time>2021-03-07T12:22:33.746Z</time>
      </trkpt>
      <trkpt lat="48.55886" lon="2.15311">
        <ele>81</ele>
        <time>2021-03-07T12:22:34.746Z</time>
      </trkpt>
      <trkpt lat="48.55887" lon="2.1531">
        <ele>80</ele>
        <time>2021-03-07T12:22:35.746Z</time>
      </trkpt>
      <trkpt lat="48.55888" lon="2.15309">
        <ele>80</ele>
        <time>2021-03-07T12:22:36.746Z</time>
      </trkpt>
      <trkpt lat="48.55889" lon="2.15308">
        <ele>79</ele>
        <time>2021-03-07T12:22:37.746Z</time>
      </trkpt>
      <trkpt lat="48.5589" lon="2.15306">
        <ele>79</ele>
        <time>2021-03-07T12:22:38.746Z</time>
      </trkpt>
      <trkpt lat="48.55891" lon="2.15304">
        <ele>78</ele>
        <time>2021-03-07T12:22:39.745Z</time>
      </trkpt>
      <trkpt lat="48.55892" lon="2.15303">
        <ele>77</ele>
        <time>2021-03-07T12:22:40.746Z</time>
      </trkpt>
      <trkpt lat="48.55894" lon="2.15301">
        <ele>77</ele>
        <time>2021-03-07T12:22:41.746Z</time>
      </trkpt>
      <trkpt lat="48.55895" lon="2.15301">
        <ele>76</ele>
        <time>2021-03-07T12:22:42.745Z</time>
      </trkpt>
      <trkpt lat="48.55896" lon="2.15299">
        <ele>76</ele>
        <time>2021-03-07T12:22:43.745Z</time>
      </trkpt>
      <trkpt lat="48.55897" lon="2.15298">
        <ele>76</ele>
        <time>2021-03-07T12:22:44.746Z</time>
      </trkpt>
      <trkpt lat="48.55898" lon="2.15296">
        <ele>76</ele>
        <time>2021-03-07T12:22:45.746Z</time>
      </trkpt>
      <trkpt lat="48.55899" lon="2.15295">
        <ele>76</ele>
        <time>2021-03-07T12:22:46.746Z</time>
      </trkpt>
      <trkpt lat="48.559" lon="2.15294">
        <ele>76</ele>
        <time>2021-03-07T12:22:47.745Z</time>
      </trkpt>
      <trkpt lat="48.55901" lon="2.15293">
        <ele>76</ele>
        <time>2021-03-07T12:22:48.745Z</time>
      </trkpt>
      <trkpt lat="48.55902" lon="2.15291">
        <ele>76</ele>
        <time>2021-03-07T12:22:49.746Z</time>
      </trkpt>
      <trkpt lat="48.55903" lon="2.1529">
        <ele>76</ele>
        <time>2021-03-07T12:22:50.746Z</time>
      </trkpt>
      <trkpt lat="48.55904" lon="2.15288">
        <ele>76</ele>
        <time>2021-03-07T12:22:51.746Z</time>
      </trkpt>
      <trkpt lat="48.55905" lon="2.15287">
        <ele>76</ele>
        <time>2021-03-07T12:22:52.746Z</time>
      </trkpt>
      <trkpt lat="48.55906" lon="2.15286">
        <ele>76</ele>
        <time>2021-03-07T12:22:53.746Z</time>
      </trkpt>
      <trkpt lat="48.55907" lon="2.15285">
        <ele>76</ele>
        <time>2021-03-07T12:22:54.745Z</time>
      </trkpt>
      <trkpt lat="48.55908" lon="2.15284">
        <ele>75</ele>
        <time>2021-03-07T12:22:55.745Z</time>
      </trkpt>
      <trkpt lat="48.55909" lon="2.15283">
        <ele>75</ele>
        <time>2021-03-07T12:22:56.746Z</time>
      </trkpt>
      <trkpt lat="48.5591" lon="2.15281">
        <ele>74</ele>
        <time>2021-03-07T12:22:57.746Z</time>
      </trkpt>
      <trkpt lat="48.5591" lon="2.15279">
        <ele>74</ele>
        <time>2021-03-07T12:22:58.745Z</time>
      </trkpt>
      <trkpt lat="48.55912" lon="2.15278">
        <ele>74</ele>
        <time>2021-03-07T12:22:59.745Z</time>
      </trkpt>
      <trkpt lat="48.55912" lon="2.15276">
        <ele>74</ele>
        <time>2021-03-07T12:23:00.746Z</time>
      </trkpt>
      <trkpt lat="48.55913" lon="2.15274">
        <ele>74</ele>
        <time>2021-03-07T12:23:01.745Z</time>
      </trkpt>
      <trkpt lat="48.55914" lon="2.15273">
        <ele>74</ele>
        <time>2021-03-07T12:23:02.745Z</time>
      </trkpt>
      <trkpt lat="48.55915" lon="2.15272">
        <ele>74</ele>
        <time>2021-03-07T12:23:03.746Z</time>
      </trkpt>
      <trkpt lat="48.55917" lon="2.15271">
        <ele>74</ele>
        <time>2021-03-07T12:23:04.746Z</time>
      </trkpt>
      <trkpt lat="48.55918" lon="2.1527">
        <ele>74</ele>
        <time>2021-03-07T12:23:05.746Z</time>
      </trkpt>
      <trkpt lat="48.55918" lon="2.15269">
        <ele>75</ele>
        <time>2021-03-07T12:23:06.746Z</time>
      </trkpt>
      <trkpt lat="48.55919" lon="2.15268">
        <ele>75</ele>
        <time>2021-03-07T12:23:07.746Z</time>
      </trkpt>
      <trkpt lat="48.5592" lon="2.15268">
        <ele>75</ele>
        <time>2021-03-07T12:23:08.746Z</time>
      </trkpt>
      <trkpt lat="48.5592" lon="2.15267">
        <ele>76</ele>
        <time>2021-03-07T12:23:09.746Z</time>
      </trkpt>
      <trkpt lat="48.55921" lon="2.15266">
        <ele>76</ele>
        <time>2021-03-07T12:23:10.745Z</time>
      </trkpt>
      <trkpt lat="48.55922" lon="2.15265">
        <ele>77</ele>
        <time>2021-03-07T12:23:11.746Z</time>
      </trkpt>
      <trkpt lat="48.55923" lon="2.15263">
        <ele>78</ele>
        <time>2021-03-07T12:23:12.745Z</time>
      </trkpt>
      <trkpt lat="48.55924" lon="2.15261">
        <ele>79</ele>
        <time>2021-03-07T12:23:13.745Z</time>
      </trkpt>
      <trkpt lat="48.55925" lon="2.15259">
        <ele>80</ele>
        <time>2021-03-07T12:23:14.746Z</time>
      </trkpt>
      <trkpt lat="48.55926" lon="2.15258">
        <ele>80</ele>
        <time>2021-03-07T12:23:15.746Z</time>
      </trkpt>
      <trkpt lat="48.55927" lon="2.15256">
        <ele>81</ele>
        <time>2021-03-07T12:23:16.745Z</time>
      </trkpt>
      <trkpt lat="48.55928" lon="2.15254">
        <ele>81</ele>
        <time>2021-03-07T12:23:17.745Z</time>
      </trkpt>
      <trkpt lat="48.55929" lon="2.15253">
        <ele>81</ele>
        <time>2021-03-07T12:23:18.746Z</time>
      </trkpt>
      <trkpt lat="48.55929" lon="2.15252">
        <ele>81</ele>
        <time>2021-03-07T12:23:19.746Z</time>
      </trkpt>
      <trkpt lat="48.5593" lon="2.15251">
        <ele>81</ele>
        <time>2021-03-07T12:23:20.746Z</time>
      </trkpt>
      <trkpt lat="48.55931" lon="2.1525">
        <ele>80</ele>
        <time>2021-03-07T12:23:21.745Z</time>
      </trkpt>
      <trkpt lat="48.55932" lon="2.15248">
        <ele>81</ele>
        <time>2021-03-07T12:23:22.746Z</time>
      </trkpt>
      <trkpt lat="48.55933" lon="2.15246">
        <ele>80</ele>
        <time>2021-03-07T12:23:23.746Z</time>
      </trkpt>
      <trkpt lat="48.55933" lon="2.15244">
        <ele>80</ele>
        <time>2021-03-07T12:23:24.745Z</time>
      </trkpt>
      <trkpt lat="48.55933" lon="2.15242">
        <ele>80</ele>
        <time>2021-03-07T12:23:25.746Z</time>
      </trkpt>
      <trkpt lat="48.55933" lon="2.1524">
        <ele>80</ele>
        <time>2021-03-07T12:23:26.746Z</time>
      </trkpt>
      <trkpt lat="48.55933" lon="2.15237">
        <ele>80</ele>
        <time>2021-03-07T12:23:27.746Z</time>
      </trkpt>
      <trkpt lat="48.55934" lon="2.15235">
        <ele>80</ele>
        <time>2021-03-07T12:23:28.746Z</time>
      </trkpt>
      <trkpt lat="48.55934" lon="2.15233">
        <ele>80</ele>
        <time>2021-03-07T12:23:29.746Z</time>
      </trkpt>
      <trkpt lat="48.55935" lon="2.15231">
        <ele>80</ele>
        <time>2021-03-07T12:23:30.745Z</time>
      </trkpt>
      <trkpt lat="48.55935" lon="2.15229">
        <ele>80</ele>
        <time>2021-03-07T12:23:31.745Z</time>
      </trkpt>
      <trkpt lat="48.55936" lon="2.15227">
        <ele>80</ele>
        <time>2021-03-07T12:23:32.746Z</time>
      </trkpt>
      <trkpt lat="48.55936" lon="2.15225">
        <ele>80</ele>
        <time>2021-03-07T12:23:33.746Z</time>
      </trkpt>
      <trkpt lat="48.55937" lon="2.15222">
        <ele>80</ele>
        <time>2021-03-07T12:23:34.746Z</time>
      </trkpt>
      <trkpt lat="48.55937" lon="2.1522">
        <ele>79</ele>
        <time>2021-03-07T12:23:35.746Z</time>
      </trkpt>
      <trkpt lat="48.55937" lon="2.15218">
        <ele>79</ele>
        <time>2021-03-07T12:23:36.746Z</time>
      </trkpt>
      <trkpt lat="48.55937" lon="2.15216">
        <ele>79</ele>
        <time>2021-03-07T12:23:37.745Z</time>
      </trkpt>
      <trkpt lat="48.55938" lon="2.15214">
        <ele>79</ele>
        <time>2021-03-07T12:23:38.746Z</time>
      </trkpt>
      <trkpt lat="48.55938" lon="2.15212">
        <ele>80</ele>
        <time>2021-03-07T12:23:39.746Z</time>
      </trkpt>
      <trkpt lat="48.55938" lon="2.1521">
        <ele>80</ele>
        <time>2021-03-07T12:23:40.746Z</time>
      </trkpt>
      <trkpt lat="48.55939" lon="2.15208">
        <ele>80</ele>
        <time>2021-03-07T12:23:41.746Z</time>
      </trkpt>
      <trkpt lat="48.55939" lon="2.15206">
        <ele>80</ele>
        <time>2021-03-07T12:23:42.746Z</time>
      </trkpt>
      <trkpt lat="48.55939" lon="2.15204">
        <ele>81</ele>
        <time>2021-03-07T12:23:43.746Z</time>
      </trkpt>
      <trkpt lat="48.55939" lon="2.15203">
        <ele>81</ele>
        <time>2021-03-07T12:23:44.745Z</time>
      </trkpt>
      <trkpt lat="48.5594" lon="2.15201">
        <ele>81</ele>
        <time>2021-03-07T12:23:45.746Z</time>
      </trkpt>
      <trkpt lat="48.55941" lon="2.152">
        <ele>81</ele>
        <time>2021-03-07T12:23:46.746Z</time>
      </trkpt>
      <trkpt lat="48.55941" lon="2.15199">
        <ele>82</ele>
        <time>2021-03-07T12:23:47.745Z</time>
      </trkpt>
      <trkpt lat="48.55941" lon="2.15198">
        <ele>82</ele>
        <time>2021-03-07T12:23:48.745Z</time>
      </trkpt>
      <trkpt lat="48.55941" lon="2.15198">
        <ele>83</ele>
        <time>2021-03-07T12:23:49.746Z</time>
      </trkpt>
      <trkpt lat="48.55942" lon="2.15198">
        <ele>83</ele>
        <time>2021-03-07T12:23:50.746Z</time>
      </trkpt>
      <trkpt lat="48.55942" lon="2.15198">
        <ele>84</ele>
        <time>2021-03-07T12:23:51.746Z</time>
      </trkpt>
      <trkpt lat="48.55941" lon="2.15198">
        <ele>84</ele>
        <time>2021-03-07T12:23:52.745Z</time>
      </trkpt>
      <trkpt lat="48.55941" lon="2.15199">
        <ele>85</ele>
        <time>2021-03-07T12:23:53.746Z</time>
      </trkpt>
      <trkpt lat="48.55941" lon="2.15199">
        <ele>85</ele>
        <time>2021-03-07T12:23:54.745Z</time>
      </trkpt>
      <trkpt lat="48.55941" lon="2.15199">
        <ele>85</ele>
        <time>2021-03-07T12:23:55.746Z</time>
      </trkpt>
      <trkpt lat="48.55941" lon="2.15199">
        <ele>86</ele>
        <time>2021-03-07T12:23:56.745Z</time>
      </trkpt>
      <trkpt lat="48.55941" lon="2.15199">
        <ele>86</ele>
        <time>2021-03-07T12:23:57.746Z</time>
      </trkpt>
      <trkpt lat="48.55941" lon="2.15199">
        <ele>86</ele>
        <time>2021-03-07T12:23:58.746Z</time>
      </trkpt>
      <trkpt lat="48.55941" lon="2.15199">
        <ele>86</ele>
        <time>2021-03-07T12:23:59.746Z</time>
      </trkpt>
      <trkpt lat="48.55941" lon="2.15199">
        <ele>87</ele>
        <time>2021-03-07T12:24:00.745Z</time>
      </trkpt>
      <trkpt lat="48.55941" lon="2.15199">
        <ele>87</ele>
        <time>2021-03-07T12:24:01.746Z</time>
      </trkpt>
      <trkpt lat="48.55941" lon="2.15199">
        <ele>87</ele>
        <time>2021-03-07T12:24:02.746Z</time>
      </trkpt>
      <trkpt lat="48.55941" lon="2.15199">
        <ele>87</ele>
        <time>2021-03-07T12:24:03.745Z</time>
      </trkpt>
      <trkpt lat="48.55941" lon="2.15199">
        <ele>88</ele>
        <time>2021-03-07T12:24:04.745Z</time>
      </trkpt>
      <trkpt lat="48.55941" lon="2.15199">
        <ele>88</ele>
        <time>2021-03-07T12:24:05.746Z</time>
      </trkpt>
      <trkpt lat="48.55941" lon="2.15199">
        <ele>88</ele>
        <time>2021-03-07T12:24:06.745Z</time>
      </trkpt>
      <trkpt lat="48.55941" lon="2.15199">
        <ele>89</ele>
        <time>2021-03-07T12:24:07.746Z</time>
      </trkpt>
      <trkpt lat="48.55941" lon="2.15199">
        <ele>89</ele>
        <time>2021-03-07T12:24:08.746Z</time>
      </trkpt>
      <trkpt lat="48.55941" lon="2.15196">
        <ele>89</ele>
        <time>2021-03-07T12:24:09.745Z</time>
      </trkpt>
      <trkpt lat="48.55942" lon="2.15194">
        <ele>89</ele>
        <time>2021-03-07T12:24:10.746Z</time>
      </trkpt>
      <trkpt lat="48.55943" lon="2.15191">
        <ele>90</ele>
        <time>2021-03-07T12:24:11.746Z</time>
      </trkpt>
      <trkpt lat="48.55943" lon="2.15188">
        <ele>90</ele>
        <time>2021-03-07T12:24:12.746Z</time>
      </trkpt>
      <trkpt lat="48.55944" lon="2.15186">
        <ele>90</ele>
        <time>2021-03-07T12:24:13.746Z</time>
      </trkpt>
      <trkpt lat="48.55944" lon="2.15184">
        <ele>91</ele>
        <time>2021-03-07T12:24:14.745Z</time>
      </trkpt>
      <trkpt lat="48.55945" lon="2.15182">
        <ele>91</ele>
        <time>2021-03-07T12:24:15.745Z</time>
      </trkpt>
      <trkpt lat="48.55946" lon="2.1518">
        <ele>91</ele>
        <time>2021-03-07T12:24:16.745Z</time>
      </trkpt>
      <trkpt lat="48.55946" lon="2.15178">
        <ele>91</ele>
        <time>2021-03-07T12:24:17.746Z</time>
      </trkpt>
      <trkpt lat="48.55947" lon="2.15177">
        <ele>91</ele>
        <time>2021-03-07T12:24:18.746Z</time>
      </trkpt>
      <trkpt lat="48.55948" lon="2.15176">
        <ele>92</ele>
        <time>2021-03-07T12:24:19.746Z</time>
      </trkpt>
      <trkpt lat="48.55949" lon="2.15175">
        <ele>92</ele>
        <time>2021-03-07T12:24:20.745Z</time>
      </trkpt>
      <trkpt lat="48.55949" lon="2.15174">
        <ele>92</ele>
        <time>2021-03-07T12:24:21.745Z</time>
      </trkpt>
      <trkpt lat="48.55949" lon="2.15172">
        <ele>93</ele>
        <time>2021-03-07T12:24:22.745Z</time>
      </trkpt>
      <trkpt lat="48.5595" lon="2.15171">
        <ele>93</ele>
        <time>2021-03-07T12:24:23.746Z</time>
      </trkpt>
      <trkpt lat="48.5595" lon="2.1517">
        <ele>94</ele>
        <time>2021-03-07T12:24:24.746Z</time>
      </trkpt>
      <trkpt lat="48.55951" lon="2.15169">
        <ele>94</ele>
        <time>2021-03-07T12:24:25.745Z</time>
      </trkpt>
      <trkpt lat="48.55951" lon="2.15168">
        <ele>94</ele>
        <time>2021-03-07T12:24:26.745Z</time>
      </trkpt>
      <trkpt lat="48.55952" lon="2.15166">
        <ele>95</ele>
        <time>2021-03-07T12:24:27.746Z</time>
      </trkpt>
      <trkpt lat="48.55953" lon="2.15165">
        <ele>95</ele>
        <time>2021-03-07T12:24:28.746Z</time>
      </trkpt>
      <trkpt lat="48.55954" lon="2.15164">
        <ele>94</ele>
        <time>2021-03-07T12:24:29.745Z</time>
      </trkpt>
      <trkpt lat="48.55955" lon="2.15162">
        <ele>94</ele>
        <time>2021-03-07T12:24:30.745Z</time>
      </trkpt>
      <trkpt lat="48.55955" lon="2.1516">
        <ele>94</ele>
        <time>2021-03-07T12:24:31.745Z</time>
      </trkpt>
      <trkpt lat="48.55956" lon="2.15159">
        <ele>94</ele>
        <time>2021-03-07T12:24:32.746Z</time>
      </trkpt>
      <trkpt lat="48.55957" lon="2.15157">
        <ele>94</ele>
        <time>2021-03-07T12:24:33.746Z</time>
      </trkpt>
      <trkpt lat="48.55958" lon="2.15155">
        <ele>94</ele>
        <time>2021-03-07T12:24:34.746Z</time>
      </trkpt>
      <trkpt lat="48.55959" lon="2.15154">
        <ele>94</ele>
        <time>2021-03-07T12:24:35.745Z</time>
      </trkpt>
      <trkpt lat="48.5596" lon="2.15151">
        <ele>94</ele>
        <time>2021-03-07T12:24:36.746Z</time>
      </trkpt>
      <trkpt lat="48.55961" lon="2.1515">
        <ele>94</ele>
        <time>2021-03-07T12:24:37.746Z</time>
      </trkpt>
      <trkpt lat="48.55962" lon="2.15149">
        <ele>94</ele>
        <time>2021-03-07T12:24:38.745Z</time>
      </trkpt>
      <trkpt lat="48.55964" lon="2.15148">
        <ele>94</ele>
        <time>2021-03-07T12:24:39.745Z</time>
      </trkpt>
      <trkpt lat="48.55965" lon="2.15147">
        <ele>94</ele>
        <time>2021-03-07T12:24:40.745Z</time>
      </trkpt>
      <trkpt lat="48.55966" lon="2.15145">
        <ele>94</ele>
        <time>2021-03-07T12:24:41.746Z</time>
      </trkpt>
      <trkpt lat="48.55966" lon="2.15143">
        <ele>94</ele>
        <time>2021-03-07T12:24:42.746Z</time>
      </trkpt>
      <trkpt lat="48.55967" lon="2.15142">
        <ele>94</ele>
        <time>2021-03-07T12:24:43.745Z</time>
      </trkpt>
      <trkpt lat="48.55968" lon="2.1514">
        <ele>94</ele>
        <time>2021-03-07T12:24:44.745Z</time>
      </trkpt>
      <trkpt lat="48.55969" lon="2.15138">
        <ele>94</ele>
        <time>2021-03-07T12:24:45.746Z</time>
      </trkpt>
      <trkpt lat="48.5597" lon="2.15136">
        <ele>94</ele>
        <time>2021-03-07T12:24:46.745Z</time>
      </trkpt>
      <trkpt lat="48.5597" lon="2.15134">
        <ele>95</ele>
        <time>2021-03-07T12:24:47.746Z</time>
      </trkpt>
      <trkpt lat="48.55971" lon="2.15132">
        <ele>95</ele>
        <time>2021-03-07T12:24:48.746Z</time>
      </trkpt>
      <trkpt lat="48.55971" lon="2.1513">
        <ele>95</ele>
        <time>2021-03-07T12:24:49.745Z</time>
      </trkpt>
      <trkpt lat="48.55972" lon="2.15128">
        <ele>95</ele>
        <time>2021-03-07T12:24:50.746Z</time>
      </trkpt>
      <trkpt lat="48.55973" lon="2.15124">
        <ele>96</ele>
        <time>2021-03-07T12:24:51.746Z</time>
      </trkpt>
      <trkpt lat="48.55974" lon="2.15121">
        <ele>96</ele>
        <time>2021-03-07T12:24:52.746Z</time>
      </trkpt>
      <trkpt lat="48.55974" lon="2.15118">
        <ele>96</ele>
        <time>2021-03-07T12:24:53.745Z</time>
      </trkpt>
      <trkpt lat="48.55975" lon="2.15115">
        <ele>96</ele>
        <time>2021-03-07T12:24:54.746Z</time>
      </trkpt>
      <trkpt lat="48.55977" lon="2.15112">
        <ele>97</ele>
        <time>2021-03-07T12:24:55.746Z</time>
      </trkpt>
      <trkpt lat="48.55978" lon="2.15108">
        <ele>97</ele>
        <time>2021-03-07T12:24:56.746Z</time>
      </trkpt>
      <trkpt lat="48.5598" lon="2.15104">
        <ele>97</ele>
        <time>2021-03-07T12:24:57.746Z</time>
      </trkpt>
      <trkpt lat="48.55982" lon="2.151">
        <ele>97</ele>
        <time>2021-03-07T12:24:58.746Z</time>
      </trkpt>
      <trkpt lat="48.55984" lon="2.15097">
        <ele>97</ele>
        <time>2021-03-07T12:24:59.746Z</time>
      </trkpt>
      <trkpt lat="48.55986" lon="2.15095">
        <ele>97</ele>
        <time>2021-03-07T12:25:00.746Z</time>
      </trkpt>
      <trkpt lat="48.55988" lon="2.15092">
        <ele>97</ele>
        <time>2021-03-07T12:25:01.746Z</time>
      </trkpt>
      <trkpt lat="48.5599" lon="2.1509">
        <ele>97</ele>
        <time>2021-03-07T12:25:02.745Z</time>
      </trkpt>
      <trkpt lat="48.55991" lon="2.15087">
        <ele>97</ele>
        <time>2021-03-07T12:25:03.746Z</time>
      </trkpt>
      <trkpt lat="48.55993" lon="2.15084">
        <ele>97</ele>
        <time>2021-03-07T12:25:04.746Z</time>
      </trkpt>
      <trkpt lat="48.55995" lon="2.1508">
        <ele>97</ele>
        <time>2021-03-07T12:25:05.746Z</time>
      </trkpt>
      <trkpt lat="48.55997" lon="2.15077">
        <ele>97</ele>
        <time>2021-03-07T12:25:06.746Z</time>
      </trkpt>
      <trkpt lat="48.55998" lon="2.15073">
        <ele>97</ele>
        <time>2021-03-07T12:25:07.745Z</time>
      </trkpt>
      <trkpt lat="48.56" lon="2.1507">
        <ele>97</ele>
        <time>2021-03-07T12:25:08.745Z</time>
      </trkpt>
      <trkpt lat="48.56001" lon="2.15065">
        <ele>97</ele>
        <time>2021-03-07T12:25:09.746Z</time>
      </trkpt>
      <trkpt lat="48.56003" lon="2.15062">
        <ele>98</ele>
        <time>2021-03-07T12:25:10.746Z</time>
      </trkpt>
      <trkpt lat="48.56005" lon="2.15058">
        <ele>98</ele>
        <time>2021-03-07T12:25:11.746Z</time>
      </trkpt>
      <trkpt lat="48.56006" lon="2.15053">
        <ele>98</ele>
        <time>2021-03-07T12:25:12.746Z</time>
      </trkpt>
      <trkpt lat="48.56007" lon="2.15049">
        <ele>98</ele>
        <time>2021-03-07T12:25:13.746Z</time>
      </trkpt>
      <trkpt lat="48.56009" lon="2.15045">
        <ele>98</ele>
        <time>2021-03-07T12:25:14.746Z</time>
      </trkpt>
      <trkpt lat="48.5601" lon="2.1504">
        <ele>98</ele>
        <time>2021-03-07T12:25:15.746Z</time>
      </trkpt>
      <trkpt lat="48.56011" lon="2.15034">
        <ele>99</ele>
        <time>2021-03-07T12:25:16.746Z</time>
      </trkpt>
      <trkpt lat="48.56012" lon="2.1503">
        <ele>99</ele>
        <time>2021-03-07T12:25:17.745Z</time>
      </trkpt>
      <trkpt lat="48.56014" lon="2.15025">
        <ele>99</ele>
        <time>2021-03-07T12:25:18.745Z</time>
      </trkpt>
      <trkpt lat="48.56017" lon="2.15022">
        <ele>99</ele>
        <time>2021-03-07T12:25:19.746Z</time>
      </trkpt>
      <trkpt lat="48.56018" lon="2.15018">
        <ele>99</ele>
        <time>2021-03-07T12:25:20.746Z</time>
      </trkpt>
      <trkpt lat="48.5602" lon="2.15015">
        <ele>99</ele>
        <time>2021-03-07T12:25:21.746Z</time>
      </trkpt>
      <trkpt lat="48.56022" lon="2.15011">
        <ele>99</ele>
        <time>2021-03-07T12:25:22.746Z</time>
      </trkpt>
      <trkpt lat="48.56024" lon="2.15006">
        <ele>99</ele>
        <time>2021-03-07T12:25:23.746Z</time>
      </trkpt>
      <trkpt lat="48.56025" lon="2.15002">
        <ele>99</ele>
        <time>2021-03-07T12:25:24.746Z</time>
      </trkpt>
      <trkpt lat="48.56027" lon="2.14999">
        <ele>99</ele>
        <time>2021-03-07T12:25:25.746Z</time>
      </trkpt>
      <trkpt lat="48.56028" lon="2.14995">
        <ele>99</ele>
        <time>2021-03-07T12:25:26.746Z</time>
      </trkpt>
      <trkpt lat="48.5603" lon="2.14991">
        <ele>100</ele>
        <time>2021-03-07T12:25:27.746Z</time>
      </trkpt>
      <trkpt lat="48.56032" lon="2.14988">
        <ele>100</ele>
        <time>2021-03-07T12:25:28.746Z</time>
      </trkpt>
      <trkpt lat="48.56034" lon="2.14984">
        <ele>100</ele>
        <time>2021-03-07T12:25:29.746Z</time>
      </trkpt>
      <trkpt lat="48.56037" lon="2.1498">
        <ele>100</ele>
        <time>2021-03-07T12:25:30.746Z</time>
      </trkpt>
      <trkpt lat="48.56039" lon="2.14976">
        <ele>101</ele>
        <time>2021-03-07T12:25:31.745Z</time>
      </trkpt>
      <trkpt lat="48.56041" lon="2.14973">
        <ele>101</ele>
        <time>2021-03-07T12:25:32.746Z</time>
      </trkpt>
      <trkpt lat="48.56043" lon="2.14969">
        <ele>101</ele>
        <time>2021-03-07T12:25:33.746Z</time>
      </trkpt>
      <trkpt lat="48.56044" lon="2.14966">
        <ele>101</ele>
        <time>2021-03-07T12:25:34.746Z</time>
      </trkpt>
      <trkpt lat="48.56047" lon="2.14962">
        <ele>101</ele>
        <time>2021-03-07T12:25:35.746Z</time>
      </trkpt>
      <trkpt lat="48.56049" lon="2.14959">
        <ele>102</ele>
        <time>2021-03-07T12:25:36.746Z</time>
      </trkpt>
      <trkpt lat="48.56051" lon="2.14955">
        <ele>102</ele>
        <time>2021-03-07T12:25:37.746Z</time>
      </trkpt>
      <trkpt lat="48.56054" lon="2.14952">
        <ele>102</ele>
        <time>2021-03-07T12:25:38.745Z</time>
      </trkpt>
      <trkpt lat="48.56057" lon="2.14947">
        <ele>102</ele>
        <time>2021-03-07T12:25:39.745Z</time>
      </trkpt>
      <trkpt lat="48.5606" lon="2.14942">
        <ele>102</ele>
        <time>2021-03-07T12:25:40.746Z</time>
      </trkpt>
      <trkpt lat="48.56061" lon="2.14937">
        <ele>102</ele>
        <time>2021-03-07T12:25:41.746Z</time>
      </trkpt>
      <trkpt lat="48.56063" lon="2.14934">
        <ele>102</ele>
        <time>2021-03-07T12:25:42.746Z</time>
      </trkpt>
      <trkpt lat="48.56065" lon="2.14931">
        <ele>102</ele>
        <time>2021-03-07T12:25:43.745Z</time>
      </trkpt>
      <trkpt lat="48.56067" lon="2.14928">
        <ele>102</ele>
        <time>2021-03-07T12:25:44.745Z</time>
      </trkpt>
      <trkpt lat="48.56069" lon="2.14925">
        <ele>102</ele>
        <time>2021-03-07T12:25:45.746Z</time>
      </trkpt>
      <trkpt lat="48.56071" lon="2.14922">
        <ele>102</ele>
        <time>2021-03-07T12:25:46.746Z</time>
      </trkpt>
      <trkpt lat="48.56072" lon="2.1492">
        <ele>102</ele>
        <time>2021-03-07T12:25:47.746Z</time>
      </trkpt>
      <trkpt lat="48.56073" lon="2.14917">
        <ele>103</ele>
        <time>2021-03-07T12:25:48.746Z</time>
      </trkpt>
      <trkpt lat="48.56073" lon="2.14916">
        <ele>103</ele>
        <time>2021-03-07T12:25:49.745Z</time>
      </trkpt>
      <trkpt lat="48.56074" lon="2.14915">
        <ele>103</ele>
        <time>2021-03-07T12:25:50.745Z</time>
      </trkpt>
      <trkpt lat="48.56075" lon="2.14913">
        <ele>103</ele>
        <time>2021-03-07T12:25:51.746Z</time>
      </trkpt>
      <trkpt lat="48.56076" lon="2.14912">
        <ele>103</ele>
        <time>2021-03-07T12:25:52.746Z</time>
      </trkpt>
      <trkpt lat="48.56077" lon="2.14911">
        <ele>103</ele>
        <time>2021-03-07T12:25:53.746Z</time>
      </trkpt>
      <trkpt lat="48.56078" lon="2.14911">
        <ele>103</ele>
        <time>2021-03-07T12:25:54.746Z</time>
      </trkpt>
      <trkpt lat="48.56078" lon="2.14912">
        <ele>103</ele>
        <time>2021-03-07T12:25:55.746Z</time>
      </trkpt>
      <trkpt lat="48.56079" lon="2.14912">
        <ele>104</ele>
        <time>2021-03-07T12:25:56.745Z</time>
      </trkpt>
      <trkpt lat="48.5608" lon="2.14912">
        <ele>104</ele>
        <time>2021-03-07T12:25:57.746Z</time>
      </trkpt>
      <trkpt lat="48.56081" lon="2.14911">
        <ele>104</ele>
        <time>2021-03-07T12:25:58.746Z</time>
      </trkpt>
      <trkpt lat="48.56082" lon="2.1491">
        <ele>104</ele>
        <time>2021-03-07T12:25:59.745Z</time>
      </trkpt>
      <trkpt lat="48.56082" lon="2.14908">
        <ele>105</ele>
        <time>2021-03-07T12:26:00.746Z</time>
      </trkpt>
      <trkpt lat="48.56083" lon="2.14906">
        <ele>105</ele>
        <time>2021-03-07T12:26:01.746Z</time>
      </trkpt>
      <trkpt lat="48.56083" lon="2.14904">
        <ele>105</ele>
        <time>2021-03-07T12:26:02.746Z</time>
      </trkpt>
      <trkpt lat="48.56084" lon="2.14903">
        <ele>105</ele>
        <time>2021-03-07T12:26:03.745Z</time>
      </trkpt>
      <trkpt lat="48.56084" lon="2.149">
        <ele>105</ele>
        <time>2021-03-07T12:26:04.746Z</time>
      </trkpt>
      <trkpt lat="48.56084" lon="2.14898">
        <ele>105</ele>
        <time>2021-03-07T12:26:05.746Z</time>
      </trkpt>
      <trkpt lat="48.56084" lon="2.14895">
        <ele>105</ele>
        <time>2021-03-07T12:26:06.746Z</time>
      </trkpt>
      <trkpt lat="48.56083" lon="2.14892">
        <ele>105</ele>
        <time>2021-03-07T12:26:07.745Z</time>
      </trkpt>
      <trkpt lat="48.56084" lon="2.14889">
        <ele>106</ele>
        <time>2021-03-07T12:26:08.745Z</time>
      </trkpt>
      <trkpt lat="48.56085" lon="2.14887">
        <ele>106</ele>
        <time>2021-03-07T12:26:09.745Z</time>
      </trkpt>
      <trkpt lat="48.56085" lon="2.14885">
        <ele>106</ele>
        <time>2021-03-07T12:26:10.745Z</time>
      </trkpt>
      <trkpt lat="48.56086" lon="2.14882">
        <ele>106</ele>
        <time>2021-03-07T12:26:11.746Z</time>
      </trkpt>
      <trkpt lat="48.56086" lon="2.14881">
        <ele>107</ele>
        <time>2021-03-07T12:26:12.746Z</time>
      </trkpt>
      <trkpt lat="48.56087" lon="2.14878">
        <ele>107</ele>
        <time>2021-03-07T12:26:13.746Z</time>
      </trkpt>
      <trkpt lat="48.56087" lon="2.14876">
        <ele>107</ele>
        <time>2021-03-07T12:26:14.745Z</time>
      </trkpt>
      <trkpt lat="48.56087" lon="2.14873">
        <ele>107</ele>
        <time>2021-03-07T12:26:15.745Z</time>
      </trkpt>
      <trkpt lat="48.56088" lon="2.1487">
        <ele>107</ele>
        <time>2021-03-07T12:26:16.745Z</time>
      </trkpt>
      <trkpt lat="48.56089" lon="2.14869">
        <ele>107</ele>
        <time>2021-03-07T12:26:17.746Z</time>
      </trkpt>
      <trkpt lat="48.5609" lon="2.14867">
        <ele>107</ele>
        <time>2021-03-07T12:26:18.746Z</time>
      </trkpt>
      <trkpt lat="48.5609" lon="2.14866">
        <ele>108</ele>
        <time>2021-03-07T12:26:19.745Z</time>
      </trkpt>
      <trkpt lat="48.56091" lon="2.14864">
        <ele>108</ele>
        <time>2021-03-07T12:26:20.745Z</time>
      </trkpt>
      <trkpt lat="48.56091" lon="2.14862">
        <ele>108</ele>
        <time>2021-03-07T12:26:21.745Z</time>
      </trkpt>
      <trkpt lat="48.56091" lon="2.14861">
        <ele>108</ele>
        <time>2021-03-07T12:26:22.745Z</time>
      </trkpt>
      <trkpt lat="48.56092" lon="2.1486">
        <ele>108</ele>
        <time>2021-03-07T12:26:23.745Z</time>
      </trkpt>
      <trkpt lat="48.56092" lon="2.14859">
        <ele>108</ele>
        <time>2021-03-07T12:26:24.745Z</time>
      </trkpt>
      <trkpt lat="48.56092" lon="2.14857">
        <ele>108</ele>
        <time>2021-03-07T12:26:25.746Z</time>
      </trkpt>
      <trkpt lat="48.56091" lon="2.14856">
        <ele>108</ele>
        <time>2021-03-07T12:26:26.746Z</time>
      </trkpt>
      <trkpt lat="48.5609" lon="2.14855">
        <ele>108</ele>
        <time>2021-03-07T12:26:27.746Z</time>
      </trkpt>
      <trkpt lat="48.5609" lon="2.14852">
        <ele>108</ele>
        <time>2021-03-07T12:26:28.745Z</time>
      </trkpt>
      <trkpt lat="48.5609" lon="2.1485">
        <ele>108</ele>
        <time>2021-03-07T12:26:29.746Z</time>
      </trkpt>
      <trkpt lat="48.5609" lon="2.14847">
        <ele>107</ele>
        <time>2021-03-07T12:26:30.746Z</time>
      </trkpt>
      <trkpt lat="48.56092" lon="2.14845">
        <ele>107</ele>
        <time>2021-03-07T12:26:31.745Z</time>
      </trkpt>
      <trkpt lat="48.56093" lon="2.14844">
        <ele>107</ele>
        <time>2021-03-07T12:26:32.746Z</time>
      </trkpt>
      <trkpt lat="48.56094" lon="2.14842">
        <ele>106</ele>
        <time>2021-03-07T12:26:33.746Z</time>
      </trkpt>
      <trkpt lat="48.56095" lon="2.14841">
        <ele>106</ele>
        <time>2021-03-07T12:26:34.746Z</time>
      </trkpt>
      <trkpt lat="48.56096" lon="2.14839">
        <ele>106</ele>
        <time>2021-03-07T12:26:35.746Z</time>
      </trkpt>
      <trkpt lat="48.56097" lon="2.14837">
        <ele>106</ele>
        <time>2021-03-07T12:26:36.746Z</time>
      </trkpt>
      <trkpt lat="48.56098" lon="2.14835">
        <ele>106</ele>
        <time>2021-03-07T12:26:37.746Z</time>
      </trkpt>
      <trkpt lat="48.56099" lon="2.14833">
        <ele>106</ele>
        <time>2021-03-07T12:26:38.746Z</time>
      </trkpt>
      <trkpt lat="48.561" lon="2.14831">
        <ele>105</ele>
        <time>2021-03-07T12:26:39.746Z</time>
      </trkpt>
      <trkpt lat="48.56101" lon="2.14829">
        <ele>105</ele>
        <time>2021-03-07T12:26:40.746Z</time>
      </trkpt>
      <trkpt lat="48.56102" lon="2.14827">
        <ele>105</ele>
        <time>2021-03-07T12:26:41.746Z</time>
      </trkpt>
      <trkpt lat="48.56103" lon="2.14825">
        <ele>105</ele>
        <time>2021-03-07T12:26:42.746Z</time>
      </trkpt>
      <trkpt lat="48.56104" lon="2.14822">
        <ele>105</ele>
        <time>2021-03-07T12:26:43.745Z</time>
      </trkpt>
      <trkpt lat="48.56105" lon="2.14819">
        <ele>106</ele>
        <time>2021-03-07T12:26:44.745Z</time>
      </trkpt>
      <trkpt lat="48.56107" lon="2.14816">
        <ele>106</ele>
        <time>2021-03-07T12:26:45.746Z</time>
      </trkpt>
      <trkpt lat="48.56109" lon="2.14812">
        <ele>106</ele>
        <time>2021-03-07T12:26:46.746Z</time>
      </trkpt>
      <trkpt lat="48.5611" lon="2.14808">
        <ele>106</ele>
        <time>2021-03-07T12:26:47.745Z</time>
      </trkpt>
      <trkpt lat="48.56112" lon="2.14803">
        <ele>106</ele>
        <time>2021-03-07T12:26:48.746Z</time>
      </trkpt>
      <trkpt lat="48.56114" lon="2.14799">
        <ele>105</ele>
        <time>2021-03-07T12:26:49.746Z</time>
      </trkpt>
      <trkpt lat="48.56116" lon="2.14794">
        <ele>105</ele>
        <time>2021-03-07T12:26:50.746Z</time>
      </trkpt>
      <trkpt lat="48.56118" lon="2.14789">
        <ele>105</ele>
        <time>2021-03-07T12:26:51.746Z</time>
      </trkpt>
      <trkpt lat="48.5612" lon="2.14783">
        <ele>105</ele>
        <time>2021-03-07T12:26:52.746Z</time>
      </trkpt>
      <trkpt lat="48.56122" lon="2.14778">
        <ele>105</ele>
        <time>2021-03-07T12:26:53.745Z</time>
      </trkpt>
      <trkpt lat="48.56124" lon="2.14773">
        <ele>105</ele>
        <time>2021-03-07T12:26:54.746Z</time>
      </trkpt>
      <trkpt lat="48.56127" lon="2.14769">
        <ele>105</ele>
        <time>2021-03-07T12:26:55.746Z</time>
      </trkpt>
      <trkpt lat="48.5613" lon="2.14764">
        <ele>105</ele>
        <time>2021-03-07T12:26:56.746Z</time>
      </trkpt>
      <trkpt lat="48.56134" lon="2.14759">
        <ele>106</ele>
        <time>2021-03-07T12:26:57.746Z</time>
      </trkpt>
      <trkpt lat="48.56136" lon="2.14753">
        <ele>106</ele>
        <time>2021-03-07T12:26:58.746Z</time>
      </trkpt>
      <trkpt lat="48.56138" lon="2.14747">
        <ele>106</ele>
        <time>2021-03-07T12:26:59.746Z</time>
      </trkpt>
      <trkpt lat="48.56141" lon="2.14741">
        <ele>106</ele>
        <time>2021-03-07T12:27:00.746Z</time>
      </trkpt>
      <trkpt lat="48.56143" lon="2.14735">
        <ele>106</ele>
        <time>2021-03-07T12:27:01.746Z</time>
      </trkpt>
      <trkpt lat="48.56145" lon="2.1473">
        <ele>106</ele>
        <time>2021-03-07T12:27:02.745Z</time>
      </trkpt>
      <trkpt lat="48.56147" lon="2.14725">
        <ele>106</ele>
        <time>2021-03-07T12:27:03.745Z</time>
      </trkpt>
      <trkpt lat="48.56147" lon="2.14719">
        <ele>106</ele>
        <time>2021-03-07T12:27:04.746Z</time>
      </trkpt>
      <trkpt lat="48.56148" lon="2.14714">
        <ele>106</ele>
        <time>2021-03-07T12:27:05.746Z</time>
      </trkpt>
      <trkpt lat="48.5615" lon="2.14709">
        <ele>106</ele>
        <time>2021-03-07T12:27:06.746Z</time>
      </trkpt>
      <trkpt lat="48.56152" lon="2.14705">
        <ele>106</ele>
        <time>2021-03-07T12:27:07.746Z</time>
      </trkpt>
      <trkpt lat="48.56155" lon="2.147">
        <ele>107</ele>
        <time>2021-03-07T12:27:08.746Z</time>
      </trkpt>
      <trkpt lat="48.56157" lon="2.14696">
        <ele>107</ele>
        <time>2021-03-07T12:27:09.746Z</time>
      </trkpt>
      <trkpt lat="48.5616" lon="2.14692">
        <ele>108</ele>
        <time>2021-03-07T12:27:10.746Z</time>
      </trkpt>
      <trkpt lat="48.56162" lon="2.14687">
        <ele>108</ele>
        <time>2021-03-07T12:27:11.746Z</time>
      </trkpt>
      <trkpt lat="48.56166" lon="2.14682">
        <ele>109</ele>
        <time>2021-03-07T12:27:12.746Z</time>
      </trkpt>
      <trkpt lat="48.56168" lon="2.14677">
        <ele>109</ele>
        <time>2021-03-07T12:27:13.746Z</time>
      </trkpt>
      <trkpt lat="48.56171" lon="2.14673">
        <ele>109</ele>
        <time>2021-03-07T12:27:14.746Z</time>
      </trkpt>
      <trkpt lat="48.56173" lon="2.14669">
        <ele>110</ele>
        <time>2021-03-07T12:27:15.746Z</time>
      </trkpt>
      <trkpt lat="48.56175" lon="2.14665">
        <ele>110</ele>
        <time>2021-03-07T12:27:16.746Z</time>
      </trkpt>
      <trkpt lat="48.56176" lon="2.14659">
        <ele>110</ele>
        <time>2021-03-07T12:27:17.746Z</time>
      </trkpt>
      <trkpt lat="48.56179" lon="2.14652">
        <ele>110</ele>
        <time>2021-03-07T12:27:18.746Z</time>
      </trkpt>
      <trkpt lat="48.56182" lon="2.14644">
        <ele>111</ele>
        <time>2021-03-07T12:27:19.746Z</time>
      </trkpt>
      <trkpt lat="48.56185" lon="2.14639">
        <ele>111</ele>
        <time>2021-03-07T12:27:20.746Z</time>
      </trkpt>
      <trkpt lat="48.56187" lon="2.14634">
        <ele>112</ele>
        <time>2021-03-07T12:27:21.746Z</time>
      </trkpt>
      <trkpt lat="48.56189" lon="2.14629">
        <ele>112</ele>
        <time>2021-03-07T12:27:22.746Z</time>
      </trkpt>
      <trkpt lat="48.56192" lon="2.14623">
        <ele>113</ele>
        <time>2021-03-07T12:27:23.746Z</time>
      </trkpt>
      <trkpt lat="48.56194" lon="2.14617">
        <ele>113</ele>
        <time>2021-03-07T12:27:24.746Z</time>
      </trkpt>
      <trkpt lat="48.56197" lon="2.14612">
        <ele>113</ele>
        <time>2021-03-07T12:27:25.746Z</time>
      </trkpt>
      <trkpt lat="48.56199" lon="2.14607">
        <ele>114</ele>
        <time>2021-03-07T12:27:26.746Z</time>
      </trkpt>
      <trkpt lat="48.56202" lon="2.14602">
        <ele>114</ele>
        <time>2021-03-07T12:27:27.746Z</time>
      </trkpt>
      <trkpt lat="48.56205" lon="2.14597">
        <ele>114</ele>
        <time>2021-03-07T12:27:28.746Z</time>
      </trkpt>
      <trkpt lat="48.56208" lon="2.14592">
        <ele>114</ele>
        <time>2021-03-07T12:27:29.746Z</time>
      </trkpt>
      <trkpt lat="48.56211" lon="2.14587">
        <ele>115</ele>
        <time>2021-03-07T12:27:30.746Z</time>
      </trkpt>
      <trkpt lat="48.56214" lon="2.14583">
        <ele>115</ele>
        <time>2021-03-07T12:27:31.746Z</time>
      </trkpt>
      <trkpt lat="48.56215" lon="2.14578">
        <ele>115</ele>
        <time>2021-03-07T12:27:32.746Z</time>
      </trkpt>
      <trkpt lat="48.56217" lon="2.14574">
        <ele>115</ele>
        <time>2021-03-07T12:27:33.746Z</time>
      </trkpt>
      <trkpt lat="48.56218" lon="2.1457">
        <ele>116</ele>
        <time>2021-03-07T12:27:34.746Z</time>
      </trkpt>
      <trkpt lat="48.56219" lon="2.14566">
        <ele>116</ele>
        <time>2021-03-07T12:27:35.745Z</time>
      </trkpt>
      <trkpt lat="48.56221" lon="2.14559">
        <ele>116</ele>
        <time>2021-03-07T12:27:36.745Z</time>
      </trkpt>
      <trkpt lat="48.56224" lon="2.14555">
        <ele>117</ele>
        <time>2021-03-07T12:27:37.745Z</time>
      </trkpt>
      <trkpt lat="48.56226" lon="2.14552">
        <ele>117</ele>
        <time>2021-03-07T12:27:38.746Z</time>
      </trkpt>
      <trkpt lat="48.56227" lon="2.14548">
        <ele>117</ele>
        <time>2021-03-07T12:27:39.746Z</time>
      </trkpt>
      <trkpt lat="48.56228" lon="2.14545">
        <ele>118</ele>
        <time>2021-03-07T12:27:40.746Z</time>
      </trkpt>
      <trkpt lat="48.5623" lon="2.14542">
        <ele>118</ele>
        <time>2021-03-07T12:27:41.745Z</time>
      </trkpt>
      <trkpt lat="48.56231" lon="2.14538">
        <ele>118</ele>
        <time>2021-03-07T12:27:42.746Z</time>
      </trkpt>
      <trkpt lat="48.56232" lon="2.14534">
        <ele>118</ele>
        <time>2021-03-07T12:27:43.746Z</time>
      </trkpt>
      <trkpt lat="48.56234" lon="2.1453">
        <ele>118</ele>
        <time>2021-03-07T12:27:44.746Z</time>
      </trkpt>
      <trkpt lat="48.56235" lon="2.14525">
        <ele>118</ele>
        <time>2021-03-07T12:27:45.745Z</time>
      </trkpt>
      <trkpt lat="48.56237" lon="2.14521">
        <ele>119</ele>
        <time>2021-03-07T12:27:46.745Z</time>
      </trkpt>
      <trkpt lat="48.56238" lon="2.14517">
        <ele>119</ele>
        <time>2021-03-07T12:27:47.746Z</time>
      </trkpt>
      <trkpt lat="48.56239" lon="2.14513">
        <ele>119</ele>
        <time>2021-03-07T12:27:48.746Z</time>
      </trkpt>
      <trkpt lat="48.5624" lon="2.14509">
        <ele>119</ele>
        <time>2021-03-07T12:27:49.746Z</time>
      </trkpt>
      <trkpt lat="48.5624" lon="2.14504">
        <ele>119</ele>
        <time>2021-03-07T12:27:50.746Z</time>
      </trkpt>
      <trkpt lat="48.56242" lon="2.14499">
        <ele>119</ele>
        <time>2021-03-07T12:27:51.746Z</time>
      </trkpt>
      <trkpt lat="48.56243" lon="2.14494">
        <ele>119</ele>
        <time>2021-03-07T12:27:52.746Z</time>
      </trkpt>
      <trkpt lat="48.56244" lon="2.14489">
        <ele>119</ele>
        <time>2021-03-07T12:27:53.746Z</time>
      </trkpt>
      <trkpt lat="48.56245" lon="2.14484">
        <ele>119</ele>
        <time>2021-03-07T12:27:54.746Z</time>
      </trkpt>
      <trkpt lat="48.56247" lon="2.14479">
        <ele>118</ele>
        <time>2021-03-07T12:27:55.745Z</time>
      </trkpt>
      <trkpt lat="48.56248" lon="2.14474">
        <ele>118</ele>
        <time>2021-03-07T12:27:56.745Z</time>
      </trkpt>
      <trkpt lat="48.56249" lon="2.1447">
        <ele>118</ele>
        <time>2021-03-07T12:27:57.745Z</time>
      </trkpt>
      <trkpt lat="48.56249" lon="2.14466">
        <ele>118</ele>
        <time>2021-03-07T12:27:58.745Z</time>
      </trkpt>
      <trkpt lat="48.56251" lon="2.14461">
        <ele>118</ele>
        <time>2021-03-07T12:27:59.746Z</time>
      </trkpt>
      <trkpt lat="48.56252" lon="2.14456">
        <ele>118</ele>
        <time>2021-03-07T12:28:00.745Z</time>
      </trkpt>
      <trkpt lat="48.56254" lon="2.1445">
        <ele>118</ele>
        <time>2021-03-07T12:28:01.746Z</time>
      </trkpt>
      <trkpt lat="48.56255" lon="2.14445">
        <ele>118</ele>
        <time>2021-03-07T12:28:02.746Z</time>
      </trkpt>
      <trkpt lat="48.56255" lon="2.1444">
        <ele>118</ele>
        <time>2021-03-07T12:28:03.746Z</time>
      </trkpt>
      <trkpt lat="48.56255" lon="2.14435">
        <ele>118</ele>
        <time>2021-03-07T12:28:04.745Z</time>
      </trkpt>
      <trkpt lat="48.56256" lon="2.14431">
        <ele>118</ele>
        <time>2021-03-07T12:28:05.745Z</time>
      </trkpt>
      <trkpt lat="48.56256" lon="2.14425">
        <ele>117</ele>
        <time>2021-03-07T12:28:06.746Z</time>
      </trkpt>
      <trkpt lat="48.56256" lon="2.1442">
        <ele>117</ele>
        <time>2021-03-07T12:28:07.746Z</time>
      </trkpt>
      <trkpt lat="48.56257" lon="2.14414">
        <ele>117</ele>
        <time>2021-03-07T12:28:08.746Z</time>
      </trkpt>
      <trkpt lat="48.56257" lon="2.14409">
        <ele>117</ele>
        <time>2021-03-07T12:28:09.746Z</time>
      </trkpt>
      <trkpt lat="48.56258" lon="2.14405">
        <ele>116</ele>
        <time>2021-03-07T12:28:10.745Z</time>
      </trkpt>
      <trkpt lat="48.56258" lon="2.14401">
        <ele>116</ele>
        <time>2021-03-07T12:28:11.745Z</time>
      </trkpt>
      <trkpt lat="48.56259" lon="2.14397">
        <ele>116</ele>
        <time>2021-03-07T12:28:12.746Z</time>
      </trkpt>
      <trkpt lat="48.56258" lon="2.14392">
        <ele>116</ele>
        <time>2021-03-07T12:28:13.746Z</time>
      </trkpt>
      <trkpt lat="48.56258" lon="2.14387">
        <ele>116</ele>
        <time>2021-03-07T12:28:14.746Z</time>
      </trkpt>
      <trkpt lat="48.56259" lon="2.14382">
        <ele>116</ele>
        <time>2021-03-07T12:28:15.746Z</time>
      </trkpt>
      <trkpt lat="48.56261" lon="2.14377">
        <ele>116</ele>
        <time>2021-03-07T12:28:16.746Z</time>
      </trkpt>
      <trkpt lat="48.56262" lon="2.14372">
        <ele>116</ele>
        <time>2021-03-07T12:28:17.746Z</time>
      </trkpt>
      <trkpt lat="48.56262" lon="2.14368">
        <ele>116</ele>
        <time>2021-03-07T12:28:18.746Z</time>
      </trkpt>
      <trkpt lat="48.56264" lon="2.14363">
        <ele>116</ele>
        <time>2021-03-07T12:28:19.746Z</time>
      </trkpt>
      <trkpt lat="48.56266" lon="2.14358">
        <ele>116</ele>
        <time>2021-03-07T12:28:20.746Z</time>
      </trkpt>
      <trkpt lat="48.56266" lon="2.14354">
        <ele>116</ele>
        <time>2021-03-07T12:28:21.746Z</time>
      </trkpt>
      <trkpt lat="48.56266" lon="2.14351">
        <ele>116</ele>
        <time>2021-03-07T12:28:22.746Z</time>
      </trkpt>
      <trkpt lat="48.56267" lon="2.14346">
        <ele>116</ele>
        <time>2021-03-07T12:28:23.746Z</time>
      </trkpt>
      <trkpt lat="48.56268" lon="2.14342">
        <ele>115</ele>
        <time>2021-03-07T12:28:24.746Z</time>
      </trkpt>
      <trkpt lat="48.56268" lon="2.14337">
        <ele>115</ele>
        <time>2021-03-07T12:28:25.745Z</time>
      </trkpt>
      <trkpt lat="48.56268" lon="2.14333">
        <ele>115</ele>
        <time>2021-03-07T12:28:26.746Z</time>
      </trkpt>
      <trkpt lat="48.56268" lon="2.1433">
        <ele>115</ele>
        <time>2021-03-07T12:28:27.746Z</time>
      </trkpt>
      <trkpt lat="48.56269" lon="2.14327">
        <ele>115</ele>
        <time>2021-03-07T12:28:28.746Z</time>
      </trkpt>
      <trkpt lat="48.56269" lon="2.14323">
        <ele>115</ele>
        <time>2021-03-07T12:28:29.746Z</time>
      </trkpt>
      <trkpt lat="48.5627" lon="2.1432">
        <ele>115</ele>
        <time>2021-03-07T12:28:30.746Z</time>
      </trkpt>
      <trkpt lat="48.56271" lon="2.14316">
        <ele>115</ele>
        <time>2021-03-07T12:28:31.746Z</time>
      </trkpt>
      <trkpt lat="48.56271" lon="2.14312">
        <ele>115</ele>
        <time>2021-03-07T12:28:32.746Z</time>
      </trkpt>
      <trkpt lat="48.56271" lon="2.14307">
        <ele>115</ele>
        <time>2021-03-07T12:28:33.746Z</time>
      </trkpt>
      <trkpt lat="48.56271" lon="2.14303">
        <ele>114</ele>
        <time>2021-03-07T12:28:34.746Z</time>
      </trkpt>
      <trkpt lat="48.56272" lon="2.14299">
        <ele>114</ele>
        <time>2021-03-07T12:28:35.746Z</time>
      </trkpt>
      <trkpt lat="48.56272" lon="2.14295">
        <ele>114</ele>
        <time>2021-03-07T12:28:36.745Z</time>
      </trkpt>
      <trkpt lat="48.56272" lon="2.14291">
        <ele>114</ele>
        <time>2021-03-07T12:28:37.746Z</time>
      </trkpt>
      <trkpt lat="48.56272" lon="2.14288">
        <ele>114</ele>
        <time>2021-03-07T12:28:38.746Z</time>
      </trkpt>
      <trkpt lat="48.56272" lon="2.14284">
        <ele>114</ele>
        <time>2021-03-07T12:28:39.746Z</time>
      </trkpt>
      <trkpt lat="48.56271" lon="2.14281">
        <ele>113</ele>
        <time>2021-03-07T12:28:40.746Z</time>
      </trkpt>
      <trkpt lat="48.56271" lon="2.14277">
        <ele>113</ele>
        <time>2021-03-07T12:28:41.746Z</time>
      </trkpt>
      <trkpt lat="48.56272" lon="2.14273">
        <ele>113</ele>
        <time>2021-03-07T12:28:42.746Z</time>
      </trkpt>
      <trkpt lat="48.56273" lon="2.14269">
        <ele>113</ele>
        <time>2021-03-07T12:28:43.746Z</time>
      </trkpt>
      <trkpt lat="48.56274" lon="2.14266">
        <ele>112</ele>
        <time>2021-03-07T12:28:44.746Z</time>
      </trkpt>
      <trkpt lat="48.56275" lon="2.14262">
        <ele>112</ele>
        <time>2021-03-07T12:28:45.746Z</time>
      </trkpt>
      <trkpt lat="48.56276" lon="2.14259">
        <ele>111</ele>
        <time>2021-03-07T12:28:46.746Z</time>
      </trkpt>
      <trkpt lat="48.56278" lon="2.14255">
        <ele>111</ele>
        <time>2021-03-07T12:28:47.746Z</time>
      </trkpt>
      <trkpt lat="48.56279" lon="2.14251">
        <ele>111</ele>
        <time>2021-03-07T12:28:48.746Z</time>
      </trkpt>
      <trkpt lat="48.56281" lon="2.14247">
        <ele>111</ele>
        <time>2021-03-07T12:28:49.746Z</time>
      </trkpt>
      <trkpt lat="48.56282" lon="2.14243">
        <ele>111</ele>
        <time>2021-03-07T12:28:50.746Z</time>
      </trkpt>
      <trkpt lat="48.56284" lon="2.14238">
        <ele>111</ele>
        <time>2021-03-07T12:28:51.746Z</time>
      </trkpt>
      <trkpt lat="48.56286" lon="2.14233">
        <ele>111</ele>
        <time>2021-03-07T12:28:52.746Z</time>
      </trkpt>
      <trkpt lat="48.56288" lon="2.14229">
        <ele>111</ele>
        <time>2021-03-07T12:28:53.746Z</time>
      </trkpt>
      <trkpt lat="48.5629" lon="2.14224">
        <ele>111</ele>
        <time>2021-03-07T12:28:54.745Z</time>
      </trkpt>
      <trkpt lat="48.56292" lon="2.14219">
        <ele>111</ele>
        <time>2021-03-07T12:28:55.745Z</time>
      </trkpt>
      <trkpt lat="48.56295" lon="2.14215">
        <ele>111</ele>
        <time>2021-03-07T12:28:56.745Z</time>
      </trkpt>
      <trkpt lat="48.56297" lon="2.14211">
        <ele>111</ele>
        <time>2021-03-07T12:28:57.746Z</time>
      </trkpt>
      <trkpt lat="48.56298" lon="2.14208">
        <ele>111</ele>
        <time>2021-03-07T12:28:58.746Z</time>
      </trkpt>
      <trkpt lat="48.563" lon="2.14205">
        <ele>111</ele>
        <time>2021-03-07T12:28:59.746Z</time>
      </trkpt>
      <trkpt lat="48.56302" lon="2.14201">
        <ele>111</ele>
        <time>2021-03-07T12:29:00.746Z</time>
      </trkpt>
      <trkpt lat="48.56304" lon="2.14197">
        <ele>111</ele>
        <time>2021-03-07T12:29:01.746Z</time>
      </trkpt>
      <trkpt lat="48.56306" lon="2.14194">
        <ele>112</ele>
        <time>2021-03-07T12:29:02.746Z</time>
      </trkpt>
      <trkpt lat="48.56307" lon="2.1419">
        <ele>112</ele>
        <time>2021-03-07T12:29:03.746Z</time>
      </trkpt>
      <trkpt lat="48.56309" lon="2.14187">
        <ele>112</ele>
        <time>2021-03-07T12:29:04.746Z</time>
      </trkpt>
      <trkpt lat="48.56311" lon="2.14183">
        <ele>112</ele>
        <time>2021-03-07T12:29:05.746Z</time>
      </trkpt>
      <trkpt lat="48.56313" lon="2.1418">
        <ele>112</ele>
        <time>2021-03-07T12:29:06.745Z</time>
      </trkpt>
      <trkpt lat="48.56316" lon="2.14177">
        <ele>112</ele>
        <time>2021-03-07T12:29:07.745Z</time>
      </trkpt>
      <trkpt lat="48.56318" lon="2.14175">
        <ele>112</ele>
        <time>2021-03-07T12:29:08.746Z</time>
      </trkpt>
      <trkpt lat="48.5632" lon="2.14172">
        <ele>113</ele>
        <time>2021-03-07T12:29:09.746Z</time>
      </trkpt>
      <trkpt lat="48.56322" lon="2.1417">
        <ele>113</ele>
        <time>2021-03-07T12:29:10.746Z</time>
      </trkpt>
      <trkpt lat="48.56324" lon="2.14167">
        <ele>113</ele>
        <time>2021-03-07T12:29:11.746Z</time>
      </trkpt>
      <trkpt lat="48.56326" lon="2.14165">
        <ele>113</ele>
        <time>2021-03-07T12:29:12.746Z</time>
      </trkpt>
      <trkpt lat="48.56328" lon="2.14163">
        <ele>113</ele>
        <time>2021-03-07T12:29:13.745Z</time>
      </trkpt>
      <trkpt lat="48.5633" lon="2.14161">
        <ele>113</ele>
        <time>2021-03-07T12:29:14.745Z</time>
      </trkpt>
      <trkpt lat="48.56332" lon="2.14158">
        <ele>113</ele>
        <time>2021-03-07T12:29:15.745Z</time>
      </trkpt>
      <trkpt lat="48.56334" lon="2.14156">
        <ele>113</ele>
        <time>2021-03-07T12:29:16.746Z</time>
      </trkpt>
      <trkpt lat="48.56336" lon="2.14153">
        <ele>113</ele>
        <time>2021-03-07T12:29:17.745Z</time>
      </trkpt>
      <trkpt lat="48.56339" lon="2.14149">
        <ele>113</ele>
        <time>2021-03-07T12:29:18.746Z</time>
      </trkpt>
      <trkpt lat="48.56341" lon="2.14146">
        <ele>113</ele>
        <time>2021-03-07T12:29:19.746Z</time>
      </trkpt>
      <trkpt lat="48.56343" lon="2.14142">
        <ele>114</ele>
        <time>2021-03-07T12:29:20.746Z</time>
      </trkpt>
      <trkpt lat="48.56344" lon="2.1414">
        <ele>114</ele>
        <time>2021-03-07T12:29:21.746Z</time>
      </trkpt>
      <trkpt lat="48.56346" lon="2.14138">
        <ele>114</ele>
        <time>2021-03-07T12:29:22.746Z</time>
      </trkpt>
      <trkpt lat="48.56348" lon="2.14136">
        <ele>114</ele>
        <time>2021-03-07T12:29:23.746Z</time>
      </trkpt>
      <trkpt lat="48.56351" lon="2.14133">
        <ele>114</ele>
        <time>2021-03-07T12:29:24.746Z</time>
      </trkpt>
      <trkpt lat="48.56353" lon="2.1413">
        <ele>114</ele>
        <time>2021-03-07T12:29:25.746Z</time>
      </trkpt>
      <trkpt lat="48.56355" lon="2.14128">
        <ele>114</ele>
        <time>2021-03-07T12:29:26.746Z</time>
      </trkpt>
      <trkpt lat="48.56357" lon="2.14125">
        <ele>114</ele>
        <time>2021-03-07T12:29:27.746Z</time>
      </trkpt>
      <trkpt lat="48.5636" lon="2.14122">
        <ele>115</ele>
        <time>2021-03-07T12:29:28.746Z</time>
      </trkpt>
      <trkpt lat="48.56364" lon="2.14117">
        <ele>115</ele>
        <time>2021-03-07T12:29:29.746Z</time>
      </trkpt>
      <trkpt lat="48.56368" lon="2.14112">
        <ele>115</ele>
        <time>2021-03-07T12:29:30.746Z</time>
      </trkpt>
      <trkpt lat="48.56372" lon="2.14107">
        <ele>115</ele>
        <time>2021-03-07T12:29:31.746Z</time>
      </trkpt>
      <trkpt lat="48.56375" lon="2.14103">
        <ele>115</ele>
        <time>2021-03-07T12:29:32.746Z</time>
      </trkpt>
      <trkpt lat="48.56378" lon="2.141">
        <ele>115</ele>
        <time>2021-03-07T12:29:33.745Z</time>
      </trkpt>
      <trkpt lat="48.56382" lon="2.14097">
        <ele>115</ele>
        <time>2021-03-07T12:29:34.746Z</time>
      </trkpt>
      <trkpt lat="48.56386" lon="2.14094">
        <ele>115</ele>
        <time>2021-03-07T12:29:35.746Z</time>
      </trkpt>
      <trkpt lat="48.5639" lon="2.1409">
        <ele>115</ele>
        <time>2021-03-07T12:29:36.746Z</time>
      </trkpt>
      <trkpt lat="48.56394" lon="2.14086">
        <ele>115</ele>
        <time>2021-03-07T12:29:37.746Z</time>
      </trkpt>
      <trkpt lat="48.56397" lon="2.14083">
        <ele>115</ele>
        <time>2021-03-07T12:29:38.746Z</time>
      </trkpt>
      <trkpt lat="48.56401" lon="2.14079">
        <ele>115</ele>
        <time>2021-03-07T12:29:39.746Z</time>
      </trkpt>
      <trkpt lat="48.56405" lon="2.14075">
        <ele>115</ele>
        <time>2021-03-07T12:29:40.746Z</time>
      </trkpt>
      <trkpt lat="48.56409" lon="2.14072">
        <ele>115</ele>
        <time>2021-03-07T12:29:41.746Z</time>
      </trkpt>
      <trkpt lat="48.56413" lon="2.14067">
        <ele>115</ele>
        <time>2021-03-07T12:29:42.746Z</time>
      </trkpt>
      <trkpt lat="48.56417" lon="2.14063">
        <ele>115</ele>
        <time>2021-03-07T12:29:43.746Z</time>
      </trkpt>
      <trkpt lat="48.56421" lon="2.14057">
        <ele>115</ele>
        <time>2021-03-07T12:29:44.746Z</time>
      </trkpt>
      <trkpt lat="48.56427" lon="2.14051">
        <ele>115</ele>
        <time>2021-03-07T12:29:45.745Z</time>
      </trkpt>
      <trkpt lat="48.5643" lon="2.14048">
        <ele>115</ele>
        <time>2021-03-07T12:29:46.745Z</time>
      </trkpt>
      <trkpt lat="48.56434" lon="2.14044">
        <ele>116</ele>
        <time>2021-03-07T12:29:47.746Z</time>
      </trkpt>
      <trkpt lat="48.56437" lon="2.14041">
        <ele>116</ele>
        <time>2021-03-07T12:29:48.746Z</time>
      </trkpt>
      <trkpt lat="48.5644" lon="2.14038">
        <ele>116</ele>
        <time>2021-03-07T12:29:49.746Z</time>
      </trkpt>
      <trkpt lat="48.56444" lon="2.14035">
        <ele>116</ele>
        <time>2021-03-07T12:29:50.746Z</time>
      </trkpt>
      <trkpt lat="48.56448" lon="2.14032">
        <ele>116</ele>
        <time>2021-03-07T12:29:51.745Z</time>
      </trkpt>
      <trkpt lat="48.56453" lon="2.14025">
        <ele>116</ele>
        <time>2021-03-07T12:29:52.745Z</time>
      </trkpt>
      <trkpt lat="48.56458" lon="2.14019">
        <ele>115</ele>
        <time>2021-03-07T12:29:53.746Z</time>
      </trkpt>
      <trkpt lat="48.56463" lon="2.14012">
        <ele>115</ele>
        <time>2021-03-07T12:29:54.746Z</time>
      </trkpt>
      <trkpt lat="48.56468" lon="2.14006">
        <ele>115</ele>
        <time>2021-03-07T12:29:55.745Z</time>
      </trkpt>
      <trkpt lat="48.56474" lon="2.14">
        <ele>114</ele>
        <time>2021-03-07T12:29:56.746Z</time>
      </trkpt>
      <trkpt lat="48.56478" lon="2.13995">
        <ele>114</ele>
        <time>2021-03-07T12:29:57.746Z</time>
      </trkpt>
      <trkpt lat="48.56482" lon="2.1399">
        <ele>113</ele>
        <time>2021-03-07T12:29:58.746Z</time>
      </trkpt>
      <trkpt lat="48.56487" lon="2.13985">
        <ele>113</ele>
        <time>2021-03-07T12:29:59.746Z</time>
      </trkpt>
      <trkpt lat="48.56493" lon="2.13981">
        <ele>112</ele>
        <time>2021-03-07T12:30:00.746Z</time>
      </trkpt>
      <trkpt lat="48.56497" lon="2.13975">
        <ele>112</ele>
        <time>2021-03-07T12:30:01.745Z</time>
      </trkpt>
      <trkpt lat="48.56502" lon="2.1397">
        <ele>112</ele>
        <time>2021-03-07T12:30:02.746Z</time>
      </trkpt>
      <trkpt lat="48.56506" lon="2.13966">
        <ele>111</ele>
        <time>2021-03-07T12:30:03.746Z</time>
      </trkpt>
      <trkpt lat="48.56511" lon="2.13961">
        <ele>111</ele>
        <time>2021-03-07T12:30:04.745Z</time>
      </trkpt>
      <trkpt lat="48.56516" lon="2.13956">
        <ele>111</ele>
        <time>2021-03-07T12:30:05.746Z</time>
      </trkpt>
      <trkpt lat="48.5652" lon="2.13952">
        <ele>111</ele>
        <time>2021-03-07T12:30:06.746Z</time>
      </trkpt>
      <trkpt lat="48.56523" lon="2.13947">
        <ele>111</ele>
        <time>2021-03-07T12:30:07.746Z</time>
      </trkpt>
      <trkpt lat="48.56525" lon="2.13943">
        <ele>111</ele>
        <time>2021-03-07T12:30:08.746Z</time>
      </trkpt>
      <trkpt lat="48.56528" lon="2.13938">
        <ele>111</ele>
        <time>2021-03-07T12:30:09.745Z</time>
      </trkpt>
      <trkpt lat="48.56531" lon="2.13934">
        <ele>111</ele>
        <time>2021-03-07T12:30:10.745Z</time>
      </trkpt>
      <trkpt lat="48.56535" lon="2.13929">
        <ele>111</ele>
        <time>2021-03-07T12:30:11.745Z</time>
      </trkpt>
      <trkpt lat="48.56538" lon="2.13922">
        <ele>111</ele>
        <time>2021-03-07T12:30:12.745Z</time>
      </trkpt>
      <trkpt lat="48.56541" lon="2.13916">
        <ele>111</ele>
        <time>2021-03-07T12:30:13.745Z</time>
      </trkpt>
      <trkpt lat="48.56543" lon="2.13912">
        <ele>111</ele>
        <time>2021-03-07T12:30:14.746Z</time>
      </trkpt>
      <trkpt lat="48.56544" lon="2.13904">
        <ele>110</ele>
        <time>2021-03-07T12:30:15.746Z</time>
      </trkpt>
      <trkpt lat="48.56543" lon="2.13898">
        <ele>110</ele>
        <time>2021-03-07T12:30:16.746Z</time>
      </trkpt>
      <trkpt lat="48.56544" lon="2.13892">
        <ele>110</ele>
        <time>2021-03-07T12:30:17.745Z</time>
      </trkpt>
      <trkpt lat="48.56545" lon="2.13886">
        <ele>110</ele>
        <time>2021-03-07T12:30:18.746Z</time>
      </trkpt>
      <trkpt lat="48.56547" lon="2.1388">
        <ele>110</ele>
        <time>2021-03-07T12:30:19.745Z</time>
      </trkpt>
      <trkpt lat="48.56549" lon="2.13874">
        <ele>110</ele>
        <time>2021-03-07T12:30:20.746Z</time>
      </trkpt>
      <trkpt lat="48.56551" lon="2.13868">
        <ele>110</ele>
        <time>2021-03-07T12:30:21.746Z</time>
      </trkpt>
      <trkpt lat="48.56552" lon="2.13862">
        <ele>110</ele>
        <time>2021-03-07T12:30:22.746Z</time>
      </trkpt>
      <trkpt lat="48.56554" lon="2.13857">
        <ele>110</ele>
        <time>2021-03-07T12:30:23.746Z</time>
      </trkpt>
      <trkpt lat="48.56555" lon="2.13851">
        <ele>110</ele>
        <time>2021-03-07T12:30:24.746Z</time>
      </trkpt>
      <trkpt lat="48.56558" lon="2.13845">
        <ele>110</ele>
        <time>2021-03-07T12:30:25.745Z</time>
      </trkpt>
      <trkpt lat="48.56559" lon="2.1384">
        <ele>110</ele>
        <time>2021-03-07T12:30:26.745Z</time>
      </trkpt>
      <trkpt lat="48.56561" lon="2.13834">
        <ele>109</ele>
        <time>2021-03-07T12:30:27.745Z</time>
      </trkpt>
      <trkpt lat="48.56562" lon="2.13829">
        <ele>109</ele>
        <time>2021-03-07T12:30:28.745Z</time>
      </trkpt>
      <trkpt lat="48.56563" lon="2.13825">
        <ele>109</ele>
        <time>2021-03-07T12:30:29.745Z</time>
      </trkpt>
      <trkpt lat="48.56564" lon="2.1382">
        <ele>108</ele>
        <time>2021-03-07T12:30:30.745Z</time>
      </trkpt>
      <trkpt lat="48.56564" lon="2.13816">
        <ele>108</ele>
        <time>2021-03-07T12:30:31.746Z</time>
      </trkpt>
      <trkpt lat="48.56564" lon="2.13812">
        <ele>107</ele>
        <time>2021-03-07T12:30:32.745Z</time>
      </trkpt>
      <trkpt lat="48.56565" lon="2.13807">
        <ele>107</ele>
        <time>2021-03-07T12:30:33.746Z</time>
      </trkpt>
      <trkpt lat="48.56566" lon="2.13803">
        <ele>107</ele>
        <time>2021-03-07T12:30:34.746Z</time>
      </trkpt>
      <trkpt lat="48.56568" lon="2.13799">
        <ele>107</ele>
        <time>2021-03-07T12:30:35.746Z</time>
      </trkpt>
      <trkpt lat="48.56569" lon="2.13795">
        <ele>106</ele>
        <time>2021-03-07T12:30:36.746Z</time>
      </trkpt>
      <trkpt lat="48.56571" lon="2.13791">
        <ele>106</ele>
        <time>2021-03-07T12:30:37.746Z</time>
      </trkpt>
      <trkpt lat="48.56573" lon="2.13786">
        <ele>106</ele>
        <time>2021-03-07T12:30:38.746Z</time>
      </trkpt>
      <trkpt lat="48.56576" lon="2.13781">
        <ele>106</ele>
        <time>2021-03-07T12:30:39.745Z</time>
      </trkpt>
      <trkpt lat="48.56577" lon="2.13776">
        <ele>105</ele>
        <time>2021-03-07T12:30:40.746Z</time>
      </trkpt>
      <trkpt lat="48.56579" lon="2.13771">
        <ele>105</ele>
        <time>2021-03-07T12:30:41.746Z</time>
      </trkpt>
      <trkpt lat="48.5658" lon="2.13766">
        <ele>105</ele>
        <time>2021-03-07T12:30:42.746Z</time>
      </trkpt>
      <trkpt lat="48.56581" lon="2.13761">
        <ele>105</ele>
        <time>2021-03-07T12:30:43.746Z</time>
      </trkpt>
      <trkpt lat="48.56582" lon="2.13757">
        <ele>105</ele>
        <time>2021-03-07T12:30:44.746Z</time>
      </trkpt>
      <trkpt lat="48.56584" lon="2.13753">
        <ele>105</ele>
        <time>2021-03-07T12:30:45.746Z</time>
      </trkpt>
      <trkpt lat="48.56586" lon="2.13749">
        <ele>105</ele>
        <time>2021-03-07T12:30:46.746Z</time>
      </trkpt>
      <trkpt lat="48.56586" lon="2.13745">
        <ele>104</ele>
        <time>2021-03-07T12:30:47.746Z</time>
      </trkpt>
      <trkpt lat="48.56587" lon="2.13741">
        <ele>104</ele>
        <time>2021-03-07T12:30:48.746Z</time>
      </trkpt>
      <trkpt lat="48.56588" lon="2.13737">
        <ele>103</ele>
        <time>2021-03-07T12:30:49.746Z</time>
      </trkpt>
      <trkpt lat="48.56589" lon="2.13734">
        <ele>103</ele>
        <time>2021-03-07T12:30:50.746Z</time>
      </trkpt>
      <trkpt lat="48.56591" lon="2.1373">
        <ele>102</ele>
        <time>2021-03-07T12:30:51.746Z</time>
      </trkpt>
      <trkpt lat="48.56592" lon="2.13726">
        <ele>101</ele>
        <time>2021-03-07T12:30:52.745Z</time>
      </trkpt>
      <trkpt lat="48.56594" lon="2.13722">
        <ele>101</ele>
        <time>2021-03-07T12:30:53.745Z</time>
      </trkpt>
      <trkpt lat="48.56594" lon="2.13718">
        <ele>101</ele>
        <time>2021-03-07T12:30:54.746Z</time>
      </trkpt>
      <trkpt lat="48.56595" lon="2.13714">
        <ele>100</ele>
        <time>2021-03-07T12:30:55.745Z</time>
      </trkpt>
      <trkpt lat="48.56596" lon="2.1371">
        <ele>100</ele>
        <time>2021-03-07T12:30:56.746Z</time>
      </trkpt>
      <trkpt lat="48.56596" lon="2.13705">
        <ele>100</ele>
        <time>2021-03-07T12:30:57.746Z</time>
      </trkpt>
      <trkpt lat="48.56596" lon="2.13701">
        <ele>99</ele>
        <time>2021-03-07T12:30:58.745Z</time>
      </trkpt>
      <trkpt lat="48.56597" lon="2.13697">
        <ele>99</ele>
        <time>2021-03-07T12:30:59.746Z</time>
      </trkpt>
      <trkpt lat="48.56597" lon="2.13695">
        <ele>98</ele>
        <time>2021-03-07T12:31:00.746Z</time>
      </trkpt>
      <trkpt lat="48.56598" lon="2.13693">
        <ele>98</ele>
        <time>2021-03-07T12:31:01.746Z</time>
      </trkpt>
      <trkpt lat="48.56599" lon="2.13691">
        <ele>97</ele>
        <time>2021-03-07T12:31:02.745Z</time>
      </trkpt>
      <trkpt lat="48.56599" lon="2.13689">
        <ele>97</ele>
        <time>2021-03-07T12:31:03.745Z</time>
      </trkpt>
      <trkpt lat="48.566" lon="2.13686">
        <ele>97</ele>
        <time>2021-03-07T12:31:04.745Z</time>
      </trkpt>
      <trkpt lat="48.566" lon="2.13684">
        <ele>96</ele>
        <time>2021-03-07T12:31:05.746Z</time>
      </trkpt>
      <trkpt lat="48.56601" lon="2.13681">
        <ele>96</ele>
        <time>2021-03-07T12:31:06.746Z</time>
      </trkpt>
      <trkpt lat="48.56601" lon="2.13679">
        <ele>96</ele>
        <time>2021-03-07T12:31:07.745Z</time>
      </trkpt>
      <trkpt lat="48.56602" lon="2.13677">
        <ele>96</ele>
        <time>2021-03-07T12:31:08.746Z</time>
      </trkpt>
      <trkpt lat="48.56603" lon="2.13675">
        <ele>96</ele>
        <time>2021-03-07T12:31:09.745Z</time>
      </trkpt>
      <trkpt lat="48.56603" lon="2.13674">
        <ele>96</ele>
        <time>2021-03-07T12:31:10.746Z</time>
      </trkpt>
      <trkpt lat="48.56604" lon="2.13672">
        <ele>96</ele>
        <time>2021-03-07T12:31:11.746Z</time>
      </trkpt>
      <trkpt lat="48.56604" lon="2.1367">
        <ele>96</ele>
        <time>2021-03-07T12:31:12.745Z</time>
      </trkpt>
      <trkpt lat="48.56603" lon="2.13667">
        <ele>96</ele>
        <time>2021-03-07T12:31:13.746Z</time>
      </trkpt>
      <trkpt lat="48.56603" lon="2.13667">
        <ele>95</ele>
        <time>2021-03-07T12:31:14.746Z</time>
      </trkpt>
      <trkpt lat="48.56604" lon="2.13666">
        <ele>95</ele>
        <time>2021-03-07T12:31:15.746Z</time>
      </trkpt>
      <trkpt lat="48.56604" lon="2.13665">
        <ele>95</ele>
        <time>2021-03-07T12:31:16.746Z</time>
      </trkpt>
      <trkpt lat="48.56605" lon="2.13664">
        <ele>95</ele>
        <time>2021-03-07T12:31:17.745Z</time>
      </trkpt>
      <trkpt lat="48.56605" lon="2.13662">
        <ele>95</ele>
        <time>2021-03-07T12:31:18.745Z</time>
      </trkpt>
      <trkpt lat="48.56606" lon="2.1366">
        <ele>95</ele>
        <time>2021-03-07T12:31:19.745Z</time>
      </trkpt>
      <trkpt lat="48.56606" lon="2.13658">
        <ele>95</ele>
        <time>2021-03-07T12:31:20.745Z</time>
      </trkpt>
      <trkpt lat="48.56607" lon="2.13656">
        <ele>95</ele>
        <time>2021-03-07T12:31:21.745Z</time>
      </trkpt>
      <trkpt lat="48.56607" lon="2.13654">
        <ele>95</ele>
        <time>2021-03-07T12:31:22.746Z</time>
      </trkpt>
      <trkpt lat="48.56607" lon="2.13652">
        <ele>95</ele>
        <time>2021-03-07T12:31:23.746Z</time>
      </trkpt>
      <trkpt lat="48.56607" lon="2.1365">
        <ele>95</ele>
        <time>2021-03-07T12:31:24.745Z</time>
      </trkpt>
      <trkpt lat="48.56608" lon="2.13648">
        <ele>95</ele>
        <time>2021-03-07T12:31:25.746Z</time>
      </trkpt>
      <trkpt lat="48.56608" lon="2.13646">
        <ele>95</ele>
        <time>2021-03-07T12:31:26.746Z</time>
      </trkpt>
      <trkpt lat="48.56609" lon="2.13644">
        <ele>95</ele>
        <time>2021-03-07T12:31:27.745Z</time>
      </trkpt>
      <trkpt lat="48.56609" lon="2.13642">
        <ele>95</ele>
        <time>2021-03-07T12:31:28.746Z</time>
      </trkpt>
      <trkpt lat="48.56609" lon="2.1364">
        <ele>95</ele>
        <time>2021-03-07T12:31:29.746Z</time>
      </trkpt>
      <trkpt lat="48.5661" lon="2.13638">
        <ele>94</ele>
        <time>2021-03-07T12:31:30.746Z</time>
      </trkpt>
      <trkpt lat="48.5661" lon="2.13636">
        <ele>94</ele>
        <time>2021-03-07T12:31:31.746Z</time>
      </trkpt>
      <trkpt lat="48.5661" lon="2.13634">
        <ele>94</ele>
        <time>2021-03-07T12:31:32.746Z</time>
      </trkpt>
      <trkpt lat="48.5661" lon="2.13632">
        <ele>94</ele>
        <time>2021-03-07T12:31:33.746Z</time>
      </trkpt>
      <trkpt lat="48.5661" lon="2.1363">
        <ele>94</ele>
        <time>2021-03-07T12:31:34.746Z</time>
      </trkpt>
      <trkpt lat="48.56609" lon="2.13628">
        <ele>94</ele>
        <time>2021-03-07T12:31:35.746Z</time>
      </trkpt>
      <trkpt lat="48.56609" lon="2.13626">
        <ele>93</ele>
        <time>2021-03-07T12:31:36.746Z</time>
      </trkpt>
      <trkpt lat="48.56609" lon="2.13624">
        <ele>93</ele>
        <time>2021-03-07T12:31:37.745Z</time>
      </trkpt>
      <trkpt lat="48.56609" lon="2.13622">
        <ele>93</ele>
        <time>2021-03-07T12:31:38.745Z</time>
      </trkpt>
      <trkpt lat="48.5661" lon="2.1362">
        <ele>93</ele>
        <time>2021-03-07T12:31:39.746Z</time>
      </trkpt>
      <trkpt lat="48.5661" lon="2.13618">
        <ele>93</ele>
        <time>2021-03-07T12:31:40.746Z</time>
      </trkpt>
      <trkpt lat="48.56609" lon="2.13615">
        <ele>93</ele>
        <time>2021-03-07T12:31:41.746Z</time>
      </trkpt>
      <trkpt lat="48.5661" lon="2.13613">
        <ele>93</ele>
        <time>2021-03-07T12:31:42.745Z</time>
      </trkpt>
      <trkpt lat="48.5661" lon="2.1361">
        <ele>93</ele>
        <time>2021-03-07T12:31:43.746Z</time>
      </trkpt>
      <trkpt lat="48.5661" lon="2.13609">
        <ele>92</ele>
        <time>2021-03-07T12:31:44.746Z</time>
      </trkpt>
      <trkpt lat="48.5661" lon="2.13606">
        <ele>92</ele>
        <time>2021-03-07T12:31:45.746Z</time>
      </trkpt>
      <trkpt lat="48.5661" lon="2.13604">
        <ele>93</ele>
        <time>2021-03-07T12:31:46.746Z</time>
      </trkpt>
      <trkpt lat="48.5661" lon="2.13602">
        <ele>93</ele>
        <time>2021-03-07T12:31:47.746Z</time>
      </trkpt>
      <trkpt lat="48.56611" lon="2.136">
        <ele>93</ele>
        <time>2021-03-07T12:31:48.746Z</time>
      </trkpt>
      <trkpt lat="48.56611" lon="2.13598">
        <ele>93</ele>
        <time>2021-03-07T12:31:49.745Z</time>
      </trkpt>
      <trkpt lat="48.56611" lon="2.13597">
        <ele>93</ele>
        <time>2021-03-07T12:31:50.746Z</time>
      </trkpt>
      <trkpt lat="48.56612" lon="2.13595">
        <ele>93</ele>
        <time>2021-03-07T12:31:51.746Z</time>
      </trkpt>
      <trkpt lat="48.56612" lon="2.13593">
        <ele>93</ele>
        <time>2021-03-07T12:31:52.746Z</time>
      </trkpt>
      <trkpt lat="48.56613" lon="2.13591">
        <ele>93</ele>
        <time>2021-03-07T12:31:53.746Z</time>
      </trkpt>
      <trkpt lat="48.56614" lon="2.13589">
        <ele>92</ele>
        <time>2021-03-07T12:31:54.746Z</time>
      </trkpt>
      <trkpt lat="48.56614" lon="2.13587">
        <ele>92</ele>
        <time>2021-03-07T12:31:55.745Z</time>
      </trkpt>
      <trkpt lat="48.56615" lon="2.13585">
        <ele>92</ele>
        <time>2021-03-07T12:31:56.745Z</time>
      </trkpt>
      <trkpt lat="48.56615" lon="2.13583">
        <ele>92</ele>
        <time>2021-03-07T12:31:57.745Z</time>
      </trkpt>
      <trkpt lat="48.56615" lon="2.13581">
        <ele>92</ele>
        <time>2021-03-07T12:31:58.746Z</time>
      </trkpt>
      <trkpt lat="48.56615" lon="2.1358">
        <ele>93</ele>
        <time>2021-03-07T12:31:59.746Z</time>
      </trkpt>
      <trkpt lat="48.56616" lon="2.13578">
        <ele>92</ele>
        <time>2021-03-07T12:32:00.746Z</time>
      </trkpt>
      <trkpt lat="48.56617" lon="2.13578">
        <ele>92</ele>
        <time>2021-03-07T12:32:01.746Z</time>
      </trkpt>
      <trkpt lat="48.56617" lon="2.13577">
        <ele>92</ele>
        <time>2021-03-07T12:32:02.746Z</time>
      </trkpt>
      <trkpt lat="48.56616" lon="2.13576">
        <ele>92</ele>
        <time>2021-03-07T12:32:03.746Z</time>
      </trkpt>
      <trkpt lat="48.56616" lon="2.13575">
        <ele>92</ele>
        <time>2021-03-07T12:32:04.746Z</time>
      </trkpt>
      <trkpt lat="48.56618" lon="2.13575">
        <ele>92</ele>
        <time>2021-03-07T12:32:05.746Z</time>
      </trkpt>
      <trkpt lat="48.56618" lon="2.13575">
        <ele>92</ele>
        <time>2021-03-07T12:32:06.746Z</time>
      </trkpt>
      <trkpt lat="48.56619" lon="2.13575">
        <ele>92</ele>
        <time>2021-03-07T12:32:07.746Z</time>
      </trkpt>
      <trkpt lat="48.56618" lon="2.13575">
        <ele>92</ele>
        <time>2021-03-07T12:32:08.745Z</time>
      </trkpt>
      <trkpt lat="48.56617" lon="2.13575">
        <ele>92</ele>
        <time>2021-03-07T12:32:09.745Z</time>
      </trkpt>
      <trkpt lat="48.56618" lon="2.13574">
        <ele>91</ele>
        <time>2021-03-07T12:32:10.745Z</time>
      </trkpt>
      <trkpt lat="48.56618" lon="2.13574">
        <ele>91</ele>
        <time>2021-03-07T12:32:11.745Z</time>
      </trkpt>
      <trkpt lat="48.56618" lon="2.13573">
        <ele>91</ele>
        <time>2021-03-07T12:32:12.745Z</time>
      </trkpt>
      <trkpt lat="48.56619" lon="2.13572">
        <ele>91</ele>
        <time>2021-03-07T12:32:13.745Z</time>
      </trkpt>
      <trkpt lat="48.5662" lon="2.13571">
        <ele>91</ele>
        <time>2021-03-07T12:32:14.745Z</time>
      </trkpt>
      <trkpt lat="48.56621" lon="2.13569">
        <ele>91</ele>
        <time>2021-03-07T12:32:15.745Z</time>
      </trkpt>
      <trkpt lat="48.56622" lon="2.13568">
        <ele>91</ele>
        <time>2021-03-07T12:32:16.745Z</time>
      </trkpt>
      <trkpt lat="48.56623" lon="2.13567">
        <ele>91</ele>
        <time>2021-03-07T12:32:17.745Z</time>
      </trkpt>
      <trkpt lat="48.56624" lon="2.13566">
        <ele>91</ele>
        <time>2021-03-07T12:32:18.745Z</time>
      </trkpt>
      <trkpt lat="48.56625" lon="2.13565">
        <ele>92</ele>
        <time>2021-03-07T12:32:19.746Z</time>
      </trkpt>
      <trkpt lat="48.56627" lon="2.13564">
        <ele>92</ele>
        <time>2021-03-07T12:32:20.746Z</time>
      </trkpt>
      <trkpt lat="48.56628" lon="2.13563">
        <ele>92</ele>
        <time>2021-03-07T12:32:21.746Z</time>
      </trkpt>
      <trkpt lat="48.56629" lon="2.13561">
        <ele>93</ele>
        <time>2021-03-07T12:32:22.746Z</time>
      </trkpt>
      <trkpt lat="48.5663" lon="2.1356">
        <ele>93</ele>
        <time>2021-03-07T12:32:23.746Z</time>
      </trkpt>
      <trkpt lat="48.56631" lon="2.13559">
        <ele>93</ele>
        <time>2021-03-07T12:32:24.746Z</time>
      </trkpt>
      <trkpt lat="48.56632" lon="2.13558">
        <ele>93</ele>
        <time>2021-03-07T12:32:25.745Z</time>
      </trkpt>
      <trkpt lat="48.56633" lon="2.13556">
        <ele>93</ele>
        <time>2021-03-07T12:32:26.745Z</time>
      </trkpt>
      <trkpt lat="48.56634" lon="2.13555">
        <ele>93</ele>
        <time>2021-03-07T12:32:27.745Z</time>
      </trkpt>
      <trkpt lat="48.56635" lon="2.13554">
        <ele>92</ele>
        <time>2021-03-07T12:32:28.745Z</time>
      </trkpt>
      <trkpt lat="48.56635" lon="2.13553">
        <ele>92</ele>
        <time>2021-03-07T12:32:29.746Z</time>
      </trkpt>
      <trkpt lat="48.56636" lon="2.13552">
        <ele>92</ele>
        <time>2021-03-07T12:32:30.745Z</time>
      </trkpt>
      <trkpt lat="48.56636" lon="2.13551">
        <ele>91</ele>
        <time>2021-03-07T12:32:31.746Z</time>
      </trkpt>
      <trkpt lat="48.56637" lon="2.13549">
        <ele>91</ele>
        <time>2021-03-07T12:32:32.745Z</time>
      </trkpt>
      <trkpt lat="48.56638" lon="2.13548">
        <ele>90</ele>
        <time>2021-03-07T12:32:33.746Z</time>
      </trkpt>
      <trkpt lat="48.56639" lon="2.13546">
        <ele>90</ele>
        <time>2021-03-07T12:32:34.746Z</time>
      </trkpt>
      <trkpt lat="48.5664" lon="2.13544">
        <ele>89</ele>
        <time>2021-03-07T12:32:35.745Z</time>
      </trkpt>
      <trkpt lat="48.56641" lon="2.13543">
        <ele>89</ele>
        <time>2021-03-07T12:32:36.746Z</time>
      </trkpt>
      <trkpt lat="48.56642" lon="2.13541">
        <ele>89</ele>
        <time>2021-03-07T12:32:37.745Z</time>
      </trkpt>
      <trkpt lat="48.56643" lon="2.13539">
        <ele>89</ele>
        <time>2021-03-07T12:32:38.745Z</time>
      </trkpt>
      <trkpt lat="48.56644" lon="2.13538">
        <ele>90</ele>
        <time>2021-03-07T12:32:39.746Z</time>
      </trkpt>
      <trkpt lat="48.56644" lon="2.13537">
        <ele>90</ele>
        <time>2021-03-07T12:32:40.746Z</time>
      </trkpt>
      <trkpt lat="48.56645" lon="2.13536">
        <ele>90</ele>
        <time>2021-03-07T12:32:41.746Z</time>
      </trkpt>
      <trkpt lat="48.56646" lon="2.13534">
        <ele>90</ele>
        <time>2021-03-07T12:32:42.746Z</time>
      </trkpt>
      <trkpt lat="48.56647" lon="2.13532">
        <ele>90</ele>
        <time>2021-03-07T12:32:43.745Z</time>
      </trkpt>
      <trkpt lat="48.56648" lon="2.1353">
        <ele>90</ele>
        <time>2021-03-07T12:32:44.746Z</time>
      </trkpt>
      <trkpt lat="48.56649" lon="2.13529">
        <ele>90</ele>
        <time>2021-03-07T12:32:45.746Z</time>
      </trkpt>
      <trkpt lat="48.5665" lon="2.13527">
        <ele>90</ele>
        <time>2021-03-07T12:32:46.745Z</time>
      </trkpt>
      <trkpt lat="48.5665" lon="2.13526">
        <ele>90</ele>
        <time>2021-03-07T12:32:47.746Z</time>
      </trkpt>
      <trkpt lat="48.56651" lon="2.13525">
        <ele>90</ele>
        <time>2021-03-07T12:32:48.746Z</time>
      </trkpt>
      <trkpt lat="48.56652" lon="2.13524">
        <ele>91</ele>
        <time>2021-03-07T12:32:49.746Z</time>
      </trkpt>
      <trkpt lat="48.56653" lon="2.13522">
        <ele>91</ele>
        <time>2021-03-07T12:32:50.746Z</time>
      </trkpt>
      <trkpt lat="48.56654" lon="2.13521">
        <ele>92</ele>
        <time>2021-03-07T12:32:51.746Z</time>
      </trkpt>
      <trkpt lat="48.56655" lon="2.1352">
        <ele>92</ele>
        <time>2021-03-07T12:32:52.746Z</time>
      </trkpt>
      <trkpt lat="48.56656" lon="2.13518">
        <ele>92</ele>
        <time>2021-03-07T12:32:53.746Z</time>
      </trkpt>
      <trkpt lat="48.56657" lon="2.13516">
        <ele>93</ele>
        <time>2021-03-07T12:32:54.745Z</time>
      </trkpt>
      <trkpt lat="48.56658" lon="2.13515">
        <ele>93</ele>
        <time>2021-03-07T12:32:55.746Z</time>
      </trkpt>
      <trkpt lat="48.56659" lon="2.13513">
        <ele>93</ele>
        <time>2021-03-07T12:32:56.746Z</time>
      </trkpt>
      <trkpt lat="48.56659" lon="2.13512">
        <ele>93</ele>
        <time>2021-03-07T12:32:57.745Z</time>
      </trkpt>
      <trkpt lat="48.5666" lon="2.1351">
        <ele>93</ele>
        <time>2021-03-07T12:32:58.746Z</time>
      </trkpt>
      <trkpt lat="48.56661" lon="2.13509">
        <ele>93</ele>
        <time>2021-03-07T12:32:59.746Z</time>
      </trkpt>
      <trkpt lat="48.56662" lon="2.13507">
        <ele>92</ele>
        <time>2021-03-07T12:33:00.746Z</time>
      </trkpt>
      <trkpt lat="48.56663" lon="2.13505">
        <ele>92</ele>
        <time>2021-03-07T12:33:01.746Z</time>
      </trkpt>
      <trkpt lat="48.56664" lon="2.13503">
        <ele>92</ele>
        <time>2021-03-07T12:33:02.746Z</time>
      </trkpt>
      <trkpt lat="48.56664" lon="2.13502">
        <ele>91</ele>
        <time>2021-03-07T12:33:03.746Z</time>
      </trkpt>
      <trkpt lat="48.56665" lon="2.135">
        <ele>91</ele>
        <time>2021-03-07T12:33:04.745Z</time>
      </trkpt>
      <trkpt lat="48.56666" lon="2.13498">
        <ele>91</ele>
        <time>2021-03-07T12:33:05.746Z</time>
      </trkpt>
      <trkpt lat="48.56667" lon="2.13496">
        <ele>91</ele>
        <time>2021-03-07T12:33:06.746Z</time>
      </trkpt>
      <trkpt lat="48.56668" lon="2.13494">
        <ele>91</ele>
        <time>2021-03-07T12:33:07.746Z</time>
      </trkpt>
      <trkpt lat="48.56669" lon="2.13493">
        <ele>91</ele>
        <time>2021-03-07T12:33:08.745Z</time>
      </trkpt>
      <trkpt lat="48.56669" lon="2.13492">
        <ele>91</ele>
        <time>2021-03-07T12:33:09.746Z</time>
      </trkpt>
      <trkpt lat="48.5667" lon="2.1349">
        <ele>91</ele>
        <time>2021-03-07T12:33:10.746Z</time>
      </trkpt>
      <trkpt lat="48.56671" lon="2.13489">
        <ele>91</ele>
        <time>2021-03-07T12:33:11.746Z</time>
      </trkpt>
      <trkpt lat="48.56672" lon="2.13487">
        <ele>91</ele>
        <time>2021-03-07T12:33:12.746Z</time>
      </trkpt>
      <trkpt lat="48.56673" lon="2.13486">
        <ele>91</ele>
        <time>2021-03-07T12:33:13.746Z</time>
      </trkpt>
      <trkpt lat="48.56674" lon="2.13484">
        <ele>91</ele>
        <time>2021-03-07T12:33:14.746Z</time>
      </trkpt>
      <trkpt lat="48.56674" lon="2.13483">
        <ele>91</ele>
        <time>2021-03-07T12:33:15.745Z</time>
      </trkpt>
      <trkpt lat="48.56675" lon="2.13481">
        <ele>91</ele>
        <time>2021-03-07T12:33:16.746Z</time>
      </trkpt>
      <trkpt lat="48.56676" lon="2.1348">
        <ele>91</ele>
        <time>2021-03-07T12:33:17.745Z</time>
      </trkpt>
      <trkpt lat="48.56677" lon="2.13478">
        <ele>92</ele>
        <time>2021-03-07T12:33:18.745Z</time>
      </trkpt>
      <trkpt lat="48.56678" lon="2.13477">
        <ele>92</ele>
        <time>2021-03-07T12:33:19.746Z</time>
      </trkpt>
      <trkpt lat="48.56678" lon="2.13475">
        <ele>92</ele>
        <time>2021-03-07T12:33:20.746Z</time>
      </trkpt>
      <trkpt lat="48.56679" lon="2.13473">
        <ele>93</ele>
        <time>2021-03-07T12:33:21.746Z</time>
      </trkpt>
      <trkpt lat="48.5668" lon="2.13471">
        <ele>93</ele>
        <time>2021-03-07T12:33:22.746Z</time>
      </trkpt>
      <trkpt lat="48.56681" lon="2.13469">
        <ele>93</ele>
        <time>2021-03-07T12:33:23.746Z</time>
      </trkpt>
      <trkpt lat="48.56681" lon="2.13468">
        <ele>93</ele>
        <time>2021-03-07T12:33:24.745Z</time>
      </trkpt>
      <trkpt lat="48.56682" lon="2.13466">
        <ele>93</ele>
        <time>2021-03-07T12:33:25.746Z</time>
      </trkpt>
      <trkpt lat="48.56682" lon="2.13465">
        <ele>93</ele>
        <time>2021-03-07T12:33:26.746Z</time>
      </trkpt>
      <trkpt lat="48.56683" lon="2.13463">
        <ele>92</ele>
        <time>2021-03-07T12:33:27.746Z</time>
      </trkpt>
      <trkpt lat="48.56684" lon="2.13462">
        <ele>92</ele>
        <time>2021-03-07T12:33:28.746Z</time>
      </trkpt>
      <trkpt lat="48.56685" lon="2.1346">
        <ele>91</ele>
        <time>2021-03-07T12:33:29.746Z</time>
      </trkpt>
      <trkpt lat="48.56686" lon="2.13459">
        <ele>90</ele>
        <time>2021-03-07T12:33:30.746Z</time>
      </trkpt>
      <trkpt lat="48.56687" lon="2.13457">
        <ele>90</ele>
        <time>2021-03-07T12:33:31.746Z</time>
      </trkpt>
      <trkpt lat="48.56688" lon="2.13456">
        <ele>90</ele>
        <time>2021-03-07T12:33:32.746Z</time>
      </trkpt>
      <trkpt lat="48.56689" lon="2.13454">
        <ele>90</ele>
        <time>2021-03-07T12:33:33.745Z</time>
      </trkpt>
      <trkpt lat="48.5669" lon="2.13453">
        <ele>90</ele>
        <time>2021-03-07T12:33:34.746Z</time>
      </trkpt>
      <trkpt lat="48.56691" lon="2.13451">
        <ele>90</ele>
        <time>2021-03-07T12:33:35.746Z</time>
      </trkpt>
      <trkpt lat="48.56692" lon="2.13449">
        <ele>90</ele>
        <time>2021-03-07T12:33:36.746Z</time>
      </trkpt>
      <trkpt lat="48.56693" lon="2.13448">
        <ele>90</ele>
        <time>2021-03-07T12:33:37.746Z</time>
      </trkpt>
      <trkpt lat="48.56694" lon="2.13446">
        <ele>90</ele>
        <time>2021-03-07T12:33:38.745Z</time>
      </trkpt>
      <trkpt lat="48.56695" lon="2.13444">
        <ele>89</ele>
        <time>2021-03-07T12:33:39.746Z</time>
      </trkpt>
      <trkpt lat="48.56696" lon="2.13442">
        <ele>89</ele>
        <time>2021-03-07T12:33:40.746Z</time>
      </trkpt>
      <trkpt lat="48.56697" lon="2.13441">
        <ele>90</ele>
        <time>2021-03-07T12:33:41.746Z</time>
      </trkpt>
      <trkpt lat="48.56697" lon="2.13439">
        <ele>90</ele>
        <time>2021-03-07T12:33:42.746Z</time>
      </trkpt>
      <trkpt lat="48.56698" lon="2.13437">
        <ele>90</ele>
        <time>2021-03-07T12:33:43.746Z</time>
      </trkpt>
      <trkpt lat="48.56699" lon="2.13436">
        <ele>90</ele>
        <time>2021-03-07T12:33:44.745Z</time>
      </trkpt>
      <trkpt lat="48.567" lon="2.13434">
        <ele>90</ele>
        <time>2021-03-07T12:33:45.745Z</time>
      </trkpt>
      <trkpt lat="48.56702" lon="2.13433">
        <ele>90</ele>
        <time>2021-03-07T12:33:46.746Z</time>
      </trkpt>
      <trkpt lat="48.56703" lon="2.13431">
        <ele>90</ele>
        <time>2021-03-07T12:33:47.746Z</time>
      </trkpt>
      <trkpt lat="48.56703" lon="2.13429">
        <ele>90</ele>
        <time>2021-03-07T12:33:48.746Z</time>
      </trkpt>
      <trkpt lat="48.56703" lon="2.13426">
        <ele>90</ele>
        <time>2021-03-07T12:33:49.746Z</time>
      </trkpt>
      <trkpt lat="48.56704" lon="2.13425">
        <ele>90</ele>
        <time>2021-03-07T12:33:50.745Z</time>
      </trkpt>
      <trkpt lat="48.56704" lon="2.13423">
        <ele>91</ele>
        <time>2021-03-07T12:33:51.745Z</time>
      </trkpt>
      <trkpt lat="48.56706" lon="2.13421">
        <ele>91</ele>
        <time>2021-03-07T12:33:52.745Z</time>
      </trkpt>
      <trkpt lat="48.56707" lon="2.1342">
        <ele>91</ele>
        <time>2021-03-07T12:33:53.746Z</time>
      </trkpt>
      <trkpt lat="48.56708" lon="2.13418">
        <ele>91</ele>
        <time>2021-03-07T12:33:54.746Z</time>
      </trkpt>
      <trkpt lat="48.56708" lon="2.13417">
        <ele>91</ele>
        <time>2021-03-07T12:33:55.746Z</time>
      </trkpt>
      <trkpt lat="48.56709" lon="2.13415">
        <ele>91</ele>
        <time>2021-03-07T12:33:56.745Z</time>
      </trkpt>
      <trkpt lat="48.5671" lon="2.13414">
        <ele>91</ele>
        <time>2021-03-07T12:33:57.746Z</time>
      </trkpt>
      <trkpt lat="48.56711" lon="2.13412">
        <ele>92</ele>
        <time>2021-03-07T12:33:58.746Z</time>
      </trkpt>
      <trkpt lat="48.56712" lon="2.1341">
        <ele>92</ele>
        <time>2021-03-07T12:33:59.745Z</time>
      </trkpt>
      <trkpt lat="48.56713" lon="2.13408">
        <ele>92</ele>
        <time>2021-03-07T12:34:00.746Z</time>
      </trkpt>
      <trkpt lat="48.56714" lon="2.13406">
        <ele>92</ele>
        <time>2021-03-07T12:34:01.745Z</time>
      </trkpt>
      <trkpt lat="48.56714" lon="2.13405">
        <ele>92</ele>
        <time>2021-03-07T12:34:02.745Z</time>
      </trkpt>
      <trkpt lat="48.56715" lon="2.13403">
        <ele>92</ele>
        <time>2021-03-07T12:34:03.746Z</time>
      </trkpt>
      <trkpt lat="48.56716" lon="2.13402">
        <ele>92</ele>
        <time>2021-03-07T12:34:04.746Z</time>
      </trkpt>
      <trkpt lat="48.56716" lon="2.134">
        <ele>91</ele>
        <time>2021-03-07T12:34:05.746Z</time>
      </trkpt>
      <trkpt lat="48.56717" lon="2.13398">
        <ele>91</ele>
        <time>2021-03-07T12:34:06.746Z</time>
      </trkpt>
      <trkpt lat="48.56718" lon="2.13396">
        <ele>91</ele>
        <time>2021-03-07T12:34:07.746Z</time>
      </trkpt>
      <trkpt lat="48.56719" lon="2.13395">
        <ele>90</ele>
        <time>2021-03-07T12:34:08.745Z</time>
      </trkpt>
      <trkpt lat="48.5672" lon="2.13393">
        <ele>90</ele>
        <time>2021-03-07T12:34:09.746Z</time>
      </trkpt>
      <trkpt lat="48.56721" lon="2.13391">
        <ele>91</ele>
        <time>2021-03-07T12:34:10.746Z</time>
      </trkpt>
      <trkpt lat="48.56722" lon="2.1339">
        <ele>91</ele>
        <time>2021-03-07T12:34:11.746Z</time>
      </trkpt>
      <trkpt lat="48.56723" lon="2.13388">
        <ele>91</ele>
        <time>2021-03-07T12:34:12.746Z</time>
      </trkpt>
      <trkpt lat="48.56723" lon="2.13387">
        <ele>91</ele>
        <time>2021-03-07T12:34:13.746Z</time>
      </trkpt>
      <trkpt lat="48.56724" lon="2.13385">
        <ele>91</ele>
        <time>2021-03-07T12:34:14.746Z</time>
      </trkpt>
      <trkpt lat="48.56725" lon="2.13383">
        <ele>90</ele>
        <time>2021-03-07T12:34:15.745Z</time>
      </trkpt>
      <trkpt lat="48.56726" lon="2.13382">
        <ele>90</ele>
        <time>2021-03-07T12:34:16.746Z</time>
      </trkpt>
      <trkpt lat="48.56727" lon="2.1338">
        <ele>90</ele>
        <time>2021-03-07T12:34:17.745Z</time>
      </trkpt>
      <trkpt lat="48.56728" lon="2.13379">
        <ele>89</ele>
        <time>2021-03-07T12:34:18.745Z</time>
      </trkpt>
      <trkpt lat="48.56729" lon="2.13377">
        <ele>89</ele>
        <time>2021-03-07T12:34:19.746Z</time>
      </trkpt>
      <trkpt lat="48.5673" lon="2.13375">
        <ele>89</ele>
        <time>2021-03-07T12:34:20.746Z</time>
      </trkpt>
      <trkpt lat="48.56731" lon="2.13373">
        <ele>89</ele>
        <time>2021-03-07T12:34:21.746Z</time>
      </trkpt>
      <trkpt lat="48.56732" lon="2.13372">
        <ele>88</ele>
        <time>2021-03-07T12:34:22.746Z</time>
      </trkpt>
      <trkpt lat="48.56732" lon="2.1337">
        <ele>88</ele>
        <time>2021-03-07T12:34:23.746Z</time>
      </trkpt>
      <trkpt lat="48.56733" lon="2.13369">
        <ele>88</ele>
        <time>2021-03-07T12:34:24.745Z</time>
      </trkpt>
      <trkpt lat="48.56734" lon="2.13367">
        <ele>88</ele>
        <time>2021-03-07T12:34:25.746Z</time>
      </trkpt>
      <trkpt lat="48.56734" lon="2.13366">
        <ele>87</ele>
        <time>2021-03-07T12:34:26.746Z</time>
      </trkpt>
      <trkpt lat="48.56735" lon="2.13364">
        <ele>87</ele>
        <time>2021-03-07T12:34:27.746Z</time>
      </trkpt>
      <trkpt lat="48.56736" lon="2.13363">
        <ele>86</ele>
        <time>2021-03-07T12:34:28.745Z</time>
      </trkpt>
      <trkpt lat="48.56737" lon="2.13361">
        <ele>86</ele>
        <time>2021-03-07T12:34:29.745Z</time>
      </trkpt>
      <trkpt lat="48.56737" lon="2.13359">
        <ele>86</ele>
        <time>2021-03-07T12:34:30.746Z</time>
      </trkpt>
      <trkpt lat="48.56738" lon="2.13358">
        <ele>85</ele>
        <time>2021-03-07T12:34:31.745Z</time>
      </trkpt>
      <trkpt lat="48.56739" lon="2.13356">
        <ele>84</ele>
        <time>2021-03-07T12:34:32.746Z</time>
      </trkpt>
      <trkpt lat="48.5674" lon="2.13355">
        <ele>84</ele>
        <time>2021-03-07T12:34:33.746Z</time>
      </trkpt>
      <trkpt lat="48.56741" lon="2.13353">
        <ele>84</ele>
        <time>2021-03-07T12:34:34.745Z</time>
      </trkpt>
      <trkpt lat="48.56741" lon="2.13352">
        <ele>84</ele>
        <time>2021-03-07T12:34:35.746Z</time>
      </trkpt>
      <trkpt lat="48.56742" lon="2.1335">
        <ele>84</ele>
        <time>2021-03-07T12:34:36.746Z</time>
      </trkpt>
      <trkpt lat="48.56742" lon="2.13348">
        <ele>83</ele>
        <time>2021-03-07T12:34:37.746Z</time>
      </trkpt>
      <trkpt lat="48.56744" lon="2.13347">
        <ele>83</ele>
        <time>2021-03-07T12:34:38.745Z</time>
      </trkpt>
      <trkpt lat="48.56745" lon="2.13344">
        <ele>83</ele>
        <time>2021-03-07T12:34:39.746Z</time>
      </trkpt>
      <trkpt lat="48.56746" lon="2.13342">
        <ele>83</ele>
        <time>2021-03-07T12:34:40.745Z</time>
      </trkpt>
      <trkpt lat="48.56747" lon="2.13341">
        <ele>84</ele>
        <time>2021-03-07T12:34:41.746Z</time>
      </trkpt>
      <trkpt lat="48.56748" lon="2.13339">
        <ele>84</ele>
        <time>2021-03-07T12:34:42.746Z</time>
      </trkpt>
      <trkpt lat="48.5675" lon="2.13337">
        <ele>83</ele>
        <time>2021-03-07T12:34:43.746Z</time>
      </trkpt>
      <trkpt lat="48.5675" lon="2.13335">
        <ele>84</ele>
        <time>2021-03-07T12:34:44.746Z</time>
      </trkpt>
      <trkpt lat="48.56751" lon="2.13333">
        <ele>84</ele>
        <time>2021-03-07T12:34:45.746Z</time>
      </trkpt>
      <trkpt lat="48.56752" lon="2.13332">
        <ele>85</ele>
        <time>2021-03-07T12:34:46.746Z</time>
      </trkpt>
      <trkpt lat="48.56753" lon="2.1333">
        <ele>85</ele>
        <time>2021-03-07T12:34:47.746Z</time>
      </trkpt>
      <trkpt lat="48.56754" lon="2.13328">
        <ele>86</ele>
        <time>2021-03-07T12:34:48.746Z</time>
      </trkpt>
      <trkpt lat="48.56755" lon="2.13327">
        <ele>86</ele>
        <time>2021-03-07T12:34:49.745Z</time>
      </trkpt>
      <trkpt lat="48.56756" lon="2.13324">
        <ele>86</ele>
        <time>2021-03-07T12:34:50.746Z</time>
      </trkpt>
      <trkpt lat="48.56757" lon="2.13322">
        <ele>86</ele>
        <time>2021-03-07T12:34:51.746Z</time>
      </trkpt>
      <trkpt lat="48.56757" lon="2.1332">
        <ele>86</ele>
        <time>2021-03-07T12:34:52.746Z</time>
      </trkpt>
      <trkpt lat="48.56758" lon="2.13318">
        <ele>86</ele>
        <time>2021-03-07T12:34:53.745Z</time>
      </trkpt>
      <trkpt lat="48.56759" lon="2.13317">
        <ele>86</ele>
        <time>2021-03-07T12:34:54.746Z</time>
      </trkpt>
      <trkpt lat="48.5676" lon="2.13315">
        <ele>86</ele>
        <time>2021-03-07T12:34:55.745Z</time>
      </trkpt>
      <trkpt lat="48.56761" lon="2.13313">
        <ele>86</ele>
        <time>2021-03-07T12:34:56.746Z</time>
      </trkpt>
      <trkpt lat="48.56762" lon="2.13312">
        <ele>86</ele>
        <time>2021-03-07T12:34:57.745Z</time>
      </trkpt>
      <trkpt lat="48.56763" lon="2.1331">
        <ele>86</ele>
        <time>2021-03-07T12:34:58.746Z</time>
      </trkpt>
      <trkpt lat="48.56764" lon="2.13309">
        <ele>85</ele>
        <time>2021-03-07T12:34:59.746Z</time>
      </trkpt>
      <trkpt lat="48.56765" lon="2.13307">
        <ele>85</ele>
        <time>2021-03-07T12:35:00.746Z</time>
      </trkpt>
      <trkpt lat="48.56766" lon="2.13305">
        <ele>85</ele>
        <time>2021-03-07T12:35:01.746Z</time>
      </trkpt>
      <trkpt lat="48.56767" lon="2.13304">
        <ele>85</ele>
        <time>2021-03-07T12:35:02.745Z</time>
      </trkpt>
      <trkpt lat="48.56768" lon="2.13302">
        <ele>85</ele>
        <time>2021-03-07T12:35:03.746Z</time>
      </trkpt>
      <trkpt lat="48.56769" lon="2.13299">
        <ele>86</ele>
        <time>2021-03-07T12:35:04.745Z</time>
      </trkpt>
      <trkpt lat="48.56771" lon="2.13298">
        <ele>86</ele>
        <time>2021-03-07T12:35:05.746Z</time>
      </trkpt>
      <trkpt lat="48.56771" lon="2.13296">
        <ele>87</ele>
        <time>2021-03-07T12:35:06.746Z</time>
      </trkpt>
      <trkpt lat="48.56772" lon="2.13294">
        <ele>87</ele>
        <time>2021-03-07T12:35:07.746Z</time>
      </trkpt>
      <trkpt lat="48.56772" lon="2.13293">
        <ele>87</ele>
        <time>2021-03-07T12:35:08.746Z</time>
      </trkpt>
      <trkpt lat="48.56773" lon="2.1329">
        <ele>87</ele>
        <time>2021-03-07T12:35:09.746Z</time>
      </trkpt>
      <trkpt lat="48.56774" lon="2.13288">
        <ele>87</ele>
        <time>2021-03-07T12:35:10.745Z</time>
      </trkpt>
      <trkpt lat="48.56775" lon="2.13286">
        <ele>87</ele>
        <time>2021-03-07T12:35:11.746Z</time>
      </trkpt>
      <trkpt lat="48.56776" lon="2.13284">
        <ele>87</ele>
        <time>2021-03-07T12:35:12.745Z</time>
      </trkpt>
      <trkpt lat="48.56778" lon="2.13283">
        <ele>87</ele>
        <time>2021-03-07T12:35:13.746Z</time>
      </trkpt>
      <trkpt lat="48.5678" lon="2.13281">
        <ele>87</ele>
        <time>2021-03-07T12:35:14.746Z</time>
      </trkpt>
      <trkpt lat="48.56781" lon="2.13281">
        <ele>87</ele>
        <time>2021-03-07T12:35:15.746Z</time>
      </trkpt>
      <trkpt lat="48.56782" lon="2.1328">
        <ele>87</ele>
        <time>2021-03-07T12:35:16.746Z</time>
      </trkpt>
      <trkpt lat="48.56783" lon="2.13278">
        <ele>88</ele>
        <time>2021-03-07T12:35:17.746Z</time>
      </trkpt>
      <trkpt lat="48.56785" lon="2.13278">
        <ele>88</ele>
        <time>2021-03-07T12:35:18.746Z</time>
      </trkpt>
      <trkpt lat="48.56785" lon="2.13277">
        <ele>88</ele>
        <time>2021-03-07T12:35:19.746Z</time>
      </trkpt>
      <trkpt lat="48.56787" lon="2.13276">
        <ele>89</ele>
        <time>2021-03-07T12:35:20.745Z</time>
      </trkpt>
      <trkpt lat="48.56789" lon="2.13276">
        <ele>89</ele>
        <time>2021-03-07T12:35:21.746Z</time>
      </trkpt>
      <trkpt lat="48.5679" lon="2.13276">
        <ele>89</ele>
        <time>2021-03-07T12:35:22.745Z</time>
      </trkpt>
      <trkpt lat="48.56791" lon="2.13277">
        <ele>89</ele>
        <time>2021-03-07T12:35:23.746Z</time>
      </trkpt>
      <trkpt lat="48.56793" lon="2.13277">
        <ele>89</ele>
        <time>2021-03-07T12:35:24.746Z</time>
      </trkpt>
      <trkpt lat="48.56794" lon="2.13278">
        <ele>90</ele>
        <time>2021-03-07T12:35:25.746Z</time>
      </trkpt>
      <trkpt lat="48.56795" lon="2.13279">
        <ele>90</ele>
        <time>2021-03-07T12:35:26.746Z</time>
      </trkpt>
      <trkpt lat="48.56796" lon="2.13281">
        <ele>90</ele>
        <time>2021-03-07T12:35:27.746Z</time>
      </trkpt>
      <trkpt lat="48.56797" lon="2.13282">
        <ele>91</ele>
        <time>2021-03-07T12:35:28.746Z</time>
      </trkpt>
      <trkpt lat="48.56798" lon="2.13283">
        <ele>91</ele>
        <time>2021-03-07T12:35:29.746Z</time>
      </trkpt>
      <trkpt lat="48.56798" lon="2.13285">
        <ele>91</ele>
        <time>2021-03-07T12:35:30.745Z</time>
      </trkpt>
      <trkpt lat="48.56798" lon="2.13286">
        <ele>90</ele>
        <time>2021-03-07T12:35:31.746Z</time>
      </trkpt>
      <trkpt lat="48.56798" lon="2.13288">
        <ele>90</ele>
        <time>2021-03-07T12:35:32.746Z</time>
      </trkpt>
      <trkpt lat="48.56799" lon="2.1329">
        <ele>90</ele>
        <time>2021-03-07T12:35:33.746Z</time>
      </trkpt>
      <trkpt lat="48.568" lon="2.13293">
        <ele>90</ele>
        <time>2021-03-07T12:35:34.746Z</time>
      </trkpt>
      <trkpt lat="48.568" lon="2.13295">
        <ele>89</ele>
        <time>2021-03-07T12:35:35.746Z</time>
      </trkpt>
      <trkpt lat="48.568" lon="2.13296">
        <ele>89</ele>
        <time>2021-03-07T12:35:36.746Z</time>
      </trkpt>
      <trkpt lat="48.56801" lon="2.13299">
        <ele>88</ele>
        <time>2021-03-07T12:35:37.746Z</time>
      </trkpt>
      <trkpt lat="48.56802" lon="2.13301">
        <ele>87</ele>
        <time>2021-03-07T12:35:38.746Z</time>
      </trkpt>
      <trkpt lat="48.56803" lon="2.13302">
        <ele>87</ele>
        <time>2021-03-07T12:35:39.746Z</time>
      </trkpt>
      <trkpt lat="48.56804" lon="2.13304">
        <ele>86</ele>
        <time>2021-03-07T12:35:40.746Z</time>
      </trkpt>
      <trkpt lat="48.56804" lon="2.13306">
        <ele>86</ele>
        <time>2021-03-07T12:35:41.746Z</time>
      </trkpt>
      <trkpt lat="48.56805" lon="2.13307">
        <ele>86</ele>
        <time>2021-03-07T12:35:42.746Z</time>
      </trkpt>
      <trkpt lat="48.56805" lon="2.13309">
        <ele>86</ele>
        <time>2021-03-07T12:35:43.746Z</time>
      </trkpt>
      <trkpt lat="48.56806" lon="2.1331">
        <ele>85</ele>
        <time>2021-03-07T12:35:44.745Z</time>
      </trkpt>
      <trkpt lat="48.56807" lon="2.13312">
        <ele>85</ele>
        <time>2021-03-07T12:35:45.746Z</time>
      </trkpt>
      <trkpt lat="48.56809" lon="2.13315">
        <ele>85</ele>
        <time>2021-03-07T12:35:46.746Z</time>
      </trkpt>
      <trkpt lat="48.5681" lon="2.13316">
        <ele>84</ele>
        <time>2021-03-07T12:35:47.746Z</time>
      </trkpt>
      <trkpt lat="48.56811" lon="2.13318">
        <ele>84</ele>
        <time>2021-03-07T12:35:48.746Z</time>
      </trkpt>
      <trkpt lat="48.56811" lon="2.1332">
        <ele>84</ele>
        <time>2021-03-07T12:35:49.746Z</time>
      </trkpt>
      <trkpt lat="48.56811" lon="2.13321">
        <ele>84</ele>
        <time>2021-03-07T12:35:50.746Z</time>
      </trkpt>
      <trkpt lat="48.56811" lon="2.13323">
        <ele>83</ele>
        <time>2021-03-07T12:35:51.746Z</time>
      </trkpt>
      <trkpt lat="48.56811" lon="2.13324">
        <ele>83</ele>
        <time>2021-03-07T12:35:52.746Z</time>
      </trkpt>
      <trkpt lat="48.56812" lon="2.13326">
        <ele>83</ele>
        <time>2021-03-07T12:35:53.745Z</time>
      </trkpt>
      <trkpt lat="48.56813" lon="2.13328">
        <ele>83</ele>
        <time>2021-03-07T12:35:54.746Z</time>
      </trkpt>
      <trkpt lat="48.56813" lon="2.1333">
        <ele>83</ele>
        <time>2021-03-07T12:35:55.746Z</time>
      </trkpt>
      <trkpt lat="48.56814" lon="2.13332">
        <ele>83</ele>
        <time>2021-03-07T12:35:56.745Z</time>
      </trkpt>
      <trkpt lat="48.56815" lon="2.13334">
        <ele>83</ele>
        <time>2021-03-07T12:35:57.746Z</time>
      </trkpt>
      <trkpt lat="48.56816" lon="2.13336">
        <ele>83</ele>
        <time>2021-03-07T12:35:58.745Z</time>
      </trkpt>
      <trkpt lat="48.56817" lon="2.13338">
        <ele>83</ele>
        <time>2021-03-07T12:35:59.745Z</time>
      </trkpt>
      <trkpt lat="48.56818" lon="2.1334">
        <ele>83</ele>
        <time>2021-03-07T12:36:00.745Z</time>
      </trkpt>
      <trkpt lat="48.56819" lon="2.13342">
        <ele>83</ele>
        <time>2021-03-07T12:36:01.745Z</time>
      </trkpt>
      <trkpt lat="48.56819" lon="2.13344">
        <ele>83</ele>
        <time>2021-03-07T12:36:02.746Z</time>
      </trkpt>
      <trkpt lat="48.5682" lon="2.13346">
        <ele>83</ele>
        <time>2021-03-07T12:36:03.745Z</time>
      </trkpt>
      <trkpt lat="48.56822" lon="2.13347">
        <ele>84</ele>
        <time>2021-03-07T12:36:04.746Z</time>
      </trkpt>
      <trkpt lat="48.56823" lon="2.1335">
        <ele>84</ele>
        <time>2021-03-07T12:36:05.745Z</time>
      </trkpt>
      <trkpt lat="48.56823" lon="2.13352">
        <ele>84</ele>
        <time>2021-03-07T12:36:06.746Z</time>
      </trkpt>
      <trkpt lat="48.56824" lon="2.13354">
        <ele>84</ele>
        <time>2021-03-07T12:36:07.745Z</time>
      </trkpt>
      <trkpt lat="48.56824" lon="2.13356">
        <ele>85</ele>
        <time>2021-03-07T12:36:08.746Z</time>
      </trkpt>
      <trkpt lat="48.56825" lon="2.13358">
        <ele>85</ele>
        <time>2021-03-07T12:36:09.746Z</time>
      </trkpt>
      <trkpt lat="48.56825" lon="2.13361">
        <ele>85</ele>
        <time>2021-03-07T12:36:10.746Z</time>
      </trkpt>
      <trkpt lat="48.56826" lon="2.13363">
        <ele>85</ele>
        <time>2021-03-07T12:36:11.746Z</time>
      </trkpt>
      <trkpt lat="48.56826" lon="2.13365">
        <ele>85</ele>
        <time>2021-03-07T12:36:12.745Z</time>
      </trkpt>
      <trkpt lat="48.56826" lon="2.13367">
        <ele>85</ele>
        <time>2021-03-07T12:36:13.745Z</time>
      </trkpt>
      <trkpt lat="48.56827" lon="2.13369">
        <ele>85</ele>
        <time>2021-03-07T12:36:14.746Z</time>
      </trkpt>
      <trkpt lat="48.56828" lon="2.13371">
        <ele>84</ele>
        <time>2021-03-07T12:36:15.746Z</time>
      </trkpt>
      <trkpt lat="48.56829" lon="2.13373">
        <ele>84</ele>
        <time>2021-03-07T12:36:16.746Z</time>
      </trkpt>
      <trkpt lat="48.5683" lon="2.13376">
        <ele>83</ele>
        <time>2021-03-07T12:36:17.746Z</time>
      </trkpt>
      <trkpt lat="48.56831" lon="2.13378">
        <ele>82</ele>
        <time>2021-03-07T12:36:18.746Z</time>
      </trkpt>
      <trkpt lat="48.56831" lon="2.1338">
        <ele>82</ele>
        <time>2021-03-07T12:36:19.746Z</time>
      </trkpt>
      <trkpt lat="48.56832" lon="2.13383">
        <ele>81</ele>
        <time>2021-03-07T12:36:20.746Z</time>
      </trkpt>
      <trkpt lat="48.56833" lon="2.13384">
        <ele>81</ele>
        <time>2021-03-07T12:36:21.746Z</time>
      </trkpt>
      <trkpt lat="48.56833" lon="2.13386">
        <ele>81</ele>
        <time>2021-03-07T12:36:22.746Z</time>
      </trkpt>
      <trkpt lat="48.56833" lon="2.13388">
        <ele>81</ele>
        <time>2021-03-07T12:36:23.746Z</time>
      </trkpt>
      <trkpt lat="48.56833" lon="2.1339">
        <ele>81</ele>
        <time>2021-03-07T12:36:24.745Z</time>
      </trkpt>
      <trkpt lat="48.56834" lon="2.13392">
        <ele>81</ele>
        <time>2021-03-07T12:36:25.745Z</time>
      </trkpt>
      <trkpt lat="48.56834" lon="2.13394">
        <ele>82</ele>
        <time>2021-03-07T12:36:26.745Z</time>
      </trkpt>
      <trkpt lat="48.56834" lon="2.13396">
        <ele>82</ele>
        <time>2021-03-07T12:36:27.745Z</time>
      </trkpt>
      <trkpt lat="48.56834" lon="2.13398">
        <ele>82</ele>
        <time>2021-03-07T12:36:28.746Z</time>
      </trkpt>
      <trkpt lat="48.56835" lon="2.13399">
        <ele>82</ele>
        <time>2021-03-07T12:36:29.745Z</time>
      </trkpt>
      <trkpt lat="48.56836" lon="2.13401">
        <ele>83</ele>
        <time>2021-03-07T12:36:30.746Z</time>
      </trkpt>
      <trkpt lat="48.56836" lon="2.13403">
        <ele>83</ele>
        <time>2021-03-07T12:36:31.746Z</time>
      </trkpt>
      <trkpt lat="48.56837" lon="2.13405">
        <ele>83</ele>
        <time>2021-03-07T12:36:32.746Z</time>
      </trkpt>
      <trkpt lat="48.56839" lon="2.13407">
        <ele>83</ele>
        <time>2021-03-07T12:36:33.746Z</time>
      </trkpt>
      <trkpt lat="48.5684" lon="2.1341">
        <ele>82</ele>
        <time>2021-03-07T12:36:34.745Z</time>
      </trkpt>
      <trkpt lat="48.56841" lon="2.13412">
        <ele>82</ele>
        <time>2021-03-07T12:36:35.746Z</time>
      </trkpt>
      <trkpt lat="48.56841" lon="2.13414">
        <ele>82</ele>
        <time>2021-03-07T12:36:36.745Z</time>
      </trkpt>
      <trkpt lat="48.56842" lon="2.13416">
        <ele>82</ele>
        <time>2021-03-07T12:36:37.746Z</time>
      </trkpt>
      <trkpt lat="48.56843" lon="2.13419">
        <ele>81</ele>
        <time>2021-03-07T12:36:38.746Z</time>
      </trkpt>
      <trkpt lat="48.56844" lon="2.13421">
        <ele>81</ele>
        <time>2021-03-07T12:36:39.746Z</time>
      </trkpt>
      <trkpt lat="48.56845" lon="2.13423">
        <ele>81</ele>
        <time>2021-03-07T12:36:40.746Z</time>
      </trkpt>
      <trkpt lat="48.56846" lon="2.13425">
        <ele>81</ele>
        <time>2021-03-07T12:36:41.746Z</time>
      </trkpt>
      <trkpt lat="48.56846" lon="2.13428">
        <ele>82</ele>
        <time>2021-03-07T12:36:42.746Z</time>
      </trkpt>
      <trkpt lat="48.56847" lon="2.1343">
        <ele>82</ele>
        <time>2021-03-07T12:36:43.746Z</time>
      </trkpt>
      <trkpt lat="48.56848" lon="2.13432">
        <ele>83</ele>
        <time>2021-03-07T12:36:44.746Z</time>
      </trkpt>
      <trkpt lat="48.56849" lon="2.13434">
        <ele>83</ele>
        <time>2021-03-07T12:36:45.746Z</time>
      </trkpt>
      <trkpt lat="48.5685" lon="2.13436">
        <ele>83</ele>
        <time>2021-03-07T12:36:46.746Z</time>
      </trkpt>
      <trkpt lat="48.56851" lon="2.13439">
        <ele>84</ele>
        <time>2021-03-07T12:36:47.746Z</time>
      </trkpt>
      <trkpt lat="48.56852" lon="2.13441">
        <ele>84</ele>
        <time>2021-03-07T12:36:48.746Z</time>
      </trkpt>
      <trkpt lat="48.56852" lon="2.13444">
        <ele>84</ele>
        <time>2021-03-07T12:36:49.745Z</time>
      </trkpt>
      <trkpt lat="48.56852" lon="2.13446">
        <ele>84</ele>
        <time>2021-03-07T12:36:50.746Z</time>
      </trkpt>
      <trkpt lat="48.56852" lon="2.13448">
        <ele>84</ele>
        <time>2021-03-07T12:36:51.746Z</time>
      </trkpt>
      <trkpt lat="48.56853" lon="2.1345">
        <ele>84</ele>
        <time>2021-03-07T12:36:52.746Z</time>
      </trkpt>
      <trkpt lat="48.56855" lon="2.13452">
        <ele>84</ele>
        <time>2021-03-07T12:36:53.745Z</time>
      </trkpt>
      <trkpt lat="48.56856" lon="2.13453">
        <ele>84</ele>
        <time>2021-03-07T12:36:54.745Z</time>
      </trkpt>
      <trkpt lat="48.56857" lon="2.13455">
        <ele>84</ele>
        <time>2021-03-07T12:36:55.746Z</time>
      </trkpt>
      <trkpt lat="48.56858" lon="2.13456">
        <ele>84</ele>
        <time>2021-03-07T12:36:56.746Z</time>
      </trkpt>
      <trkpt lat="48.56858" lon="2.13457">
        <ele>85</ele>
        <time>2021-03-07T12:36:57.746Z</time>
      </trkpt>
      <trkpt lat="48.5686" lon="2.13457">
        <ele>86</ele>
        <time>2021-03-07T12:36:58.746Z</time>
      </trkpt>
      <trkpt lat="48.56862" lon="2.13458">
        <ele>87</ele>
        <time>2021-03-07T12:36:59.746Z</time>
      </trkpt>
      <trkpt lat="48.56863" lon="2.13458">
        <ele>87</ele>
        <time>2021-03-07T12:37:00.746Z</time>
      </trkpt>
      <trkpt lat="48.56865" lon="2.13459">
        <ele>88</ele>
        <time>2021-03-07T12:37:01.745Z</time>
      </trkpt>
      <trkpt lat="48.56866" lon="2.13459">
        <ele>89</ele>
        <time>2021-03-07T12:37:02.745Z</time>
      </trkpt>
      <trkpt lat="48.56867" lon="2.13459">
        <ele>90</ele>
        <time>2021-03-07T12:37:03.745Z</time>
      </trkpt>
      <trkpt lat="48.56869" lon="2.13459">
        <ele>91</ele>
        <time>2021-03-07T12:37:04.746Z</time>
      </trkpt>
      <trkpt lat="48.5687" lon="2.1346">
        <ele>91</ele>
        <time>2021-03-07T12:37:05.746Z</time>
      </trkpt>
      <trkpt lat="48.56871" lon="2.1346">
        <ele>92</ele>
        <time>2021-03-07T12:37:06.746Z</time>
      </trkpt>
      <trkpt lat="48.56873" lon="2.13461">
        <ele>93</ele>
        <time>2021-03-07T12:37:07.745Z</time>
      </trkpt>
      <trkpt lat="48.56874" lon="2.13461">
        <ele>94</ele>
        <time>2021-03-07T12:37:08.745Z</time>
      </trkpt>
      <trkpt lat="48.56876" lon="2.13461">
        <ele>94</ele>
        <time>2021-03-07T12:37:09.746Z</time>
      </trkpt>
      <trkpt lat="48.56877" lon="2.13462">
        <ele>95</ele>
        <time>2021-03-07T12:37:10.746Z</time>
      </trkpt>
      <trkpt lat="48.56879" lon="2.13462">
        <ele>95</ele>
        <time>2021-03-07T12:37:11.745Z</time>
      </trkpt>
      <trkpt lat="48.56881" lon="2.13463">
        <ele>96</ele>
        <time>2021-03-07T12:37:12.745Z</time>
      </trkpt>
      <trkpt lat="48.56882" lon="2.13463">
        <ele>96</ele>
        <time>2021-03-07T12:37:13.746Z</time>
      </trkpt>
      <trkpt lat="48.56884" lon="2.13464">
        <ele>96</ele>
        <time>2021-03-07T12:37:14.746Z</time>
      </trkpt>
      <trkpt lat="48.56885" lon="2.13464">
        <ele>96</ele>
        <time>2021-03-07T12:37:15.746Z</time>
      </trkpt>
      <trkpt lat="48.56887" lon="2.13465">
        <ele>96</ele>
        <time>2021-03-07T12:37:16.746Z</time>
      </trkpt>
      <trkpt lat="48.56888" lon="2.13465">
        <ele>96</ele>
        <time>2021-03-07T12:37:17.746Z</time>
      </trkpt>
      <trkpt lat="48.5689" lon="2.13466">
        <ele>96</ele>
        <time>2021-03-07T12:37:18.745Z</time>
      </trkpt>
      <trkpt lat="48.56891" lon="2.13466">
        <ele>95</ele>
        <time>2021-03-07T12:37:19.745Z</time>
      </trkpt>
      <trkpt lat="48.56892" lon="2.13466">
        <ele>95</ele>
        <time>2021-03-07T12:37:20.746Z</time>
      </trkpt>
      <trkpt lat="48.56893" lon="2.13466">
        <ele>94</ele>
        <time>2021-03-07T12:37:21.746Z</time>
      </trkpt>
      <trkpt lat="48.56894" lon="2.13465">
        <ele>94</ele>
        <time>2021-03-07T12:37:22.746Z</time>
      </trkpt>
      <trkpt lat="48.56895" lon="2.13464">
        <ele>94</ele>
        <time>2021-03-07T12:37:23.745Z</time>
      </trkpt>
      <trkpt lat="48.56897" lon="2.13464">
        <ele>94</ele>
        <time>2021-03-07T12:37:24.745Z</time>
      </trkpt>
      <trkpt lat="48.56899" lon="2.13464">
        <ele>94</ele>
        <time>2021-03-07T12:37:25.746Z</time>
      </trkpt>
      <trkpt lat="48.569" lon="2.13464">
        <ele>94</ele>
        <time>2021-03-07T12:37:26.745Z</time>
      </trkpt>
      <trkpt lat="48.56901" lon="2.13464">
        <ele>94</ele>
        <time>2021-03-07T12:37:27.746Z</time>
      </trkpt>
      <trkpt lat="48.56902" lon="2.13464">
        <ele>94</ele>
        <time>2021-03-07T12:37:28.746Z</time>
      </trkpt>
      <trkpt lat="48.56903" lon="2.13465">
        <ele>94</ele>
        <time>2021-03-07T12:37:29.746Z</time>
      </trkpt>
      <trkpt lat="48.56904" lon="2.13465">
        <ele>94</ele>
        <time>2021-03-07T12:37:30.746Z</time>
      </trkpt>
      <trkpt lat="48.56905" lon="2.13465">
        <ele>94</ele>
        <time>2021-03-07T12:37:31.746Z</time>
      </trkpt>
      <trkpt lat="48.56907" lon="2.13466">
        <ele>94</ele>
        <time>2021-03-07T12:37:32.746Z</time>
      </trkpt>
      <trkpt lat="48.56909" lon="2.13466">
        <ele>94</ele>
        <time>2021-03-07T12:37:33.746Z</time>
      </trkpt>
      <trkpt lat="48.56911" lon="2.13467">
        <ele>94</ele>
        <time>2021-03-07T12:37:34.746Z</time>
      </trkpt>
      <trkpt lat="48.56913" lon="2.13467">
        <ele>94</ele>
        <time>2021-03-07T12:37:35.746Z</time>
      </trkpt>
      <trkpt lat="48.56915" lon="2.13467">
        <ele>93</ele>
        <time>2021-03-07T12:37:36.745Z</time>
      </trkpt>
      <trkpt lat="48.56916" lon="2.13468">
        <ele>93</ele>
        <time>2021-03-07T12:37:37.745Z</time>
      </trkpt>
      <trkpt lat="48.56917" lon="2.13467">
        <ele>93</ele>
        <time>2021-03-07T12:37:38.746Z</time>
      </trkpt>
      <trkpt lat="48.56919" lon="2.13467">
        <ele>93</ele>
        <time>2021-03-07T12:37:39.746Z</time>
      </trkpt>
      <trkpt lat="48.5692" lon="2.13467">
        <ele>93</ele>
        <time>2021-03-07T12:37:40.746Z</time>
      </trkpt>
      <trkpt lat="48.56921" lon="2.13466">
        <ele>93</ele>
        <time>2021-03-07T12:37:41.746Z</time>
      </trkpt>
      <trkpt lat="48.56923" lon="2.13466">
        <ele>94</ele>
        <time>2021-03-07T12:37:42.745Z</time>
      </trkpt>
      <trkpt lat="48.56925" lon="2.13467">
        <ele>94</ele>
        <time>2021-03-07T12:37:43.746Z</time>
      </trkpt>
      <trkpt lat="48.56927" lon="2.13467">
        <ele>94</ele>
        <time>2021-03-07T12:37:44.745Z</time>
      </trkpt>
      <trkpt lat="48.56928" lon="2.13467">
        <ele>94</ele>
        <time>2021-03-07T12:37:45.746Z</time>
      </trkpt>
      <trkpt lat="48.56929" lon="2.13468">
        <ele>94</ele>
        <time>2021-03-07T12:37:46.746Z</time>
      </trkpt>
      <trkpt lat="48.5693" lon="2.13468">
        <ele>94</ele>
        <time>2021-03-07T12:37:47.746Z</time>
      </trkpt>
      <trkpt lat="48.56932" lon="2.13469">
        <ele>94</ele>
        <time>2021-03-07T12:37:48.746Z</time>
      </trkpt>
      <trkpt lat="48.56933" lon="2.1347">
        <ele>94</ele>
        <time>2021-03-07T12:37:49.746Z</time>
      </trkpt>
      <trkpt lat="48.56935" lon="2.13472">
        <ele>94</ele>
        <time>2021-03-07T12:37:50.746Z</time>
      </trkpt>
      <trkpt lat="48.56937" lon="2.13473">
        <ele>94</ele>
        <time>2021-03-07T12:37:51.746Z</time>
      </trkpt>
      <trkpt lat="48.5694" lon="2.13475">
        <ele>94</ele>
        <time>2021-03-07T12:37:52.745Z</time>
      </trkpt>
      <trkpt lat="48.56941" lon="2.13476">
        <ele>94</ele>
        <time>2021-03-07T12:37:53.745Z</time>
      </trkpt>
      <trkpt lat="48.56943" lon="2.13478">
        <ele>95</ele>
        <time>2021-03-07T12:37:54.746Z</time>
      </trkpt>
      <trkpt lat="48.56944" lon="2.13478">
        <ele>95</ele>
        <time>2021-03-07T12:37:55.746Z</time>
      </trkpt>
      <trkpt lat="48.56946" lon="2.13479">
        <ele>95</ele>
        <time>2021-03-07T12:37:56.746Z</time>
      </trkpt>
      <trkpt lat="48.56948" lon="2.13479">
        <ele>96</ele>
        <time>2021-03-07T12:37:57.746Z</time>
      </trkpt>
      <trkpt lat="48.56948" lon="2.13479">
        <ele>96</ele>
        <time>2021-03-07T12:37:58.745Z</time>
      </trkpt>
      <trkpt lat="48.5695" lon="2.1348">
        <ele>97</ele>
        <time>2021-03-07T12:37:59.745Z</time>
      </trkpt>
      <trkpt lat="48.56952" lon="2.1348">
        <ele>97</ele>
        <time>2021-03-07T12:38:00.745Z</time>
      </trkpt>
      <trkpt lat="48.56955" lon="2.13481">
        <ele>97</ele>
        <time>2021-03-07T12:38:01.745Z</time>
      </trkpt>
      <trkpt lat="48.56957" lon="2.13481">
        <ele>98</ele>
        <time>2021-03-07T12:38:02.746Z</time>
      </trkpt>
      <trkpt lat="48.56958" lon="2.13482">
        <ele>98</ele>
        <time>2021-03-07T12:38:03.745Z</time>
      </trkpt>
      <trkpt lat="48.5696" lon="2.13482">
        <ele>98</ele>
        <time>2021-03-07T12:38:04.746Z</time>
      </trkpt>
      <trkpt lat="48.56961" lon="2.13483">
        <ele>99</ele>
        <time>2021-03-07T12:38:05.746Z</time>
      </trkpt>
      <trkpt lat="48.56963" lon="2.13484">
        <ele>99</ele>
        <time>2021-03-07T12:38:06.745Z</time>
      </trkpt>
      <trkpt lat="48.56965" lon="2.13485">
        <ele>99</ele>
        <time>2021-03-07T12:38:07.746Z</time>
      </trkpt>
      <trkpt lat="48.56966" lon="2.13485">
        <ele>98</ele>
        <time>2021-03-07T12:38:08.746Z</time>
      </trkpt>
      <trkpt lat="48.56967" lon="2.13486">
        <ele>98</ele>
        <time>2021-03-07T12:38:09.746Z</time>
      </trkpt>
      <trkpt lat="48.56968" lon="2.13487">
        <ele>98</ele>
        <time>2021-03-07T12:38:10.746Z</time>
      </trkpt>
      <trkpt lat="48.56969" lon="2.13488">
        <ele>97</ele>
        <time>2021-03-07T12:38:11.746Z</time>
      </trkpt>
      <trkpt lat="48.56971" lon="2.13489">
        <ele>97</ele>
        <time>2021-03-07T12:38:12.745Z</time>
      </trkpt>
      <trkpt lat="48.56972" lon="2.1349">
        <ele>96</ele>
        <time>2021-03-07T12:38:13.745Z</time>
      </trkpt>
      <trkpt lat="48.56974" lon="2.13492">
        <ele>95</ele>
        <time>2021-03-07T12:38:14.745Z</time>
      </trkpt>
      <trkpt lat="48.56975" lon="2.13493">
        <ele>95</ele>
        <time>2021-03-07T12:38:15.746Z</time>
      </trkpt>
      <trkpt lat="48.56977" lon="2.13494">
        <ele>94</ele>
        <time>2021-03-07T12:38:16.746Z</time>
      </trkpt>
      <trkpt lat="48.56979" lon="2.13495">
        <ele>93</ele>
        <time>2021-03-07T12:38:17.746Z</time>
      </trkpt>
      <trkpt lat="48.5698" lon="2.13497">
        <ele>92</ele>
        <time>2021-03-07T12:38:18.746Z</time>
      </trkpt>
      <trkpt lat="48.56981" lon="2.13498">
        <ele>91</ele>
        <time>2021-03-07T12:38:19.746Z</time>
      </trkpt>
      <trkpt lat="48.56982" lon="2.13499">
        <ele>90</ele>
        <time>2021-03-07T12:38:20.746Z</time>
      </trkpt>
      <trkpt lat="48.56983" lon="2.13501">
        <ele>90</ele>
        <time>2021-03-07T12:38:21.745Z</time>
      </trkpt>
      <trkpt lat="48.56985" lon="2.13502">
        <ele>89</ele>
        <time>2021-03-07T12:38:22.746Z</time>
      </trkpt>
      <trkpt lat="48.56986" lon="2.13504">
        <ele>89</ele>
        <time>2021-03-07T12:38:23.746Z</time>
      </trkpt>
      <trkpt lat="48.56987" lon="2.13505">
        <ele>89</ele>
        <time>2021-03-07T12:38:24.746Z</time>
      </trkpt>
      <trkpt lat="48.56989" lon="2.13507">
        <ele>88</ele>
        <time>2021-03-07T12:38:25.746Z</time>
      </trkpt>
      <trkpt lat="48.56991" lon="2.13508">
        <ele>88</ele>
        <time>2021-03-07T12:38:26.746Z</time>
      </trkpt>
      <trkpt lat="48.56992" lon="2.13509">
        <ele>87</ele>
        <time>2021-03-07T12:38:27.746Z</time>
      </trkpt>
      <trkpt lat="48.56993" lon="2.13511">
        <ele>86</ele>
        <time>2021-03-07T12:38:28.746Z</time>
      </trkpt>
      <trkpt lat="48.56995" lon="2.13512">
        <ele>86</ele>
        <time>2021-03-07T12:38:29.746Z</time>
      </trkpt>
      <trkpt lat="48.56996" lon="2.13514">
        <ele>86</ele>
        <time>2021-03-07T12:38:30.745Z</time>
      </trkpt>
      <trkpt lat="48.56997" lon="2.13515">
        <ele>85</ele>
        <time>2021-03-07T12:38:31.745Z</time>
      </trkpt>
      <trkpt lat="48.56998" lon="2.13516">
        <ele>84</ele>
        <time>2021-03-07T12:38:32.745Z</time>
      </trkpt>
      <trkpt lat="48.56999" lon="2.13518">
        <ele>83</ele>
        <time>2021-03-07T12:38:33.746Z</time>
      </trkpt>
      <trkpt lat="48.57" lon="2.13519">
        <ele>83</ele>
        <time>2021-03-07T12:38:34.746Z</time>
      </trkpt>
      <trkpt lat="48.57002" lon="2.1352">
        <ele>82</ele>
        <time>2021-03-07T12:38:35.746Z</time>
      </trkpt>
      <trkpt lat="48.57003" lon="2.13522">
        <ele>82</ele>
        <time>2021-03-07T12:38:36.746Z</time>
      </trkpt>
      <trkpt lat="48.57005" lon="2.13523">
        <ele>81</ele>
        <time>2021-03-07T12:38:37.745Z</time>
      </trkpt>
      <trkpt lat="48.57006" lon="2.13525">
        <ele>81</ele>
        <time>2021-03-07T12:38:38.745Z</time>
      </trkpt>
      <trkpt lat="48.57007" lon="2.13527">
        <ele>81</ele>
        <time>2021-03-07T12:38:39.745Z</time>
      </trkpt>
      <trkpt lat="48.57008" lon="2.13529">
        <ele>82</ele>
        <time>2021-03-07T12:38:40.746Z</time>
      </trkpt>
      <trkpt lat="48.57009" lon="2.1353">
        <ele>82</ele>
        <time>2021-03-07T12:38:41.746Z</time>
      </trkpt>
      <trkpt lat="48.5701" lon="2.13533">
        <ele>82</ele>
        <time>2021-03-07T12:38:42.746Z</time>
      </trkpt>
      <trkpt lat="48.57011" lon="2.13535">
        <ele>82</ele>
        <time>2021-03-07T12:38:43.745Z</time>
      </trkpt>
      <trkpt lat="48.57012" lon="2.13536">
        <ele>83</ele>
        <time>2021-03-07T12:38:44.746Z</time>
      </trkpt>
      <trkpt lat="48.57013" lon="2.13538">
        <ele>83</ele>
        <time>2021-03-07T12:38:45.746Z</time>
      </trkpt>
      <trkpt lat="48.57014" lon="2.1354">
        <ele>83</ele>
        <time>2021-03-07T12:38:46.746Z</time>
      </trkpt>
      <trkpt lat="48.57016" lon="2.13541">
        <ele>82</ele>
        <time>2021-03-07T12:38:47.745Z</time>
      </trkpt>
      <trkpt lat="48.57017" lon="2.13543">
        <ele>82</ele>
        <time>2021-03-07T12:38:48.746Z</time>
      </trkpt>
      <trkpt lat="48.57019" lon="2.13544">
        <ele>82</ele>
        <time>2021-03-07T12:38:49.746Z</time>
      </trkpt>
      <trkpt lat="48.5702" lon="2.13546">
        <ele>82</ele>
        <time>2021-03-07T12:38:50.746Z</time>
      </trkpt>
      <trkpt lat="48.57022" lon="2.13547">
        <ele>81</ele>
        <time>2021-03-07T12:38:51.745Z</time>
      </trkpt>
      <trkpt lat="48.57023" lon="2.13547">
        <ele>81</ele>
        <time>2021-03-07T12:38:52.746Z</time>
      </trkpt>
      <trkpt lat="48.57024" lon="2.13548">
        <ele>81</ele>
        <time>2021-03-07T12:38:53.746Z</time>
      </trkpt>
      <trkpt lat="48.57026" lon="2.13549">
        <ele>81</ele>
        <time>2021-03-07T12:38:54.746Z</time>
      </trkpt>
      <trkpt lat="48.57027" lon="2.1355">
        <ele>81</ele>
        <time>2021-03-07T12:38:55.746Z</time>
      </trkpt>
      <trkpt lat="48.57028" lon="2.13551">
        <ele>81</ele>
        <time>2021-03-07T12:38:56.746Z</time>
      </trkpt>
      <trkpt lat="48.5703" lon="2.13552">
        <ele>81</ele>
        <time>2021-03-07T12:38:57.746Z</time>
      </trkpt>
      <trkpt lat="48.57031" lon="2.13553">
        <ele>81</ele>
        <time>2021-03-07T12:38:58.746Z</time>
      </trkpt>
      <trkpt lat="48.57032" lon="2.13554">
        <ele>81</ele>
        <time>2021-03-07T12:38:59.746Z</time>
      </trkpt>
      <trkpt lat="48.57034" lon="2.13555">
        <ele>81</ele>
        <time>2021-03-07T12:39:00.746Z</time>
      </trkpt>
      <trkpt lat="48.57036" lon="2.13556">
        <ele>81</ele>
        <time>2021-03-07T12:39:01.746Z</time>
      </trkpt>
      <trkpt lat="48.57037" lon="2.13557">
        <ele>81</ele>
        <time>2021-03-07T12:39:02.746Z</time>
      </trkpt>
      <trkpt lat="48.57038" lon="2.13558">
        <ele>81</ele>
        <time>2021-03-07T12:39:03.746Z</time>
      </trkpt>
      <trkpt lat="48.57039" lon="2.13558">
        <ele>81</ele>
        <time>2021-03-07T12:39:04.746Z</time>
      </trkpt>
      <trkpt lat="48.5704" lon="2.13559">
        <ele>81</ele>
        <time>2021-03-07T12:39:05.745Z</time>
      </trkpt>
      <trkpt lat="48.57042" lon="2.1356">
        <ele>82</ele>
        <time>2021-03-07T12:39:06.746Z</time>
      </trkpt>
      <trkpt lat="48.57042" lon="2.1356">
        <ele>82</ele>
        <time>2021-03-07T12:39:07.746Z</time>
      </trkpt>
      <trkpt lat="48.57044" lon="2.13561">
        <ele>82</ele>
        <time>2021-03-07T12:39:08.746Z</time>
      </trkpt>
      <trkpt lat="48.57045" lon="2.13561">
        <ele>82</ele>
        <time>2021-03-07T12:39:09.746Z</time>
      </trkpt>
      <trkpt lat="48.57046" lon="2.13561">
        <ele>82</ele>
        <time>2021-03-07T12:39:10.746Z</time>
      </trkpt>
      <trkpt lat="48.57048" lon="2.13561">
        <ele>82</ele>
        <time>2021-03-07T12:39:11.746Z</time>
      </trkpt>
      <trkpt lat="48.57049" lon="2.13561">
        <ele>82</ele>
        <time>2021-03-07T12:39:12.746Z</time>
      </trkpt>
      <trkpt lat="48.5705" lon="2.13561">
        <ele>82</ele>
        <time>2021-03-07T12:39:13.746Z</time>
      </trkpt>
      <trkpt lat="48.57051" lon="2.13561">
        <ele>83</ele>
        <time>2021-03-07T12:39:14.746Z</time>
      </trkpt>
      <trkpt lat="48.57053" lon="2.13561">
        <ele>83</ele>
        <time>2021-03-07T12:39:15.746Z</time>
      </trkpt>
      <trkpt lat="48.57055" lon="2.1356">
        <ele>83</ele>
        <time>2021-03-07T12:39:16.746Z</time>
      </trkpt>
      <trkpt lat="48.57057" lon="2.1356">
        <ele>82</ele>
        <time>2021-03-07T12:39:17.746Z</time>
      </trkpt>
      <trkpt lat="48.57058" lon="2.1356">
        <ele>82</ele>
        <time>2021-03-07T12:39:18.746Z</time>
      </trkpt>
      <trkpt lat="48.57059" lon="2.13561">
        <ele>82</ele>
        <time>2021-03-07T12:39:19.745Z</time>
      </trkpt>
      <trkpt lat="48.5706" lon="2.13561">
        <ele>82</ele>
        <time>2021-03-07T12:39:20.746Z</time>
      </trkpt>
      <trkpt lat="48.57061" lon="2.13561">
        <ele>82</ele>
        <time>2021-03-07T12:39:21.746Z</time>
      </trkpt>
      <trkpt lat="48.57062" lon="2.13561">
        <ele>83</ele>
        <time>2021-03-07T12:39:22.746Z</time>
      </trkpt>
      <trkpt lat="48.57063" lon="2.1356">
        <ele>83</ele>
        <time>2021-03-07T12:39:23.746Z</time>
      </trkpt>
      <trkpt lat="48.57066" lon="2.13561">
        <ele>84</ele>
        <time>2021-03-07T12:39:24.745Z</time>
      </trkpt>
      <trkpt lat="48.57068" lon="2.13562">
        <ele>84</ele>
        <time>2021-03-07T12:39:25.746Z</time>
      </trkpt>
      <trkpt lat="48.5707" lon="2.13562">
        <ele>84</ele>
        <time>2021-03-07T12:39:26.746Z</time>
      </trkpt>
      <trkpt lat="48.57071" lon="2.13562">
        <ele>85</ele>
        <time>2021-03-07T12:39:27.746Z</time>
      </trkpt>
      <trkpt lat="48.57072" lon="2.13562">
        <ele>85</ele>
        <time>2021-03-07T12:39:28.745Z</time>
      </trkpt>
      <trkpt lat="48.57073" lon="2.13562">
        <ele>85</ele>
        <time>2021-03-07T12:39:29.745Z</time>
      </trkpt>
      <trkpt lat="48.57074" lon="2.13562">
        <ele>85</ele>
        <time>2021-03-07T12:39:30.746Z</time>
      </trkpt>
      <trkpt lat="48.57075" lon="2.13562">
        <ele>86</ele>
        <time>2021-03-07T12:39:31.746Z</time>
      </trkpt>
      <trkpt lat="48.57077" lon="2.13562">
        <ele>86</ele>
        <time>2021-03-07T12:39:32.746Z</time>
      </trkpt>
      <trkpt lat="48.57079" lon="2.13562">
        <ele>87</ele>
        <time>2021-03-07T12:39:33.746Z</time>
      </trkpt>
      <trkpt lat="48.57081" lon="2.13564">
        <ele>87</ele>
        <time>2021-03-07T12:39:34.746Z</time>
      </trkpt>
      <trkpt lat="48.57082" lon="2.13564">
        <ele>87</ele>
        <time>2021-03-07T12:39:35.746Z</time>
      </trkpt>
      <trkpt lat="48.57083" lon="2.13565">
        <ele>88</ele>
        <time>2021-03-07T12:39:36.745Z</time>
      </trkpt>
      <trkpt lat="48.57084" lon="2.13565">
        <ele>88</ele>
        <time>2021-03-07T12:39:37.745Z</time>
      </trkpt>
      <trkpt lat="48.57085" lon="2.13566">
        <ele>89</ele>
        <time>2021-03-07T12:39:38.746Z</time>
      </trkpt>
      <trkpt lat="48.57087" lon="2.13566">
        <ele>89</ele>
        <time>2021-03-07T12:39:39.746Z</time>
      </trkpt>
      <trkpt lat="48.57088" lon="2.13566">
        <ele>90</ele>
        <time>2021-03-07T12:39:40.746Z</time>
      </trkpt>
      <trkpt lat="48.5709" lon="2.13567">
        <ele>90</ele>
        <time>2021-03-07T12:39:41.746Z</time>
      </trkpt>
      <trkpt lat="48.57091" lon="2.13567">
        <ele>91</ele>
        <time>2021-03-07T12:39:42.746Z</time>
      </trkpt>
      <trkpt lat="48.57092" lon="2.13568">
        <ele>91</ele>
        <time>2021-03-07T12:39:43.746Z</time>
      </trkpt>
      <trkpt lat="48.57094" lon="2.13568">
        <ele>91</ele>
        <time>2021-03-07T12:39:44.746Z</time>
      </trkpt>
      <trkpt lat="48.57095" lon="2.13569">
        <ele>92</ele>
        <time>2021-03-07T12:39:45.746Z</time>
      </trkpt>
      <trkpt lat="48.57097" lon="2.1357">
        <ele>92</ele>
        <time>2021-03-07T12:39:46.746Z</time>
      </trkpt>
      <trkpt lat="48.57099" lon="2.1357">
        <ele>92</ele>
        <time>2021-03-07T12:39:47.746Z</time>
      </trkpt>
      <trkpt lat="48.57101" lon="2.13571">
        <ele>92</ele>
        <time>2021-03-07T12:39:48.746Z</time>
      </trkpt>
      <trkpt lat="48.57104" lon="2.13572">
        <ele>92</ele>
        <time>2021-03-07T12:39:49.746Z</time>
      </trkpt>
      <trkpt lat="48.57106" lon="2.13573">
        <ele>91</ele>
        <time>2021-03-07T12:39:50.745Z</time>
      </trkpt>
      <trkpt lat="48.57107" lon="2.13573">
        <ele>91</ele>
        <time>2021-03-07T12:39:51.745Z</time>
      </trkpt>
      <trkpt lat="48.57108" lon="2.13573">
        <ele>92</ele>
        <time>2021-03-07T12:39:52.745Z</time>
      </trkpt>
      <trkpt lat="48.5711" lon="2.13573">
        <ele>91</ele>
        <time>2021-03-07T12:39:53.745Z</time>
      </trkpt>
      <trkpt lat="48.57112" lon="2.13573">
        <ele>91</ele>
        <time>2021-03-07T12:39:54.746Z</time>
      </trkpt>
      <trkpt lat="48.57113" lon="2.13573">
        <ele>91</ele>
        <time>2021-03-07T12:39:55.745Z</time>
      </trkpt>
      <trkpt lat="48.57115" lon="2.13573">
        <ele>91</ele>
        <time>2021-03-07T12:39:56.746Z</time>
      </trkpt>
      <trkpt lat="48.57117" lon="2.13574">
        <ele>91</ele>
        <time>2021-03-07T12:39:57.745Z</time>
      </trkpt>
      <trkpt lat="48.57119" lon="2.13574">
        <ele>91</ele>
        <time>2021-03-07T12:39:58.746Z</time>
      </trkpt>
      <trkpt lat="48.5712" lon="2.13575">
        <ele>91</ele>
        <time>2021-03-07T12:39:59.746Z</time>
      </trkpt>
      <trkpt lat="48.57121" lon="2.13576">
        <ele>90</ele>
        <time>2021-03-07T12:40:00.746Z</time>
      </trkpt>
      <trkpt lat="48.57123" lon="2.13577">
        <ele>90</ele>
        <time>2021-03-07T12:40:01.746Z</time>
      </trkpt>
      <trkpt lat="48.57125" lon="2.13577">
        <ele>90</ele>
        <time>2021-03-07T12:40:02.746Z</time>
      </trkpt>
      <trkpt lat="48.57127" lon="2.13578">
        <ele>90</ele>
        <time>2021-03-07T12:40:03.746Z</time>
      </trkpt>
      <trkpt lat="48.57128" lon="2.13578">
        <ele>90</ele>
        <time>2021-03-07T12:40:04.746Z</time>
      </trkpt>
      <trkpt lat="48.57131" lon="2.13579">
        <ele>91</ele>
        <time>2021-03-07T12:40:05.746Z</time>
      </trkpt>
      <trkpt lat="48.57133" lon="2.13579">
        <ele>91</ele>
        <time>2021-03-07T12:40:06.746Z</time>
      </trkpt>
      <trkpt lat="48.57134" lon="2.13578">
        <ele>91</ele>
        <time>2021-03-07T12:40:07.746Z</time>
      </trkpt>
      <trkpt lat="48.57135" lon="2.13578">
        <ele>91</ele>
        <time>2021-03-07T12:40:08.745Z</time>
      </trkpt>
      <trkpt lat="48.57136" lon="2.13578">
        <ele>91</ele>
        <time>2021-03-07T12:40:09.746Z</time>
      </trkpt>
      <trkpt lat="48.57137" lon="2.13577">
        <ele>91</ele>
        <time>2021-03-07T12:40:10.746Z</time>
      </trkpt>
      <trkpt lat="48.57138" lon="2.13576">
        <ele>90</ele>
        <time>2021-03-07T12:40:11.746Z</time>
      </trkpt>
      <trkpt lat="48.57139" lon="2.13575">
        <ele>90</ele>
        <time>2021-03-07T12:40:12.745Z</time>
      </trkpt>
      <trkpt lat="48.57139" lon="2.13575">
        <ele>90</ele>
        <time>2021-03-07T12:40:13.745Z</time>
      </trkpt>
      <trkpt lat="48.5714" lon="2.13575">
        <ele>90</ele>
        <time>2021-03-07T12:40:14.745Z</time>
      </trkpt>
      <trkpt lat="48.57141" lon="2.13575">
        <ele>90</ele>
        <time>2021-03-07T12:40:15.746Z</time>
      </trkpt>
      <trkpt lat="48.57142" lon="2.13575">
        <ele>90</ele>
        <time>2021-03-07T12:40:16.746Z</time>
      </trkpt>
      <trkpt lat="48.57143" lon="2.13575">
        <ele>89</ele>
        <time>2021-03-07T12:40:17.746Z</time>
      </trkpt>
      <trkpt lat="48.57145" lon="2.13575">
        <ele>89</ele>
        <time>2021-03-07T12:40:18.746Z</time>
      </trkpt>
      <trkpt lat="48.57145" lon="2.13575">
        <ele>89</ele>
        <time>2021-03-07T12:40:19.746Z</time>
      </trkpt>
      <trkpt lat="48.57147" lon="2.13575">
        <ele>89</ele>
        <time>2021-03-07T12:40:20.746Z</time>
      </trkpt>
      <trkpt lat="48.57148" lon="2.13575">
        <ele>88</ele>
        <time>2021-03-07T12:40:21.745Z</time>
      </trkpt>
      <trkpt lat="48.5715" lon="2.13576">
        <ele>88</ele>
        <time>2021-03-07T12:40:22.746Z</time>
      </trkpt>
      <trkpt lat="48.57153" lon="2.13577">
        <ele>88</ele>
        <time>2021-03-07T12:40:23.746Z</time>
      </trkpt>
      <trkpt lat="48.57155" lon="2.13578">
        <ele>88</ele>
        <time>2021-03-07T12:40:24.746Z</time>
      </trkpt>
      <trkpt lat="48.57156" lon="2.13579">
        <ele>88</ele>
        <time>2021-03-07T12:40:25.746Z</time>
      </trkpt>
      <trkpt lat="48.57157" lon="2.13579">
        <ele>87</ele>
        <time>2021-03-07T12:40:26.746Z</time>
      </trkpt>
      <trkpt lat="48.57159" lon="2.13579">
        <ele>87</ele>
        <time>2021-03-07T12:40:27.746Z</time>
      </trkpt>
      <trkpt lat="48.57161" lon="2.13579">
        <ele>87</ele>
        <time>2021-03-07T12:40:28.746Z</time>
      </trkpt>
      <trkpt lat="48.57163" lon="2.1358">
        <ele>86</ele>
        <time>2021-03-07T12:40:29.745Z</time>
      </trkpt>
      <trkpt lat="48.57165" lon="2.13581">
        <ele>86</ele>
        <time>2021-03-07T12:40:30.745Z</time>
      </trkpt>
      <trkpt lat="48.57167" lon="2.13582">
        <ele>86</ele>
        <time>2021-03-07T12:40:31.745Z</time>
      </trkpt>
      <trkpt lat="48.57168" lon="2.13584">
        <ele>86</ele>
        <time>2021-03-07T12:40:32.745Z</time>
      </trkpt>
      <trkpt lat="48.5717" lon="2.13585">
        <ele>85</ele>
        <time>2021-03-07T12:40:33.746Z</time>
      </trkpt>
      <trkpt lat="48.57171" lon="2.13585">
        <ele>85</ele>
        <time>2021-03-07T12:40:34.746Z</time>
      </trkpt>
      <trkpt lat="48.57172" lon="2.13586">
        <ele>85</ele>
        <time>2021-03-07T12:40:35.746Z</time>
      </trkpt>
      <trkpt lat="48.57173" lon="2.13586">
        <ele>84</ele>
        <time>2021-03-07T12:40:36.746Z</time>
      </trkpt>
      <trkpt lat="48.57175" lon="2.13587">
        <ele>84</ele>
        <time>2021-03-07T12:40:37.746Z</time>
      </trkpt>
      <trkpt lat="48.57177" lon="2.13587">
        <ele>84</ele>
        <time>2021-03-07T12:40:38.746Z</time>
      </trkpt>
      <trkpt lat="48.57179" lon="2.13588">
        <ele>84</ele>
        <time>2021-03-07T12:40:39.746Z</time>
      </trkpt>
      <trkpt lat="48.57182" lon="2.13588">
        <ele>83</ele>
        <time>2021-03-07T12:40:40.746Z</time>
      </trkpt>
      <trkpt lat="48.57183" lon="2.13589">
        <ele>83</ele>
        <time>2021-03-07T12:40:41.746Z</time>
      </trkpt>
      <trkpt lat="48.57184" lon="2.13589">
        <ele>83</ele>
        <time>2021-03-07T12:40:42.746Z</time>
      </trkpt>
      <trkpt lat="48.57184" lon="2.13589">
        <ele>83</ele>
        <time>2021-03-07T12:40:43.746Z</time>
      </trkpt>
      <trkpt lat="48.57185" lon="2.13589">
        <ele>83</ele>
        <time>2021-03-07T12:40:44.746Z</time>
      </trkpt>
      <trkpt lat="48.57186" lon="2.13589">
        <ele>83</ele>
        <time>2021-03-07T12:40:45.746Z</time>
      </trkpt>
      <trkpt lat="48.57187" lon="2.13589">
        <ele>83</ele>
        <time>2021-03-07T12:40:46.746Z</time>
      </trkpt>
      <trkpt lat="48.57188" lon="2.13589">
        <ele>84</ele>
        <time>2021-03-07T12:40:47.745Z</time>
      </trkpt>
      <trkpt lat="48.57189" lon="2.13589">
        <ele>83</ele>
        <time>2021-03-07T12:40:48.745Z</time>
      </trkpt>
      <trkpt lat="48.5719" lon="2.13589">
        <ele>83</ele>
        <time>2021-03-07T12:40:49.745Z</time>
      </trkpt>
      <trkpt lat="48.57191" lon="2.1359">
        <ele>83</ele>
        <time>2021-03-07T12:40:50.746Z</time>
      </trkpt>
      <trkpt lat="48.57192" lon="2.1359">
        <ele>83</ele>
        <time>2021-03-07T12:40:51.746Z</time>
      </trkpt>
      <trkpt lat="48.57194" lon="2.13591">
        <ele>83</ele>
        <time>2021-03-07T12:40:52.746Z</time>
      </trkpt>
      <trkpt lat="48.57195" lon="2.13592">
        <ele>82</ele>
        <time>2021-03-07T12:40:53.745Z</time>
      </trkpt>
      <trkpt lat="48.57197" lon="2.13593">
        <ele>82</ele>
        <time>2021-03-07T12:40:54.745Z</time>
      </trkpt>
      <trkpt lat="48.57198" lon="2.13594">
        <ele>81</ele>
        <time>2021-03-07T12:40:55.745Z</time>
      </trkpt>
      <trkpt lat="48.572" lon="2.13596">
        <ele>80</ele>
        <time>2021-03-07T12:40:56.746Z</time>
      </trkpt>
      <trkpt lat="48.57201" lon="2.13597">
        <ele>79</ele>
        <time>2021-03-07T12:40:57.746Z</time>
      </trkpt>
      <trkpt lat="48.57201" lon="2.13597">
        <ele>78</ele>
        <time>2021-03-07T12:40:58.746Z</time>
      </trkpt>
      <trkpt lat="48.57201" lon="2.13597">
        <ele>78</ele>
        <time>2021-03-07T12:40:59.746Z</time>
      </trkpt>
      <trkpt lat="48.57201" lon="2.13596">
        <ele>77</ele>
        <time>2021-03-07T12:41:00.746Z</time>
      </trkpt>
      <trkpt lat="48.57201" lon="2.13596">
        <ele>77</ele>
        <time>2021-03-07T12:41:01.746Z</time>
      </trkpt>
      <trkpt lat="48.57201" lon="2.13596">
        <ele>77</ele>
        <time>2021-03-07T12:41:02.746Z</time>
      </trkpt>
      <trkpt lat="48.57202" lon="2.13597">
        <ele>77</ele>
        <time>2021-03-07T12:41:03.746Z</time>
      </trkpt>
      <trkpt lat="48.57203" lon="2.13598">
        <ele>77</ele>
        <time>2021-03-07T12:41:04.746Z</time>
      </trkpt>
      <trkpt lat="48.57204" lon="2.13598">
        <ele>76</ele>
        <time>2021-03-07T12:41:05.746Z</time>
      </trkpt>
      <trkpt lat="48.57205" lon="2.13599">
        <ele>76</ele>
        <time>2021-03-07T12:41:06.746Z</time>
      </trkpt>
      <trkpt lat="48.57206" lon="2.136">
        <ele>76</ele>
        <time>2021-03-07T12:41:07.746Z</time>
      </trkpt>
      <trkpt lat="48.57207" lon="2.136">
        <ele>76</ele>
        <time>2021-03-07T12:41:08.746Z</time>
      </trkpt>
      <trkpt lat="48.57208" lon="2.136">
        <ele>76</ele>
        <time>2021-03-07T12:41:09.746Z</time>
      </trkpt>
      <trkpt lat="48.57208" lon="2.13601">
        <ele>76</ele>
        <time>2021-03-07T12:41:10.745Z</time>
      </trkpt>
      <trkpt lat="48.5721" lon="2.13601">
        <ele>76</ele>
        <time>2021-03-07T12:41:11.746Z</time>
      </trkpt>
      <trkpt lat="48.57211" lon="2.13601">
        <ele>76</ele>
        <time>2021-03-07T12:41:12.745Z</time>
      </trkpt>
      <trkpt lat="48.57213" lon="2.13601">
        <ele>76</ele>
        <time>2021-03-07T12:41:13.745Z</time>
      </trkpt>
      <trkpt lat="48.57214" lon="2.13601">
        <ele>76</ele>
        <time>2021-03-07T12:41:14.746Z</time>
      </trkpt>
      <trkpt lat="48.57215" lon="2.13601">
        <ele>76</ele>
        <time>2021-03-07T12:41:15.746Z</time>
      </trkpt>
      <trkpt lat="48.57217" lon="2.13602">
        <ele>76</ele>
        <time>2021-03-07T12:41:16.746Z</time>
      </trkpt>
      <trkpt lat="48.57218" lon="2.13602">
        <ele>76</ele>
        <time>2021-03-07T12:41:17.746Z</time>
      </trkpt>
      <trkpt lat="48.57219" lon="2.13603">
        <ele>76</ele>
        <time>2021-03-07T12:41:18.745Z</time>
      </trkpt>
      <trkpt lat="48.57221" lon="2.13603">
        <ele>76</ele>
        <time>2021-03-07T12:41:19.745Z</time>
      </trkpt>
      <trkpt lat="48.57223" lon="2.13604">
        <ele>76</ele>
        <time>2021-03-07T12:41:20.745Z</time>
      </trkpt>
      <trkpt lat="48.57224" lon="2.13605">
        <ele>76</ele>
        <time>2021-03-07T12:41:21.746Z</time>
      </trkpt>
      <trkpt lat="48.57226" lon="2.13605">
        <ele>76</ele>
        <time>2021-03-07T12:41:22.745Z</time>
      </trkpt>
      <trkpt lat="48.57228" lon="2.13606">
        <ele>76</ele>
        <time>2021-03-07T12:41:23.745Z</time>
      </trkpt>
      <trkpt lat="48.5723" lon="2.13606">
        <ele>76</ele>
        <time>2021-03-07T12:41:24.745Z</time>
      </trkpt>
      <trkpt lat="48.57232" lon="2.13606">
        <ele>76</ele>
        <time>2021-03-07T12:41:25.746Z</time>
      </trkpt>
      <trkpt lat="48.57233" lon="2.13605">
        <ele>76</ele>
        <time>2021-03-07T12:41:26.746Z</time>
      </trkpt>
      <trkpt lat="48.57234" lon="2.13605">
        <ele>76</ele>
        <time>2021-03-07T12:41:27.745Z</time>
      </trkpt>
      <trkpt lat="48.57236" lon="2.13605">
        <ele>76</ele>
        <time>2021-03-07T12:41:28.746Z</time>
      </trkpt>
      <trkpt lat="48.57238" lon="2.13605">
        <ele>75</ele>
        <time>2021-03-07T12:41:29.746Z</time>
      </trkpt>
      <trkpt lat="48.5724" lon="2.13606">
        <ele>75</ele>
        <time>2021-03-07T12:41:30.746Z</time>
      </trkpt>
      <trkpt lat="48.57241" lon="2.13607">
        <ele>74</ele>
        <time>2021-03-07T12:41:31.745Z</time>
      </trkpt>
      <trkpt lat="48.57242" lon="2.13608">
        <ele>74</ele>
        <time>2021-03-07T12:41:32.746Z</time>
      </trkpt>
      <trkpt lat="48.57244" lon="2.13609">
        <ele>74</ele>
        <time>2021-03-07T12:41:33.746Z</time>
      </trkpt>
      <trkpt lat="48.57245" lon="2.13611">
        <ele>73</ele>
        <time>2021-03-07T12:41:34.745Z</time>
      </trkpt>
      <trkpt lat="48.57246" lon="2.13613">
        <ele>72</ele>
        <time>2021-03-07T12:41:35.746Z</time>
      </trkpt>
      <trkpt lat="48.57247" lon="2.13615">
        <ele>71</ele>
        <time>2021-03-07T12:41:36.746Z</time>
      </trkpt>
      <trkpt lat="48.57247" lon="2.13617">
        <ele>70</ele>
        <time>2021-03-07T12:41:37.746Z</time>
      </trkpt>
      <trkpt lat="48.57248" lon="2.13619">
        <ele>70</ele>
        <time>2021-03-07T12:41:38.746Z</time>
      </trkpt>
      <trkpt lat="48.57248" lon="2.13621">
        <ele>69</ele>
        <time>2021-03-07T12:41:39.746Z</time>
      </trkpt>
      <trkpt lat="48.57249" lon="2.13623">
        <ele>69</ele>
        <time>2021-03-07T12:41:40.745Z</time>
      </trkpt>
      <trkpt lat="48.5725" lon="2.13625">
        <ele>68</ele>
        <time>2021-03-07T12:41:41.745Z</time>
      </trkpt>
      <trkpt lat="48.5725" lon="2.13627">
        <ele>67</ele>
        <time>2021-03-07T12:41:42.745Z</time>
      </trkpt>
      <trkpt lat="48.57251" lon="2.13629">
        <ele>66</ele>
        <time>2021-03-07T12:41:43.746Z</time>
      </trkpt>
      <trkpt lat="48.57252" lon="2.13631">
        <ele>66</ele>
        <time>2021-03-07T12:41:44.746Z</time>
      </trkpt>
      <trkpt lat="48.57253" lon="2.13633">
        <ele>65</ele>
        <time>2021-03-07T12:41:45.745Z</time>
      </trkpt>
      <trkpt lat="48.57254" lon="2.13636">
        <ele>65</ele>
        <time>2021-03-07T12:41:46.746Z</time>
      </trkpt>
      <trkpt lat="48.57254" lon="2.13638">
        <ele>64</ele>
        <time>2021-03-07T12:41:47.745Z</time>
      </trkpt>
      <trkpt lat="48.57255" lon="2.1364">
        <ele>64</ele>
        <time>2021-03-07T12:41:48.745Z</time>
      </trkpt>
      <trkpt lat="48.57256" lon="2.13642">
        <ele>64</ele>
        <time>2021-03-07T12:41:49.745Z</time>
      </trkpt>
      <trkpt lat="48.57257" lon="2.13644">
        <ele>63</ele>
        <time>2021-03-07T12:41:50.745Z</time>
      </trkpt>
      <trkpt lat="48.57257" lon="2.13646">
        <ele>63</ele>
        <time>2021-03-07T12:41:51.746Z</time>
      </trkpt>
      <trkpt lat="48.57257" lon="2.13649">
        <ele>63</ele>
        <time>2021-03-07T12:41:52.746Z</time>
      </trkpt>
      <trkpt lat="48.57257" lon="2.13651">
        <ele>63</ele>
        <time>2021-03-07T12:41:53.745Z</time>
      </trkpt>
      <trkpt lat="48.57257" lon="2.13653">
        <ele>63</ele>
        <time>2021-03-07T12:41:54.745Z</time>
      </trkpt>
      <trkpt lat="48.57257" lon="2.13656">
        <ele>63</ele>
        <time>2021-03-07T12:41:55.745Z</time>
      </trkpt>
      <trkpt lat="48.57258" lon="2.13658">
        <ele>63</ele>
        <time>2021-03-07T12:41:56.745Z</time>
      </trkpt>
      <trkpt lat="48.57259" lon="2.1366">
        <ele>63</ele>
        <time>2021-03-07T12:41:57.746Z</time>
      </trkpt>
      <trkpt lat="48.57259" lon="2.13662">
        <ele>63</ele>
        <time>2021-03-07T12:41:58.746Z</time>
      </trkpt>
      <trkpt lat="48.5726" lon="2.13664">
        <ele>62</ele>
        <time>2021-03-07T12:41:59.746Z</time>
      </trkpt>
      <trkpt lat="48.57261" lon="2.13666">
        <ele>62</ele>
        <time>2021-03-07T12:42:00.746Z</time>
      </trkpt>
      <trkpt lat="48.57262" lon="2.13668">
        <ele>61</ele>
        <time>2021-03-07T12:42:01.745Z</time>
      </trkpt>
      <trkpt lat="48.57263" lon="2.13671">
        <ele>61</ele>
        <time>2021-03-07T12:42:02.745Z</time>
      </trkpt>
      <trkpt lat="48.57263" lon="2.13673">
        <ele>61</ele>
        <time>2021-03-07T12:42:03.746Z</time>
      </trkpt>
      <trkpt lat="48.57264" lon="2.13675">
        <ele>61</ele>
        <time>2021-03-07T12:42:04.746Z</time>
      </trkpt>
      <trkpt lat="48.57264" lon="2.13677">
        <ele>61</ele>
        <time>2021-03-07T12:42:05.746Z</time>
      </trkpt>
      <trkpt lat="48.57265" lon="2.13679">
        <ele>61</ele>
        <time>2021-03-07T12:42:06.746Z</time>
      </trkpt>
      <trkpt lat="48.57266" lon="2.13681">
        <ele>61</ele>
        <time>2021-03-07T12:42:07.746Z</time>
      </trkpt>
      <trkpt lat="48.57267" lon="2.13682">
        <ele>62</ele>
        <time>2021-03-07T12:42:08.746Z</time>
      </trkpt>
      <trkpt lat="48.57267" lon="2.13685">
        <ele>61</ele>
        <time>2021-03-07T12:42:09.746Z</time>
      </trkpt>
      <trkpt lat="48.57268" lon="2.13687">
        <ele>61</ele>
        <time>2021-03-07T12:42:10.746Z</time>
      </trkpt>
      <trkpt lat="48.57268" lon="2.13689">
        <ele>61</ele>
        <time>2021-03-07T12:42:11.745Z</time>
      </trkpt>
      <trkpt lat="48.57268" lon="2.13692">
        <ele>61</ele>
        <time>2021-03-07T12:42:12.746Z</time>
      </trkpt>
      <trkpt lat="48.57268" lon="2.13694">
        <ele>60</ele>
        <time>2021-03-07T12:42:13.746Z</time>
      </trkpt>
      <trkpt lat="48.57269" lon="2.13696">
        <ele>60</ele>
        <time>2021-03-07T12:42:14.746Z</time>
      </trkpt>
      <trkpt lat="48.5727" lon="2.13698">
        <ele>60</ele>
        <time>2021-03-07T12:42:15.746Z</time>
      </trkpt>
      <trkpt lat="48.5727" lon="2.137">
        <ele>60</ele>
        <time>2021-03-07T12:42:16.746Z</time>
      </trkpt>
      <trkpt lat="48.5727" lon="2.13703">
        <ele>60</ele>
        <time>2021-03-07T12:42:17.745Z</time>
      </trkpt>
      <trkpt lat="48.57271" lon="2.13705">
        <ele>59</ele>
        <time>2021-03-07T12:42:18.745Z</time>
      </trkpt>
      <trkpt lat="48.57271" lon="2.13707">
        <ele>59</ele>
        <time>2021-03-07T12:42:19.746Z</time>
      </trkpt>
      <trkpt lat="48.57272" lon="2.13709">
        <ele>59</ele>
        <time>2021-03-07T12:42:20.746Z</time>
      </trkpt>
      <trkpt lat="48.57272" lon="2.13712">
        <ele>58</ele>
        <time>2021-03-07T12:42:21.746Z</time>
      </trkpt>
      <trkpt lat="48.57273" lon="2.13714">
        <ele>58</ele>
        <time>2021-03-07T12:42:22.746Z</time>
      </trkpt>
      <trkpt lat="48.57273" lon="2.13717">
        <ele>58</ele>
        <time>2021-03-07T12:42:23.746Z</time>
      </trkpt>
      <trkpt lat="48.57274" lon="2.13718">
        <ele>57</ele>
        <time>2021-03-07T12:42:24.746Z</time>
      </trkpt>
      <trkpt lat="48.57274" lon="2.1372">
        <ele>57</ele>
        <time>2021-03-07T12:42:25.746Z</time>
      </trkpt>
      <trkpt lat="48.57276" lon="2.13723">
        <ele>58</ele>
        <time>2021-03-07T12:42:26.746Z</time>
      </trkpt>
      <trkpt lat="48.57276" lon="2.13725">
        <ele>58</ele>
        <time>2021-03-07T12:42:27.746Z</time>
      </trkpt>
      <trkpt lat="48.57277" lon="2.13727">
        <ele>58</ele>
        <time>2021-03-07T12:42:28.745Z</time>
      </trkpt>
      <trkpt lat="48.57278" lon="2.13728">
        <ele>58</ele>
        <time>2021-03-07T12:42:29.745Z</time>
      </trkpt>
      <trkpt lat="48.57279" lon="2.13729">
        <ele>58</ele>
        <time>2021-03-07T12:42:30.746Z</time>
      </trkpt>
      <trkpt lat="48.57279" lon="2.13731">
        <ele>58</ele>
        <time>2021-03-07T12:42:31.746Z</time>
      </trkpt>
      <trkpt lat="48.5728" lon="2.13733">
        <ele>59</ele>
        <time>2021-03-07T12:42:32.746Z</time>
      </trkpt>
      <trkpt lat="48.5728" lon="2.13736">
        <ele>59</ele>
        <time>2021-03-07T12:42:33.746Z</time>
      </trkpt>
      <trkpt lat="48.57281" lon="2.13738">
        <ele>60</ele>
        <time>2021-03-07T12:42:34.745Z</time>
      </trkpt>
      <trkpt lat="48.57281" lon="2.1374">
        <ele>60</ele>
        <time>2021-03-07T12:42:35.745Z</time>
      </trkpt>
      <trkpt lat="48.57282" lon="2.13742">
        <ele>60</ele>
        <time>2021-03-07T12:42:36.745Z</time>
      </trkpt>
      <trkpt lat="48.57282" lon="2.13744">
        <ele>60</ele>
        <time>2021-03-07T12:42:37.746Z</time>
      </trkpt>
      <trkpt lat="48.57282" lon="2.13747">
        <ele>60</ele>
        <time>2021-03-07T12:42:38.745Z</time>
      </trkpt>
      <trkpt lat="48.57283" lon="2.13749">
        <ele>60</ele>
        <time>2021-03-07T12:42:39.745Z</time>
      </trkpt>
      <trkpt lat="48.57284" lon="2.13751">
        <ele>60</ele>
        <time>2021-03-07T12:42:40.746Z</time>
      </trkpt>
      <trkpt lat="48.57285" lon="2.13753">
        <ele>60</ele>
        <time>2021-03-07T12:42:41.746Z</time>
      </trkpt>
      <trkpt lat="48.57286" lon="2.13755">
        <ele>60</ele>
        <time>2021-03-07T12:42:42.746Z</time>
      </trkpt>
      <trkpt lat="48.57287" lon="2.13757">
        <ele>60</ele>
        <time>2021-03-07T12:42:43.746Z</time>
      </trkpt>
      <trkpt lat="48.57287" lon="2.13759">
        <ele>60</ele>
        <time>2021-03-07T12:42:44.746Z</time>
      </trkpt>
      <trkpt lat="48.57288" lon="2.13761">
        <ele>60</ele>
        <time>2021-03-07T12:42:45.745Z</time>
      </trkpt>
      <trkpt lat="48.57288" lon="2.13763">
        <ele>60</ele>
        <time>2021-03-07T12:42:46.745Z</time>
      </trkpt>
      <trkpt lat="48.57289" lon="2.13765">
        <ele>60</ele>
        <time>2021-03-07T12:42:47.745Z</time>
      </trkpt>
      <trkpt lat="48.57289" lon="2.13767">
        <ele>60</ele>
        <time>2021-03-07T12:42:48.745Z</time>
      </trkpt>
      <trkpt lat="48.5729" lon="2.13769">
        <ele>60</ele>
        <time>2021-03-07T12:42:49.746Z</time>
      </trkpt>
      <trkpt lat="48.57291" lon="2.13771">
        <ele>61</ele>
        <time>2021-03-07T12:42:50.746Z</time>
      </trkpt>
      <trkpt lat="48.57292" lon="2.13774">
        <ele>61</ele>
        <time>2021-03-07T12:42:51.745Z</time>
      </trkpt>
      <trkpt lat="48.57292" lon="2.13776">
        <ele>61</ele>
        <time>2021-03-07T12:42:52.746Z</time>
      </trkpt>
      <trkpt lat="48.57293" lon="2.13778">
        <ele>61</ele>
        <time>2021-03-07T12:42:53.746Z</time>
      </trkpt>
      <trkpt lat="48.57293" lon="2.1378">
        <ele>61</ele>
        <time>2021-03-07T12:42:54.746Z</time>
      </trkpt>
      <trkpt lat="48.57295" lon="2.13782">
        <ele>61</ele>
        <time>2021-03-07T12:42:55.746Z</time>
      </trkpt>
      <trkpt lat="48.57295" lon="2.13783">
        <ele>61</ele>
        <time>2021-03-07T12:42:56.746Z</time>
      </trkpt>
      <trkpt lat="48.57296" lon="2.13785">
        <ele>61</ele>
        <time>2021-03-07T12:42:57.746Z</time>
      </trkpt>
      <trkpt lat="48.57296" lon="2.13787">
        <ele>61</ele>
        <time>2021-03-07T12:42:58.745Z</time>
      </trkpt>
      <trkpt lat="48.57297" lon="2.13789">
        <ele>61</ele>
        <time>2021-03-07T12:42:59.746Z</time>
      </trkpt>
      <trkpt lat="48.57297" lon="2.13791">
        <ele>61</ele>
        <time>2021-03-07T12:43:00.746Z</time>
      </trkpt>
      <trkpt lat="48.57298" lon="2.13793">
        <ele>61</ele>
        <time>2021-03-07T12:43:01.746Z</time>
      </trkpt>
      <trkpt lat="48.57298" lon="2.13796">
        <ele>61</ele>
        <time>2021-03-07T12:43:02.745Z</time>
      </trkpt>
      <trkpt lat="48.57299" lon="2.13798">
        <ele>60</ele>
        <time>2021-03-07T12:43:03.745Z</time>
      </trkpt>
      <trkpt lat="48.57299" lon="2.138">
        <ele>60</ele>
        <time>2021-03-07T12:43:04.745Z</time>
      </trkpt>
      <trkpt lat="48.573" lon="2.13802">
        <ele>60</ele>
        <time>2021-03-07T12:43:05.745Z</time>
      </trkpt>
      <trkpt lat="48.57301" lon="2.13805">
        <ele>60</ele>
        <time>2021-03-07T12:43:06.746Z</time>
      </trkpt>
      <trkpt lat="48.57301" lon="2.13807">
        <ele>60</ele>
        <time>2021-03-07T12:43:07.745Z</time>
      </trkpt>
      <trkpt lat="48.57302" lon="2.13809">
        <ele>59</ele>
        <time>2021-03-07T12:43:08.746Z</time>
      </trkpt>
      <trkpt lat="48.57302" lon="2.13811">
        <ele>59</ele>
        <time>2021-03-07T12:43:09.746Z</time>
      </trkpt>
      <trkpt lat="48.57303" lon="2.13813">
        <ele>59</ele>
        <time>2021-03-07T12:43:10.746Z</time>
      </trkpt>
      <trkpt lat="48.57304" lon="2.13815">
        <ele>59</ele>
        <time>2021-03-07T12:43:11.746Z</time>
      </trkpt>
      <trkpt lat="48.57304" lon="2.13817">
        <ele>59</ele>
        <time>2021-03-07T12:43:12.746Z</time>
      </trkpt>
      <trkpt lat="48.57305" lon="2.13819">
        <ele>59</ele>
        <time>2021-03-07T12:43:13.746Z</time>
      </trkpt>
      <trkpt lat="48.57306" lon="2.13821">
        <ele>59</ele>
        <time>2021-03-07T12:43:14.746Z</time>
      </trkpt>
      <trkpt lat="48.57306" lon="2.13823">
        <ele>60</ele>
        <time>2021-03-07T12:43:15.746Z</time>
      </trkpt>
      <trkpt lat="48.57307" lon="2.13825">
        <ele>60</ele>
        <time>2021-03-07T12:43:16.745Z</time>
      </trkpt>
      <trkpt lat="48.57307" lon="2.13828">
        <ele>59</ele>
        <time>2021-03-07T12:43:17.746Z</time>
      </trkpt>
      <trkpt lat="48.57308" lon="2.1383">
        <ele>59</ele>
        <time>2021-03-07T12:43:18.746Z</time>
      </trkpt>
      <trkpt lat="48.57309" lon="2.13832">
        <ele>59</ele>
        <time>2021-03-07T12:43:19.746Z</time>
      </trkpt>
      <trkpt lat="48.57309" lon="2.13834">
        <ele>59</ele>
        <time>2021-03-07T12:43:20.746Z</time>
      </trkpt>
      <trkpt lat="48.5731" lon="2.13835">
        <ele>59</ele>
        <time>2021-03-07T12:43:21.746Z</time>
      </trkpt>
      <trkpt lat="48.57311" lon="2.13837">
        <ele>59</ele>
        <time>2021-03-07T12:43:22.745Z</time>
      </trkpt>
      <trkpt lat="48.57311" lon="2.13839">
        <ele>58</ele>
        <time>2021-03-07T12:43:23.745Z</time>
      </trkpt>
      <trkpt lat="48.57312" lon="2.13841">
        <ele>58</ele>
        <time>2021-03-07T12:43:24.745Z</time>
      </trkpt>
      <trkpt lat="48.57312" lon="2.13843">
        <ele>58</ele>
        <time>2021-03-07T12:43:25.745Z</time>
      </trkpt>
      <trkpt lat="48.57313" lon="2.13845">
        <ele>58</ele>
        <time>2021-03-07T12:43:26.746Z</time>
      </trkpt>
      <trkpt lat="48.57313" lon="2.13848">
        <ele>58</ele>
        <time>2021-03-07T12:43:27.746Z</time>
      </trkpt>
      <trkpt lat="48.57314" lon="2.1385">
        <ele>58</ele>
        <time>2021-03-07T12:43:28.746Z</time>
      </trkpt>
      <trkpt lat="48.57314" lon="2.13852">
        <ele>58</ele>
        <time>2021-03-07T12:43:29.746Z</time>
      </trkpt>
      <trkpt lat="48.57315" lon="2.13854">
        <ele>58</ele>
        <time>2021-03-07T12:43:30.746Z</time>
      </trkpt>
      <trkpt lat="48.57315" lon="2.13856">
        <ele>57</ele>
        <time>2021-03-07T12:43:31.746Z</time>
      </trkpt>
      <trkpt lat="48.57316" lon="2.13858">
        <ele>57</ele>
        <time>2021-03-07T12:43:32.746Z</time>
      </trkpt>
      <trkpt lat="48.57316" lon="2.1386">
        <ele>57</ele>
        <time>2021-03-07T12:43:33.746Z</time>
      </trkpt>
      <trkpt lat="48.57317" lon="2.13862">
        <ele>57</ele>
        <time>2021-03-07T12:43:34.746Z</time>
      </trkpt>
      <trkpt lat="48.57317" lon="2.13864">
        <ele>58</ele>
        <time>2021-03-07T12:43:35.745Z</time>
      </trkpt>
      <trkpt lat="48.57317" lon="2.13866">
        <ele>58</ele>
        <time>2021-03-07T12:43:36.746Z</time>
      </trkpt>
      <trkpt lat="48.57317" lon="2.13869">
        <ele>58</ele>
        <time>2021-03-07T12:43:37.746Z</time>
      </trkpt>
      <trkpt lat="48.57317" lon="2.13871">
        <ele>58</ele>
        <time>2021-03-07T12:43:38.746Z</time>
      </trkpt>
      <trkpt lat="48.57318" lon="2.13873">
        <ele>58</ele>
        <time>2021-03-07T12:43:39.745Z</time>
      </trkpt>
      <trkpt lat="48.57318" lon="2.13875">
        <ele>58</ele>
        <time>2021-03-07T12:43:40.746Z</time>
      </trkpt>
      <trkpt lat="48.57319" lon="2.13877">
        <ele>59</ele>
        <time>2021-03-07T12:43:41.746Z</time>
      </trkpt>
      <trkpt lat="48.5732" lon="2.1388">
        <ele>59</ele>
        <time>2021-03-07T12:43:42.745Z</time>
      </trkpt>
      <trkpt lat="48.5732" lon="2.13882">
        <ele>59</ele>
        <time>2021-03-07T12:43:43.745Z</time>
      </trkpt>
      <trkpt lat="48.57321" lon="2.13884">
        <ele>59</ele>
        <time>2021-03-07T12:43:44.746Z</time>
      </trkpt>
      <trkpt lat="48.57322" lon="2.13886">
        <ele>59</ele>
        <time>2021-03-07T12:43:45.745Z</time>
      </trkpt>
      <trkpt lat="48.57323" lon="2.13888">
        <ele>59</ele>
        <time>2021-03-07T12:43:46.745Z</time>
      </trkpt>
      <trkpt lat="48.57324" lon="2.1389">
        <ele>59</ele>
        <time>2021-03-07T12:43:47.746Z</time>
      </trkpt>
      <trkpt lat="48.57324" lon="2.13892">
        <ele>59</ele>
        <time>2021-03-07T12:43:48.746Z</time>
      </trkpt>
      <trkpt lat="48.57325" lon="2.13894">
        <ele>58</ele>
        <time>2021-03-07T12:43:49.745Z</time>
      </trkpt>
      <trkpt lat="48.57326" lon="2.13896">
        <ele>58</ele>
        <time>2021-03-07T12:43:50.746Z</time>
      </trkpt>
      <trkpt lat="48.57327" lon="2.13898">
        <ele>58</ele>
        <time>2021-03-07T12:43:51.745Z</time>
      </trkpt>
      <trkpt lat="48.57327" lon="2.139">
        <ele>58</ele>
        <time>2021-03-07T12:43:52.745Z</time>
      </trkpt>
      <trkpt lat="48.57328" lon="2.13902">
        <ele>58</ele>
        <time>2021-03-07T12:43:53.746Z</time>
      </trkpt>
      <trkpt lat="48.57329" lon="2.13905">
        <ele>58</ele>
        <time>2021-03-07T12:43:54.745Z</time>
      </trkpt>
      <trkpt lat="48.57329" lon="2.13907">
        <ele>58</ele>
        <time>2021-03-07T12:43:55.746Z</time>
      </trkpt>
      <trkpt lat="48.5733" lon="2.13909">
        <ele>58</ele>
        <time>2021-03-07T12:43:56.745Z</time>
      </trkpt>
      <trkpt lat="48.57331" lon="2.13911">
        <ele>58</ele>
        <time>2021-03-07T12:43:57.745Z</time>
      </trkpt>
      <trkpt lat="48.57331" lon="2.13913">
        <ele>58</ele>
        <time>2021-03-07T12:43:58.746Z</time>
      </trkpt>
      <trkpt lat="48.57332" lon="2.13915">
        <ele>58</ele>
        <time>2021-03-07T12:43:59.745Z</time>
      </trkpt>
      <trkpt lat="48.57332" lon="2.13918">
        <ele>58</ele>
        <time>2021-03-07T12:44:00.746Z</time>
      </trkpt>
      <trkpt lat="48.57333" lon="2.1392">
        <ele>58</ele>
        <time>2021-03-07T12:44:01.746Z</time>
      </trkpt>
      <trkpt lat="48.57333" lon="2.13923">
        <ele>58</ele>
        <time>2021-03-07T12:44:02.745Z</time>
      </trkpt>
      <trkpt lat="48.57333" lon="2.13925">
        <ele>58</ele>
        <time>2021-03-07T12:44:03.746Z</time>
      </trkpt>
      <trkpt lat="48.57334" lon="2.13927">
        <ele>59</ele>
        <time>2021-03-07T12:44:04.746Z</time>
      </trkpt>
      <trkpt lat="48.57335" lon="2.13929">
        <ele>59</ele>
        <time>2021-03-07T12:44:05.745Z</time>
      </trkpt>
      <trkpt lat="48.57336" lon="2.13931">
        <ele>59</ele>
        <time>2021-03-07T12:44:06.745Z</time>
      </trkpt>
      <trkpt lat="48.57336" lon="2.13933">
        <ele>59</ele>
        <time>2021-03-07T12:44:07.745Z</time>
      </trkpt>
      <trkpt lat="48.57337" lon="2.13936">
        <ele>60</ele>
        <time>2021-03-07T12:44:08.746Z</time>
      </trkpt>
      <trkpt lat="48.57337" lon="2.13938">
        <ele>60</ele>
        <time>2021-03-07T12:44:09.746Z</time>
      </trkpt>
      <trkpt lat="48.57338" lon="2.1394">
        <ele>60</ele>
        <time>2021-03-07T12:44:10.745Z</time>
      </trkpt>
      <trkpt lat="48.57338" lon="2.13942">
        <ele>61</ele>
        <time>2021-03-07T12:44:11.746Z</time>
      </trkpt>
      <trkpt lat="48.57339" lon="2.13945">
        <ele>60</ele>
        <time>2021-03-07T12:44:12.745Z</time>
      </trkpt>
      <trkpt lat="48.5734" lon="2.13947">
        <ele>60</ele>
        <time>2021-03-07T12:44:13.745Z</time>
      </trkpt>
      <trkpt lat="48.57341" lon="2.13949">
        <ele>60</ele>
        <time>2021-03-07T12:44:14.745Z</time>
      </trkpt>
      <trkpt lat="48.57342" lon="2.13951">
        <ele>61</ele>
        <time>2021-03-07T12:44:15.746Z</time>
      </trkpt>
      <trkpt lat="48.57342" lon="2.13953">
        <ele>60</ele>
        <time>2021-03-07T12:44:16.745Z</time>
      </trkpt>
      <trkpt lat="48.57343" lon="2.13956">
        <ele>60</ele>
        <time>2021-03-07T12:44:17.745Z</time>
      </trkpt>
      <trkpt lat="48.57344" lon="2.13958">
        <ele>60</ele>
        <time>2021-03-07T12:44:18.746Z</time>
      </trkpt>
      <trkpt lat="48.57345" lon="2.1396">
        <ele>60</ele>
        <time>2021-03-07T12:44:19.746Z</time>
      </trkpt>
      <trkpt lat="48.57346" lon="2.13962">
        <ele>60</ele>
        <time>2021-03-07T12:44:20.746Z</time>
      </trkpt>
      <trkpt lat="48.57346" lon="2.13964">
        <ele>60</ele>
        <time>2021-03-07T12:44:21.746Z</time>
      </trkpt>
      <trkpt lat="48.57346" lon="2.13966">
        <ele>60</ele>
        <time>2021-03-07T12:44:22.746Z</time>
      </trkpt>
      <trkpt lat="48.57345" lon="2.13969">
        <ele>60</ele>
        <time>2021-03-07T12:44:23.746Z</time>
      </trkpt>
      <trkpt lat="48.57345" lon="2.13971">
        <ele>60</ele>
        <time>2021-03-07T12:44:24.746Z</time>
      </trkpt>
      <trkpt lat="48.57346" lon="2.13973">
        <ele>60</ele>
        <time>2021-03-07T12:44:25.746Z</time>
      </trkpt>
      <trkpt lat="48.57346" lon="2.13976">
        <ele>60</ele>
        <time>2021-03-07T12:44:26.746Z</time>
      </trkpt>
      <trkpt lat="48.57347" lon="2.13978">
        <ele>60</ele>
        <time>2021-03-07T12:44:27.746Z</time>
      </trkpt>
      <trkpt lat="48.57348" lon="2.13981">
        <ele>60</ele>
        <time>2021-03-07T12:44:28.745Z</time>
      </trkpt>
      <trkpt lat="48.57349" lon="2.13983">
        <ele>60</ele>
        <time>2021-03-07T12:44:29.745Z</time>
      </trkpt>
      <trkpt lat="48.57349" lon="2.13986">
        <ele>60</ele>
        <time>2021-03-07T12:44:30.746Z</time>
      </trkpt>
      <trkpt lat="48.57349" lon="2.13988">
        <ele>60</ele>
        <time>2021-03-07T12:44:31.746Z</time>
      </trkpt>
      <trkpt lat="48.5735" lon="2.13991">
        <ele>60</ele>
        <time>2021-03-07T12:44:32.746Z</time>
      </trkpt>
      <trkpt lat="48.5735" lon="2.13993">
        <ele>60</ele>
        <time>2021-03-07T12:44:33.746Z</time>
      </trkpt>
      <trkpt lat="48.57351" lon="2.13996">
        <ele>60</ele>
        <time>2021-03-07T12:44:34.746Z</time>
      </trkpt>
      <trkpt lat="48.57352" lon="2.13998">
        <ele>60</ele>
        <time>2021-03-07T12:44:35.746Z</time>
      </trkpt>
      <trkpt lat="48.57353" lon="2.14">
        <ele>60</ele>
        <time>2021-03-07T12:44:36.746Z</time>
      </trkpt>
      <trkpt lat="48.57354" lon="2.14001">
        <ele>60</ele>
        <time>2021-03-07T12:44:37.746Z</time>
      </trkpt>
      <trkpt lat="48.57355" lon="2.14003">
        <ele>60</ele>
        <time>2021-03-07T12:44:38.746Z</time>
      </trkpt>
      <trkpt lat="48.57356" lon="2.14005">
        <ele>60</ele>
        <time>2021-03-07T12:44:39.746Z</time>
      </trkpt>
      <trkpt lat="48.57357" lon="2.14007">
        <ele>60</ele>
        <time>2021-03-07T12:44:40.746Z</time>
      </trkpt>
      <trkpt lat="48.57358" lon="2.14008">
        <ele>59</ele>
        <time>2021-03-07T12:44:41.746Z</time>
      </trkpt>
      <trkpt lat="48.57358" lon="2.14009">
        <ele>59</ele>
        <time>2021-03-07T12:44:42.746Z</time>
      </trkpt>
      <trkpt lat="48.57359" lon="2.14011">
        <ele>59</ele>
        <time>2021-03-07T12:44:43.746Z</time>
      </trkpt>
      <trkpt lat="48.5736" lon="2.14013">
        <ele>59</ele>
        <time>2021-03-07T12:44:44.746Z</time>
      </trkpt>
      <trkpt lat="48.57361" lon="2.14015">
        <ele>59</ele>
        <time>2021-03-07T12:44:45.746Z</time>
      </trkpt>
      <trkpt lat="48.57362" lon="2.14017">
        <ele>59</ele>
        <time>2021-03-07T12:44:46.746Z</time>
      </trkpt>
      <trkpt lat="48.57362" lon="2.14019">
        <ele>59</ele>
        <time>2021-03-07T12:44:47.746Z</time>
      </trkpt>
      <trkpt lat="48.57364" lon="2.14021">
        <ele>59</ele>
        <time>2021-03-07T12:44:48.746Z</time>
      </trkpt>
      <trkpt lat="48.57365" lon="2.14022">
        <ele>59</ele>
        <time>2021-03-07T12:44:49.746Z</time>
      </trkpt>
      <trkpt lat="48.57366" lon="2.14024">
        <ele>60</ele>
        <time>2021-03-07T12:44:50.746Z</time>
      </trkpt>
      <trkpt lat="48.57366" lon="2.14026">
        <ele>60</ele>
        <time>2021-03-07T12:44:51.746Z</time>
      </trkpt>
      <trkpt lat="48.57367" lon="2.14028">
        <ele>60</ele>
        <time>2021-03-07T12:44:52.746Z</time>
      </trkpt>
      <trkpt lat="48.57368" lon="2.1403">
        <ele>59</ele>
        <time>2021-03-07T12:44:53.746Z</time>
      </trkpt>
      <trkpt lat="48.57369" lon="2.14032">
        <ele>60</ele>
        <time>2021-03-07T12:44:54.746Z</time>
      </trkpt>
      <trkpt lat="48.5737" lon="2.14033">
        <ele>60</ele>
        <time>2021-03-07T12:44:55.746Z</time>
      </trkpt>
      <trkpt lat="48.5737" lon="2.14035">
        <ele>60</ele>
        <time>2021-03-07T12:44:56.746Z</time>
      </trkpt>
      <trkpt lat="48.57371" lon="2.14037">
        <ele>59</ele>
        <time>2021-03-07T12:44:57.746Z</time>
      </trkpt>
      <trkpt lat="48.57371" lon="2.14038">
        <ele>59</ele>
        <time>2021-03-07T12:44:58.745Z</time>
      </trkpt>
      <trkpt lat="48.57372" lon="2.1404">
        <ele>59</ele>
        <time>2021-03-07T12:44:59.746Z</time>
      </trkpt>
      <trkpt lat="48.57373" lon="2.14041">
        <ele>59</ele>
        <time>2021-03-07T12:45:00.746Z</time>
      </trkpt>
      <trkpt lat="48.57374" lon="2.14042">
        <ele>59</ele>
        <time>2021-03-07T12:45:01.746Z</time>
      </trkpt>
      <trkpt lat="48.57374" lon="2.14043">
        <ele>59</ele>
        <time>2021-03-07T12:45:02.746Z</time>
      </trkpt>
      <trkpt lat="48.57376" lon="2.14045">
        <ele>59</ele>
        <time>2021-03-07T12:45:03.745Z</time>
      </trkpt>
      <trkpt lat="48.57377" lon="2.14046">
        <ele>59</ele>
        <time>2021-03-07T12:45:04.745Z</time>
      </trkpt>
      <trkpt lat="48.57378" lon="2.14047">
        <ele>59</ele>
        <time>2021-03-07T12:45:05.745Z</time>
      </trkpt>
      <trkpt lat="48.5738" lon="2.14049">
        <ele>59</ele>
        <time>2021-03-07T12:45:06.746Z</time>
      </trkpt>
      <trkpt lat="48.57382" lon="2.1405">
        <ele>59</ele>
        <time>2021-03-07T12:45:07.746Z</time>
      </trkpt>
      <trkpt lat="48.57383" lon="2.1405">
        <ele>59</ele>
        <time>2021-03-07T12:45:08.746Z</time>
      </trkpt>
      <trkpt lat="48.57385" lon="2.14051">
        <ele>60</ele>
        <time>2021-03-07T12:45:09.745Z</time>
      </trkpt>
      <trkpt lat="48.57386" lon="2.14052">
        <ele>60</ele>
        <time>2021-03-07T12:45:10.746Z</time>
      </trkpt>
      <trkpt lat="48.57388" lon="2.14052">
        <ele>60</ele>
        <time>2021-03-07T12:45:11.746Z</time>
      </trkpt>
      <trkpt lat="48.57389" lon="2.14053">
        <ele>60</ele>
        <time>2021-03-07T12:45:12.746Z</time>
      </trkpt>
      <trkpt lat="48.57391" lon="2.14053">
        <ele>60</ele>
        <time>2021-03-07T12:45:13.745Z</time>
      </trkpt>
      <trkpt lat="48.57392" lon="2.14052">
        <ele>60</ele>
        <time>2021-03-07T12:45:14.746Z</time>
      </trkpt>
      <trkpt lat="48.57393" lon="2.14052">
        <ele>60</ele>
        <time>2021-03-07T12:45:15.746Z</time>
      </trkpt>
      <trkpt lat="48.57395" lon="2.14051">
        <ele>60</ele>
        <time>2021-03-07T12:45:16.746Z</time>
      </trkpt>
      <trkpt lat="48.57397" lon="2.14051">
        <ele>59</ele>
        <time>2021-03-07T12:45:17.746Z</time>
      </trkpt>
      <trkpt lat="48.57399" lon="2.14051">
        <ele>59</ele>
        <time>2021-03-07T12:45:18.746Z</time>
      </trkpt>
      <trkpt lat="48.57401" lon="2.14052">
        <ele>59</ele>
        <time>2021-03-07T12:45:19.745Z</time>
      </trkpt>
      <trkpt lat="48.57402" lon="2.14052">
        <ele>59</ele>
        <time>2021-03-07T12:45:20.745Z</time>
      </trkpt>
      <trkpt lat="48.57404" lon="2.14052">
        <ele>59</ele>
        <time>2021-03-07T12:45:21.746Z</time>
      </trkpt>
      <trkpt lat="48.57406" lon="2.14052">
        <ele>59</ele>
        <time>2021-03-07T12:45:22.746Z</time>
      </trkpt>
      <trkpt lat="48.57407" lon="2.14052">
        <ele>59</ele>
        <time>2021-03-07T12:45:23.746Z</time>
      </trkpt>
      <trkpt lat="48.57409" lon="2.14052">
        <ele>59</ele>
        <time>2021-03-07T12:45:24.746Z</time>
      </trkpt>
      <trkpt lat="48.5741" lon="2.14053">
        <ele>58</ele>
        <time>2021-03-07T12:45:25.746Z</time>
      </trkpt>
      <trkpt lat="48.57412" lon="2.14053">
        <ele>58</ele>
        <time>2021-03-07T12:45:26.746Z</time>
      </trkpt>
      <trkpt lat="48.57413" lon="2.14053">
        <ele>57</ele>
        <time>2021-03-07T12:45:27.746Z</time>
      </trkpt>
      <trkpt lat="48.57415" lon="2.14053">
        <ele>57</ele>
        <time>2021-03-07T12:45:28.746Z</time>
      </trkpt>
      <trkpt lat="48.57416" lon="2.14053">
        <ele>57</ele>
        <time>2021-03-07T12:45:29.746Z</time>
      </trkpt>
      <trkpt lat="48.57418" lon="2.14052">
        <ele>57</ele>
        <time>2021-03-07T12:45:30.745Z</time>
      </trkpt>
      <trkpt lat="48.57419" lon="2.14052">
        <ele>57</ele>
        <time>2021-03-07T12:45:31.746Z</time>
      </trkpt>
      <trkpt lat="48.57421" lon="2.14052">
        <ele>57</ele>
        <time>2021-03-07T12:45:32.746Z</time>
      </trkpt>
      <trkpt lat="48.57424" lon="2.14052">
        <ele>57</ele>
        <time>2021-03-07T12:45:33.746Z</time>
      </trkpt>
      <trkpt lat="48.57425" lon="2.14052">
        <ele>58</ele>
        <time>2021-03-07T12:45:34.746Z</time>
      </trkpt>
      <trkpt lat="48.57427" lon="2.14052">
        <ele>58</ele>
        <time>2021-03-07T12:45:35.746Z</time>
      </trkpt>
      <trkpt lat="48.57429" lon="2.14052">
        <ele>57</ele>
        <time>2021-03-07T12:45:36.745Z</time>
      </trkpt>
      <trkpt lat="48.5743" lon="2.14052">
        <ele>57</ele>
        <time>2021-03-07T12:45:37.746Z</time>
      </trkpt>
      <trkpt lat="48.57432" lon="2.14052">
        <ele>57</ele>
        <time>2021-03-07T12:45:38.746Z</time>
      </trkpt>
      <trkpt lat="48.57434" lon="2.14051">
        <ele>57</ele>
        <time>2021-03-07T12:45:39.745Z</time>
      </trkpt>
      <trkpt lat="48.57435" lon="2.14051">
        <ele>58</ele>
        <time>2021-03-07T12:45:40.746Z</time>
      </trkpt>
      <trkpt lat="48.57437" lon="2.14051">
        <ele>58</ele>
        <time>2021-03-07T12:45:41.746Z</time>
      </trkpt>
      <trkpt lat="48.57439" lon="2.14051">
        <ele>59</ele>
        <time>2021-03-07T12:45:42.746Z</time>
      </trkpt>
      <trkpt lat="48.57441" lon="2.14051">
        <ele>59</ele>
        <time>2021-03-07T12:45:43.746Z</time>
      </trkpt>
      <trkpt lat="48.57442" lon="2.14051">
        <ele>59</ele>
        <time>2021-03-07T12:45:44.746Z</time>
      </trkpt>
      <trkpt lat="48.57444" lon="2.14051">
        <ele>59</ele>
        <time>2021-03-07T12:45:45.746Z</time>
      </trkpt>
      <trkpt lat="48.57446" lon="2.14051">
        <ele>59</ele>
        <time>2021-03-07T12:45:46.746Z</time>
      </trkpt>
      <trkpt lat="48.57448" lon="2.14051">
        <ele>60</ele>
        <time>2021-03-07T12:45:47.746Z</time>
      </trkpt>
      <trkpt lat="48.57449" lon="2.1405">
        <ele>60</ele>
        <time>2021-03-07T12:45:48.746Z</time>
      </trkpt>
      <trkpt lat="48.57451" lon="2.1405">
        <ele>60</ele>
        <time>2021-03-07T12:45:49.746Z</time>
      </trkpt>
      <trkpt lat="48.57452" lon="2.1405">
        <ele>60</ele>
        <time>2021-03-07T12:45:50.745Z</time>
      </trkpt>
      <trkpt lat="48.57454" lon="2.1405">
        <ele>60</ele>
        <time>2021-03-07T12:45:51.746Z</time>
      </trkpt>
      <trkpt lat="48.57456" lon="2.14051">
        <ele>61</ele>
        <time>2021-03-07T12:45:52.746Z</time>
      </trkpt>
      <trkpt lat="48.57458" lon="2.14051">
        <ele>61</ele>
        <time>2021-03-07T12:45:53.746Z</time>
      </trkpt>
      <trkpt lat="48.5746" lon="2.14051">
        <ele>61</ele>
        <time>2021-03-07T12:45:54.746Z</time>
      </trkpt>
      <trkpt lat="48.57462" lon="2.14051">
        <ele>61</ele>
        <time>2021-03-07T12:45:55.745Z</time>
      </trkpt>
      <trkpt lat="48.57463" lon="2.14051">
        <ele>61</ele>
        <time>2021-03-07T12:45:56.746Z</time>
      </trkpt>
      <trkpt lat="48.57464" lon="2.14051">
        <ele>61</ele>
        <time>2021-03-07T12:45:57.746Z</time>
      </trkpt>
      <trkpt lat="48.57466" lon="2.14051">
        <ele>61</ele>
        <time>2021-03-07T12:45:58.746Z</time>
      </trkpt>
      <trkpt lat="48.57469" lon="2.14051">
        <ele>61</ele>
        <time>2021-03-07T12:45:59.746Z</time>
      </trkpt>
      <trkpt lat="48.5747" lon="2.14051">
        <ele>61</ele>
        <time>2021-03-07T12:46:00.746Z</time>
      </trkpt>
      <trkpt lat="48.57473" lon="2.14051">
        <ele>61</ele>
        <time>2021-03-07T12:46:01.745Z</time>
      </trkpt>
      <trkpt lat="48.57474" lon="2.14051">
        <ele>61</ele>
        <time>2021-03-07T12:46:02.745Z</time>
      </trkpt>
      <trkpt lat="48.57475" lon="2.14051">
        <ele>61</ele>
        <time>2021-03-07T12:46:03.746Z</time>
      </trkpt>
      <trkpt lat="48.57476" lon="2.14051">
        <ele>61</ele>
        <time>2021-03-07T12:46:04.746Z</time>
      </trkpt>
      <trkpt lat="48.57477" lon="2.14051">
        <ele>60</ele>
        <time>2021-03-07T12:46:05.746Z</time>
      </trkpt>
      <trkpt lat="48.57478" lon="2.14051">
        <ele>60</ele>
        <time>2021-03-07T12:46:06.746Z</time>
      </trkpt>
      <trkpt lat="48.5748" lon="2.14051">
        <ele>59</ele>
        <time>2021-03-07T12:46:07.746Z</time>
      </trkpt>
      <trkpt lat="48.57481" lon="2.14051">
        <ele>59</ele>
        <time>2021-03-07T12:46:08.746Z</time>
      </trkpt>
      <trkpt lat="48.57481" lon="2.14051">
        <ele>59</ele>
        <time>2021-03-07T12:46:09.746Z</time>
      </trkpt>
      <trkpt lat="48.57481" lon="2.14051">
        <ele>58</ele>
        <time>2021-03-07T12:46:10.746Z</time>
      </trkpt>
      <trkpt lat="48.57481" lon="2.14052">
        <ele>57</ele>
        <time>2021-03-07T12:46:11.746Z</time>
      </trkpt>
      <trkpt lat="48.57481" lon="2.14052">
        <ele>56</ele>
        <time>2021-03-07T12:46:12.746Z</time>
      </trkpt>
      <trkpt lat="48.57482" lon="2.14051">
        <ele>56</ele>
        <time>2021-03-07T12:46:13.746Z</time>
      </trkpt>
      <trkpt lat="48.57482" lon="2.14051">
        <ele>55</ele>
        <time>2021-03-07T12:46:14.746Z</time>
      </trkpt>
      <trkpt lat="48.57481" lon="2.14051">
        <ele>54</ele>
        <time>2021-03-07T12:46:15.746Z</time>
      </trkpt>
      <trkpt lat="48.57481" lon="2.14051">
        <ele>53</ele>
        <time>2021-03-07T12:46:16.745Z</time>
      </trkpt>
      <trkpt lat="48.57481" lon="2.14051">
        <ele>52</ele>
        <time>2021-03-07T12:46:17.745Z</time>
      </trkpt>
      <trkpt lat="48.57481" lon="2.14051">
        <ele>51</ele>
        <time>2021-03-07T12:46:18.746Z</time>
      </trkpt>
      <trkpt lat="48.5748" lon="2.14051">
        <ele>51</ele>
        <time>2021-03-07T12:46:19.746Z</time>
      </trkpt>
      <trkpt lat="48.57479" lon="2.14051">
        <ele>50</ele>
        <time>2021-03-07T12:46:20.746Z</time>
      </trkpt>
      <trkpt lat="48.57479" lon="2.14051">
        <ele>50</ele>
        <time>2021-03-07T12:46:21.746Z</time>
      </trkpt>
      <trkpt lat="48.57479" lon="2.14051">
        <ele>50</ele>
        <time>2021-03-07T12:46:22.746Z</time>
      </trkpt>
      <trkpt lat="48.57479" lon="2.14051">
        <ele>50</ele>
        <time>2021-03-07T12:46:23.746Z</time>
      </trkpt>
      <trkpt lat="48.57479" lon="2.14051">
        <ele>50</ele>
        <time>2021-03-07T12:46:24.746Z</time>
      </trkpt>
      <trkpt lat="48.57479" lon="2.14051">
        <ele>50</ele>
        <time>2021-03-07T12:46:25.746Z</time>
      </trkpt>
      <trkpt lat="48.57479" lon="2.14051">
        <ele>49</ele>
        <time>2021-03-07T12:46:26.746Z</time>
      </trkpt>
      <trkpt lat="48.57479" lon="2.14051">
        <ele>49</ele>
        <time>2021-03-07T12:46:27.746Z</time>
      </trkpt>
      <trkpt lat="48.57479" lon="2.14051">
        <ele>49</ele>
        <time>2021-03-07T12:46:28.745Z</time>
      </trkpt>
      <trkpt lat="48.57479" lon="2.14051">
        <ele>49</ele>
        <time>2021-03-07T12:46:29.745Z</time>
      </trkpt>
      <trkpt lat="48.57479" lon="2.14051">
        <ele>49</ele>
        <time>2021-03-07T12:46:30.746Z</time>
      </trkpt>
      <trkpt lat="48.57479" lon="2.14051">
        <ele>49</ele>
        <time>2021-03-07T12:46:31.746Z</time>
      </trkpt>
      <trkpt lat="48.57479" lon="2.14051">
        <ele>49</ele>
        <time>2021-03-07T12:46:32.745Z</time>
      </trkpt>
      <trkpt lat="48.57479" lon="2.14051">
        <ele>49</ele>
        <time>2021-03-07T12:46:33.746Z</time>
      </trkpt>
      <trkpt lat="48.57479" lon="2.14051">
        <ele>49</ele>
        <time>2021-03-07T12:46:34.746Z</time>
      </trkpt>
      <trkpt lat="48.57479" lon="2.14051">
        <ele>49</ele>
        <time>2021-03-07T12:46:35.745Z</time>
      </trkpt>
      <trkpt lat="48.57479" lon="2.14051">
        <ele>49</ele>
        <time>2021-03-07T12:46:36.746Z</time>
      </trkpt>
      <trkpt lat="48.5748" lon="2.14051">
        <ele>49</ele>
        <time>2021-03-07T12:46:37.746Z</time>
      </trkpt>
      <trkpt lat="48.5748" lon="2.14051">
        <ele>49</ele>
        <time>2021-03-07T12:46:38.745Z</time>
      </trkpt>
      <trkpt lat="48.5748" lon="2.14051">
        <ele>49</ele>
        <time>2021-03-07T12:46:39.746Z</time>
      </trkpt>
      <trkpt lat="48.5748" lon="2.14051">
        <ele>49</ele>
        <time>2021-03-07T12:46:40.745Z</time>
      </trkpt>
      <trkpt lat="48.5748" lon="2.14051">
        <ele>49</ele>
        <time>2021-03-07T12:46:41.746Z</time>
      </trkpt>
      <trkpt lat="48.5748" lon="2.14051">
        <ele>49</ele>
        <time>2021-03-07T12:46:42.746Z</time>
      </trkpt>
      <trkpt lat="48.5748" lon="2.14051">
        <ele>49</ele>
        <time>2021-03-07T12:46:43.745Z</time>
      </trkpt>
      <trkpt lat="48.57481" lon="2.14051">
        <ele>50</ele>
        <time>2021-03-07T12:46:44.746Z</time>
      </trkpt>
      <trkpt lat="48.57482" lon="2.14051">
        <ele>50</ele>
        <time>2021-03-07T12:46:45.746Z</time>
      </trkpt>
      <trkpt lat="48.57484" lon="2.14051">
        <ele>50</ele>
        <time>2021-03-07T12:46:46.746Z</time>
      </trkpt>
      <trkpt lat="48.57485" lon="2.14051">
        <ele>50</ele>
        <time>2021-03-07T12:46:47.746Z</time>
      </trkpt>
      <trkpt lat="48.57487" lon="2.14051">
        <ele>50</ele>
        <time>2021-03-07T12:46:48.746Z</time>
      </trkpt>
      <trkpt lat="48.57489" lon="2.14051">
        <ele>51</ele>
        <time>2021-03-07T12:46:49.746Z</time>
      </trkpt>
      <trkpt lat="48.57491" lon="2.1405">
        <ele>51</ele>
        <time>2021-03-07T12:46:50.746Z</time>
      </trkpt>
      <trkpt lat="48.57492" lon="2.1405">
        <ele>51</ele>
        <time>2021-03-07T12:46:51.745Z</time>
      </trkpt>
      <trkpt lat="48.57494" lon="2.1405">
        <ele>52</ele>
        <time>2021-03-07T12:46:52.746Z</time>
      </trkpt>
      <trkpt lat="48.57495" lon="2.1405">
        <ele>52</ele>
        <time>2021-03-07T12:46:53.746Z</time>
      </trkpt>
      <trkpt lat="48.57496" lon="2.1405">
        <ele>53</ele>
        <time>2021-03-07T12:46:54.745Z</time>
      </trkpt>
      <trkpt lat="48.57498" lon="2.14049">
        <ele>54</ele>
        <time>2021-03-07T12:46:55.746Z</time>
      </trkpt>
      <trkpt lat="48.57499" lon="2.14049">
        <ele>55</ele>
        <time>2021-03-07T12:46:56.745Z</time>
      </trkpt>
      <trkpt lat="48.57501" lon="2.14049">
        <ele>56</ele>
        <time>2021-03-07T12:46:57.746Z</time>
      </trkpt>
      <trkpt lat="48.57503" lon="2.14049">
        <ele>57</ele>
        <time>2021-03-07T12:46:58.746Z</time>
      </trkpt>
      <trkpt lat="48.57504" lon="2.14049">
        <ele>58</ele>
        <time>2021-03-07T12:46:59.746Z</time>
      </trkpt>
      <trkpt lat="48.57506" lon="2.14047">
        <ele>59</ele>
        <time>2021-03-07T12:47:00.746Z</time>
      </trkpt>
      <trkpt lat="48.57508" lon="2.14046">
        <ele>59</ele>
        <time>2021-03-07T12:47:01.746Z</time>
      </trkpt>
      <trkpt lat="48.57509" lon="2.14045">
        <ele>60</ele>
        <time>2021-03-07T12:47:02.746Z</time>
      </trkpt>
      <trkpt lat="48.57511" lon="2.14045">
        <ele>61</ele>
        <time>2021-03-07T12:47:03.746Z</time>
      </trkpt>
      <trkpt lat="48.57512" lon="2.14045">
        <ele>62</ele>
        <time>2021-03-07T12:47:04.746Z</time>
      </trkpt>
      <trkpt lat="48.57513" lon="2.14045">
        <ele>62</ele>
        <time>2021-03-07T12:47:05.746Z</time>
      </trkpt>
      <trkpt lat="48.57514" lon="2.14045">
        <ele>63</ele>
        <time>2021-03-07T12:47:06.746Z</time>
      </trkpt>
      <trkpt lat="48.57514" lon="2.14044">
        <ele>64</ele>
        <time>2021-03-07T12:47:07.746Z</time>
      </trkpt>
      <trkpt lat="48.57515" lon="2.14044">
        <ele>64</ele>
        <time>2021-03-07T12:47:08.746Z</time>
      </trkpt>
      <trkpt lat="48.57517" lon="2.14043">
        <ele>65</ele>
        <time>2021-03-07T12:47:09.746Z</time>
      </trkpt>
      <trkpt lat="48.57518" lon="2.14042">
        <ele>65</ele>
        <time>2021-03-07T12:47:10.746Z</time>
      </trkpt>
      <trkpt lat="48.57519" lon="2.14041">
        <ele>66</ele>
        <time>2021-03-07T12:47:11.746Z</time>
      </trkpt>
      <trkpt lat="48.5752" lon="2.14041">
        <ele>67</ele>
        <time>2021-03-07T12:47:12.746Z</time>
      </trkpt>
      <trkpt lat="48.57522" lon="2.14041">
        <ele>67</ele>
        <time>2021-03-07T12:47:13.745Z</time>
      </trkpt>
      <trkpt lat="48.57525" lon="2.14041">
        <ele>68</ele>
        <time>2021-03-07T12:47:14.746Z</time>
      </trkpt>
      <trkpt lat="48.57528" lon="2.14041">
        <ele>69</ele>
        <time>2021-03-07T12:47:15.746Z</time>
      </trkpt>
      <trkpt lat="48.5753" lon="2.14041">
        <ele>69</ele>
        <time>2021-03-07T12:47:16.746Z</time>
      </trkpt>
      <trkpt lat="48.57531" lon="2.14041">
        <ele>70</ele>
        <time>2021-03-07T12:47:17.746Z</time>
      </trkpt>
      <trkpt lat="48.57532" lon="2.14041">
        <ele>71</ele>
        <time>2021-03-07T12:47:18.746Z</time>
      </trkpt>
      <trkpt lat="48.57533" lon="2.14041">
        <ele>72</ele>
        <time>2021-03-07T12:47:19.746Z</time>
      </trkpt>
      <trkpt lat="48.57534" lon="2.14041">
        <ele>73</ele>
        <time>2021-03-07T12:47:20.745Z</time>
      </trkpt>
      <trkpt lat="48.57536" lon="2.14041">
        <ele>74</ele>
        <time>2021-03-07T12:47:21.746Z</time>
      </trkpt>
      <trkpt lat="48.57538" lon="2.14041">
        <ele>74</ele>
        <time>2021-03-07T12:47:22.745Z</time>
      </trkpt>
      <trkpt lat="48.57539" lon="2.14041">
        <ele>75</ele>
        <time>2021-03-07T12:47:23.746Z</time>
      </trkpt>
      <trkpt lat="48.5754" lon="2.14041">
        <ele>76</ele>
        <time>2021-03-07T12:47:24.745Z</time>
      </trkpt>
      <trkpt lat="48.57542" lon="2.14041">
        <ele>77</ele>
        <time>2021-03-07T12:47:25.746Z</time>
      </trkpt>
      <trkpt lat="48.57544" lon="2.14042">
        <ele>77</ele>
        <time>2021-03-07T12:47:26.746Z</time>
      </trkpt>
      <trkpt lat="48.57545" lon="2.14042">
        <ele>78</ele>
        <time>2021-03-07T12:47:27.746Z</time>
      </trkpt>
      <trkpt lat="48.57546" lon="2.14041">
        <ele>79</ele>
        <time>2021-03-07T12:47:28.746Z</time>
      </trkpt>
      <trkpt lat="48.57549" lon="2.14041">
        <ele>80</ele>
        <time>2021-03-07T12:47:29.746Z</time>
      </trkpt>
      <trkpt lat="48.57551" lon="2.14041">
        <ele>80</ele>
        <time>2021-03-07T12:47:30.745Z</time>
      </trkpt>
      <trkpt lat="48.57552" lon="2.14041">
        <ele>81</ele>
        <time>2021-03-07T12:47:31.745Z</time>
      </trkpt>
      <trkpt lat="48.57553" lon="2.1404">
        <ele>81</ele>
        <time>2021-03-07T12:47:32.746Z</time>
      </trkpt>
      <trkpt lat="48.57554" lon="2.14041">
        <ele>82</ele>
        <time>2021-03-07T12:47:33.746Z</time>
      </trkpt>
      <trkpt lat="48.57556" lon="2.14041">
        <ele>82</ele>
        <time>2021-03-07T12:47:34.746Z</time>
      </trkpt>
      <trkpt lat="48.57558" lon="2.14041">
        <ele>82</ele>
        <time>2021-03-07T12:47:35.745Z</time>
      </trkpt>
      <trkpt lat="48.57559" lon="2.14041">
        <ele>82</ele>
        <time>2021-03-07T12:47:36.745Z</time>
      </trkpt>
      <trkpt lat="48.57561" lon="2.14042">
        <ele>83</ele>
        <time>2021-03-07T12:47:37.746Z</time>
      </trkpt>
      <trkpt lat="48.57562" lon="2.14042">
        <ele>83</ele>
        <time>2021-03-07T12:47:38.746Z</time>
      </trkpt>
      <trkpt lat="48.57564" lon="2.14042">
        <ele>83</ele>
        <time>2021-03-07T12:47:39.746Z</time>
      </trkpt>
      <trkpt lat="48.57565" lon="2.14042">
        <ele>83</ele>
        <time>2021-03-07T12:47:40.746Z</time>
      </trkpt>
      <trkpt lat="48.57567" lon="2.14042">
        <ele>83</ele>
        <time>2021-03-07T12:47:41.745Z</time>
      </trkpt>
      <trkpt lat="48.57569" lon="2.14042">
        <ele>83</ele>
        <time>2021-03-07T12:47:42.746Z</time>
      </trkpt>
      <trkpt lat="48.5757" lon="2.14043">
        <ele>83</ele>
        <time>2021-03-07T12:47:43.746Z</time>
      </trkpt>
      <trkpt lat="48.57571" lon="2.14042">
        <ele>83</ele>
        <time>2021-03-07T12:47:44.746Z</time>
      </trkpt>
      <trkpt lat="48.57573" lon="2.14043">
        <ele>84</ele>
        <time>2021-03-07T12:47:45.746Z</time>
      </trkpt>
      <trkpt lat="48.57575" lon="2.14043">
        <ele>84</ele>
        <time>2021-03-07T12:47:46.745Z</time>
      </trkpt>
      <trkpt lat="48.57577" lon="2.14043">
        <ele>84</ele>
        <time>2021-03-07T12:47:47.746Z</time>
      </trkpt>
      <trkpt lat="48.57579" lon="2.14042">
        <ele>85</ele>
        <time>2021-03-07T12:47:48.746Z</time>
      </trkpt>
      <trkpt lat="48.57581" lon="2.14041">
        <ele>85</ele>
        <time>2021-03-07T12:47:49.745Z</time>
      </trkpt>
      <trkpt lat="48.57582" lon="2.1404">
        <ele>85</ele>
        <time>2021-03-07T12:47:50.746Z</time>
      </trkpt>
      <trkpt lat="48.57584" lon="2.1404">
        <ele>85</ele>
        <time>2021-03-07T12:47:51.746Z</time>
      </trkpt>
      <trkpt lat="48.57585" lon="2.1404">
        <ele>85</ele>
        <time>2021-03-07T12:47:52.746Z</time>
      </trkpt>
      <trkpt lat="48.57586" lon="2.14039">
        <ele>85</ele>
        <time>2021-03-07T12:47:53.746Z</time>
      </trkpt>
      <trkpt lat="48.57588" lon="2.14038">
        <ele>85</ele>
        <time>2021-03-07T12:47:54.746Z</time>
      </trkpt>
      <trkpt lat="48.57589" lon="2.14037">
        <ele>84</ele>
        <time>2021-03-07T12:47:55.746Z</time>
      </trkpt>
      <trkpt lat="48.5759" lon="2.14037">
        <ele>84</ele>
        <time>2021-03-07T12:47:56.745Z</time>
      </trkpt>
      <trkpt lat="48.57591" lon="2.14035">
        <ele>84</ele>
        <time>2021-03-07T12:47:57.745Z</time>
      </trkpt>
      <trkpt lat="48.57592" lon="2.14034">
        <ele>84</ele>
        <time>2021-03-07T12:47:58.745Z</time>
      </trkpt>
      <trkpt lat="48.57593" lon="2.14033">
        <ele>83</ele>
        <time>2021-03-07T12:47:59.745Z</time>
      </trkpt>
      <trkpt lat="48.57594" lon="2.14032">
        <ele>83</ele>
        <time>2021-03-07T12:48:00.746Z</time>
      </trkpt>
      <trkpt lat="48.57594" lon="2.1403">
        <ele>83</ele>
        <time>2021-03-07T12:48:01.745Z</time>
      </trkpt>
      <trkpt lat="48.57595" lon="2.14029">
        <ele>82</ele>
        <time>2021-03-07T12:48:02.745Z</time>
      </trkpt>
      <trkpt lat="48.57597" lon="2.14028">
        <ele>82</ele>
        <time>2021-03-07T12:48:03.745Z</time>
      </trkpt>
      <trkpt lat="48.57597" lon="2.14026">
        <ele>82</ele>
        <time>2021-03-07T12:48:04.746Z</time>
      </trkpt>
      <trkpt lat="48.57598" lon="2.14024">
        <ele>81</ele>
        <time>2021-03-07T12:48:05.746Z</time>
      </trkpt>
      <trkpt lat="48.576" lon="2.14023">
        <ele>81</ele>
        <time>2021-03-07T12:48:06.746Z</time>
      </trkpt>
      <trkpt lat="48.57601" lon="2.14023">
        <ele>80</ele>
        <time>2021-03-07T12:48:07.745Z</time>
      </trkpt>
      <trkpt lat="48.57602" lon="2.14022">
        <ele>80</ele>
        <time>2021-03-07T12:48:08.746Z</time>
      </trkpt>
      <trkpt lat="48.57603" lon="2.14021">
        <ele>80</ele>
        <time>2021-03-07T12:48:09.746Z</time>
      </trkpt>
      <trkpt lat="48.57604" lon="2.1402">
        <ele>79</ele>
        <time>2021-03-07T12:48:10.746Z</time>
      </trkpt>
      <trkpt lat="48.57604" lon="2.14019">
        <ele>79</ele>
        <time>2021-03-07T12:48:11.746Z</time>
      </trkpt>
      <trkpt lat="48.57604" lon="2.14017">
        <ele>79</ele>
        <time>2021-03-07T12:48:12.746Z</time>
      </trkpt>
      <trkpt lat="48.57605" lon="2.14016">
        <ele>78</ele>
        <time>2021-03-07T12:48:13.745Z</time>
      </trkpt>
      <trkpt lat="48.57606" lon="2.14015">
        <ele>77</ele>
        <time>2021-03-07T12:48:14.746Z</time>
      </trkpt>
      <trkpt lat="48.57606" lon="2.14014">
        <ele>77</ele>
        <time>2021-03-07T12:48:15.746Z</time>
      </trkpt>
      <trkpt lat="48.57607" lon="2.14013">
        <ele>76</ele>
        <time>2021-03-07T12:48:16.746Z</time>
      </trkpt>
      <trkpt lat="48.57608" lon="2.14011">
        <ele>76</ele>
        <time>2021-03-07T12:48:17.746Z</time>
      </trkpt>
      <trkpt lat="48.57608" lon="2.14009">
        <ele>75</ele>
        <time>2021-03-07T12:48:18.745Z</time>
      </trkpt>
      <trkpt lat="48.57609" lon="2.14008">
        <ele>75</ele>
        <time>2021-03-07T12:48:19.746Z</time>
      </trkpt>
      <trkpt lat="48.57611" lon="2.14006">
        <ele>75</ele>
        <time>2021-03-07T12:48:20.746Z</time>
      </trkpt>
      <trkpt lat="48.57612" lon="2.14005">
        <ele>74</ele>
        <time>2021-03-07T12:48:21.746Z</time>
      </trkpt>
      <trkpt lat="48.57612" lon="2.14004">
        <ele>74</ele>
        <time>2021-03-07T12:48:22.746Z</time>
      </trkpt>
      <trkpt lat="48.57613" lon="2.14002">
        <ele>74</ele>
        <time>2021-03-07T12:48:23.746Z</time>
      </trkpt>
      <trkpt lat="48.57614" lon="2.14001">
        <ele>73</ele>
        <time>2021-03-07T12:48:24.745Z</time>
      </trkpt>
      <trkpt lat="48.57614" lon="2.14">
        <ele>73</ele>
        <time>2021-03-07T12:48:25.746Z</time>
      </trkpt>
      <trkpt lat="48.57615" lon="2.13998">
        <ele>72</ele>
        <time>2021-03-07T12:48:26.746Z</time>
      </trkpt>
      <trkpt lat="48.57616" lon="2.13997">
        <ele>72</ele>
        <time>2021-03-07T12:48:27.746Z</time>
      </trkpt>
      <trkpt lat="48.57617" lon="2.13995">
        <ele>71</ele>
        <time>2021-03-07T12:48:28.745Z</time>
      </trkpt>
      <trkpt lat="48.57618" lon="2.13994">
        <ele>71</ele>
        <time>2021-03-07T12:48:29.745Z</time>
      </trkpt>
      <trkpt lat="48.57618" lon="2.13993">
        <ele>71</ele>
        <time>2021-03-07T12:48:30.746Z</time>
      </trkpt>
      <trkpt lat="48.57619" lon="2.13991">
        <ele>71</ele>
        <time>2021-03-07T12:48:31.746Z</time>
      </trkpt>
      <trkpt lat="48.57619" lon="2.1399">
        <ele>70</ele>
        <time>2021-03-07T12:48:32.746Z</time>
      </trkpt>
      <trkpt lat="48.57621" lon="2.13988">
        <ele>69</ele>
        <time>2021-03-07T12:48:33.745Z</time>
      </trkpt>
      <trkpt lat="48.57622" lon="2.13988">
        <ele>68</ele>
        <time>2021-03-07T12:48:34.746Z</time>
      </trkpt>
      <trkpt lat="48.57624" lon="2.13986">
        <ele>67</ele>
        <time>2021-03-07T12:48:35.746Z</time>
      </trkpt>
      <trkpt lat="48.57626" lon="2.13983">
        <ele>66</ele>
        <time>2021-03-07T12:48:36.746Z</time>
      </trkpt>
      <trkpt lat="48.57627" lon="2.13981">
        <ele>66</ele>
        <time>2021-03-07T12:48:37.745Z</time>
      </trkpt>
      <trkpt lat="48.57628" lon="2.1398">
        <ele>66</ele>
        <time>2021-03-07T12:48:38.746Z</time>
      </trkpt>
      <trkpt lat="48.57629" lon="2.13979">
        <ele>65</ele>
        <time>2021-03-07T12:48:39.746Z</time>
      </trkpt>
      <trkpt lat="48.5763" lon="2.13978">
        <ele>65</ele>
        <time>2021-03-07T12:48:40.746Z</time>
      </trkpt>
      <trkpt lat="48.57631" lon="2.13976">
        <ele>65</ele>
        <time>2021-03-07T12:48:41.746Z</time>
      </trkpt>
      <trkpt lat="48.57633" lon="2.13975">
        <ele>64</ele>
        <time>2021-03-07T12:48:42.746Z</time>
      </trkpt>
      <trkpt lat="48.57634" lon="2.13973">
        <ele>64</ele>
        <time>2021-03-07T12:48:43.745Z</time>
      </trkpt>
      <trkpt lat="48.57635" lon="2.13972">
        <ele>64</ele>
        <time>2021-03-07T12:48:44.746Z</time>
      </trkpt>
      <trkpt lat="48.57636" lon="2.13971">
        <ele>64</ele>
        <time>2021-03-07T12:48:45.745Z</time>
      </trkpt>
      <trkpt lat="48.57637" lon="2.1397">
        <ele>64</ele>
        <time>2021-03-07T12:48:46.746Z</time>
      </trkpt>
      <trkpt lat="48.57638" lon="2.13968">
        <ele>63</ele>
        <time>2021-03-07T12:48:47.746Z</time>
      </trkpt>
      <trkpt lat="48.5764" lon="2.13967">
        <ele>63</ele>
        <time>2021-03-07T12:48:48.745Z</time>
      </trkpt>
      <trkpt lat="48.57641" lon="2.13966">
        <ele>62</ele>
        <time>2021-03-07T12:48:49.746Z</time>
      </trkpt>
      <trkpt lat="48.57642" lon="2.13965">
        <ele>62</ele>
        <time>2021-03-07T12:48:50.746Z</time>
      </trkpt>
      <trkpt lat="48.57644" lon="2.13963">
        <ele>62</ele>
        <time>2021-03-07T12:48:51.746Z</time>
      </trkpt>
      <trkpt lat="48.57645" lon="2.13962">
        <ele>62</ele>
        <time>2021-03-07T12:48:52.745Z</time>
      </trkpt>
      <trkpt lat="48.57646" lon="2.13961">
        <ele>62</ele>
        <time>2021-03-07T12:48:53.746Z</time>
      </trkpt>
      <trkpt lat="48.57648" lon="2.13961">
        <ele>62</ele>
        <time>2021-03-07T12:48:54.745Z</time>
      </trkpt>
      <trkpt lat="48.5765" lon="2.1396">
        <ele>62</ele>
        <time>2021-03-07T12:48:55.745Z</time>
      </trkpt>
      <trkpt lat="48.57652" lon="2.13958">
        <ele>62</ele>
        <time>2021-03-07T12:48:56.745Z</time>
      </trkpt>
      <trkpt lat="48.57654" lon="2.13957">
        <ele>62</ele>
        <time>2021-03-07T12:48:57.745Z</time>
      </trkpt>
      <trkpt lat="48.57655" lon="2.13956">
        <ele>62</ele>
        <time>2021-03-07T12:48:58.746Z</time>
      </trkpt>
      <trkpt lat="48.57657" lon="2.13955">
        <ele>62</ele>
        <time>2021-03-07T12:48:59.746Z</time>
      </trkpt>
      <trkpt lat="48.57659" lon="2.13954">
        <ele>62</ele>
        <time>2021-03-07T12:49:00.746Z</time>
      </trkpt>
      <trkpt lat="48.5766" lon="2.13954">
        <ele>61</ele>
        <time>2021-03-07T12:49:01.746Z</time>
      </trkpt>
      <trkpt lat="48.57662" lon="2.13953">
        <ele>61</ele>
        <time>2021-03-07T12:49:02.745Z</time>
      </trkpt>
      <trkpt lat="48.57664" lon="2.13951">
        <ele>60</ele>
        <time>2021-03-07T12:49:03.746Z</time>
      </trkpt>
      <trkpt lat="48.57665" lon="2.1395">
        <ele>60</ele>
        <time>2021-03-07T12:49:04.746Z</time>
      </trkpt>
      <trkpt lat="48.57667" lon="2.13949">
        <ele>59</ele>
        <time>2021-03-07T12:49:05.746Z</time>
      </trkpt>
      <trkpt lat="48.57668" lon="2.13948">
        <ele>59</ele>
        <time>2021-03-07T12:49:06.746Z</time>
      </trkpt>
      <trkpt lat="48.5767" lon="2.13948">
        <ele>59</ele>
        <time>2021-03-07T12:49:07.745Z</time>
      </trkpt>
      <trkpt lat="48.57672" lon="2.13948">
        <ele>58</ele>
        <time>2021-03-07T12:49:08.745Z</time>
      </trkpt>
      <trkpt lat="48.57673" lon="2.13947">
        <ele>57</ele>
        <time>2021-03-07T12:49:09.745Z</time>
      </trkpt>
      <trkpt lat="48.57674" lon="2.13946">
        <ele>56</ele>
        <time>2021-03-07T12:49:10.746Z</time>
      </trkpt>
      <trkpt lat="48.57675" lon="2.13945">
        <ele>55</ele>
        <time>2021-03-07T12:49:11.746Z</time>
      </trkpt>
      <trkpt lat="48.57677" lon="2.13945">
        <ele>55</ele>
        <time>2021-03-07T12:49:12.746Z</time>
      </trkpt>
      <trkpt lat="48.57678" lon="2.13944">
        <ele>54</ele>
        <time>2021-03-07T12:49:13.745Z</time>
      </trkpt>
      <trkpt lat="48.5768" lon="2.13944">
        <ele>53</ele>
        <time>2021-03-07T12:49:14.746Z</time>
      </trkpt>
      <trkpt lat="48.57681" lon="2.13943">
        <ele>53</ele>
        <time>2021-03-07T12:49:15.746Z</time>
      </trkpt>
      <trkpt lat="48.57682" lon="2.13942">
        <ele>53</ele>
        <time>2021-03-07T12:49:16.746Z</time>
      </trkpt>
      <trkpt lat="48.57684" lon="2.13942">
        <ele>52</ele>
        <time>2021-03-07T12:49:17.746Z</time>
      </trkpt>
      <trkpt lat="48.57686" lon="2.13941">
        <ele>52</ele>
        <time>2021-03-07T12:49:18.746Z</time>
      </trkpt>
      <trkpt lat="48.57687" lon="2.13941">
        <ele>52</ele>
        <time>2021-03-07T12:49:19.745Z</time>
      </trkpt>
      <trkpt lat="48.57689" lon="2.1394">
        <ele>52</ele>
        <time>2021-03-07T12:49:20.746Z</time>
      </trkpt>
      <trkpt lat="48.5769" lon="2.13939">
        <ele>52</ele>
        <time>2021-03-07T12:49:21.746Z</time>
      </trkpt>
      <trkpt lat="48.5769" lon="2.13938">
        <ele>52</ele>
        <time>2021-03-07T12:49:22.746Z</time>
      </trkpt>
      <trkpt lat="48.57691" lon="2.13938">
        <ele>52</ele>
        <time>2021-03-07T12:49:23.746Z</time>
      </trkpt>
      <trkpt lat="48.57693" lon="2.13937">
        <ele>52</ele>
        <time>2021-03-07T12:49:24.746Z</time>
      </trkpt>
      <trkpt lat="48.57694" lon="2.13936">
        <ele>53</ele>
        <time>2021-03-07T12:49:25.745Z</time>
      </trkpt>
      <trkpt lat="48.57696" lon="2.13936">
        <ele>53</ele>
        <time>2021-03-07T12:49:26.745Z</time>
      </trkpt>
      <trkpt lat="48.57697" lon="2.13934">
        <ele>53</ele>
        <time>2021-03-07T12:49:27.746Z</time>
      </trkpt>
      <trkpt lat="48.57699" lon="2.13934">
        <ele>53</ele>
        <time>2021-03-07T12:49:28.745Z</time>
      </trkpt>
      <trkpt lat="48.57701" lon="2.13933">
        <ele>53</ele>
        <time>2021-03-07T12:49:29.746Z</time>
      </trkpt>
      <trkpt lat="48.57702" lon="2.13933">
        <ele>53</ele>
        <time>2021-03-07T12:49:30.745Z</time>
      </trkpt>
      <trkpt lat="48.57704" lon="2.13932">
        <ele>53</ele>
        <time>2021-03-07T12:49:31.745Z</time>
      </trkpt>
      <trkpt lat="48.57705" lon="2.13931">
        <ele>52</ele>
        <time>2021-03-07T12:49:32.746Z</time>
      </trkpt>
      <trkpt lat="48.57706" lon="2.13931">
        <ele>52</ele>
        <time>2021-03-07T12:49:33.746Z</time>
      </trkpt>
      <trkpt lat="48.57707" lon="2.1393">
        <ele>52</ele>
        <time>2021-03-07T12:49:34.746Z</time>
      </trkpt>
      <trkpt lat="48.57708" lon="2.1393">
        <ele>52</ele>
        <time>2021-03-07T12:49:35.745Z</time>
      </trkpt>
      <trkpt lat="48.5771" lon="2.1393">
        <ele>53</ele>
        <time>2021-03-07T12:49:36.746Z</time>
      </trkpt>
      <trkpt lat="48.57711" lon="2.13929">
        <ele>53</ele>
        <time>2021-03-07T12:49:37.746Z</time>
      </trkpt>
      <trkpt lat="48.57712" lon="2.13929">
        <ele>53</ele>
        <time>2021-03-07T12:49:38.746Z</time>
      </trkpt>
      <trkpt lat="48.57714" lon="2.13929">
        <ele>53</ele>
        <time>2021-03-07T12:49:39.745Z</time>
      </trkpt>
      <trkpt lat="48.57715" lon="2.13928">
        <ele>54</ele>
        <time>2021-03-07T12:49:40.745Z</time>
      </trkpt>
      <trkpt lat="48.57717" lon="2.13928">
        <ele>54</ele>
        <time>2021-03-07T12:49:41.745Z</time>
      </trkpt>
      <trkpt lat="48.57719" lon="2.13928">
        <ele>54</ele>
        <time>2021-03-07T12:49:42.746Z</time>
      </trkpt>
      <trkpt lat="48.57721" lon="2.13928">
        <ele>55</ele>
        <time>2021-03-07T12:49:43.746Z</time>
      </trkpt>
      <trkpt lat="48.57723" lon="2.13929">
        <ele>55</ele>
        <time>2021-03-07T12:49:44.746Z</time>
      </trkpt>
      <trkpt lat="48.57725" lon="2.13929">
        <ele>54</ele>
        <time>2021-03-07T12:49:45.746Z</time>
      </trkpt>
      <trkpt lat="48.57726" lon="2.13929">
        <ele>54</ele>
        <time>2021-03-07T12:49:46.746Z</time>
      </trkpt>
      <trkpt lat="48.57728" lon="2.1393">
        <ele>54</ele>
        <time>2021-03-07T12:49:47.746Z</time>
      </trkpt>
      <trkpt lat="48.57729" lon="2.13931">
        <ele>55</ele>
        <time>2021-03-07T12:49:48.746Z</time>
      </trkpt>
      <trkpt lat="48.57731" lon="2.13931">
        <ele>55</ele>
        <time>2021-03-07T12:49:49.745Z</time>
      </trkpt>
      <trkpt lat="48.57731" lon="2.13932">
        <ele>55</ele>
        <time>2021-03-07T12:49:50.746Z</time>
      </trkpt>
      <trkpt lat="48.57732" lon="2.13932">
        <ele>55</ele>
        <time>2021-03-07T12:49:51.746Z</time>
      </trkpt>
      <trkpt lat="48.57732" lon="2.13932">
        <ele>55</ele>
        <time>2021-03-07T12:49:52.746Z</time>
      </trkpt>
      <trkpt lat="48.57732" lon="2.13931">
        <ele>55</ele>
        <time>2021-03-07T12:49:53.745Z</time>
      </trkpt>
      <trkpt lat="48.57733" lon="2.13931">
        <ele>56</ele>
        <time>2021-03-07T12:49:54.745Z</time>
      </trkpt>
      <trkpt lat="48.57733" lon="2.13932">
        <ele>56</ele>
        <time>2021-03-07T12:49:55.746Z</time>
      </trkpt>
      <trkpt lat="48.57733" lon="2.13934">
        <ele>56</ele>
        <time>2021-03-07T12:49:56.745Z</time>
      </trkpt>
      <trkpt lat="48.57733" lon="2.13935">
        <ele>56</ele>
        <time>2021-03-07T12:49:57.745Z</time>
      </trkpt>
      <trkpt lat="48.57733" lon="2.13937">
        <ele>56</ele>
        <time>2021-03-07T12:49:58.746Z</time>
      </trkpt>
      <trkpt lat="48.57734" lon="2.13939">
        <ele>56</ele>
        <time>2021-03-07T12:49:59.746Z</time>
      </trkpt>
      <trkpt lat="48.57735" lon="2.1394">
        <ele>56</ele>
        <time>2021-03-07T12:50:00.746Z</time>
      </trkpt>
      <trkpt lat="48.57735" lon="2.13942">
        <ele>56</ele>
        <time>2021-03-07T12:50:01.745Z</time>
      </trkpt>
      <trkpt lat="48.57737" lon="2.13944">
        <ele>56</ele>
        <time>2021-03-07T12:50:02.745Z</time>
      </trkpt>
      <trkpt lat="48.57738" lon="2.13946">
        <ele>55</ele>
        <time>2021-03-07T12:50:03.746Z</time>
      </trkpt>
      <trkpt lat="48.57739" lon="2.13947">
        <ele>55</ele>
        <time>2021-03-07T12:50:04.746Z</time>
      </trkpt>
      <trkpt lat="48.57739" lon="2.13949">
        <ele>55</ele>
        <time>2021-03-07T12:50:05.746Z</time>
      </trkpt>
      <trkpt lat="48.5774" lon="2.13951">
        <ele>54</ele>
        <time>2021-03-07T12:50:06.746Z</time>
      </trkpt>
      <trkpt lat="48.57741" lon="2.13952">
        <ele>54</ele>
        <time>2021-03-07T12:50:07.745Z</time>
      </trkpt>
      <trkpt lat="48.57743" lon="2.13952">
        <ele>54</ele>
        <time>2021-03-07T12:50:08.745Z</time>
      </trkpt>
      <trkpt lat="48.57744" lon="2.13953">
        <ele>54</ele>
        <time>2021-03-07T12:50:09.745Z</time>
      </trkpt>
      <trkpt lat="48.57745" lon="2.13954">
        <ele>54</ele>
        <time>2021-03-07T12:50:10.746Z</time>
      </trkpt>
      <trkpt lat="48.57746" lon="2.13954">
        <ele>54</ele>
        <time>2021-03-07T12:50:11.745Z</time>
      </trkpt>
      <trkpt lat="48.57748" lon="2.13954">
        <ele>55</ele>
        <time>2021-03-07T12:50:12.746Z</time>
      </trkpt>
      <trkpt lat="48.5775" lon="2.13955">
        <ele>55</ele>
        <time>2021-03-07T12:50:13.745Z</time>
      </trkpt>
      <trkpt lat="48.57751" lon="2.13955">
        <ele>55</ele>
        <time>2021-03-07T12:50:14.745Z</time>
      </trkpt>
      <trkpt lat="48.57752" lon="2.13955">
        <ele>55</ele>
        <time>2021-03-07T12:50:15.745Z</time>
      </trkpt>
      <trkpt lat="48.57754" lon="2.13955">
        <ele>55</ele>
        <time>2021-03-07T12:50:16.746Z</time>
      </trkpt>
      <trkpt lat="48.57756" lon="2.13955">
        <ele>55</ele>
        <time>2021-03-07T12:50:17.745Z</time>
      </trkpt>
      <trkpt lat="48.57757" lon="2.13954">
        <ele>55</ele>
        <time>2021-03-07T12:50:18.746Z</time>
      </trkpt>
      <trkpt lat="48.57758" lon="2.13953">
        <ele>54</ele>
        <time>2021-03-07T12:50:19.746Z</time>
      </trkpt>
      <trkpt lat="48.5776" lon="2.13952">
        <ele>54</ele>
        <time>2021-03-07T12:50:20.746Z</time>
      </trkpt>
      <trkpt lat="48.57761" lon="2.13951">
        <ele>54</ele>
        <time>2021-03-07T12:50:21.746Z</time>
      </trkpt>
      <trkpt lat="48.57763" lon="2.1395">
        <ele>54</ele>
        <time>2021-03-07T12:50:22.746Z</time>
      </trkpt>
      <trkpt lat="48.57764" lon="2.13949">
        <ele>54</ele>
        <time>2021-03-07T12:50:23.746Z</time>
      </trkpt>
      <trkpt lat="48.57765" lon="2.13947">
        <ele>54</ele>
        <time>2021-03-07T12:50:24.745Z</time>
      </trkpt>
      <trkpt lat="48.57766" lon="2.13946">
        <ele>54</ele>
        <time>2021-03-07T12:50:25.746Z</time>
      </trkpt>
      <trkpt lat="48.57767" lon="2.13944">
        <ele>53</ele>
        <time>2021-03-07T12:50:26.746Z</time>
      </trkpt>
      <trkpt lat="48.57768" lon="2.13942">
        <ele>53</ele>
        <time>2021-03-07T12:50:27.746Z</time>
      </trkpt>
      <trkpt lat="48.57769" lon="2.1394">
        <ele>53</ele>
        <time>2021-03-07T12:50:28.746Z</time>
      </trkpt>
      <trkpt lat="48.5777" lon="2.13938">
        <ele>54</ele>
        <time>2021-03-07T12:50:29.746Z</time>
      </trkpt>
      <trkpt lat="48.5777" lon="2.13936">
        <ele>54</ele>
        <time>2021-03-07T12:50:30.746Z</time>
      </trkpt>
      <trkpt lat="48.57771" lon="2.13934">
        <ele>54</ele>
        <time>2021-03-07T12:50:31.746Z</time>
      </trkpt>
      <trkpt lat="48.57773" lon="2.13932">
        <ele>54</ele>
        <time>2021-03-07T12:50:32.746Z</time>
      </trkpt>
      <trkpt lat="48.57774" lon="2.13931">
        <ele>54</ele>
        <time>2021-03-07T12:50:33.746Z</time>
      </trkpt>
      <trkpt lat="48.57775" lon="2.1393">
        <ele>54</ele>
        <time>2021-03-07T12:50:34.746Z</time>
      </trkpt>
      <trkpt lat="48.57777" lon="2.13929">
        <ele>54</ele>
        <time>2021-03-07T12:50:35.746Z</time>
      </trkpt>
      <trkpt lat="48.57778" lon="2.13928">
        <ele>54</ele>
        <time>2021-03-07T12:50:36.746Z</time>
      </trkpt>
      <trkpt lat="48.5778" lon="2.13928">
        <ele>54</ele>
        <time>2021-03-07T12:50:37.746Z</time>
      </trkpt>
      <trkpt lat="48.57782" lon="2.13928">
        <ele>53</ele>
        <time>2021-03-07T12:50:38.746Z</time>
      </trkpt>
      <trkpt lat="48.57784" lon="2.13928">
        <ele>53</ele>
        <time>2021-03-07T12:50:39.745Z</time>
      </trkpt>
      <trkpt lat="48.57785" lon="2.13928">
        <ele>53</ele>
        <time>2021-03-07T12:50:40.746Z</time>
      </trkpt>
      <trkpt lat="48.57786" lon="2.13928">
        <ele>53</ele>
        <time>2021-03-07T12:50:41.746Z</time>
      </trkpt>
      <trkpt lat="48.57788" lon="2.13929">
        <ele>53</ele>
        <time>2021-03-07T12:50:42.746Z</time>
      </trkpt>
      <trkpt lat="48.5779" lon="2.13929">
        <ele>53</ele>
        <time>2021-03-07T12:50:43.746Z</time>
      </trkpt>
      <trkpt lat="48.57791" lon="2.1393">
        <ele>53</ele>
        <time>2021-03-07T12:50:44.746Z</time>
      </trkpt>
      <trkpt lat="48.57792" lon="2.13931">
        <ele>53</ele>
        <time>2021-03-07T12:50:45.746Z</time>
      </trkpt>
      <trkpt lat="48.57793" lon="2.13932">
        <ele>53</ele>
        <time>2021-03-07T12:50:46.746Z</time>
      </trkpt>
      <trkpt lat="48.57794" lon="2.13933">
        <ele>53</ele>
        <time>2021-03-07T12:50:47.745Z</time>
      </trkpt>
      <trkpt lat="48.57796" lon="2.13934">
        <ele>53</ele>
        <time>2021-03-07T12:50:48.746Z</time>
      </trkpt>
      <trkpt lat="48.57797" lon="2.13934">
        <ele>53</ele>
        <time>2021-03-07T12:50:49.745Z</time>
      </trkpt>
      <trkpt lat="48.57799" lon="2.13935">
        <ele>53</ele>
        <time>2021-03-07T12:50:50.746Z</time>
      </trkpt>
      <trkpt lat="48.57801" lon="2.13936">
        <ele>53</ele>
        <time>2021-03-07T12:50:51.745Z</time>
      </trkpt>
      <trkpt lat="48.57802" lon="2.13936">
        <ele>53</ele>
        <time>2021-03-07T12:50:52.745Z</time>
      </trkpt>
      <trkpt lat="48.57804" lon="2.13936">
        <ele>53</ele>
        <time>2021-03-07T12:50:53.746Z</time>
      </trkpt>
      <trkpt lat="48.57805" lon="2.13936">
        <ele>52</ele>
        <time>2021-03-07T12:50:54.746Z</time>
      </trkpt>
      <trkpt lat="48.57807" lon="2.13937">
        <ele>52</ele>
        <time>2021-03-07T12:50:55.746Z</time>
      </trkpt>
      <trkpt lat="48.57808" lon="2.13937">
        <ele>52</ele>
        <time>2021-03-07T12:50:56.746Z</time>
      </trkpt>
      <trkpt lat="48.5781" lon="2.13937">
        <ele>52</ele>
        <time>2021-03-07T12:50:57.745Z</time>
      </trkpt>
      <trkpt lat="48.57811" lon="2.13937">
        <ele>52</ele>
        <time>2021-03-07T12:50:58.746Z</time>
      </trkpt>
      <trkpt lat="48.57813" lon="2.13937">
        <ele>53</ele>
        <time>2021-03-07T12:50:59.745Z</time>
      </trkpt>
      <trkpt lat="48.57814" lon="2.13936">
        <ele>53</ele>
        <time>2021-03-07T12:51:00.746Z</time>
      </trkpt>
      <trkpt lat="48.57816" lon="2.13937">
        <ele>53</ele>
        <time>2021-03-07T12:51:01.745Z</time>
      </trkpt>
      <trkpt lat="48.57817" lon="2.13936">
        <ele>54</ele>
        <time>2021-03-07T12:51:02.745Z</time>
      </trkpt>
      <trkpt lat="48.57818" lon="2.13937">
        <ele>54</ele>
        <time>2021-03-07T12:51:03.745Z</time>
      </trkpt>
      <trkpt lat="48.5782" lon="2.13936">
        <ele>54</ele>
        <time>2021-03-07T12:51:04.745Z</time>
      </trkpt>
      <trkpt lat="48.57821" lon="2.13936">
        <ele>54</ele>
        <time>2021-03-07T12:51:05.746Z</time>
      </trkpt>
      <trkpt lat="48.57822" lon="2.13936">
        <ele>55</ele>
        <time>2021-03-07T12:51:06.745Z</time>
      </trkpt>
      <trkpt lat="48.57824" lon="2.13937">
        <ele>55</ele>
        <time>2021-03-07T12:51:07.745Z</time>
      </trkpt>
      <trkpt lat="48.57826" lon="2.13937">
        <ele>55</ele>
        <time>2021-03-07T12:51:08.746Z</time>
      </trkpt>
      <trkpt lat="48.57827" lon="2.13937">
        <ele>55</ele>
        <time>2021-03-07T12:51:09.746Z</time>
      </trkpt>
      <trkpt lat="48.57829" lon="2.13937">
        <ele>55</ele>
        <time>2021-03-07T12:51:10.746Z</time>
      </trkpt>
      <trkpt lat="48.5783" lon="2.13937">
        <ele>55</ele>
        <time>2021-03-07T12:51:11.745Z</time>
      </trkpt>
      <trkpt lat="48.57832" lon="2.13937">
        <ele>56</ele>
        <time>2021-03-07T12:51:12.745Z</time>
      </trkpt>
      <trkpt lat="48.57833" lon="2.13937">
        <ele>55</ele>
        <time>2021-03-07T12:51:13.745Z</time>
      </trkpt>
      <trkpt lat="48.57835" lon="2.13937">
        <ele>55</ele>
        <time>2021-03-07T12:51:14.745Z</time>
      </trkpt>
      <trkpt lat="48.57837" lon="2.13938">
        <ele>55</ele>
        <time>2021-03-07T12:51:15.746Z</time>
      </trkpt>
      <trkpt lat="48.57839" lon="2.13938">
        <ele>56</ele>
        <time>2021-03-07T12:51:16.745Z</time>
      </trkpt>
      <trkpt lat="48.57841" lon="2.13938">
        <ele>56</ele>
        <time>2021-03-07T12:51:17.745Z</time>
      </trkpt>
      <trkpt lat="48.57842" lon="2.13938">
        <ele>56</ele>
        <time>2021-03-07T12:51:18.745Z</time>
      </trkpt>
      <trkpt lat="48.57844" lon="2.13938">
        <ele>56</ele>
        <time>2021-03-07T12:51:19.745Z</time>
      </trkpt>
      <trkpt lat="48.57846" lon="2.13938">
        <ele>56</ele>
        <time>2021-03-07T12:51:20.746Z</time>
      </trkpt>
      <trkpt lat="48.57847" lon="2.13938">
        <ele>56</ele>
        <time>2021-03-07T12:51:21.746Z</time>
      </trkpt>
      <trkpt lat="48.57849" lon="2.13937">
        <ele>56</ele>
        <time>2021-03-07T12:51:22.746Z</time>
      </trkpt>
      <trkpt lat="48.57851" lon="2.13938">
        <ele>56</ele>
        <time>2021-03-07T12:51:23.746Z</time>
      </trkpt>
      <trkpt lat="48.57852" lon="2.13937">
        <ele>56</ele>
        <time>2021-03-07T12:51:24.745Z</time>
      </trkpt>
      <trkpt lat="48.57854" lon="2.13938">
        <ele>56</ele>
        <time>2021-03-07T12:51:25.745Z</time>
      </trkpt>
      <trkpt lat="48.57856" lon="2.13938">
        <ele>56</ele>
        <time>2021-03-07T12:51:26.745Z</time>
      </trkpt>
      <trkpt lat="48.57857" lon="2.13938">
        <ele>57</ele>
        <time>2021-03-07T12:51:27.746Z</time>
      </trkpt>
      <trkpt lat="48.57859" lon="2.13938">
        <ele>57</ele>
        <time>2021-03-07T12:51:28.746Z</time>
      </trkpt>
      <trkpt lat="48.5786" lon="2.13937">
        <ele>57</ele>
        <time>2021-03-07T12:51:29.746Z</time>
      </trkpt>
      <trkpt lat="48.57862" lon="2.13937">
        <ele>57</ele>
        <time>2021-03-07T12:51:30.746Z</time>
      </trkpt>
      <trkpt lat="48.57863" lon="2.13937">
        <ele>57</ele>
        <time>2021-03-07T12:51:31.746Z</time>
      </trkpt>
      <trkpt lat="48.57865" lon="2.13937">
        <ele>57</ele>
        <time>2021-03-07T12:51:32.745Z</time>
      </trkpt>
      <trkpt lat="48.57867" lon="2.13937">
        <ele>58</ele>
        <time>2021-03-07T12:51:33.746Z</time>
      </trkpt>
      <trkpt lat="48.57869" lon="2.13937">
        <ele>58</ele>
        <time>2021-03-07T12:51:34.746Z</time>
      </trkpt>
      <trkpt lat="48.57871" lon="2.13937">
        <ele>58</ele>
        <time>2021-03-07T12:51:35.746Z</time>
      </trkpt>
      <trkpt lat="48.57872" lon="2.13937">
        <ele>57</ele>
        <time>2021-03-07T12:51:36.745Z</time>
      </trkpt>
      <trkpt lat="48.57874" lon="2.13937">
        <ele>57</ele>
        <time>2021-03-07T12:51:37.745Z</time>
      </trkpt>
      <trkpt lat="48.57875" lon="2.13937">
        <ele>57</ele>
        <time>2021-03-07T12:51:38.746Z</time>
      </trkpt>
      <trkpt lat="48.57877" lon="2.13937">
        <ele>57</ele>
        <time>2021-03-07T12:51:39.746Z</time>
      </trkpt>
      <trkpt lat="48.57879" lon="2.13937">
        <ele>57</ele>
        <time>2021-03-07T12:51:40.746Z</time>
      </trkpt>
      <trkpt lat="48.5788" lon="2.13937">
        <ele>58</ele>
        <time>2021-03-07T12:51:41.746Z</time>
      </trkpt>
      <trkpt lat="48.57882" lon="2.13936">
        <ele>58</ele>
        <time>2021-03-07T12:51:42.746Z</time>
      </trkpt>
      <trkpt lat="48.57883" lon="2.13936">
        <ele>58</ele>
        <time>2021-03-07T12:51:43.746Z</time>
      </trkpt>
      <trkpt lat="48.57885" lon="2.13936">
        <ele>58</ele>
        <time>2021-03-07T12:51:44.746Z</time>
      </trkpt>
      <trkpt lat="48.57886" lon="2.13936">
        <ele>58</ele>
        <time>2021-03-07T12:51:45.746Z</time>
      </trkpt>
      <trkpt lat="48.57888" lon="2.13936">
        <ele>59</ele>
        <time>2021-03-07T12:51:46.746Z</time>
      </trkpt>
      <trkpt lat="48.57889" lon="2.13935">
        <ele>59</ele>
        <time>2021-03-07T12:51:47.746Z</time>
      </trkpt>
      <trkpt lat="48.57891" lon="2.13935">
        <ele>59</ele>
        <time>2021-03-07T12:51:48.745Z</time>
      </trkpt>
      <trkpt lat="48.57892" lon="2.13935">
        <ele>58</ele>
        <time>2021-03-07T12:51:49.746Z</time>
      </trkpt>
      <trkpt lat="48.57894" lon="2.13934">
        <ele>58</ele>
        <time>2021-03-07T12:51:50.745Z</time>
      </trkpt>
      <trkpt lat="48.57895" lon="2.13934">
        <ele>58</ele>
        <time>2021-03-07T12:51:51.746Z</time>
      </trkpt>
      <trkpt lat="48.57897" lon="2.13933">
        <ele>58</ele>
        <time>2021-03-07T12:51:52.746Z</time>
      </trkpt>
      <trkpt lat="48.57898" lon="2.13932">
        <ele>58</ele>
        <time>2021-03-07T12:51:53.745Z</time>
      </trkpt>
      <trkpt lat="48.57899" lon="2.13931">
        <ele>58</ele>
        <time>2021-03-07T12:51:54.746Z</time>
      </trkpt>
      <trkpt lat="48.579" lon="2.1393">
        <ele>58</ele>
        <time>2021-03-07T12:51:55.746Z</time>
      </trkpt>
      <trkpt lat="48.57902" lon="2.13928">
        <ele>58</ele>
        <time>2021-03-07T12:51:56.746Z</time>
      </trkpt>
      <trkpt lat="48.57904" lon="2.13928">
        <ele>57</ele>
        <time>2021-03-07T12:51:57.746Z</time>
      </trkpt>
      <trkpt lat="48.57905" lon="2.13928">
        <ele>57</ele>
        <time>2021-03-07T12:51:58.746Z</time>
      </trkpt>
      <trkpt lat="48.57907" lon="2.13929">
        <ele>57</ele>
        <time>2021-03-07T12:51:59.746Z</time>
      </trkpt>
      <trkpt lat="48.57909" lon="2.13928">
        <ele>57</ele>
        <time>2021-03-07T12:52:00.746Z</time>
      </trkpt>
      <trkpt lat="48.57911" lon="2.13928">
        <ele>56</ele>
        <time>2021-03-07T12:52:01.746Z</time>
      </trkpt>
      <trkpt lat="48.57912" lon="2.13928">
        <ele>56</ele>
        <time>2021-03-07T12:52:02.746Z</time>
      </trkpt>
      <trkpt lat="48.57914" lon="2.13928">
        <ele>56</ele>
        <time>2021-03-07T12:52:03.746Z</time>
      </trkpt>
      <trkpt lat="48.57915" lon="2.13929">
        <ele>56</ele>
        <time>2021-03-07T12:52:04.746Z</time>
      </trkpt>
      <trkpt lat="48.57917" lon="2.13928">
        <ele>56</ele>
        <time>2021-03-07T12:52:05.746Z</time>
      </trkpt>
      <trkpt lat="48.57919" lon="2.13928">
        <ele>56</ele>
        <time>2021-03-07T12:52:06.746Z</time>
      </trkpt>
      <trkpt lat="48.5792" lon="2.13928">
        <ele>57</ele>
        <time>2021-03-07T12:52:07.746Z</time>
      </trkpt>
      <trkpt lat="48.57921" lon="2.13927">
        <ele>57</ele>
        <time>2021-03-07T12:52:08.746Z</time>
      </trkpt>
      <trkpt lat="48.57923" lon="2.13927">
        <ele>57</ele>
        <time>2021-03-07T12:52:09.746Z</time>
      </trkpt>
      <trkpt lat="48.57924" lon="2.13927">
        <ele>58</ele>
        <time>2021-03-07T12:52:10.746Z</time>
      </trkpt>
      <trkpt lat="48.57926" lon="2.13927">
        <ele>58</ele>
        <time>2021-03-07T12:52:11.746Z</time>
      </trkpt>
      <trkpt lat="48.57927" lon="2.13927">
        <ele>59</ele>
        <time>2021-03-07T12:52:12.745Z</time>
      </trkpt>
      <trkpt lat="48.57929" lon="2.13928">
        <ele>59</ele>
        <time>2021-03-07T12:52:13.746Z</time>
      </trkpt>
      <trkpt lat="48.5793" lon="2.13929">
        <ele>60</ele>
        <time>2021-03-07T12:52:14.746Z</time>
      </trkpt>
      <trkpt lat="48.57931" lon="2.13929">
        <ele>60</ele>
        <time>2021-03-07T12:52:15.746Z</time>
      </trkpt>
      <trkpt lat="48.57933" lon="2.13929">
        <ele>61</ele>
        <time>2021-03-07T12:52:16.746Z</time>
      </trkpt>
      <trkpt lat="48.57935" lon="2.13929">
        <ele>61</ele>
        <time>2021-03-07T12:52:17.746Z</time>
      </trkpt>
      <trkpt lat="48.57938" lon="2.13929">
        <ele>62</ele>
        <time>2021-03-07T12:52:18.746Z</time>
      </trkpt>
      <trkpt lat="48.57939" lon="2.13929">
        <ele>62</ele>
        <time>2021-03-07T12:52:19.746Z</time>
      </trkpt>
      <trkpt lat="48.57941" lon="2.13929">
        <ele>63</ele>
        <time>2021-03-07T12:52:20.746Z</time>
      </trkpt>
      <trkpt lat="48.57942" lon="2.13928">
        <ele>63</ele>
        <time>2021-03-07T12:52:21.746Z</time>
      </trkpt>
      <trkpt lat="48.57943" lon="2.13927">
        <ele>64</ele>
        <time>2021-03-07T12:52:22.746Z</time>
      </trkpt>
      <trkpt lat="48.57944" lon="2.13927">
        <ele>65</ele>
        <time>2021-03-07T12:52:23.746Z</time>
      </trkpt>
      <trkpt lat="48.57946" lon="2.13926">
        <ele>66</ele>
        <time>2021-03-07T12:52:24.746Z</time>
      </trkpt>
      <trkpt lat="48.57947" lon="2.13926">
        <ele>66</ele>
        <time>2021-03-07T12:52:25.746Z</time>
      </trkpt>
      <trkpt lat="48.57949" lon="2.13926">
        <ele>66</ele>
        <time>2021-03-07T12:52:26.746Z</time>
      </trkpt>
      <trkpt lat="48.5795" lon="2.13926">
        <ele>67</ele>
        <time>2021-03-07T12:52:27.746Z</time>
      </trkpt>
      <trkpt lat="48.57952" lon="2.13926">
        <ele>67</ele>
        <time>2021-03-07T12:52:28.746Z</time>
      </trkpt>
      <trkpt lat="48.57953" lon="2.13927">
        <ele>68</ele>
        <time>2021-03-07T12:52:29.746Z</time>
      </trkpt>
      <trkpt lat="48.57954" lon="2.13927">
        <ele>68</ele>
        <time>2021-03-07T12:52:30.746Z</time>
      </trkpt>
      <trkpt lat="48.57956" lon="2.13927">
        <ele>68</ele>
        <time>2021-03-07T12:52:31.746Z</time>
      </trkpt>
      <trkpt lat="48.57958" lon="2.13927">
        <ele>68</ele>
        <time>2021-03-07T12:52:32.746Z</time>
      </trkpt>
      <trkpt lat="48.57959" lon="2.13927">
        <ele>69</ele>
        <time>2021-03-07T12:52:33.745Z</time>
      </trkpt>
      <trkpt lat="48.5796" lon="2.13927">
        <ele>69</ele>
        <time>2021-03-07T12:52:34.745Z</time>
      </trkpt>
      <trkpt lat="48.57961" lon="2.13926">
        <ele>70</ele>
        <time>2021-03-07T12:52:35.746Z</time>
      </trkpt>
      <trkpt lat="48.57962" lon="2.13925">
        <ele>70</ele>
        <time>2021-03-07T12:52:36.746Z</time>
      </trkpt>
      <trkpt lat="48.57963" lon="2.13925">
        <ele>70</ele>
        <time>2021-03-07T12:52:37.746Z</time>
      </trkpt>
      <trkpt lat="48.57965" lon="2.13924">
        <ele>71</ele>
        <time>2021-03-07T12:52:38.746Z</time>
      </trkpt>
      <trkpt lat="48.57965" lon="2.13923">
        <ele>71</ele>
        <time>2021-03-07T12:52:39.746Z</time>
      </trkpt>
      <trkpt lat="48.57966" lon="2.13924">
        <ele>71</ele>
        <time>2021-03-07T12:52:40.746Z</time>
      </trkpt>
      <trkpt lat="48.57967" lon="2.13923">
        <ele>72</ele>
        <time>2021-03-07T12:52:41.745Z</time>
      </trkpt>
      <trkpt lat="48.57967" lon="2.13922">
        <ele>72</ele>
        <time>2021-03-07T12:52:42.746Z</time>
      </trkpt>
      <trkpt lat="48.57968" lon="2.13921">
        <ele>72</ele>
        <time>2021-03-07T12:52:43.745Z</time>
      </trkpt>
      <trkpt lat="48.57968" lon="2.1392">
        <ele>73</ele>
        <time>2021-03-07T12:52:44.746Z</time>
      </trkpt>
      <trkpt lat="48.57969" lon="2.13919">
        <ele>73</ele>
        <time>2021-03-07T12:52:45.746Z</time>
      </trkpt>
      <trkpt lat="48.5797" lon="2.13918">
        <ele>73</ele>
        <time>2021-03-07T12:52:46.746Z</time>
      </trkpt>
      <trkpt lat="48.57971" lon="2.13918">
        <ele>74</ele>
        <time>2021-03-07T12:52:47.746Z</time>
      </trkpt>
      <trkpt lat="48.57972" lon="2.13917">
        <ele>74</ele>
        <time>2021-03-07T12:52:48.746Z</time>
      </trkpt>
      <trkpt lat="48.57973" lon="2.13916">
        <ele>74</ele>
        <time>2021-03-07T12:52:49.745Z</time>
      </trkpt>
      <trkpt lat="48.57974" lon="2.13914">
        <ele>74</ele>
        <time>2021-03-07T12:52:50.746Z</time>
      </trkpt>
      <trkpt lat="48.57974" lon="2.13913">
        <ele>74</ele>
        <time>2021-03-07T12:52:51.746Z</time>
      </trkpt>
      <trkpt lat="48.57975" lon="2.13911">
        <ele>75</ele>
        <time>2021-03-07T12:52:52.746Z</time>
      </trkpt>
      <trkpt lat="48.57976" lon="2.13909">
        <ele>75</ele>
        <time>2021-03-07T12:52:53.746Z</time>
      </trkpt>
      <trkpt lat="48.57977" lon="2.13908">
        <ele>75</ele>
        <time>2021-03-07T12:52:54.746Z</time>
      </trkpt>
      <trkpt lat="48.57977" lon="2.13904">
        <ele>75</ele>
        <time>2021-03-07T12:52:55.746Z</time>
      </trkpt>
      <trkpt lat="48.57978" lon="2.13901">
        <ele>75</ele>
        <time>2021-03-07T12:52:56.746Z</time>
      </trkpt>
      <trkpt lat="48.57978" lon="2.13898">
        <ele>76</ele>
        <time>2021-03-07T12:52:57.746Z</time>
      </trkpt>
      <trkpt lat="48.57979" lon="2.13897">
        <ele>76</ele>
        <time>2021-03-07T12:52:58.746Z</time>
      </trkpt>
      <trkpt lat="48.5798" lon="2.13895">
        <ele>77</ele>
        <time>2021-03-07T12:52:59.746Z</time>
      </trkpt>
      <trkpt lat="48.57981" lon="2.13894">
        <ele>78</ele>
        <time>2021-03-07T12:53:00.746Z</time>
      </trkpt>
      <trkpt lat="48.57981" lon="2.13891">
        <ele>78</ele>
        <time>2021-03-07T12:53:01.745Z</time>
      </trkpt>
      <trkpt lat="48.57982" lon="2.13889">
        <ele>79</ele>
        <time>2021-03-07T12:53:02.746Z</time>
      </trkpt>
      <trkpt lat="48.57983" lon="2.13888">
        <ele>79</ele>
        <time>2021-03-07T12:53:03.746Z</time>
      </trkpt>
      <trkpt lat="48.57985" lon="2.13887">
        <ele>80</ele>
        <time>2021-03-07T12:53:04.746Z</time>
      </trkpt>
      <trkpt lat="48.57986" lon="2.13887">
        <ele>80</ele>
        <time>2021-03-07T12:53:05.746Z</time>
      </trkpt>
      <trkpt lat="48.57987" lon="2.13886">
        <ele>80</ele>
        <time>2021-03-07T12:53:06.746Z</time>
      </trkpt>
      <trkpt lat="48.57989" lon="2.13885">
        <ele>80</ele>
        <time>2021-03-07T12:53:07.745Z</time>
      </trkpt>
      <trkpt lat="48.5799" lon="2.13883">
        <ele>80</ele>
        <time>2021-03-07T12:53:08.746Z</time>
      </trkpt>
      <trkpt lat="48.57992" lon="2.13881">
        <ele>80</ele>
        <time>2021-03-07T12:53:09.745Z</time>
      </trkpt>
      <trkpt lat="48.57993" lon="2.1388">
        <ele>81</ele>
        <time>2021-03-07T12:53:10.745Z</time>
      </trkpt>
      <trkpt lat="48.57993" lon="2.13879">
        <ele>81</ele>
        <time>2021-03-07T12:53:11.746Z</time>
      </trkpt>
      <trkpt lat="48.57994" lon="2.13878">
        <ele>81</ele>
        <time>2021-03-07T12:53:12.746Z</time>
      </trkpt>
      <trkpt lat="48.57995" lon="2.13876">
        <ele>82</ele>
        <time>2021-03-07T12:53:13.745Z</time>
      </trkpt>
      <trkpt lat="48.57996" lon="2.13875">
        <ele>82</ele>
        <time>2021-03-07T12:53:14.746Z</time>
      </trkpt>
      <trkpt lat="48.57997" lon="2.13874">
        <ele>81</ele>
        <time>2021-03-07T12:53:15.746Z</time>
      </trkpt>
      <trkpt lat="48.57999" lon="2.13872">
        <ele>81</ele>
        <time>2021-03-07T12:53:16.746Z</time>
      </trkpt>
      <trkpt lat="48.58" lon="2.13872">
        <ele>81</ele>
        <time>2021-03-07T12:53:17.746Z</time>
      </trkpt>
      <trkpt lat="48.58001" lon="2.13871">
        <ele>81</ele>
        <time>2021-03-07T12:53:18.746Z</time>
      </trkpt>
      <trkpt lat="48.58002" lon="2.1387">
        <ele>81</ele>
        <time>2021-03-07T12:53:19.746Z</time>
      </trkpt>
      <trkpt lat="48.58004" lon="2.13869">
        <ele>81</ele>
        <time>2021-03-07T12:53:20.745Z</time>
      </trkpt>
      <trkpt lat="48.58004" lon="2.13869">
        <ele>81</ele>
        <time>2021-03-07T12:53:21.746Z</time>
      </trkpt>
      <trkpt lat="48.58005" lon="2.13868">
        <ele>81</ele>
        <time>2021-03-07T12:53:22.745Z</time>
      </trkpt>
      <trkpt lat="48.58006" lon="2.13868">
        <ele>81</ele>
        <time>2021-03-07T12:53:23.746Z</time>
      </trkpt>
      <trkpt lat="48.58007" lon="2.13867">
        <ele>81</ele>
        <time>2021-03-07T12:53:24.745Z</time>
      </trkpt>
      <trkpt lat="48.58008" lon="2.13865">
        <ele>81</ele>
        <time>2021-03-07T12:53:25.746Z</time>
      </trkpt>
      <trkpt lat="48.5801" lon="2.13864">
        <ele>81</ele>
        <time>2021-03-07T12:53:26.746Z</time>
      </trkpt>
      <trkpt lat="48.58012" lon="2.13864">
        <ele>81</ele>
        <time>2021-03-07T12:53:27.746Z</time>
      </trkpt>
      <trkpt lat="48.58013" lon="2.13863">
        <ele>81</ele>
        <time>2021-03-07T12:53:28.746Z</time>
      </trkpt>
      <trkpt lat="48.58014" lon="2.13862">
        <ele>82</ele>
        <time>2021-03-07T12:53:29.745Z</time>
      </trkpt>
      <trkpt lat="48.58015" lon="2.13862">
        <ele>82</ele>
        <time>2021-03-07T12:53:30.746Z</time>
      </trkpt>
      <trkpt lat="48.58016" lon="2.13862">
        <ele>81</ele>
        <time>2021-03-07T12:53:31.745Z</time>
      </trkpt>
      <trkpt lat="48.58018" lon="2.13862">
        <ele>81</ele>
        <time>2021-03-07T12:53:32.746Z</time>
      </trkpt>
      <trkpt lat="48.58019" lon="2.13861">
        <ele>81</ele>
        <time>2021-03-07T12:53:33.745Z</time>
      </trkpt>
      <trkpt lat="48.5802" lon="2.13861">
        <ele>81</ele>
        <time>2021-03-07T12:53:34.746Z</time>
      </trkpt>
      <trkpt lat="48.58022" lon="2.1386">
        <ele>81</ele>
        <time>2021-03-07T12:53:35.746Z</time>
      </trkpt>
      <trkpt lat="48.58022" lon="2.13859">
        <ele>81</ele>
        <time>2021-03-07T12:53:36.746Z</time>
      </trkpt>
      <trkpt lat="48.58024" lon="2.13858">
        <ele>81</ele>
        <time>2021-03-07T12:53:37.746Z</time>
      </trkpt>
      <trkpt lat="48.58026" lon="2.13857">
        <ele>81</ele>
        <time>2021-03-07T12:53:38.746Z</time>
      </trkpt>
      <trkpt lat="48.58027" lon="2.13856">
        <ele>81</ele>
        <time>2021-03-07T12:53:39.746Z</time>
      </trkpt>
      <trkpt lat="48.58028" lon="2.13855">
        <ele>81</ele>
        <time>2021-03-07T12:53:40.746Z</time>
      </trkpt>
      <trkpt lat="48.5803" lon="2.13855">
        <ele>81</ele>
        <time>2021-03-07T12:53:41.745Z</time>
      </trkpt>
      <trkpt lat="48.58031" lon="2.13854">
        <ele>82</ele>
        <time>2021-03-07T12:53:42.746Z</time>
      </trkpt>
      <trkpt lat="48.58032" lon="2.13853">
        <ele>82</ele>
        <time>2021-03-07T12:53:43.745Z</time>
      </trkpt>
      <trkpt lat="48.58033" lon="2.13852">
        <ele>82</ele>
        <time>2021-03-07T12:53:44.746Z</time>
      </trkpt>
      <trkpt lat="48.58034" lon="2.13852">
        <ele>83</ele>
        <time>2021-03-07T12:53:45.745Z</time>
      </trkpt>
      <trkpt lat="48.58035" lon="2.13851">
        <ele>83</ele>
        <time>2021-03-07T12:53:46.746Z</time>
      </trkpt>
      <trkpt lat="48.58037" lon="2.1385">
        <ele>83</ele>
        <time>2021-03-07T12:53:47.746Z</time>
      </trkpt>
      <trkpt lat="48.5804" lon="2.1385">
        <ele>82</ele>
        <time>2021-03-07T12:53:48.746Z</time>
      </trkpt>
      <trkpt lat="48.58042" lon="2.1385">
        <ele>82</ele>
        <time>2021-03-07T12:53:49.745Z</time>
      </trkpt>
      <trkpt lat="48.58045" lon="2.1385">
        <ele>82</ele>
        <time>2021-03-07T12:53:50.746Z</time>
      </trkpt>
      <trkpt lat="48.58046" lon="2.13849">
        <ele>82</ele>
        <time>2021-03-07T12:53:51.746Z</time>
      </trkpt>
      <trkpt lat="48.58048" lon="2.13849">
        <ele>82</ele>
        <time>2021-03-07T12:53:52.746Z</time>
      </trkpt>
      <trkpt lat="48.58049" lon="2.13849">
        <ele>82</ele>
        <time>2021-03-07T12:53:53.746Z</time>
      </trkpt>
      <trkpt lat="48.58051" lon="2.13849">
        <ele>82</ele>
        <time>2021-03-07T12:53:54.746Z</time>
      </trkpt>
      <trkpt lat="48.58053" lon="2.13849">
        <ele>82</ele>
        <time>2021-03-07T12:53:55.746Z</time>
      </trkpt>
      <trkpt lat="48.58056" lon="2.13849">
        <ele>82</ele>
        <time>2021-03-07T12:53:56.746Z</time>
      </trkpt>
      <trkpt lat="48.58058" lon="2.13849">
        <ele>82</ele>
        <time>2021-03-07T12:53:57.746Z</time>
      </trkpt>
      <trkpt lat="48.58061" lon="2.13848">
        <ele>82</ele>
        <time>2021-03-07T12:53:58.746Z</time>
      </trkpt>
      <trkpt lat="48.58061" lon="2.13848">
        <ele>82</ele>
        <time>2021-03-07T12:53:59.745Z</time>
      </trkpt>
      <trkpt lat="48.58063" lon="2.13847">
        <ele>83</ele>
        <time>2021-03-07T12:54:00.745Z</time>
      </trkpt>
      <trkpt lat="48.58065" lon="2.13847">
        <ele>83</ele>
        <time>2021-03-07T12:54:01.745Z</time>
      </trkpt>
      <trkpt lat="48.58066" lon="2.13847">
        <ele>83</ele>
        <time>2021-03-07T12:54:02.746Z</time>
      </trkpt>
      <trkpt lat="48.58067" lon="2.13847">
        <ele>84</ele>
        <time>2021-03-07T12:54:03.746Z</time>
      </trkpt>
      <trkpt lat="48.58068" lon="2.13847">
        <ele>84</ele>
        <time>2021-03-07T12:54:04.745Z</time>
      </trkpt>
      <trkpt lat="48.58069" lon="2.13847">
        <ele>84</ele>
        <time>2021-03-07T12:54:05.746Z</time>
      </trkpt>
      <trkpt lat="48.58071" lon="2.13846">
        <ele>85</ele>
        <time>2021-03-07T12:54:06.745Z</time>
      </trkpt>
      <trkpt lat="48.58072" lon="2.13846">
        <ele>85</ele>
        <time>2021-03-07T12:54:07.745Z</time>
      </trkpt>
      <trkpt lat="48.58073" lon="2.13845">
        <ele>85</ele>
        <time>2021-03-07T12:54:08.746Z</time>
      </trkpt>
      <trkpt lat="48.58074" lon="2.13845">
        <ele>86</ele>
        <time>2021-03-07T12:54:09.746Z</time>
      </trkpt>
      <trkpt lat="48.58076" lon="2.13845">
        <ele>86</ele>
        <time>2021-03-07T12:54:10.746Z</time>
      </trkpt>
      <trkpt lat="48.58077" lon="2.13845">
        <ele>86</ele>
        <time>2021-03-07T12:54:11.745Z</time>
      </trkpt>
      <trkpt lat="48.58079" lon="2.13844">
        <ele>86</ele>
        <time>2021-03-07T12:54:12.746Z</time>
      </trkpt>
      <trkpt lat="48.5808" lon="2.13844">
        <ele>86</ele>
        <time>2021-03-07T12:54:13.745Z</time>
      </trkpt>
      <trkpt lat="48.58082" lon="2.13843">
        <ele>86</ele>
        <time>2021-03-07T12:54:14.746Z</time>
      </trkpt>
      <trkpt lat="48.58084" lon="2.13843">
        <ele>86</ele>
        <time>2021-03-07T12:54:15.746Z</time>
      </trkpt>
      <trkpt lat="48.58085" lon="2.13842">
        <ele>87</ele>
        <time>2021-03-07T12:54:16.745Z</time>
      </trkpt>
      <trkpt lat="48.58086" lon="2.13842">
        <ele>87</ele>
        <time>2021-03-07T12:54:17.746Z</time>
      </trkpt>
      <trkpt lat="48.58087" lon="2.13842">
        <ele>87</ele>
        <time>2021-03-07T12:54:18.746Z</time>
      </trkpt>
      <trkpt lat="48.5809" lon="2.13841">
        <ele>87</ele>
        <time>2021-03-07T12:54:19.746Z</time>
      </trkpt>
      <trkpt lat="48.58092" lon="2.13841">
        <ele>87</ele>
        <time>2021-03-07T12:54:20.745Z</time>
      </trkpt>
      <trkpt lat="48.58094" lon="2.13841">
        <ele>87</ele>
        <time>2021-03-07T12:54:21.746Z</time>
      </trkpt>
      <trkpt lat="48.58094" lon="2.1384">
        <ele>88</ele>
        <time>2021-03-07T12:54:22.745Z</time>
      </trkpt>
      <trkpt lat="48.58096" lon="2.13839">
        <ele>88</ele>
        <time>2021-03-07T12:54:23.746Z</time>
      </trkpt>
      <trkpt lat="48.58097" lon="2.13839">
        <ele>88</ele>
        <time>2021-03-07T12:54:24.745Z</time>
      </trkpt>
      <trkpt lat="48.58098" lon="2.13838">
        <ele>88</ele>
        <time>2021-03-07T12:54:25.746Z</time>
      </trkpt>
      <trkpt lat="48.581" lon="2.13837">
        <ele>88</ele>
        <time>2021-03-07T12:54:26.745Z</time>
      </trkpt>
      <trkpt lat="48.58101" lon="2.13836">
        <ele>89</ele>
        <time>2021-03-07T12:54:27.745Z</time>
      </trkpt>
      <trkpt lat="48.58102" lon="2.13836">
        <ele>89</ele>
        <time>2021-03-07T12:54:28.746Z</time>
      </trkpt>
      <trkpt lat="48.58103" lon="2.13835">
        <ele>89</ele>
        <time>2021-03-07T12:54:29.746Z</time>
      </trkpt>
      <trkpt lat="48.58104" lon="2.13834">
        <ele>89</ele>
        <time>2021-03-07T12:54:30.746Z</time>
      </trkpt>
      <trkpt lat="48.58106" lon="2.13834">
        <ele>89</ele>
        <time>2021-03-07T12:54:31.745Z</time>
      </trkpt>
      <trkpt lat="48.58107" lon="2.13833">
        <ele>89</ele>
        <time>2021-03-07T12:54:32.746Z</time>
      </trkpt>
      <trkpt lat="48.58108" lon="2.13832">
        <ele>89</ele>
        <time>2021-03-07T12:54:33.746Z</time>
      </trkpt>
      <trkpt lat="48.5811" lon="2.13831">
        <ele>89</ele>
        <time>2021-03-07T12:54:34.746Z</time>
      </trkpt>
      <trkpt lat="48.58111" lon="2.1383">
        <ele>89</ele>
        <time>2021-03-07T12:54:35.746Z</time>
      </trkpt>
      <trkpt lat="48.58113" lon="2.13828">
        <ele>89</ele>
        <time>2021-03-07T12:54:36.745Z</time>
      </trkpt>
      <trkpt lat="48.58115" lon="2.13826">
        <ele>89</ele>
        <time>2021-03-07T12:54:37.745Z</time>
      </trkpt>
      <trkpt lat="48.58117" lon="2.13825">
        <ele>89</ele>
        <time>2021-03-07T12:54:38.746Z</time>
      </trkpt>
      <trkpt lat="48.58118" lon="2.13824">
        <ele>89</ele>
        <time>2021-03-07T12:54:39.746Z</time>
      </trkpt>
      <trkpt lat="48.5812" lon="2.13823">
        <ele>89</ele>
        <time>2021-03-07T12:54:40.746Z</time>
      </trkpt>
      <trkpt lat="48.58121" lon="2.13823">
        <ele>89</ele>
        <time>2021-03-07T12:54:41.746Z</time>
      </trkpt>
      <trkpt lat="48.58122" lon="2.13823">
        <ele>89</ele>
        <time>2021-03-07T12:54:42.746Z</time>
      </trkpt>
      <trkpt lat="48.58124" lon="2.13822">
        <ele>89</ele>
        <time>2021-03-07T12:54:43.745Z</time>
      </trkpt>
      <trkpt lat="48.58125" lon="2.13822">
        <ele>89</ele>
        <time>2021-03-07T12:54:44.746Z</time>
      </trkpt>
      <trkpt lat="48.58127" lon="2.13822">
        <ele>89</ele>
        <time>2021-03-07T12:54:45.745Z</time>
      </trkpt>
      <trkpt lat="48.58128" lon="2.13821">
        <ele>88</ele>
        <time>2021-03-07T12:54:46.745Z</time>
      </trkpt>
      <trkpt lat="48.58129" lon="2.13821">
        <ele>88</ele>
        <time>2021-03-07T12:54:47.746Z</time>
      </trkpt>
      <trkpt lat="48.58131" lon="2.1382">
        <ele>88</ele>
        <time>2021-03-07T12:54:48.746Z</time>
      </trkpt>
      <trkpt lat="48.58132" lon="2.13819">
        <ele>88</ele>
        <time>2021-03-07T12:54:49.746Z</time>
      </trkpt>
      <trkpt lat="48.58134" lon="2.13819">
        <ele>88</ele>
        <time>2021-03-07T12:54:50.746Z</time>
      </trkpt>
      <trkpt lat="48.58135" lon="2.13818">
        <ele>88</ele>
        <time>2021-03-07T12:54:51.746Z</time>
      </trkpt>
      <trkpt lat="48.58136" lon="2.13817">
        <ele>88</ele>
        <time>2021-03-07T12:54:52.746Z</time>
      </trkpt>
      <trkpt lat="48.58138" lon="2.13816">
        <ele>88</ele>
        <time>2021-03-07T12:54:53.745Z</time>
      </trkpt>
      <trkpt lat="48.5814" lon="2.13815">
        <ele>88</ele>
        <time>2021-03-07T12:54:54.746Z</time>
      </trkpt>
      <trkpt lat="48.58141" lon="2.13814">
        <ele>88</ele>
        <time>2021-03-07T12:54:55.745Z</time>
      </trkpt>
      <trkpt lat="48.58143" lon="2.13812">
        <ele>88</ele>
        <time>2021-03-07T12:54:56.745Z</time>
      </trkpt>
      <trkpt lat="48.58144" lon="2.13812">
        <ele>87</ele>
        <time>2021-03-07T12:54:57.746Z</time>
      </trkpt>
      <trkpt lat="48.58147" lon="2.13812">
        <ele>87</ele>
        <time>2021-03-07T12:54:58.746Z</time>
      </trkpt>
      <trkpt lat="48.58148" lon="2.13812">
        <ele>87</ele>
        <time>2021-03-07T12:54:59.746Z</time>
      </trkpt>
      <trkpt lat="48.5815" lon="2.13811">
        <ele>87</ele>
        <time>2021-03-07T12:55:00.746Z</time>
      </trkpt>
      <trkpt lat="48.58152" lon="2.1381">
        <ele>87</ele>
        <time>2021-03-07T12:55:01.746Z</time>
      </trkpt>
      <trkpt lat="48.58154" lon="2.13808">
        <ele>87</ele>
        <time>2021-03-07T12:55:02.746Z</time>
      </trkpt>
      <trkpt lat="48.58156" lon="2.13806">
        <ele>87</ele>
        <time>2021-03-07T12:55:03.746Z</time>
      </trkpt>
      <trkpt lat="48.58158" lon="2.13806">
        <ele>87</ele>
        <time>2021-03-07T12:55:04.746Z</time>
      </trkpt>
      <trkpt lat="48.5816" lon="2.13807">
        <ele>87</ele>
        <time>2021-03-07T12:55:05.745Z</time>
      </trkpt>
      <trkpt lat="48.58162" lon="2.13807">
        <ele>86</ele>
        <time>2021-03-07T12:55:06.746Z</time>
      </trkpt>
      <trkpt lat="48.58163" lon="2.13807">
        <ele>86</ele>
        <time>2021-03-07T12:55:07.746Z</time>
      </trkpt>
      <trkpt lat="48.58164" lon="2.13805">
        <ele>86</ele>
        <time>2021-03-07T12:55:08.745Z</time>
      </trkpt>
      <trkpt lat="48.58166" lon="2.13804">
        <ele>86</ele>
        <time>2021-03-07T12:55:09.746Z</time>
      </trkpt>
      <trkpt lat="48.58167" lon="2.13803">
        <ele>86</ele>
        <time>2021-03-07T12:55:10.746Z</time>
      </trkpt>
      <trkpt lat="48.58169" lon="2.13802">
        <ele>86</ele>
        <time>2021-03-07T12:55:11.746Z</time>
      </trkpt>
      <trkpt lat="48.5817" lon="2.13802">
        <ele>85</ele>
        <time>2021-03-07T12:55:12.746Z</time>
      </trkpt>
      <trkpt lat="48.58172" lon="2.138">
        <ele>85</ele>
        <time>2021-03-07T12:55:13.746Z</time>
      </trkpt>
      <trkpt lat="48.58174" lon="2.13799">
        <ele>85</ele>
        <time>2021-03-07T12:55:14.745Z</time>
      </trkpt>
      <trkpt lat="48.58175" lon="2.13797">
        <ele>85</ele>
        <time>2021-03-07T12:55:15.746Z</time>
      </trkpt>
      <trkpt lat="48.58177" lon="2.13796">
        <ele>85</ele>
        <time>2021-03-07T12:55:16.745Z</time>
      </trkpt>
      <trkpt lat="48.58178" lon="2.13795">
        <ele>85</ele>
        <time>2021-03-07T12:55:17.746Z</time>
      </trkpt>
      <trkpt lat="48.58179" lon="2.13794">
        <ele>85</ele>
        <time>2021-03-07T12:55:18.745Z</time>
      </trkpt>
      <trkpt lat="48.58181" lon="2.13793">
        <ele>85</ele>
        <time>2021-03-07T12:55:19.746Z</time>
      </trkpt>
      <trkpt lat="48.58182" lon="2.13792">
        <ele>85</ele>
        <time>2021-03-07T12:55:20.746Z</time>
      </trkpt>
      <trkpt lat="48.58184" lon="2.13792">
        <ele>85</ele>
        <time>2021-03-07T12:55:21.745Z</time>
      </trkpt>
      <trkpt lat="48.58186" lon="2.13791">
        <ele>85</ele>
        <time>2021-03-07T12:55:22.746Z</time>
      </trkpt>
      <trkpt lat="48.58187" lon="2.1379">
        <ele>85</ele>
        <time>2021-03-07T12:55:23.745Z</time>
      </trkpt>
      <trkpt lat="48.58189" lon="2.13789">
        <ele>85</ele>
        <time>2021-03-07T12:55:24.745Z</time>
      </trkpt>
      <trkpt lat="48.5819" lon="2.13788">
        <ele>84</ele>
        <time>2021-03-07T12:55:25.746Z</time>
      </trkpt>
      <trkpt lat="48.58191" lon="2.13788">
        <ele>84</ele>
        <time>2021-03-07T12:55:26.746Z</time>
      </trkpt>
      <trkpt lat="48.58193" lon="2.13787">
        <ele>84</ele>
        <time>2021-03-07T12:55:27.746Z</time>
      </trkpt>
      <trkpt lat="48.58194" lon="2.13786">
        <ele>84</ele>
        <time>2021-03-07T12:55:28.746Z</time>
      </trkpt>
      <trkpt lat="48.58195" lon="2.13786">
        <ele>84</ele>
        <time>2021-03-07T12:55:29.745Z</time>
      </trkpt>
      <trkpt lat="48.58197" lon="2.13785">
        <ele>84</ele>
        <time>2021-03-07T12:55:30.746Z</time>
      </trkpt>
      <trkpt lat="48.58198" lon="2.13784">
        <ele>84</ele>
        <time>2021-03-07T12:55:31.745Z</time>
      </trkpt>
      <trkpt lat="48.582" lon="2.13784">
        <ele>84</ele>
        <time>2021-03-07T12:55:32.746Z</time>
      </trkpt>
      <trkpt lat="48.58202" lon="2.13784">
        <ele>84</ele>
        <time>2021-03-07T12:55:33.745Z</time>
      </trkpt>
      <trkpt lat="48.58203" lon="2.13784">
        <ele>83</ele>
        <time>2021-03-07T12:55:34.746Z</time>
      </trkpt>
      <trkpt lat="48.58205" lon="2.13783">
        <ele>83</ele>
        <time>2021-03-07T12:55:35.746Z</time>
      </trkpt>
      <trkpt lat="48.58206" lon="2.13783">
        <ele>82</ele>
        <time>2021-03-07T12:55:36.745Z</time>
      </trkpt>
      <trkpt lat="48.58208" lon="2.13783">
        <ele>82</ele>
        <time>2021-03-07T12:55:37.746Z</time>
      </trkpt>
      <trkpt lat="48.58209" lon="2.13783">
        <ele>82</ele>
        <time>2021-03-07T12:55:38.746Z</time>
      </trkpt>
      <trkpt lat="48.58211" lon="2.13782">
        <ele>82</ele>
        <time>2021-03-07T12:55:39.746Z</time>
      </trkpt>
      <trkpt lat="48.58213" lon="2.13781">
        <ele>82</ele>
        <time>2021-03-07T12:55:40.746Z</time>
      </trkpt>
      <trkpt lat="48.58214" lon="2.13781">
        <ele>82</ele>
        <time>2021-03-07T12:55:41.745Z</time>
      </trkpt>
      <trkpt lat="48.58216" lon="2.1378">
        <ele>83</ele>
        <time>2021-03-07T12:55:42.746Z</time>
      </trkpt>
      <trkpt lat="48.58217" lon="2.13778">
        <ele>83</ele>
        <time>2021-03-07T12:55:43.745Z</time>
      </trkpt>
      <trkpt lat="48.58219" lon="2.13777">
        <ele>84</ele>
        <time>2021-03-07T12:55:44.746Z</time>
      </trkpt>
      <trkpt lat="48.5822" lon="2.13776">
        <ele>84</ele>
        <time>2021-03-07T12:55:45.746Z</time>
      </trkpt>
      <trkpt lat="48.58221" lon="2.13775">
        <ele>84</ele>
        <time>2021-03-07T12:55:46.746Z</time>
      </trkpt>
      <trkpt lat="48.58223" lon="2.13774">
        <ele>85</ele>
        <time>2021-03-07T12:55:47.746Z</time>
      </trkpt>
      <trkpt lat="48.58224" lon="2.13773">
        <ele>85</ele>
        <time>2021-03-07T12:55:48.746Z</time>
      </trkpt>
      <trkpt lat="48.58226" lon="2.13772">
        <ele>85</ele>
        <time>2021-03-07T12:55:49.746Z</time>
      </trkpt>
      <trkpt lat="48.58228" lon="2.13771">
        <ele>85</ele>
        <time>2021-03-07T12:55:50.746Z</time>
      </trkpt>
      <trkpt lat="48.5823" lon="2.1377">
        <ele>84</ele>
        <time>2021-03-07T12:55:51.745Z</time>
      </trkpt>
      <trkpt lat="48.58232" lon="2.13769">
        <ele>84</ele>
        <time>2021-03-07T12:55:52.746Z</time>
      </trkpt>
      <trkpt lat="48.58234" lon="2.13769">
        <ele>84</ele>
        <time>2021-03-07T12:55:53.745Z</time>
      </trkpt>
      <trkpt lat="48.58235" lon="2.13768">
        <ele>83</ele>
        <time>2021-03-07T12:55:54.745Z</time>
      </trkpt>
      <trkpt lat="48.58236" lon="2.13767">
        <ele>83</ele>
        <time>2021-03-07T12:55:55.746Z</time>
      </trkpt>
      <trkpt lat="48.58238" lon="2.13766">
        <ele>83</ele>
        <time>2021-03-07T12:55:56.745Z</time>
      </trkpt>
      <trkpt lat="48.58239" lon="2.13765">
        <ele>82</ele>
        <time>2021-03-07T12:55:57.746Z</time>
      </trkpt>
      <trkpt lat="48.58241" lon="2.13764">
        <ele>82</ele>
        <time>2021-03-07T12:55:58.745Z</time>
      </trkpt>
      <trkpt lat="48.58242" lon="2.13763">
        <ele>82</ele>
        <time>2021-03-07T12:55:59.746Z</time>
      </trkpt>
      <trkpt lat="48.58243" lon="2.13762">
        <ele>82</ele>
        <time>2021-03-07T12:56:00.745Z</time>
      </trkpt>
      <trkpt lat="48.58244" lon="2.13761">
        <ele>83</ele>
        <time>2021-03-07T12:56:01.746Z</time>
      </trkpt>
      <trkpt lat="48.58246" lon="2.1376">
        <ele>83</ele>
        <time>2021-03-07T12:56:02.746Z</time>
      </trkpt>
      <trkpt lat="48.58247" lon="2.13759">
        <ele>83</ele>
        <time>2021-03-07T12:56:03.746Z</time>
      </trkpt>
      <trkpt lat="48.58248" lon="2.13757">
        <ele>83</ele>
        <time>2021-03-07T12:56:04.746Z</time>
      </trkpt>
      <trkpt lat="48.58249" lon="2.13755">
        <ele>84</ele>
        <time>2021-03-07T12:56:05.745Z</time>
      </trkpt>
      <trkpt lat="48.58251" lon="2.13754">
        <ele>84</ele>
        <time>2021-03-07T12:56:06.745Z</time>
      </trkpt>
      <trkpt lat="48.58252" lon="2.13752">
        <ele>84</ele>
        <time>2021-03-07T12:56:07.746Z</time>
      </trkpt>
      <trkpt lat="48.58253" lon="2.13751">
        <ele>84</ele>
        <time>2021-03-07T12:56:08.746Z</time>
      </trkpt>
      <trkpt lat="48.58254" lon="2.1375">
        <ele>84</ele>
        <time>2021-03-07T12:56:09.746Z</time>
      </trkpt>
      <trkpt lat="48.58256" lon="2.13748">
        <ele>85</ele>
        <time>2021-03-07T12:56:10.746Z</time>
      </trkpt>
      <trkpt lat="48.58257" lon="2.13747">
        <ele>85</ele>
        <time>2021-03-07T12:56:11.746Z</time>
      </trkpt>
      <trkpt lat="48.58258" lon="2.13746">
        <ele>85</ele>
        <time>2021-03-07T12:56:12.746Z</time>
      </trkpt>
      <trkpt lat="48.5826" lon="2.13745">
        <ele>85</ele>
        <time>2021-03-07T12:56:13.745Z</time>
      </trkpt>
      <trkpt lat="48.58261" lon="2.13744">
        <ele>85</ele>
        <time>2021-03-07T12:56:14.746Z</time>
      </trkpt>
      <trkpt lat="48.58262" lon="2.13742">
        <ele>85</ele>
        <time>2021-03-07T12:56:15.745Z</time>
      </trkpt>
      <trkpt lat="48.58263" lon="2.13741">
        <ele>86</ele>
        <time>2021-03-07T12:56:16.746Z</time>
      </trkpt>
      <trkpt lat="48.58265" lon="2.13739">
        <ele>86</ele>
        <time>2021-03-07T12:56:17.746Z</time>
      </trkpt>
      <trkpt lat="48.58267" lon="2.13738">
        <ele>86</ele>
        <time>2021-03-07T12:56:18.746Z</time>
      </trkpt>
      <trkpt lat="48.58269" lon="2.13737">
        <ele>86</ele>
        <time>2021-03-07T12:56:19.746Z</time>
      </trkpt>
      <trkpt lat="48.5827" lon="2.13735">
        <ele>86</ele>
        <time>2021-03-07T12:56:20.746Z</time>
      </trkpt>
      <trkpt lat="48.58272" lon="2.13734">
        <ele>86</ele>
        <time>2021-03-07T12:56:21.746Z</time>
      </trkpt>
      <trkpt lat="48.58272" lon="2.13734">
        <ele>86</ele>
        <time>2021-03-07T12:56:22.745Z</time>
      </trkpt>
      <trkpt lat="48.58274" lon="2.13733">
        <ele>86</ele>
        <time>2021-03-07T12:56:23.746Z</time>
      </trkpt>
      <trkpt lat="48.58275" lon="2.13732">
        <ele>85</ele>
        <time>2021-03-07T12:56:24.746Z</time>
      </trkpt>
      <trkpt lat="48.58277" lon="2.13731">
        <ele>85</ele>
        <time>2021-03-07T12:56:25.746Z</time>
      </trkpt>
      <trkpt lat="48.58279" lon="2.1373">
        <ele>85</ele>
        <time>2021-03-07T12:56:26.746Z</time>
      </trkpt>
      <trkpt lat="48.5828" lon="2.13729">
        <ele>85</ele>
        <time>2021-03-07T12:56:27.745Z</time>
      </trkpt>
      <trkpt lat="48.58281" lon="2.13727">
        <ele>84</ele>
        <time>2021-03-07T12:56:28.745Z</time>
      </trkpt>
      <trkpt lat="48.58283" lon="2.13726">
        <ele>84</ele>
        <time>2021-03-07T12:56:29.746Z</time>
      </trkpt>
      <trkpt lat="48.58284" lon="2.13725">
        <ele>84</ele>
        <time>2021-03-07T12:56:30.745Z</time>
      </trkpt>
      <trkpt lat="48.58285" lon="2.13724">
        <ele>84</ele>
        <time>2021-03-07T12:56:31.745Z</time>
      </trkpt>
      <trkpt lat="48.58287" lon="2.13723">
        <ele>84</ele>
        <time>2021-03-07T12:56:32.745Z</time>
      </trkpt>
      <trkpt lat="48.58288" lon="2.13722">
        <ele>85</ele>
        <time>2021-03-07T12:56:33.745Z</time>
      </trkpt>
      <trkpt lat="48.5829" lon="2.13721">
        <ele>85</ele>
        <time>2021-03-07T12:56:34.745Z</time>
      </trkpt>
      <trkpt lat="48.58292" lon="2.1372">
        <ele>85</ele>
        <time>2021-03-07T12:56:35.746Z</time>
      </trkpt>
      <trkpt lat="48.58293" lon="2.13718">
        <ele>85</ele>
        <time>2021-03-07T12:56:36.746Z</time>
      </trkpt>
      <trkpt lat="48.58295" lon="2.13717">
        <ele>86</ele>
        <time>2021-03-07T12:56:37.746Z</time>
      </trkpt>
      <trkpt lat="48.58296" lon="2.13716">
        <ele>86</ele>
        <time>2021-03-07T12:56:38.746Z</time>
      </trkpt>
      <trkpt lat="48.58297" lon="2.13715">
        <ele>86</ele>
        <time>2021-03-07T12:56:39.746Z</time>
      </trkpt>
      <trkpt lat="48.58299" lon="2.13714">
        <ele>86</ele>
        <time>2021-03-07T12:56:40.746Z</time>
      </trkpt>
      <trkpt lat="48.583" lon="2.13713">
        <ele>86</ele>
        <time>2021-03-07T12:56:41.745Z</time>
      </trkpt>
      <trkpt lat="48.58301" lon="2.13712">
        <ele>86</ele>
        <time>2021-03-07T12:56:42.746Z</time>
      </trkpt>
      <trkpt lat="48.58302" lon="2.13711">
        <ele>86</ele>
        <time>2021-03-07T12:56:43.746Z</time>
      </trkpt>
      <trkpt lat="48.58304" lon="2.1371">
        <ele>86</ele>
        <time>2021-03-07T12:56:44.746Z</time>
      </trkpt>
      <trkpt lat="48.58305" lon="2.13709">
        <ele>86</ele>
        <time>2021-03-07T12:56:45.746Z</time>
      </trkpt>
      <trkpt lat="48.58307" lon="2.13708">
        <ele>86</ele>
        <time>2021-03-07T12:56:46.746Z</time>
      </trkpt>
      <trkpt lat="48.58308" lon="2.13707">
        <ele>86</ele>
        <time>2021-03-07T12:56:47.746Z</time>
      </trkpt>
      <trkpt lat="48.5831" lon="2.13705">
        <ele>86</ele>
        <time>2021-03-07T12:56:48.745Z</time>
      </trkpt>
      <trkpt lat="48.58312" lon="2.13704">
        <ele>86</ele>
        <time>2021-03-07T12:56:49.746Z</time>
      </trkpt>
      <trkpt lat="48.58313" lon="2.13703">
        <ele>86</ele>
        <time>2021-03-07T12:56:50.745Z</time>
      </trkpt>
      <trkpt lat="48.58315" lon="2.13702">
        <ele>86</ele>
        <time>2021-03-07T12:56:51.746Z</time>
      </trkpt>
      <trkpt lat="48.58316" lon="2.13701">
        <ele>87</ele>
        <time>2021-03-07T12:56:52.745Z</time>
      </trkpt>
      <trkpt lat="48.58318" lon="2.137">
        <ele>87</ele>
        <time>2021-03-07T12:56:53.746Z</time>
      </trkpt>
      <trkpt lat="48.58319" lon="2.137">
        <ele>87</ele>
        <time>2021-03-07T12:56:54.745Z</time>
      </trkpt>
      <trkpt lat="48.58321" lon="2.13699">
        <ele>87</ele>
        <time>2021-03-07T12:56:55.745Z</time>
      </trkpt>
      <trkpt lat="48.58322" lon="2.13698">
        <ele>87</ele>
        <time>2021-03-07T12:56:56.745Z</time>
      </trkpt>
      <trkpt lat="48.58324" lon="2.13697">
        <ele>87</ele>
        <time>2021-03-07T12:56:57.746Z</time>
      </trkpt>
      <trkpt lat="48.58325" lon="2.13696">
        <ele>87</ele>
        <time>2021-03-07T12:56:58.746Z</time>
      </trkpt>
      <trkpt lat="48.58327" lon="2.13696">
        <ele>87</ele>
        <time>2021-03-07T12:56:59.746Z</time>
      </trkpt>
      <trkpt lat="48.58328" lon="2.13695">
        <ele>87</ele>
        <time>2021-03-07T12:57:00.745Z</time>
      </trkpt>
      <trkpt lat="48.5833" lon="2.13693">
        <ele>88</ele>
        <time>2021-03-07T12:57:01.746Z</time>
      </trkpt>
      <trkpt lat="48.58332" lon="2.13693">
        <ele>88</ele>
        <time>2021-03-07T12:57:02.745Z</time>
      </trkpt>
      <trkpt lat="48.58333" lon="2.13692">
        <ele>88</ele>
        <time>2021-03-07T12:57:03.745Z</time>
      </trkpt>
      <trkpt lat="48.58335" lon="2.13691">
        <ele>88</ele>
        <time>2021-03-07T12:57:04.745Z</time>
      </trkpt>
      <trkpt lat="48.58336" lon="2.1369">
        <ele>87</ele>
        <time>2021-03-07T12:57:05.745Z</time>
      </trkpt>
      <trkpt lat="48.58338" lon="2.13689">
        <ele>87</ele>
        <time>2021-03-07T12:57:06.746Z</time>
      </trkpt>
      <trkpt lat="48.5834" lon="2.13689">
        <ele>86</ele>
        <time>2021-03-07T12:57:07.746Z</time>
      </trkpt>
      <trkpt lat="48.58342" lon="2.13688">
        <ele>86</ele>
        <time>2021-03-07T12:57:08.746Z</time>
      </trkpt>
      <trkpt lat="48.58343" lon="2.13688">
        <ele>85</ele>
        <time>2021-03-07T12:57:09.746Z</time>
      </trkpt>
      <trkpt lat="48.58345" lon="2.13687">
        <ele>86</ele>
        <time>2021-03-07T12:57:10.746Z</time>
      </trkpt>
      <trkpt lat="48.58347" lon="2.13687">
        <ele>86</ele>
        <time>2021-03-07T12:57:11.746Z</time>
      </trkpt>
      <trkpt lat="48.58349" lon="2.13686">
        <ele>86</ele>
        <time>2021-03-07T12:57:12.745Z</time>
      </trkpt>
      <trkpt lat="48.58351" lon="2.13685">
        <ele>86</ele>
        <time>2021-03-07T12:57:13.746Z</time>
      </trkpt>
      <trkpt lat="48.58353" lon="2.13684">
        <ele>86</ele>
        <time>2021-03-07T12:57:14.745Z</time>
      </trkpt>
      <trkpt lat="48.58355" lon="2.13683">
        <ele>86</ele>
        <time>2021-03-07T12:57:15.746Z</time>
      </trkpt>
      <trkpt lat="48.58358" lon="2.13682">
        <ele>86</ele>
        <time>2021-03-07T12:57:16.746Z</time>
      </trkpt>
      <trkpt lat="48.58362" lon="2.1368">
        <ele>86</ele>
        <time>2021-03-07T12:57:17.746Z</time>
      </trkpt>
      <trkpt lat="48.58366" lon="2.13678">
        <ele>86</ele>
        <time>2021-03-07T12:57:18.746Z</time>
      </trkpt>
      <trkpt lat="48.5837" lon="2.13676">
        <ele>86</ele>
        <time>2021-03-07T12:57:19.746Z</time>
      </trkpt>
      <trkpt lat="48.58375" lon="2.13673">
        <ele>86</ele>
        <time>2021-03-07T12:57:20.746Z</time>
      </trkpt>
      <trkpt lat="48.58379" lon="2.1367">
        <ele>86</ele>
        <time>2021-03-07T12:57:21.745Z</time>
      </trkpt>
      <trkpt lat="48.58384" lon="2.13668">
        <ele>87</ele>
        <time>2021-03-07T12:57:22.746Z</time>
      </trkpt>
      <trkpt lat="48.58388" lon="2.13665">
        <ele>87</ele>
        <time>2021-03-07T12:57:23.746Z</time>
      </trkpt>
      <trkpt lat="48.58392" lon="2.13663">
        <ele>87</ele>
        <time>2021-03-07T12:57:24.746Z</time>
      </trkpt>
      <trkpt lat="48.58396" lon="2.13661">
        <ele>87</ele>
        <time>2021-03-07T12:57:25.745Z</time>
      </trkpt>
      <trkpt lat="48.584" lon="2.13658">
        <ele>88</ele>
        <time>2021-03-07T12:57:26.745Z</time>
      </trkpt>
      <trkpt lat="48.58404" lon="2.13656">
        <ele>88</ele>
        <time>2021-03-07T12:57:27.746Z</time>
      </trkpt>
      <trkpt lat="48.58409" lon="2.13653">
        <ele>89</ele>
        <time>2021-03-07T12:57:28.746Z</time>
      </trkpt>
      <trkpt lat="48.58413" lon="2.1365">
        <ele>89</ele>
        <time>2021-03-07T12:57:29.746Z</time>
      </trkpt>
      <trkpt lat="48.58417" lon="2.13646">
        <ele>89</ele>
        <time>2021-03-07T12:57:30.746Z</time>
      </trkpt>
      <trkpt lat="48.58421" lon="2.13642">
        <ele>89</ele>
        <time>2021-03-07T12:57:31.746Z</time>
      </trkpt>
      <trkpt lat="48.58425" lon="2.13639">
        <ele>89</ele>
        <time>2021-03-07T12:57:32.746Z</time>
      </trkpt>
      <trkpt lat="48.58429" lon="2.13635">
        <ele>89</ele>
        <time>2021-03-07T12:57:33.746Z</time>
      </trkpt>
      <trkpt lat="48.58433" lon="2.13631">
        <ele>89</ele>
        <time>2021-03-07T12:57:34.746Z</time>
      </trkpt>
      <trkpt lat="48.58437" lon="2.13628">
        <ele>88</ele>
        <time>2021-03-07T12:57:35.746Z</time>
      </trkpt>
      <trkpt lat="48.58441" lon="2.13624">
        <ele>88</ele>
        <time>2021-03-07T12:57:36.746Z</time>
      </trkpt>
      <trkpt lat="48.58445" lon="2.1362">
        <ele>87</ele>
        <time>2021-03-07T12:57:37.745Z</time>
      </trkpt>
      <trkpt lat="48.5845" lon="2.13616">
        <ele>87</ele>
        <time>2021-03-07T12:57:38.746Z</time>
      </trkpt>
      <trkpt lat="48.58453" lon="2.13612">
        <ele>87</ele>
        <time>2021-03-07T12:57:39.746Z</time>
      </trkpt>
      <trkpt lat="48.58457" lon="2.13607">
        <ele>87</ele>
        <time>2021-03-07T12:57:40.745Z</time>
      </trkpt>
      <trkpt lat="48.58461" lon="2.13603">
        <ele>87</ele>
        <time>2021-03-07T12:57:41.746Z</time>
      </trkpt>
      <trkpt lat="48.58464" lon="2.13598">
        <ele>88</ele>
        <time>2021-03-07T12:57:42.746Z</time>
      </trkpt>
      <trkpt lat="48.58468" lon="2.13594">
        <ele>88</ele>
        <time>2021-03-07T12:57:43.746Z</time>
      </trkpt>
      <trkpt lat="48.58472" lon="2.1359">
        <ele>87</ele>
        <time>2021-03-07T12:57:44.746Z</time>
      </trkpt>
      <trkpt lat="48.58476" lon="2.13585">
        <ele>87</ele>
        <time>2021-03-07T12:57:45.746Z</time>
      </trkpt>
      <trkpt lat="48.58479" lon="2.13581">
        <ele>87</ele>
        <time>2021-03-07T12:57:46.746Z</time>
      </trkpt>
      <trkpt lat="48.58483" lon="2.13576">
        <ele>88</ele>
        <time>2021-03-07T12:57:47.746Z</time>
      </trkpt>
      <trkpt lat="48.58487" lon="2.13571">
        <ele>88</ele>
        <time>2021-03-07T12:57:48.746Z</time>
      </trkpt>
      <trkpt lat="48.58491" lon="2.13567">
        <ele>88</ele>
        <time>2021-03-07T12:57:49.746Z</time>
      </trkpt>
      <trkpt lat="48.58495" lon="2.13562">
        <ele>88</ele>
        <time>2021-03-07T12:57:50.746Z</time>
      </trkpt>
      <trkpt lat="48.58499" lon="2.13558">
        <ele>89</ele>
        <time>2021-03-07T12:57:51.746Z</time>
      </trkpt>
      <trkpt lat="48.58503" lon="2.13554">
        <ele>90</ele>
        <time>2021-03-07T12:57:52.746Z</time>
      </trkpt>
      <trkpt lat="48.58507" lon="2.13549">
        <ele>90</ele>
        <time>2021-03-07T12:57:53.746Z</time>
      </trkpt>
      <trkpt lat="48.58511" lon="2.13545">
        <ele>90</ele>
        <time>2021-03-07T12:57:54.746Z</time>
      </trkpt>
      <trkpt lat="48.58515" lon="2.1354">
        <ele>90</ele>
        <time>2021-03-07T12:57:55.746Z</time>
      </trkpt>
      <trkpt lat="48.5852" lon="2.13535">
        <ele>89</ele>
        <time>2021-03-07T12:57:56.746Z</time>
      </trkpt>
      <trkpt lat="48.58524" lon="2.13531">
        <ele>89</ele>
        <time>2021-03-07T12:57:57.745Z</time>
      </trkpt>
      <trkpt lat="48.58529" lon="2.13526">
        <ele>89</ele>
        <time>2021-03-07T12:57:58.746Z</time>
      </trkpt>
      <trkpt lat="48.58534" lon="2.13522">
        <ele>89</ele>
        <time>2021-03-07T12:57:59.745Z</time>
      </trkpt>
      <trkpt lat="48.58539" lon="2.13518">
        <ele>90</ele>
        <time>2021-03-07T12:58:00.746Z</time>
      </trkpt>
      <trkpt lat="48.58544" lon="2.13514">
        <ele>90</ele>
        <time>2021-03-07T12:58:01.746Z</time>
      </trkpt>
      <trkpt lat="48.58549" lon="2.1351">
        <ele>90</ele>
        <time>2021-03-07T12:58:02.746Z</time>
      </trkpt>
      <trkpt lat="48.58554" lon="2.13506">
        <ele>90</ele>
        <time>2021-03-07T12:58:03.746Z</time>
      </trkpt>
      <trkpt lat="48.58559" lon="2.13502">
        <ele>90</ele>
        <time>2021-03-07T12:58:04.746Z</time>
      </trkpt>
      <trkpt lat="48.58564" lon="2.13498">
        <ele>90</ele>
        <time>2021-03-07T12:58:05.746Z</time>
      </trkpt>
      <trkpt lat="48.58568" lon="2.13495">
        <ele>90</ele>
        <time>2021-03-07T12:58:06.746Z</time>
      </trkpt>
      <trkpt lat="48.58573" lon="2.13492">
        <ele>90</ele>
        <time>2021-03-07T12:58:07.746Z</time>
      </trkpt>
      <trkpt lat="48.58578" lon="2.13489">
        <ele>89</ele>
        <time>2021-03-07T12:58:08.746Z</time>
      </trkpt>
      <trkpt lat="48.58584" lon="2.13487">
        <ele>89</ele>
        <time>2021-03-07T12:58:09.746Z</time>
      </trkpt>
      <trkpt lat="48.58589" lon="2.13484">
        <ele>89</ele>
        <time>2021-03-07T12:58:10.745Z</time>
      </trkpt>
      <trkpt lat="48.58595" lon="2.13482">
        <ele>88</ele>
        <time>2021-03-07T12:58:11.746Z</time>
      </trkpt>
      <trkpt lat="48.586" lon="2.1348">
        <ele>88</ele>
        <time>2021-03-07T12:58:12.746Z</time>
      </trkpt>
      <trkpt lat="48.58606" lon="2.13477">
        <ele>89</ele>
        <time>2021-03-07T12:58:13.745Z</time>
      </trkpt>
      <trkpt lat="48.58611" lon="2.13475">
        <ele>89</ele>
        <time>2021-03-07T12:58:14.746Z</time>
      </trkpt>
      <trkpt lat="48.58616" lon="2.13473">
        <ele>89</ele>
        <time>2021-03-07T12:58:15.746Z</time>
      </trkpt>
      <trkpt lat="48.58621" lon="2.13471">
        <ele>90</ele>
        <time>2021-03-07T12:58:16.746Z</time>
      </trkpt>
      <trkpt lat="48.58627" lon="2.13469">
        <ele>90</ele>
        <time>2021-03-07T12:58:17.746Z</time>
      </trkpt>
      <trkpt lat="48.58632" lon="2.13468">
        <ele>90</ele>
        <time>2021-03-07T12:58:18.745Z</time>
      </trkpt>
      <trkpt lat="48.58637" lon="2.13466">
        <ele>91</ele>
        <time>2021-03-07T12:58:19.746Z</time>
      </trkpt>
      <trkpt lat="48.58643" lon="2.13465">
        <ele>91</ele>
        <time>2021-03-07T12:58:20.745Z</time>
      </trkpt>
      <trkpt lat="48.58649" lon="2.13464">
        <ele>91</ele>
        <time>2021-03-07T12:58:21.746Z</time>
      </trkpt>
      <trkpt lat="48.58655" lon="2.13462">
        <ele>91</ele>
        <time>2021-03-07T12:58:22.746Z</time>
      </trkpt>
      <trkpt lat="48.58661" lon="2.13461">
        <ele>91</ele>
        <time>2021-03-07T12:58:23.745Z</time>
      </trkpt>
      <trkpt lat="48.58665" lon="2.13461">
        <ele>91</ele>
        <time>2021-03-07T12:58:24.746Z</time>
      </trkpt>
      <trkpt lat="48.58672" lon="2.13459">
        <ele>91</ele>
        <time>2021-03-07T12:58:25.746Z</time>
      </trkpt>
      <trkpt lat="48.58677" lon="2.13457">
        <ele>91</ele>
        <time>2021-03-07T12:58:26.746Z</time>
      </trkpt>
      <trkpt lat="48.58683" lon="2.13456">
        <ele>90</ele>
        <time>2021-03-07T12:58:27.746Z</time>
      </trkpt>
      <trkpt lat="48.58689" lon="2.13455">
        <ele>90</ele>
        <time>2021-03-07T12:58:28.746Z</time>
      </trkpt>
      <trkpt lat="48.58695" lon="2.13453">
        <ele>89</ele>
        <time>2021-03-07T12:58:29.746Z</time>
      </trkpt>
      <trkpt lat="48.58701" lon="2.13452">
        <ele>89</ele>
        <time>2021-03-07T12:58:30.745Z</time>
      </trkpt>
      <trkpt lat="48.58707" lon="2.1345">
        <ele>89</ele>
        <time>2021-03-07T12:58:31.746Z</time>
      </trkpt>
      <trkpt lat="48.58713" lon="2.13449">
        <ele>89</ele>
        <time>2021-03-07T12:58:32.745Z</time>
      </trkpt>
      <trkpt lat="48.58719" lon="2.13448">
        <ele>89</ele>
        <time>2021-03-07T12:58:33.746Z</time>
      </trkpt>
      <trkpt lat="48.58725" lon="2.13447">
        <ele>89</ele>
        <time>2021-03-07T12:58:34.746Z</time>
      </trkpt>
      <trkpt lat="48.58731" lon="2.13445">
        <ele>89</ele>
        <time>2021-03-07T12:58:35.746Z</time>
      </trkpt>
      <trkpt lat="48.58738" lon="2.13445">
        <ele>89</ele>
        <time>2021-03-07T12:58:36.746Z</time>
      </trkpt>
      <trkpt lat="48.58743" lon="2.13445">
        <ele>89</ele>
        <time>2021-03-07T12:58:37.746Z</time>
      </trkpt>
      <trkpt lat="48.58748" lon="2.13445">
        <ele>90</ele>
        <time>2021-03-07T12:58:38.746Z</time>
      </trkpt>
      <trkpt lat="48.58754" lon="2.13445">
        <ele>91</ele>
        <time>2021-03-07T12:58:39.745Z</time>
      </trkpt>
      <trkpt lat="48.5876" lon="2.13445">
        <ele>91</ele>
        <time>2021-03-07T12:58:40.745Z</time>
      </trkpt>
      <trkpt lat="48.58765" lon="2.13445">
        <ele>92</ele>
        <time>2021-03-07T12:58:41.746Z</time>
      </trkpt>
      <trkpt lat="48.58771" lon="2.13445">
        <ele>92</ele>
        <time>2021-03-07T12:58:42.745Z</time>
      </trkpt>
      <trkpt lat="48.58777" lon="2.13445">
        <ele>92</ele>
        <time>2021-03-07T12:58:43.746Z</time>
      </trkpt>
      <trkpt lat="48.58783" lon="2.13444">
        <ele>93</ele>
        <time>2021-03-07T12:58:44.745Z</time>
      </trkpt>
      <trkpt lat="48.58788" lon="2.13445">
        <ele>93</ele>
        <time>2021-03-07T12:58:45.745Z</time>
      </trkpt>
      <trkpt lat="48.58794" lon="2.13445">
        <ele>93</ele>
        <time>2021-03-07T12:58:46.746Z</time>
      </trkpt>
      <trkpt lat="48.588" lon="2.13445">
        <ele>94</ele>
        <time>2021-03-07T12:58:47.745Z</time>
      </trkpt>
      <trkpt lat="48.58805" lon="2.13445">
        <ele>94</ele>
        <time>2021-03-07T12:58:48.746Z</time>
      </trkpt>
      <trkpt lat="48.58811" lon="2.13445">
        <ele>94</ele>
        <time>2021-03-07T12:58:49.746Z</time>
      </trkpt>
      <trkpt lat="48.58816" lon="2.13445">
        <ele>94</ele>
        <time>2021-03-07T12:58:50.746Z</time>
      </trkpt>
      <trkpt lat="48.58821" lon="2.13446">
        <ele>94</ele>
        <time>2021-03-07T12:58:51.746Z</time>
      </trkpt>
      <trkpt lat="48.58826" lon="2.13446">
        <ele>95</ele>
        <time>2021-03-07T12:58:52.746Z</time>
      </trkpt>
      <trkpt lat="48.5883" lon="2.13446">
        <ele>95</ele>
        <time>2021-03-07T12:58:53.746Z</time>
      </trkpt>
      <trkpt lat="48.58835" lon="2.13446">
        <ele>95</ele>
        <time>2021-03-07T12:58:54.745Z</time>
      </trkpt>
      <trkpt lat="48.58839" lon="2.13446">
        <ele>95</ele>
        <time>2021-03-07T12:58:55.745Z</time>
      </trkpt>
      <trkpt lat="48.58844" lon="2.13446">
        <ele>96</ele>
        <time>2021-03-07T12:58:56.746Z</time>
      </trkpt>
      <trkpt lat="48.58849" lon="2.13445">
        <ele>96</ele>
        <time>2021-03-07T12:58:57.746Z</time>
      </trkpt>
      <trkpt lat="48.58854" lon="2.13445">
        <ele>96</ele>
        <time>2021-03-07T12:58:58.746Z</time>
      </trkpt>
      <trkpt lat="48.58859" lon="2.13445">
        <ele>96</ele>
        <time>2021-03-07T12:58:59.746Z</time>
      </trkpt>
      <trkpt lat="48.58864" lon="2.13445">
        <ele>95</ele>
        <time>2021-03-07T12:59:00.746Z</time>
      </trkpt>
      <trkpt lat="48.5887" lon="2.13446">
        <ele>95</ele>
        <time>2021-03-07T12:59:01.745Z</time>
      </trkpt>
      <trkpt lat="48.58875" lon="2.13446">
        <ele>95</ele>
        <time>2021-03-07T12:59:02.745Z</time>
      </trkpt>
      <trkpt lat="48.5888" lon="2.13446">
        <ele>95</ele>
        <time>2021-03-07T12:59:03.746Z</time>
      </trkpt>
      <trkpt lat="48.58885" lon="2.13446">
        <ele>95</ele>
        <time>2021-03-07T12:59:04.745Z</time>
      </trkpt>
      <trkpt lat="48.58888" lon="2.13446">
        <ele>96</ele>
        <time>2021-03-07T12:59:05.745Z</time>
      </trkpt>
      <trkpt lat="48.58892" lon="2.13446">
        <ele>96</ele>
        <time>2021-03-07T12:59:06.745Z</time>
      </trkpt>
      <trkpt lat="48.58896" lon="2.13446">
        <ele>96</ele>
        <time>2021-03-07T12:59:07.746Z</time>
      </trkpt>
      <trkpt lat="48.58899" lon="2.13446">
        <ele>96</ele>
        <time>2021-03-07T12:59:08.746Z</time>
      </trkpt>
      <trkpt lat="48.58904" lon="2.13445">
        <ele>97</ele>
        <time>2021-03-07T12:59:09.746Z</time>
      </trkpt>
      <trkpt lat="48.58907" lon="2.13445">
        <ele>97</ele>
        <time>2021-03-07T12:59:10.746Z</time>
      </trkpt>
      <trkpt lat="48.5891" lon="2.13445">
        <ele>97</ele>
        <time>2021-03-07T12:59:11.746Z</time>
      </trkpt>
      <trkpt lat="48.58912" lon="2.13445">
        <ele>97</ele>
        <time>2021-03-07T12:59:12.746Z</time>
      </trkpt>
      <trkpt lat="48.58915" lon="2.13445">
        <ele>97</ele>
        <time>2021-03-07T12:59:13.746Z</time>
      </trkpt>
      <trkpt lat="48.58918" lon="2.13445">
        <ele>97</ele>
        <time>2021-03-07T12:59:14.746Z</time>
      </trkpt>
      <trkpt lat="48.5892" lon="2.13444">
        <ele>97</ele>
        <time>2021-03-07T12:59:15.746Z</time>
      </trkpt>
      <trkpt lat="48.58923" lon="2.13445">
        <ele>97</ele>
        <time>2021-03-07T12:59:16.745Z</time>
      </trkpt>
      <trkpt lat="48.58925" lon="2.13445">
        <ele>97</ele>
        <time>2021-03-07T12:59:17.745Z</time>
      </trkpt>
      <trkpt lat="48.58926" lon="2.13445">
        <ele>97</ele>
        <time>2021-03-07T12:59:18.746Z</time>
      </trkpt>
      <trkpt lat="48.58928" lon="2.13445">
        <ele>97</ele>
        <time>2021-03-07T12:59:19.746Z</time>
      </trkpt>
      <trkpt lat="48.58929" lon="2.13445">
        <ele>98</ele>
        <time>2021-03-07T12:59:20.746Z</time>
      </trkpt>
      <trkpt lat="48.58931" lon="2.13445">
        <ele>98</ele>
        <time>2021-03-07T12:59:21.746Z</time>
      </trkpt>
      <trkpt lat="48.58932" lon="2.13445">
        <ele>98</ele>
        <time>2021-03-07T12:59:22.746Z</time>
      </trkpt>
      <trkpt lat="48.58934" lon="2.13445">
        <ele>98</ele>
        <time>2021-03-07T12:59:23.746Z</time>
      </trkpt>
      <trkpt lat="48.58936" lon="2.13445">
        <ele>98</ele>
        <time>2021-03-07T12:59:24.746Z</time>
      </trkpt>
      <trkpt lat="48.58937" lon="2.13446">
        <ele>98</ele>
        <time>2021-03-07T12:59:25.746Z</time>
      </trkpt>
      <trkpt lat="48.58939" lon="2.13445">
        <ele>99</ele>
        <time>2021-03-07T12:59:26.746Z</time>
      </trkpt>
      <trkpt lat="48.58941" lon="2.13446">
        <ele>99</ele>
        <time>2021-03-07T12:59:27.746Z</time>
      </trkpt>
      <trkpt lat="48.58942" lon="2.13445">
        <ele>99</ele>
        <time>2021-03-07T12:59:28.746Z</time>
      </trkpt>
      <trkpt lat="48.58944" lon="2.13445">
        <ele>99</ele>
        <time>2021-03-07T12:59:29.746Z</time>
      </trkpt>
      <trkpt lat="48.58945" lon="2.13445">
        <ele>99</ele>
        <time>2021-03-07T12:59:30.745Z</time>
      </trkpt>
      <trkpt lat="48.58946" lon="2.13446">
        <ele>99</ele>
        <time>2021-03-07T12:59:31.745Z</time>
      </trkpt>
      <trkpt lat="48.58948" lon="2.13446">
        <ele>99</ele>
        <time>2021-03-07T12:59:32.745Z</time>
      </trkpt>
      <trkpt lat="48.58949" lon="2.13446">
        <ele>99</ele>
        <time>2021-03-07T12:59:33.745Z</time>
      </trkpt>
      <trkpt lat="48.5895" lon="2.13447">
        <ele>100</ele>
        <time>2021-03-07T12:59:34.745Z</time>
      </trkpt>
      <trkpt lat="48.58952" lon="2.13447">
        <ele>99</ele>
        <time>2021-03-07T12:59:35.746Z</time>
      </trkpt>
      <trkpt lat="48.58954" lon="2.13447">
        <ele>99</ele>
        <time>2021-03-07T12:59:36.746Z</time>
      </trkpt>
      <trkpt lat="48.58955" lon="2.13447">
        <ele>99</ele>
        <time>2021-03-07T12:59:37.746Z</time>
      </trkpt>
      <trkpt lat="48.58957" lon="2.13447">
        <ele>99</ele>
        <time>2021-03-07T12:59:38.746Z</time>
      </trkpt>
      <trkpt lat="48.58958" lon="2.13447">
        <ele>99</ele>
        <time>2021-03-07T12:59:39.746Z</time>
      </trkpt>
      <trkpt lat="48.5896" lon="2.13447">
        <ele>99</ele>
        <time>2021-03-07T12:59:40.746Z</time>
      </trkpt>
      <trkpt lat="48.58961" lon="2.13447">
        <ele>99</ele>
        <time>2021-03-07T12:59:41.746Z</time>
      </trkpt>
      <trkpt lat="48.58962" lon="2.13447">
        <ele>99</ele>
        <time>2021-03-07T12:59:42.746Z</time>
      </trkpt>
      <trkpt lat="48.58964" lon="2.13447">
        <ele>99</ele>
        <time>2021-03-07T12:59:43.746Z</time>
      </trkpt>
      <trkpt lat="48.58965" lon="2.13447">
        <ele>100</ele>
        <time>2021-03-07T12:59:44.746Z</time>
      </trkpt>
      <trkpt lat="48.58967" lon="2.13447">
        <ele>100</ele>
        <time>2021-03-07T12:59:45.745Z</time>
      </trkpt>
      <trkpt lat="48.58968" lon="2.13447">
        <ele>100</ele>
        <time>2021-03-07T12:59:46.745Z</time>
      </trkpt>
      <trkpt lat="48.58969" lon="2.13447">
        <ele>100</ele>
        <time>2021-03-07T12:59:47.745Z</time>
      </trkpt>
      <trkpt lat="48.58971" lon="2.13447">
        <ele>100</ele>
        <time>2021-03-07T12:59:48.745Z</time>
      </trkpt>
      <trkpt lat="48.58972" lon="2.13446">
        <ele>101</ele>
        <time>2021-03-07T12:59:49.746Z</time>
      </trkpt>
      <trkpt lat="48.58974" lon="2.13446">
        <ele>101</ele>
        <time>2021-03-07T12:59:50.746Z</time>
      </trkpt>
      <trkpt lat="48.58975" lon="2.13446">
        <ele>100</ele>
        <time>2021-03-07T12:59:51.746Z</time>
      </trkpt>
      <trkpt lat="48.58976" lon="2.13446">
        <ele>100</ele>
        <time>2021-03-07T12:59:52.745Z</time>
      </trkpt>
      <trkpt lat="48.58978" lon="2.13446">
        <ele>100</ele>
        <time>2021-03-07T12:59:53.746Z</time>
      </trkpt>
      <trkpt lat="48.58979" lon="2.13446">
        <ele>99</ele>
        <time>2021-03-07T12:59:54.746Z</time>
      </trkpt>
      <trkpt lat="48.58981" lon="2.13446">
        <ele>99</ele>
        <time>2021-03-07T12:59:55.746Z</time>
      </trkpt>
      <trkpt lat="48.58983" lon="2.13446">
        <ele>98</ele>
        <time>2021-03-07T12:59:56.746Z</time>
      </trkpt>
      <trkpt lat="48.58984" lon="2.13445">
        <ele>98</ele>
        <time>2021-03-07T12:59:57.746Z</time>
      </trkpt>
      <trkpt lat="48.58986" lon="2.13445">
        <ele>98</ele>
        <time>2021-03-07T12:59:58.746Z</time>
      </trkpt>
      <trkpt lat="48.58986" lon="2.13444">
        <ele>97</ele>
        <time>2021-03-07T12:59:59.746Z</time>
      </trkpt>
      <trkpt lat="48.58988" lon="2.13443">
        <ele>97</ele>
        <time>2021-03-07T13:00:00.746Z</time>
      </trkpt>
      <trkpt lat="48.58989" lon="2.13442">
        <ele>97</ele>
        <time>2021-03-07T13:00:01.745Z</time>
      </trkpt>
      <trkpt lat="48.59002" lon="2.13433">
        <ele>99</ele>
        <time>2021-03-07T13:00:10.280Z</time>
      </trkpt>
      <trkpt lat="48.59004" lon="2.13433">
        <ele>99</ele>
        <time>2021-03-07T13:00:11.280Z</time>
      </trkpt>
      <trkpt lat="48.59005" lon="2.13432">
        <ele>100</ele>
        <time>2021-03-07T13:00:12.280Z</time>
      </trkpt>
      <trkpt lat="48.59005" lon="2.13431">
        <ele>100</ele>
        <time>2021-03-07T13:00:13.280Z</time>
      </trkpt>
      <trkpt lat="48.59006" lon="2.1343">
        <ele>100</ele>
        <time>2021-03-07T13:00:14.280Z</time>
      </trkpt>
      <trkpt lat="48.59007" lon="2.13429">
        <ele>100</ele>
        <time>2021-03-07T13:00:15.280Z</time>
      </trkpt>
      <trkpt lat="48.59008" lon="2.13428">
        <ele>100</ele>
        <time>2021-03-07T13:00:16.279Z</time>
      </trkpt>
      <trkpt lat="48.59008" lon="2.13428">
        <ele>100</ele>
        <time>2021-03-07T13:00:17.280Z</time>
      </trkpt>
      <trkpt lat="48.59009" lon="2.13427">
        <ele>100</ele>
        <time>2021-03-07T13:00:18.280Z</time>
      </trkpt>
      <trkpt lat="48.5901" lon="2.13426">
        <ele>100</ele>
        <time>2021-03-07T13:00:19.280Z</time>
      </trkpt>
      <trkpt lat="48.59011" lon="2.13424">
        <ele>100</ele>
        <time>2021-03-07T13:00:20.280Z</time>
      </trkpt>
      <trkpt lat="48.59011" lon="2.13424">
        <ele>100</ele>
        <time>2021-03-07T13:00:21.280Z</time>
      </trkpt>
      <trkpt lat="48.59012" lon="2.13423">
        <ele>100</ele>
        <time>2021-03-07T13:00:22.280Z</time>
      </trkpt>
      <trkpt lat="48.59012" lon="2.13421">
        <ele>100</ele>
        <time>2021-03-07T13:00:23.280Z</time>
      </trkpt>
      <trkpt lat="48.59013" lon="2.1342">
        <ele>100</ele>
        <time>2021-03-07T13:00:24.280Z</time>
      </trkpt>
      <trkpt lat="48.59015" lon="2.13419">
        <ele>100</ele>
        <time>2021-03-07T13:00:25.279Z</time>
      </trkpt>
      <trkpt lat="48.59016" lon="2.13418">
        <ele>100</ele>
        <time>2021-03-07T13:00:26.279Z</time>
      </trkpt>
      <trkpt lat="48.59017" lon="2.13418">
        <ele>100</ele>
        <time>2021-03-07T13:00:27.279Z</time>
      </trkpt>
      <trkpt lat="48.59019" lon="2.13417">
        <ele>100</ele>
        <time>2021-03-07T13:00:28.280Z</time>
      </trkpt>
      <trkpt lat="48.59021" lon="2.13416">
        <ele>101</ele>
        <time>2021-03-07T13:00:29.279Z</time>
      </trkpt>
      <trkpt lat="48.59022" lon="2.13415">
        <ele>101</ele>
        <time>2021-03-07T13:00:30.279Z</time>
      </trkpt>
      <trkpt lat="48.59024" lon="2.13414">
        <ele>100</ele>
        <time>2021-03-07T13:00:31.279Z</time>
      </trkpt>
      <trkpt lat="48.59025" lon="2.13413">
        <ele>100</ele>
        <time>2021-03-07T13:00:32.279Z</time>
      </trkpt>
      <trkpt lat="48.59027" lon="2.13412">
        <ele>100</ele>
        <time>2021-03-07T13:00:33.280Z</time>
      </trkpt>
      <trkpt lat="48.59029" lon="2.13411">
        <ele>100</ele>
        <time>2021-03-07T13:00:34.280Z</time>
      </trkpt>
      <trkpt lat="48.5903" lon="2.1341">
        <ele>99</ele>
        <time>2021-03-07T13:00:35.280Z</time>
      </trkpt>
      <trkpt lat="48.59031" lon="2.13409">
        <ele>99</ele>
        <time>2021-03-07T13:00:36.280Z</time>
      </trkpt>
      <trkpt lat="48.59033" lon="2.13407">
        <ele>99</ele>
        <time>2021-03-07T13:00:37.279Z</time>
      </trkpt>
      <trkpt lat="48.59035" lon="2.13406">
        <ele>99</ele>
        <time>2021-03-07T13:00:38.280Z</time>
      </trkpt>
      <trkpt lat="48.59037" lon="2.13405">
        <ele>99</ele>
        <time>2021-03-07T13:00:39.280Z</time>
      </trkpt>
      <trkpt lat="48.59038" lon="2.13404">
        <ele>99</ele>
        <time>2021-03-07T13:00:40.280Z</time>
      </trkpt>
      <trkpt lat="48.59039" lon="2.13404">
        <ele>98</ele>
        <time>2021-03-07T13:00:41.280Z</time>
      </trkpt>
      <trkpt lat="48.5904" lon="2.13403">
        <ele>98</ele>
        <time>2021-03-07T13:00:42.279Z</time>
      </trkpt>
      <trkpt lat="48.59041" lon="2.13401">
        <ele>98</ele>
        <time>2021-03-07T13:00:43.280Z</time>
      </trkpt>
      <trkpt lat="48.59042" lon="2.13399">
        <ele>98</ele>
        <time>2021-03-07T13:00:44.280Z</time>
      </trkpt>
      <trkpt lat="48.59043" lon="2.13398">
        <ele>98</ele>
        <time>2021-03-07T13:00:45.280Z</time>
      </trkpt>
      <trkpt lat="48.59045" lon="2.13396">
        <ele>98</ele>
        <time>2021-03-07T13:00:46.280Z</time>
      </trkpt>
      <trkpt lat="48.59046" lon="2.13395">
        <ele>98</ele>
        <time>2021-03-07T13:00:47.280Z</time>
      </trkpt>
      <trkpt lat="48.59048" lon="2.13394">
        <ele>98</ele>
        <time>2021-03-07T13:00:48.280Z</time>
      </trkpt>
      <trkpt lat="48.59049" lon="2.13392">
        <ele>98</ele>
        <time>2021-03-07T13:00:49.280Z</time>
      </trkpt>
      <trkpt lat="48.5905" lon="2.13391">
        <ele>98</ele>
        <time>2021-03-07T13:00:50.280Z</time>
      </trkpt>
      <trkpt lat="48.59052" lon="2.1339">
        <ele>98</ele>
        <time>2021-03-07T13:00:51.280Z</time>
      </trkpt>
      <trkpt lat="48.59053" lon="2.13389">
        <ele>98</ele>
        <time>2021-03-07T13:00:52.280Z</time>
      </trkpt>
      <trkpt lat="48.59055" lon="2.13388">
        <ele>98</ele>
        <time>2021-03-07T13:00:53.280Z</time>
      </trkpt>
      <trkpt lat="48.59056" lon="2.13387">
        <ele>98</ele>
        <time>2021-03-07T13:00:54.280Z</time>
      </trkpt>
      <trkpt lat="48.59058" lon="2.13386">
        <ele>99</ele>
        <time>2021-03-07T13:00:55.279Z</time>
      </trkpt>
      <trkpt lat="48.59059" lon="2.13386">
        <ele>99</ele>
        <time>2021-03-07T13:00:56.280Z</time>
      </trkpt>
      <trkpt lat="48.59061" lon="2.13385">
        <ele>100</ele>
        <time>2021-03-07T13:00:57.280Z</time>
      </trkpt>
      <trkpt lat="48.59062" lon="2.13384">
        <ele>100</ele>
        <time>2021-03-07T13:00:58.279Z</time>
      </trkpt>
      <trkpt lat="48.59063" lon="2.13382">
        <ele>99</ele>
        <time>2021-03-07T13:00:59.280Z</time>
      </trkpt>
      <trkpt lat="48.59065" lon="2.13381">
        <ele>99</ele>
        <time>2021-03-07T13:01:00.280Z</time>
      </trkpt>
      <trkpt lat="48.59066" lon="2.1338">
        <ele>99</ele>
        <time>2021-03-07T13:01:01.279Z</time>
      </trkpt>
      <trkpt lat="48.59067" lon="2.13379">
        <ele>99</ele>
        <time>2021-03-07T13:01:02.280Z</time>
      </trkpt>
      <trkpt lat="48.59068" lon="2.13379">
        <ele>99</ele>
        <time>2021-03-07T13:01:03.280Z</time>
      </trkpt>
      <trkpt lat="48.59069" lon="2.13378">
        <ele>99</ele>
        <time>2021-03-07T13:01:04.280Z</time>
      </trkpt>
      <trkpt lat="48.59071" lon="2.13377">
        <ele>100</ele>
        <time>2021-03-07T13:01:05.280Z</time>
      </trkpt>
      <trkpt lat="48.59071" lon="2.13376">
        <ele>100</ele>
        <time>2021-03-07T13:01:06.280Z</time>
      </trkpt>
      <trkpt lat="48.59072" lon="2.13375">
        <ele>100</ele>
        <time>2021-03-07T13:01:07.280Z</time>
      </trkpt>
      <trkpt lat="48.59074" lon="2.13374">
        <ele>100</ele>
        <time>2021-03-07T13:01:08.280Z</time>
      </trkpt>
      <trkpt lat="48.59075" lon="2.13373">
        <ele>100</ele>
        <time>2021-03-07T13:01:09.280Z</time>
      </trkpt>
      <trkpt lat="48.59076" lon="2.13372">
        <ele>100</ele>
        <time>2021-03-07T13:01:10.280Z</time>
      </trkpt>
      <trkpt lat="48.59078" lon="2.13371">
        <ele>100</ele>
        <time>2021-03-07T13:01:11.280Z</time>
      </trkpt>
      <trkpt lat="48.59079" lon="2.1337">
        <ele>100</ele>
        <time>2021-03-07T13:01:12.280Z</time>
      </trkpt>
      <trkpt lat="48.5908" lon="2.13369">
        <ele>100</ele>
        <time>2021-03-07T13:01:13.280Z</time>
      </trkpt>
      <trkpt lat="48.59081" lon="2.13368">
        <ele>100</ele>
        <time>2021-03-07T13:01:14.280Z</time>
      </trkpt>
      <trkpt lat="48.59083" lon="2.13367">
        <ele>101</ele>
        <time>2021-03-07T13:01:15.279Z</time>
      </trkpt>
      <trkpt lat="48.59084" lon="2.13366">
        <ele>101</ele>
        <time>2021-03-07T13:01:16.280Z</time>
      </trkpt>
      <trkpt lat="48.59086" lon="2.13366">
        <ele>102</ele>
        <time>2021-03-07T13:01:17.280Z</time>
      </trkpt>
      <trkpt lat="48.59087" lon="2.13365">
        <ele>102</ele>
        <time>2021-03-07T13:01:18.280Z</time>
      </trkpt>
      <trkpt lat="48.59088" lon="2.13365">
        <ele>102</ele>
        <time>2021-03-07T13:01:19.280Z</time>
      </trkpt>
      <trkpt lat="48.59089" lon="2.13364">
        <ele>102</ele>
        <time>2021-03-07T13:01:20.280Z</time>
      </trkpt>
      <trkpt lat="48.59091" lon="2.13363">
        <ele>102</ele>
        <time>2021-03-07T13:01:21.280Z</time>
      </trkpt>
      <trkpt lat="48.59092" lon="2.13363">
        <ele>102</ele>
        <time>2021-03-07T13:01:22.280Z</time>
      </trkpt>
      <trkpt lat="48.59094" lon="2.13362">
        <ele>102</ele>
        <time>2021-03-07T13:01:23.280Z</time>
      </trkpt>
      <trkpt lat="48.59095" lon="2.13362">
        <ele>102</ele>
        <time>2021-03-07T13:01:24.279Z</time>
      </trkpt>
      <trkpt lat="48.59096" lon="2.1336">
        <ele>102</ele>
        <time>2021-03-07T13:01:25.279Z</time>
      </trkpt>
      <trkpt lat="48.59098" lon="2.13359">
        <ele>102</ele>
        <time>2021-03-07T13:01:26.279Z</time>
      </trkpt>
      <trkpt lat="48.59099" lon="2.13358">
        <ele>103</ele>
        <time>2021-03-07T13:01:27.280Z</time>
      </trkpt>
      <trkpt lat="48.59101" lon="2.13357">
        <ele>103</ele>
        <time>2021-03-07T13:01:28.280Z</time>
      </trkpt>
      <trkpt lat="48.59102" lon="2.13356">
        <ele>102</ele>
        <time>2021-03-07T13:01:29.280Z</time>
      </trkpt>
      <trkpt lat="48.59103" lon="2.13356">
        <ele>102</ele>
        <time>2021-03-07T13:01:30.280Z</time>
      </trkpt>
      <trkpt lat="48.59105" lon="2.13355">
        <ele>102</ele>
        <time>2021-03-07T13:01:31.280Z</time>
      </trkpt>
      <trkpt lat="48.59106" lon="2.13354">
        <ele>102</ele>
        <time>2021-03-07T13:01:32.280Z</time>
      </trkpt>
      <trkpt lat="48.59107" lon="2.13354">
        <ele>102</ele>
        <time>2021-03-07T13:01:33.280Z</time>
      </trkpt>
      <trkpt lat="48.59108" lon="2.13355">
        <ele>102</ele>
        <time>2021-03-07T13:01:34.280Z</time>
      </trkpt>
      <trkpt lat="48.59109" lon="2.13355">
        <ele>102</ele>
        <time>2021-03-07T13:01:35.279Z</time>
      </trkpt>
      <trkpt lat="48.5911" lon="2.13356">
        <ele>102</ele>
        <time>2021-03-07T13:01:36.279Z</time>
      </trkpt>
      <trkpt lat="48.59112" lon="2.13356">
        <ele>102</ele>
        <time>2021-03-07T13:01:37.280Z</time>
      </trkpt>
      <trkpt lat="48.59114" lon="2.13358">
        <ele>102</ele>
        <time>2021-03-07T13:01:38.280Z</time>
      </trkpt>
      <trkpt lat="48.59115" lon="2.13359">
        <ele>102</ele>
        <time>2021-03-07T13:01:39.280Z</time>
      </trkpt>
      <trkpt lat="48.59116" lon="2.1336">
        <ele>102</ele>
        <time>2021-03-07T13:01:40.280Z</time>
      </trkpt>
      <trkpt lat="48.59117" lon="2.13361">
        <ele>102</ele>
        <time>2021-03-07T13:01:41.280Z</time>
      </trkpt>
      <trkpt lat="48.59117" lon="2.13361">
        <ele>102</ele>
        <time>2021-03-07T13:01:42.280Z</time>
      </trkpt>
      <trkpt lat="48.59118" lon="2.13362">
        <ele>103</ele>
        <time>2021-03-07T13:01:43.280Z</time>
      </trkpt>
      <trkpt lat="48.59119" lon="2.13363">
        <ele>103</ele>
        <time>2021-03-07T13:01:44.280Z</time>
      </trkpt>
      <trkpt lat="48.5912" lon="2.13363">
        <ele>103</ele>
        <time>2021-03-07T13:01:45.280Z</time>
      </trkpt>
      <trkpt lat="48.59121" lon="2.13364">
        <ele>103</ele>
        <time>2021-03-07T13:01:46.279Z</time>
      </trkpt>
      <trkpt lat="48.59122" lon="2.13365">
        <ele>103</ele>
        <time>2021-03-07T13:01:47.279Z</time>
      </trkpt>
      <trkpt lat="48.59123" lon="2.13366">
        <ele>104</ele>
        <time>2021-03-07T13:01:48.280Z</time>
      </trkpt>
      <trkpt lat="48.59123" lon="2.13368">
        <ele>104</ele>
        <time>2021-03-07T13:01:49.279Z</time>
      </trkpt>
      <trkpt lat="48.59124" lon="2.13368">
        <ele>103</ele>
        <time>2021-03-07T13:01:50.280Z</time>
      </trkpt>
      <trkpt lat="48.59124" lon="2.13369">
        <ele>103</ele>
        <time>2021-03-07T13:01:51.279Z</time>
      </trkpt>
      <trkpt lat="48.59125" lon="2.1337">
        <ele>103</ele>
        <time>2021-03-07T13:01:52.279Z</time>
      </trkpt>
      <trkpt lat="48.59126" lon="2.13371">
        <ele>103</ele>
        <time>2021-03-07T13:01:53.280Z</time>
      </trkpt>
      <trkpt lat="48.59127" lon="2.13372">
        <ele>103</ele>
        <time>2021-03-07T13:01:54.280Z</time>
      </trkpt>
      <trkpt lat="48.59128" lon="2.13373">
        <ele>103</ele>
        <time>2021-03-07T13:01:55.280Z</time>
      </trkpt>
      <trkpt lat="48.59129" lon="2.13375">
        <ele>103</ele>
        <time>2021-03-07T13:01:56.280Z</time>
      </trkpt>
      <trkpt lat="48.59131" lon="2.13377">
        <ele>103</ele>
        <time>2021-03-07T13:01:57.280Z</time>
      </trkpt>
      <trkpt lat="48.59133" lon="2.13378">
        <ele>103</ele>
        <time>2021-03-07T13:01:58.280Z</time>
      </trkpt>
      <trkpt lat="48.59134" lon="2.1338">
        <ele>103</ele>
        <time>2021-03-07T13:01:59.280Z</time>
      </trkpt>
      <trkpt lat="48.59135" lon="2.13382">
        <ele>103</ele>
        <time>2021-03-07T13:02:00.279Z</time>
      </trkpt>
      <trkpt lat="48.59137" lon="2.13384">
        <ele>103</ele>
        <time>2021-03-07T13:02:01.280Z</time>
      </trkpt>
      <trkpt lat="48.59138" lon="2.13385">
        <ele>103</ele>
        <time>2021-03-07T13:02:02.279Z</time>
      </trkpt>
      <trkpt lat="48.59139" lon="2.13386">
        <ele>103</ele>
        <time>2021-03-07T13:02:03.280Z</time>
      </trkpt>
      <trkpt lat="48.5914" lon="2.13387">
        <ele>103</ele>
        <time>2021-03-07T13:02:04.280Z</time>
      </trkpt>
      <trkpt lat="48.59141" lon="2.13389">
        <ele>103</ele>
        <time>2021-03-07T13:02:05.280Z</time>
      </trkpt>
      <trkpt lat="48.59142" lon="2.1339">
        <ele>103</ele>
        <time>2021-03-07T13:02:06.279Z</time>
      </trkpt>
      <trkpt lat="48.59144" lon="2.13391">
        <ele>103</ele>
        <time>2021-03-07T13:02:07.280Z</time>
      </trkpt>
      <trkpt lat="48.59146" lon="2.13393">
        <ele>103</ele>
        <time>2021-03-07T13:02:08.280Z</time>
      </trkpt>
      <trkpt lat="48.59147" lon="2.13393">
        <ele>103</ele>
        <time>2021-03-07T13:02:09.280Z</time>
      </trkpt>
      <trkpt lat="48.59148" lon="2.13394">
        <ele>103</ele>
        <time>2021-03-07T13:02:10.280Z</time>
      </trkpt>
      <trkpt lat="48.59148" lon="2.13395">
        <ele>103</ele>
        <time>2021-03-07T13:02:11.279Z</time>
      </trkpt>
      <trkpt lat="48.59149" lon="2.13396">
        <ele>103</ele>
        <time>2021-03-07T13:02:12.279Z</time>
      </trkpt>
      <trkpt lat="48.5915" lon="2.13398">
        <ele>103</ele>
        <time>2021-03-07T13:02:13.280Z</time>
      </trkpt>
      <trkpt lat="48.59151" lon="2.13399">
        <ele>103</ele>
        <time>2021-03-07T13:02:14.280Z</time>
      </trkpt>
      <trkpt lat="48.59151" lon="2.134">
        <ele>104</ele>
        <time>2021-03-07T13:02:15.279Z</time>
      </trkpt>
      <trkpt lat="48.59153" lon="2.13401">
        <ele>104</ele>
        <time>2021-03-07T13:02:16.280Z</time>
      </trkpt>
      <trkpt lat="48.59154" lon="2.13402">
        <ele>104</ele>
        <time>2021-03-07T13:02:17.280Z</time>
      </trkpt>
      <trkpt lat="48.59155" lon="2.13404">
        <ele>105</ele>
        <time>2021-03-07T13:02:18.280Z</time>
      </trkpt>
      <trkpt lat="48.59156" lon="2.13405">
        <ele>105</ele>
        <time>2021-03-07T13:02:19.280Z</time>
      </trkpt>
      <trkpt lat="48.59157" lon="2.13406">
        <ele>105</ele>
        <time>2021-03-07T13:02:20.280Z</time>
      </trkpt>
      <trkpt lat="48.59158" lon="2.13407">
        <ele>105</ele>
        <time>2021-03-07T13:02:21.280Z</time>
      </trkpt>
      <trkpt lat="48.59158" lon="2.13409">
        <ele>106</ele>
        <time>2021-03-07T13:02:22.280Z</time>
      </trkpt>
      <trkpt lat="48.59159" lon="2.1341">
        <ele>106</ele>
        <time>2021-03-07T13:02:23.280Z</time>
      </trkpt>
      <trkpt lat="48.59161" lon="2.13412">
        <ele>106</ele>
        <time>2021-03-07T13:02:24.279Z</time>
      </trkpt>
      <trkpt lat="48.59161" lon="2.13414">
        <ele>106</ele>
        <time>2021-03-07T13:02:25.280Z</time>
      </trkpt>
      <trkpt lat="48.59162" lon="2.13415">
        <ele>106</ele>
        <time>2021-03-07T13:02:26.280Z</time>
      </trkpt>
      <trkpt lat="48.59163" lon="2.13416">
        <ele>107</ele>
        <time>2021-03-07T13:02:27.279Z</time>
      </trkpt>
      <trkpt lat="48.59164" lon="2.13418">
        <ele>107</ele>
        <time>2021-03-07T13:02:28.280Z</time>
      </trkpt>
      <trkpt lat="48.59166" lon="2.13419">
        <ele>107</ele>
        <time>2021-03-07T13:02:29.280Z</time>
      </trkpt>
      <trkpt lat="48.59167" lon="2.1342">
        <ele>107</ele>
        <time>2021-03-07T13:02:30.279Z</time>
      </trkpt>
      <trkpt lat="48.59169" lon="2.13422">
        <ele>107</ele>
        <time>2021-03-07T13:02:31.280Z</time>
      </trkpt>
      <trkpt lat="48.59171" lon="2.13424">
        <ele>107</ele>
        <time>2021-03-07T13:02:32.280Z</time>
      </trkpt>
      <trkpt lat="48.59172" lon="2.13426">
        <ele>107</ele>
        <time>2021-03-07T13:02:33.280Z</time>
      </trkpt>
      <trkpt lat="48.59174" lon="2.13428">
        <ele>106</ele>
        <time>2021-03-07T13:02:34.280Z</time>
      </trkpt>
      <trkpt lat="48.59175" lon="2.13431">
        <ele>106</ele>
        <time>2021-03-07T13:02:35.279Z</time>
      </trkpt>
      <trkpt lat="48.59177" lon="2.13433">
        <ele>105</ele>
        <time>2021-03-07T13:02:36.280Z</time>
      </trkpt>
      <trkpt lat="48.59178" lon="2.13436">
        <ele>105</ele>
        <time>2021-03-07T13:02:37.279Z</time>
      </trkpt>
      <trkpt lat="48.59179" lon="2.13438">
        <ele>104</ele>
        <time>2021-03-07T13:02:38.280Z</time>
      </trkpt>
      <trkpt lat="48.5918" lon="2.13441">
        <ele>104</ele>
        <time>2021-03-07T13:02:39.280Z</time>
      </trkpt>
      <trkpt lat="48.59182" lon="2.13443">
        <ele>104</ele>
        <time>2021-03-07T13:02:40.280Z</time>
      </trkpt>
      <trkpt lat="48.59184" lon="2.13445">
        <ele>104</ele>
        <time>2021-03-07T13:02:41.280Z</time>
      </trkpt>
      <trkpt lat="48.59186" lon="2.13447">
        <ele>105</ele>
        <time>2021-03-07T13:02:42.279Z</time>
      </trkpt>
      <trkpt lat="48.59187" lon="2.13449">
        <ele>105</ele>
        <time>2021-03-07T13:02:43.280Z</time>
      </trkpt>
      <trkpt lat="48.59189" lon="2.13451">
        <ele>105</ele>
        <time>2021-03-07T13:02:44.280Z</time>
      </trkpt>
      <trkpt lat="48.59189" lon="2.13453">
        <ele>105</ele>
        <time>2021-03-07T13:02:45.280Z</time>
      </trkpt>
      <trkpt lat="48.5919" lon="2.13455">
        <ele>105</ele>
        <time>2021-03-07T13:02:46.280Z</time>
      </trkpt>
      <trkpt lat="48.59191" lon="2.13457">
        <ele>105</ele>
        <time>2021-03-07T13:02:47.280Z</time>
      </trkpt>
      <trkpt lat="48.59191" lon="2.13458">
        <ele>105</ele>
        <time>2021-03-07T13:02:48.280Z</time>
      </trkpt>
      <trkpt lat="48.59192" lon="2.13457">
        <ele>105</ele>
        <time>2021-03-07T13:02:49.280Z</time>
      </trkpt>
      <trkpt lat="48.59193" lon="2.13457">
        <ele>106</ele>
        <time>2021-03-07T13:02:50.280Z</time>
      </trkpt>
      <trkpt lat="48.59195" lon="2.13458">
        <ele>106</ele>
        <time>2021-03-07T13:02:51.280Z</time>
      </trkpt>
      <trkpt lat="48.59196" lon="2.1346">
        <ele>106</ele>
        <time>2021-03-07T13:02:52.280Z</time>
      </trkpt>
      <trkpt lat="48.59197" lon="2.13462">
        <ele>106</ele>
        <time>2021-03-07T13:02:53.280Z</time>
      </trkpt>
      <trkpt lat="48.59199" lon="2.13465">
        <ele>107</ele>
        <time>2021-03-07T13:02:54.280Z</time>
      </trkpt>
      <trkpt lat="48.59201" lon="2.13467">
        <ele>107</ele>
        <time>2021-03-07T13:02:55.280Z</time>
      </trkpt>
      <trkpt lat="48.59203" lon="2.13468">
        <ele>107</ele>
        <time>2021-03-07T13:02:56.280Z</time>
      </trkpt>
      <trkpt lat="48.59204" lon="2.1347">
        <ele>107</ele>
        <time>2021-03-07T13:02:57.279Z</time>
      </trkpt>
      <trkpt lat="48.59205" lon="2.13472">
        <ele>106</ele>
        <time>2021-03-07T13:02:58.280Z</time>
      </trkpt>
      <trkpt lat="48.59206" lon="2.13474">
        <ele>106</ele>
        <time>2021-03-07T13:02:59.279Z</time>
      </trkpt>
      <trkpt lat="48.59207" lon="2.13475">
        <ele>106</ele>
        <time>2021-03-07T13:03:00.280Z</time>
      </trkpt>
      <trkpt lat="48.59208" lon="2.13476">
        <ele>105</ele>
        <time>2021-03-07T13:03:01.280Z</time>
      </trkpt>
      <trkpt lat="48.59208" lon="2.13478">
        <ele>105</ele>
        <time>2021-03-07T13:03:02.280Z</time>
      </trkpt>
      <trkpt lat="48.59208" lon="2.1348">
        <ele>105</ele>
        <time>2021-03-07T13:03:03.280Z</time>
      </trkpt>
      <trkpt lat="48.59209" lon="2.13482">
        <ele>105</ele>
        <time>2021-03-07T13:03:04.280Z</time>
      </trkpt>
      <trkpt lat="48.59209" lon="2.13483">
        <ele>104</ele>
        <time>2021-03-07T13:03:05.280Z</time>
      </trkpt>
      <trkpt lat="48.5921" lon="2.13484">
        <ele>104</ele>
        <time>2021-03-07T13:03:06.280Z</time>
      </trkpt>
      <trkpt lat="48.59211" lon="2.13486">
        <ele>104</ele>
        <time>2021-03-07T13:03:07.280Z</time>
      </trkpt>
      <trkpt lat="48.59213" lon="2.13488">
        <ele>104</ele>
        <time>2021-03-07T13:03:08.280Z</time>
      </trkpt>
      <trkpt lat="48.59215" lon="2.1349">
        <ele>103</ele>
        <time>2021-03-07T13:03:09.280Z</time>
      </trkpt>
      <trkpt lat="48.59216" lon="2.13492">
        <ele>103</ele>
        <time>2021-03-07T13:03:10.280Z</time>
      </trkpt>
      <trkpt lat="48.59216" lon="2.13494">
        <ele>102</ele>
        <time>2021-03-07T13:03:11.280Z</time>
      </trkpt>
      <trkpt lat="48.59217" lon="2.13495">
        <ele>102</ele>
        <time>2021-03-07T13:03:12.280Z</time>
      </trkpt>
      <trkpt lat="48.59218" lon="2.13497">
        <ele>102</ele>
        <time>2021-03-07T13:03:13.280Z</time>
      </trkpt>
      <trkpt lat="48.59219" lon="2.13499">
        <ele>101</ele>
        <time>2021-03-07T13:03:14.280Z</time>
      </trkpt>
      <trkpt lat="48.5922" lon="2.13501">
        <ele>101</ele>
        <time>2021-03-07T13:03:15.280Z</time>
      </trkpt>
      <trkpt lat="48.59221" lon="2.13503">
        <ele>101</ele>
        <time>2021-03-07T13:03:16.280Z</time>
      </trkpt>
      <trkpt lat="48.59221" lon="2.13504">
        <ele>101</ele>
        <time>2021-03-07T13:03:17.280Z</time>
      </trkpt>
      <trkpt lat="48.59222" lon="2.13506">
        <ele>100</ele>
        <time>2021-03-07T13:03:18.279Z</time>
      </trkpt>
      <trkpt lat="48.59224" lon="2.13508">
        <ele>100</ele>
        <time>2021-03-07T13:03:19.280Z</time>
      </trkpt>
      <trkpt lat="48.59225" lon="2.1351">
        <ele>99</ele>
        <time>2021-03-07T13:03:20.279Z</time>
      </trkpt>
      <trkpt lat="48.59226" lon="2.13512">
        <ele>99</ele>
        <time>2021-03-07T13:03:21.280Z</time>
      </trkpt>
      <trkpt lat="48.59227" lon="2.13514">
        <ele>99</ele>
        <time>2021-03-07T13:03:22.279Z</time>
      </trkpt>
      <trkpt lat="48.59228" lon="2.13516">
        <ele>99</ele>
        <time>2021-03-07T13:03:23.280Z</time>
      </trkpt>
      <trkpt lat="48.59228" lon="2.13519">
        <ele>99</ele>
        <time>2021-03-07T13:03:24.280Z</time>
      </trkpt>
      <trkpt lat="48.59229" lon="2.13521">
        <ele>99</ele>
        <time>2021-03-07T13:03:25.280Z</time>
      </trkpt>
      <trkpt lat="48.5923" lon="2.13523">
        <ele>98</ele>
        <time>2021-03-07T13:03:26.280Z</time>
      </trkpt>
      <trkpt lat="48.59231" lon="2.13525">
        <ele>98</ele>
        <time>2021-03-07T13:03:27.279Z</time>
      </trkpt>
      <trkpt lat="48.59231" lon="2.13528">
        <ele>98</ele>
        <time>2021-03-07T13:03:28.280Z</time>
      </trkpt>
      <trkpt lat="48.59233" lon="2.13529">
        <ele>98</ele>
        <time>2021-03-07T13:03:29.280Z</time>
      </trkpt>
      <trkpt lat="48.59234" lon="2.13531">
        <ele>98</ele>
        <time>2021-03-07T13:03:30.279Z</time>
      </trkpt>
      <trkpt lat="48.59235" lon="2.13533">
        <ele>98</ele>
        <time>2021-03-07T13:03:31.280Z</time>
      </trkpt>
      <trkpt lat="48.59236" lon="2.13535">
        <ele>98</ele>
        <time>2021-03-07T13:03:32.280Z</time>
      </trkpt>
      <trkpt lat="48.59237" lon="2.13538">
        <ele>98</ele>
        <time>2021-03-07T13:03:33.280Z</time>
      </trkpt>
      <trkpt lat="48.59238" lon="2.13539">
        <ele>97</ele>
        <time>2021-03-07T13:03:34.280Z</time>
      </trkpt>
      <trkpt lat="48.59239" lon="2.13541">
        <ele>97</ele>
        <time>2021-03-07T13:03:35.279Z</time>
      </trkpt>
      <trkpt lat="48.5924" lon="2.13543">
        <ele>97</ele>
        <time>2021-03-07T13:03:36.280Z</time>
      </trkpt>
      <trkpt lat="48.59242" lon="2.13545">
        <ele>97</ele>
        <time>2021-03-07T13:03:37.280Z</time>
      </trkpt>
      <trkpt lat="48.59243" lon="2.13547">
        <ele>97</ele>
        <time>2021-03-07T13:03:38.280Z</time>
      </trkpt>
      <trkpt lat="48.59243" lon="2.1355">
        <ele>97</ele>
        <time>2021-03-07T13:03:39.280Z</time>
      </trkpt>
      <trkpt lat="48.59244" lon="2.13552">
        <ele>97</ele>
        <time>2021-03-07T13:03:40.280Z</time>
      </trkpt>
      <trkpt lat="48.59244" lon="2.13554">
        <ele>97</ele>
        <time>2021-03-07T13:03:41.280Z</time>
      </trkpt>
      <trkpt lat="48.59245" lon="2.13555">
        <ele>97</ele>
        <time>2021-03-07T13:03:42.279Z</time>
      </trkpt>
      <trkpt lat="48.59246" lon="2.13556">
        <ele>97</ele>
        <time>2021-03-07T13:03:43.280Z</time>
      </trkpt>
      <trkpt lat="48.59247" lon="2.13557">
        <ele>96</ele>
        <time>2021-03-07T13:03:44.280Z</time>
      </trkpt>
      <trkpt lat="48.59247" lon="2.13559">
        <ele>96</ele>
        <time>2021-03-07T13:03:45.280Z</time>
      </trkpt>
      <trkpt lat="48.59247" lon="2.13561">
        <ele>96</ele>
        <time>2021-03-07T13:03:46.280Z</time>
      </trkpt>
      <trkpt lat="48.59248" lon="2.13563">
        <ele>95</ele>
        <time>2021-03-07T13:03:47.280Z</time>
      </trkpt>
      <trkpt lat="48.59249" lon="2.13565">
        <ele>95</ele>
        <time>2021-03-07T13:03:48.280Z</time>
      </trkpt>
      <trkpt lat="48.59251" lon="2.13566">
        <ele>94</ele>
        <time>2021-03-07T13:03:49.280Z</time>
      </trkpt>
      <trkpt lat="48.59253" lon="2.13568">
        <ele>94</ele>
        <time>2021-03-07T13:03:50.280Z</time>
      </trkpt>
      <trkpt lat="48.59254" lon="2.1357">
        <ele>94</ele>
        <time>2021-03-07T13:03:51.280Z</time>
      </trkpt>
      <trkpt lat="48.59255" lon="2.13573">
        <ele>94</ele>
        <time>2021-03-07T13:03:52.280Z</time>
      </trkpt>
      <trkpt lat="48.59256" lon="2.13576">
        <ele>94</ele>
        <time>2021-03-07T13:03:53.280Z</time>
      </trkpt>
      <trkpt lat="48.59257" lon="2.13579">
        <ele>94</ele>
        <time>2021-03-07T13:03:54.280Z</time>
      </trkpt>
      <trkpt lat="48.59257" lon="2.13581">
        <ele>95</ele>
        <time>2021-03-07T13:03:55.280Z</time>
      </trkpt>
      <trkpt lat="48.59257" lon="2.13583">
        <ele>95</ele>
        <time>2021-03-07T13:03:56.279Z</time>
      </trkpt>
      <trkpt lat="48.59258" lon="2.13585">
        <ele>95</ele>
        <time>2021-03-07T13:03:57.280Z</time>
      </trkpt>
      <trkpt lat="48.59259" lon="2.13587">
        <ele>96</ele>
        <time>2021-03-07T13:03:58.280Z</time>
      </trkpt>
      <trkpt lat="48.59259" lon="2.13589">
        <ele>96</ele>
        <time>2021-03-07T13:03:59.279Z</time>
      </trkpt>
      <trkpt lat="48.59261" lon="2.13591">
        <ele>97</ele>
        <time>2021-03-07T13:04:00.280Z</time>
      </trkpt>
      <trkpt lat="48.59262" lon="2.13594">
        <ele>97</ele>
        <time>2021-03-07T13:04:01.279Z</time>
      </trkpt>
      <trkpt lat="48.59263" lon="2.13596">
        <ele>98</ele>
        <time>2021-03-07T13:04:02.280Z</time>
      </trkpt>
      <trkpt lat="48.59264" lon="2.13598">
        <ele>99</ele>
        <time>2021-03-07T13:04:03.280Z</time>
      </trkpt>
      <trkpt lat="48.59265" lon="2.13599">
        <ele>99</ele>
        <time>2021-03-07T13:04:04.279Z</time>
      </trkpt>
      <trkpt lat="48.59266" lon="2.13601">
        <ele>99</ele>
        <time>2021-03-07T13:04:05.280Z</time>
      </trkpt>
      <trkpt lat="48.59266" lon="2.13602">
        <ele>100</ele>
        <time>2021-03-07T13:04:06.280Z</time>
      </trkpt>
      <trkpt lat="48.59268" lon="2.13604">
        <ele>100</ele>
        <time>2021-03-07T13:04:07.280Z</time>
      </trkpt>
      <trkpt lat="48.59269" lon="2.13606">
        <ele>101</ele>
        <time>2021-03-07T13:04:08.280Z</time>
      </trkpt>
      <trkpt lat="48.59269" lon="2.13608">
        <ele>101</ele>
        <time>2021-03-07T13:04:09.280Z</time>
      </trkpt>
      <trkpt lat="48.5927" lon="2.1361">
        <ele>101</ele>
        <time>2021-03-07T13:04:10.280Z</time>
      </trkpt>
      <trkpt lat="48.5927" lon="2.13612">
        <ele>102</ele>
        <time>2021-03-07T13:04:11.280Z</time>
      </trkpt>
      <trkpt lat="48.5927" lon="2.13614">
        <ele>102</ele>
        <time>2021-03-07T13:04:12.280Z</time>
      </trkpt>
      <trkpt lat="48.59271" lon="2.13615">
        <ele>102</ele>
        <time>2021-03-07T13:04:13.279Z</time>
      </trkpt>
      <trkpt lat="48.59272" lon="2.13617">
        <ele>102</ele>
        <time>2021-03-07T13:04:14.280Z</time>
      </trkpt>
      <trkpt lat="48.59272" lon="2.13618">
        <ele>103</ele>
        <time>2021-03-07T13:04:15.280Z</time>
      </trkpt>
      <trkpt lat="48.59272" lon="2.1362">
        <ele>103</ele>
        <time>2021-03-07T13:04:16.279Z</time>
      </trkpt>
      <trkpt lat="48.59272" lon="2.13621">
        <ele>103</ele>
        <time>2021-03-07T13:04:17.280Z</time>
      </trkpt>
      <trkpt lat="48.59273" lon="2.13623">
        <ele>104</ele>
        <time>2021-03-07T13:04:18.280Z</time>
      </trkpt>
      <trkpt lat="48.59272" lon="2.13624">
        <ele>104</ele>
        <time>2021-03-07T13:04:19.279Z</time>
      </trkpt>
      <trkpt lat="48.59273" lon="2.13626">
        <ele>104</ele>
        <time>2021-03-07T13:04:20.280Z</time>
      </trkpt>
      <trkpt lat="48.59273" lon="2.13627">
        <ele>105</ele>
        <time>2021-03-07T13:04:21.280Z</time>
      </trkpt>
      <trkpt lat="48.59273" lon="2.13629">
        <ele>105</ele>
        <time>2021-03-07T13:04:22.280Z</time>
      </trkpt>
      <trkpt lat="48.59275" lon="2.13631">
        <ele>106</ele>
        <time>2021-03-07T13:04:23.280Z</time>
      </trkpt>
      <trkpt lat="48.59275" lon="2.13633">
        <ele>107</ele>
        <time>2021-03-07T13:04:24.279Z</time>
      </trkpt>
      <trkpt lat="48.59275" lon="2.13635">
        <ele>107</ele>
        <time>2021-03-07T13:04:25.279Z</time>
      </trkpt>
      <trkpt lat="48.59276" lon="2.13636">
        <ele>107</ele>
        <time>2021-03-07T13:04:26.280Z</time>
      </trkpt>
      <trkpt lat="48.59277" lon="2.13637">
        <ele>108</ele>
        <time>2021-03-07T13:04:27.279Z</time>
      </trkpt>
      <trkpt lat="48.59277" lon="2.13637">
        <ele>108</ele>
        <time>2021-03-07T13:04:28.280Z</time>
      </trkpt>
      <trkpt lat="48.59278" lon="2.13639">
        <ele>109</ele>
        <time>2021-03-07T13:04:29.280Z</time>
      </trkpt>
      <trkpt lat="48.59279" lon="2.13641">
        <ele>109</ele>
        <time>2021-03-07T13:04:30.280Z</time>
      </trkpt>
      <trkpt lat="48.5928" lon="2.13643">
        <ele>109</ele>
        <time>2021-03-07T13:04:31.280Z</time>
      </trkpt>
      <trkpt lat="48.5928" lon="2.13643">
        <ele>110</ele>
        <time>2021-03-07T13:04:32.280Z</time>
      </trkpt>
      <trkpt lat="48.59281" lon="2.13643">
        <ele>110</ele>
        <time>2021-03-07T13:04:33.280Z</time>
      </trkpt>
      <trkpt lat="48.5928" lon="2.13642">
        <ele>111</ele>
        <time>2021-03-07T13:04:34.280Z</time>
      </trkpt>
      <trkpt lat="48.5928" lon="2.1364">
        <ele>111</ele>
        <time>2021-03-07T13:04:35.280Z</time>
      </trkpt>
      <trkpt lat="48.59279" lon="2.13639">
        <ele>111</ele>
        <time>2021-03-07T13:04:36.280Z</time>
      </trkpt>
      <trkpt lat="48.59279" lon="2.13637">
        <ele>111</ele>
        <time>2021-03-07T13:04:37.280Z</time>
      </trkpt>
      <trkpt lat="48.59278" lon="2.13636">
        <ele>111</ele>
        <time>2021-03-07T13:04:38.280Z</time>
      </trkpt>
      <trkpt lat="48.59278" lon="2.13635">
        <ele>111</ele>
        <time>2021-03-07T13:04:39.280Z</time>
      </trkpt>
      <trkpt lat="48.59279" lon="2.13633">
        <ele>110</ele>
        <time>2021-03-07T13:04:40.279Z</time>
      </trkpt>
      <trkpt lat="48.59279" lon="2.13631">
        <ele>110</ele>
        <time>2021-03-07T13:04:41.280Z</time>
      </trkpt>
      <trkpt lat="48.59281" lon="2.1363">
        <ele>110</ele>
        <time>2021-03-07T13:04:42.279Z</time>
      </trkpt>
      <trkpt lat="48.59282" lon="2.13629">
        <ele>109</ele>
        <time>2021-03-07T13:04:43.280Z</time>
      </trkpt>
      <trkpt lat="48.59284" lon="2.13628">
        <ele>109</ele>
        <time>2021-03-07T13:04:44.280Z</time>
      </trkpt>
      <trkpt lat="48.59286" lon="2.13627">
        <ele>109</ele>
        <time>2021-03-07T13:04:45.280Z</time>
      </trkpt>
      <trkpt lat="48.59288" lon="2.13627">
        <ele>108</ele>
        <time>2021-03-07T13:04:46.280Z</time>
      </trkpt>
      <trkpt lat="48.5929" lon="2.13626">
        <ele>108</ele>
        <time>2021-03-07T13:04:47.280Z</time>
      </trkpt>
      <trkpt lat="48.59291" lon="2.13626">
        <ele>108</ele>
        <time>2021-03-07T13:04:48.280Z</time>
      </trkpt>
      <trkpt lat="48.59293" lon="2.13625">
        <ele>108</ele>
        <time>2021-03-07T13:04:49.280Z</time>
      </trkpt>
      <trkpt lat="48.59294" lon="2.13625">
        <ele>108</ele>
        <time>2021-03-07T13:04:50.280Z</time>
      </trkpt>
      <trkpt lat="48.59296" lon="2.13624">
        <ele>109</ele>
        <time>2021-03-07T13:04:51.280Z</time>
      </trkpt>
      <trkpt lat="48.59297" lon="2.13624">
        <ele>109</ele>
        <time>2021-03-07T13:04:52.280Z</time>
      </trkpt>
      <trkpt lat="48.59298" lon="2.13624">
        <ele>108</ele>
        <time>2021-03-07T13:04:53.279Z</time>
      </trkpt>
      <trkpt lat="48.59299" lon="2.13625">
        <ele>108</ele>
        <time>2021-03-07T13:04:54.280Z</time>
      </trkpt>
      <trkpt lat="48.593" lon="2.13624">
        <ele>108</ele>
        <time>2021-03-07T13:04:55.280Z</time>
      </trkpt>
      <trkpt lat="48.59302" lon="2.13624">
        <ele>107</ele>
        <time>2021-03-07T13:04:56.280Z</time>
      </trkpt>
      <trkpt lat="48.59304" lon="2.13623">
        <ele>107</ele>
        <time>2021-03-07T13:04:57.279Z</time>
      </trkpt>
      <trkpt lat="48.59305" lon="2.13623">
        <ele>106</ele>
        <time>2021-03-07T13:04:58.280Z</time>
      </trkpt>
      <trkpt lat="48.59307" lon="2.13622">
        <ele>106</ele>
        <time>2021-03-07T13:04:59.280Z</time>
      </trkpt>
      <trkpt lat="48.59309" lon="2.13621">
        <ele>106</ele>
        <time>2021-03-07T13:05:00.280Z</time>
      </trkpt>
      <trkpt lat="48.59311" lon="2.1362">
        <ele>106</ele>
        <time>2021-03-07T13:05:01.279Z</time>
      </trkpt>
      <trkpt lat="48.59313" lon="2.1362">
        <ele>105</ele>
        <time>2021-03-07T13:05:02.280Z</time>
      </trkpt>
      <trkpt lat="48.59314" lon="2.13619">
        <ele>105</ele>
        <time>2021-03-07T13:05:03.279Z</time>
      </trkpt>
      <trkpt lat="48.59316" lon="2.13619">
        <ele>104</ele>
        <time>2021-03-07T13:05:04.280Z</time>
      </trkpt>
      <trkpt lat="48.59318" lon="2.13619">
        <ele>104</ele>
        <time>2021-03-07T13:05:05.279Z</time>
      </trkpt>
      <trkpt lat="48.5932" lon="2.13619">
        <ele>104</ele>
        <time>2021-03-07T13:05:06.279Z</time>
      </trkpt>
      <trkpt lat="48.59321" lon="2.13619">
        <ele>103</ele>
        <time>2021-03-07T13:05:07.280Z</time>
      </trkpt>
      <trkpt lat="48.59322" lon="2.13618">
        <ele>103</ele>
        <time>2021-03-07T13:05:08.280Z</time>
      </trkpt>
      <trkpt lat="48.59324" lon="2.13618">
        <ele>103</ele>
        <time>2021-03-07T13:05:09.280Z</time>
      </trkpt>
      <trkpt lat="48.59325" lon="2.13618">
        <ele>103</ele>
        <time>2021-03-07T13:05:10.280Z</time>
      </trkpt>
      <trkpt lat="48.59327" lon="2.13617">
        <ele>103</ele>
        <time>2021-03-07T13:05:11.280Z</time>
      </trkpt>
      <trkpt lat="48.59329" lon="2.13615">
        <ele>103</ele>
        <time>2021-03-07T13:05:12.280Z</time>
      </trkpt>
      <trkpt lat="48.59331" lon="2.13615">
        <ele>102</ele>
        <time>2021-03-07T13:05:13.280Z</time>
      </trkpt>
      <trkpt lat="48.59332" lon="2.13615">
        <ele>102</ele>
        <time>2021-03-07T13:05:14.280Z</time>
      </trkpt>
      <trkpt lat="48.59334" lon="2.13614">
        <ele>102</ele>
        <time>2021-03-07T13:05:15.279Z</time>
      </trkpt>
      <trkpt lat="48.59335" lon="2.13614">
        <ele>102</ele>
        <time>2021-03-07T13:05:16.279Z</time>
      </trkpt>
      <trkpt lat="48.59336" lon="2.13614">
        <ele>102</ele>
        <time>2021-03-07T13:05:17.280Z</time>
      </trkpt>
      <trkpt lat="48.59338" lon="2.13614">
        <ele>101</ele>
        <time>2021-03-07T13:05:18.280Z</time>
      </trkpt>
      <trkpt lat="48.59339" lon="2.13613">
        <ele>101</ele>
        <time>2021-03-07T13:05:19.280Z</time>
      </trkpt>
      <trkpt lat="48.5934" lon="2.13613">
        <ele>101</ele>
        <time>2021-03-07T13:05:20.280Z</time>
      </trkpt>
      <trkpt lat="48.59342" lon="2.13613">
        <ele>100</ele>
        <time>2021-03-07T13:05:21.279Z</time>
      </trkpt>
      <trkpt lat="48.59344" lon="2.13612">
        <ele>100</ele>
        <time>2021-03-07T13:05:22.280Z</time>
      </trkpt>
      <trkpt lat="48.59345" lon="2.13612">
        <ele>100</ele>
        <time>2021-03-07T13:05:23.280Z</time>
      </trkpt>
      <trkpt lat="48.59347" lon="2.13612">
        <ele>100</ele>
        <time>2021-03-07T13:05:24.279Z</time>
      </trkpt>
      <trkpt lat="48.59349" lon="2.13611">
        <ele>100</ele>
        <time>2021-03-07T13:05:25.280Z</time>
      </trkpt>
      <trkpt lat="48.5935" lon="2.13611">
        <ele>101</ele>
        <time>2021-03-07T13:05:26.280Z</time>
      </trkpt>
      <trkpt lat="48.5935" lon="2.13611">
        <ele>101</ele>
        <time>2021-03-07T13:05:27.279Z</time>
      </trkpt>
      <trkpt lat="48.59351" lon="2.13611">
        <ele>102</ele>
        <time>2021-03-07T13:05:28.280Z</time>
      </trkpt>
      <trkpt lat="48.59352" lon="2.13612">
        <ele>102</ele>
        <time>2021-03-07T13:05:29.280Z</time>
      </trkpt>
      <trkpt lat="48.59353" lon="2.13612">
        <ele>103</ele>
        <time>2021-03-07T13:05:30.280Z</time>
      </trkpt>
      <trkpt lat="48.59354" lon="2.13612">
        <ele>103</ele>
        <time>2021-03-07T13:05:31.280Z</time>
      </trkpt>
      <trkpt lat="48.59355" lon="2.13613">
        <ele>104</ele>
        <time>2021-03-07T13:05:32.280Z</time>
      </trkpt>
      <trkpt lat="48.59355" lon="2.13613">
        <ele>104</ele>
        <time>2021-03-07T13:05:33.280Z</time>
      </trkpt>
      <trkpt lat="48.59356" lon="2.13613">
        <ele>104</ele>
        <time>2021-03-07T13:05:34.280Z</time>
      </trkpt>
      <trkpt lat="48.59358" lon="2.13613">
        <ele>103</ele>
        <time>2021-03-07T13:05:35.279Z</time>
      </trkpt>
      <trkpt lat="48.5936" lon="2.13614">
        <ele>103</ele>
        <time>2021-03-07T13:05:36.280Z</time>
      </trkpt>
      <trkpt lat="48.59362" lon="2.13614">
        <ele>103</ele>
        <time>2021-03-07T13:05:37.280Z</time>
      </trkpt>
      <trkpt lat="48.59364" lon="2.13613">
        <ele>103</ele>
        <time>2021-03-07T13:05:38.280Z</time>
      </trkpt>
      <trkpt lat="48.59366" lon="2.13613">
        <ele>104</ele>
        <time>2021-03-07T13:05:39.280Z</time>
      </trkpt>
      <trkpt lat="48.59367" lon="2.13613">
        <ele>104</ele>
        <time>2021-03-07T13:05:40.280Z</time>
      </trkpt>
      <trkpt lat="48.59368" lon="2.13613">
        <ele>104</ele>
        <time>2021-03-07T13:05:41.279Z</time>
      </trkpt>
      <trkpt lat="48.59368" lon="2.13613">
        <ele>104</ele>
        <time>2021-03-07T13:05:42.280Z</time>
      </trkpt>
      <trkpt lat="48.5937" lon="2.13613">
        <ele>104</ele>
        <time>2021-03-07T13:05:43.280Z</time>
      </trkpt>
      <trkpt lat="48.59371" lon="2.13613">
        <ele>104</ele>
        <time>2021-03-07T13:05:44.280Z</time>
      </trkpt>
      <trkpt lat="48.59373" lon="2.13613">
        <ele>104</ele>
        <time>2021-03-07T13:05:45.280Z</time>
      </trkpt>
      <trkpt lat="48.59374" lon="2.13613">
        <ele>105</ele>
        <time>2021-03-07T13:05:46.280Z</time>
      </trkpt>
      <trkpt lat="48.59376" lon="2.13613">
        <ele>105</ele>
        <time>2021-03-07T13:05:47.280Z</time>
      </trkpt>
      <trkpt lat="48.59377" lon="2.13613">
        <ele>105</ele>
        <time>2021-03-07T13:05:48.280Z</time>
      </trkpt>
      <trkpt lat="48.59379" lon="2.13614">
        <ele>105</ele>
        <time>2021-03-07T13:05:49.280Z</time>
      </trkpt>
      <trkpt lat="48.5938" lon="2.13614">
        <ele>105</ele>
        <time>2021-03-07T13:05:50.280Z</time>
      </trkpt>
      <trkpt lat="48.59382" lon="2.13614">
        <ele>105</ele>
        <time>2021-03-07T13:05:51.280Z</time>
      </trkpt>
      <trkpt lat="48.59383" lon="2.13614">
        <ele>105</ele>
        <time>2021-03-07T13:05:52.280Z</time>
      </trkpt>
      <trkpt lat="48.59385" lon="2.13614">
        <ele>105</ele>
        <time>2021-03-07T13:05:53.279Z</time>
      </trkpt>
      <trkpt lat="48.59386" lon="2.13614">
        <ele>105</ele>
        <time>2021-03-07T13:05:54.280Z</time>
      </trkpt>
      <trkpt lat="48.59388" lon="2.13614">
        <ele>105</ele>
        <time>2021-03-07T13:05:55.279Z</time>
      </trkpt>
      <trkpt lat="48.5939" lon="2.13613">
        <ele>105</ele>
        <time>2021-03-07T13:05:56.280Z</time>
      </trkpt>
      <trkpt lat="48.59394" lon="2.13613">
        <ele>105</ele>
        <time>2021-03-07T13:05:57.280Z</time>
      </trkpt>
      <trkpt lat="48.59396" lon="2.13612">
        <ele>104</ele>
        <time>2021-03-07T13:05:58.280Z</time>
      </trkpt>
      <trkpt lat="48.59398" lon="2.13612">
        <ele>104</ele>
        <time>2021-03-07T13:05:59.280Z</time>
      </trkpt>
      <trkpt lat="48.59399" lon="2.13612">
        <ele>104</ele>
        <time>2021-03-07T13:06:00.280Z</time>
      </trkpt>
      <trkpt lat="48.59401" lon="2.13612">
        <ele>103</ele>
        <time>2021-03-07T13:06:01.280Z</time>
      </trkpt>
      <trkpt lat="48.59404" lon="2.13611">
        <ele>103</ele>
        <time>2021-03-07T13:06:02.280Z</time>
      </trkpt>
      <trkpt lat="48.59406" lon="2.1361">
        <ele>103</ele>
        <time>2021-03-07T13:06:03.280Z</time>
      </trkpt>
      <trkpt lat="48.59407" lon="2.1361">
        <ele>103</ele>
        <time>2021-03-07T13:06:04.279Z</time>
      </trkpt>
      <trkpt lat="48.59409" lon="2.13611">
        <ele>103</ele>
        <time>2021-03-07T13:06:05.279Z</time>
      </trkpt>
      <trkpt lat="48.5941" lon="2.13611">
        <ele>104</ele>
        <time>2021-03-07T13:06:06.280Z</time>
      </trkpt>
      <trkpt lat="48.59412" lon="2.13611">
        <ele>104</ele>
        <time>2021-03-07T13:06:07.280Z</time>
      </trkpt>
      <trkpt lat="48.59414" lon="2.13612">
        <ele>104</ele>
        <time>2021-03-07T13:06:08.279Z</time>
      </trkpt>
      <trkpt lat="48.59416" lon="2.13612">
        <ele>104</ele>
        <time>2021-03-07T13:06:09.280Z</time>
      </trkpt>
      <trkpt lat="48.59418" lon="2.13612">
        <ele>104</ele>
        <time>2021-03-07T13:06:10.280Z</time>
      </trkpt>
      <trkpt lat="48.59419" lon="2.13612">
        <ele>104</ele>
        <time>2021-03-07T13:06:11.280Z</time>
      </trkpt>
      <trkpt lat="48.59421" lon="2.13612">
        <ele>104</ele>
        <time>2021-03-07T13:06:12.280Z</time>
      </trkpt>
      <trkpt lat="48.59423" lon="2.13612">
        <ele>104</ele>
        <time>2021-03-07T13:06:13.279Z</time>
      </trkpt>
      <trkpt lat="48.59425" lon="2.13612">
        <ele>104</ele>
        <time>2021-03-07T13:06:14.280Z</time>
      </trkpt>
      <trkpt lat="48.59426" lon="2.13612">
        <ele>104</ele>
        <time>2021-03-07T13:06:15.279Z</time>
      </trkpt>
      <trkpt lat="48.59428" lon="2.13612">
        <ele>105</ele>
        <time>2021-03-07T13:06:16.280Z</time>
      </trkpt>
      <trkpt lat="48.5943" lon="2.13613">
        <ele>105</ele>
        <time>2021-03-07T13:06:17.280Z</time>
      </trkpt>
      <trkpt lat="48.59431" lon="2.13614">
        <ele>105</ele>
        <time>2021-03-07T13:06:18.280Z</time>
      </trkpt>
      <trkpt lat="48.59433" lon="2.13614">
        <ele>106</ele>
        <time>2021-03-07T13:06:19.279Z</time>
      </trkpt>
      <trkpt lat="48.59435" lon="2.13614">
        <ele>106</ele>
        <time>2021-03-07T13:06:20.280Z</time>
      </trkpt>
      <trkpt lat="48.59436" lon="2.13614">
        <ele>106</ele>
        <time>2021-03-07T13:06:21.280Z</time>
      </trkpt>
      <trkpt lat="48.59438" lon="2.13614">
        <ele>107</ele>
        <time>2021-03-07T13:06:22.279Z</time>
      </trkpt>
      <trkpt lat="48.59439" lon="2.13614">
        <ele>107</ele>
        <time>2021-03-07T13:06:23.280Z</time>
      </trkpt>
      <trkpt lat="48.5944" lon="2.13614">
        <ele>107</ele>
        <time>2021-03-07T13:06:24.279Z</time>
      </trkpt>
      <trkpt lat="48.59441" lon="2.13614">
        <ele>107</ele>
        <time>2021-03-07T13:06:25.280Z</time>
      </trkpt>
      <trkpt lat="48.59443" lon="2.13614">
        <ele>107</ele>
        <time>2021-03-07T13:06:26.279Z</time>
      </trkpt>
      <trkpt lat="48.59444" lon="2.13615">
        <ele>107</ele>
        <time>2021-03-07T13:06:27.280Z</time>
      </trkpt>
      <trkpt lat="48.59445" lon="2.13615">
        <ele>108</ele>
        <time>2021-03-07T13:06:28.280Z</time>
      </trkpt>
      <trkpt lat="48.59446" lon="2.13616">
        <ele>108</ele>
        <time>2021-03-07T13:06:29.280Z</time>
      </trkpt>
      <trkpt lat="48.59448" lon="2.13617">
        <ele>108</ele>
        <time>2021-03-07T13:06:30.280Z</time>
      </trkpt>
      <trkpt lat="48.59449" lon="2.13618">
        <ele>108</ele>
        <time>2021-03-07T13:06:31.280Z</time>
      </trkpt>
      <trkpt lat="48.5945" lon="2.13619">
        <ele>108</ele>
        <time>2021-03-07T13:06:32.280Z</time>
      </trkpt>
      <trkpt lat="48.59452" lon="2.1362">
        <ele>108</ele>
        <time>2021-03-07T13:06:33.280Z</time>
      </trkpt>
      <trkpt lat="48.59453" lon="2.13622">
        <ele>108</ele>
        <time>2021-03-07T13:06:34.280Z</time>
      </trkpt>
      <trkpt lat="48.59455" lon="2.13623">
        <ele>108</ele>
        <time>2021-03-07T13:06:35.280Z</time>
      </trkpt>
      <trkpt lat="48.59457" lon="2.13623">
        <ele>108</ele>
        <time>2021-03-07T13:06:36.280Z</time>
      </trkpt>
      <trkpt lat="48.59459" lon="2.13623">
        <ele>109</ele>
        <time>2021-03-07T13:06:37.279Z</time>
      </trkpt>
      <trkpt lat="48.5946" lon="2.13624">
        <ele>109</ele>
        <time>2021-03-07T13:06:38.280Z</time>
      </trkpt>
      <trkpt lat="48.59463" lon="2.13624">
        <ele>109</ele>
        <time>2021-03-07T13:06:39.280Z</time>
      </trkpt>
      <trkpt lat="48.59465" lon="2.13625">
        <ele>109</ele>
        <time>2021-03-07T13:06:40.280Z</time>
      </trkpt>
      <trkpt lat="48.59467" lon="2.13625">
        <ele>109</ele>
        <time>2021-03-07T13:06:41.280Z</time>
      </trkpt>
      <trkpt lat="48.59469" lon="2.13626">
        <ele>109</ele>
        <time>2021-03-07T13:06:42.280Z</time>
      </trkpt>
      <trkpt lat="48.5947" lon="2.13627">
        <ele>109</ele>
        <time>2021-03-07T13:06:43.279Z</time>
      </trkpt>
      <trkpt lat="48.59471" lon="2.13629">
        <ele>109</ele>
        <time>2021-03-07T13:06:44.280Z</time>
      </trkpt>
      <trkpt lat="48.59473" lon="2.1363">
        <ele>109</ele>
        <time>2021-03-07T13:06:45.280Z</time>
      </trkpt>
      <trkpt lat="48.59474" lon="2.13631">
        <ele>110</ele>
        <time>2021-03-07T13:06:46.279Z</time>
      </trkpt>
      <trkpt lat="48.59476" lon="2.13633">
        <ele>110</ele>
        <time>2021-03-07T13:06:47.280Z</time>
      </trkpt>
      <trkpt lat="48.59477" lon="2.13634">
        <ele>110</ele>
        <time>2021-03-07T13:06:48.280Z</time>
      </trkpt>
      <trkpt lat="48.59478" lon="2.13635">
        <ele>110</ele>
        <time>2021-03-07T13:06:49.280Z</time>
      </trkpt>
      <trkpt lat="48.59479" lon="2.13636">
        <ele>110</ele>
        <time>2021-03-07T13:06:50.279Z</time>
      </trkpt>
      <trkpt lat="48.5948" lon="2.13637">
        <ele>110</ele>
        <time>2021-03-07T13:06:51.280Z</time>
      </trkpt>
      <trkpt lat="48.5948" lon="2.13639">
        <ele>110</ele>
        <time>2021-03-07T13:06:52.280Z</time>
      </trkpt>
      <trkpt lat="48.59481" lon="2.1364">
        <ele>110</ele>
        <time>2021-03-07T13:06:53.280Z</time>
      </trkpt>
      <trkpt lat="48.59482" lon="2.13641">
        <ele>110</ele>
        <time>2021-03-07T13:06:54.279Z</time>
      </trkpt>
      <trkpt lat="48.59483" lon="2.13642">
        <ele>110</ele>
        <time>2021-03-07T13:06:55.280Z</time>
      </trkpt>
      <trkpt lat="48.59484" lon="2.13643">
        <ele>110</ele>
        <time>2021-03-07T13:06:56.280Z</time>
      </trkpt>
      <trkpt lat="48.59486" lon="2.13644">
        <ele>110</ele>
        <time>2021-03-07T13:06:57.280Z</time>
      </trkpt>
      <trkpt lat="48.59488" lon="2.13645">
        <ele>110</ele>
        <time>2021-03-07T13:06:58.280Z</time>
      </trkpt>
      <trkpt lat="48.59491" lon="2.13647">
        <ele>110</ele>
        <time>2021-03-07T13:06:59.279Z</time>
      </trkpt>
      <trkpt lat="48.59494" lon="2.13648">
        <ele>110</ele>
        <time>2021-03-07T13:07:00.280Z</time>
      </trkpt>
      <trkpt lat="48.59496" lon="2.1365">
        <ele>110</ele>
        <time>2021-03-07T13:07:01.280Z</time>
      </trkpt>
      <trkpt lat="48.59498" lon="2.13652">
        <ele>110</ele>
        <time>2021-03-07T13:07:02.279Z</time>
      </trkpt>
      <trkpt lat="48.59499" lon="2.13653">
        <ele>110</ele>
        <time>2021-03-07T13:07:03.280Z</time>
      </trkpt>
      <trkpt lat="48.59501" lon="2.13654">
        <ele>110</ele>
        <time>2021-03-07T13:07:04.279Z</time>
      </trkpt>
      <trkpt lat="48.59502" lon="2.13656">
        <ele>110</ele>
        <time>2021-03-07T13:07:05.280Z</time>
      </trkpt>
      <trkpt lat="48.59505" lon="2.13658">
        <ele>110</ele>
        <time>2021-03-07T13:07:06.280Z</time>
      </trkpt>
      <trkpt lat="48.59507" lon="2.1366">
        <ele>110</ele>
        <time>2021-03-07T13:07:07.280Z</time>
      </trkpt>
      <trkpt lat="48.59508" lon="2.13661">
        <ele>111</ele>
        <time>2021-03-07T13:07:08.279Z</time>
      </trkpt>
      <trkpt lat="48.5951" lon="2.13662">
        <ele>111</ele>
        <time>2021-03-07T13:07:09.280Z</time>
      </trkpt>
      <trkpt lat="48.59511" lon="2.13664">
        <ele>111</ele>
        <time>2021-03-07T13:07:10.280Z</time>
      </trkpt>
      <trkpt lat="48.59513" lon="2.13665">
        <ele>112</ele>
        <time>2021-03-07T13:07:11.280Z</time>
      </trkpt>
      <trkpt lat="48.59514" lon="2.13667">
        <ele>112</ele>
        <time>2021-03-07T13:07:12.280Z</time>
      </trkpt>
      <trkpt lat="48.59515" lon="2.13668">
        <ele>113</ele>
        <time>2021-03-07T13:07:13.280Z</time>
      </trkpt>
      <trkpt lat="48.59516" lon="2.1367">
        <ele>113</ele>
        <time>2021-03-07T13:07:14.280Z</time>
      </trkpt>
      <trkpt lat="48.59517" lon="2.13671">
        <ele>113</ele>
        <time>2021-03-07T13:07:15.280Z</time>
      </trkpt>
      <trkpt lat="48.59518" lon="2.13673">
        <ele>113</ele>
        <time>2021-03-07T13:07:16.280Z</time>
      </trkpt>
      <trkpt lat="48.59519" lon="2.13674">
        <ele>114</ele>
        <time>2021-03-07T13:07:17.280Z</time>
      </trkpt>
      <trkpt lat="48.5952" lon="2.13675">
        <ele>114</ele>
        <time>2021-03-07T13:07:18.279Z</time>
      </trkpt>
      <trkpt lat="48.59522" lon="2.13677">
        <ele>114</ele>
        <time>2021-03-07T13:07:19.280Z</time>
      </trkpt>
      <trkpt lat="48.59524" lon="2.13678">
        <ele>114</ele>
        <time>2021-03-07T13:07:20.280Z</time>
      </trkpt>
      <trkpt lat="48.59525" lon="2.1368">
        <ele>114</ele>
        <time>2021-03-07T13:07:21.280Z</time>
      </trkpt>
      <trkpt lat="48.59526" lon="2.13681">
        <ele>114</ele>
        <time>2021-03-07T13:07:22.280Z</time>
      </trkpt>
      <trkpt lat="48.59528" lon="2.13683">
        <ele>114</ele>
        <time>2021-03-07T13:07:23.279Z</time>
      </trkpt>
      <trkpt lat="48.59529" lon="2.13685">
        <ele>114</ele>
        <time>2021-03-07T13:07:24.280Z</time>
      </trkpt>
      <trkpt lat="48.5953" lon="2.13686">
        <ele>115</ele>
        <time>2021-03-07T13:07:25.280Z</time>
      </trkpt>
      <trkpt lat="48.5953" lon="2.13688">
        <ele>115</ele>
        <time>2021-03-07T13:07:26.280Z</time>
      </trkpt>
      <trkpt lat="48.59531" lon="2.1369">
        <ele>115</ele>
        <time>2021-03-07T13:07:27.279Z</time>
      </trkpt>
      <trkpt lat="48.59532" lon="2.13692">
        <ele>116</ele>
        <time>2021-03-07T13:07:28.280Z</time>
      </trkpt>
      <trkpt lat="48.59533" lon="2.13694">
        <ele>116</ele>
        <time>2021-03-07T13:07:29.280Z</time>
      </trkpt>
      <trkpt lat="48.59534" lon="2.13695">
        <ele>116</ele>
        <time>2021-03-07T13:07:30.280Z</time>
      </trkpt>
      <trkpt lat="48.59536" lon="2.13697">
        <ele>116</ele>
        <time>2021-03-07T13:07:31.279Z</time>
      </trkpt>
      <trkpt lat="48.59537" lon="2.13699">
        <ele>116</ele>
        <time>2021-03-07T13:07:32.280Z</time>
      </trkpt>
      <trkpt lat="48.59538" lon="2.137">
        <ele>116</ele>
        <time>2021-03-07T13:07:33.280Z</time>
      </trkpt>
      <trkpt lat="48.5954" lon="2.13702">
        <ele>116</ele>
        <time>2021-03-07T13:07:34.280Z</time>
      </trkpt>
      <trkpt lat="48.5954" lon="2.13704">
        <ele>116</ele>
        <time>2021-03-07T13:07:35.280Z</time>
      </trkpt>
      <trkpt lat="48.59541" lon="2.13706">
        <ele>116</ele>
        <time>2021-03-07T13:07:36.280Z</time>
      </trkpt>
      <trkpt lat="48.59542" lon="2.13708">
        <ele>116</ele>
        <time>2021-03-07T13:07:37.280Z</time>
      </trkpt>
      <trkpt lat="48.59544" lon="2.13709">
        <ele>116</ele>
        <time>2021-03-07T13:07:38.279Z</time>
      </trkpt>
      <trkpt lat="48.59546" lon="2.13711">
        <ele>116</ele>
        <time>2021-03-07T13:07:39.280Z</time>
      </trkpt>
      <trkpt lat="48.59547" lon="2.13712">
        <ele>116</ele>
        <time>2021-03-07T13:07:40.279Z</time>
      </trkpt>
      <trkpt lat="48.59548" lon="2.13713">
        <ele>116</ele>
        <time>2021-03-07T13:07:41.280Z</time>
      </trkpt>
      <trkpt lat="48.59549" lon="2.13715">
        <ele>115</ele>
        <time>2021-03-07T13:07:42.280Z</time>
      </trkpt>
      <trkpt lat="48.5955" lon="2.13717">
        <ele>115</ele>
        <time>2021-03-07T13:07:43.280Z</time>
      </trkpt>
      <trkpt lat="48.59551" lon="2.13719">
        <ele>115</ele>
        <time>2021-03-07T13:07:44.279Z</time>
      </trkpt>
      <trkpt lat="48.59551" lon="2.13721">
        <ele>114</ele>
        <time>2021-03-07T13:07:45.280Z</time>
      </trkpt>
      <trkpt lat="48.59552" lon="2.13722">
        <ele>114</ele>
        <time>2021-03-07T13:07:46.280Z</time>
      </trkpt>
      <trkpt lat="48.59553" lon="2.13724">
        <ele>114</ele>
        <time>2021-03-07T13:07:47.280Z</time>
      </trkpt>
      <trkpt lat="48.59553" lon="2.13725">
        <ele>114</ele>
        <time>2021-03-07T13:07:48.280Z</time>
      </trkpt>
      <trkpt lat="48.59554" lon="2.13726">
        <ele>114</ele>
        <time>2021-03-07T13:07:49.280Z</time>
      </trkpt>
      <trkpt lat="48.59555" lon="2.13728">
        <ele>114</ele>
        <time>2021-03-07T13:07:50.279Z</time>
      </trkpt>
      <trkpt lat="48.59556" lon="2.1373">
        <ele>114</ele>
        <time>2021-03-07T13:07:51.280Z</time>
      </trkpt>
      <trkpt lat="48.59556" lon="2.13732">
        <ele>114</ele>
        <time>2021-03-07T13:07:52.280Z</time>
      </trkpt>
      <trkpt lat="48.59557" lon="2.13733">
        <ele>114</ele>
        <time>2021-03-07T13:07:53.280Z</time>
      </trkpt>
      <trkpt lat="48.5956" lon="2.13737">
        <ele>114</ele>
        <time>2021-03-07T13:07:54.279Z</time>
      </trkpt>
      <trkpt lat="48.59562" lon="2.13739">
        <ele>114</ele>
        <time>2021-03-07T13:07:55.280Z</time>
      </trkpt>
      <trkpt lat="48.59562" lon="2.13741">
        <ele>114</ele>
        <time>2021-03-07T13:07:56.279Z</time>
      </trkpt>
      <trkpt lat="48.59562" lon="2.13743">
        <ele>114</ele>
        <time>2021-03-07T13:07:57.280Z</time>
      </trkpt>
      <trkpt lat="48.59562" lon="2.13745">
        <ele>114</ele>
        <time>2021-03-07T13:07:58.280Z</time>
      </trkpt>
      <trkpt lat="48.59562" lon="2.13746">
        <ele>115</ele>
        <time>2021-03-07T13:07:59.280Z</time>
      </trkpt>
      <trkpt lat="48.59562" lon="2.13748">
        <ele>115</ele>
        <time>2021-03-07T13:08:00.280Z</time>
      </trkpt>
      <trkpt lat="48.59563" lon="2.1375">
        <ele>115</ele>
        <time>2021-03-07T13:08:01.279Z</time>
      </trkpt>
      <trkpt lat="48.59564" lon="2.13751">
        <ele>115</ele>
        <time>2021-03-07T13:08:02.280Z</time>
      </trkpt>
      <trkpt lat="48.59565" lon="2.13752">
        <ele>115</ele>
        <time>2021-03-07T13:08:03.279Z</time>
      </trkpt>
      <trkpt lat="48.59565" lon="2.13754">
        <ele>115</ele>
        <time>2021-03-07T13:08:04.280Z</time>
      </trkpt>
      <trkpt lat="48.59565" lon="2.13755">
        <ele>116</ele>
        <time>2021-03-07T13:08:05.280Z</time>
      </trkpt>
      <trkpt lat="48.59566" lon="2.13757">
        <ele>116</ele>
        <time>2021-03-07T13:08:06.279Z</time>
      </trkpt>
      <trkpt lat="48.59566" lon="2.13758">
        <ele>117</ele>
        <time>2021-03-07T13:08:07.280Z</time>
      </trkpt>
      <trkpt lat="48.59567" lon="2.1376">
        <ele>117</ele>
        <time>2021-03-07T13:08:08.279Z</time>
      </trkpt>
      <trkpt lat="48.59567" lon="2.13761">
        <ele>117</ele>
        <time>2021-03-07T13:08:09.280Z</time>
      </trkpt>
      <trkpt lat="48.59567" lon="2.13763">
        <ele>117</ele>
        <time>2021-03-07T13:08:10.280Z</time>
      </trkpt>
      <trkpt lat="48.59568" lon="2.13764">
        <ele>118</ele>
        <time>2021-03-07T13:08:11.279Z</time>
      </trkpt>
      <trkpt lat="48.59568" lon="2.13766">
        <ele>118</ele>
        <time>2021-03-07T13:08:12.279Z</time>
      </trkpt>
      <trkpt lat="48.59569" lon="2.13767">
        <ele>118</ele>
        <time>2021-03-07T13:08:13.280Z</time>
      </trkpt>
      <trkpt lat="48.59569" lon="2.13769">
        <ele>118</ele>
        <time>2021-03-07T13:08:14.280Z</time>
      </trkpt>
      <trkpt lat="48.5957" lon="2.13771">
        <ele>118</ele>
        <time>2021-03-07T13:08:15.279Z</time>
      </trkpt>
      <trkpt lat="48.59571" lon="2.13773">
        <ele>117</ele>
        <time>2021-03-07T13:08:16.280Z</time>
      </trkpt>
      <trkpt lat="48.59573" lon="2.13775">
        <ele>117</ele>
        <time>2021-03-07T13:08:17.280Z</time>
      </trkpt>
      <trkpt lat="48.59574" lon="2.13777">
        <ele>117</ele>
        <time>2021-03-07T13:08:18.279Z</time>
      </trkpt>
      <trkpt lat="48.59575" lon="2.13778">
        <ele>117</ele>
        <time>2021-03-07T13:08:19.280Z</time>
      </trkpt>
      <trkpt lat="48.59576" lon="2.1378">
        <ele>117</ele>
        <time>2021-03-07T13:08:20.280Z</time>
      </trkpt>
      <trkpt lat="48.59577" lon="2.13781">
        <ele>117</ele>
        <time>2021-03-07T13:08:21.280Z</time>
      </trkpt>
      <trkpt lat="48.59577" lon="2.13783">
        <ele>117</ele>
        <time>2021-03-07T13:08:22.280Z</time>
      </trkpt>
      <trkpt lat="48.59578" lon="2.13785">
        <ele>117</ele>
        <time>2021-03-07T13:08:23.279Z</time>
      </trkpt>
      <trkpt lat="48.59578" lon="2.13788">
        <ele>117</ele>
        <time>2021-03-07T13:08:24.280Z</time>
      </trkpt>
      <trkpt lat="48.5958" lon="2.13789">
        <ele>117</ele>
        <time>2021-03-07T13:08:25.280Z</time>
      </trkpt>
      <trkpt lat="48.59581" lon="2.13791">
        <ele>117</ele>
        <time>2021-03-07T13:08:26.280Z</time>
      </trkpt>
      <trkpt lat="48.59582" lon="2.13793">
        <ele>117</ele>
        <time>2021-03-07T13:08:27.279Z</time>
      </trkpt>
      <trkpt lat="48.59583" lon="2.13795">
        <ele>117</ele>
        <time>2021-03-07T13:08:28.280Z</time>
      </trkpt>
      <trkpt lat="48.59583" lon="2.13797">
        <ele>117</ele>
        <time>2021-03-07T13:08:29.280Z</time>
      </trkpt>
      <trkpt lat="48.59584" lon="2.13798">
        <ele>117</ele>
        <time>2021-03-07T13:08:30.280Z</time>
      </trkpt>
      <trkpt lat="48.59584" lon="2.138">
        <ele>117</ele>
        <time>2021-03-07T13:08:31.280Z</time>
      </trkpt>
      <trkpt lat="48.59585" lon="2.13801">
        <ele>118</ele>
        <time>2021-03-07T13:08:32.280Z</time>
      </trkpt>
      <trkpt lat="48.59586" lon="2.13802">
        <ele>118</ele>
        <time>2021-03-07T13:08:33.280Z</time>
      </trkpt>
      <trkpt lat="48.59587" lon="2.13804">
        <ele>118</ele>
        <time>2021-03-07T13:08:34.280Z</time>
      </trkpt>
      <trkpt lat="48.59587" lon="2.13805">
        <ele>118</ele>
        <time>2021-03-07T13:08:35.279Z</time>
      </trkpt>
      <trkpt lat="48.59588" lon="2.13807">
        <ele>118</ele>
        <time>2021-03-07T13:08:36.280Z</time>
      </trkpt>
      <trkpt lat="48.59588" lon="2.1381">
        <ele>118</ele>
        <time>2021-03-07T13:08:37.280Z</time>
      </trkpt>
      <trkpt lat="48.59589" lon="2.13812">
        <ele>118</ele>
        <time>2021-03-07T13:08:38.279Z</time>
      </trkpt>
      <trkpt lat="48.59591" lon="2.13813">
        <ele>118</ele>
        <time>2021-03-07T13:08:39.280Z</time>
      </trkpt>
      <trkpt lat="48.59592" lon="2.13816">
        <ele>118</ele>
        <time>2021-03-07T13:08:40.280Z</time>
      </trkpt>
      <trkpt lat="48.59595" lon="2.13819">
        <ele>118</ele>
        <time>2021-03-07T13:08:41.280Z</time>
      </trkpt>
      <trkpt lat="48.59597" lon="2.13822">
        <ele>117</ele>
        <time>2021-03-07T13:08:42.280Z</time>
      </trkpt>
      <trkpt lat="48.59599" lon="2.13824">
        <ele>117</ele>
        <time>2021-03-07T13:08:43.279Z</time>
      </trkpt>
      <trkpt lat="48.59602" lon="2.13826">
        <ele>117</ele>
        <time>2021-03-07T13:08:44.279Z</time>
      </trkpt>
      <trkpt lat="48.59603" lon="2.13829">
        <ele>118</ele>
        <time>2021-03-07T13:08:45.280Z</time>
      </trkpt>
      <trkpt lat="48.59604" lon="2.1383">
        <ele>118</ele>
        <time>2021-03-07T13:08:46.280Z</time>
      </trkpt>
      <trkpt lat="48.59605" lon="2.13832">
        <ele>118</ele>
        <time>2021-03-07T13:08:47.280Z</time>
      </trkpt>
      <trkpt lat="48.59607" lon="2.13833">
        <ele>118</ele>
        <time>2021-03-07T13:08:48.280Z</time>
      </trkpt>
      <trkpt lat="48.59608" lon="2.13835">
        <ele>118</ele>
        <time>2021-03-07T13:08:49.280Z</time>
      </trkpt>
      <trkpt lat="48.59608" lon="2.13836">
        <ele>118</ele>
        <time>2021-03-07T13:08:50.280Z</time>
      </trkpt>
      <trkpt lat="48.59609" lon="2.13838">
        <ele>118</ele>
        <time>2021-03-07T13:08:51.280Z</time>
      </trkpt>
      <trkpt lat="48.59609" lon="2.1384">
        <ele>118</ele>
        <time>2021-03-07T13:08:52.279Z</time>
      </trkpt>
      <trkpt lat="48.59609" lon="2.13841">
        <ele>118</ele>
        <time>2021-03-07T13:08:53.280Z</time>
      </trkpt>
      <trkpt lat="48.5961" lon="2.13842">
        <ele>119</ele>
        <time>2021-03-07T13:08:54.280Z</time>
      </trkpt>
      <trkpt lat="48.59611" lon="2.13844">
        <ele>119</ele>
        <time>2021-03-07T13:08:55.280Z</time>
      </trkpt>
      <trkpt lat="48.59613" lon="2.13845">
        <ele>119</ele>
        <time>2021-03-07T13:08:56.280Z</time>
      </trkpt>
      <trkpt lat="48.59614" lon="2.13847">
        <ele>119</ele>
        <time>2021-03-07T13:08:57.280Z</time>
      </trkpt>
      <trkpt lat="48.59615" lon="2.13849">
        <ele>119</ele>
        <time>2021-03-07T13:08:58.279Z</time>
      </trkpt>
      <trkpt lat="48.59616" lon="2.13851">
        <ele>120</ele>
        <time>2021-03-07T13:08:59.280Z</time>
      </trkpt>
      <trkpt lat="48.59617" lon="2.13853">
        <ele>120</ele>
        <time>2021-03-07T13:09:00.279Z</time>
      </trkpt>
      <trkpt lat="48.59618" lon="2.13856">
        <ele>119</ele>
        <time>2021-03-07T13:09:01.280Z</time>
      </trkpt>
      <trkpt lat="48.5962" lon="2.13859">
        <ele>119</ele>
        <time>2021-03-07T13:09:02.280Z</time>
      </trkpt>
      <trkpt lat="48.59622" lon="2.13861">
        <ele>119</ele>
        <time>2021-03-07T13:09:03.279Z</time>
      </trkpt>
      <trkpt lat="48.59623" lon="2.13864">
        <ele>119</ele>
        <time>2021-03-07T13:09:04.279Z</time>
      </trkpt>
      <trkpt lat="48.59625" lon="2.13867">
        <ele>119</ele>
        <time>2021-03-07T13:09:05.279Z</time>
      </trkpt>
      <trkpt lat="48.59626" lon="2.13869">
        <ele>119</ele>
        <time>2021-03-07T13:09:06.279Z</time>
      </trkpt>
      <trkpt lat="48.59628" lon="2.1387">
        <ele>119</ele>
        <time>2021-03-07T13:09:07.279Z</time>
      </trkpt>
      <trkpt lat="48.59628" lon="2.13871">
        <ele>119</ele>
        <time>2021-03-07T13:09:08.279Z</time>
      </trkpt>
      <trkpt lat="48.59629" lon="2.13873">
        <ele>119</ele>
        <time>2021-03-07T13:09:09.280Z</time>
      </trkpt>
      <trkpt lat="48.5963" lon="2.13876">
        <ele>119</ele>
        <time>2021-03-07T13:09:10.279Z</time>
      </trkpt>
      <trkpt lat="48.5963" lon="2.13879">
        <ele>119</ele>
        <time>2021-03-07T13:09:11.280Z</time>
      </trkpt>
      <trkpt lat="48.59629" lon="2.13882">
        <ele>119</ele>
        <time>2021-03-07T13:09:12.280Z</time>
      </trkpt>
      <trkpt lat="48.59629" lon="2.13884">
        <ele>119</ele>
        <time>2021-03-07T13:09:13.279Z</time>
      </trkpt>
      <trkpt lat="48.5963" lon="2.13887">
        <ele>120</ele>
        <time>2021-03-07T13:09:14.280Z</time>
      </trkpt>
      <trkpt lat="48.5963" lon="2.13889">
        <ele>120</ele>
        <time>2021-03-07T13:09:15.280Z</time>
      </trkpt>
      <trkpt lat="48.59631" lon="2.1389">
        <ele>120</ele>
        <time>2021-03-07T13:09:16.280Z</time>
      </trkpt>
      <trkpt lat="48.59631" lon="2.13892">
        <ele>120</ele>
        <time>2021-03-07T13:09:17.280Z</time>
      </trkpt>
      <trkpt lat="48.59632" lon="2.13894">
        <ele>120</ele>
        <time>2021-03-07T13:09:18.280Z</time>
      </trkpt>
      <trkpt lat="48.59632" lon="2.13895">
        <ele>119</ele>
        <time>2021-03-07T13:09:19.279Z</time>
      </trkpt>
      <trkpt lat="48.59632" lon="2.13897">
        <ele>119</ele>
        <time>2021-03-07T13:09:20.280Z</time>
      </trkpt>
      <trkpt lat="48.59633" lon="2.13898">
        <ele>119</ele>
        <time>2021-03-07T13:09:21.280Z</time>
      </trkpt>
      <trkpt lat="48.59634" lon="2.139">
        <ele>119</ele>
        <time>2021-03-07T13:09:22.280Z</time>
      </trkpt>
      <trkpt lat="48.59635" lon="2.13902">
        <ele>119</ele>
        <time>2021-03-07T13:09:23.280Z</time>
      </trkpt>
      <trkpt lat="48.59636" lon="2.13904">
        <ele>119</ele>
        <time>2021-03-07T13:09:24.280Z</time>
      </trkpt>
      <trkpt lat="48.59637" lon="2.13907">
        <ele>119</ele>
        <time>2021-03-07T13:09:25.280Z</time>
      </trkpt>
      <trkpt lat="48.59637" lon="2.13909">
        <ele>119</ele>
        <time>2021-03-07T13:09:26.280Z</time>
      </trkpt>
      <trkpt lat="48.59638" lon="2.13911">
        <ele>118</ele>
        <time>2021-03-07T13:09:27.280Z</time>
      </trkpt>
      <trkpt lat="48.59639" lon="2.13914">
        <ele>118</ele>
        <time>2021-03-07T13:09:28.280Z</time>
      </trkpt>
      <trkpt lat="48.5964" lon="2.13916">
        <ele>118</ele>
        <time>2021-03-07T13:09:29.280Z</time>
      </trkpt>
      <trkpt lat="48.5964" lon="2.13918">
        <ele>118</ele>
        <time>2021-03-07T13:09:30.279Z</time>
      </trkpt>
      <trkpt lat="48.59641" lon="2.1392">
        <ele>118</ele>
        <time>2021-03-07T13:09:31.280Z</time>
      </trkpt>
      <trkpt lat="48.59642" lon="2.13924">
        <ele>118</ele>
        <time>2021-03-07T13:09:32.280Z</time>
      </trkpt>
      <trkpt lat="48.59642" lon="2.13926">
        <ele>118</ele>
        <time>2021-03-07T13:09:33.280Z</time>
      </trkpt>
      <trkpt lat="48.59643" lon="2.13928">
        <ele>118</ele>
        <time>2021-03-07T13:09:34.280Z</time>
      </trkpt>
      <trkpt lat="48.59643" lon="2.1393">
        <ele>118</ele>
        <time>2021-03-07T13:09:35.279Z</time>
      </trkpt>
      <trkpt lat="48.59643" lon="2.13932">
        <ele>118</ele>
        <time>2021-03-07T13:09:36.280Z</time>
      </trkpt>
      <trkpt lat="48.59644" lon="2.13934">
        <ele>118</ele>
        <time>2021-03-07T13:09:37.280Z</time>
      </trkpt>
      <trkpt lat="48.59645" lon="2.13935">
        <ele>118</ele>
        <time>2021-03-07T13:09:38.280Z</time>
      </trkpt>
      <trkpt lat="48.59646" lon="2.13937">
        <ele>118</ele>
        <time>2021-03-07T13:09:39.279Z</time>
      </trkpt>
      <trkpt lat="48.59647" lon="2.13938">
        <ele>118</ele>
        <time>2021-03-07T13:09:40.280Z</time>
      </trkpt>
      <trkpt lat="48.59648" lon="2.1394">
        <ele>118</ele>
        <time>2021-03-07T13:09:41.280Z</time>
      </trkpt>
      <trkpt lat="48.59648" lon="2.13942">
        <ele>118</ele>
        <time>2021-03-07T13:09:42.280Z</time>
      </trkpt>
      <trkpt lat="48.59648" lon="2.13944">
        <ele>118</ele>
        <time>2021-03-07T13:09:43.280Z</time>
      </trkpt>
      <trkpt lat="48.59649" lon="2.13945">
        <ele>118</ele>
        <time>2021-03-07T13:09:44.280Z</time>
      </trkpt>
      <trkpt lat="48.5965" lon="2.13947">
        <ele>118</ele>
        <time>2021-03-07T13:09:45.279Z</time>
      </trkpt>
      <trkpt lat="48.5965" lon="2.1395">
        <ele>118</ele>
        <time>2021-03-07T13:09:46.280Z</time>
      </trkpt>
      <trkpt lat="48.5965" lon="2.13953">
        <ele>118</ele>
        <time>2021-03-07T13:09:47.280Z</time>
      </trkpt>
      <trkpt lat="48.5965" lon="2.13955">
        <ele>118</ele>
        <time>2021-03-07T13:09:48.279Z</time>
      </trkpt>
      <trkpt lat="48.59651" lon="2.13957">
        <ele>117</ele>
        <time>2021-03-07T13:09:49.280Z</time>
      </trkpt>
      <trkpt lat="48.59652" lon="2.13959">
        <ele>117</ele>
        <time>2021-03-07T13:09:50.280Z</time>
      </trkpt>
      <trkpt lat="48.59653" lon="2.13961">
        <ele>117</ele>
        <time>2021-03-07T13:09:51.280Z</time>
      </trkpt>
      <trkpt lat="48.59653" lon="2.13963">
        <ele>117</ele>
        <time>2021-03-07T13:09:52.280Z</time>
      </trkpt>
      <trkpt lat="48.59653" lon="2.13965">
        <ele>117</ele>
        <time>2021-03-07T13:09:53.279Z</time>
      </trkpt>
      <trkpt lat="48.59653" lon="2.13966">
        <ele>117</ele>
        <time>2021-03-07T13:09:54.279Z</time>
      </trkpt>
      <trkpt lat="48.59653" lon="2.13968">
        <ele>117</ele>
        <time>2021-03-07T13:09:55.280Z</time>
      </trkpt>
      <trkpt lat="48.59653" lon="2.13969">
        <ele>117</ele>
        <time>2021-03-07T13:09:56.279Z</time>
      </trkpt>
      <trkpt lat="48.59653" lon="2.13972">
        <ele>117</ele>
        <time>2021-03-07T13:09:57.280Z</time>
      </trkpt>
      <trkpt lat="48.59654" lon="2.13974">
        <ele>117</ele>
        <time>2021-03-07T13:09:58.280Z</time>
      </trkpt>
      <trkpt lat="48.59654" lon="2.13976">
        <ele>117</ele>
        <time>2021-03-07T13:09:59.280Z</time>
      </trkpt>
      <trkpt lat="48.59655" lon="2.13979">
        <ele>117</ele>
        <time>2021-03-07T13:10:00.280Z</time>
      </trkpt>
      <trkpt lat="48.59656" lon="2.13981">
        <ele>117</ele>
        <time>2021-03-07T13:10:01.280Z</time>
      </trkpt>
      <trkpt lat="48.59656" lon="2.13983">
        <ele>117</ele>
        <time>2021-03-07T13:10:02.280Z</time>
      </trkpt>
      <trkpt lat="48.59657" lon="2.13986">
        <ele>117</ele>
        <time>2021-03-07T13:10:03.280Z</time>
      </trkpt>
      <trkpt lat="48.59658" lon="2.13988">
        <ele>117</ele>
        <time>2021-03-07T13:10:04.280Z</time>
      </trkpt>
      <trkpt lat="48.59658" lon="2.1399">
        <ele>117</ele>
        <time>2021-03-07T13:10:05.280Z</time>
      </trkpt>
      <trkpt lat="48.59658" lon="2.13991">
        <ele>118</ele>
        <time>2021-03-07T13:10:06.280Z</time>
      </trkpt>
      <trkpt lat="48.59659" lon="2.13992">
        <ele>118</ele>
        <time>2021-03-07T13:10:07.280Z</time>
      </trkpt>
      <trkpt lat="48.5966" lon="2.13994">
        <ele>118</ele>
        <time>2021-03-07T13:10:08.280Z</time>
      </trkpt>
      <trkpt lat="48.59661" lon="2.13996">
        <ele>118</ele>
        <time>2021-03-07T13:10:09.279Z</time>
      </trkpt>
      <trkpt lat="48.59662" lon="2.13998">
        <ele>117</ele>
        <time>2021-03-07T13:10:10.280Z</time>
      </trkpt>
      <trkpt lat="48.59663" lon="2.14">
        <ele>117</ele>
        <time>2021-03-07T13:10:11.279Z</time>
      </trkpt>
      <trkpt lat="48.59664" lon="2.14001">
        <ele>116</ele>
        <time>2021-03-07T13:10:12.280Z</time>
      </trkpt>
      <trkpt lat="48.59665" lon="2.14003">
        <ele>116</ele>
        <time>2021-03-07T13:10:13.280Z</time>
      </trkpt>
      <trkpt lat="48.59667" lon="2.14005">
        <ele>116</ele>
        <time>2021-03-07T13:10:14.279Z</time>
      </trkpt>
      <trkpt lat="48.59668" lon="2.14006">
        <ele>115</ele>
        <time>2021-03-07T13:10:15.280Z</time>
      </trkpt>
      <trkpt lat="48.5967" lon="2.14007">
        <ele>115</ele>
        <time>2021-03-07T13:10:16.280Z</time>
      </trkpt>
      <trkpt lat="48.59671" lon="2.14009">
        <ele>115</ele>
        <time>2021-03-07T13:10:17.280Z</time>
      </trkpt>
      <trkpt lat="48.59673" lon="2.14011">
        <ele>115</ele>
        <time>2021-03-07T13:10:18.279Z</time>
      </trkpt>
      <trkpt lat="48.59674" lon="2.14013">
        <ele>115</ele>
        <time>2021-03-07T13:10:19.280Z</time>
      </trkpt>
      <trkpt lat="48.59676" lon="2.14015">
        <ele>115</ele>
        <time>2021-03-07T13:10:20.280Z</time>
      </trkpt>
      <trkpt lat="48.59678" lon="2.14017">
        <ele>115</ele>
        <time>2021-03-07T13:10:21.280Z</time>
      </trkpt>
      <trkpt lat="48.5968" lon="2.14018">
        <ele>115</ele>
        <time>2021-03-07T13:10:22.280Z</time>
      </trkpt>
      <trkpt lat="48.5968" lon="2.14019">
        <ele>115</ele>
        <time>2021-03-07T13:10:23.280Z</time>
      </trkpt>
      <trkpt lat="48.59681" lon="2.1402">
        <ele>116</ele>
        <time>2021-03-07T13:10:24.280Z</time>
      </trkpt>
      <trkpt lat="48.59682" lon="2.14021">
        <ele>116</ele>
        <time>2021-03-07T13:10:25.280Z</time>
      </trkpt>
      <trkpt lat="48.59683" lon="2.14023">
        <ele>116</ele>
        <time>2021-03-07T13:10:26.280Z</time>
      </trkpt>
      <trkpt lat="48.59684" lon="2.14024">
        <ele>115</ele>
        <time>2021-03-07T13:10:27.280Z</time>
      </trkpt>
      <trkpt lat="48.59686" lon="2.14025">
        <ele>115</ele>
        <time>2021-03-07T13:10:28.280Z</time>
      </trkpt>
      <trkpt lat="48.59688" lon="2.14026">
        <ele>115</ele>
        <time>2021-03-07T13:10:29.279Z</time>
      </trkpt>
      <trkpt lat="48.5969" lon="2.14028">
        <ele>115</ele>
        <time>2021-03-07T13:10:30.280Z</time>
      </trkpt>
      <trkpt lat="48.59691" lon="2.1403">
        <ele>114</ele>
        <time>2021-03-07T13:10:31.280Z</time>
      </trkpt>
      <trkpt lat="48.59691" lon="2.14032">
        <ele>114</ele>
        <time>2021-03-07T13:10:32.279Z</time>
      </trkpt>
      <trkpt lat="48.59693" lon="2.14033">
        <ele>114</ele>
        <time>2021-03-07T13:10:33.280Z</time>
      </trkpt>
      <trkpt lat="48.59693" lon="2.14034">
        <ele>113</ele>
        <time>2021-03-07T13:10:34.280Z</time>
      </trkpt>
      <trkpt lat="48.59695" lon="2.14035">
        <ele>113</ele>
        <time>2021-03-07T13:10:35.280Z</time>
      </trkpt>
      <trkpt lat="48.59696" lon="2.14036">
        <ele>113</ele>
        <time>2021-03-07T13:10:36.279Z</time>
      </trkpt>
      <trkpt lat="48.59697" lon="2.14037">
        <ele>112</ele>
        <time>2021-03-07T13:10:37.280Z</time>
      </trkpt>
      <trkpt lat="48.59698" lon="2.14038">
        <ele>112</ele>
        <time>2021-03-07T13:10:38.280Z</time>
      </trkpt>
      <trkpt lat="48.59699" lon="2.14039">
        <ele>112</ele>
        <time>2021-03-07T13:10:39.279Z</time>
      </trkpt>
      <trkpt lat="48.597" lon="2.1404">
        <ele>111</ele>
        <time>2021-03-07T13:10:40.279Z</time>
      </trkpt>
      <trkpt lat="48.59701" lon="2.1404">
        <ele>111</ele>
        <time>2021-03-07T13:10:41.279Z</time>
      </trkpt>
      <trkpt lat="48.59702" lon="2.14042">
        <ele>111</ele>
        <time>2021-03-07T13:10:42.279Z</time>
      </trkpt>
      <trkpt lat="48.59703" lon="2.14042">
        <ele>111</ele>
        <time>2021-03-07T13:10:43.280Z</time>
      </trkpt>
      <trkpt lat="48.59704" lon="2.14042">
        <ele>111</ele>
        <time>2021-03-07T13:10:44.280Z</time>
      </trkpt>
      <trkpt lat="48.59705" lon="2.14042">
        <ele>111</ele>
        <time>2021-03-07T13:10:45.279Z</time>
      </trkpt>
      <trkpt lat="48.59706" lon="2.14042">
        <ele>110</ele>
        <time>2021-03-07T13:10:46.280Z</time>
      </trkpt>
      <trkpt lat="48.59707" lon="2.14042">
        <ele>110</ele>
        <time>2021-03-07T13:10:47.280Z</time>
      </trkpt>
      <trkpt lat="48.59709" lon="2.14043">
        <ele>110</ele>
        <time>2021-03-07T13:10:48.279Z</time>
      </trkpt>
      <trkpt lat="48.59711" lon="2.14044">
        <ele>110</ele>
        <time>2021-03-07T13:10:49.280Z</time>
      </trkpt>
      <trkpt lat="48.59713" lon="2.14046">
        <ele>110</ele>
        <time>2021-03-07T13:10:50.280Z</time>
      </trkpt>
      <trkpt lat="48.59714" lon="2.14047">
        <ele>110</ele>
        <time>2021-03-07T13:10:51.280Z</time>
      </trkpt>
      <trkpt lat="48.59715" lon="2.14049">
        <ele>110</ele>
        <time>2021-03-07T13:10:52.280Z</time>
      </trkpt>
      <trkpt lat="48.59716" lon="2.1405">
        <ele>109</ele>
        <time>2021-03-07T13:10:53.279Z</time>
      </trkpt>
      <trkpt lat="48.59717" lon="2.14051">
        <ele>109</ele>
        <time>2021-03-07T13:10:54.280Z</time>
      </trkpt>
      <trkpt lat="48.59718" lon="2.14052">
        <ele>109</ele>
        <time>2021-03-07T13:10:55.280Z</time>
      </trkpt>
      <trkpt lat="48.5972" lon="2.14053">
        <ele>109</ele>
        <time>2021-03-07T13:10:56.280Z</time>
      </trkpt>
      <trkpt lat="48.59721" lon="2.14054">
        <ele>109</ele>
        <time>2021-03-07T13:10:57.280Z</time>
      </trkpt>
      <trkpt lat="48.59721" lon="2.14055">
        <ele>109</ele>
        <time>2021-03-07T13:10:58.279Z</time>
      </trkpt>
      <trkpt lat="48.59721" lon="2.14055">
        <ele>108</ele>
        <time>2021-03-07T13:10:59.280Z</time>
      </trkpt>
      <trkpt lat="48.59722" lon="2.14056">
        <ele>108</ele>
        <time>2021-03-07T13:11:00.279Z</time>
      </trkpt>
      <trkpt lat="48.59723" lon="2.14056">
        <ele>108</ele>
        <time>2021-03-07T13:11:01.280Z</time>
      </trkpt>
      <trkpt lat="48.59723" lon="2.14056">
        <ele>109</ele>
        <time>2021-03-07T13:11:02.280Z</time>
      </trkpt>
      <trkpt lat="48.59723" lon="2.14056">
        <ele>109</ele>
        <time>2021-03-07T13:11:03.280Z</time>
      </trkpt>
      <trkpt lat="48.59722" lon="2.14056">
        <ele>109</ele>
        <time>2021-03-07T13:11:04.280Z</time>
      </trkpt>
      <trkpt lat="48.59722" lon="2.14055">
        <ele>109</ele>
        <time>2021-03-07T13:11:05.280Z</time>
      </trkpt>
      <trkpt lat="48.59722" lon="2.14055">
        <ele>109</ele>
        <time>2021-03-07T13:11:06.280Z</time>
      </trkpt>
      <trkpt lat="48.59722" lon="2.14056">
        <ele>109</ele>
        <time>2021-03-07T13:11:07.280Z</time>
      </trkpt>
      <trkpt lat="48.59722" lon="2.14056">
        <ele>109</ele>
        <time>2021-03-07T13:11:08.279Z</time>
      </trkpt>
      <trkpt lat="48.59722" lon="2.14057">
        <ele>109</ele>
        <time>2021-03-07T13:11:09.280Z</time>
      </trkpt>
      <trkpt lat="48.59721" lon="2.14057">
        <ele>110</ele>
        <time>2021-03-07T13:11:10.279Z</time>
      </trkpt>
      <trkpt lat="48.59721" lon="2.14058">
        <ele>110</ele>
        <time>2021-03-07T13:11:11.280Z</time>
      </trkpt>
      <trkpt lat="48.59721" lon="2.14058">
        <ele>111</ele>
        <time>2021-03-07T13:11:12.280Z</time>
      </trkpt>
      <trkpt lat="48.59721" lon="2.14058">
        <ele>112</ele>
        <time>2021-03-07T13:11:13.279Z</time>
      </trkpt>
      <trkpt lat="48.59721" lon="2.14058">
        <ele>112</ele>
        <time>2021-03-07T13:11:14.280Z</time>
      </trkpt>
      <trkpt lat="48.59721" lon="2.14058">
        <ele>113</ele>
        <time>2021-03-07T13:11:15.280Z</time>
      </trkpt>
      <trkpt lat="48.59721" lon="2.14058">
        <ele>113</ele>
        <time>2021-03-07T13:11:16.279Z</time>
      </trkpt>
      <trkpt lat="48.59721" lon="2.14058">
        <ele>113</ele>
        <time>2021-03-07T13:11:17.280Z</time>
      </trkpt>
      <trkpt lat="48.59721" lon="2.14058">
        <ele>114</ele>
        <time>2021-03-07T13:11:18.279Z</time>
      </trkpt>
      <trkpt lat="48.59721" lon="2.14058">
        <ele>114</ele>
        <time>2021-03-07T13:11:19.280Z</time>
      </trkpt>
      <trkpt lat="48.59721" lon="2.14058">
        <ele>114</ele>
        <time>2021-03-07T13:11:20.280Z</time>
      </trkpt>
      <trkpt lat="48.59721" lon="2.14058">
        <ele>114</ele>
        <time>2021-03-07T13:11:21.279Z</time>
      </trkpt>
      <trkpt lat="48.59721" lon="2.14058">
        <ele>114</ele>
        <time>2021-03-07T13:11:22.279Z</time>
      </trkpt>
      <trkpt lat="48.59721" lon="2.14058">
        <ele>114</ele>
        <time>2021-03-07T13:11:23.280Z</time>
      </trkpt>
      <trkpt lat="48.59721" lon="2.14058">
        <ele>114</ele>
        <time>2021-03-07T13:11:24.280Z</time>
      </trkpt>
      <trkpt lat="48.59721" lon="2.14058">
        <ele>114</ele>
        <time>2021-03-07T13:11:25.280Z</time>
      </trkpt>
      <trkpt lat="48.59721" lon="2.14058">
        <ele>114</ele>
        <time>2021-03-07T13:11:26.279Z</time>
      </trkpt>
      <trkpt lat="48.59721" lon="2.14058">
        <ele>114</ele>
        <time>2021-03-07T13:11:27.280Z</time>
      </trkpt>
      <trkpt lat="48.59721" lon="2.14058">
        <ele>114</ele>
        <time>2021-03-07T13:11:28.279Z</time>
      </trkpt>
      <trkpt lat="48.59721" lon="2.14059">
        <ele>114</ele>
        <time>2021-03-07T13:11:29.279Z</time>
      </trkpt>
      <trkpt lat="48.59721" lon="2.14059">
        <ele>114</ele>
        <time>2021-03-07T13:11:30.280Z</time>
      </trkpt>
      <trkpt lat="48.59722" lon="2.14059">
        <ele>114</ele>
        <time>2021-03-07T13:11:31.280Z</time>
      </trkpt>
      <trkpt lat="48.59722" lon="2.14059">
        <ele>113</ele>
        <time>2021-03-07T13:11:32.280Z</time>
      </trkpt>
      <trkpt lat="48.59722" lon="2.14059">
        <ele>113</ele>
        <time>2021-03-07T13:11:33.280Z</time>
      </trkpt>
      <trkpt lat="48.59722" lon="2.14059">
        <ele>113</ele>
        <time>2021-03-07T13:11:34.280Z</time>
      </trkpt>
      <trkpt lat="48.59722" lon="2.14059">
        <ele>113</ele>
        <time>2021-03-07T13:11:35.280Z</time>
      </trkpt>
      <trkpt lat="48.59722" lon="2.14059">
        <ele>113</ele>
        <time>2021-03-07T13:11:36.280Z</time>
      </trkpt>
      <trkpt lat="48.59722" lon="2.14059">
        <ele>113</ele>
        <time>2021-03-07T13:11:37.280Z</time>
      </trkpt>
      <trkpt lat="48.59722" lon="2.14059">
        <ele>113</ele>
        <time>2021-03-07T13:11:38.280Z</time>
      </trkpt>
      <trkpt lat="48.59722" lon="2.14059">
        <ele>113</ele>
        <time>2021-03-07T13:11:39.280Z</time>
      </trkpt>
      <trkpt lat="48.59722" lon="2.14059">
        <ele>113</ele>
        <time>2021-03-07T13:11:40.280Z</time>
      </trkpt>
      <trkpt lat="48.59722" lon="2.14059">
        <ele>113</ele>
        <time>2021-03-07T13:11:41.280Z</time>
      </trkpt>
      <trkpt lat="48.59722" lon="2.14059">
        <ele>113</ele>
        <time>2021-03-07T13:11:42.280Z</time>
      </trkpt>
      <trkpt lat="48.59722" lon="2.1406">
        <ele>113</ele>
        <time>2021-03-07T13:11:43.280Z</time>
      </trkpt>
      <trkpt lat="48.59722" lon="2.1406">
        <ele>113</ele>
        <time>2021-03-07T13:11:44.280Z</time>
      </trkpt>
      <trkpt lat="48.59722" lon="2.1406">
        <ele>113</ele>
        <time>2021-03-07T13:11:45.279Z</time>
      </trkpt>
      <trkpt lat="48.59722" lon="2.1406">
        <ele>113</ele>
        <time>2021-03-07T13:11:46.280Z</time>
      </trkpt>
      <trkpt lat="48.59722" lon="2.1406">
        <ele>113</ele>
        <time>2021-03-07T13:11:47.280Z</time>
      </trkpt>
      <trkpt lat="48.59722" lon="2.1406">
        <ele>113</ele>
        <time>2021-03-07T13:11:48.280Z</time>
      </trkpt>
      <trkpt lat="48.59722" lon="2.1406">
        <ele>113</ele>
        <time>2021-03-07T13:11:49.280Z</time>
      </trkpt>
      <trkpt lat="48.59722" lon="2.1406">
        <ele>113</ele>
        <time>2021-03-07T13:11:50.280Z</time>
      </trkpt>
      <trkpt lat="48.59722" lon="2.1406">
        <ele>113</ele>
        <time>2021-03-07T13:11:51.279Z</time>
      </trkpt>
      <trkpt lat="48.59722" lon="2.14061">
        <ele>113</ele>
        <time>2021-03-07T13:11:52.280Z</time>
      </trkpt>
      <trkpt lat="48.59722" lon="2.14062">
        <ele>113</ele>
        <time>2021-03-07T13:11:53.280Z</time>
      </trkpt>
      <trkpt lat="48.59722" lon="2.14062">
        <ele>113</ele>
        <time>2021-03-07T13:11:54.279Z</time>
      </trkpt>
      <trkpt lat="48.59722" lon="2.14063">
        <ele>113</ele>
        <time>2021-03-07T13:11:55.279Z</time>
      </trkpt>
      <trkpt lat="48.59722" lon="2.14063">
        <ele>113</ele>
        <time>2021-03-07T13:11:56.280Z</time>
      </trkpt>
      <trkpt lat="48.59722" lon="2.14063">
        <ele>113</ele>
        <time>2021-03-07T13:11:57.280Z</time>
      </trkpt>
      <trkpt lat="48.59721" lon="2.14064">
        <ele>112</ele>
        <time>2021-03-07T13:11:58.279Z</time>
      </trkpt>
      <trkpt lat="48.5972" lon="2.14065">
        <ele>112</ele>
        <time>2021-03-07T13:11:59.280Z</time>
      </trkpt>
      <trkpt lat="48.5972" lon="2.14066">
        <ele>112</ele>
        <time>2021-03-07T13:12:00.280Z</time>
      </trkpt>
      <trkpt lat="48.5972" lon="2.14067">
        <ele>113</ele>
        <time>2021-03-07T13:12:01.280Z</time>
      </trkpt>
      <trkpt lat="48.5972" lon="2.14067">
        <ele>113</ele>
        <time>2021-03-07T13:12:02.280Z</time>
      </trkpt>
      <trkpt lat="48.5972" lon="2.14066">
        <ele>113</ele>
        <time>2021-03-07T13:12:03.279Z</time>
      </trkpt>
      <trkpt lat="48.5972" lon="2.14065">
        <ele>113</ele>
        <time>2021-03-07T13:12:04.280Z</time>
      </trkpt>
      <trkpt lat="48.5972" lon="2.14064">
        <ele>113</ele>
        <time>2021-03-07T13:12:05.280Z</time>
      </trkpt>
      <trkpt lat="48.5972" lon="2.14064">
        <ele>113</ele>
        <time>2021-03-07T13:12:06.280Z</time>
      </trkpt>
      <trkpt lat="48.5972" lon="2.14063">
        <ele>113</ele>
        <time>2021-03-07T13:12:07.279Z</time>
      </trkpt>
      <trkpt lat="48.59721" lon="2.14063">
        <ele>114</ele>
        <time>2021-03-07T13:12:08.280Z</time>
      </trkpt>
      <trkpt lat="48.59721" lon="2.14063">
        <ele>114</ele>
        <time>2021-03-07T13:12:09.280Z</time>
      </trkpt>
      <trkpt lat="48.59721" lon="2.14063">
        <ele>114</ele>
        <time>2021-03-07T13:12:10.280Z</time>
      </trkpt>
      <trkpt lat="48.59721" lon="2.14063">
        <ele>114</ele>
        <time>2021-03-07T13:12:11.279Z</time>
      </trkpt>
      <trkpt lat="48.59721" lon="2.14063">
        <ele>114</ele>
        <time>2021-03-07T13:12:12.280Z</time>
      </trkpt>
      <trkpt lat="48.59721" lon="2.14063">
        <ele>114</ele>
        <time>2021-03-07T13:12:13.280Z</time>
      </trkpt>
      <trkpt lat="48.59721" lon="2.14063">
        <ele>114</ele>
        <time>2021-03-07T13:12:14.280Z</time>
      </trkpt>
      <trkpt lat="48.59721" lon="2.14063">
        <ele>114</ele>
        <time>2021-03-07T13:12:15.279Z</time>
      </trkpt>
      <trkpt lat="48.59721" lon="2.14063">
        <ele>113</ele>
        <time>2021-03-07T13:12:16.280Z</time>
      </trkpt>
      <trkpt lat="48.59721" lon="2.14063">
        <ele>113</ele>
        <time>2021-03-07T13:12:17.280Z</time>
      </trkpt>
      <trkpt lat="48.59721" lon="2.14063">
        <ele>113</ele>
        <time>2021-03-07T13:12:18.280Z</time>
      </trkpt>
      <trkpt lat="48.59721" lon="2.14063">
        <ele>113</ele>
        <time>2021-03-07T13:12:19.280Z</time>
      </trkpt>
      <trkpt lat="48.59721" lon="2.14063">
        <ele>113</ele>
        <time>2021-03-07T13:12:20.280Z</time>
      </trkpt>
      <trkpt lat="48.59721" lon="2.14063">
        <ele>113</ele>
        <time>2021-03-07T13:12:21.280Z</time>
      </trkpt>
      <trkpt lat="48.59721" lon="2.14063">
        <ele>113</ele>
        <time>2021-03-07T13:12:22.280Z</time>
      </trkpt>
      <trkpt lat="48.59721" lon="2.14063">
        <ele>113</ele>
        <time>2021-03-07T13:12:23.280Z</time>
      </trkpt>
      <trkpt lat="48.59721" lon="2.14063">
        <ele>113</ele>
        <time>2021-03-07T13:12:24.279Z</time>
      </trkpt>
      <trkpt lat="48.59721" lon="2.14063">
        <ele>113</ele>
        <time>2021-03-07T13:12:25.279Z</time>
      </trkpt>
      <trkpt lat="48.59721" lon="2.14063">
        <ele>113</ele>
        <time>2021-03-07T13:12:26.280Z</time>
      </trkpt>
      <trkpt lat="48.59721" lon="2.14063">
        <ele>113</ele>
        <time>2021-03-07T13:12:27.280Z</time>
      </trkpt>
      <trkpt lat="48.59721" lon="2.14063">
        <ele>113</ele>
        <time>2021-03-07T13:12:28.280Z</time>
      </trkpt>
      <trkpt lat="48.59721" lon="2.14063">
        <ele>113</ele>
        <time>2021-03-07T13:12:29.280Z</time>
      </trkpt>
      <trkpt lat="48.59721" lon="2.14063">
        <ele>113</ele>
        <time>2021-03-07T13:12:30.280Z</time>
      </trkpt>
      <trkpt lat="48.59721" lon="2.14063">
        <ele>113</ele>
        <time>2021-03-07T13:12:31.280Z</time>
      </trkpt>
      <trkpt lat="48.59721" lon="2.14063">
        <ele>113</ele>
        <time>2021-03-07T13:12:32.279Z</time>
      </trkpt>
      <trkpt lat="48.59721" lon="2.14063">
        <ele>113</ele>
        <time>2021-03-07T13:12:33.280Z</time>
      </trkpt>
      <trkpt lat="48.59721" lon="2.14063">
        <ele>112</ele>
        <time>2021-03-07T13:12:34.280Z</time>
      </trkpt>
      <trkpt lat="48.59721" lon="2.14063">
        <ele>112</ele>
        <time>2021-03-07T13:12:35.279Z</time>
      </trkpt>
      <trkpt lat="48.59721" lon="2.14063">
        <ele>112</ele>
        <time>2021-03-07T13:12:36.280Z</time>
      </trkpt>
      <trkpt lat="48.59721" lon="2.14063">
        <ele>112</ele>
        <time>2021-03-07T13:12:37.280Z</time>
      </trkpt>
      <trkpt lat="48.59721" lon="2.14063">
        <ele>112</ele>
        <time>2021-03-07T13:12:38.280Z</time>
      </trkpt>
      <trkpt lat="48.59721" lon="2.14064">
        <ele>112</ele>
        <time>2021-03-07T13:12:39.279Z</time>
      </trkpt>
      <trkpt lat="48.59721" lon="2.14064">
        <ele>112</ele>
        <time>2021-03-07T13:12:40.279Z</time>
      </trkpt>
      <trkpt lat="48.59721" lon="2.14064">
        <ele>111</ele>
        <time>2021-03-07T13:12:41.279Z</time>
      </trkpt>
      <trkpt lat="48.59721" lon="2.14064">
        <ele>111</ele>
        <time>2021-03-07T13:12:42.280Z</time>
      </trkpt>
      <trkpt lat="48.59721" lon="2.14064">
        <ele>111</ele>
        <time>2021-03-07T13:12:43.280Z</time>
      </trkpt>
      <trkpt lat="48.59721" lon="2.14064">
        <ele>111</ele>
        <time>2021-03-07T13:12:44.280Z</time>
      </trkpt>
      <trkpt lat="48.59721" lon="2.14064">
        <ele>111</ele>
        <time>2021-03-07T13:12:45.280Z</time>
      </trkpt>
      <trkpt lat="48.59721" lon="2.14064">
        <ele>111</ele>
        <time>2021-03-07T13:12:46.280Z</time>
      </trkpt>
      <trkpt lat="48.59721" lon="2.14064">
        <ele>111</ele>
        <time>2021-03-07T13:12:47.280Z</time>
      </trkpt>
      <trkpt lat="48.59721" lon="2.14064">
        <ele>111</ele>
        <time>2021-03-07T13:12:48.280Z</time>
      </trkpt>
      <trkpt lat="48.59721" lon="2.14064">
        <ele>111</ele>
        <time>2021-03-07T13:12:49.279Z</time>
      </trkpt>
      <trkpt lat="48.59721" lon="2.14064">
        <ele>111</ele>
        <time>2021-03-07T13:12:50.280Z</time>
      </trkpt>
      <trkpt lat="48.59721" lon="2.14064">
        <ele>111</ele>
        <time>2021-03-07T13:12:51.280Z</time>
      </trkpt>
      <trkpt lat="48.59721" lon="2.14064">
        <ele>111</ele>
        <time>2021-03-07T13:12:52.280Z</time>
      </trkpt>
      <trkpt lat="48.59721" lon="2.14064">
        <ele>111</ele>
        <time>2021-03-07T13:12:53.280Z</time>
      </trkpt>
      <trkpt lat="48.59721" lon="2.14063">
        <ele>111</ele>
        <time>2021-03-07T13:12:54.280Z</time>
      </trkpt>
      <trkpt lat="48.59721" lon="2.14063">
        <ele>110</ele>
        <time>2021-03-07T13:12:55.280Z</time>
      </trkpt>
      <trkpt lat="48.59722" lon="2.14065">
        <ele>110</ele>
        <time>2021-03-07T13:12:56.280Z</time>
      </trkpt>
      <trkpt lat="48.59723" lon="2.14067">
        <ele>110</ele>
        <time>2021-03-07T13:12:57.280Z</time>
      </trkpt>
      <trkpt lat="48.59725" lon="2.14068">
        <ele>110</ele>
        <time>2021-03-07T13:12:58.279Z</time>
      </trkpt>
      <trkpt lat="48.59726" lon="2.14069">
        <ele>110</ele>
        <time>2021-03-07T13:12:59.280Z</time>
      </trkpt>
      <trkpt lat="48.59727" lon="2.1407">
        <ele>110</ele>
        <time>2021-03-07T13:13:00.280Z</time>
      </trkpt>
      <trkpt lat="48.59729" lon="2.1407">
        <ele>110</ele>
        <time>2021-03-07T13:13:01.280Z</time>
      </trkpt>
      <trkpt lat="48.59731" lon="2.14071">
        <ele>110</ele>
        <time>2021-03-07T13:13:02.280Z</time>
      </trkpt>
      <trkpt lat="48.59733" lon="2.14071">
        <ele>110</ele>
        <time>2021-03-07T13:13:03.280Z</time>
      </trkpt>
      <trkpt lat="48.59734" lon="2.14072">
        <ele>109</ele>
        <time>2021-03-07T13:13:04.280Z</time>
      </trkpt>
      <trkpt lat="48.59736" lon="2.14072">
        <ele>109</ele>
        <time>2021-03-07T13:13:05.280Z</time>
      </trkpt>
      <trkpt lat="48.59737" lon="2.14073">
        <ele>109</ele>
        <time>2021-03-07T13:13:06.280Z</time>
      </trkpt>
      <trkpt lat="48.59739" lon="2.14073">
        <ele>109</ele>
        <time>2021-03-07T13:13:07.280Z</time>
      </trkpt>
      <trkpt lat="48.5974" lon="2.14072">
        <ele>108</ele>
        <time>2021-03-07T13:13:08.280Z</time>
      </trkpt>
      <trkpt lat="48.59742" lon="2.14072">
        <ele>108</ele>
        <time>2021-03-07T13:13:09.280Z</time>
      </trkpt>
      <trkpt lat="48.59743" lon="2.14073">
        <ele>107</ele>
        <time>2021-03-07T13:13:10.280Z</time>
      </trkpt>
      <trkpt lat="48.59745" lon="2.14073">
        <ele>106</ele>
        <time>2021-03-07T13:13:11.280Z</time>
      </trkpt>
      <trkpt lat="48.59747" lon="2.14073">
        <ele>105</ele>
        <time>2021-03-07T13:13:12.280Z</time>
      </trkpt>
      <trkpt lat="48.59748" lon="2.14072">
        <ele>104</ele>
        <time>2021-03-07T13:13:13.280Z</time>
      </trkpt>
      <trkpt lat="48.5975" lon="2.14073">
        <ele>104</ele>
        <time>2021-03-07T13:13:14.280Z</time>
      </trkpt>
      <trkpt lat="48.59752" lon="2.14072">
        <ele>103</ele>
        <time>2021-03-07T13:13:15.279Z</time>
      </trkpt>
      <trkpt lat="48.59753" lon="2.14071">
        <ele>103</ele>
        <time>2021-03-07T13:13:16.280Z</time>
      </trkpt>
      <trkpt lat="48.59755" lon="2.14069">
        <ele>103</ele>
        <time>2021-03-07T13:13:17.280Z</time>
      </trkpt>
      <trkpt lat="48.59757" lon="2.14068">
        <ele>102</ele>
        <time>2021-03-07T13:13:18.280Z</time>
      </trkpt>
      <trkpt lat="48.59758" lon="2.14068">
        <ele>102</ele>
        <time>2021-03-07T13:13:19.280Z</time>
      </trkpt>
      <trkpt lat="48.5976" lon="2.14067">
        <ele>102</ele>
        <time>2021-03-07T13:13:20.280Z</time>
      </trkpt>
      <trkpt lat="48.59761" lon="2.14067">
        <ele>101</ele>
        <time>2021-03-07T13:13:21.280Z</time>
      </trkpt>
      <trkpt lat="48.59763" lon="2.14067">
        <ele>101</ele>
        <time>2021-03-07T13:13:22.280Z</time>
      </trkpt>
      <trkpt lat="48.59764" lon="2.14067">
        <ele>101</ele>
        <time>2021-03-07T13:13:23.280Z</time>
      </trkpt>
      <trkpt lat="48.59766" lon="2.14067">
        <ele>101</ele>
        <time>2021-03-07T13:13:24.280Z</time>
      </trkpt>
      <trkpt lat="48.59767" lon="2.14066">
        <ele>101</ele>
        <time>2021-03-07T13:13:25.279Z</time>
      </trkpt>
      <trkpt lat="48.59768" lon="2.14066">
        <ele>101</ele>
        <time>2021-03-07T13:13:26.280Z</time>
      </trkpt>
      <trkpt lat="48.59771" lon="2.14065">
        <ele>101</ele>
        <time>2021-03-07T13:13:27.280Z</time>
      </trkpt>
      <trkpt lat="48.59773" lon="2.14064">
        <ele>101</ele>
        <time>2021-03-07T13:13:28.280Z</time>
      </trkpt>
      <trkpt lat="48.59775" lon="2.14063">
        <ele>101</ele>
        <time>2021-03-07T13:13:29.279Z</time>
      </trkpt>
      <trkpt lat="48.59776" lon="2.14063">
        <ele>101</ele>
        <time>2021-03-07T13:13:30.280Z</time>
      </trkpt>
      <trkpt lat="48.59777" lon="2.14063">
        <ele>101</ele>
        <time>2021-03-07T13:13:31.280Z</time>
      </trkpt>
      <trkpt lat="48.59779" lon="2.14064">
        <ele>100</ele>
        <time>2021-03-07T13:13:32.279Z</time>
      </trkpt>
      <trkpt lat="48.5978" lon="2.14063">
        <ele>100</ele>
        <time>2021-03-07T13:13:33.280Z</time>
      </trkpt>
      <trkpt lat="48.59782" lon="2.14063">
        <ele>101</ele>
        <time>2021-03-07T13:13:34.280Z</time>
      </trkpt>
      <trkpt lat="48.59783" lon="2.14062">
        <ele>101</ele>
        <time>2021-03-07T13:13:35.280Z</time>
      </trkpt>
      <trkpt lat="48.59784" lon="2.14061">
        <ele>102</ele>
        <time>2021-03-07T13:13:36.280Z</time>
      </trkpt>
      <trkpt lat="48.59786" lon="2.1406">
        <ele>102</ele>
        <time>2021-03-07T13:13:37.280Z</time>
      </trkpt>
      <trkpt lat="48.59787" lon="2.14059">
        <ele>102</ele>
        <time>2021-03-07T13:13:38.280Z</time>
      </trkpt>
      <trkpt lat="48.59788" lon="2.14058">
        <ele>102</ele>
        <time>2021-03-07T13:13:39.279Z</time>
      </trkpt>
      <trkpt lat="48.5979" lon="2.14057">
        <ele>101</ele>
        <time>2021-03-07T13:13:40.280Z</time>
      </trkpt>
      <trkpt lat="48.59791" lon="2.14057">
        <ele>101</ele>
        <time>2021-03-07T13:13:41.279Z</time>
      </trkpt>
      <trkpt lat="48.59793" lon="2.14056">
        <ele>101</ele>
        <time>2021-03-07T13:13:42.280Z</time>
      </trkpt>
      <trkpt lat="48.59794" lon="2.14056">
        <ele>100</ele>
        <time>2021-03-07T13:13:43.280Z</time>
      </trkpt>
      <trkpt lat="48.59796" lon="2.14056">
        <ele>100</ele>
        <time>2021-03-07T13:13:44.280Z</time>
      </trkpt>
      <trkpt lat="48.59798" lon="2.14056">
        <ele>100</ele>
        <time>2021-03-07T13:13:45.280Z</time>
      </trkpt>
      <trkpt lat="48.59799" lon="2.14056">
        <ele>100</ele>
        <time>2021-03-07T13:13:46.280Z</time>
      </trkpt>
      <trkpt lat="48.59801" lon="2.14056">
        <ele>100</ele>
        <time>2021-03-07T13:13:47.279Z</time>
      </trkpt>
      <trkpt lat="48.59802" lon="2.14056">
        <ele>99</ele>
        <time>2021-03-07T13:13:48.279Z</time>
      </trkpt>
      <trkpt lat="48.59804" lon="2.14056">
        <ele>99</ele>
        <time>2021-03-07T13:13:49.280Z</time>
      </trkpt>
      <trkpt lat="48.59805" lon="2.14056">
        <ele>98</ele>
        <time>2021-03-07T13:13:50.280Z</time>
      </trkpt>
      <trkpt lat="48.59807" lon="2.14057">
        <ele>97</ele>
        <time>2021-03-07T13:13:51.280Z</time>
      </trkpt>
      <trkpt lat="48.59809" lon="2.14057">
        <ele>97</ele>
        <time>2021-03-07T13:13:52.280Z</time>
      </trkpt>
      <trkpt lat="48.5981" lon="2.14057">
        <ele>96</ele>
        <time>2021-03-07T13:13:53.279Z</time>
      </trkpt>
      <trkpt lat="48.59813" lon="2.14057">
        <ele>95</ele>
        <time>2021-03-07T13:13:54.280Z</time>
      </trkpt>
      <trkpt lat="48.59815" lon="2.14056">
        <ele>95</ele>
        <time>2021-03-07T13:13:55.280Z</time>
      </trkpt>
      <trkpt lat="48.59816" lon="2.14056">
        <ele>95</ele>
        <time>2021-03-07T13:13:56.279Z</time>
      </trkpt>
      <trkpt lat="48.59818" lon="2.14055">
        <ele>95</ele>
        <time>2021-03-07T13:13:57.279Z</time>
      </trkpt>
      <trkpt lat="48.5982" lon="2.14055">
        <ele>95</ele>
        <time>2021-03-07T13:13:58.280Z</time>
      </trkpt>
      <trkpt lat="48.59821" lon="2.14055">
        <ele>95</ele>
        <time>2021-03-07T13:13:59.280Z</time>
      </trkpt>
      <trkpt lat="48.59823" lon="2.14054">
        <ele>95</ele>
        <time>2021-03-07T13:14:00.280Z</time>
      </trkpt>
      <trkpt lat="48.59825" lon="2.14054">
        <ele>95</ele>
        <time>2021-03-07T13:14:01.280Z</time>
      </trkpt>
      <trkpt lat="48.59826" lon="2.14054">
        <ele>95</ele>
        <time>2021-03-07T13:14:02.280Z</time>
      </trkpt>
      <trkpt lat="48.59828" lon="2.14053">
        <ele>95</ele>
        <time>2021-03-07T13:14:03.280Z</time>
      </trkpt>
      <trkpt lat="48.5983" lon="2.14053">
        <ele>95</ele>
        <time>2021-03-07T13:14:04.279Z</time>
      </trkpt>
      <trkpt lat="48.59831" lon="2.14053">
        <ele>95</ele>
        <time>2021-03-07T13:14:05.280Z</time>
      </trkpt>
      <trkpt lat="48.59833" lon="2.14053">
        <ele>94</ele>
        <time>2021-03-07T13:14:06.280Z</time>
      </trkpt>
      <trkpt lat="48.59834" lon="2.14053">
        <ele>94</ele>
        <time>2021-03-07T13:14:07.279Z</time>
      </trkpt>
      <trkpt lat="48.59836" lon="2.14053">
        <ele>94</ele>
        <time>2021-03-07T13:14:08.280Z</time>
      </trkpt>
      <trkpt lat="48.59837" lon="2.14053">
        <ele>94</ele>
        <time>2021-03-07T13:14:09.279Z</time>
      </trkpt>
      <trkpt lat="48.59839" lon="2.14052">
        <ele>95</ele>
        <time>2021-03-07T13:14:10.280Z</time>
      </trkpt>
      <trkpt lat="48.59841" lon="2.14052">
        <ele>95</ele>
        <time>2021-03-07T13:14:11.280Z</time>
      </trkpt>
      <trkpt lat="48.59842" lon="2.14052">
        <ele>95</ele>
        <time>2021-03-07T13:14:12.280Z</time>
      </trkpt>
      <trkpt lat="48.59844" lon="2.14052">
        <ele>95</ele>
        <time>2021-03-07T13:14:13.280Z</time>
      </trkpt>
      <trkpt lat="48.59845" lon="2.14052">
        <ele>94</ele>
        <time>2021-03-07T13:14:14.280Z</time>
      </trkpt>
      <trkpt lat="48.59847" lon="2.14052">
        <ele>94</ele>
        <time>2021-03-07T13:14:15.280Z</time>
      </trkpt>
      <trkpt lat="48.59849" lon="2.14052">
        <ele>94</ele>
        <time>2021-03-07T13:14:16.280Z</time>
      </trkpt>
      <trkpt lat="48.59851" lon="2.14051">
        <ele>94</ele>
        <time>2021-03-07T13:14:17.280Z</time>
      </trkpt>
      <trkpt lat="48.59852" lon="2.14051">
        <ele>94</ele>
        <time>2021-03-07T13:14:18.280Z</time>
      </trkpt>
      <trkpt lat="48.59853" lon="2.14051">
        <ele>94</ele>
        <time>2021-03-07T13:14:19.280Z</time>
      </trkpt>
      <trkpt lat="48.59855" lon="2.14051">
        <ele>95</ele>
        <time>2021-03-07T13:14:20.280Z</time>
      </trkpt>
      <trkpt lat="48.59856" lon="2.14051">
        <ele>95</ele>
        <time>2021-03-07T13:14:21.280Z</time>
      </trkpt>
      <trkpt lat="48.59858" lon="2.14051">
        <ele>96</ele>
        <time>2021-03-07T13:14:22.280Z</time>
      </trkpt>
      <trkpt lat="48.59859" lon="2.1405">
        <ele>96</ele>
        <time>2021-03-07T13:14:23.280Z</time>
      </trkpt>
      <trkpt lat="48.59861" lon="2.1405">
        <ele>96</ele>
        <time>2021-03-07T13:14:24.280Z</time>
      </trkpt>
      <trkpt lat="48.59862" lon="2.1405">
        <ele>96</ele>
        <time>2021-03-07T13:14:25.280Z</time>
      </trkpt>
      <trkpt lat="48.59863" lon="2.1405">
        <ele>96</ele>
        <time>2021-03-07T13:14:26.280Z</time>
      </trkpt>
      <trkpt lat="48.59865" lon="2.14049">
        <ele>96</ele>
        <time>2021-03-07T13:14:27.280Z</time>
      </trkpt>
      <trkpt lat="48.59866" lon="2.14049">
        <ele>95</ele>
        <time>2021-03-07T13:14:28.279Z</time>
      </trkpt>
      <trkpt lat="48.59868" lon="2.14049">
        <ele>95</ele>
        <time>2021-03-07T13:14:29.280Z</time>
      </trkpt>
      <trkpt lat="48.5987" lon="2.14049">
        <ele>95</ele>
        <time>2021-03-07T13:14:30.280Z</time>
      </trkpt>
      <trkpt lat="48.59871" lon="2.14048">
        <ele>95</ele>
        <time>2021-03-07T13:14:31.280Z</time>
      </trkpt>
      <trkpt lat="48.59873" lon="2.14048">
        <ele>95</ele>
        <time>2021-03-07T13:14:32.279Z</time>
      </trkpt>
      <trkpt lat="48.59874" lon="2.14048">
        <ele>95</ele>
        <time>2021-03-07T13:14:33.280Z</time>
      </trkpt>
      <trkpt lat="48.59875" lon="2.14047">
        <ele>96</ele>
        <time>2021-03-07T13:14:34.279Z</time>
      </trkpt>
      <trkpt lat="48.59876" lon="2.14047">
        <ele>96</ele>
        <time>2021-03-07T13:14:35.279Z</time>
      </trkpt>
      <trkpt lat="48.59878" lon="2.14046">
        <ele>96</ele>
        <time>2021-03-07T13:14:36.280Z</time>
      </trkpt>
      <trkpt lat="48.59879" lon="2.14046">
        <ele>96</ele>
        <time>2021-03-07T13:14:37.280Z</time>
      </trkpt>
      <trkpt lat="48.5988" lon="2.14046">
        <ele>96</ele>
        <time>2021-03-07T13:14:38.280Z</time>
      </trkpt>
      <trkpt lat="48.59882" lon="2.14046">
        <ele>95</ele>
        <time>2021-03-07T13:14:39.280Z</time>
      </trkpt>
      <trkpt lat="48.59883" lon="2.14046">
        <ele>95</ele>
        <time>2021-03-07T13:14:40.280Z</time>
      </trkpt>
      <trkpt lat="48.59885" lon="2.14045">
        <ele>95</ele>
        <time>2021-03-07T13:14:41.280Z</time>
      </trkpt>
      <trkpt lat="48.59887" lon="2.14045">
        <ele>95</ele>
        <time>2021-03-07T13:14:42.280Z</time>
      </trkpt>
      <trkpt lat="48.59888" lon="2.14044">
        <ele>95</ele>
        <time>2021-03-07T13:14:43.279Z</time>
      </trkpt>
      <trkpt lat="48.59889" lon="2.14044">
        <ele>95</ele>
        <time>2021-03-07T13:14:44.280Z</time>
      </trkpt>
      <trkpt lat="48.59891" lon="2.14044">
        <ele>95</ele>
        <time>2021-03-07T13:14:45.280Z</time>
      </trkpt>
      <trkpt lat="48.59892" lon="2.14043">
        <ele>95</ele>
        <time>2021-03-07T13:14:46.279Z</time>
      </trkpt>
      <trkpt lat="48.59894" lon="2.14043">
        <ele>95</ele>
        <time>2021-03-07T13:14:47.280Z</time>
      </trkpt>
      <trkpt lat="48.59896" lon="2.14042">
        <ele>95</ele>
        <time>2021-03-07T13:14:48.280Z</time>
      </trkpt>
      <trkpt lat="48.59897" lon="2.14042">
        <ele>95</ele>
        <time>2021-03-07T13:14:49.280Z</time>
      </trkpt>
      <trkpt lat="48.59898" lon="2.14042">
        <ele>95</ele>
        <time>2021-03-07T13:14:50.279Z</time>
      </trkpt>
      <trkpt lat="48.599" lon="2.14041">
        <ele>95</ele>
        <time>2021-03-07T13:14:51.280Z</time>
      </trkpt>
      <trkpt lat="48.59901" lon="2.14041">
        <ele>94</ele>
        <time>2021-03-07T13:14:52.279Z</time>
      </trkpt>
      <trkpt lat="48.59902" lon="2.1404">
        <ele>94</ele>
        <time>2021-03-07T13:14:53.280Z</time>
      </trkpt>
      <trkpt lat="48.59904" lon="2.1404">
        <ele>94</ele>
        <time>2021-03-07T13:14:54.280Z</time>
      </trkpt>
      <trkpt lat="48.59906" lon="2.1404">
        <ele>94</ele>
        <time>2021-03-07T13:14:55.279Z</time>
      </trkpt>
      <trkpt lat="48.59907" lon="2.14039">
        <ele>94</ele>
        <time>2021-03-07T13:14:56.280Z</time>
      </trkpt>
      <trkpt lat="48.59909" lon="2.14039">
        <ele>94</ele>
        <time>2021-03-07T13:14:57.280Z</time>
      </trkpt>
      <trkpt lat="48.5991" lon="2.14039">
        <ele>94</ele>
        <time>2021-03-07T13:14:58.279Z</time>
      </trkpt>
      <trkpt lat="48.59911" lon="2.14038">
        <ele>93</ele>
        <time>2021-03-07T13:14:59.280Z</time>
      </trkpt>
      <trkpt lat="48.59913" lon="2.14038">
        <ele>93</ele>
        <time>2021-03-07T13:15:00.279Z</time>
      </trkpt>
      <trkpt lat="48.59915" lon="2.14038">
        <ele>93</ele>
        <time>2021-03-07T13:15:01.279Z</time>
      </trkpt>
      <trkpt lat="48.59916" lon="2.14037">
        <ele>94</ele>
        <time>2021-03-07T13:15:02.279Z</time>
      </trkpt>
      <trkpt lat="48.59918" lon="2.14037">
        <ele>94</ele>
        <time>2021-03-07T13:15:03.280Z</time>
      </trkpt>
      <trkpt lat="48.59919" lon="2.14036">
        <ele>94</ele>
        <time>2021-03-07T13:15:04.280Z</time>
      </trkpt>
      <trkpt lat="48.59921" lon="2.14036">
        <ele>94</ele>
        <time>2021-03-07T13:15:05.280Z</time>
      </trkpt>
      <trkpt lat="48.59922" lon="2.14036">
        <ele>94</ele>
        <time>2021-03-07T13:15:06.279Z</time>
      </trkpt>
      <trkpt lat="48.59923" lon="2.14036">
        <ele>94</ele>
        <time>2021-03-07T13:15:07.280Z</time>
      </trkpt>
      <trkpt lat="48.59924" lon="2.14036">
        <ele>95</ele>
        <time>2021-03-07T13:15:08.280Z</time>
      </trkpt>
      <trkpt lat="48.59926" lon="2.14037">
        <ele>94</ele>
        <time>2021-03-07T13:15:09.280Z</time>
      </trkpt>
      <trkpt lat="48.59927" lon="2.14036">
        <ele>94</ele>
        <time>2021-03-07T13:15:10.280Z</time>
      </trkpt>
      <trkpt lat="48.59928" lon="2.14036">
        <ele>94</ele>
        <time>2021-03-07T13:15:11.280Z</time>
      </trkpt>
      <trkpt lat="48.59929" lon="2.14036">
        <ele>94</ele>
        <time>2021-03-07T13:15:12.279Z</time>
      </trkpt>
      <trkpt lat="48.5993" lon="2.14035">
        <ele>94</ele>
        <time>2021-03-07T13:15:13.280Z</time>
      </trkpt>
      <trkpt lat="48.59931" lon="2.14035">
        <ele>94</ele>
        <time>2021-03-07T13:15:14.280Z</time>
      </trkpt>
      <trkpt lat="48.59932" lon="2.14035">
        <ele>95</ele>
        <time>2021-03-07T13:15:15.279Z</time>
      </trkpt>
      <trkpt lat="48.59934" lon="2.14035">
        <ele>95</ele>
        <time>2021-03-07T13:15:16.279Z</time>
      </trkpt>
      <trkpt lat="48.59935" lon="2.14035">
        <ele>94</ele>
        <time>2021-03-07T13:15:17.280Z</time>
      </trkpt>
      <trkpt lat="48.59936" lon="2.14035">
        <ele>94</ele>
        <time>2021-03-07T13:15:18.280Z</time>
      </trkpt>
      <trkpt lat="48.59937" lon="2.14034">
        <ele>94</ele>
        <time>2021-03-07T13:15:19.280Z</time>
      </trkpt>
      <trkpt lat="48.59938" lon="2.14034">
        <ele>94</ele>
        <time>2021-03-07T13:15:20.280Z</time>
      </trkpt>
      <trkpt lat="48.5994" lon="2.14034">
        <ele>94</ele>
        <time>2021-03-07T13:15:21.280Z</time>
      </trkpt>
      <trkpt lat="48.59941" lon="2.14034">
        <ele>95</ele>
        <time>2021-03-07T13:15:22.280Z</time>
      </trkpt>
      <trkpt lat="48.59943" lon="2.14034">
        <ele>95</ele>
        <time>2021-03-07T13:15:23.280Z</time>
      </trkpt>
      <trkpt lat="48.59944" lon="2.14034">
        <ele>96</ele>
        <time>2021-03-07T13:15:24.280Z</time>
      </trkpt>
      <trkpt lat="48.59945" lon="2.14033">
        <ele>96</ele>
        <time>2021-03-07T13:15:25.280Z</time>
      </trkpt>
      <trkpt lat="48.59946" lon="2.14032">
        <ele>95</ele>
        <time>2021-03-07T13:15:26.280Z</time>
      </trkpt>
      <trkpt lat="48.59948" lon="2.14032">
        <ele>95</ele>
        <time>2021-03-07T13:15:27.279Z</time>
      </trkpt>
      <trkpt lat="48.59949" lon="2.14031">
        <ele>95</ele>
        <time>2021-03-07T13:15:28.280Z</time>
      </trkpt>
      <trkpt lat="48.59951" lon="2.14031">
        <ele>95</ele>
        <time>2021-03-07T13:15:29.280Z</time>
      </trkpt>
      <trkpt lat="48.59952" lon="2.1403">
        <ele>94</ele>
        <time>2021-03-07T13:15:30.280Z</time>
      </trkpt>
      <trkpt lat="48.59954" lon="2.1403">
        <ele>94</ele>
        <time>2021-03-07T13:15:31.280Z</time>
      </trkpt>
      <trkpt lat="48.59955" lon="2.14029">
        <ele>94</ele>
        <time>2021-03-07T13:15:32.280Z</time>
      </trkpt>
      <trkpt lat="48.59957" lon="2.14029">
        <ele>94</ele>
        <time>2021-03-07T13:15:33.279Z</time>
      </trkpt>
      <trkpt lat="48.59957" lon="2.14028">
        <ele>94</ele>
        <time>2021-03-07T13:15:34.280Z</time>
      </trkpt>
      <trkpt lat="48.59959" lon="2.14028">
        <ele>95</ele>
        <time>2021-03-07T13:15:35.280Z</time>
      </trkpt>
      <trkpt lat="48.5996" lon="2.14028">
        <ele>95</ele>
        <time>2021-03-07T13:15:36.280Z</time>
      </trkpt>
      <trkpt lat="48.59961" lon="2.14027">
        <ele>96</ele>
        <time>2021-03-07T13:15:37.280Z</time>
      </trkpt>
      <trkpt lat="48.59963" lon="2.14027">
        <ele>96</ele>
        <time>2021-03-07T13:15:38.279Z</time>
      </trkpt>
      <trkpt lat="48.59964" lon="2.14026">
        <ele>96</ele>
        <time>2021-03-07T13:15:39.280Z</time>
      </trkpt>
      <trkpt lat="48.59965" lon="2.14025">
        <ele>96</ele>
        <time>2021-03-07T13:15:40.279Z</time>
      </trkpt>
      <trkpt lat="48.59966" lon="2.14025">
        <ele>96</ele>
        <time>2021-03-07T13:15:41.280Z</time>
      </trkpt>
      <trkpt lat="48.59967" lon="2.14024">
        <ele>97</ele>
        <time>2021-03-07T13:15:42.280Z</time>
      </trkpt>
      <trkpt lat="48.59968" lon="2.14024">
        <ele>97</ele>
        <time>2021-03-07T13:15:43.279Z</time>
      </trkpt>
      <trkpt lat="48.59969" lon="2.14023">
        <ele>97</ele>
        <time>2021-03-07T13:15:44.280Z</time>
      </trkpt>
      <trkpt lat="48.5997" lon="2.14022">
        <ele>97</ele>
        <time>2021-03-07T13:15:45.280Z</time>
      </trkpt>
      <trkpt lat="48.59971" lon="2.14021">
        <ele>97</ele>
        <time>2021-03-07T13:15:46.280Z</time>
      </trkpt>
      <trkpt lat="48.59972" lon="2.1402">
        <ele>97</ele>
        <time>2021-03-07T13:15:47.280Z</time>
      </trkpt>
      <trkpt lat="48.59974" lon="2.14018">
        <ele>97</ele>
        <time>2021-03-07T13:15:48.280Z</time>
      </trkpt>
      <trkpt lat="48.59975" lon="2.14017">
        <ele>98</ele>
        <time>2021-03-07T13:15:49.280Z</time>
      </trkpt>
      <trkpt lat="48.59977" lon="2.14016">
        <ele>98</ele>
        <time>2021-03-07T13:15:50.280Z</time>
      </trkpt>
      <trkpt lat="48.59977" lon="2.14014">
        <ele>98</ele>
        <time>2021-03-07T13:15:51.279Z</time>
      </trkpt>
      <trkpt lat="48.59978" lon="2.14013">
        <ele>98</ele>
        <time>2021-03-07T13:15:52.280Z</time>
      </trkpt>
      <trkpt lat="48.59979" lon="2.14012">
        <ele>99</ele>
        <time>2021-03-07T13:15:53.279Z</time>
      </trkpt>
      <trkpt lat="48.5998" lon="2.1401">
        <ele>99</ele>
        <time>2021-03-07T13:15:54.280Z</time>
      </trkpt>
      <trkpt lat="48.59981" lon="2.14009">
        <ele>99</ele>
        <time>2021-03-07T13:15:55.280Z</time>
      </trkpt>
      <trkpt lat="48.59982" lon="2.14008">
        <ele>99</ele>
        <time>2021-03-07T13:15:56.279Z</time>
      </trkpt>
      <trkpt lat="48.59982" lon="2.14006">
        <ele>100</ele>
        <time>2021-03-07T13:15:57.279Z</time>
      </trkpt>
      <trkpt lat="48.59983" lon="2.14005">
        <ele>100</ele>
        <time>2021-03-07T13:15:58.280Z</time>
      </trkpt>
      <trkpt lat="48.59984" lon="2.14004">
        <ele>100</ele>
        <time>2021-03-07T13:15:59.280Z</time>
      </trkpt>
      <trkpt lat="48.59985" lon="2.14002">
        <ele>100</ele>
        <time>2021-03-07T13:16:00.279Z</time>
      </trkpt>
      <trkpt lat="48.59986" lon="2.14001">
        <ele>99</ele>
        <time>2021-03-07T13:16:01.280Z</time>
      </trkpt>
      <trkpt lat="48.59987" lon="2.14">
        <ele>99</ele>
        <time>2021-03-07T13:16:02.280Z</time>
      </trkpt>
      <trkpt lat="48.59989" lon="2.13998">
        <ele>99</ele>
        <time>2021-03-07T13:16:03.280Z</time>
      </trkpt>
      <trkpt lat="48.5999" lon="2.13997">
        <ele>99</ele>
        <time>2021-03-07T13:16:04.280Z</time>
      </trkpt>
      <trkpt lat="48.59991" lon="2.13996">
        <ele>99</ele>
        <time>2021-03-07T13:16:05.280Z</time>
      </trkpt>
      <trkpt lat="48.59992" lon="2.13994">
        <ele>99</ele>
        <time>2021-03-07T13:16:06.280Z</time>
      </trkpt>
      <trkpt lat="48.59993" lon="2.13993">
        <ele>99</ele>
        <time>2021-03-07T13:16:07.280Z</time>
      </trkpt>
      <trkpt lat="48.59994" lon="2.13991">
        <ele>98</ele>
        <time>2021-03-07T13:16:08.279Z</time>
      </trkpt>
      <trkpt lat="48.59995" lon="2.1399">
        <ele>98</ele>
        <time>2021-03-07T13:16:09.280Z</time>
      </trkpt>
      <trkpt lat="48.59996" lon="2.13988">
        <ele>98</ele>
        <time>2021-03-07T13:16:10.280Z</time>
      </trkpt>
      <trkpt lat="48.59997" lon="2.13986">
        <ele>98</ele>
        <time>2021-03-07T13:16:11.280Z</time>
      </trkpt>
      <trkpt lat="48.59999" lon="2.13985">
        <ele>98</ele>
        <time>2021-03-07T13:16:12.279Z</time>
      </trkpt>
      <trkpt lat="48.6" lon="2.13983">
        <ele>98</ele>
        <time>2021-03-07T13:16:13.280Z</time>
      </trkpt>
      <trkpt lat="48.60001" lon="2.13981">
        <ele>98</ele>
        <time>2021-03-07T13:16:14.280Z</time>
      </trkpt>
      <trkpt lat="48.60002" lon="2.13979">
        <ele>98</ele>
        <time>2021-03-07T13:16:15.280Z</time>
      </trkpt>
      <trkpt lat="48.60003" lon="2.13978">
        <ele>98</ele>
        <time>2021-03-07T13:16:16.280Z</time>
      </trkpt>
      <trkpt lat="48.60004" lon="2.13976">
        <ele>98</ele>
        <time>2021-03-07T13:16:17.280Z</time>
      </trkpt>
      <trkpt lat="48.60006" lon="2.13974">
        <ele>98</ele>
        <time>2021-03-07T13:16:18.280Z</time>
      </trkpt>
      <trkpt lat="48.60007" lon="2.13973">
        <ele>97</ele>
        <time>2021-03-07T13:16:19.280Z</time>
      </trkpt>
      <trkpt lat="48.60008" lon="2.13971">
        <ele>97</ele>
        <time>2021-03-07T13:16:20.280Z</time>
      </trkpt>
      <trkpt lat="48.6001" lon="2.1397">
        <ele>97</ele>
        <time>2021-03-07T13:16:21.280Z</time>
      </trkpt>
      <trkpt lat="48.60011" lon="2.13968">
        <ele>96</ele>
        <time>2021-03-07T13:16:22.280Z</time>
      </trkpt>
      <trkpt lat="48.60013" lon="2.13967">
        <ele>96</ele>
        <time>2021-03-07T13:16:23.280Z</time>
      </trkpt>
      <trkpt lat="48.60015" lon="2.13965">
        <ele>95</ele>
        <time>2021-03-07T13:16:24.280Z</time>
      </trkpt>
      <trkpt lat="48.60016" lon="2.13964">
        <ele>95</ele>
        <time>2021-03-07T13:16:25.280Z</time>
      </trkpt>
      <trkpt lat="48.60017" lon="2.13963">
        <ele>95</ele>
        <time>2021-03-07T13:16:26.280Z</time>
      </trkpt>
      <trkpt lat="48.60019" lon="2.13962">
        <ele>95</ele>
        <time>2021-03-07T13:16:27.280Z</time>
      </trkpt>
      <trkpt lat="48.60021" lon="2.13961">
        <ele>95</ele>
        <time>2021-03-07T13:16:28.280Z</time>
      </trkpt>
      <trkpt lat="48.60022" lon="2.1396">
        <ele>95</ele>
        <time>2021-03-07T13:16:29.280Z</time>
      </trkpt>
      <trkpt lat="48.60023" lon="2.13959">
        <ele>95</ele>
        <time>2021-03-07T13:16:30.280Z</time>
      </trkpt>
      <trkpt lat="48.60025" lon="2.13959">
        <ele>95</ele>
        <time>2021-03-07T13:16:31.279Z</time>
      </trkpt>
      <trkpt lat="48.60026" lon="2.13959">
        <ele>95</ele>
        <time>2021-03-07T13:16:32.279Z</time>
      </trkpt>
      <trkpt lat="48.60028" lon="2.13958">
        <ele>94</ele>
        <time>2021-03-07T13:16:33.280Z</time>
      </trkpt>
      <trkpt lat="48.60029" lon="2.13958">
        <ele>94</ele>
        <time>2021-03-07T13:16:34.280Z</time>
      </trkpt>
      <trkpt lat="48.60031" lon="2.13957">
        <ele>94</ele>
        <time>2021-03-07T13:16:35.280Z</time>
      </trkpt>
      <trkpt lat="48.60031" lon="2.13956">
        <ele>94</ele>
        <time>2021-03-07T13:16:36.280Z</time>
      </trkpt>
      <trkpt lat="48.60033" lon="2.13956">
        <ele>94</ele>
        <time>2021-03-07T13:16:37.280Z</time>
      </trkpt>
      <trkpt lat="48.60034" lon="2.13956">
        <ele>94</ele>
        <time>2021-03-07T13:16:38.280Z</time>
      </trkpt>
      <trkpt lat="48.60035" lon="2.13956">
        <ele>95</ele>
        <time>2021-03-07T13:16:39.280Z</time>
      </trkpt>
      <trkpt lat="48.60036" lon="2.13955">
        <ele>95</ele>
        <time>2021-03-07T13:16:40.280Z</time>
      </trkpt>
      <trkpt lat="48.60037" lon="2.13954">
        <ele>95</ele>
        <time>2021-03-07T13:16:41.280Z</time>
      </trkpt>
      <trkpt lat="48.60039" lon="2.13953">
        <ele>95</ele>
        <time>2021-03-07T13:16:42.279Z</time>
      </trkpt>
      <trkpt lat="48.6004" lon="2.13952">
        <ele>95</ele>
        <time>2021-03-07T13:16:43.280Z</time>
      </trkpt>
      <trkpt lat="48.60041" lon="2.13951">
        <ele>95</ele>
        <time>2021-03-07T13:16:44.279Z</time>
      </trkpt>
      <trkpt lat="48.60043" lon="2.1395">
        <ele>95</ele>
        <time>2021-03-07T13:16:45.280Z</time>
      </trkpt>
      <trkpt lat="48.60044" lon="2.1395">
        <ele>95</ele>
        <time>2021-03-07T13:16:46.280Z</time>
      </trkpt>
      <trkpt lat="48.60046" lon="2.13949">
        <ele>95</ele>
        <time>2021-03-07T13:16:47.280Z</time>
      </trkpt>
      <trkpt lat="48.60048" lon="2.13949">
        <ele>94</ele>
        <time>2021-03-07T13:16:48.280Z</time>
      </trkpt>
      <trkpt lat="48.60049" lon="2.13948">
        <ele>94</ele>
        <time>2021-03-07T13:16:49.280Z</time>
      </trkpt>
      <trkpt lat="48.6005" lon="2.13947">
        <ele>93</ele>
        <time>2021-03-07T13:16:50.280Z</time>
      </trkpt>
      <trkpt lat="48.60052" lon="2.13947">
        <ele>93</ele>
        <time>2021-03-07T13:16:51.280Z</time>
      </trkpt>
      <trkpt lat="48.60054" lon="2.13947">
        <ele>93</ele>
        <time>2021-03-07T13:16:52.279Z</time>
      </trkpt>
      <trkpt lat="48.60056" lon="2.13946">
        <ele>93</ele>
        <time>2021-03-07T13:16:53.280Z</time>
      </trkpt>
      <trkpt lat="48.60058" lon="2.13945">
        <ele>94</ele>
        <time>2021-03-07T13:16:54.280Z</time>
      </trkpt>
      <trkpt lat="48.6006" lon="2.13945">
        <ele>94</ele>
        <time>2021-03-07T13:16:55.280Z</time>
      </trkpt>
      <trkpt lat="48.60061" lon="2.13945">
        <ele>94</ele>
        <time>2021-03-07T13:16:56.280Z</time>
      </trkpt>
      <trkpt lat="48.60063" lon="2.13944">
        <ele>94</ele>
        <time>2021-03-07T13:16:57.280Z</time>
      </trkpt>
      <trkpt lat="48.60065" lon="2.13944">
        <ele>94</ele>
        <time>2021-03-07T13:16:58.280Z</time>
      </trkpt>
      <trkpt lat="48.60066" lon="2.13944">
        <ele>94</ele>
        <time>2021-03-07T13:16:59.280Z</time>
      </trkpt>
      <trkpt lat="48.60068" lon="2.13944">
        <ele>94</ele>
        <time>2021-03-07T13:17:00.280Z</time>
      </trkpt>
      <trkpt lat="48.60069" lon="2.13945">
        <ele>94</ele>
        <time>2021-03-07T13:17:01.280Z</time>
      </trkpt>
      <trkpt lat="48.60071" lon="2.13945">
        <ele>94</ele>
        <time>2021-03-07T13:17:02.279Z</time>
      </trkpt>
      <trkpt lat="48.60072" lon="2.13945">
        <ele>94</ele>
        <time>2021-03-07T13:17:03.280Z</time>
      </trkpt>
      <trkpt lat="48.60074" lon="2.13945">
        <ele>94</ele>
        <time>2021-03-07T13:17:04.279Z</time>
      </trkpt>
      <trkpt lat="48.60076" lon="2.13946">
        <ele>94</ele>
        <time>2021-03-07T13:17:05.280Z</time>
      </trkpt>
      <trkpt lat="48.60077" lon="2.13946">
        <ele>94</ele>
        <time>2021-03-07T13:17:06.280Z</time>
      </trkpt>
      <trkpt lat="48.60079" lon="2.13947">
        <ele>94</ele>
        <time>2021-03-07T13:17:07.280Z</time>
      </trkpt>
      <trkpt lat="48.60081" lon="2.13947">
        <ele>93</ele>
        <time>2021-03-07T13:17:08.280Z</time>
      </trkpt>
      <trkpt lat="48.60082" lon="2.13948">
        <ele>93</ele>
        <time>2021-03-07T13:17:09.279Z</time>
      </trkpt>
      <trkpt lat="48.60084" lon="2.13948">
        <ele>93</ele>
        <time>2021-03-07T13:17:10.280Z</time>
      </trkpt>
      <trkpt lat="48.60086" lon="2.13948">
        <ele>93</ele>
        <time>2021-03-07T13:17:11.280Z</time>
      </trkpt>
      <trkpt lat="48.60088" lon="2.13948">
        <ele>93</ele>
        <time>2021-03-07T13:17:12.280Z</time>
      </trkpt>
      <trkpt lat="48.6009" lon="2.13949">
        <ele>94</ele>
        <time>2021-03-07T13:17:13.280Z</time>
      </trkpt>
      <trkpt lat="48.60091" lon="2.13949">
        <ele>94</ele>
        <time>2021-03-07T13:17:14.279Z</time>
      </trkpt>
      <trkpt lat="48.60092" lon="2.1395">
        <ele>94</ele>
        <time>2021-03-07T13:17:15.280Z</time>
      </trkpt>
      <trkpt lat="48.60094" lon="2.1395">
        <ele>94</ele>
        <time>2021-03-07T13:17:16.279Z</time>
      </trkpt>
      <trkpt lat="48.60095" lon="2.13951">
        <ele>94</ele>
        <time>2021-03-07T13:17:17.280Z</time>
      </trkpt>
      <trkpt lat="48.60097" lon="2.13952">
        <ele>94</ele>
        <time>2021-03-07T13:17:18.279Z</time>
      </trkpt>
      <trkpt lat="48.60098" lon="2.13953">
        <ele>94</ele>
        <time>2021-03-07T13:17:19.280Z</time>
      </trkpt>
      <trkpt lat="48.60099" lon="2.13954">
        <ele>94</ele>
        <time>2021-03-07T13:17:20.280Z</time>
      </trkpt>
      <trkpt lat="48.60101" lon="2.13954">
        <ele>94</ele>
        <time>2021-03-07T13:17:21.280Z</time>
      </trkpt>
      <trkpt lat="48.60102" lon="2.13955">
        <ele>94</ele>
        <time>2021-03-07T13:17:22.280Z</time>
      </trkpt>
      <trkpt lat="48.60103" lon="2.13957">
        <ele>94</ele>
        <time>2021-03-07T13:17:23.280Z</time>
      </trkpt>
      <trkpt lat="48.60105" lon="2.13958">
        <ele>95</ele>
        <time>2021-03-07T13:17:24.279Z</time>
      </trkpt>
      <trkpt lat="48.60106" lon="2.13959">
        <ele>95</ele>
        <time>2021-03-07T13:17:25.280Z</time>
      </trkpt>
      <trkpt lat="48.60107" lon="2.1396">
        <ele>95</ele>
        <time>2021-03-07T13:17:26.280Z</time>
      </trkpt>
      <trkpt lat="48.60108" lon="2.13961">
        <ele>95</ele>
        <time>2021-03-07T13:17:27.280Z</time>
      </trkpt>
      <trkpt lat="48.60109" lon="2.13962">
        <ele>95</ele>
        <time>2021-03-07T13:17:28.280Z</time>
      </trkpt>
      <trkpt lat="48.6011" lon="2.13964">
        <ele>95</ele>
        <time>2021-03-07T13:17:29.280Z</time>
      </trkpt>
      <trkpt lat="48.60111" lon="2.13965">
        <ele>95</ele>
        <time>2021-03-07T13:17:30.280Z</time>
      </trkpt>
      <trkpt lat="48.60112" lon="2.13966">
        <ele>96</ele>
        <time>2021-03-07T13:17:31.280Z</time>
      </trkpt>
      <trkpt lat="48.60113" lon="2.13968">
        <ele>96</ele>
        <time>2021-03-07T13:17:32.280Z</time>
      </trkpt>
      <trkpt lat="48.60114" lon="2.1397">
        <ele>96</ele>
        <time>2021-03-07T13:17:33.280Z</time>
      </trkpt>
      <trkpt lat="48.60116" lon="2.13971">
        <ele>95</ele>
        <time>2021-03-07T13:17:34.279Z</time>
      </trkpt>
      <trkpt lat="48.60117" lon="2.13972">
        <ele>95</ele>
        <time>2021-03-07T13:17:35.279Z</time>
      </trkpt>
      <trkpt lat="48.60118" lon="2.13974">
        <ele>96</ele>
        <time>2021-03-07T13:17:36.280Z</time>
      </trkpt>
      <trkpt lat="48.6012" lon="2.13975">
        <ele>96</ele>
        <time>2021-03-07T13:17:37.280Z</time>
      </trkpt>
      <trkpt lat="48.60121" lon="2.13976">
        <ele>95</ele>
        <time>2021-03-07T13:17:38.280Z</time>
      </trkpt>
      <trkpt lat="48.60123" lon="2.13978">
        <ele>95</ele>
        <time>2021-03-07T13:17:39.280Z</time>
      </trkpt>
      <trkpt lat="48.60125" lon="2.13979">
        <ele>94</ele>
        <time>2021-03-07T13:17:40.280Z</time>
      </trkpt>
      <trkpt lat="48.60127" lon="2.1398">
        <ele>94</ele>
        <time>2021-03-07T13:17:41.280Z</time>
      </trkpt>
      <trkpt lat="48.60128" lon="2.13981">
        <ele>94</ele>
        <time>2021-03-07T13:17:42.280Z</time>
      </trkpt>
      <trkpt lat="48.60129" lon="2.13981">
        <ele>94</ele>
        <time>2021-03-07T13:17:43.280Z</time>
      </trkpt>
      <trkpt lat="48.60131" lon="2.13982">
        <ele>94</ele>
        <time>2021-03-07T13:17:44.280Z</time>
      </trkpt>
      <trkpt lat="48.60132" lon="2.13983">
        <ele>95</ele>
        <time>2021-03-07T13:17:45.280Z</time>
      </trkpt>
      <trkpt lat="48.60133" lon="2.13984">
        <ele>95</ele>
        <time>2021-03-07T13:17:46.280Z</time>
      </trkpt>
      <trkpt lat="48.60134" lon="2.13985">
        <ele>95</ele>
        <time>2021-03-07T13:17:47.280Z</time>
      </trkpt>
      <trkpt lat="48.60135" lon="2.13986">
        <ele>95</ele>
        <time>2021-03-07T13:17:48.279Z</time>
      </trkpt>
      <trkpt lat="48.60137" lon="2.13987">
        <ele>95</ele>
        <time>2021-03-07T13:17:49.280Z</time>
      </trkpt>
      <trkpt lat="48.60138" lon="2.13988">
        <ele>95</ele>
        <time>2021-03-07T13:17:50.280Z</time>
      </trkpt>
      <trkpt lat="48.6014" lon="2.13988">
        <ele>96</ele>
        <time>2021-03-07T13:17:51.280Z</time>
      </trkpt>
      <trkpt lat="48.60141" lon="2.13989">
        <ele>96</ele>
        <time>2021-03-07T13:17:52.279Z</time>
      </trkpt>
      <trkpt lat="48.60143" lon="2.1399">
        <ele>97</ele>
        <time>2021-03-07T13:17:53.280Z</time>
      </trkpt>
      <trkpt lat="48.60144" lon="2.13991">
        <ele>97</ele>
        <time>2021-03-07T13:17:54.280Z</time>
      </trkpt>
      <trkpt lat="48.60146" lon="2.13991">
        <ele>98</ele>
        <time>2021-03-07T13:17:55.280Z</time>
      </trkpt>
      <trkpt lat="48.60147" lon="2.13991">
        <ele>98</ele>
        <time>2021-03-07T13:17:56.280Z</time>
      </trkpt>
      <trkpt lat="48.60148" lon="2.13992">
        <ele>98</ele>
        <time>2021-03-07T13:17:57.279Z</time>
      </trkpt>
      <trkpt lat="48.6015" lon="2.13992">
        <ele>98</ele>
        <time>2021-03-07T13:17:58.280Z</time>
      </trkpt>
      <trkpt lat="48.60151" lon="2.13992">
        <ele>98</ele>
        <time>2021-03-07T13:17:59.280Z</time>
      </trkpt>
      <trkpt lat="48.60152" lon="2.13992">
        <ele>98</ele>
        <time>2021-03-07T13:18:00.280Z</time>
      </trkpt>
      <trkpt lat="48.60154" lon="2.13992">
        <ele>98</ele>
        <time>2021-03-07T13:18:01.280Z</time>
      </trkpt>
      <trkpt lat="48.60155" lon="2.13993">
        <ele>99</ele>
        <time>2021-03-07T13:18:02.280Z</time>
      </trkpt>
      <trkpt lat="48.60157" lon="2.13993">
        <ele>99</ele>
        <time>2021-03-07T13:18:03.279Z</time>
      </trkpt>
      <trkpt lat="48.60159" lon="2.13993">
        <ele>99</ele>
        <time>2021-03-07T13:18:04.279Z</time>
      </trkpt>
      <trkpt lat="48.6016" lon="2.13993">
        <ele>99</ele>
        <time>2021-03-07T13:18:05.279Z</time>
      </trkpt>
      <trkpt lat="48.60161" lon="2.13993">
        <ele>99</ele>
        <time>2021-03-07T13:18:06.279Z</time>
      </trkpt>
      <trkpt lat="48.60162" lon="2.13994">
        <ele>99</ele>
        <time>2021-03-07T13:18:07.280Z</time>
      </trkpt>
      <trkpt lat="48.60163" lon="2.13994">
        <ele>99</ele>
        <time>2021-03-07T13:18:08.280Z</time>
      </trkpt>
      <trkpt lat="48.60165" lon="2.13995">
        <ele>99</ele>
        <time>2021-03-07T13:18:09.280Z</time>
      </trkpt>
      <trkpt lat="48.60166" lon="2.13995">
        <ele>99</ele>
        <time>2021-03-07T13:18:10.279Z</time>
      </trkpt>
      <trkpt lat="48.60168" lon="2.13995">
        <ele>99</ele>
        <time>2021-03-07T13:18:11.280Z</time>
      </trkpt>
      <trkpt lat="48.6017" lon="2.13994">
        <ele>98</ele>
        <time>2021-03-07T13:18:12.280Z</time>
      </trkpt>
      <trkpt lat="48.60172" lon="2.13993">
        <ele>98</ele>
        <time>2021-03-07T13:18:13.280Z</time>
      </trkpt>
      <trkpt lat="48.60176" lon="2.13991">
        <ele>98</ele>
        <time>2021-03-07T13:18:14.279Z</time>
      </trkpt>
      <trkpt lat="48.60178" lon="2.1399">
        <ele>98</ele>
        <time>2021-03-07T13:18:15.279Z</time>
      </trkpt>
      <trkpt lat="48.6018" lon="2.13988">
        <ele>98</ele>
        <time>2021-03-07T13:18:16.280Z</time>
      </trkpt>
      <trkpt lat="48.60182" lon="2.13987">
        <ele>98</ele>
        <time>2021-03-07T13:18:17.280Z</time>
      </trkpt>
      <trkpt lat="48.60184" lon="2.13987">
        <ele>99</ele>
        <time>2021-03-07T13:18:18.280Z</time>
      </trkpt>
      <trkpt lat="48.60185" lon="2.13987">
        <ele>99</ele>
        <time>2021-03-07T13:18:19.280Z</time>
      </trkpt>
      <trkpt lat="48.60187" lon="2.13986">
        <ele>99</ele>
        <time>2021-03-07T13:18:20.279Z</time>
      </trkpt>
      <trkpt lat="48.60189" lon="2.13985">
        <ele>100</ele>
        <time>2021-03-07T13:18:21.279Z</time>
      </trkpt>
      <trkpt lat="48.60191" lon="2.13985">
        <ele>100</ele>
        <time>2021-03-07T13:18:22.280Z</time>
      </trkpt>
      <trkpt lat="48.60193" lon="2.13984">
        <ele>100</ele>
        <time>2021-03-07T13:18:23.280Z</time>
      </trkpt>
      <trkpt lat="48.60196" lon="2.13983">
        <ele>100</ele>
        <time>2021-03-07T13:18:24.280Z</time>
      </trkpt>
      <trkpt lat="48.60197" lon="2.13982">
        <ele>100</ele>
        <time>2021-03-07T13:18:25.279Z</time>
      </trkpt>
      <trkpt lat="48.60198" lon="2.13982">
        <ele>100</ele>
        <time>2021-03-07T13:18:26.279Z</time>
      </trkpt>
      <trkpt lat="48.60199" lon="2.13981">
        <ele>100</ele>
        <time>2021-03-07T13:18:27.280Z</time>
      </trkpt>
      <trkpt lat="48.60201" lon="2.13981">
        <ele>100</ele>
        <time>2021-03-07T13:18:28.280Z</time>
      </trkpt>
      <trkpt lat="48.60202" lon="2.13981">
        <ele>100</ele>
        <time>2021-03-07T13:18:29.280Z</time>
      </trkpt>
      <trkpt lat="48.60204" lon="2.13981">
        <ele>100</ele>
        <time>2021-03-07T13:18:30.279Z</time>
      </trkpt>
      <trkpt lat="48.60206" lon="2.13981">
        <ele>100</ele>
        <time>2021-03-07T13:18:31.280Z</time>
      </trkpt>
      <trkpt lat="48.60207" lon="2.1398">
        <ele>99</ele>
        <time>2021-03-07T13:18:32.280Z</time>
      </trkpt>
      <trkpt lat="48.60209" lon="2.1398">
        <ele>99</ele>
        <time>2021-03-07T13:18:33.279Z</time>
      </trkpt>
      <trkpt lat="48.60211" lon="2.1398">
        <ele>99</ele>
        <time>2021-03-07T13:18:34.279Z</time>
      </trkpt>
      <trkpt lat="48.60212" lon="2.13979">
        <ele>99</ele>
        <time>2021-03-07T13:18:35.280Z</time>
      </trkpt>
      <trkpt lat="48.60214" lon="2.13979">
        <ele>99</ele>
        <time>2021-03-07T13:18:36.280Z</time>
      </trkpt>
      <trkpt lat="48.60215" lon="2.1398">
        <ele>100</ele>
        <time>2021-03-07T13:18:37.280Z</time>
      </trkpt>
      <trkpt lat="48.60217" lon="2.1398">
        <ele>100</ele>
        <time>2021-03-07T13:18:38.280Z</time>
      </trkpt>
      <trkpt lat="48.60219" lon="2.1398">
        <ele>100</ele>
        <time>2021-03-07T13:18:39.279Z</time>
      </trkpt>
      <trkpt lat="48.60221" lon="2.1398">
        <ele>100</ele>
        <time>2021-03-07T13:18:40.279Z</time>
      </trkpt>
      <trkpt lat="48.60222" lon="2.1398">
        <ele>100</ele>
        <time>2021-03-07T13:18:41.280Z</time>
      </trkpt>
      <trkpt lat="48.60224" lon="2.1398">
        <ele>100</ele>
        <time>2021-03-07T13:18:42.280Z</time>
      </trkpt>
      <trkpt lat="48.60225" lon="2.1398">
        <ele>100</ele>
        <time>2021-03-07T13:18:43.280Z</time>
      </trkpt>
      <trkpt lat="48.60227" lon="2.1398">
        <ele>100</ele>
        <time>2021-03-07T13:18:44.279Z</time>
      </trkpt>
      <trkpt lat="48.60229" lon="2.1398">
        <ele>99</ele>
        <time>2021-03-07T13:18:45.280Z</time>
      </trkpt>
      <trkpt lat="48.6023" lon="2.1398">
        <ele>99</ele>
        <time>2021-03-07T13:18:46.279Z</time>
      </trkpt>
      <trkpt lat="48.60232" lon="2.1398">
        <ele>98</ele>
        <time>2021-03-07T13:18:47.279Z</time>
      </trkpt>
      <trkpt lat="48.60233" lon="2.1398">
        <ele>98</ele>
        <time>2021-03-07T13:18:48.280Z</time>
      </trkpt>
      <trkpt lat="48.60234" lon="2.13979">
        <ele>97</ele>
        <time>2021-03-07T13:18:49.280Z</time>
      </trkpt>
      <trkpt lat="48.60234" lon="2.13978">
        <ele>97</ele>
        <time>2021-03-07T13:18:50.280Z</time>
      </trkpt>
      <trkpt lat="48.60235" lon="2.13978">
        <ele>97</ele>
        <time>2021-03-07T13:18:51.280Z</time>
      </trkpt>
      <trkpt lat="48.60234" lon="2.13978">
        <ele>97</ele>
        <time>2021-03-07T13:18:52.280Z</time>
      </trkpt>
      <trkpt lat="48.60235" lon="2.13977">
        <ele>97</ele>
        <time>2021-03-07T13:18:53.279Z</time>
      </trkpt>
      <trkpt lat="48.60235" lon="2.13977">
        <ele>97</ele>
        <time>2021-03-07T13:18:54.280Z</time>
      </trkpt>
      <trkpt lat="48.60235" lon="2.13977">
        <ele>97</ele>
        <time>2021-03-07T13:18:55.280Z</time>
      </trkpt>
      <trkpt lat="48.60235" lon="2.13977">
        <ele>97</ele>
        <time>2021-03-07T13:18:56.280Z</time>
      </trkpt>
      <trkpt lat="48.60235" lon="2.13976">
        <ele>98</ele>
        <time>2021-03-07T13:18:57.280Z</time>
      </trkpt>
      <trkpt lat="48.60236" lon="2.13976">
        <ele>98</ele>
        <time>2021-03-07T13:18:58.280Z</time>
      </trkpt>
      <trkpt lat="48.60237" lon="2.13975">
        <ele>98</ele>
        <time>2021-03-07T13:18:59.280Z</time>
      </trkpt>
      <trkpt lat="48.60237" lon="2.13975">
        <ele>98</ele>
        <time>2021-03-07T13:19:00.280Z</time>
      </trkpt>
      <trkpt lat="48.60237" lon="2.13975">
        <ele>99</ele>
        <time>2021-03-07T13:19:01.280Z</time>
      </trkpt>
      <trkpt lat="48.60237" lon="2.13975">
        <ele>99</ele>
        <time>2021-03-07T13:19:02.279Z</time>
      </trkpt>
      <trkpt lat="48.60237" lon="2.13975">
        <ele>98</ele>
        <time>2021-03-07T13:19:03.280Z</time>
      </trkpt>
      <trkpt lat="48.60238" lon="2.13975">
        <ele>98</ele>
        <time>2021-03-07T13:19:04.280Z</time>
      </trkpt>
      <trkpt lat="48.60238" lon="2.13975">
        <ele>98</ele>
        <time>2021-03-07T13:19:05.279Z</time>
      </trkpt>
      <trkpt lat="48.60238" lon="2.13974">
        <ele>99</ele>
        <time>2021-03-07T13:19:06.280Z</time>
      </trkpt>
      <trkpt lat="48.60238" lon="2.13974">
        <ele>99</ele>
        <time>2021-03-07T13:19:07.280Z</time>
      </trkpt>
      <trkpt lat="48.60238" lon="2.13974">
        <ele>99</ele>
        <time>2021-03-07T13:19:08.280Z</time>
      </trkpt>
      <trkpt lat="48.60238" lon="2.13975">
        <ele>98</ele>
        <time>2021-03-07T13:19:09.280Z</time>
      </trkpt>
      <trkpt lat="48.60238" lon="2.13975">
        <ele>98</ele>
        <time>2021-03-07T13:19:10.280Z</time>
      </trkpt>
      <trkpt lat="48.60239" lon="2.13975">
        <ele>98</ele>
        <time>2021-03-07T13:19:11.280Z</time>
      </trkpt>
      <trkpt lat="48.60239" lon="2.13975">
        <ele>98</ele>
        <time>2021-03-07T13:19:12.280Z</time>
      </trkpt>
      <trkpt lat="48.60239" lon="2.13976">
        <ele>98</ele>
        <time>2021-03-07T13:19:13.280Z</time>
      </trkpt>
      <trkpt lat="48.60239" lon="2.13976">
        <ele>97</ele>
        <time>2021-03-07T13:19:14.279Z</time>
      </trkpt>
      <trkpt lat="48.60239" lon="2.13976">
        <ele>97</ele>
        <time>2021-03-07T13:19:15.280Z</time>
      </trkpt>
      <trkpt lat="48.60239" lon="2.13976">
        <ele>97</ele>
        <time>2021-03-07T13:19:16.280Z</time>
      </trkpt>
      <trkpt lat="48.60239" lon="2.13976">
        <ele>97</ele>
        <time>2021-03-07T13:19:17.280Z</time>
      </trkpt>
      <trkpt lat="48.60239" lon="2.13976">
        <ele>97</ele>
        <time>2021-03-07T13:19:18.280Z</time>
      </trkpt>
      <trkpt lat="48.60239" lon="2.13976">
        <ele>97</ele>
        <time>2021-03-07T13:19:19.280Z</time>
      </trkpt>
      <trkpt lat="48.6024" lon="2.13976">
        <ele>96</ele>
        <time>2021-03-07T13:19:20.280Z</time>
      </trkpt>
      <trkpt lat="48.60241" lon="2.13976">
        <ele>96</ele>
        <time>2021-03-07T13:19:21.280Z</time>
      </trkpt>
      <trkpt lat="48.60243" lon="2.13976">
        <ele>96</ele>
        <time>2021-03-07T13:19:22.279Z</time>
      </trkpt>
      <trkpt lat="48.60245" lon="2.13976">
        <ele>96</ele>
        <time>2021-03-07T13:19:23.279Z</time>
      </trkpt>
      <trkpt lat="48.60247" lon="2.13976">
        <ele>97</ele>
        <time>2021-03-07T13:19:24.280Z</time>
      </trkpt>
      <trkpt lat="48.60249" lon="2.13976">
        <ele>96</ele>
        <time>2021-03-07T13:19:25.280Z</time>
      </trkpt>
      <trkpt lat="48.60251" lon="2.13976">
        <ele>96</ele>
        <time>2021-03-07T13:19:26.280Z</time>
      </trkpt>
      <trkpt lat="48.60253" lon="2.13976">
        <ele>96</ele>
        <time>2021-03-07T13:19:27.280Z</time>
      </trkpt>
      <trkpt lat="48.60255" lon="2.13976">
        <ele>95</ele>
        <time>2021-03-07T13:19:28.279Z</time>
      </trkpt>
      <trkpt lat="48.60257" lon="2.13976">
        <ele>96</ele>
        <time>2021-03-07T13:19:29.280Z</time>
      </trkpt>
      <trkpt lat="48.60258" lon="2.13976">
        <ele>96</ele>
        <time>2021-03-07T13:19:30.280Z</time>
      </trkpt>
      <trkpt lat="48.6026" lon="2.13976">
        <ele>96</ele>
        <time>2021-03-07T13:19:31.280Z</time>
      </trkpt>
      <trkpt lat="48.60261" lon="2.13976">
        <ele>96</ele>
        <time>2021-03-07T13:19:32.280Z</time>
      </trkpt>
      <trkpt lat="48.60263" lon="2.13975">
        <ele>96</ele>
        <time>2021-03-07T13:19:33.280Z</time>
      </trkpt>
      <trkpt lat="48.60264" lon="2.13975">
        <ele>96</ele>
        <time>2021-03-07T13:19:34.280Z</time>
      </trkpt>
      <trkpt lat="48.60266" lon="2.13975">
        <ele>96</ele>
        <time>2021-03-07T13:19:35.280Z</time>
      </trkpt>
      <trkpt lat="48.60267" lon="2.13975">
        <ele>96</ele>
        <time>2021-03-07T13:19:36.280Z</time>
      </trkpt>
      <trkpt lat="48.60268" lon="2.13975">
        <ele>96</ele>
        <time>2021-03-07T13:19:37.280Z</time>
      </trkpt>
      <trkpt lat="48.60269" lon="2.13975">
        <ele>96</ele>
        <time>2021-03-07T13:19:38.280Z</time>
      </trkpt>
      <trkpt lat="48.60271" lon="2.13976">
        <ele>96</ele>
        <time>2021-03-07T13:19:39.280Z</time>
      </trkpt>
      <trkpt lat="48.60272" lon="2.13977">
        <ele>96</ele>
        <time>2021-03-07T13:19:40.279Z</time>
      </trkpt>
      <trkpt lat="48.60274" lon="2.13977">
        <ele>96</ele>
        <time>2021-03-07T13:19:41.279Z</time>
      </trkpt>
      <trkpt lat="48.60275" lon="2.13978">
        <ele>97</ele>
        <time>2021-03-07T13:19:42.280Z</time>
      </trkpt>
      <trkpt lat="48.60276" lon="2.1398">
        <ele>97</ele>
        <time>2021-03-07T13:19:43.279Z</time>
      </trkpt>
      <trkpt lat="48.60278" lon="2.1398">
        <ele>97</ele>
        <time>2021-03-07T13:19:44.279Z</time>
      </trkpt>
      <trkpt lat="48.6028" lon="2.1398">
        <ele>97</ele>
        <time>2021-03-07T13:19:45.280Z</time>
      </trkpt>
      <trkpt lat="48.60281" lon="2.13981">
        <ele>97</ele>
        <time>2021-03-07T13:19:46.280Z</time>
      </trkpt>
      <trkpt lat="48.60283" lon="2.1398">
        <ele>98</ele>
        <time>2021-03-07T13:19:47.279Z</time>
      </trkpt>
      <trkpt lat="48.60284" lon="2.1398">
        <ele>98</ele>
        <time>2021-03-07T13:19:48.280Z</time>
      </trkpt>
      <trkpt lat="48.60287" lon="2.13979">
        <ele>98</ele>
        <time>2021-03-07T13:19:49.279Z</time>
      </trkpt>
      <trkpt lat="48.60289" lon="2.13979">
        <ele>99</ele>
        <time>2021-03-07T13:19:50.280Z</time>
      </trkpt>
      <trkpt lat="48.6029" lon="2.13979">
        <ele>99</ele>
        <time>2021-03-07T13:19:51.279Z</time>
      </trkpt>
      <trkpt lat="48.60291" lon="2.13978">
        <ele>99</ele>
        <time>2021-03-07T13:19:52.279Z</time>
      </trkpt>
      <trkpt lat="48.60292" lon="2.13978">
        <ele>99</ele>
        <time>2021-03-07T13:19:53.279Z</time>
      </trkpt>
      <trkpt lat="48.60294" lon="2.13978">
        <ele>99</ele>
        <time>2021-03-07T13:19:54.279Z</time>
      </trkpt>
      <trkpt lat="48.60295" lon="2.13978">
        <ele>99</ele>
        <time>2021-03-07T13:19:55.280Z</time>
      </trkpt>
      <trkpt lat="48.60297" lon="2.13977">
        <ele>99</ele>
        <time>2021-03-07T13:19:56.279Z</time>
      </trkpt>
      <trkpt lat="48.60298" lon="2.13977">
        <ele>99</ele>
        <time>2021-03-07T13:19:57.280Z</time>
      </trkpt>
      <trkpt lat="48.603" lon="2.13976">
        <ele>100</ele>
        <time>2021-03-07T13:19:58.279Z</time>
      </trkpt>
      <trkpt lat="48.60301" lon="2.13975">
        <ele>100</ele>
        <time>2021-03-07T13:19:59.279Z</time>
      </trkpt>
      <trkpt lat="48.60303" lon="2.13975">
        <ele>100</ele>
        <time>2021-03-07T13:20:00.279Z</time>
      </trkpt>
      <trkpt lat="48.60304" lon="2.13975">
        <ele>99</ele>
        <time>2021-03-07T13:20:01.279Z</time>
      </trkpt>
      <trkpt lat="48.60306" lon="2.13975">
        <ele>98</ele>
        <time>2021-03-07T13:20:02.280Z</time>
      </trkpt>
      <trkpt lat="48.60307" lon="2.13974">
        <ele>98</ele>
        <time>2021-03-07T13:20:03.279Z</time>
      </trkpt>
      <trkpt lat="48.60309" lon="2.13974">
        <ele>98</ele>
        <time>2021-03-07T13:20:04.279Z</time>
      </trkpt>
      <trkpt lat="48.6031" lon="2.13973">
        <ele>98</ele>
        <time>2021-03-07T13:20:05.280Z</time>
      </trkpt>
      <trkpt lat="48.60312" lon="2.13973">
        <ele>98</ele>
        <time>2021-03-07T13:20:06.280Z</time>
      </trkpt>
      <trkpt lat="48.60314" lon="2.13972">
        <ele>98</ele>
        <time>2021-03-07T13:20:07.279Z</time>
      </trkpt>
      <trkpt lat="48.60315" lon="2.13972">
        <ele>97</ele>
        <time>2021-03-07T13:20:08.280Z</time>
      </trkpt>
      <trkpt lat="48.60317" lon="2.13972">
        <ele>97</ele>
        <time>2021-03-07T13:20:09.279Z</time>
      </trkpt>
      <trkpt lat="48.60318" lon="2.13972">
        <ele>97</ele>
        <time>2021-03-07T13:20:10.280Z</time>
      </trkpt>
      <trkpt lat="48.6032" lon="2.13972">
        <ele>97</ele>
        <time>2021-03-07T13:20:11.280Z</time>
      </trkpt>
      <trkpt lat="48.60321" lon="2.13971">
        <ele>97</ele>
        <time>2021-03-07T13:20:12.279Z</time>
      </trkpt>
      <trkpt lat="48.60323" lon="2.13971">
        <ele>98</ele>
        <time>2021-03-07T13:20:13.280Z</time>
      </trkpt>
      <trkpt lat="48.60324" lon="2.1397">
        <ele>98</ele>
        <time>2021-03-07T13:20:14.280Z</time>
      </trkpt>
      <trkpt lat="48.60326" lon="2.1397">
        <ele>98</ele>
        <time>2021-03-07T13:20:15.280Z</time>
      </trkpt>
      <trkpt lat="48.60328" lon="2.1397">
        <ele>98</ele>
        <time>2021-03-07T13:20:16.279Z</time>
      </trkpt>
      <trkpt lat="48.60329" lon="2.1397">
        <ele>98</ele>
        <time>2021-03-07T13:20:17.280Z</time>
      </trkpt>
      <trkpt lat="48.60331" lon="2.1397">
        <ele>98</ele>
        <time>2021-03-07T13:20:18.280Z</time>
      </trkpt>
      <trkpt lat="48.60333" lon="2.1397">
        <ele>98</ele>
        <time>2021-03-07T13:20:19.280Z</time>
      </trkpt>
      <trkpt lat="48.60334" lon="2.13969">
        <ele>98</ele>
        <time>2021-03-07T13:20:20.280Z</time>
      </trkpt>
      <trkpt lat="48.60336" lon="2.13969">
        <ele>98</ele>
        <time>2021-03-07T13:20:21.279Z</time>
      </trkpt>
      <trkpt lat="48.60338" lon="2.13968">
        <ele>98</ele>
        <time>2021-03-07T13:20:22.280Z</time>
      </trkpt>
      <trkpt lat="48.6034" lon="2.13968">
        <ele>98</ele>
        <time>2021-03-07T13:20:23.280Z</time>
      </trkpt>
      <trkpt lat="48.60341" lon="2.13967">
        <ele>97</ele>
        <time>2021-03-07T13:20:24.279Z</time>
      </trkpt>
      <trkpt lat="48.60343" lon="2.13967">
        <ele>97</ele>
        <time>2021-03-07T13:20:25.280Z</time>
      </trkpt>
      <trkpt lat="48.60344" lon="2.13967">
        <ele>97</ele>
        <time>2021-03-07T13:20:26.280Z</time>
      </trkpt>
      <trkpt lat="48.60346" lon="2.13966">
        <ele>97</ele>
        <time>2021-03-07T13:20:27.280Z</time>
      </trkpt>
      <trkpt lat="48.60347" lon="2.13966">
        <ele>97</ele>
        <time>2021-03-07T13:20:28.280Z</time>
      </trkpt>
      <trkpt lat="48.60349" lon="2.13965">
        <ele>97</ele>
        <time>2021-03-07T13:20:29.279Z</time>
      </trkpt>
      <trkpt lat="48.6035" lon="2.13965">
        <ele>96</ele>
        <time>2021-03-07T13:20:30.280Z</time>
      </trkpt>
      <trkpt lat="48.60352" lon="2.13965">
        <ele>97</ele>
        <time>2021-03-07T13:20:31.280Z</time>
      </trkpt>
      <trkpt lat="48.60354" lon="2.13965">
        <ele>97</ele>
        <time>2021-03-07T13:20:32.280Z</time>
      </trkpt>
      <trkpt lat="48.60355" lon="2.13964">
        <ele>97</ele>
        <time>2021-03-07T13:20:33.280Z</time>
      </trkpt>
      <trkpt lat="48.60357" lon="2.13964">
        <ele>98</ele>
        <time>2021-03-07T13:20:34.280Z</time>
      </trkpt>
      <trkpt lat="48.60358" lon="2.13963">
        <ele>98</ele>
        <time>2021-03-07T13:20:35.280Z</time>
      </trkpt>
      <trkpt lat="48.6036" lon="2.13963">
        <ele>98</ele>
        <time>2021-03-07T13:20:36.280Z</time>
      </trkpt>
      <trkpt lat="48.60362" lon="2.13962">
        <ele>98</ele>
        <time>2021-03-07T13:20:37.280Z</time>
      </trkpt>
      <trkpt lat="48.60363" lon="2.13962">
        <ele>98</ele>
        <time>2021-03-07T13:20:38.279Z</time>
      </trkpt>
      <trkpt lat="48.60364" lon="2.13962">
        <ele>98</ele>
        <time>2021-03-07T13:20:39.279Z</time>
      </trkpt>
      <trkpt lat="48.60366" lon="2.13961">
        <ele>98</ele>
        <time>2021-03-07T13:20:40.279Z</time>
      </trkpt>
      <trkpt lat="48.60367" lon="2.13961">
        <ele>98</ele>
        <time>2021-03-07T13:20:41.280Z</time>
      </trkpt>
      <trkpt lat="48.60369" lon="2.1396">
        <ele>98</ele>
        <time>2021-03-07T13:20:42.280Z</time>
      </trkpt>
      <trkpt lat="48.6037" lon="2.1396">
        <ele>98</ele>
        <time>2021-03-07T13:20:43.280Z</time>
      </trkpt>
      <trkpt lat="48.60372" lon="2.13959">
        <ele>98</ele>
        <time>2021-03-07T13:20:44.279Z</time>
      </trkpt>
      <trkpt lat="48.60373" lon="2.13959">
        <ele>98</ele>
        <time>2021-03-07T13:20:45.280Z</time>
      </trkpt>
      <trkpt lat="48.60375" lon="2.13959">
        <ele>98</ele>
        <time>2021-03-07T13:20:46.280Z</time>
      </trkpt>
      <trkpt lat="48.60376" lon="2.13959">
        <ele>98</ele>
        <time>2021-03-07T13:20:47.279Z</time>
      </trkpt>
      <trkpt lat="48.60378" lon="2.13959">
        <ele>98</ele>
        <time>2021-03-07T13:20:48.279Z</time>
      </trkpt>
      <trkpt lat="48.60379" lon="2.13959">
        <ele>98</ele>
        <time>2021-03-07T13:20:49.279Z</time>
      </trkpt>
      <trkpt lat="48.60381" lon="2.13959">
        <ele>98</ele>
        <time>2021-03-07T13:20:50.280Z</time>
      </trkpt>
      <trkpt lat="48.60382" lon="2.13958">
        <ele>97</ele>
        <time>2021-03-07T13:20:51.279Z</time>
      </trkpt>
      <trkpt lat="48.60384" lon="2.13958">
        <ele>97</ele>
        <time>2021-03-07T13:20:52.280Z</time>
      </trkpt>
      <trkpt lat="48.60385" lon="2.13958">
        <ele>96</ele>
        <time>2021-03-07T13:20:53.279Z</time>
      </trkpt>
      <trkpt lat="48.60387" lon="2.13958">
        <ele>97</ele>
        <time>2021-03-07T13:20:54.280Z</time>
      </trkpt>
      <trkpt lat="48.60388" lon="2.13958">
        <ele>97</ele>
        <time>2021-03-07T13:20:55.280Z</time>
      </trkpt>
      <trkpt lat="48.60389" lon="2.13957">
        <ele>97</ele>
        <time>2021-03-07T13:20:56.280Z</time>
      </trkpt>
      <trkpt lat="48.60391" lon="2.13957">
        <ele>97</ele>
        <time>2021-03-07T13:20:57.280Z</time>
      </trkpt>
      <trkpt lat="48.60392" lon="2.13957">
        <ele>97</ele>
        <time>2021-03-07T13:20:58.279Z</time>
      </trkpt>
      <trkpt lat="48.60393" lon="2.13957">
        <ele>97</ele>
        <time>2021-03-07T13:20:59.280Z</time>
      </trkpt>
      <trkpt lat="48.60395" lon="2.13958">
        <ele>96</ele>
        <time>2021-03-07T13:21:00.280Z</time>
      </trkpt>
      <trkpt lat="48.60396" lon="2.13958">
        <ele>95</ele>
        <time>2021-03-07T13:21:01.280Z</time>
      </trkpt>
      <trkpt lat="48.60397" lon="2.13958">
        <ele>95</ele>
        <time>2021-03-07T13:21:02.280Z</time>
      </trkpt>
      <trkpt lat="48.60399" lon="2.13958">
        <ele>95</ele>
        <time>2021-03-07T13:21:03.279Z</time>
      </trkpt>
      <trkpt lat="48.604" lon="2.13958">
        <ele>95</ele>
        <time>2021-03-07T13:21:04.280Z</time>
      </trkpt>
      <trkpt lat="48.60402" lon="2.13959">
        <ele>95</ele>
        <time>2021-03-07T13:21:05.280Z</time>
      </trkpt>
      <trkpt lat="48.60403" lon="2.13959">
        <ele>95</ele>
        <time>2021-03-07T13:21:06.280Z</time>
      </trkpt>
      <trkpt lat="48.60404" lon="2.13959">
        <ele>95</ele>
        <time>2021-03-07T13:21:07.280Z</time>
      </trkpt>
      <trkpt lat="48.60406" lon="2.1396">
        <ele>95</ele>
        <time>2021-03-07T13:21:08.280Z</time>
      </trkpt>
      <trkpt lat="48.60407" lon="2.13961">
        <ele>94</ele>
        <time>2021-03-07T13:21:09.280Z</time>
      </trkpt>
      <trkpt lat="48.60409" lon="2.13961">
        <ele>94</ele>
        <time>2021-03-07T13:21:10.280Z</time>
      </trkpt>
      <trkpt lat="48.6041" lon="2.13962">
        <ele>94</ele>
        <time>2021-03-07T13:21:11.279Z</time>
      </trkpt>
      <trkpt lat="48.60412" lon="2.13963">
        <ele>93</ele>
        <time>2021-03-07T13:21:12.280Z</time>
      </trkpt>
      <trkpt lat="48.60413" lon="2.13964">
        <ele>93</ele>
        <time>2021-03-07T13:21:13.280Z</time>
      </trkpt>
      <trkpt lat="48.60414" lon="2.13964">
        <ele>93</ele>
        <time>2021-03-07T13:21:14.280Z</time>
      </trkpt>
      <trkpt lat="48.60416" lon="2.13964">
        <ele>93</ele>
        <time>2021-03-07T13:21:15.280Z</time>
      </trkpt>
      <trkpt lat="48.60417" lon="2.13963">
        <ele>92</ele>
        <time>2021-03-07T13:21:16.280Z</time>
      </trkpt>
      <trkpt lat="48.60419" lon="2.13962">
        <ele>92</ele>
        <time>2021-03-07T13:21:17.280Z</time>
      </trkpt>
      <trkpt lat="48.6042" lon="2.13962">
        <ele>92</ele>
        <time>2021-03-07T13:21:18.280Z</time>
      </trkpt>
      <trkpt lat="48.60421" lon="2.1396">
        <ele>92</ele>
        <time>2021-03-07T13:21:19.279Z</time>
      </trkpt>
      <trkpt lat="48.60422" lon="2.13959">
        <ele>92</ele>
        <time>2021-03-07T13:21:20.280Z</time>
      </trkpt>
      <trkpt lat="48.60423" lon="2.13957">
        <ele>93</ele>
        <time>2021-03-07T13:21:21.280Z</time>
      </trkpt>
      <trkpt lat="48.60423" lon="2.13955">
        <ele>93</ele>
        <time>2021-03-07T13:21:22.280Z</time>
      </trkpt>
      <trkpt lat="48.60423" lon="2.13953">
        <ele>94</ele>
        <time>2021-03-07T13:21:23.280Z</time>
      </trkpt>
      <trkpt lat="48.60424" lon="2.13951">
        <ele>94</ele>
        <time>2021-03-07T13:21:24.279Z</time>
      </trkpt>
      <trkpt lat="48.60424" lon="2.13949">
        <ele>94</ele>
        <time>2021-03-07T13:21:25.280Z</time>
      </trkpt>
      <trkpt lat="48.60423" lon="2.13946">
        <ele>94</ele>
        <time>2021-03-07T13:21:26.280Z</time>
      </trkpt>
      <trkpt lat="48.60422" lon="2.13944">
        <ele>93</ele>
        <time>2021-03-07T13:21:27.280Z</time>
      </trkpt>
      <trkpt lat="48.60422" lon="2.13941">
        <ele>93</ele>
        <time>2021-03-07T13:21:28.280Z</time>
      </trkpt>
      <trkpt lat="48.60421" lon="2.1394">
        <ele>93</ele>
        <time>2021-03-07T13:21:29.280Z</time>
      </trkpt>
      <trkpt lat="48.60419" lon="2.13939">
        <ele>93</ele>
        <time>2021-03-07T13:21:30.279Z</time>
      </trkpt>
      <trkpt lat="48.60417" lon="2.13938">
        <ele>93</ele>
        <time>2021-03-07T13:21:31.280Z</time>
      </trkpt>
      <trkpt lat="48.60416" lon="2.13937">
        <ele>93</ele>
        <time>2021-03-07T13:21:32.280Z</time>
      </trkpt>
      <trkpt lat="48.60414" lon="2.13936">
        <ele>93</ele>
        <time>2021-03-07T13:21:33.280Z</time>
      </trkpt>
      <trkpt lat="48.60413" lon="2.13936">
        <ele>93</ele>
        <time>2021-03-07T13:21:34.280Z</time>
      </trkpt>
      <trkpt lat="48.60411" lon="2.13934">
        <ele>92</ele>
        <time>2021-03-07T13:21:35.280Z</time>
      </trkpt>
      <trkpt lat="48.6041" lon="2.13933">
        <ele>92</ele>
        <time>2021-03-07T13:21:36.279Z</time>
      </trkpt>
      <trkpt lat="48.60408" lon="2.13931">
        <ele>92</ele>
        <time>2021-03-07T13:21:37.280Z</time>
      </trkpt>
      <trkpt lat="48.60407" lon="2.1393">
        <ele>93</ele>
        <time>2021-03-07T13:21:38.280Z</time>
      </trkpt>
      <trkpt lat="48.60406" lon="2.13928">
        <ele>93</ele>
        <time>2021-03-07T13:21:39.280Z</time>
      </trkpt>
      <trkpt lat="48.60405" lon="2.13926">
        <ele>93</ele>
        <time>2021-03-07T13:21:40.280Z</time>
      </trkpt>
      <trkpt lat="48.60404" lon="2.13924">
        <ele>93</ele>
        <time>2021-03-07T13:21:41.280Z</time>
      </trkpt>
      <trkpt lat="48.60404" lon="2.13922">
        <ele>94</ele>
        <time>2021-03-07T13:21:42.280Z</time>
      </trkpt>
      <trkpt lat="48.60403" lon="2.1392">
        <ele>94</ele>
        <time>2021-03-07T13:21:43.280Z</time>
      </trkpt>
      <trkpt lat="48.60403" lon="2.13918">
        <ele>94</ele>
        <time>2021-03-07T13:21:44.280Z</time>
      </trkpt>
      <trkpt lat="48.60402" lon="2.13916">
        <ele>94</ele>
        <time>2021-03-07T13:21:45.279Z</time>
      </trkpt>
      <trkpt lat="48.60402" lon="2.13914">
        <ele>94</ele>
        <time>2021-03-07T13:21:46.280Z</time>
      </trkpt>
      <trkpt lat="48.60401" lon="2.13912">
        <ele>95</ele>
        <time>2021-03-07T13:21:47.279Z</time>
      </trkpt>
      <trkpt lat="48.604" lon="2.1391">
        <ele>95</ele>
        <time>2021-03-07T13:21:48.280Z</time>
      </trkpt>
      <trkpt lat="48.604" lon="2.13908">
        <ele>95</ele>
        <time>2021-03-07T13:21:49.280Z</time>
      </trkpt>
      <trkpt lat="48.60399" lon="2.13905">
        <ele>96</ele>
        <time>2021-03-07T13:21:50.280Z</time>
      </trkpt>
      <trkpt lat="48.60399" lon="2.13903">
        <ele>97</ele>
        <time>2021-03-07T13:21:51.280Z</time>
      </trkpt>
      <trkpt lat="48.60399" lon="2.13901">
        <ele>97</ele>
        <time>2021-03-07T13:21:52.280Z</time>
      </trkpt>
      <trkpt lat="48.60398" lon="2.13899">
        <ele>97</ele>
        <time>2021-03-07T13:21:53.279Z</time>
      </trkpt>
      <trkpt lat="48.60398" lon="2.13897">
        <ele>97</ele>
        <time>2021-03-07T13:21:54.280Z</time>
      </trkpt>
      <trkpt lat="48.60397" lon="2.13895">
        <ele>98</ele>
        <time>2021-03-07T13:21:55.280Z</time>
      </trkpt>
      <trkpt lat="48.60397" lon="2.13893">
        <ele>99</ele>
        <time>2021-03-07T13:21:56.280Z</time>
      </trkpt>
      <trkpt lat="48.60396" lon="2.1389">
        <ele>99</ele>
        <time>2021-03-07T13:21:57.279Z</time>
      </trkpt>
      <trkpt lat="48.60396" lon="2.13888">
        <ele>100</ele>
        <time>2021-03-07T13:21:58.280Z</time>
      </trkpt>
      <trkpt lat="48.60395" lon="2.13886">
        <ele>100</ele>
        <time>2021-03-07T13:21:59.279Z</time>
      </trkpt>
      <trkpt lat="48.60395" lon="2.13883">
        <ele>101</ele>
        <time>2021-03-07T13:22:00.280Z</time>
      </trkpt>
      <trkpt lat="48.60395" lon="2.13881">
        <ele>101</ele>
        <time>2021-03-07T13:22:01.280Z</time>
      </trkpt>
      <trkpt lat="48.60394" lon="2.13879">
        <ele>101</ele>
        <time>2021-03-07T13:22:02.279Z</time>
      </trkpt>
      <trkpt lat="48.60394" lon="2.13877">
        <ele>101</ele>
        <time>2021-03-07T13:22:03.280Z</time>
      </trkpt>
      <trkpt lat="48.60394" lon="2.13875">
        <ele>102</ele>
        <time>2021-03-07T13:22:04.280Z</time>
      </trkpt>
      <trkpt lat="48.60394" lon="2.13873">
        <ele>102</ele>
        <time>2021-03-07T13:22:05.280Z</time>
      </trkpt>
      <trkpt lat="48.60394" lon="2.13871">
        <ele>102</ele>
        <time>2021-03-07T13:22:06.280Z</time>
      </trkpt>
      <trkpt lat="48.60393" lon="2.13869">
        <ele>102</ele>
        <time>2021-03-07T13:22:07.279Z</time>
      </trkpt>
      <trkpt lat="48.60393" lon="2.13867">
        <ele>102</ele>
        <time>2021-03-07T13:22:08.279Z</time>
      </trkpt>
      <trkpt lat="48.60393" lon="2.13864">
        <ele>101</ele>
        <time>2021-03-07T13:22:09.280Z</time>
      </trkpt>
      <trkpt lat="48.60393" lon="2.13862">
        <ele>102</ele>
        <time>2021-03-07T13:22:10.280Z</time>
      </trkpt>
      <trkpt lat="48.60392" lon="2.1386">
        <ele>102</ele>
        <time>2021-03-07T13:22:11.280Z</time>
      </trkpt>
      <trkpt lat="48.60392" lon="2.13858">
        <ele>102</ele>
        <time>2021-03-07T13:22:12.280Z</time>
      </trkpt>
      <trkpt lat="48.60392" lon="2.13856">
        <ele>102</ele>
        <time>2021-03-07T13:22:13.280Z</time>
      </trkpt>
      <trkpt lat="48.60391" lon="2.13853">
        <ele>101</ele>
        <time>2021-03-07T13:22:14.280Z</time>
      </trkpt>
      <trkpt lat="48.60391" lon="2.13851">
        <ele>101</ele>
        <time>2021-03-07T13:22:15.280Z</time>
      </trkpt>
      <trkpt lat="48.60391" lon="2.13849">
        <ele>101</ele>
        <time>2021-03-07T13:22:16.279Z</time>
      </trkpt>
      <trkpt lat="48.60391" lon="2.13847">
        <ele>100</ele>
        <time>2021-03-07T13:22:17.279Z</time>
      </trkpt>
      <trkpt lat="48.60391" lon="2.13845">
        <ele>100</ele>
        <time>2021-03-07T13:22:18.280Z</time>
      </trkpt>
      <trkpt lat="48.6039" lon="2.13843">
        <ele>100</ele>
        <time>2021-03-07T13:22:19.280Z</time>
      </trkpt>
      <trkpt lat="48.6039" lon="2.1384">
        <ele>99</ele>
        <time>2021-03-07T13:22:20.280Z</time>
      </trkpt>
      <trkpt lat="48.6039" lon="2.13838">
        <ele>99</ele>
        <time>2021-03-07T13:22:21.280Z</time>
      </trkpt>
      <trkpt lat="48.6039" lon="2.13836">
        <ele>98</ele>
        <time>2021-03-07T13:22:22.280Z</time>
      </trkpt>
      <trkpt lat="48.6039" lon="2.13834">
        <ele>98</ele>
        <time>2021-03-07T13:22:23.280Z</time>
      </trkpt>
      <trkpt lat="48.6039" lon="2.13832">
        <ele>97</ele>
        <time>2021-03-07T13:22:24.280Z</time>
      </trkpt>
      <trkpt lat="48.6039" lon="2.1383">
        <ele>97</ele>
        <time>2021-03-07T13:22:25.279Z</time>
      </trkpt>
      <trkpt lat="48.60389" lon="2.13828">
        <ele>97</ele>
        <time>2021-03-07T13:22:26.280Z</time>
      </trkpt>
      <trkpt lat="48.60389" lon="2.13826">
        <ele>97</ele>
        <time>2021-03-07T13:22:27.280Z</time>
      </trkpt>
      <trkpt lat="48.60389" lon="2.13823">
        <ele>96</ele>
        <time>2021-03-07T13:22:28.280Z</time>
      </trkpt>
      <trkpt lat="48.60388" lon="2.13821">
        <ele>96</ele>
        <time>2021-03-07T13:22:29.280Z</time>
      </trkpt>
      <trkpt lat="48.60388" lon="2.13819">
        <ele>96</ele>
        <time>2021-03-07T13:22:30.279Z</time>
      </trkpt>
      <trkpt lat="48.60388" lon="2.13817">
        <ele>97</ele>
        <time>2021-03-07T13:22:31.280Z</time>
      </trkpt>
      <trkpt lat="48.60388" lon="2.13815">
        <ele>97</ele>
        <time>2021-03-07T13:22:32.280Z</time>
      </trkpt>
      <trkpt lat="48.60388" lon="2.13813">
        <ele>97</ele>
        <time>2021-03-07T13:22:33.280Z</time>
      </trkpt>
      <trkpt lat="48.60387" lon="2.13811">
        <ele>98</ele>
        <time>2021-03-07T13:22:34.280Z</time>
      </trkpt>
      <trkpt lat="48.60387" lon="2.1381">
        <ele>98</ele>
        <time>2021-03-07T13:22:35.280Z</time>
      </trkpt>
      <trkpt lat="48.60387" lon="2.13808">
        <ele>98</ele>
        <time>2021-03-07T13:22:36.280Z</time>
      </trkpt>
      <trkpt lat="48.60387" lon="2.13807">
        <ele>97</ele>
        <time>2021-03-07T13:22:37.280Z</time>
      </trkpt>
      <trkpt lat="48.60387" lon="2.13806">
        <ele>97</ele>
        <time>2021-03-07T13:22:38.279Z</time>
      </trkpt>
      <trkpt lat="48.60387" lon="2.13804">
        <ele>97</ele>
        <time>2021-03-07T13:22:39.280Z</time>
      </trkpt>
      <trkpt lat="48.60386" lon="2.13803">
        <ele>97</ele>
        <time>2021-03-07T13:22:40.280Z</time>
      </trkpt>
      <trkpt lat="48.60386" lon="2.13801">
        <ele>97</ele>
        <time>2021-03-07T13:22:41.280Z</time>
      </trkpt>
      <trkpt lat="48.60386" lon="2.13798">
        <ele>97</ele>
        <time>2021-03-07T13:22:42.280Z</time>
      </trkpt>
      <trkpt lat="48.60386" lon="2.13797">
        <ele>97</ele>
        <time>2021-03-07T13:22:43.280Z</time>
      </trkpt>
      <trkpt lat="48.60386" lon="2.13795">
        <ele>96</ele>
        <time>2021-03-07T13:22:44.280Z</time>
      </trkpt>
      <trkpt lat="48.60386" lon="2.13793">
        <ele>96</ele>
        <time>2021-03-07T13:22:45.280Z</time>
      </trkpt>
      <trkpt lat="48.60386" lon="2.13791">
        <ele>95</ele>
        <time>2021-03-07T13:22:46.280Z</time>
      </trkpt>
      <trkpt lat="48.60385" lon="2.13789">
        <ele>95</ele>
        <time>2021-03-07T13:22:47.279Z</time>
      </trkpt>
      <trkpt lat="48.60385" lon="2.13788">
        <ele>95</ele>
        <time>2021-03-07T13:22:48.280Z</time>
      </trkpt>
      <trkpt lat="48.60385" lon="2.13786">
        <ele>95</ele>
        <time>2021-03-07T13:22:49.280Z</time>
      </trkpt>
      <trkpt lat="48.60385" lon="2.13784">
        <ele>95</ele>
        <time>2021-03-07T13:22:50.279Z</time>
      </trkpt>
      <trkpt lat="48.60385" lon="2.13782">
        <ele>95</ele>
        <time>2021-03-07T13:22:51.280Z</time>
      </trkpt>
      <trkpt lat="48.60384" lon="2.1378">
        <ele>95</ele>
        <time>2021-03-07T13:22:52.280Z</time>
      </trkpt>
      <trkpt lat="48.60384" lon="2.13778">
        <ele>95</ele>
        <time>2021-03-07T13:22:53.279Z</time>
      </trkpt>
      <trkpt lat="48.60385" lon="2.13776">
        <ele>95</ele>
        <time>2021-03-07T13:22:54.280Z</time>
      </trkpt>
      <trkpt lat="48.60385" lon="2.13773">
        <ele>95</ele>
        <time>2021-03-07T13:22:55.280Z</time>
      </trkpt>
      <trkpt lat="48.60384" lon="2.13772">
        <ele>95</ele>
        <time>2021-03-07T13:22:56.280Z</time>
      </trkpt>
      <trkpt lat="48.60384" lon="2.1377">
        <ele>94</ele>
        <time>2021-03-07T13:22:57.280Z</time>
      </trkpt>
      <trkpt lat="48.60384" lon="2.13768">
        <ele>94</ele>
        <time>2021-03-07T13:22:58.280Z</time>
      </trkpt>
      <trkpt lat="48.60384" lon="2.13766">
        <ele>94</ele>
        <time>2021-03-07T13:22:59.279Z</time>
      </trkpt>
      <trkpt lat="48.60384" lon="2.13764">
        <ele>94</ele>
        <time>2021-03-07T13:23:00.280Z</time>
      </trkpt>
      <trkpt lat="48.60384" lon="2.13762">
        <ele>94</ele>
        <time>2021-03-07T13:23:01.280Z</time>
      </trkpt>
      <trkpt lat="48.60383" lon="2.13759">
        <ele>94</ele>
        <time>2021-03-07T13:23:02.280Z</time>
      </trkpt>
      <trkpt lat="48.60383" lon="2.13757">
        <ele>95</ele>
        <time>2021-03-07T13:23:03.280Z</time>
      </trkpt>
      <trkpt lat="48.60383" lon="2.13755">
        <ele>95</ele>
        <time>2021-03-07T13:23:04.279Z</time>
      </trkpt>
      <trkpt lat="48.60383" lon="2.13753">
        <ele>95</ele>
        <time>2021-03-07T13:23:05.280Z</time>
      </trkpt>
      <trkpt lat="48.60383" lon="2.13751">
        <ele>96</ele>
        <time>2021-03-07T13:23:06.279Z</time>
      </trkpt>
      <trkpt lat="48.60382" lon="2.13749">
        <ele>96</ele>
        <time>2021-03-07T13:23:07.280Z</time>
      </trkpt>
      <trkpt lat="48.60382" lon="2.13747">
        <ele>96</ele>
        <time>2021-03-07T13:23:08.280Z</time>
      </trkpt>
      <trkpt lat="48.60382" lon="2.13745">
        <ele>96</ele>
        <time>2021-03-07T13:23:09.280Z</time>
      </trkpt>
      <trkpt lat="48.60381" lon="2.13743">
        <ele>96</ele>
        <time>2021-03-07T13:23:10.279Z</time>
      </trkpt>
      <trkpt lat="48.60381" lon="2.13741">
        <ele>96</ele>
        <time>2021-03-07T13:23:11.280Z</time>
      </trkpt>
      <trkpt lat="48.60381" lon="2.13739">
        <ele>96</ele>
        <time>2021-03-07T13:23:12.280Z</time>
      </trkpt>
      <trkpt lat="48.60381" lon="2.13737">
        <ele>96</ele>
        <time>2021-03-07T13:23:13.280Z</time>
      </trkpt>
      <trkpt lat="48.6038" lon="2.13735">
        <ele>96</ele>
        <time>2021-03-07T13:23:14.280Z</time>
      </trkpt>
      <trkpt lat="48.6038" lon="2.13733">
        <ele>96</ele>
        <time>2021-03-07T13:23:15.280Z</time>
      </trkpt>
      <trkpt lat="48.60379" lon="2.13731">
        <ele>96</ele>
        <time>2021-03-07T13:23:16.280Z</time>
      </trkpt>
      <trkpt lat="48.60379" lon="2.13729">
        <ele>96</ele>
        <time>2021-03-07T13:23:17.279Z</time>
      </trkpt>
      <trkpt lat="48.60379" lon="2.13726">
        <ele>96</ele>
        <time>2021-03-07T13:23:18.280Z</time>
      </trkpt>
      <trkpt lat="48.60379" lon="2.13724">
        <ele>96</ele>
        <time>2021-03-07T13:23:19.280Z</time>
      </trkpt>
      <trkpt lat="48.60379" lon="2.13722">
        <ele>96</ele>
        <time>2021-03-07T13:23:20.280Z</time>
      </trkpt>
      <trkpt lat="48.60379" lon="2.1372">
        <ele>97</ele>
        <time>2021-03-07T13:23:21.280Z</time>
      </trkpt>
      <trkpt lat="48.60379" lon="2.13718">
        <ele>97</ele>
        <time>2021-03-07T13:23:22.279Z</time>
      </trkpt>
      <trkpt lat="48.60378" lon="2.13715">
        <ele>97</ele>
        <time>2021-03-07T13:23:23.280Z</time>
      </trkpt>
      <trkpt lat="48.60378" lon="2.13713">
        <ele>97</ele>
        <time>2021-03-07T13:23:24.280Z</time>
      </trkpt>
      <trkpt lat="48.60378" lon="2.13711">
        <ele>96</ele>
        <time>2021-03-07T13:23:25.280Z</time>
      </trkpt>
      <trkpt lat="48.60378" lon="2.13709">
        <ele>96</ele>
        <time>2021-03-07T13:23:26.280Z</time>
      </trkpt>
      <trkpt lat="48.60377" lon="2.13706">
        <ele>96</ele>
        <time>2021-03-07T13:23:27.280Z</time>
      </trkpt>
      <trkpt lat="48.60377" lon="2.13704">
        <ele>96</ele>
        <time>2021-03-07T13:23:28.280Z</time>
      </trkpt>
      <trkpt lat="48.60377" lon="2.13702">
        <ele>95</ele>
        <time>2021-03-07T13:23:29.279Z</time>
      </trkpt>
      <trkpt lat="48.60377" lon="2.137">
        <ele>95</ele>
        <time>2021-03-07T13:23:30.279Z</time>
      </trkpt>
      <trkpt lat="48.60376" lon="2.13698">
        <ele>95</ele>
        <time>2021-03-07T13:23:31.280Z</time>
      </trkpt>
      <trkpt lat="48.60377" lon="2.13695">
        <ele>96</ele>
        <time>2021-03-07T13:23:32.280Z</time>
      </trkpt>
      <trkpt lat="48.60377" lon="2.13693">
        <ele>96</ele>
        <time>2021-03-07T13:23:33.280Z</time>
      </trkpt>
      <trkpt lat="48.60377" lon="2.13691">
        <ele>96</ele>
        <time>2021-03-07T13:23:34.279Z</time>
      </trkpt>
      <trkpt lat="48.60376" lon="2.13689">
        <ele>96</ele>
        <time>2021-03-07T13:23:35.280Z</time>
      </trkpt>
      <trkpt lat="48.60376" lon="2.13687">
        <ele>96</ele>
        <time>2021-03-07T13:23:36.280Z</time>
      </trkpt>
      <trkpt lat="48.60376" lon="2.13685">
        <ele>96</ele>
        <time>2021-03-07T13:23:37.280Z</time>
      </trkpt>
      <trkpt lat="48.60376" lon="2.13683">
        <ele>96</ele>
        <time>2021-03-07T13:23:38.280Z</time>
      </trkpt>
      <trkpt lat="48.60376" lon="2.13681">
        <ele>96</ele>
        <time>2021-03-07T13:23:39.280Z</time>
      </trkpt>
      <trkpt lat="48.60375" lon="2.13679">
        <ele>96</ele>
        <time>2021-03-07T13:23:40.280Z</time>
      </trkpt>
      <trkpt lat="48.60375" lon="2.13677">
        <ele>96</ele>
        <time>2021-03-07T13:23:41.280Z</time>
      </trkpt>
      <trkpt lat="48.60375" lon="2.13674">
        <ele>96</ele>
        <time>2021-03-07T13:23:42.280Z</time>
      </trkpt>
      <trkpt lat="48.60375" lon="2.13672">
        <ele>96</ele>
        <time>2021-03-07T13:23:43.280Z</time>
      </trkpt>
      <trkpt lat="48.60375" lon="2.1367">
        <ele>95</ele>
        <time>2021-03-07T13:23:44.280Z</time>
      </trkpt>
      <trkpt lat="48.60375" lon="2.13668">
        <ele>95</ele>
        <time>2021-03-07T13:23:45.280Z</time>
      </trkpt>
      <trkpt lat="48.60374" lon="2.13666">
        <ele>94</ele>
        <time>2021-03-07T13:23:46.280Z</time>
      </trkpt>
      <trkpt lat="48.60374" lon="2.13664">
        <ele>94</ele>
        <time>2021-03-07T13:23:47.280Z</time>
      </trkpt>
      <trkpt lat="48.60373" lon="2.13662">
        <ele>94</ele>
        <time>2021-03-07T13:23:48.279Z</time>
      </trkpt>
      <trkpt lat="48.60373" lon="2.13659">
        <ele>93</ele>
        <time>2021-03-07T13:23:49.279Z</time>
      </trkpt>
      <trkpt lat="48.60373" lon="2.13657">
        <ele>94</ele>
        <time>2021-03-07T13:23:50.280Z</time>
      </trkpt>
      <trkpt lat="48.60373" lon="2.13655">
        <ele>94</ele>
        <time>2021-03-07T13:23:51.280Z</time>
      </trkpt>
      <trkpt lat="48.60373" lon="2.13653">
        <ele>94</ele>
        <time>2021-03-07T13:23:52.279Z</time>
      </trkpt>
      <trkpt lat="48.60373" lon="2.1365">
        <ele>95</ele>
        <time>2021-03-07T13:23:53.280Z</time>
      </trkpt>
      <trkpt lat="48.60373" lon="2.13648">
        <ele>95</ele>
        <time>2021-03-07T13:23:54.280Z</time>
      </trkpt>
      <trkpt lat="48.60373" lon="2.13646">
        <ele>95</ele>
        <time>2021-03-07T13:23:55.280Z</time>
      </trkpt>
      <trkpt lat="48.60372" lon="2.13644">
        <ele>95</ele>
        <time>2021-03-07T13:23:56.280Z</time>
      </trkpt>
      <trkpt lat="48.60373" lon="2.13642">
        <ele>95</ele>
        <time>2021-03-07T13:23:57.280Z</time>
      </trkpt>
      <trkpt lat="48.60372" lon="2.13639">
        <ele>95</ele>
        <time>2021-03-07T13:23:58.279Z</time>
      </trkpt>
      <trkpt lat="48.60372" lon="2.13637">
        <ele>95</ele>
        <time>2021-03-07T13:23:59.280Z</time>
      </trkpt>
      <trkpt lat="48.60371" lon="2.13635">
        <ele>95</ele>
        <time>2021-03-07T13:24:00.280Z</time>
      </trkpt>
      <trkpt lat="48.60371" lon="2.13632">
        <ele>95</ele>
        <time>2021-03-07T13:24:01.280Z</time>
      </trkpt>
      <trkpt lat="48.60371" lon="2.1363">
        <ele>95</ele>
        <time>2021-03-07T13:24:02.280Z</time>
      </trkpt>
      <trkpt lat="48.6037" lon="2.13628">
        <ele>94</ele>
        <time>2021-03-07T13:24:03.280Z</time>
      </trkpt>
      <trkpt lat="48.6037" lon="2.13626">
        <ele>94</ele>
        <time>2021-03-07T13:24:04.279Z</time>
      </trkpt>
      <trkpt lat="48.60369" lon="2.13623">
        <ele>95</ele>
        <time>2021-03-07T13:24:05.280Z</time>
      </trkpt>
      <trkpt lat="48.60369" lon="2.13621">
        <ele>95</ele>
        <time>2021-03-07T13:24:06.280Z</time>
      </trkpt>
      <trkpt lat="48.60369" lon="2.13619">
        <ele>96</ele>
        <time>2021-03-07T13:24:07.280Z</time>
      </trkpt>
      <trkpt lat="48.60368" lon="2.13617">
        <ele>96</ele>
        <time>2021-03-07T13:24:08.279Z</time>
      </trkpt>
      <trkpt lat="48.60368" lon="2.13615">
        <ele>97</ele>
        <time>2021-03-07T13:24:09.280Z</time>
      </trkpt>
      <trkpt lat="48.60368" lon="2.13613">
        <ele>97</ele>
        <time>2021-03-07T13:24:10.280Z</time>
      </trkpt>
      <trkpt lat="48.60368" lon="2.13611">
        <ele>97</ele>
        <time>2021-03-07T13:24:11.280Z</time>
      </trkpt>
      <trkpt lat="48.60368" lon="2.13608">
        <ele>97</ele>
        <time>2021-03-07T13:24:12.280Z</time>
      </trkpt>
      <trkpt lat="48.60368" lon="2.13606">
        <ele>97</ele>
        <time>2021-03-07T13:24:13.279Z</time>
      </trkpt>
      <trkpt lat="48.60368" lon="2.13604">
        <ele>97</ele>
        <time>2021-03-07T13:24:14.280Z</time>
      </trkpt>
      <trkpt lat="48.60367" lon="2.13602">
        <ele>97</ele>
        <time>2021-03-07T13:24:15.280Z</time>
      </trkpt>
      <trkpt lat="48.60367" lon="2.13599">
        <ele>97</ele>
        <time>2021-03-07T13:24:16.280Z</time>
      </trkpt>
      <trkpt lat="48.60367" lon="2.13597">
        <ele>98</ele>
        <time>2021-03-07T13:24:17.280Z</time>
      </trkpt>
      <trkpt lat="48.60366" lon="2.13595">
        <ele>98</ele>
        <time>2021-03-07T13:24:18.279Z</time>
      </trkpt>
      <trkpt lat="48.60366" lon="2.13592">
        <ele>98</ele>
        <time>2021-03-07T13:24:19.280Z</time>
      </trkpt>
      <trkpt lat="48.60366" lon="2.1359">
        <ele>99</ele>
        <time>2021-03-07T13:24:20.280Z</time>
      </trkpt>
      <trkpt lat="48.60366" lon="2.13587">
        <ele>99</ele>
        <time>2021-03-07T13:24:21.280Z</time>
      </trkpt>
      <trkpt lat="48.60365" lon="2.13585">
        <ele>99</ele>
        <time>2021-03-07T13:24:22.280Z</time>
      </trkpt>
      <trkpt lat="48.60366" lon="2.13583">
        <ele>99</ele>
        <time>2021-03-07T13:24:23.280Z</time>
      </trkpt>
      <trkpt lat="48.60366" lon="2.13581">
        <ele>99</ele>
        <time>2021-03-07T13:24:24.279Z</time>
      </trkpt>
      <trkpt lat="48.60365" lon="2.13579">
        <ele>99</ele>
        <time>2021-03-07T13:24:25.280Z</time>
      </trkpt>
      <trkpt lat="48.60365" lon="2.13576">
        <ele>99</ele>
        <time>2021-03-07T13:24:26.280Z</time>
      </trkpt>
      <trkpt lat="48.60365" lon="2.13573">
        <ele>99</ele>
        <time>2021-03-07T13:24:27.280Z</time>
      </trkpt>
      <trkpt lat="48.60365" lon="2.13571">
        <ele>99</ele>
        <time>2021-03-07T13:24:28.280Z</time>
      </trkpt>
      <trkpt lat="48.60365" lon="2.13568">
        <ele>99</ele>
        <time>2021-03-07T13:24:29.279Z</time>
      </trkpt>
      <trkpt lat="48.60365" lon="2.13566">
        <ele>99</ele>
        <time>2021-03-07T13:24:30.280Z</time>
      </trkpt>
      <trkpt lat="48.60364" lon="2.13564">
        <ele>99</ele>
        <time>2021-03-07T13:24:31.280Z</time>
      </trkpt>
      <trkpt lat="48.60364" lon="2.13562">
        <ele>99</ele>
        <time>2021-03-07T13:24:32.280Z</time>
      </trkpt>
      <trkpt lat="48.60364" lon="2.13559">
        <ele>99</ele>
        <time>2021-03-07T13:24:33.280Z</time>
      </trkpt>
      <trkpt lat="48.60364" lon="2.13557">
        <ele>99</ele>
        <time>2021-03-07T13:24:34.280Z</time>
      </trkpt>
      <trkpt lat="48.60363" lon="2.13555">
        <ele>98</ele>
        <time>2021-03-07T13:24:35.280Z</time>
      </trkpt>
      <trkpt lat="48.60363" lon="2.13552">
        <ele>98</ele>
        <time>2021-03-07T13:24:36.279Z</time>
      </trkpt>
      <trkpt lat="48.60363" lon="2.1355">
        <ele>99</ele>
        <time>2021-03-07T13:24:37.280Z</time>
      </trkpt>
      <trkpt lat="48.60362" lon="2.13548">
        <ele>99</ele>
        <time>2021-03-07T13:24:38.280Z</time>
      </trkpt>
      <trkpt lat="48.60362" lon="2.13545">
        <ele>99</ele>
        <time>2021-03-07T13:24:39.280Z</time>
      </trkpt>
      <trkpt lat="48.60362" lon="2.13543">
        <ele>99</ele>
        <time>2021-03-07T13:24:40.280Z</time>
      </trkpt>
      <trkpt lat="48.60362" lon="2.1354">
        <ele>99</ele>
        <time>2021-03-07T13:24:41.280Z</time>
      </trkpt>
      <trkpt lat="48.60362" lon="2.13538">
        <ele>100</ele>
        <time>2021-03-07T13:24:42.280Z</time>
      </trkpt>
      <trkpt lat="48.60362" lon="2.13536">
        <ele>100</ele>
        <time>2021-03-07T13:24:43.280Z</time>
      </trkpt>
      <trkpt lat="48.60362" lon="2.13533">
        <ele>99</ele>
        <time>2021-03-07T13:24:44.280Z</time>
      </trkpt>
      <trkpt lat="48.60361" lon="2.13531">
        <ele>99</ele>
        <time>2021-03-07T13:24:45.280Z</time>
      </trkpt>
      <trkpt lat="48.60361" lon="2.13529">
        <ele>99</ele>
        <time>2021-03-07T13:24:46.280Z</time>
      </trkpt>
      <trkpt lat="48.6036" lon="2.13527">
        <ele>99</ele>
        <time>2021-03-07T13:24:47.280Z</time>
      </trkpt>
      <trkpt lat="48.6036" lon="2.13525">
        <ele>98</ele>
        <time>2021-03-07T13:24:48.279Z</time>
      </trkpt>
      <trkpt lat="48.6036" lon="2.13523">
        <ele>98</ele>
        <time>2021-03-07T13:24:49.279Z</time>
      </trkpt>
      <trkpt lat="48.6036" lon="2.13521">
        <ele>99</ele>
        <time>2021-03-07T13:24:50.280Z</time>
      </trkpt>
      <trkpt lat="48.6036" lon="2.13518">
        <ele>99</ele>
        <time>2021-03-07T13:24:51.280Z</time>
      </trkpt>
      <trkpt lat="48.60359" lon="2.13516">
        <ele>99</ele>
        <time>2021-03-07T13:24:52.280Z</time>
      </trkpt>
      <trkpt lat="48.60359" lon="2.13514">
        <ele>99</ele>
        <time>2021-03-07T13:24:53.280Z</time>
      </trkpt>
      <trkpt lat="48.60359" lon="2.13512">
        <ele>99</ele>
        <time>2021-03-07T13:24:54.280Z</time>
      </trkpt>
      <trkpt lat="48.60358" lon="2.1351">
        <ele>99</ele>
        <time>2021-03-07T13:24:55.280Z</time>
      </trkpt>
      <trkpt lat="48.60358" lon="2.13508">
        <ele>99</ele>
        <time>2021-03-07T13:24:56.280Z</time>
      </trkpt>
      <trkpt lat="48.60358" lon="2.13505">
        <ele>99</ele>
        <time>2021-03-07T13:24:57.280Z</time>
      </trkpt>
      <trkpt lat="48.60358" lon="2.13503">
        <ele>98</ele>
        <time>2021-03-07T13:24:58.280Z</time>
      </trkpt>
      <trkpt lat="48.60358" lon="2.13501">
        <ele>98</ele>
        <time>2021-03-07T13:24:59.279Z</time>
      </trkpt>
      <trkpt lat="48.60358" lon="2.13498">
        <ele>97</ele>
        <time>2021-03-07T13:25:00.279Z</time>
      </trkpt>
      <trkpt lat="48.60358" lon="2.13496">
        <ele>97</ele>
        <time>2021-03-07T13:25:01.279Z</time>
      </trkpt>
      <trkpt lat="48.60357" lon="2.13494">
        <ele>96</ele>
        <time>2021-03-07T13:25:02.280Z</time>
      </trkpt>
      <trkpt lat="48.60357" lon="2.13492">
        <ele>96</ele>
        <time>2021-03-07T13:25:03.280Z</time>
      </trkpt>
      <trkpt lat="48.60357" lon="2.13489">
        <ele>95</ele>
        <time>2021-03-07T13:25:04.280Z</time>
      </trkpt>
      <trkpt lat="48.60356" lon="2.13487">
        <ele>95</ele>
        <time>2021-03-07T13:25:05.280Z</time>
      </trkpt>
      <trkpt lat="48.60356" lon="2.13484">
        <ele>95</ele>
        <time>2021-03-07T13:25:06.279Z</time>
      </trkpt>
      <trkpt lat="48.60355" lon="2.13483">
        <ele>95</ele>
        <time>2021-03-07T13:25:07.280Z</time>
      </trkpt>
      <trkpt lat="48.60354" lon="2.13481">
        <ele>95</ele>
        <time>2021-03-07T13:25:08.280Z</time>
      </trkpt>
      <trkpt lat="48.60354" lon="2.13478">
        <ele>95</ele>
        <time>2021-03-07T13:25:09.279Z</time>
      </trkpt>
      <trkpt lat="48.60354" lon="2.13476">
        <ele>95</ele>
        <time>2021-03-07T13:25:10.280Z</time>
      </trkpt>
      <trkpt lat="48.60354" lon="2.13473">
        <ele>95</ele>
        <time>2021-03-07T13:25:11.280Z</time>
      </trkpt>
      <trkpt lat="48.60354" lon="2.1347">
        <ele>96</ele>
        <time>2021-03-07T13:25:12.280Z</time>
      </trkpt>
      <trkpt lat="48.60353" lon="2.13468">
        <ele>96</ele>
        <time>2021-03-07T13:25:13.280Z</time>
      </trkpt>
      <trkpt lat="48.60353" lon="2.13465">
        <ele>96</ele>
        <time>2021-03-07T13:25:14.279Z</time>
      </trkpt>
      <trkpt lat="48.60353" lon="2.13462">
        <ele>96</ele>
        <time>2021-03-07T13:25:15.280Z</time>
      </trkpt>
      <trkpt lat="48.60353" lon="2.13459">
        <ele>96</ele>
        <time>2021-03-07T13:25:16.280Z</time>
      </trkpt>
      <trkpt lat="48.60353" lon="2.13457">
        <ele>96</ele>
        <time>2021-03-07T13:25:17.280Z</time>
      </trkpt>
      <trkpt lat="48.60353" lon="2.13454">
        <ele>96</ele>
        <time>2021-03-07T13:25:18.280Z</time>
      </trkpt>
      <trkpt lat="48.60353" lon="2.13452">
        <ele>95</ele>
        <time>2021-03-07T13:25:19.280Z</time>
      </trkpt>
      <trkpt lat="48.60352" lon="2.13449">
        <ele>95</ele>
        <time>2021-03-07T13:25:20.279Z</time>
      </trkpt>
      <trkpt lat="48.60352" lon="2.13447">
        <ele>96</ele>
        <time>2021-03-07T13:25:21.280Z</time>
      </trkpt>
      <trkpt lat="48.60352" lon="2.13444">
        <ele>96</ele>
        <time>2021-03-07T13:25:22.280Z</time>
      </trkpt>
      <trkpt lat="48.60352" lon="2.13442">
        <ele>97</ele>
        <time>2021-03-07T13:25:23.280Z</time>
      </trkpt>
      <trkpt lat="48.60351" lon="2.13439">
        <ele>97</ele>
        <time>2021-03-07T13:25:24.280Z</time>
      </trkpt>
      <trkpt lat="48.60351" lon="2.13437">
        <ele>98</ele>
        <time>2021-03-07T13:25:25.280Z</time>
      </trkpt>
      <trkpt lat="48.60351" lon="2.13435">
        <ele>98</ele>
        <time>2021-03-07T13:25:26.280Z</time>
      </trkpt>
      <trkpt lat="48.6035" lon="2.13432">
        <ele>98</ele>
        <time>2021-03-07T13:25:27.280Z</time>
      </trkpt>
      <trkpt lat="48.6035" lon="2.1343">
        <ele>99</ele>
        <time>2021-03-07T13:25:28.280Z</time>
      </trkpt>
      <trkpt lat="48.6035" lon="2.13428">
        <ele>98</ele>
        <time>2021-03-07T13:25:29.280Z</time>
      </trkpt>
      <trkpt lat="48.6035" lon="2.13425">
        <ele>98</ele>
        <time>2021-03-07T13:25:30.279Z</time>
      </trkpt>
      <trkpt lat="48.60349" lon="2.13423">
        <ele>97</ele>
        <time>2021-03-07T13:25:31.280Z</time>
      </trkpt>
      <trkpt lat="48.60349" lon="2.13421">
        <ele>97</ele>
        <time>2021-03-07T13:25:32.280Z</time>
      </trkpt>
      <trkpt lat="48.60349" lon="2.13418">
        <ele>96</ele>
        <time>2021-03-07T13:25:33.280Z</time>
      </trkpt>
      <trkpt lat="48.60349" lon="2.13416">
        <ele>95</ele>
        <time>2021-03-07T13:25:34.280Z</time>
      </trkpt>
      <trkpt lat="48.60348" lon="2.13414">
        <ele>95</ele>
        <time>2021-03-07T13:25:35.280Z</time>
      </trkpt>
      <trkpt lat="48.60348" lon="2.13411">
        <ele>95</ele>
        <time>2021-03-07T13:25:36.280Z</time>
      </trkpt>
      <trkpt lat="48.60348" lon="2.1341">
        <ele>95</ele>
        <time>2021-03-07T13:25:37.280Z</time>
      </trkpt>
      <trkpt lat="48.60348" lon="2.13407">
        <ele>95</ele>
        <time>2021-03-07T13:25:38.280Z</time>
      </trkpt>
      <trkpt lat="48.60347" lon="2.13405">
        <ele>95</ele>
        <time>2021-03-07T13:25:39.280Z</time>
      </trkpt>
      <trkpt lat="48.60347" lon="2.13403">
        <ele>95</ele>
        <time>2021-03-07T13:25:40.280Z</time>
      </trkpt>
      <trkpt lat="48.60347" lon="2.134">
        <ele>96</ele>
        <time>2021-03-07T13:25:41.280Z</time>
      </trkpt>
      <trkpt lat="48.60347" lon="2.13398">
        <ele>97</ele>
        <time>2021-03-07T13:25:42.280Z</time>
      </trkpt>
      <trkpt lat="48.60347" lon="2.13395">
        <ele>97</ele>
        <time>2021-03-07T13:25:43.279Z</time>
      </trkpt>
      <trkpt lat="48.60347" lon="2.13393">
        <ele>97</ele>
        <time>2021-03-07T13:25:44.280Z</time>
      </trkpt>
      <trkpt lat="48.60346" lon="2.13391">
        <ele>96</ele>
        <time>2021-03-07T13:25:45.280Z</time>
      </trkpt>
      <trkpt lat="48.60346" lon="2.13389">
        <ele>96</ele>
        <time>2021-03-07T13:25:46.280Z</time>
      </trkpt>
      <trkpt lat="48.60346" lon="2.13386">
        <ele>96</ele>
        <time>2021-03-07T13:25:47.280Z</time>
      </trkpt>
      <trkpt lat="48.60346" lon="2.13384">
        <ele>96</ele>
        <time>2021-03-07T13:25:48.280Z</time>
      </trkpt>
      <trkpt lat="48.60345" lon="2.13381">
        <ele>96</ele>
        <time>2021-03-07T13:25:49.280Z</time>
      </trkpt>
      <trkpt lat="48.60345" lon="2.13378">
        <ele>95</ele>
        <time>2021-03-07T13:25:50.280Z</time>
      </trkpt>
      <trkpt lat="48.60345" lon="2.13376">
        <ele>95</ele>
        <time>2021-03-07T13:25:51.280Z</time>
      </trkpt>
      <trkpt lat="48.60345" lon="2.13374">
        <ele>95</ele>
        <time>2021-03-07T13:25:52.280Z</time>
      </trkpt>
      <trkpt lat="48.60345" lon="2.13372">
        <ele>95</ele>
        <time>2021-03-07T13:25:53.279Z</time>
      </trkpt>
      <trkpt lat="48.60345" lon="2.1337">
        <ele>95</ele>
        <time>2021-03-07T13:25:54.280Z</time>
      </trkpt>
      <trkpt lat="48.60345" lon="2.13368">
        <ele>95</ele>
        <time>2021-03-07T13:25:55.279Z</time>
      </trkpt>
      <trkpt lat="48.60345" lon="2.13365">
        <ele>95</ele>
        <time>2021-03-07T13:25:56.279Z</time>
      </trkpt>
      <trkpt lat="48.60344" lon="2.13363">
        <ele>95</ele>
        <time>2021-03-07T13:25:57.280Z</time>
      </trkpt>
      <trkpt lat="48.60344" lon="2.13361">
        <ele>96</ele>
        <time>2021-03-07T13:25:58.279Z</time>
      </trkpt>
      <trkpt lat="48.60344" lon="2.13358">
        <ele>96</ele>
        <time>2021-03-07T13:25:59.280Z</time>
      </trkpt>
      <trkpt lat="48.60343" lon="2.13356">
        <ele>96</ele>
        <time>2021-03-07T13:26:00.280Z</time>
      </trkpt>
      <trkpt lat="48.60343" lon="2.13354">
        <ele>97</ele>
        <time>2021-03-07T13:26:01.280Z</time>
      </trkpt>
      <trkpt lat="48.60343" lon="2.13352">
        <ele>96</ele>
        <time>2021-03-07T13:26:02.279Z</time>
      </trkpt>
      <trkpt lat="48.60343" lon="2.13349">
        <ele>96</ele>
        <time>2021-03-07T13:26:03.280Z</time>
      </trkpt>
      <trkpt lat="48.60343" lon="2.13347">
        <ele>96</ele>
        <time>2021-03-07T13:26:04.280Z</time>
      </trkpt>
      <trkpt lat="48.60343" lon="2.13345">
        <ele>96</ele>
        <time>2021-03-07T13:26:05.280Z</time>
      </trkpt>
      <trkpt lat="48.60342" lon="2.13343">
        <ele>96</ele>
        <time>2021-03-07T13:26:06.280Z</time>
      </trkpt>
      <trkpt lat="48.60342" lon="2.13341">
        <ele>96</ele>
        <time>2021-03-07T13:26:07.280Z</time>
      </trkpt>
      <trkpt lat="48.60341" lon="2.13339">
        <ele>95</ele>
        <time>2021-03-07T13:26:08.280Z</time>
      </trkpt>
      <trkpt lat="48.60341" lon="2.13336">
        <ele>95</ele>
        <time>2021-03-07T13:26:09.280Z</time>
      </trkpt>
      <trkpt lat="48.60341" lon="2.13334">
        <ele>94</ele>
        <time>2021-03-07T13:26:10.280Z</time>
      </trkpt>
      <trkpt lat="48.60341" lon="2.13332">
        <ele>94</ele>
        <time>2021-03-07T13:26:11.280Z</time>
      </trkpt>
      <trkpt lat="48.60341" lon="2.13329">
        <ele>94</ele>
        <time>2021-03-07T13:26:12.280Z</time>
      </trkpt>
      <trkpt lat="48.6034" lon="2.13327">
        <ele>94</ele>
        <time>2021-03-07T13:26:13.279Z</time>
      </trkpt>
      <trkpt lat="48.6034" lon="2.13325">
        <ele>94</ele>
        <time>2021-03-07T13:26:14.280Z</time>
      </trkpt>
      <trkpt lat="48.6034" lon="2.13323">
        <ele>95</ele>
        <time>2021-03-07T13:26:15.280Z</time>
      </trkpt>
      <trkpt lat="48.60339" lon="2.13321">
        <ele>95</ele>
        <time>2021-03-07T13:26:16.280Z</time>
      </trkpt>
      <trkpt lat="48.60339" lon="2.13319">
        <ele>95</ele>
        <time>2021-03-07T13:26:17.280Z</time>
      </trkpt>
      <trkpt lat="48.60339" lon="2.13317">
        <ele>94</ele>
        <time>2021-03-07T13:26:18.280Z</time>
      </trkpt>
      <trkpt lat="48.60339" lon="2.13315">
        <ele>94</ele>
        <time>2021-03-07T13:26:19.280Z</time>
      </trkpt>
      <trkpt lat="48.60338" lon="2.13312">
        <ele>95</ele>
        <time>2021-03-07T13:26:20.280Z</time>
      </trkpt>
      <trkpt lat="48.60338" lon="2.1331">
        <ele>95</ele>
        <time>2021-03-07T13:26:21.279Z</time>
      </trkpt>
      <trkpt lat="48.60338" lon="2.13307">
        <ele>95</ele>
        <time>2021-03-07T13:26:22.280Z</time>
      </trkpt>
      <trkpt lat="48.60338" lon="2.13305">
        <ele>95</ele>
        <time>2021-03-07T13:26:23.280Z</time>
      </trkpt>
      <trkpt lat="48.60338" lon="2.13302">
        <ele>96</ele>
        <time>2021-03-07T13:26:24.279Z</time>
      </trkpt>
      <trkpt lat="48.60337" lon="2.133">
        <ele>96</ele>
        <time>2021-03-07T13:26:25.280Z</time>
      </trkpt>
      <trkpt lat="48.60337" lon="2.13297">
        <ele>97</ele>
        <time>2021-03-07T13:26:26.280Z</time>
      </trkpt>
      <trkpt lat="48.60337" lon="2.13294">
        <ele>97</ele>
        <time>2021-03-07T13:26:27.279Z</time>
      </trkpt>
      <trkpt lat="48.60337" lon="2.13292">
        <ele>98</ele>
        <time>2021-03-07T13:26:28.280Z</time>
      </trkpt>
      <trkpt lat="48.60337" lon="2.1329">
        <ele>98</ele>
        <time>2021-03-07T13:26:29.280Z</time>
      </trkpt>
      <trkpt lat="48.60337" lon="2.13287">
        <ele>98</ele>
        <time>2021-03-07T13:26:30.279Z</time>
      </trkpt>
      <trkpt lat="48.60336" lon="2.13285">
        <ele>99</ele>
        <time>2021-03-07T13:26:31.280Z</time>
      </trkpt>
      <trkpt lat="48.60336" lon="2.13283">
        <ele>99</ele>
        <time>2021-03-07T13:26:32.279Z</time>
      </trkpt>
      <trkpt lat="48.60336" lon="2.1328">
        <ele>100</ele>
        <time>2021-03-07T13:26:33.279Z</time>
      </trkpt>
      <trkpt lat="48.60336" lon="2.13278">
        <ele>100</ele>
        <time>2021-03-07T13:26:34.280Z</time>
      </trkpt>
      <trkpt lat="48.60336" lon="2.13276">
        <ele>101</ele>
        <time>2021-03-07T13:26:35.280Z</time>
      </trkpt>
      <trkpt lat="48.60335" lon="2.13273">
        <ele>101</ele>
        <time>2021-03-07T13:26:36.280Z</time>
      </trkpt>
      <trkpt lat="48.60335" lon="2.13271">
        <ele>101</ele>
        <time>2021-03-07T13:26:37.279Z</time>
      </trkpt>
      <trkpt lat="48.60335" lon="2.13268">
        <ele>100</ele>
        <time>2021-03-07T13:26:38.280Z</time>
      </trkpt>
      <trkpt lat="48.60334" lon="2.13266">
        <ele>100</ele>
        <time>2021-03-07T13:26:39.280Z</time>
      </trkpt>
      <trkpt lat="48.60334" lon="2.13264">
        <ele>100</ele>
        <time>2021-03-07T13:26:40.280Z</time>
      </trkpt>
      <trkpt lat="48.60334" lon="2.13261">
        <ele>100</ele>
        <time>2021-03-07T13:26:41.279Z</time>
      </trkpt>
      <trkpt lat="48.60333" lon="2.13258">
        <ele>100</ele>
        <time>2021-03-07T13:26:42.280Z</time>
      </trkpt>
      <trkpt lat="48.60333" lon="2.13255">
        <ele>100</ele>
        <time>2021-03-07T13:26:43.280Z</time>
      </trkpt>
      <trkpt lat="48.60333" lon="2.13253">
        <ele>100</ele>
        <time>2021-03-07T13:26:44.279Z</time>
      </trkpt>
      <trkpt lat="48.60333" lon="2.13251">
        <ele>100</ele>
        <time>2021-03-07T13:26:45.280Z</time>
      </trkpt>
      <trkpt lat="48.60332" lon="2.13249">
        <ele>100</ele>
        <time>2021-03-07T13:26:46.280Z</time>
      </trkpt>
      <trkpt lat="48.60332" lon="2.13246">
        <ele>99</ele>
        <time>2021-03-07T13:26:47.280Z</time>
      </trkpt>
      <trkpt lat="48.60332" lon="2.13243">
        <ele>99</ele>
        <time>2021-03-07T13:26:48.280Z</time>
      </trkpt>
      <trkpt lat="48.60332" lon="2.1324">
        <ele>99</ele>
        <time>2021-03-07T13:26:49.280Z</time>
      </trkpt>
      <trkpt lat="48.60331" lon="2.13238">
        <ele>99</ele>
        <time>2021-03-07T13:26:50.280Z</time>
      </trkpt>
      <trkpt lat="48.60331" lon="2.13235">
        <ele>99</ele>
        <time>2021-03-07T13:26:51.279Z</time>
      </trkpt>
      <trkpt lat="48.6033" lon="2.13232">
        <ele>99</ele>
        <time>2021-03-07T13:26:52.280Z</time>
      </trkpt>
      <trkpt lat="48.6033" lon="2.1323">
        <ele>99</ele>
        <time>2021-03-07T13:26:53.280Z</time>
      </trkpt>
      <trkpt lat="48.60329" lon="2.13228">
        <ele>98</ele>
        <time>2021-03-07T13:26:54.279Z</time>
      </trkpt>
      <trkpt lat="48.60328" lon="2.13225">
        <ele>98</ele>
        <time>2021-03-07T13:26:55.280Z</time>
      </trkpt>
      <trkpt lat="48.60328" lon="2.13222">
        <ele>98</ele>
        <time>2021-03-07T13:26:56.280Z</time>
      </trkpt>
      <trkpt lat="48.60327" lon="2.13219">
        <ele>98</ele>
        <time>2021-03-07T13:26:57.280Z</time>
      </trkpt>
      <trkpt lat="48.60327" lon="2.13216">
        <ele>99</ele>
        <time>2021-03-07T13:26:58.280Z</time>
      </trkpt>
      <trkpt lat="48.60326" lon="2.13213">
        <ele>99</ele>
        <time>2021-03-07T13:26:59.279Z</time>
      </trkpt>
      <trkpt lat="48.60326" lon="2.1321">
        <ele>99</ele>
        <time>2021-03-07T13:27:00.279Z</time>
      </trkpt>
      <trkpt lat="48.60326" lon="2.13208">
        <ele>98</ele>
        <time>2021-03-07T13:27:01.280Z</time>
      </trkpt>
      <trkpt lat="48.60326" lon="2.13205">
        <ele>98</ele>
        <time>2021-03-07T13:27:02.280Z</time>
      </trkpt>
      <trkpt lat="48.60326" lon="2.13203">
        <ele>98</ele>
        <time>2021-03-07T13:27:03.280Z</time>
      </trkpt>
      <trkpt lat="48.60326" lon="2.132">
        <ele>98</ele>
        <time>2021-03-07T13:27:04.279Z</time>
      </trkpt>
      <trkpt lat="48.60326" lon="2.13197">
        <ele>98</ele>
        <time>2021-03-07T13:27:05.280Z</time>
      </trkpt>
      <trkpt lat="48.60326" lon="2.13194">
        <ele>98</ele>
        <time>2021-03-07T13:27:06.280Z</time>
      </trkpt>
      <trkpt lat="48.60325" lon="2.13191">
        <ele>98</ele>
        <time>2021-03-07T13:27:07.280Z</time>
      </trkpt>
      <trkpt lat="48.60325" lon="2.13189">
        <ele>98</ele>
        <time>2021-03-07T13:27:08.280Z</time>
      </trkpt>
      <trkpt lat="48.60325" lon="2.13186">
        <ele>98</ele>
        <time>2021-03-07T13:27:09.280Z</time>
      </trkpt>
      <trkpt lat="48.60326" lon="2.13184">
        <ele>97</ele>
        <time>2021-03-07T13:27:10.280Z</time>
      </trkpt>
      <trkpt lat="48.60326" lon="2.13183">
        <ele>97</ele>
        <time>2021-03-07T13:27:11.279Z</time>
      </trkpt>
      <trkpt lat="48.60326" lon="2.13182">
        <ele>97</ele>
        <time>2021-03-07T13:27:12.280Z</time>
      </trkpt>
      <trkpt lat="48.60326" lon="2.13182">
        <ele>97</ele>
        <time>2021-03-07T13:27:13.280Z</time>
      </trkpt>
      <trkpt lat="48.60326" lon="2.13182">
        <ele>97</ele>
        <time>2021-03-07T13:27:14.280Z</time>
      </trkpt>
      <trkpt lat="48.60326" lon="2.13182">
        <ele>97</ele>
        <time>2021-03-07T13:27:15.280Z</time>
      </trkpt>
      <trkpt lat="48.60326" lon="2.13182">
        <ele>97</ele>
        <time>2021-03-07T13:27:16.280Z</time>
      </trkpt>
      <trkpt lat="48.60326" lon="2.13182">
        <ele>97</ele>
        <time>2021-03-07T13:27:17.279Z</time>
      </trkpt>
      <trkpt lat="48.60326" lon="2.13182">
        <ele>97</ele>
        <time>2021-03-07T13:27:18.280Z</time>
      </trkpt>
      <trkpt lat="48.60326" lon="2.13181">
        <ele>97</ele>
        <time>2021-03-07T13:27:19.279Z</time>
      </trkpt>
      <trkpt lat="48.60326" lon="2.1318">
        <ele>97</ele>
        <time>2021-03-07T13:27:20.279Z</time>
      </trkpt>
      <trkpt lat="48.60326" lon="2.13177">
        <ele>97</ele>
        <time>2021-03-07T13:27:21.279Z</time>
      </trkpt>
      <trkpt lat="48.60326" lon="2.13175">
        <ele>97</ele>
        <time>2021-03-07T13:27:22.280Z</time>
      </trkpt>
      <trkpt lat="48.60325" lon="2.13173">
        <ele>97</ele>
        <time>2021-03-07T13:27:23.280Z</time>
      </trkpt>
      <trkpt lat="48.60325" lon="2.13171">
        <ele>97</ele>
        <time>2021-03-07T13:27:24.280Z</time>
      </trkpt>
      <trkpt lat="48.60325" lon="2.13168">
        <ele>96</ele>
        <time>2021-03-07T13:27:25.280Z</time>
      </trkpt>
      <trkpt lat="48.60325" lon="2.13166">
        <ele>96</ele>
        <time>2021-03-07T13:27:26.280Z</time>
      </trkpt>
      <trkpt lat="48.60325" lon="2.13164">
        <ele>95</ele>
        <time>2021-03-07T13:27:27.280Z</time>
      </trkpt>
      <trkpt lat="48.60325" lon="2.13162">
        <ele>95</ele>
        <time>2021-03-07T13:27:28.280Z</time>
      </trkpt>
      <trkpt lat="48.60324" lon="2.1316">
        <ele>95</ele>
        <time>2021-03-07T13:27:29.280Z</time>
      </trkpt>
      <trkpt lat="48.60324" lon="2.13157">
        <ele>95</ele>
        <time>2021-03-07T13:27:30.280Z</time>
      </trkpt>
      <trkpt lat="48.60324" lon="2.13155">
        <ele>95</ele>
        <time>2021-03-07T13:27:31.280Z</time>
      </trkpt>
      <trkpt lat="48.60324" lon="2.13152">
        <ele>94</ele>
        <time>2021-03-07T13:27:32.279Z</time>
      </trkpt>
      <trkpt lat="48.60324" lon="2.1315">
        <ele>94</ele>
        <time>2021-03-07T13:27:33.280Z</time>
      </trkpt>
      <trkpt lat="48.60323" lon="2.13147">
        <ele>94</ele>
        <time>2021-03-07T13:27:34.280Z</time>
      </trkpt>
      <trkpt lat="48.60323" lon="2.13145">
        <ele>94</ele>
        <time>2021-03-07T13:27:35.279Z</time>
      </trkpt>
      <trkpt lat="48.60323" lon="2.13143">
        <ele>95</ele>
        <time>2021-03-07T13:27:36.280Z</time>
      </trkpt>
      <trkpt lat="48.60322" lon="2.1314">
        <ele>95</ele>
        <time>2021-03-07T13:27:37.280Z</time>
      </trkpt>
      <trkpt lat="48.60322" lon="2.13138">
        <ele>96</ele>
        <time>2021-03-07T13:27:38.280Z</time>
      </trkpt>
      <trkpt lat="48.60322" lon="2.13136">
        <ele>96</ele>
        <time>2021-03-07T13:27:39.279Z</time>
      </trkpt>
      <trkpt lat="48.60322" lon="2.13133">
        <ele>95</ele>
        <time>2021-03-07T13:27:40.280Z</time>
      </trkpt>
      <trkpt lat="48.60322" lon="2.13131">
        <ele>96</ele>
        <time>2021-03-07T13:27:41.280Z</time>
      </trkpt>
      <trkpt lat="48.60322" lon="2.13129">
        <ele>96</ele>
        <time>2021-03-07T13:27:42.279Z</time>
      </trkpt>
      <trkpt lat="48.60321" lon="2.13127">
        <ele>96</ele>
        <time>2021-03-07T13:27:43.280Z</time>
      </trkpt>
      <trkpt lat="48.60321" lon="2.13125">
        <ele>96</ele>
        <time>2021-03-07T13:27:44.279Z</time>
      </trkpt>
      <trkpt lat="48.60321" lon="2.13123">
        <ele>96</ele>
        <time>2021-03-07T13:27:45.280Z</time>
      </trkpt>
      <trkpt lat="48.60321" lon="2.13121">
        <ele>97</ele>
        <time>2021-03-07T13:27:46.279Z</time>
      </trkpt>
      <trkpt lat="48.60321" lon="2.13119">
        <ele>97</ele>
        <time>2021-03-07T13:27:47.279Z</time>
      </trkpt>
      <trkpt lat="48.60321" lon="2.13116">
        <ele>98</ele>
        <time>2021-03-07T13:27:48.280Z</time>
      </trkpt>
      <trkpt lat="48.60321" lon="2.13114">
        <ele>99</ele>
        <time>2021-03-07T13:27:49.279Z</time>
      </trkpt>
      <trkpt lat="48.6032" lon="2.13112">
        <ele>100</ele>
        <time>2021-03-07T13:27:50.280Z</time>
      </trkpt>
      <trkpt lat="48.6032" lon="2.1311">
        <ele>102</ele>
        <time>2021-03-07T13:27:51.279Z</time>
      </trkpt>
      <trkpt lat="48.6032" lon="2.13108">
        <ele>103</ele>
        <time>2021-03-07T13:27:52.279Z</time>
      </trkpt>
      <trkpt lat="48.6032" lon="2.13106">
        <ele>103</ele>
        <time>2021-03-07T13:27:53.280Z</time>
      </trkpt>
      <trkpt lat="48.6032" lon="2.13104">
        <ele>104</ele>
        <time>2021-03-07T13:27:54.280Z</time>
      </trkpt>
      <trkpt lat="48.60319" lon="2.13102">
        <ele>104</ele>
        <time>2021-03-07T13:27:55.280Z</time>
      </trkpt>
      <trkpt lat="48.60319" lon="2.13099">
        <ele>104</ele>
        <time>2021-03-07T13:27:56.280Z</time>
      </trkpt>
      <trkpt lat="48.60319" lon="2.13096">
        <ele>104</ele>
        <time>2021-03-07T13:27:57.280Z</time>
      </trkpt>
      <trkpt lat="48.60319" lon="2.13094">
        <ele>104</ele>
        <time>2021-03-07T13:27:58.279Z</time>
      </trkpt>
      <trkpt lat="48.60318" lon="2.13091">
        <ele>105</ele>
        <time>2021-03-07T13:27:59.279Z</time>
      </trkpt>
      <trkpt lat="48.60318" lon="2.13089">
        <ele>105</ele>
        <time>2021-03-07T13:28:00.280Z</time>
      </trkpt>
      <trkpt lat="48.60318" lon="2.13087">
        <ele>106</ele>
        <time>2021-03-07T13:28:01.280Z</time>
      </trkpt>
      <trkpt lat="48.60317" lon="2.13085">
        <ele>106</ele>
        <time>2021-03-07T13:28:02.280Z</time>
      </trkpt>
      <trkpt lat="48.60317" lon="2.13083">
        <ele>107</ele>
        <time>2021-03-07T13:28:03.280Z</time>
      </trkpt>
      <trkpt lat="48.60317" lon="2.13081">
        <ele>107</ele>
        <time>2021-03-07T13:28:04.279Z</time>
      </trkpt>
      <trkpt lat="48.60317" lon="2.13078">
        <ele>107</ele>
        <time>2021-03-07T13:28:05.280Z</time>
      </trkpt>
      <trkpt lat="48.60317" lon="2.13076">
        <ele>107</ele>
        <time>2021-03-07T13:28:06.280Z</time>
      </trkpt>
      <trkpt lat="48.60316" lon="2.13074">
        <ele>106</ele>
        <time>2021-03-07T13:28:07.280Z</time>
      </trkpt>
      <trkpt lat="48.60316" lon="2.13071">
        <ele>105</ele>
        <time>2021-03-07T13:28:08.279Z</time>
      </trkpt>
      <trkpt lat="48.60316" lon="2.13069">
        <ele>105</ele>
        <time>2021-03-07T13:28:09.279Z</time>
      </trkpt>
      <trkpt lat="48.60315" lon="2.13066">
        <ele>105</ele>
        <time>2021-03-07T13:28:10.279Z</time>
      </trkpt>
      <trkpt lat="48.60315" lon="2.13064">
        <ele>105</ele>
        <time>2021-03-07T13:28:11.279Z</time>
      </trkpt>
      <trkpt lat="48.60314" lon="2.13061">
        <ele>104</ele>
        <time>2021-03-07T13:28:12.280Z</time>
      </trkpt>
      <trkpt lat="48.60314" lon="2.13059">
        <ele>104</ele>
        <time>2021-03-07T13:28:13.280Z</time>
      </trkpt>
      <trkpt lat="48.60314" lon="2.13056">
        <ele>104</ele>
        <time>2021-03-07T13:28:14.280Z</time>
      </trkpt>
      <trkpt lat="48.60314" lon="2.13054">
        <ele>103</ele>
        <time>2021-03-07T13:28:15.279Z</time>
      </trkpt>
      <trkpt lat="48.60314" lon="2.13052">
        <ele>102</ele>
        <time>2021-03-07T13:28:16.280Z</time>
      </trkpt>
      <trkpt lat="48.60314" lon="2.1305">
        <ele>101</ele>
        <time>2021-03-07T13:28:17.280Z</time>
      </trkpt>
      <trkpt lat="48.60314" lon="2.13048">
        <ele>100</ele>
        <time>2021-03-07T13:28:18.280Z</time>
      </trkpt>
      <trkpt lat="48.60314" lon="2.13045">
        <ele>99</ele>
        <time>2021-03-07T13:28:19.280Z</time>
      </trkpt>
      <trkpt lat="48.60314" lon="2.13043">
        <ele>99</ele>
        <time>2021-03-07T13:28:20.279Z</time>
      </trkpt>
      <trkpt lat="48.60314" lon="2.13041">
        <ele>99</ele>
        <time>2021-03-07T13:28:21.280Z</time>
      </trkpt>
      <trkpt lat="48.60314" lon="2.13038">
        <ele>99</ele>
        <time>2021-03-07T13:28:22.280Z</time>
      </trkpt>
      <trkpt lat="48.60314" lon="2.13036">
        <ele>99</ele>
        <time>2021-03-07T13:28:23.279Z</time>
      </trkpt>
      <trkpt lat="48.60315" lon="2.13034">
        <ele>99</ele>
        <time>2021-03-07T13:28:24.280Z</time>
      </trkpt>
      <trkpt lat="48.60315" lon="2.13032">
        <ele>98</ele>
        <time>2021-03-07T13:28:25.280Z</time>
      </trkpt>
      <trkpt lat="48.60315" lon="2.1303">
        <ele>98</ele>
        <time>2021-03-07T13:28:26.280Z</time>
      </trkpt>
      <trkpt lat="48.60316" lon="2.13027">
        <ele>98</ele>
        <time>2021-03-07T13:28:27.279Z</time>
      </trkpt>
      <trkpt lat="48.60317" lon="2.13025">
        <ele>98</ele>
        <time>2021-03-07T13:28:28.280Z</time>
      </trkpt>
      <trkpt lat="48.60319" lon="2.13023">
        <ele>97</ele>
        <time>2021-03-07T13:28:29.280Z</time>
      </trkpt>
      <trkpt lat="48.6032" lon="2.13021">
        <ele>97</ele>
        <time>2021-03-07T13:28:30.280Z</time>
      </trkpt>
      <trkpt lat="48.60321" lon="2.1302">
        <ele>97</ele>
        <time>2021-03-07T13:28:31.280Z</time>
      </trkpt>
      <trkpt lat="48.60322" lon="2.13019">
        <ele>97</ele>
        <time>2021-03-07T13:28:32.279Z</time>
      </trkpt>
      <trkpt lat="48.60324" lon="2.13019">
        <ele>97</ele>
        <time>2021-03-07T13:28:33.280Z</time>
      </trkpt>
      <trkpt lat="48.60325" lon="2.13019">
        <ele>96</ele>
        <time>2021-03-07T13:28:34.280Z</time>
      </trkpt>
      <trkpt lat="48.60327" lon="2.13018">
        <ele>95</ele>
        <time>2021-03-07T13:28:35.279Z</time>
      </trkpt>
      <trkpt lat="48.60328" lon="2.13017">
        <ele>95</ele>
        <time>2021-03-07T13:28:36.279Z</time>
      </trkpt>
      <trkpt lat="48.6033" lon="2.13016">
        <ele>96</ele>
        <time>2021-03-07T13:28:37.280Z</time>
      </trkpt>
      <trkpt lat="48.60331" lon="2.13015">
        <ele>96</ele>
        <time>2021-03-07T13:28:38.279Z</time>
      </trkpt>
      <trkpt lat="48.60333" lon="2.13014">
        <ele>96</ele>
        <time>2021-03-07T13:28:39.280Z</time>
      </trkpt>
      <trkpt lat="48.60334" lon="2.13014">
        <ele>97</ele>
        <time>2021-03-07T13:28:40.280Z</time>
      </trkpt>
      <trkpt lat="48.60336" lon="2.13013">
        <ele>97</ele>
        <time>2021-03-07T13:28:41.280Z</time>
      </trkpt>
      <trkpt lat="48.60337" lon="2.13012">
        <ele>97</ele>
        <time>2021-03-07T13:28:42.280Z</time>
      </trkpt>
      <trkpt lat="48.60339" lon="2.13012">
        <ele>97</ele>
        <time>2021-03-07T13:28:43.280Z</time>
      </trkpt>
      <trkpt lat="48.6034" lon="2.13011">
        <ele>97</ele>
        <time>2021-03-07T13:28:44.280Z</time>
      </trkpt>
      <trkpt lat="48.60342" lon="2.1301">
        <ele>97</ele>
        <time>2021-03-07T13:28:45.280Z</time>
      </trkpt>
      <trkpt lat="48.60343" lon="2.13009">
        <ele>96</ele>
        <time>2021-03-07T13:28:46.280Z</time>
      </trkpt>
      <trkpt lat="48.60345" lon="2.13008">
        <ele>96</ele>
        <time>2021-03-07T13:28:47.280Z</time>
      </trkpt>
      <trkpt lat="48.60347" lon="2.13008">
        <ele>96</ele>
        <time>2021-03-07T13:28:48.280Z</time>
      </trkpt>
      <trkpt lat="48.60348" lon="2.13007">
        <ele>96</ele>
        <time>2021-03-07T13:28:49.280Z</time>
      </trkpt>
      <trkpt lat="48.6035" lon="2.13006">
        <ele>97</ele>
        <time>2021-03-07T13:28:50.280Z</time>
      </trkpt>
      <trkpt lat="48.60351" lon="2.13005">
        <ele>97</ele>
        <time>2021-03-07T13:28:51.279Z</time>
      </trkpt>
      <trkpt lat="48.60353" lon="2.13005">
        <ele>97</ele>
        <time>2021-03-07T13:28:52.280Z</time>
      </trkpt>
      <trkpt lat="48.60354" lon="2.13004">
        <ele>97</ele>
        <time>2021-03-07T13:28:53.280Z</time>
      </trkpt>
      <trkpt lat="48.60356" lon="2.13003">
        <ele>97</ele>
        <time>2021-03-07T13:28:54.279Z</time>
      </trkpt>
      <trkpt lat="48.60358" lon="2.13002">
        <ele>97</ele>
        <time>2021-03-07T13:28:55.280Z</time>
      </trkpt>
      <trkpt lat="48.60359" lon="2.13002">
        <ele>97</ele>
        <time>2021-03-07T13:28:56.280Z</time>
      </trkpt>
      <trkpt lat="48.60361" lon="2.13001">
        <ele>96</ele>
        <time>2021-03-07T13:28:57.279Z</time>
      </trkpt>
      <trkpt lat="48.60363" lon="2.13">
        <ele>96</ele>
        <time>2021-03-07T13:28:58.280Z</time>
      </trkpt>
      <trkpt lat="48.60364" lon="2.12999">
        <ele>96</ele>
        <time>2021-03-07T13:28:59.280Z</time>
      </trkpt>
      <trkpt lat="48.60366" lon="2.12998">
        <ele>96</ele>
        <time>2021-03-07T13:29:00.280Z</time>
      </trkpt>
      <trkpt lat="48.60367" lon="2.12997">
        <ele>95</ele>
        <time>2021-03-07T13:29:01.280Z</time>
      </trkpt>
      <trkpt lat="48.60368" lon="2.12997">
        <ele>95</ele>
        <time>2021-03-07T13:29:02.280Z</time>
      </trkpt>
      <trkpt lat="48.60369" lon="2.12997">
        <ele>95</ele>
        <time>2021-03-07T13:29:03.279Z</time>
      </trkpt>
      <trkpt lat="48.6037" lon="2.12996">
        <ele>96</ele>
        <time>2021-03-07T13:29:04.279Z</time>
      </trkpt>
      <trkpt lat="48.6037" lon="2.12995">
        <ele>96</ele>
        <time>2021-03-07T13:29:05.280Z</time>
      </trkpt>
      <trkpt lat="48.60371" lon="2.12994">
        <ele>96</ele>
        <time>2021-03-07T13:29:06.280Z</time>
      </trkpt>
      <trkpt lat="48.60372" lon="2.12994">
        <ele>97</ele>
        <time>2021-03-07T13:29:07.280Z</time>
      </trkpt>
      <trkpt lat="48.60373" lon="2.12994">
        <ele>96</ele>
        <time>2021-03-07T13:29:08.280Z</time>
      </trkpt>
      <trkpt lat="48.60375" lon="2.12994">
        <ele>96</ele>
        <time>2021-03-07T13:29:09.280Z</time>
      </trkpt>
      <trkpt lat="48.60376" lon="2.12993">
        <ele>96</ele>
        <time>2021-03-07T13:29:10.280Z</time>
      </trkpt>
      <trkpt lat="48.60378" lon="2.12993">
        <ele>96</ele>
        <time>2021-03-07T13:29:11.280Z</time>
      </trkpt>
      <trkpt lat="48.60379" lon="2.12992">
        <ele>96</ele>
        <time>2021-03-07T13:29:12.280Z</time>
      </trkpt>
      <trkpt lat="48.60381" lon="2.12991">
        <ele>96</ele>
        <time>2021-03-07T13:29:13.280Z</time>
      </trkpt>
      <trkpt lat="48.60382" lon="2.1299">
        <ele>97</ele>
        <time>2021-03-07T13:29:14.280Z</time>
      </trkpt>
      <trkpt lat="48.60384" lon="2.1299">
        <ele>97</ele>
        <time>2021-03-07T13:29:15.279Z</time>
      </trkpt>
      <trkpt lat="48.60385" lon="2.12989">
        <ele>97</ele>
        <time>2021-03-07T13:29:16.280Z</time>
      </trkpt>
      <trkpt lat="48.60387" lon="2.12988">
        <ele>96</ele>
        <time>2021-03-07T13:29:17.280Z</time>
      </trkpt>
      <trkpt lat="48.60388" lon="2.12988">
        <ele>96</ele>
        <time>2021-03-07T13:29:18.280Z</time>
      </trkpt>
      <trkpt lat="48.6039" lon="2.12987">
        <ele>96</ele>
        <time>2021-03-07T13:29:19.280Z</time>
      </trkpt>
      <trkpt lat="48.60392" lon="2.12986">
        <ele>96</ele>
        <time>2021-03-07T13:29:20.280Z</time>
      </trkpt>
      <trkpt lat="48.60393" lon="2.12985">
        <ele>96</ele>
        <time>2021-03-07T13:29:21.280Z</time>
      </trkpt>
      <trkpt lat="48.60395" lon="2.12985">
        <ele>97</ele>
        <time>2021-03-07T13:29:22.280Z</time>
      </trkpt>
      <trkpt lat="48.60396" lon="2.12984">
        <ele>97</ele>
        <time>2021-03-07T13:29:23.279Z</time>
      </trkpt>
      <trkpt lat="48.60398" lon="2.12983">
        <ele>98</ele>
        <time>2021-03-07T13:29:24.280Z</time>
      </trkpt>
      <trkpt lat="48.60399" lon="2.12983">
        <ele>98</ele>
        <time>2021-03-07T13:29:25.280Z</time>
      </trkpt>
      <trkpt lat="48.60401" lon="2.12982">
        <ele>98</ele>
        <time>2021-03-07T13:29:26.280Z</time>
      </trkpt>
      <trkpt lat="48.60402" lon="2.12982">
        <ele>98</ele>
        <time>2021-03-07T13:29:27.280Z</time>
      </trkpt>
      <trkpt lat="48.60404" lon="2.12982">
        <ele>98</ele>
        <time>2021-03-07T13:29:28.280Z</time>
      </trkpt>
      <trkpt lat="48.60405" lon="2.12981">
        <ele>98</ele>
        <time>2021-03-07T13:29:29.279Z</time>
      </trkpt>
      <trkpt lat="48.60407" lon="2.1298">
        <ele>98</ele>
        <time>2021-03-07T13:29:30.280Z</time>
      </trkpt>
      <trkpt lat="48.60408" lon="2.12979">
        <ele>98</ele>
        <time>2021-03-07T13:29:31.280Z</time>
      </trkpt>
      <trkpt lat="48.6041" lon="2.12978">
        <ele>98</ele>
        <time>2021-03-07T13:29:32.280Z</time>
      </trkpt>
      <trkpt lat="48.60411" lon="2.12977">
        <ele>99</ele>
        <time>2021-03-07T13:29:33.280Z</time>
      </trkpt>
      <trkpt lat="48.60413" lon="2.12976">
        <ele>99</ele>
        <time>2021-03-07T13:29:34.280Z</time>
      </trkpt>
      <trkpt lat="48.60414" lon="2.12975">
        <ele>98</ele>
        <time>2021-03-07T13:29:35.280Z</time>
      </trkpt>
      <trkpt lat="48.60416" lon="2.12975">
        <ele>98</ele>
        <time>2021-03-07T13:29:36.280Z</time>
      </trkpt>
      <trkpt lat="48.60417" lon="2.12974">
        <ele>98</ele>
        <time>2021-03-07T13:29:37.280Z</time>
      </trkpt>
      <trkpt lat="48.60419" lon="2.12973">
        <ele>97</ele>
        <time>2021-03-07T13:29:38.279Z</time>
      </trkpt>
      <trkpt lat="48.6042" lon="2.12973">
        <ele>97</ele>
        <time>2021-03-07T13:29:39.280Z</time>
      </trkpt>
      <trkpt lat="48.60422" lon="2.12972">
        <ele>96</ele>
        <time>2021-03-07T13:29:40.280Z</time>
      </trkpt>
      <trkpt lat="48.60423" lon="2.12972">
        <ele>96</ele>
        <time>2021-03-07T13:29:41.280Z</time>
      </trkpt>
      <trkpt lat="48.60425" lon="2.12971">
        <ele>95</ele>
        <time>2021-03-07T13:29:42.280Z</time>
      </trkpt>
      <trkpt lat="48.60426" lon="2.1297">
        <ele>95</ele>
        <time>2021-03-07T13:29:43.280Z</time>
      </trkpt>
      <trkpt lat="48.60428" lon="2.1297">
        <ele>96</ele>
        <time>2021-03-07T13:29:44.280Z</time>
      </trkpt>
      <trkpt lat="48.60429" lon="2.12969">
        <ele>96</ele>
        <time>2021-03-07T13:29:45.280Z</time>
      </trkpt>
      <trkpt lat="48.60431" lon="2.12968">
        <ele>96</ele>
        <time>2021-03-07T13:29:46.280Z</time>
      </trkpt>
      <trkpt lat="48.60432" lon="2.12967">
        <ele>96</ele>
        <time>2021-03-07T13:29:47.280Z</time>
      </trkpt>
      <trkpt lat="48.60434" lon="2.12967">
        <ele>96</ele>
        <time>2021-03-07T13:29:48.280Z</time>
      </trkpt>
      <trkpt lat="48.60436" lon="2.12966">
        <ele>96</ele>
        <time>2021-03-07T13:29:49.280Z</time>
      </trkpt>
      <trkpt lat="48.60437" lon="2.12966">
        <ele>97</ele>
        <time>2021-03-07T13:29:50.279Z</time>
      </trkpt>
      <trkpt lat="48.60439" lon="2.12965">
        <ele>97</ele>
        <time>2021-03-07T13:29:51.280Z</time>
      </trkpt>
      <trkpt lat="48.6044" lon="2.12964">
        <ele>97</ele>
        <time>2021-03-07T13:29:52.280Z</time>
      </trkpt>
      <trkpt lat="48.60442" lon="2.12964">
        <ele>98</ele>
        <time>2021-03-07T13:29:53.280Z</time>
      </trkpt>
      <trkpt lat="48.60443" lon="2.12963">
        <ele>98</ele>
        <time>2021-03-07T13:29:54.280Z</time>
      </trkpt>
      <trkpt lat="48.60445" lon="2.12962">
        <ele>99</ele>
        <time>2021-03-07T13:29:55.280Z</time>
      </trkpt>
      <trkpt lat="48.60446" lon="2.12962">
        <ele>99</ele>
        <time>2021-03-07T13:29:56.280Z</time>
      </trkpt>
      <trkpt lat="48.60448" lon="2.12961">
        <ele>99</ele>
        <time>2021-03-07T13:29:57.280Z</time>
      </trkpt>
      <trkpt lat="48.60449" lon="2.1296">
        <ele>99</ele>
        <time>2021-03-07T13:29:58.280Z</time>
      </trkpt>
      <trkpt lat="48.6045" lon="2.12959">
        <ele>99</ele>
        <time>2021-03-07T13:29:59.279Z</time>
      </trkpt>
      <trkpt lat="48.60452" lon="2.12958">
        <ele>99</ele>
        <time>2021-03-07T13:30:00.280Z</time>
      </trkpt>
      <trkpt lat="48.60454" lon="2.12957">
        <ele>99</ele>
        <time>2021-03-07T13:30:01.280Z</time>
      </trkpt>
      <trkpt lat="48.60455" lon="2.12957">
        <ele>99</ele>
        <time>2021-03-07T13:30:02.280Z</time>
      </trkpt>
      <trkpt lat="48.60457" lon="2.12956">
        <ele>99</ele>
        <time>2021-03-07T13:30:03.280Z</time>
      </trkpt>
      <trkpt lat="48.60459" lon="2.12955">
        <ele>99</ele>
        <time>2021-03-07T13:30:04.280Z</time>
      </trkpt>
      <trkpt lat="48.60461" lon="2.12954">
        <ele>98</ele>
        <time>2021-03-07T13:30:05.280Z</time>
      </trkpt>
      <trkpt lat="48.60462" lon="2.12953">
        <ele>99</ele>
        <time>2021-03-07T13:30:06.279Z</time>
      </trkpt>
      <trkpt lat="48.60464" lon="2.12952">
        <ele>99</ele>
        <time>2021-03-07T13:30:07.280Z</time>
      </trkpt>
      <trkpt lat="48.60466" lon="2.12951">
        <ele>99</ele>
        <time>2021-03-07T13:30:08.280Z</time>
      </trkpt>
      <trkpt lat="48.60468" lon="2.1295">
        <ele>98</ele>
        <time>2021-03-07T13:30:09.280Z</time>
      </trkpt>
      <trkpt lat="48.6047" lon="2.12949">
        <ele>98</ele>
        <time>2021-03-07T13:30:10.280Z</time>
      </trkpt>
      <trkpt lat="48.60471" lon="2.12949">
        <ele>98</ele>
        <time>2021-03-07T13:30:11.279Z</time>
      </trkpt>
      <trkpt lat="48.60473" lon="2.12948">
        <ele>98</ele>
        <time>2021-03-07T13:30:12.280Z</time>
      </trkpt>
      <trkpt lat="48.60474" lon="2.12947">
        <ele>97</ele>
        <time>2021-03-07T13:30:13.280Z</time>
      </trkpt>
      <trkpt lat="48.60476" lon="2.12946">
        <ele>97</ele>
        <time>2021-03-07T13:30:14.280Z</time>
      </trkpt>
      <trkpt lat="48.60478" lon="2.12946">
        <ele>96</ele>
        <time>2021-03-07T13:30:15.280Z</time>
      </trkpt>
      <trkpt lat="48.60479" lon="2.12945">
        <ele>96</ele>
        <time>2021-03-07T13:30:16.280Z</time>
      </trkpt>
      <trkpt lat="48.60481" lon="2.12944">
        <ele>96</ele>
        <time>2021-03-07T13:30:17.280Z</time>
      </trkpt>
      <trkpt lat="48.60482" lon="2.12944">
        <ele>96</ele>
        <time>2021-03-07T13:30:18.280Z</time>
      </trkpt>
      <trkpt lat="48.60484" lon="2.12943">
        <ele>96</ele>
        <time>2021-03-07T13:30:19.279Z</time>
      </trkpt>
      <trkpt lat="48.60486" lon="2.12942">
        <ele>96</ele>
        <time>2021-03-07T13:30:20.280Z</time>
      </trkpt>
      <trkpt lat="48.60487" lon="2.12941">
        <ele>96</ele>
        <time>2021-03-07T13:30:21.280Z</time>
      </trkpt>
      <trkpt lat="48.60489" lon="2.12941">
        <ele>96</ele>
        <time>2021-03-07T13:30:22.280Z</time>
      </trkpt>
      <trkpt lat="48.6049" lon="2.1294">
        <ele>95</ele>
        <time>2021-03-07T13:30:23.280Z</time>
      </trkpt>
      <trkpt lat="48.60492" lon="2.12939">
        <ele>95</ele>
        <time>2021-03-07T13:30:24.280Z</time>
      </trkpt>
      <trkpt lat="48.60494" lon="2.12939">
        <ele>95</ele>
        <time>2021-03-07T13:30:25.280Z</time>
      </trkpt>
      <trkpt lat="48.60495" lon="2.12938">
        <ele>94</ele>
        <time>2021-03-07T13:30:26.280Z</time>
      </trkpt>
      <trkpt lat="48.60497" lon="2.12937">
        <ele>94</ele>
        <time>2021-03-07T13:30:27.280Z</time>
      </trkpt>
      <trkpt lat="48.60499" lon="2.12937">
        <ele>94</ele>
        <time>2021-03-07T13:30:28.280Z</time>
      </trkpt>
      <trkpt lat="48.605" lon="2.12936">
        <ele>93</ele>
        <time>2021-03-07T13:30:29.280Z</time>
      </trkpt>
      <trkpt lat="48.60502" lon="2.12935">
        <ele>93</ele>
        <time>2021-03-07T13:30:30.280Z</time>
      </trkpt>
      <trkpt lat="48.60503" lon="2.12935">
        <ele>92</ele>
        <time>2021-03-07T13:30:31.279Z</time>
      </trkpt>
      <trkpt lat="48.60505" lon="2.12934">
        <ele>92</ele>
        <time>2021-03-07T13:30:32.280Z</time>
      </trkpt>
      <trkpt lat="48.60506" lon="2.12934">
        <ele>92</ele>
        <time>2021-03-07T13:30:33.280Z</time>
      </trkpt>
      <trkpt lat="48.60507" lon="2.12933">
        <ele>91</ele>
        <time>2021-03-07T13:30:34.280Z</time>
      </trkpt>
      <trkpt lat="48.60509" lon="2.12932">
        <ele>91</ele>
        <time>2021-03-07T13:30:35.280Z</time>
      </trkpt>
      <trkpt lat="48.60511" lon="2.12931">
        <ele>90</ele>
        <time>2021-03-07T13:30:36.280Z</time>
      </trkpt>
      <trkpt lat="48.60512" lon="2.12931">
        <ele>90</ele>
        <time>2021-03-07T13:30:37.280Z</time>
      </trkpt>
      <trkpt lat="48.60514" lon="2.1293">
        <ele>89</ele>
        <time>2021-03-07T13:30:38.280Z</time>
      </trkpt>
      <trkpt lat="48.60515" lon="2.12929">
        <ele>89</ele>
        <time>2021-03-07T13:30:39.280Z</time>
      </trkpt>
      <trkpt lat="48.60517" lon="2.12929">
        <ele>89</ele>
        <time>2021-03-07T13:30:40.280Z</time>
      </trkpt>
      <trkpt lat="48.60518" lon="2.12928">
        <ele>89</ele>
        <time>2021-03-07T13:30:41.279Z</time>
      </trkpt>
      <trkpt lat="48.6052" lon="2.12927">
        <ele>89</ele>
        <time>2021-03-07T13:30:42.280Z</time>
      </trkpt>
      <trkpt lat="48.60522" lon="2.12925">
        <ele>89</ele>
        <time>2021-03-07T13:30:43.280Z</time>
      </trkpt>
      <trkpt lat="48.60523" lon="2.12924">
        <ele>89</ele>
        <time>2021-03-07T13:30:44.280Z</time>
      </trkpt>
      <trkpt lat="48.60525" lon="2.12924">
        <ele>89</ele>
        <time>2021-03-07T13:30:45.280Z</time>
      </trkpt>
      <trkpt lat="48.60526" lon="2.12923">
        <ele>90</ele>
        <time>2021-03-07T13:30:46.280Z</time>
      </trkpt>
      <trkpt lat="48.60528" lon="2.12922">
        <ele>90</ele>
        <time>2021-03-07T13:30:47.280Z</time>
      </trkpt>
      <trkpt lat="48.60529" lon="2.12921">
        <ele>90</ele>
        <time>2021-03-07T13:30:48.280Z</time>
      </trkpt>
      <trkpt lat="48.60531" lon="2.12921">
        <ele>89</ele>
        <time>2021-03-07T13:30:49.279Z</time>
      </trkpt>
      <trkpt lat="48.60532" lon="2.12919">
        <ele>89</ele>
        <time>2021-03-07T13:30:50.280Z</time>
      </trkpt>
      <trkpt lat="48.60534" lon="2.12918">
        <ele>89</ele>
        <time>2021-03-07T13:30:51.280Z</time>
      </trkpt>
      <trkpt lat="48.60535" lon="2.12917">
        <ele>90</ele>
        <time>2021-03-07T13:30:52.279Z</time>
      </trkpt>
      <trkpt lat="48.60537" lon="2.12916">
        <ele>90</ele>
        <time>2021-03-07T13:30:53.280Z</time>
      </trkpt>
      <trkpt lat="48.60538" lon="2.12915">
        <ele>90</ele>
        <time>2021-03-07T13:30:54.279Z</time>
      </trkpt>
      <trkpt lat="48.60539" lon="2.12914">
        <ele>90</ele>
        <time>2021-03-07T13:30:55.279Z</time>
      </trkpt>
      <trkpt lat="48.60541" lon="2.12913">
        <ele>89</ele>
        <time>2021-03-07T13:30:56.280Z</time>
      </trkpt>
      <trkpt lat="48.60542" lon="2.12912">
        <ele>89</ele>
        <time>2021-03-07T13:30:57.280Z</time>
      </trkpt>
      <trkpt lat="48.60544" lon="2.1291">
        <ele>89</ele>
        <time>2021-03-07T13:30:58.280Z</time>
      </trkpt>
      <trkpt lat="48.60545" lon="2.12909">
        <ele>89</ele>
        <time>2021-03-07T13:30:59.280Z</time>
      </trkpt>
      <trkpt lat="48.60547" lon="2.12908">
        <ele>89</ele>
        <time>2021-03-07T13:31:00.280Z</time>
      </trkpt>
      <trkpt lat="48.60548" lon="2.12907">
        <ele>89</ele>
        <time>2021-03-07T13:31:01.280Z</time>
      </trkpt>
      <trkpt lat="48.60549" lon="2.12906">
        <ele>89</ele>
        <time>2021-03-07T13:31:02.280Z</time>
      </trkpt>
      <trkpt lat="48.60551" lon="2.12905">
        <ele>89</ele>
        <time>2021-03-07T13:31:03.280Z</time>
      </trkpt>
      <trkpt lat="48.60552" lon="2.12905">
        <ele>89</ele>
        <time>2021-03-07T13:31:04.280Z</time>
      </trkpt>
      <trkpt lat="48.60553" lon="2.12903">
        <ele>89</ele>
        <time>2021-03-07T13:31:05.279Z</time>
      </trkpt>
      <trkpt lat="48.60555" lon="2.12902">
        <ele>89</ele>
        <time>2021-03-07T13:31:06.279Z</time>
      </trkpt>
      <trkpt lat="48.60556" lon="2.129">
        <ele>89</ele>
        <time>2021-03-07T13:31:07.280Z</time>
      </trkpt>
      <trkpt lat="48.60558" lon="2.12899">
        <ele>90</ele>
        <time>2021-03-07T13:31:08.280Z</time>
      </trkpt>
      <trkpt lat="48.6056" lon="2.12897">
        <ele>90</ele>
        <time>2021-03-07T13:31:09.279Z</time>
      </trkpt>
      <trkpt lat="48.60562" lon="2.12896">
        <ele>91</ele>
        <time>2021-03-07T13:31:10.280Z</time>
      </trkpt>
      <trkpt lat="48.60564" lon="2.12894">
        <ele>91</ele>
        <time>2021-03-07T13:31:11.280Z</time>
      </trkpt>
      <trkpt lat="48.60565" lon="2.12893">
        <ele>91</ele>
        <time>2021-03-07T13:31:12.280Z</time>
      </trkpt>
      <trkpt lat="48.60567" lon="2.12892">
        <ele>91</ele>
        <time>2021-03-07T13:31:13.279Z</time>
      </trkpt>
      <trkpt lat="48.60568" lon="2.12891">
        <ele>90</ele>
        <time>2021-03-07T13:31:14.279Z</time>
      </trkpt>
      <trkpt lat="48.60569" lon="2.1289">
        <ele>90</ele>
        <time>2021-03-07T13:31:15.280Z</time>
      </trkpt>
      <trkpt lat="48.60571" lon="2.12888">
        <ele>89</ele>
        <time>2021-03-07T13:31:16.279Z</time>
      </trkpt>
      <trkpt lat="48.60572" lon="2.12887">
        <ele>89</ele>
        <time>2021-03-07T13:31:17.280Z</time>
      </trkpt>
      <trkpt lat="48.60572" lon="2.12886">
        <ele>89</ele>
        <time>2021-03-07T13:31:18.280Z</time>
      </trkpt>
      <trkpt lat="48.60573" lon="2.12885">
        <ele>89</ele>
        <time>2021-03-07T13:31:19.280Z</time>
      </trkpt>
      <trkpt lat="48.60574" lon="2.12885">
        <ele>89</ele>
        <time>2021-03-07T13:31:20.279Z</time>
      </trkpt>
      <trkpt lat="48.60574" lon="2.12886">
        <ele>89</ele>
        <time>2021-03-07T13:31:21.280Z</time>
      </trkpt>
      <trkpt lat="48.60574" lon="2.12886">
        <ele>88</ele>
        <time>2021-03-07T13:31:22.280Z</time>
      </trkpt>
      <trkpt lat="48.60574" lon="2.12886">
        <ele>89</ele>
        <time>2021-03-07T13:31:23.280Z</time>
      </trkpt>
      <trkpt lat="48.60574" lon="2.12886">
        <ele>89</ele>
        <time>2021-03-07T13:31:24.280Z</time>
      </trkpt>
      <trkpt lat="48.60574" lon="2.12886">
        <ele>89</ele>
        <time>2021-03-07T13:31:25.279Z</time>
      </trkpt>
      <trkpt lat="48.60574" lon="2.12886">
        <ele>89</ele>
        <time>2021-03-07T13:31:26.280Z</time>
      </trkpt>
      <trkpt lat="48.60574" lon="2.12886">
        <ele>89</ele>
        <time>2021-03-07T13:31:27.280Z</time>
      </trkpt>
      <trkpt lat="48.60574" lon="2.12886">
        <ele>89</ele>
        <time>2021-03-07T13:31:28.280Z</time>
      </trkpt>
      <trkpt lat="48.60574" lon="2.12886">
        <ele>89</ele>
        <time>2021-03-07T13:31:29.280Z</time>
      </trkpt>
      <trkpt lat="48.60574" lon="2.12886">
        <ele>89</ele>
        <time>2021-03-07T13:31:30.280Z</time>
      </trkpt>
      <trkpt lat="48.60575" lon="2.12886">
        <ele>88</ele>
        <time>2021-03-07T13:31:31.279Z</time>
      </trkpt>
      <trkpt lat="48.60576" lon="2.12886">
        <ele>88</ele>
        <time>2021-03-07T13:31:32.279Z</time>
      </trkpt>
      <trkpt lat="48.60577" lon="2.12885">
        <ele>88</ele>
        <time>2021-03-07T13:31:33.279Z</time>
      </trkpt>
      <trkpt lat="48.60579" lon="2.12884">
        <ele>88</ele>
        <time>2021-03-07T13:31:34.280Z</time>
      </trkpt>
      <trkpt lat="48.6058" lon="2.12882">
        <ele>88</ele>
        <time>2021-03-07T13:31:35.279Z</time>
      </trkpt>
      <trkpt lat="48.60581" lon="2.1288">
        <ele>88</ele>
        <time>2021-03-07T13:31:36.280Z</time>
      </trkpt>
      <trkpt lat="48.60583" lon="2.12879">
        <ele>88</ele>
        <time>2021-03-07T13:31:37.280Z</time>
      </trkpt>
      <trkpt lat="48.60584" lon="2.12877">
        <ele>88</ele>
        <time>2021-03-07T13:31:38.280Z</time>
      </trkpt>
      <trkpt lat="48.60585" lon="2.12876">
        <ele>88</ele>
        <time>2021-03-07T13:31:39.280Z</time>
      </trkpt>
      <trkpt lat="48.60587" lon="2.12875">
        <ele>87</ele>
        <time>2021-03-07T13:31:40.279Z</time>
      </trkpt>
      <trkpt lat="48.60588" lon="2.12873">
        <ele>87</ele>
        <time>2021-03-07T13:31:41.280Z</time>
      </trkpt>
      <trkpt lat="48.60589" lon="2.12872">
        <ele>87</ele>
        <time>2021-03-07T13:31:42.280Z</time>
      </trkpt>
      <trkpt lat="48.60591" lon="2.1287">
        <ele>87</ele>
        <time>2021-03-07T13:31:43.280Z</time>
      </trkpt>
      <trkpt lat="48.60592" lon="2.12868">
        <ele>87</ele>
        <time>2021-03-07T13:31:44.280Z</time>
      </trkpt>
      <trkpt lat="48.60593" lon="2.12867">
        <ele>86</ele>
        <time>2021-03-07T13:31:45.280Z</time>
      </trkpt>
      <trkpt lat="48.60594" lon="2.12866">
        <ele>86</ele>
        <time>2021-03-07T13:31:46.280Z</time>
      </trkpt>
      <trkpt lat="48.60595" lon="2.12864">
        <ele>86</ele>
        <time>2021-03-07T13:31:47.280Z</time>
      </trkpt>
      <trkpt lat="48.60596" lon="2.12862">
        <ele>85</ele>
        <time>2021-03-07T13:31:48.280Z</time>
      </trkpt>
      <trkpt lat="48.60598" lon="2.12861">
        <ele>85</ele>
        <time>2021-03-07T13:31:49.279Z</time>
      </trkpt>
      <trkpt lat="48.60599" lon="2.12859">
        <ele>85</ele>
        <time>2021-03-07T13:31:50.280Z</time>
      </trkpt>
      <trkpt lat="48.606" lon="2.12857">
        <ele>86</ele>
        <time>2021-03-07T13:31:51.280Z</time>
      </trkpt>
      <trkpt lat="48.60601" lon="2.12856">
        <ele>86</ele>
        <time>2021-03-07T13:31:52.279Z</time>
      </trkpt>
      <trkpt lat="48.60602" lon="2.12854">
        <ele>86</ele>
        <time>2021-03-07T13:31:53.280Z</time>
      </trkpt>
      <trkpt lat="48.60604" lon="2.12852">
        <ele>86</ele>
        <time>2021-03-07T13:31:54.280Z</time>
      </trkpt>
      <trkpt lat="48.60605" lon="2.12851">
        <ele>87</ele>
        <time>2021-03-07T13:31:55.280Z</time>
      </trkpt>
      <trkpt lat="48.60606" lon="2.12849">
        <ele>87</ele>
        <time>2021-03-07T13:31:56.279Z</time>
      </trkpt>
      <trkpt lat="48.60607" lon="2.12847">
        <ele>87</ele>
        <time>2021-03-07T13:31:57.280Z</time>
      </trkpt>
      <trkpt lat="48.60608" lon="2.12845">
        <ele>87</ele>
        <time>2021-03-07T13:31:58.279Z</time>
      </trkpt>
      <trkpt lat="48.60609" lon="2.12844">
        <ele>87</ele>
        <time>2021-03-07T13:31:59.279Z</time>
      </trkpt>
      <trkpt lat="48.60611" lon="2.12841">
        <ele>87</ele>
        <time>2021-03-07T13:32:00.280Z</time>
      </trkpt>
      <trkpt lat="48.60612" lon="2.1284">
        <ele>87</ele>
        <time>2021-03-07T13:32:01.279Z</time>
      </trkpt>
      <trkpt lat="48.60613" lon="2.12839">
        <ele>86</ele>
        <time>2021-03-07T13:32:02.279Z</time>
      </trkpt>
      <trkpt lat="48.60614" lon="2.12837">
        <ele>86</ele>
        <time>2021-03-07T13:32:03.280Z</time>
      </trkpt>
      <trkpt lat="48.60615" lon="2.12835">
        <ele>86</ele>
        <time>2021-03-07T13:32:04.279Z</time>
      </trkpt>
      <trkpt lat="48.60617" lon="2.12833">
        <ele>87</ele>
        <time>2021-03-07T13:32:05.280Z</time>
      </trkpt>
      <trkpt lat="48.60618" lon="2.12831">
        <ele>87</ele>
        <time>2021-03-07T13:32:06.280Z</time>
      </trkpt>
      <trkpt lat="48.60619" lon="2.12829">
        <ele>87</ele>
        <time>2021-03-07T13:32:07.280Z</time>
      </trkpt>
      <trkpt lat="48.6062" lon="2.12827">
        <ele>87</ele>
        <time>2021-03-07T13:32:08.280Z</time>
      </trkpt>
      <trkpt lat="48.60622" lon="2.12825">
        <ele>87</ele>
        <time>2021-03-07T13:32:09.280Z</time>
      </trkpt>
      <trkpt lat="48.60622" lon="2.12823">
        <ele>87</ele>
        <time>2021-03-07T13:32:10.280Z</time>
      </trkpt>
      <trkpt lat="48.60623" lon="2.12821">
        <ele>87</ele>
        <time>2021-03-07T13:32:11.280Z</time>
      </trkpt>
      <trkpt lat="48.60624" lon="2.12819">
        <ele>87</ele>
        <time>2021-03-07T13:32:12.280Z</time>
      </trkpt>
      <trkpt lat="48.60625" lon="2.12817">
        <ele>88</ele>
        <time>2021-03-07T13:32:13.280Z</time>
      </trkpt>
      <trkpt lat="48.60626" lon="2.12815">
        <ele>88</ele>
        <time>2021-03-07T13:32:14.279Z</time>
      </trkpt>
      <trkpt lat="48.60627" lon="2.12813">
        <ele>88</ele>
        <time>2021-03-07T13:32:15.280Z</time>
      </trkpt>
      <trkpt lat="48.60627" lon="2.12811">
        <ele>88</ele>
        <time>2021-03-07T13:32:16.280Z</time>
      </trkpt>
      <trkpt lat="48.60628" lon="2.12809">
        <ele>87</ele>
        <time>2021-03-07T13:32:17.280Z</time>
      </trkpt>
      <trkpt lat="48.60629" lon="2.12807">
        <ele>87</ele>
        <time>2021-03-07T13:32:18.280Z</time>
      </trkpt>
      <trkpt lat="48.60629" lon="2.12804">
        <ele>87</ele>
        <time>2021-03-07T13:32:19.280Z</time>
      </trkpt>
      <trkpt lat="48.6063" lon="2.12802">
        <ele>87</ele>
        <time>2021-03-07T13:32:20.280Z</time>
      </trkpt>
      <trkpt lat="48.6063" lon="2.12799">
        <ele>88</ele>
        <time>2021-03-07T13:32:21.279Z</time>
      </trkpt>
      <trkpt lat="48.60631" lon="2.12797">
        <ele>88</ele>
        <time>2021-03-07T13:32:22.279Z</time>
      </trkpt>
      <trkpt lat="48.60632" lon="2.12794">
        <ele>88</ele>
        <time>2021-03-07T13:32:23.279Z</time>
      </trkpt>
      <trkpt lat="48.60633" lon="2.12792">
        <ele>88</ele>
        <time>2021-03-07T13:32:24.279Z</time>
      </trkpt>
      <trkpt lat="48.60633" lon="2.1279">
        <ele>88</ele>
        <time>2021-03-07T13:32:25.279Z</time>
      </trkpt>
      <trkpt lat="48.60633" lon="2.12788">
        <ele>88</ele>
        <time>2021-03-07T13:32:26.279Z</time>
      </trkpt>
      <trkpt lat="48.60633" lon="2.12786">
        <ele>88</ele>
        <time>2021-03-07T13:32:27.280Z</time>
      </trkpt>
      <trkpt lat="48.60633" lon="2.12783">
        <ele>88</ele>
        <time>2021-03-07T13:32:28.280Z</time>
      </trkpt>
      <trkpt lat="48.60633" lon="2.12781">
        <ele>87</ele>
        <time>2021-03-07T13:32:29.279Z</time>
      </trkpt>
      <trkpt lat="48.60633" lon="2.12779">
        <ele>87</ele>
        <time>2021-03-07T13:32:30.280Z</time>
      </trkpt>
      <trkpt lat="48.60633" lon="2.12777">
        <ele>86</ele>
        <time>2021-03-07T13:32:31.280Z</time>
      </trkpt>
      <trkpt lat="48.60632" lon="2.12773">
        <ele>86</ele>
        <time>2021-03-07T13:32:32.279Z</time>
      </trkpt>
      <trkpt lat="48.60632" lon="2.1277">
        <ele>86</ele>
        <time>2021-03-07T13:32:33.280Z</time>
      </trkpt>
      <trkpt lat="48.60632" lon="2.12767">
        <ele>86</ele>
        <time>2021-03-07T13:32:34.280Z</time>
      </trkpt>
      <trkpt lat="48.60631" lon="2.12764">
        <ele>86</ele>
        <time>2021-03-07T13:32:35.280Z</time>
      </trkpt>
      <trkpt lat="48.60631" lon="2.12762">
        <ele>86</ele>
        <time>2021-03-07T13:32:36.280Z</time>
      </trkpt>
      <trkpt lat="48.60631" lon="2.1276">
        <ele>85</ele>
        <time>2021-03-07T13:32:37.280Z</time>
      </trkpt>
      <trkpt lat="48.6063" lon="2.12757">
        <ele>86</ele>
        <time>2021-03-07T13:32:38.280Z</time>
      </trkpt>
      <trkpt lat="48.6063" lon="2.12755">
        <ele>85</ele>
        <time>2021-03-07T13:32:39.280Z</time>
      </trkpt>
      <trkpt lat="48.6063" lon="2.12752">
        <ele>85</ele>
        <time>2021-03-07T13:32:40.280Z</time>
      </trkpt>
      <trkpt lat="48.60629" lon="2.12749">
        <ele>85</ele>
        <time>2021-03-07T13:32:41.280Z</time>
      </trkpt>
      <trkpt lat="48.60629" lon="2.12747">
        <ele>85</ele>
        <time>2021-03-07T13:32:42.280Z</time>
      </trkpt>
      <trkpt lat="48.60629" lon="2.12745">
        <ele>85</ele>
        <time>2021-03-07T13:32:43.280Z</time>
      </trkpt>
      <trkpt lat="48.60628" lon="2.12742">
        <ele>85</ele>
        <time>2021-03-07T13:32:44.280Z</time>
      </trkpt>
      <trkpt lat="48.60628" lon="2.1274">
        <ele>85</ele>
        <time>2021-03-07T13:32:45.279Z</time>
      </trkpt>
      <trkpt lat="48.60627" lon="2.12738">
        <ele>85</ele>
        <time>2021-03-07T13:32:46.280Z</time>
      </trkpt>
      <trkpt lat="48.60627" lon="2.12736">
        <ele>86</ele>
        <time>2021-03-07T13:32:47.279Z</time>
      </trkpt>
      <trkpt lat="48.60627" lon="2.12733">
        <ele>86</ele>
        <time>2021-03-07T13:32:48.279Z</time>
      </trkpt>
      <trkpt lat="48.60626" lon="2.12731">
        <ele>87</ele>
        <time>2021-03-07T13:32:49.280Z</time>
      </trkpt>
      <trkpt lat="48.60626" lon="2.12729">
        <ele>88</ele>
        <time>2021-03-07T13:32:50.280Z</time>
      </trkpt>
      <trkpt lat="48.60626" lon="2.12727">
        <ele>88</ele>
        <time>2021-03-07T13:32:51.280Z</time>
      </trkpt>
      <trkpt lat="48.60626" lon="2.12725">
        <ele>88</ele>
        <time>2021-03-07T13:32:52.280Z</time>
      </trkpt>
      <trkpt lat="48.60626" lon="2.12724">
        <ele>88</ele>
        <time>2021-03-07T13:32:53.280Z</time>
      </trkpt>
      <trkpt lat="48.60626" lon="2.12724">
        <ele>87</ele>
        <time>2021-03-07T13:32:54.279Z</time>
      </trkpt>
      <trkpt lat="48.60626" lon="2.12724">
        <ele>87</ele>
        <time>2021-03-07T13:32:55.280Z</time>
      </trkpt>
      <trkpt lat="48.60626" lon="2.12724">
        <ele>87</ele>
        <time>2021-03-07T13:32:56.280Z</time>
      </trkpt>
      <trkpt lat="48.60626" lon="2.12724">
        <ele>86</ele>
        <time>2021-03-07T13:32:57.280Z</time>
      </trkpt>
      <trkpt lat="48.60626" lon="2.12723">
        <ele>87</ele>
        <time>2021-03-07T13:32:58.280Z</time>
      </trkpt>
      <trkpt lat="48.60626" lon="2.12721">
        <ele>87</ele>
        <time>2021-03-07T13:32:59.280Z</time>
      </trkpt>
      <trkpt lat="48.60625" lon="2.12719">
        <ele>87</ele>
        <time>2021-03-07T13:33:00.280Z</time>
      </trkpt>
      <trkpt lat="48.60625" lon="2.12717">
        <ele>87</ele>
        <time>2021-03-07T13:33:01.280Z</time>
      </trkpt>
      <trkpt lat="48.60625" lon="2.12715">
        <ele>87</ele>
        <time>2021-03-07T13:33:02.280Z</time>
      </trkpt>
      <trkpt lat="48.60624" lon="2.12713">
        <ele>87</ele>
        <time>2021-03-07T13:33:03.280Z</time>
      </trkpt>
      <trkpt lat="48.60624" lon="2.12711">
        <ele>87</ele>
        <time>2021-03-07T13:33:04.280Z</time>
      </trkpt>
      <trkpt lat="48.60624" lon="2.12709">
        <ele>87</ele>
        <time>2021-03-07T13:33:05.280Z</time>
      </trkpt>
      <trkpt lat="48.60623" lon="2.12706">
        <ele>87</ele>
        <time>2021-03-07T13:33:06.280Z</time>
      </trkpt>
      <trkpt lat="48.60623" lon="2.12704">
        <ele>87</ele>
        <time>2021-03-07T13:33:07.280Z</time>
      </trkpt>
      <trkpt lat="48.60622" lon="2.12702">
        <ele>87</ele>
        <time>2021-03-07T13:33:08.279Z</time>
      </trkpt>
      <trkpt lat="48.60622" lon="2.127">
        <ele>87</ele>
        <time>2021-03-07T13:33:09.280Z</time>
      </trkpt>
      <trkpt lat="48.60622" lon="2.12698">
        <ele>87</ele>
        <time>2021-03-07T13:33:10.280Z</time>
      </trkpt>
      <trkpt lat="48.60622" lon="2.12695">
        <ele>87</ele>
        <time>2021-03-07T13:33:11.280Z</time>
      </trkpt>
      <trkpt lat="48.60621" lon="2.12693">
        <ele>87</ele>
        <time>2021-03-07T13:33:12.280Z</time>
      </trkpt>
      <trkpt lat="48.60621" lon="2.12691">
        <ele>86</ele>
        <time>2021-03-07T13:33:13.280Z</time>
      </trkpt>
      <trkpt lat="48.60621" lon="2.12688">
        <ele>86</ele>
        <time>2021-03-07T13:33:14.280Z</time>
      </trkpt>
      <trkpt lat="48.6062" lon="2.12686">
        <ele>86</ele>
        <time>2021-03-07T13:33:15.280Z</time>
      </trkpt>
      <trkpt lat="48.6062" lon="2.12684">
        <ele>86</ele>
        <time>2021-03-07T13:33:16.280Z</time>
      </trkpt>
      <trkpt lat="48.6062" lon="2.12681">
        <ele>85</ele>
        <time>2021-03-07T13:33:17.279Z</time>
      </trkpt>
      <trkpt lat="48.60619" lon="2.12679">
        <ele>85</ele>
        <time>2021-03-07T13:33:18.280Z</time>
      </trkpt>
      <trkpt lat="48.60619" lon="2.12676">
        <ele>85</ele>
        <time>2021-03-07T13:33:19.279Z</time>
      </trkpt>
      <trkpt lat="48.60619" lon="2.12674">
        <ele>84</ele>
        <time>2021-03-07T13:33:20.280Z</time>
      </trkpt>
      <trkpt lat="48.60618" lon="2.12671">
        <ele>84</ele>
        <time>2021-03-07T13:33:21.280Z</time>
      </trkpt>
      <trkpt lat="48.60618" lon="2.12669">
        <ele>84</ele>
        <time>2021-03-07T13:33:22.280Z</time>
      </trkpt>
      <trkpt lat="48.60618" lon="2.12667">
        <ele>84</ele>
        <time>2021-03-07T13:33:23.280Z</time>
      </trkpt>
      <trkpt lat="48.60617" lon="2.12665">
        <ele>84</ele>
        <time>2021-03-07T13:33:24.280Z</time>
      </trkpt>
      <trkpt lat="48.60617" lon="2.12663">
        <ele>84</ele>
        <time>2021-03-07T13:33:25.280Z</time>
      </trkpt>
      <trkpt lat="48.60617" lon="2.12661">
        <ele>83</ele>
        <time>2021-03-07T13:33:26.280Z</time>
      </trkpt>
      <trkpt lat="48.60617" lon="2.12659">
        <ele>83</ele>
        <time>2021-03-07T13:33:27.279Z</time>
      </trkpt>
      <trkpt lat="48.60617" lon="2.12656">
        <ele>82</ele>
        <time>2021-03-07T13:33:28.280Z</time>
      </trkpt>
      <trkpt lat="48.60616" lon="2.12654">
        <ele>82</ele>
        <time>2021-03-07T13:33:29.280Z</time>
      </trkpt>
      <trkpt lat="48.60616" lon="2.12651">
        <ele>82</ele>
        <time>2021-03-07T13:33:30.280Z</time>
      </trkpt>
      <trkpt lat="48.60616" lon="2.12649">
        <ele>82</ele>
        <time>2021-03-07T13:33:31.280Z</time>
      </trkpt>
      <trkpt lat="48.60615" lon="2.12647">
        <ele>82</ele>
        <time>2021-03-07T13:33:32.280Z</time>
      </trkpt>
      <trkpt lat="48.60615" lon="2.12645">
        <ele>82</ele>
        <time>2021-03-07T13:33:33.279Z</time>
      </trkpt>
      <trkpt lat="48.60615" lon="2.12643">
        <ele>82</ele>
        <time>2021-03-07T13:33:34.280Z</time>
      </trkpt>
      <trkpt lat="48.60614" lon="2.1264">
        <ele>81</ele>
        <time>2021-03-07T13:33:35.280Z</time>
      </trkpt>
      <trkpt lat="48.60614" lon="2.12638">
        <ele>81</ele>
        <time>2021-03-07T13:33:36.279Z</time>
      </trkpt>
      <trkpt lat="48.60614" lon="2.12635">
        <ele>81</ele>
        <time>2021-03-07T13:33:37.280Z</time>
      </trkpt>
      <trkpt lat="48.60614" lon="2.12633">
        <ele>81</ele>
        <time>2021-03-07T13:33:38.280Z</time>
      </trkpt>
      <trkpt lat="48.60613" lon="2.12631">
        <ele>81</ele>
        <time>2021-03-07T13:33:39.279Z</time>
      </trkpt>
      <trkpt lat="48.60613" lon="2.12628">
        <ele>81</ele>
        <time>2021-03-07T13:33:40.280Z</time>
      </trkpt>
      <trkpt lat="48.60613" lon="2.12626">
        <ele>81</ele>
        <time>2021-03-07T13:33:41.280Z</time>
      </trkpt>
      <trkpt lat="48.60613" lon="2.12624">
        <ele>80</ele>
        <time>2021-03-07T13:33:42.279Z</time>
      </trkpt>
      <trkpt lat="48.60612" lon="2.12621">
        <ele>80</ele>
        <time>2021-03-07T13:33:43.280Z</time>
      </trkpt>
      <trkpt lat="48.60612" lon="2.12618">
        <ele>80</ele>
        <time>2021-03-07T13:33:44.280Z</time>
      </trkpt>
      <trkpt lat="48.60611" lon="2.12616">
        <ele>80</ele>
        <time>2021-03-07T13:33:45.279Z</time>
      </trkpt>
      <trkpt lat="48.60611" lon="2.12614">
        <ele>80</ele>
        <time>2021-03-07T13:33:46.280Z</time>
      </trkpt>
      <trkpt lat="48.6061" lon="2.12611">
        <ele>80</ele>
        <time>2021-03-07T13:33:47.280Z</time>
      </trkpt>
      <trkpt lat="48.6061" lon="2.12609">
        <ele>80</ele>
        <time>2021-03-07T13:33:48.280Z</time>
      </trkpt>
      <trkpt lat="48.6061" lon="2.12607">
        <ele>81</ele>
        <time>2021-03-07T13:33:49.280Z</time>
      </trkpt>
      <trkpt lat="48.60609" lon="2.12604">
        <ele>81</ele>
        <time>2021-03-07T13:33:50.280Z</time>
      </trkpt>
      <trkpt lat="48.60609" lon="2.12602">
        <ele>81</ele>
        <time>2021-03-07T13:33:51.280Z</time>
      </trkpt>
      <trkpt lat="48.60609" lon="2.12599">
        <ele>81</ele>
        <time>2021-03-07T13:33:52.280Z</time>
      </trkpt>
      <trkpt lat="48.60608" lon="2.12597">
        <ele>81</ele>
        <time>2021-03-07T13:33:53.280Z</time>
      </trkpt>
      <trkpt lat="48.60608" lon="2.12594">
        <ele>82</ele>
        <time>2021-03-07T13:33:54.280Z</time>
      </trkpt>
      <trkpt lat="48.60608" lon="2.12591">
        <ele>81</ele>
        <time>2021-03-07T13:33:55.280Z</time>
      </trkpt>
      <trkpt lat="48.60607" lon="2.12589">
        <ele>82</ele>
        <time>2021-03-07T13:33:56.279Z</time>
      </trkpt>
      <trkpt lat="48.60607" lon="2.12586">
        <ele>82</ele>
        <time>2021-03-07T13:33:57.280Z</time>
      </trkpt>
      <trkpt lat="48.60607" lon="2.12584">
        <ele>82</ele>
        <time>2021-03-07T13:33:58.280Z</time>
      </trkpt>
      <trkpt lat="48.60606" lon="2.12582">
        <ele>82</ele>
        <time>2021-03-07T13:33:59.280Z</time>
      </trkpt>
      <trkpt lat="48.60606" lon="2.12579">
        <ele>81</ele>
        <time>2021-03-07T13:34:00.280Z</time>
      </trkpt>
      <trkpt lat="48.60606" lon="2.12577">
        <ele>81</ele>
        <time>2021-03-07T13:34:01.280Z</time>
      </trkpt>
      <trkpt lat="48.60605" lon="2.12574">
        <ele>81</ele>
        <time>2021-03-07T13:34:02.279Z</time>
      </trkpt>
      <trkpt lat="48.60605" lon="2.12572">
        <ele>81</ele>
        <time>2021-03-07T13:34:03.280Z</time>
      </trkpt>
      <trkpt lat="48.60604" lon="2.1257">
        <ele>81</ele>
        <time>2021-03-07T13:34:04.280Z</time>
      </trkpt>
      <trkpt lat="48.60604" lon="2.12567">
        <ele>81</ele>
        <time>2021-03-07T13:34:05.280Z</time>
      </trkpt>
      <trkpt lat="48.60604" lon="2.12565">
        <ele>82</ele>
        <time>2021-03-07T13:34:06.280Z</time>
      </trkpt>
      <trkpt lat="48.60603" lon="2.12563">
        <ele>82</ele>
        <time>2021-03-07T13:34:07.280Z</time>
      </trkpt>
      <trkpt lat="48.60603" lon="2.1256">
        <ele>82</ele>
        <time>2021-03-07T13:34:08.279Z</time>
      </trkpt>
      <trkpt lat="48.60602" lon="2.12558">
        <ele>82</ele>
        <time>2021-03-07T13:34:09.280Z</time>
      </trkpt>
      <trkpt lat="48.60602" lon="2.12556">
        <ele>82</ele>
        <time>2021-03-07T13:34:10.280Z</time>
      </trkpt>
      <trkpt lat="48.60602" lon="2.12554">
        <ele>82</ele>
        <time>2021-03-07T13:34:11.280Z</time>
      </trkpt>
      <trkpt lat="48.60602" lon="2.12551">
        <ele>82</ele>
        <time>2021-03-07T13:34:12.280Z</time>
      </trkpt>
      <trkpt lat="48.60602" lon="2.12549">
        <ele>82</ele>
        <time>2021-03-07T13:34:13.280Z</time>
      </trkpt>
      <trkpt lat="48.60602" lon="2.12547">
        <ele>82</ele>
        <time>2021-03-07T13:34:14.279Z</time>
      </trkpt>
      <trkpt lat="48.60601" lon="2.12544">
        <ele>82</ele>
        <time>2021-03-07T13:34:15.280Z</time>
      </trkpt>
      <trkpt lat="48.606" lon="2.12542">
        <ele>82</ele>
        <time>2021-03-07T13:34:16.279Z</time>
      </trkpt>
      <trkpt lat="48.606" lon="2.1254">
        <ele>82</ele>
        <time>2021-03-07T13:34:17.280Z</time>
      </trkpt>
      <trkpt lat="48.606" lon="2.12537">
        <ele>82</ele>
        <time>2021-03-07T13:34:18.279Z</time>
      </trkpt>
      <trkpt lat="48.606" lon="2.12535">
        <ele>82</ele>
        <time>2021-03-07T13:34:19.280Z</time>
      </trkpt>
      <trkpt lat="48.60599" lon="2.12533">
        <ele>82</ele>
        <time>2021-03-07T13:34:20.280Z</time>
      </trkpt>
      <trkpt lat="48.60598" lon="2.12531">
        <ele>82</ele>
        <time>2021-03-07T13:34:21.280Z</time>
      </trkpt>
      <trkpt lat="48.60598" lon="2.12528">
        <ele>82</ele>
        <time>2021-03-07T13:34:22.279Z</time>
      </trkpt>
      <trkpt lat="48.60597" lon="2.12526">
        <ele>82</ele>
        <time>2021-03-07T13:34:23.280Z</time>
      </trkpt>
      <trkpt lat="48.60597" lon="2.12524">
        <ele>82</ele>
        <time>2021-03-07T13:34:24.279Z</time>
      </trkpt>
      <trkpt lat="48.60596" lon="2.12522">
        <ele>81</ele>
        <time>2021-03-07T13:34:25.280Z</time>
      </trkpt>
      <trkpt lat="48.60596" lon="2.12519">
        <ele>81</ele>
        <time>2021-03-07T13:34:26.279Z</time>
      </trkpt>
      <trkpt lat="48.60596" lon="2.12517">
        <ele>81</ele>
        <time>2021-03-07T13:34:27.280Z</time>
      </trkpt>
      <trkpt lat="48.60595" lon="2.12515">
        <ele>81</ele>
        <time>2021-03-07T13:34:28.280Z</time>
      </trkpt>
      <trkpt lat="48.60595" lon="2.12512">
        <ele>81</ele>
        <time>2021-03-07T13:34:29.280Z</time>
      </trkpt>
      <trkpt lat="48.60595" lon="2.12511">
        <ele>81</ele>
        <time>2021-03-07T13:34:30.280Z</time>
      </trkpt>
      <trkpt lat="48.60595" lon="2.12511">
        <ele>81</ele>
        <time>2021-03-07T13:34:31.280Z</time>
      </trkpt>
      <trkpt lat="48.60595" lon="2.1251">
        <ele>81</ele>
        <time>2021-03-07T13:34:32.279Z</time>
      </trkpt>
      <trkpt lat="48.60595" lon="2.1251">
        <ele>82</ele>
        <time>2021-03-07T13:34:33.280Z</time>
      </trkpt>
      <trkpt lat="48.60595" lon="2.1251">
        <ele>82</ele>
        <time>2021-03-07T13:34:34.280Z</time>
      </trkpt>
      <trkpt lat="48.60595" lon="2.12509">
        <ele>82</ele>
        <time>2021-03-07T13:34:35.280Z</time>
      </trkpt>
      <trkpt lat="48.60595" lon="2.12509">
        <ele>83</ele>
        <time>2021-03-07T13:34:36.280Z</time>
      </trkpt>
      <trkpt lat="48.60595" lon="2.12508">
        <ele>83</ele>
        <time>2021-03-07T13:34:37.280Z</time>
      </trkpt>
      <trkpt lat="48.60595" lon="2.12508">
        <ele>83</ele>
        <time>2021-03-07T13:34:38.279Z</time>
      </trkpt>
      <trkpt lat="48.60595" lon="2.12506">
        <ele>83</ele>
        <time>2021-03-07T13:34:39.280Z</time>
      </trkpt>
      <trkpt lat="48.60595" lon="2.12505">
        <ele>83</ele>
        <time>2021-03-07T13:34:40.279Z</time>
      </trkpt>
      <trkpt lat="48.60594" lon="2.12503">
        <ele>83</ele>
        <time>2021-03-07T13:34:41.280Z</time>
      </trkpt>
      <trkpt lat="48.60593" lon="2.12501">
        <ele>83</ele>
        <time>2021-03-07T13:34:42.280Z</time>
      </trkpt>
      <trkpt lat="48.60593" lon="2.12499">
        <ele>83</ele>
        <time>2021-03-07T13:34:43.280Z</time>
      </trkpt>
      <trkpt lat="48.60593" lon="2.12497">
        <ele>83</ele>
        <time>2021-03-07T13:34:44.280Z</time>
      </trkpt>
      <trkpt lat="48.60592" lon="2.12495">
        <ele>83</ele>
        <time>2021-03-07T13:34:45.279Z</time>
      </trkpt>
      <trkpt lat="48.60592" lon="2.12492">
        <ele>83</ele>
        <time>2021-03-07T13:34:46.280Z</time>
      </trkpt>
      <trkpt lat="48.60591" lon="2.1249">
        <ele>82</ele>
        <time>2021-03-07T13:34:47.280Z</time>
      </trkpt>
      <trkpt lat="48.60591" lon="2.12489">
        <ele>81</ele>
        <time>2021-03-07T13:34:48.280Z</time>
      </trkpt>
      <trkpt lat="48.6059" lon="2.12487">
        <ele>81</ele>
        <time>2021-03-07T13:34:49.280Z</time>
      </trkpt>
      <trkpt lat="48.60589" lon="2.12485">
        <ele>80</ele>
        <time>2021-03-07T13:34:50.280Z</time>
      </trkpt>
      <trkpt lat="48.60589" lon="2.12482">
        <ele>80</ele>
        <time>2021-03-07T13:34:51.280Z</time>
      </trkpt>
      <trkpt lat="48.60589" lon="2.1248">
        <ele>81</ele>
        <time>2021-03-07T13:34:52.280Z</time>
      </trkpt>
      <trkpt lat="48.6059" lon="2.12478">
        <ele>81</ele>
        <time>2021-03-07T13:34:53.280Z</time>
      </trkpt>
      <trkpt lat="48.60591" lon="2.12477">
        <ele>81</ele>
        <time>2021-03-07T13:34:54.279Z</time>
      </trkpt>
      <trkpt lat="48.60592" lon="2.12475">
        <ele>82</ele>
        <time>2021-03-07T13:34:55.280Z</time>
      </trkpt>
      <trkpt lat="48.60594" lon="2.12474">
        <ele>82</ele>
        <time>2021-03-07T13:34:56.280Z</time>
      </trkpt>
      <trkpt lat="48.60595" lon="2.12474">
        <ele>83</ele>
        <time>2021-03-07T13:34:57.280Z</time>
      </trkpt>
      <trkpt lat="48.60596" lon="2.12474">
        <ele>83</ele>
        <time>2021-03-07T13:34:58.280Z</time>
      </trkpt>
      <trkpt lat="48.60598" lon="2.12474">
        <ele>84</ele>
        <time>2021-03-07T13:34:59.279Z</time>
      </trkpt>
      <trkpt lat="48.60599" lon="2.12474">
        <ele>84</ele>
        <time>2021-03-07T13:35:00.280Z</time>
      </trkpt>
      <trkpt lat="48.60601" lon="2.12475">
        <ele>84</ele>
        <time>2021-03-07T13:35:01.280Z</time>
      </trkpt>
      <trkpt lat="48.60602" lon="2.12476">
        <ele>84</ele>
        <time>2021-03-07T13:35:02.280Z</time>
      </trkpt>
      <trkpt lat="48.60604" lon="2.12477">
        <ele>84</ele>
        <time>2021-03-07T13:35:03.279Z</time>
      </trkpt>
      <trkpt lat="48.60605" lon="2.12477">
        <ele>84</ele>
        <time>2021-03-07T13:35:04.280Z</time>
      </trkpt>
      <trkpt lat="48.60607" lon="2.12478">
        <ele>84</ele>
        <time>2021-03-07T13:35:05.280Z</time>
      </trkpt>
      <trkpt lat="48.60608" lon="2.12478">
        <ele>85</ele>
        <time>2021-03-07T13:35:06.280Z</time>
      </trkpt>
      <trkpt lat="48.6061" lon="2.12479">
        <ele>85</ele>
        <time>2021-03-07T13:35:07.280Z</time>
      </trkpt>
      <trkpt lat="48.60611" lon="2.1248">
        <ele>85</ele>
        <time>2021-03-07T13:35:08.280Z</time>
      </trkpt>
      <trkpt lat="48.60613" lon="2.12481">
        <ele>85</ele>
        <time>2021-03-07T13:35:09.280Z</time>
      </trkpt>
      <trkpt lat="48.60614" lon="2.12481">
        <ele>85</ele>
        <time>2021-03-07T13:35:10.280Z</time>
      </trkpt>
      <trkpt lat="48.60615" lon="2.12482">
        <ele>85</ele>
        <time>2021-03-07T13:35:11.280Z</time>
      </trkpt>
      <trkpt lat="48.60616" lon="2.12483">
        <ele>85</ele>
        <time>2021-03-07T13:35:12.280Z</time>
      </trkpt>
      <trkpt lat="48.60618" lon="2.12484">
        <ele>84</ele>
        <time>2021-03-07T13:35:13.280Z</time>
      </trkpt>
      <trkpt lat="48.60619" lon="2.12484">
        <ele>84</ele>
        <time>2021-03-07T13:35:14.280Z</time>
      </trkpt>
      <trkpt lat="48.60621" lon="2.12484">
        <ele>84</ele>
        <time>2021-03-07T13:35:15.280Z</time>
      </trkpt>
      <trkpt lat="48.60622" lon="2.12485">
        <ele>84</ele>
        <time>2021-03-07T13:35:16.280Z</time>
      </trkpt>
      <trkpt lat="48.60624" lon="2.12486">
        <ele>84</ele>
        <time>2021-03-07T13:35:17.280Z</time>
      </trkpt>
      <trkpt lat="48.60625" lon="2.12486">
        <ele>85</ele>
        <time>2021-03-07T13:35:18.280Z</time>
      </trkpt>
      <trkpt lat="48.60626" lon="2.12486">
        <ele>85</ele>
        <time>2021-03-07T13:35:19.280Z</time>
      </trkpt>
      <trkpt lat="48.60628" lon="2.12487">
        <ele>86</ele>
        <time>2021-03-07T13:35:20.280Z</time>
      </trkpt>
      <trkpt lat="48.60629" lon="2.12487">
        <ele>86</ele>
        <time>2021-03-07T13:35:21.280Z</time>
      </trkpt>
      <trkpt lat="48.6063" lon="2.12487">
        <ele>86</ele>
        <time>2021-03-07T13:35:22.280Z</time>
      </trkpt>
      <trkpt lat="48.60632" lon="2.12486">
        <ele>86</ele>
        <time>2021-03-07T13:35:23.280Z</time>
      </trkpt>
      <trkpt lat="48.60633" lon="2.12486">
        <ele>87</ele>
        <time>2021-03-07T13:35:24.280Z</time>
      </trkpt>
      <trkpt lat="48.60634" lon="2.12485">
        <ele>87</ele>
        <time>2021-03-07T13:35:25.279Z</time>
      </trkpt>
      <trkpt lat="48.60636" lon="2.12483">
        <ele>87</ele>
        <time>2021-03-07T13:35:26.280Z</time>
      </trkpt>
      <trkpt lat="48.60637" lon="2.12482">
        <ele>87</ele>
        <time>2021-03-07T13:35:27.280Z</time>
      </trkpt>
      <trkpt lat="48.60638" lon="2.1248">
        <ele>87</ele>
        <time>2021-03-07T13:35:28.280Z</time>
      </trkpt>
      <trkpt lat="48.60639" lon="2.12479">
        <ele>88</ele>
        <time>2021-03-07T13:35:29.279Z</time>
      </trkpt>
      <trkpt lat="48.6064" lon="2.12477">
        <ele>88</ele>
        <time>2021-03-07T13:35:30.280Z</time>
      </trkpt>
      <trkpt lat="48.60642" lon="2.12475">
        <ele>88</ele>
        <time>2021-03-07T13:35:31.280Z</time>
      </trkpt>
      <trkpt lat="48.60643" lon="2.12473">
        <ele>89</ele>
        <time>2021-03-07T13:35:32.280Z</time>
      </trkpt>
      <trkpt lat="48.60644" lon="2.12472">
        <ele>90</ele>
        <time>2021-03-07T13:35:33.279Z</time>
      </trkpt>
      <trkpt lat="48.60646" lon="2.12471">
        <ele>89</ele>
        <time>2021-03-07T13:35:34.279Z</time>
      </trkpt>
      <trkpt lat="48.60647" lon="2.12471">
        <ele>89</ele>
        <time>2021-03-07T13:35:35.280Z</time>
      </trkpt>
      <trkpt lat="48.60648" lon="2.12471">
        <ele>89</ele>
        <time>2021-03-07T13:35:36.279Z</time>
      </trkpt>
      <trkpt lat="48.60649" lon="2.12472">
        <ele>89</ele>
        <time>2021-03-07T13:35:37.280Z</time>
      </trkpt>
      <trkpt lat="48.60649" lon="2.12473">
        <ele>89</ele>
        <time>2021-03-07T13:35:38.280Z</time>
      </trkpt>
      <trkpt lat="48.6065" lon="2.12473">
        <ele>89</ele>
        <time>2021-03-07T13:35:39.280Z</time>
      </trkpt>
      <trkpt lat="48.6065" lon="2.12473">
        <ele>89</ele>
        <time>2021-03-07T13:35:40.280Z</time>
      </trkpt>
      <trkpt lat="48.60651" lon="2.12473">
        <ele>89</ele>
        <time>2021-03-07T13:35:41.280Z</time>
      </trkpt>
      <trkpt lat="48.60652" lon="2.12473">
        <ele>89</ele>
        <time>2021-03-07T13:35:42.280Z</time>
      </trkpt>
      <trkpt lat="48.60654" lon="2.12472">
        <ele>89</ele>
        <time>2021-03-07T13:35:43.279Z</time>
      </trkpt>
      <trkpt lat="48.60655" lon="2.12472">
        <ele>89</ele>
        <time>2021-03-07T13:35:44.280Z</time>
      </trkpt>
      <trkpt lat="48.60657" lon="2.12472">
        <ele>89</ele>
        <time>2021-03-07T13:35:45.280Z</time>
      </trkpt>
      <trkpt lat="48.60659" lon="2.12472">
        <ele>88</ele>
        <time>2021-03-07T13:35:46.279Z</time>
      </trkpt>
      <trkpt lat="48.6066" lon="2.12471">
        <ele>88</ele>
        <time>2021-03-07T13:35:47.280Z</time>
      </trkpt>
      <trkpt lat="48.60661" lon="2.12471">
        <ele>88</ele>
        <time>2021-03-07T13:35:48.280Z</time>
      </trkpt>
      <trkpt lat="48.60663" lon="2.12471">
        <ele>88</ele>
        <time>2021-03-07T13:35:49.280Z</time>
      </trkpt>
      <trkpt lat="48.60664" lon="2.1247">
        <ele>87</ele>
        <time>2021-03-07T13:35:50.280Z</time>
      </trkpt>
      <trkpt lat="48.60666" lon="2.1247">
        <ele>87</ele>
        <time>2021-03-07T13:35:51.279Z</time>
      </trkpt>
      <trkpt lat="48.60667" lon="2.12471">
        <ele>86</ele>
        <time>2021-03-07T13:35:52.280Z</time>
      </trkpt>
      <trkpt lat="48.60669" lon="2.1247">
        <ele>86</ele>
        <time>2021-03-07T13:35:53.279Z</time>
      </trkpt>
      <trkpt lat="48.6067" lon="2.1247">
        <ele>85</ele>
        <time>2021-03-07T13:35:54.279Z</time>
      </trkpt>
      <trkpt lat="48.60671" lon="2.1247">
        <ele>85</ele>
        <time>2021-03-07T13:35:55.280Z</time>
      </trkpt>
      <trkpt lat="48.60673" lon="2.1247">
        <ele>84</ele>
        <time>2021-03-07T13:35:56.279Z</time>
      </trkpt>
      <trkpt lat="48.60674" lon="2.1247">
        <ele>84</ele>
        <time>2021-03-07T13:35:57.280Z</time>
      </trkpt>
      <trkpt lat="48.60675" lon="2.1247">
        <ele>84</ele>
        <time>2021-03-07T13:35:58.279Z</time>
      </trkpt>
      <trkpt lat="48.60676" lon="2.1247">
        <ele>84</ele>
        <time>2021-03-07T13:35:59.280Z</time>
      </trkpt>
      <trkpt lat="48.60678" lon="2.1247">
        <ele>84</ele>
        <time>2021-03-07T13:36:00.280Z</time>
      </trkpt>
      <trkpt lat="48.60679" lon="2.1247">
        <ele>84</ele>
        <time>2021-03-07T13:36:01.280Z</time>
      </trkpt>
      <trkpt lat="48.60681" lon="2.12471">
        <ele>84</ele>
        <time>2021-03-07T13:36:02.280Z</time>
      </trkpt>
      <trkpt lat="48.60682" lon="2.12471">
        <ele>84</ele>
        <time>2021-03-07T13:36:03.279Z</time>
      </trkpt>
      <trkpt lat="48.60684" lon="2.12471">
        <ele>84</ele>
        <time>2021-03-07T13:36:04.280Z</time>
      </trkpt>
      <trkpt lat="48.60685" lon="2.12471">
        <ele>84</ele>
        <time>2021-03-07T13:36:05.280Z</time>
      </trkpt>
      <trkpt lat="48.60687" lon="2.1247">
        <ele>85</ele>
        <time>2021-03-07T13:36:06.279Z</time>
      </trkpt>
      <trkpt lat="48.60688" lon="2.1247">
        <ele>85</ele>
        <time>2021-03-07T13:36:07.280Z</time>
      </trkpt>
      <trkpt lat="48.6069" lon="2.12469">
        <ele>85</ele>
        <time>2021-03-07T13:36:08.280Z</time>
      </trkpt>
      <trkpt lat="48.60691" lon="2.12469">
        <ele>85</ele>
        <time>2021-03-07T13:36:09.279Z</time>
      </trkpt>
      <trkpt lat="48.60693" lon="2.12469">
        <ele>85</ele>
        <time>2021-03-07T13:36:10.280Z</time>
      </trkpt>
      <trkpt lat="48.60694" lon="2.12469">
        <ele>85</ele>
        <time>2021-03-07T13:36:11.279Z</time>
      </trkpt>
      <trkpt lat="48.60696" lon="2.12468">
        <ele>85</ele>
        <time>2021-03-07T13:36:12.280Z</time>
      </trkpt>
      <trkpt lat="48.60698" lon="2.12468">
        <ele>85</ele>
        <time>2021-03-07T13:36:13.280Z</time>
      </trkpt>
      <trkpt lat="48.60699" lon="2.12467">
        <ele>85</ele>
        <time>2021-03-07T13:36:14.280Z</time>
      </trkpt>
      <trkpt lat="48.60701" lon="2.12467">
        <ele>86</ele>
        <time>2021-03-07T13:36:15.280Z</time>
      </trkpt>
      <trkpt lat="48.60702" lon="2.12467">
        <ele>87</ele>
        <time>2021-03-07T13:36:16.279Z</time>
      </trkpt>
      <trkpt lat="48.60704" lon="2.12466">
        <ele>87</ele>
        <time>2021-03-07T13:36:17.279Z</time>
      </trkpt>
      <trkpt lat="48.60705" lon="2.12465">
        <ele>87</ele>
        <time>2021-03-07T13:36:18.280Z</time>
      </trkpt>
      <trkpt lat="48.60707" lon="2.12465">
        <ele>87</ele>
        <time>2021-03-07T13:36:19.280Z</time>
      </trkpt>
      <trkpt lat="48.60708" lon="2.12464">
        <ele>88</ele>
        <time>2021-03-07T13:36:20.279Z</time>
      </trkpt>
      <trkpt lat="48.6071" lon="2.12464">
        <ele>88</ele>
        <time>2021-03-07T13:36:21.280Z</time>
      </trkpt>
      <trkpt lat="48.60711" lon="2.12464">
        <ele>88</ele>
        <time>2021-03-07T13:36:22.279Z</time>
      </trkpt>
      <trkpt lat="48.60712" lon="2.12464">
        <ele>87</ele>
        <time>2021-03-07T13:36:23.280Z</time>
      </trkpt>
      <trkpt lat="48.60713" lon="2.12463">
        <ele>87</ele>
        <time>2021-03-07T13:36:24.280Z</time>
      </trkpt>
      <trkpt lat="48.60715" lon="2.12463">
        <ele>86</ele>
        <time>2021-03-07T13:36:25.280Z</time>
      </trkpt>
      <trkpt lat="48.60716" lon="2.12463">
        <ele>86</ele>
        <time>2021-03-07T13:36:26.280Z</time>
      </trkpt>
      <trkpt lat="48.60717" lon="2.12462">
        <ele>86</ele>
        <time>2021-03-07T13:36:27.280Z</time>
      </trkpt>
      <trkpt lat="48.60718" lon="2.12462">
        <ele>85</ele>
        <time>2021-03-07T13:36:28.279Z</time>
      </trkpt>
      <trkpt lat="48.6072" lon="2.12462">
        <ele>85</ele>
        <time>2021-03-07T13:36:29.280Z</time>
      </trkpt>
      <trkpt lat="48.60721" lon="2.12462">
        <ele>84</ele>
        <time>2021-03-07T13:36:30.280Z</time>
      </trkpt>
      <trkpt lat="48.60722" lon="2.12462">
        <ele>83</ele>
        <time>2021-03-07T13:36:31.280Z</time>
      </trkpt>
      <trkpt lat="48.60724" lon="2.12461">
        <ele>83</ele>
        <time>2021-03-07T13:36:32.280Z</time>
      </trkpt>
      <trkpt lat="48.60725" lon="2.12461">
        <ele>83</ele>
        <time>2021-03-07T13:36:33.280Z</time>
      </trkpt>
      <trkpt lat="48.60727" lon="2.12461">
        <ele>83</ele>
        <time>2021-03-07T13:36:34.280Z</time>
      </trkpt>
      <trkpt lat="48.60728" lon="2.1246">
        <ele>83</ele>
        <time>2021-03-07T13:36:35.279Z</time>
      </trkpt>
      <trkpt lat="48.60729" lon="2.1246">
        <ele>83</ele>
        <time>2021-03-07T13:36:36.280Z</time>
      </trkpt>
      <trkpt lat="48.60731" lon="2.12459">
        <ele>83</ele>
        <time>2021-03-07T13:36:37.280Z</time>
      </trkpt>
      <trkpt lat="48.60732" lon="2.12459">
        <ele>83</ele>
        <time>2021-03-07T13:36:38.280Z</time>
      </trkpt>
      <trkpt lat="48.60734" lon="2.12458">
        <ele>83</ele>
        <time>2021-03-07T13:36:39.280Z</time>
      </trkpt>
      <trkpt lat="48.60735" lon="2.12458">
        <ele>83</ele>
        <time>2021-03-07T13:36:40.280Z</time>
      </trkpt>
      <trkpt lat="48.60737" lon="2.12457">
        <ele>83</ele>
        <time>2021-03-07T13:36:41.280Z</time>
      </trkpt>
      <trkpt lat="48.60738" lon="2.12456">
        <ele>83</ele>
        <time>2021-03-07T13:36:42.280Z</time>
      </trkpt>
      <trkpt lat="48.60739" lon="2.12456">
        <ele>84</ele>
        <time>2021-03-07T13:36:43.280Z</time>
      </trkpt>
      <trkpt lat="48.60741" lon="2.12455">
        <ele>84</ele>
        <time>2021-03-07T13:36:44.280Z</time>
      </trkpt>
      <trkpt lat="48.60742" lon="2.12455">
        <ele>85</ele>
        <time>2021-03-07T13:36:45.279Z</time>
      </trkpt>
      <trkpt lat="48.60744" lon="2.12454">
        <ele>85</ele>
        <time>2021-03-07T13:36:46.280Z</time>
      </trkpt>
      <trkpt lat="48.60745" lon="2.12454">
        <ele>85</ele>
        <time>2021-03-07T13:36:47.280Z</time>
      </trkpt>
      <trkpt lat="48.60747" lon="2.12453">
        <ele>86</ele>
        <time>2021-03-07T13:36:48.280Z</time>
      </trkpt>
      <trkpt lat="48.60748" lon="2.12453">
        <ele>85</ele>
        <time>2021-03-07T13:36:49.280Z</time>
      </trkpt>
      <trkpt lat="48.6075" lon="2.12453">
        <ele>85</ele>
        <time>2021-03-07T13:36:50.280Z</time>
      </trkpt>
      <trkpt lat="48.60751" lon="2.12452">
        <ele>85</ele>
        <time>2021-03-07T13:36:51.280Z</time>
      </trkpt>
      <trkpt lat="48.60752" lon="2.12452">
        <ele>85</ele>
        <time>2021-03-07T13:36:52.280Z</time>
      </trkpt>
      <trkpt lat="48.60754" lon="2.12452">
        <ele>84</ele>
        <time>2021-03-07T13:36:53.280Z</time>
      </trkpt>
      <trkpt lat="48.60755" lon="2.12452">
        <ele>84</ele>
        <time>2021-03-07T13:36:54.280Z</time>
      </trkpt>
      <trkpt lat="48.60756" lon="2.12451">
        <ele>84</ele>
        <time>2021-03-07T13:36:55.280Z</time>
      </trkpt>
      <trkpt lat="48.60758" lon="2.12451">
        <ele>84</ele>
        <time>2021-03-07T13:36:56.279Z</time>
      </trkpt>
      <trkpt lat="48.60759" lon="2.12451">
        <ele>85</ele>
        <time>2021-03-07T13:36:57.280Z</time>
      </trkpt>
      <trkpt lat="48.6076" lon="2.1245">
        <ele>85</ele>
        <time>2021-03-07T13:36:58.280Z</time>
      </trkpt>
      <trkpt lat="48.60762" lon="2.1245">
        <ele>85</ele>
        <time>2021-03-07T13:36:59.280Z</time>
      </trkpt>
      <trkpt lat="48.60763" lon="2.1245">
        <ele>85</ele>
        <time>2021-03-07T13:37:00.280Z</time>
      </trkpt>
      <trkpt lat="48.60764" lon="2.1245">
        <ele>85</ele>
        <time>2021-03-07T13:37:01.280Z</time>
      </trkpt>
      <trkpt lat="48.60766" lon="2.12449">
        <ele>84</ele>
        <time>2021-03-07T13:37:02.280Z</time>
      </trkpt>
      <trkpt lat="48.60767" lon="2.12449">
        <ele>84</ele>
        <time>2021-03-07T13:37:03.280Z</time>
      </trkpt>
      <trkpt lat="48.60769" lon="2.12448">
        <ele>84</ele>
        <time>2021-03-07T13:37:04.279Z</time>
      </trkpt>
      <trkpt lat="48.60771" lon="2.12448">
        <ele>84</ele>
        <time>2021-03-07T13:37:05.280Z</time>
      </trkpt>
      <trkpt lat="48.60772" lon="2.12447">
        <ele>84</ele>
        <time>2021-03-07T13:37:06.280Z</time>
      </trkpt>
      <trkpt lat="48.60773" lon="2.12447">
        <ele>84</ele>
        <time>2021-03-07T13:37:07.279Z</time>
      </trkpt>
      <trkpt lat="48.60775" lon="2.12447">
        <ele>85</ele>
        <time>2021-03-07T13:37:08.280Z</time>
      </trkpt>
      <trkpt lat="48.60777" lon="2.12446">
        <ele>85</ele>
        <time>2021-03-07T13:37:09.279Z</time>
      </trkpt>
      <trkpt lat="48.60778" lon="2.12446">
        <ele>85</ele>
        <time>2021-03-07T13:37:10.280Z</time>
      </trkpt>
      <trkpt lat="48.60779" lon="2.12445">
        <ele>86</ele>
        <time>2021-03-07T13:37:11.280Z</time>
      </trkpt>
      <trkpt lat="48.60781" lon="2.12445">
        <ele>86</ele>
        <time>2021-03-07T13:37:12.280Z</time>
      </trkpt>
      <trkpt lat="48.60782" lon="2.12444">
        <ele>86</ele>
        <time>2021-03-07T13:37:13.280Z</time>
      </trkpt>
      <trkpt lat="48.60784" lon="2.12443">
        <ele>86</ele>
        <time>2021-03-07T13:37:14.280Z</time>
      </trkpt>
      <trkpt lat="48.60785" lon="2.12443">
        <ele>87</ele>
        <time>2021-03-07T13:37:15.279Z</time>
      </trkpt>
      <trkpt lat="48.60787" lon="2.12442">
        <ele>87</ele>
        <time>2021-03-07T13:37:16.279Z</time>
      </trkpt>
      <trkpt lat="48.60789" lon="2.12441">
        <ele>88</ele>
        <time>2021-03-07T13:37:17.279Z</time>
      </trkpt>
      <trkpt lat="48.6079" lon="2.12441">
        <ele>88</ele>
        <time>2021-03-07T13:37:18.279Z</time>
      </trkpt>
      <trkpt lat="48.60792" lon="2.1244">
        <ele>89</ele>
        <time>2021-03-07T13:37:19.280Z</time>
      </trkpt>
      <trkpt lat="48.60794" lon="2.1244">
        <ele>88</ele>
        <time>2021-03-07T13:37:20.279Z</time>
      </trkpt>
      <trkpt lat="48.60795" lon="2.1244">
        <ele>88</ele>
        <time>2021-03-07T13:37:21.280Z</time>
      </trkpt>
      <trkpt lat="48.60797" lon="2.12439">
        <ele>88</ele>
        <time>2021-03-07T13:37:22.280Z</time>
      </trkpt>
      <trkpt lat="48.60798" lon="2.12439">
        <ele>88</ele>
        <time>2021-03-07T13:37:23.280Z</time>
      </trkpt>
      <trkpt lat="48.608" lon="2.12438">
        <ele>88</ele>
        <time>2021-03-07T13:37:24.280Z</time>
      </trkpt>
      <trkpt lat="48.60802" lon="2.12438">
        <ele>88</ele>
        <time>2021-03-07T13:37:25.279Z</time>
      </trkpt>
      <trkpt lat="48.60803" lon="2.12437">
        <ele>88</ele>
        <time>2021-03-07T13:37:26.280Z</time>
      </trkpt>
      <trkpt lat="48.60805" lon="2.12437">
        <ele>88</ele>
        <time>2021-03-07T13:37:27.280Z</time>
      </trkpt>
      <trkpt lat="48.60807" lon="2.12436">
        <ele>88</ele>
        <time>2021-03-07T13:37:28.280Z</time>
      </trkpt>
      <trkpt lat="48.60808" lon="2.12436">
        <ele>88</ele>
        <time>2021-03-07T13:37:29.280Z</time>
      </trkpt>
      <trkpt lat="48.60809" lon="2.12435">
        <ele>88</ele>
        <time>2021-03-07T13:37:30.280Z</time>
      </trkpt>
      <trkpt lat="48.60811" lon="2.12435">
        <ele>88</ele>
        <time>2021-03-07T13:37:31.280Z</time>
      </trkpt>
      <trkpt lat="48.60812" lon="2.12434">
        <ele>88</ele>
        <time>2021-03-07T13:37:32.279Z</time>
      </trkpt>
      <trkpt lat="48.60814" lon="2.12434">
        <ele>88</ele>
        <time>2021-03-07T13:37:33.280Z</time>
      </trkpt>
      <trkpt lat="48.60815" lon="2.12433">
        <ele>88</ele>
        <time>2021-03-07T13:37:34.280Z</time>
      </trkpt>
      <trkpt lat="48.60817" lon="2.12433">
        <ele>89</ele>
        <time>2021-03-07T13:37:35.279Z</time>
      </trkpt>
      <trkpt lat="48.60818" lon="2.12432">
        <ele>89</ele>
        <time>2021-03-07T13:37:36.280Z</time>
      </trkpt>
      <trkpt lat="48.6082" lon="2.12432">
        <ele>89</ele>
        <time>2021-03-07T13:37:37.280Z</time>
      </trkpt>
      <trkpt lat="48.60822" lon="2.12432">
        <ele>89</ele>
        <time>2021-03-07T13:37:38.280Z</time>
      </trkpt>
      <trkpt lat="48.60824" lon="2.12431">
        <ele>89</ele>
        <time>2021-03-07T13:37:39.280Z</time>
      </trkpt>
      <trkpt lat="48.60825" lon="2.12431">
        <ele>89</ele>
        <time>2021-03-07T13:37:40.280Z</time>
      </trkpt>
      <trkpt lat="48.60827" lon="2.12431">
        <ele>89</ele>
        <time>2021-03-07T13:37:41.279Z</time>
      </trkpt>
      <trkpt lat="48.60828" lon="2.1243">
        <ele>89</ele>
        <time>2021-03-07T13:37:42.279Z</time>
      </trkpt>
      <trkpt lat="48.6083" lon="2.1243">
        <ele>90</ele>
        <time>2021-03-07T13:37:43.280Z</time>
      </trkpt>
      <trkpt lat="48.60831" lon="2.12429">
        <ele>90</ele>
        <time>2021-03-07T13:37:44.280Z</time>
      </trkpt>
      <trkpt lat="48.60832" lon="2.12428">
        <ele>90</ele>
        <time>2021-03-07T13:37:45.280Z</time>
      </trkpt>
      <trkpt lat="48.60834" lon="2.12427">
        <ele>90</ele>
        <time>2021-03-07T13:37:46.280Z</time>
      </trkpt>
      <trkpt lat="48.60835" lon="2.12427">
        <ele>90</ele>
        <time>2021-03-07T13:37:47.279Z</time>
      </trkpt>
      <trkpt lat="48.60837" lon="2.12426">
        <ele>90</ele>
        <time>2021-03-07T13:37:48.279Z</time>
      </trkpt>
      <trkpt lat="48.60838" lon="2.12426">
        <ele>89</ele>
        <time>2021-03-07T13:37:49.280Z</time>
      </trkpt>
      <trkpt lat="48.6084" lon="2.12426">
        <ele>89</ele>
        <time>2021-03-07T13:37:50.280Z</time>
      </trkpt>
      <trkpt lat="48.60841" lon="2.12425">
        <ele>89</ele>
        <time>2021-03-07T13:37:51.280Z</time>
      </trkpt>
      <trkpt lat="48.60843" lon="2.12424">
        <ele>89</ele>
        <time>2021-03-07T13:37:52.280Z</time>
      </trkpt>
      <trkpt lat="48.60844" lon="2.12424">
        <ele>89</ele>
        <time>2021-03-07T13:37:53.280Z</time>
      </trkpt>
      <trkpt lat="48.60846" lon="2.12423">
        <ele>89</ele>
        <time>2021-03-07T13:37:54.280Z</time>
      </trkpt>
      <trkpt lat="48.60848" lon="2.12423">
        <ele>88</ele>
        <time>2021-03-07T13:37:55.280Z</time>
      </trkpt>
      <trkpt lat="48.60849" lon="2.12423">
        <ele>88</ele>
        <time>2021-03-07T13:37:56.280Z</time>
      </trkpt>
      <trkpt lat="48.60851" lon="2.12422">
        <ele>88</ele>
        <time>2021-03-07T13:37:57.280Z</time>
      </trkpt>
      <trkpt lat="48.60852" lon="2.12422">
        <ele>87</ele>
        <time>2021-03-07T13:37:58.279Z</time>
      </trkpt>
      <trkpt lat="48.60853" lon="2.12422">
        <ele>87</ele>
        <time>2021-03-07T13:37:59.280Z</time>
      </trkpt>
      <trkpt lat="48.60855" lon="2.12422">
        <ele>87</ele>
        <time>2021-03-07T13:38:00.280Z</time>
      </trkpt>
      <trkpt lat="48.60856" lon="2.12422">
        <ele>88</ele>
        <time>2021-03-07T13:38:01.279Z</time>
      </trkpt>
      <trkpt lat="48.60858" lon="2.12422">
        <ele>88</ele>
        <time>2021-03-07T13:38:02.280Z</time>
      </trkpt>
      <trkpt lat="48.60859" lon="2.12422">
        <ele>87</ele>
        <time>2021-03-07T13:38:03.280Z</time>
      </trkpt>
      <trkpt lat="48.60861" lon="2.12423">
        <ele>87</ele>
        <time>2021-03-07T13:38:04.280Z</time>
      </trkpt>
      <trkpt lat="48.60862" lon="2.12423">
        <ele>86</ele>
        <time>2021-03-07T13:38:05.280Z</time>
      </trkpt>
      <trkpt lat="48.60864" lon="2.12422">
        <ele>86</ele>
        <time>2021-03-07T13:38:06.280Z</time>
      </trkpt>
      <trkpt lat="48.60865" lon="2.12422">
        <ele>85</ele>
        <time>2021-03-07T13:38:07.280Z</time>
      </trkpt>
      <trkpt lat="48.60867" lon="2.12422">
        <ele>85</ele>
        <time>2021-03-07T13:38:08.279Z</time>
      </trkpt>
      <trkpt lat="48.60868" lon="2.12421">
        <ele>85</ele>
        <time>2021-03-07T13:38:09.280Z</time>
      </trkpt>
      <trkpt lat="48.6087" lon="2.12421">
        <ele>85</ele>
        <time>2021-03-07T13:38:10.279Z</time>
      </trkpt>
      <trkpt lat="48.60871" lon="2.1242">
        <ele>86</ele>
        <time>2021-03-07T13:38:11.280Z</time>
      </trkpt>
      <trkpt lat="48.60873" lon="2.1242">
        <ele>87</ele>
        <time>2021-03-07T13:38:12.280Z</time>
      </trkpt>
      <trkpt lat="48.60874" lon="2.12419">
        <ele>87</ele>
        <time>2021-03-07T13:38:13.279Z</time>
      </trkpt>
      <trkpt lat="48.60876" lon="2.12418">
        <ele>88</ele>
        <time>2021-03-07T13:38:14.280Z</time>
      </trkpt>
      <trkpt lat="48.60877" lon="2.12417">
        <ele>88</ele>
        <time>2021-03-07T13:38:15.280Z</time>
      </trkpt>
      <trkpt lat="48.60879" lon="2.12417">
        <ele>89</ele>
        <time>2021-03-07T13:38:16.280Z</time>
      </trkpt>
      <trkpt lat="48.6088" lon="2.12417">
        <ele>89</ele>
        <time>2021-03-07T13:38:17.280Z</time>
      </trkpt>
      <trkpt lat="48.60882" lon="2.12417">
        <ele>89</ele>
        <time>2021-03-07T13:38:18.279Z</time>
      </trkpt>
      <trkpt lat="48.60883" lon="2.12416">
        <ele>90</ele>
        <time>2021-03-07T13:38:19.280Z</time>
      </trkpt>
      <trkpt lat="48.60884" lon="2.12416">
        <ele>90</ele>
        <time>2021-03-07T13:38:20.279Z</time>
      </trkpt>
      <trkpt lat="48.60884" lon="2.12416">
        <ele>90</ele>
        <time>2021-03-07T13:38:21.280Z</time>
      </trkpt>
      <trkpt lat="48.60885" lon="2.12416">
        <ele>90</ele>
        <time>2021-03-07T13:38:22.280Z</time>
      </trkpt>
      <trkpt lat="48.60885" lon="2.12416">
        <ele>90</ele>
        <time>2021-03-07T13:38:23.280Z</time>
      </trkpt>
      <trkpt lat="48.60886" lon="2.12415">
        <ele>90</ele>
        <time>2021-03-07T13:38:24.280Z</time>
      </trkpt>
      <trkpt lat="48.60887" lon="2.12415">
        <ele>90</ele>
        <time>2021-03-07T13:38:25.280Z</time>
      </trkpt>
      <trkpt lat="48.60889" lon="2.12414">
        <ele>90</ele>
        <time>2021-03-07T13:38:26.280Z</time>
      </trkpt>
      <trkpt lat="48.6089" lon="2.12413">
        <ele>90</ele>
        <time>2021-03-07T13:38:27.280Z</time>
      </trkpt>
      <trkpt lat="48.60891" lon="2.12413">
        <ele>90</ele>
        <time>2021-03-07T13:38:28.280Z</time>
      </trkpt>
      <trkpt lat="48.60893" lon="2.12412">
        <ele>90</ele>
        <time>2021-03-07T13:38:29.280Z</time>
      </trkpt>
      <trkpt lat="48.60894" lon="2.12411">
        <ele>89</ele>
        <time>2021-03-07T13:38:30.280Z</time>
      </trkpt>
      <trkpt lat="48.60896" lon="2.1241">
        <ele>89</ele>
        <time>2021-03-07T13:38:31.280Z</time>
      </trkpt>
      <trkpt lat="48.60897" lon="2.1241">
        <ele>90</ele>
        <time>2021-03-07T13:38:32.280Z</time>
      </trkpt>
      <trkpt lat="48.60899" lon="2.12409">
        <ele>90</ele>
        <time>2021-03-07T13:38:33.279Z</time>
      </trkpt>
      <trkpt lat="48.609" lon="2.12409">
        <ele>90</ele>
        <time>2021-03-07T13:38:34.280Z</time>
      </trkpt>
      <trkpt lat="48.60902" lon="2.12409">
        <ele>90</ele>
        <time>2021-03-07T13:38:35.280Z</time>
      </trkpt>
      <trkpt lat="48.60903" lon="2.12408">
        <ele>90</ele>
        <time>2021-03-07T13:38:36.280Z</time>
      </trkpt>
      <trkpt lat="48.60905" lon="2.12408">
        <ele>90</ele>
        <time>2021-03-07T13:38:37.280Z</time>
      </trkpt>
      <trkpt lat="48.60907" lon="2.12408">
        <ele>91</ele>
        <time>2021-03-07T13:38:38.280Z</time>
      </trkpt>
      <trkpt lat="48.60908" lon="2.12407">
        <ele>91</ele>
        <time>2021-03-07T13:38:39.280Z</time>
      </trkpt>
      <trkpt lat="48.6091" lon="2.12406">
        <ele>91</ele>
        <time>2021-03-07T13:38:40.280Z</time>
      </trkpt>
      <trkpt lat="48.60911" lon="2.12406">
        <ele>92</ele>
        <time>2021-03-07T13:38:41.280Z</time>
      </trkpt>
      <trkpt lat="48.60913" lon="2.12405">
        <ele>92</ele>
        <time>2021-03-07T13:38:42.280Z</time>
      </trkpt>
      <trkpt lat="48.60914" lon="2.12404">
        <ele>92</ele>
        <time>2021-03-07T13:38:43.280Z</time>
      </trkpt>
      <trkpt lat="48.60916" lon="2.12403">
        <ele>91</ele>
        <time>2021-03-07T13:38:44.280Z</time>
      </trkpt>
      <trkpt lat="48.60918" lon="2.12402">
        <ele>90</ele>
        <time>2021-03-07T13:38:45.280Z</time>
      </trkpt>
      <trkpt lat="48.60919" lon="2.12401">
        <ele>89</ele>
        <time>2021-03-07T13:38:46.280Z</time>
      </trkpt>
      <trkpt lat="48.6092" lon="2.12401">
        <ele>88</ele>
        <time>2021-03-07T13:38:47.280Z</time>
      </trkpt>
      <trkpt lat="48.60922" lon="2.124">
        <ele>87</ele>
        <time>2021-03-07T13:38:48.280Z</time>
      </trkpt>
      <trkpt lat="48.60923" lon="2.124">
        <ele>87</ele>
        <time>2021-03-07T13:38:49.280Z</time>
      </trkpt>
      <trkpt lat="48.60925" lon="2.12399">
        <ele>86</ele>
        <time>2021-03-07T13:38:50.280Z</time>
      </trkpt>
      <trkpt lat="48.60926" lon="2.12398">
        <ele>85</ele>
        <time>2021-03-07T13:38:51.280Z</time>
      </trkpt>
      <trkpt lat="48.60927" lon="2.12397">
        <ele>85</ele>
        <time>2021-03-07T13:38:52.279Z</time>
      </trkpt>
      <trkpt lat="48.60929" lon="2.12396">
        <ele>84</ele>
        <time>2021-03-07T13:38:53.280Z</time>
      </trkpt>
      <trkpt lat="48.6093" lon="2.12395">
        <ele>84</ele>
        <time>2021-03-07T13:38:54.279Z</time>
      </trkpt>
      <trkpt lat="48.60931" lon="2.12394">
        <ele>85</ele>
        <time>2021-03-07T13:38:55.279Z</time>
      </trkpt>
      <trkpt lat="48.60932" lon="2.12394">
        <ele>85</ele>
        <time>2021-03-07T13:38:56.280Z</time>
      </trkpt>
      <trkpt lat="48.60934" lon="2.12393">
        <ele>86</ele>
        <time>2021-03-07T13:38:57.279Z</time>
      </trkpt>
      <trkpt lat="48.60935" lon="2.12393">
        <ele>86</ele>
        <time>2021-03-07T13:38:58.280Z</time>
      </trkpt>
      <trkpt lat="48.60937" lon="2.12392">
        <ele>87</ele>
        <time>2021-03-07T13:38:59.280Z</time>
      </trkpt>
      <trkpt lat="48.60938" lon="2.12392">
        <ele>88</ele>
        <time>2021-03-07T13:39:00.280Z</time>
      </trkpt>
      <trkpt lat="48.6094" lon="2.12391">
        <ele>89</ele>
        <time>2021-03-07T13:39:01.280Z</time>
      </trkpt>
      <trkpt lat="48.60942" lon="2.12391">
        <ele>89</ele>
        <time>2021-03-07T13:39:02.280Z</time>
      </trkpt>
      <trkpt lat="48.60943" lon="2.1239">
        <ele>90</ele>
        <time>2021-03-07T13:39:03.280Z</time>
      </trkpt>
      <trkpt lat="48.60945" lon="2.1239">
        <ele>90</ele>
        <time>2021-03-07T13:39:04.280Z</time>
      </trkpt>
      <trkpt lat="48.60947" lon="2.1239">
        <ele>90</ele>
        <time>2021-03-07T13:39:05.280Z</time>
      </trkpt>
      <trkpt lat="48.60948" lon="2.1239">
        <ele>91</ele>
        <time>2021-03-07T13:39:06.280Z</time>
      </trkpt>
      <trkpt lat="48.6095" lon="2.12389">
        <ele>91</ele>
        <time>2021-03-07T13:39:07.280Z</time>
      </trkpt>
      <trkpt lat="48.60951" lon="2.12389">
        <ele>91</ele>
        <time>2021-03-07T13:39:08.280Z</time>
      </trkpt>
      <trkpt lat="48.60953" lon="2.12388">
        <ele>91</ele>
        <time>2021-03-07T13:39:09.280Z</time>
      </trkpt>
      <trkpt lat="48.60955" lon="2.12388">
        <ele>91</ele>
        <time>2021-03-07T13:39:10.280Z</time>
      </trkpt>
      <trkpt lat="48.60956" lon="2.12388">
        <ele>91</ele>
        <time>2021-03-07T13:39:11.279Z</time>
      </trkpt>
      <trkpt lat="48.60958" lon="2.12387">
        <ele>90</ele>
        <time>2021-03-07T13:39:12.280Z</time>
      </trkpt>
      <trkpt lat="48.6096" lon="2.12387">
        <ele>90</ele>
        <time>2021-03-07T13:39:13.280Z</time>
      </trkpt>
      <trkpt lat="48.60961" lon="2.12386">
        <ele>89</ele>
        <time>2021-03-07T13:39:14.280Z</time>
      </trkpt>
      <trkpt lat="48.60963" lon="2.12386">
        <ele>89</ele>
        <time>2021-03-07T13:39:15.280Z</time>
      </trkpt>
      <trkpt lat="48.60965" lon="2.12386">
        <ele>88</ele>
        <time>2021-03-07T13:39:16.280Z</time>
      </trkpt>
      <trkpt lat="48.60966" lon="2.12385">
        <ele>88</ele>
        <time>2021-03-07T13:39:17.279Z</time>
      </trkpt>
      <trkpt lat="48.60968" lon="2.12385">
        <ele>88</ele>
        <time>2021-03-07T13:39:18.280Z</time>
      </trkpt>
      <trkpt lat="48.60969" lon="2.12384">
        <ele>87</ele>
        <time>2021-03-07T13:39:19.280Z</time>
      </trkpt>
      <trkpt lat="48.60971" lon="2.12384">
        <ele>87</ele>
        <time>2021-03-07T13:39:20.280Z</time>
      </trkpt>
      <trkpt lat="48.60972" lon="2.12383">
        <ele>86</ele>
        <time>2021-03-07T13:39:21.280Z</time>
      </trkpt>
      <trkpt lat="48.60974" lon="2.12383">
        <ele>86</ele>
        <time>2021-03-07T13:39:22.280Z</time>
      </trkpt>
      <trkpt lat="48.60976" lon="2.12382">
        <ele>87</ele>
        <time>2021-03-07T13:39:23.279Z</time>
      </trkpt>
      <trkpt lat="48.60977" lon="2.12382">
        <ele>87</ele>
        <time>2021-03-07T13:39:24.280Z</time>
      </trkpt>
      <trkpt lat="48.60978" lon="2.12382">
        <ele>87</ele>
        <time>2021-03-07T13:39:25.280Z</time>
      </trkpt>
      <trkpt lat="48.6098" lon="2.12381">
        <ele>86</ele>
        <time>2021-03-07T13:39:26.279Z</time>
      </trkpt>
      <trkpt lat="48.60982" lon="2.12381">
        <ele>87</ele>
        <time>2021-03-07T13:39:27.280Z</time>
      </trkpt>
      <trkpt lat="48.60983" lon="2.1238">
        <ele>87</ele>
        <time>2021-03-07T13:39:28.280Z</time>
      </trkpt>
      <trkpt lat="48.60985" lon="2.1238">
        <ele>87</ele>
        <time>2021-03-07T13:39:29.279Z</time>
      </trkpt>
      <trkpt lat="48.60986" lon="2.12379">
        <ele>87</ele>
        <time>2021-03-07T13:39:30.280Z</time>
      </trkpt>
      <trkpt lat="48.60988" lon="2.12378">
        <ele>88</ele>
        <time>2021-03-07T13:39:31.280Z</time>
      </trkpt>
      <trkpt lat="48.60989" lon="2.12376">
        <ele>88</ele>
        <time>2021-03-07T13:39:32.279Z</time>
      </trkpt>
      <trkpt lat="48.6099" lon="2.12375">
        <ele>88</ele>
        <time>2021-03-07T13:39:33.279Z</time>
      </trkpt>
      <trkpt lat="48.60992" lon="2.12374">
        <ele>88</ele>
        <time>2021-03-07T13:39:34.280Z</time>
      </trkpt>
      <trkpt lat="48.60993" lon="2.12372">
        <ele>88</ele>
        <time>2021-03-07T13:39:35.280Z</time>
      </trkpt>
      <trkpt lat="48.60994" lon="2.1237">
        <ele>88</ele>
        <time>2021-03-07T13:39:36.280Z</time>
      </trkpt>
      <trkpt lat="48.60995" lon="2.12368">
        <ele>89</ele>
        <time>2021-03-07T13:39:37.280Z</time>
      </trkpt>
      <trkpt lat="48.60996" lon="2.12367">
        <ele>89</ele>
        <time>2021-03-07T13:39:38.280Z</time>
      </trkpt>
      <trkpt lat="48.60998" lon="2.12365">
        <ele>89</ele>
        <time>2021-03-07T13:39:39.280Z</time>
      </trkpt>
      <trkpt lat="48.60999" lon="2.12362">
        <ele>89</ele>
        <time>2021-03-07T13:39:40.280Z</time>
      </trkpt>
      <trkpt lat="48.60999" lon="2.1236">
        <ele>89</ele>
        <time>2021-03-07T13:39:41.280Z</time>
      </trkpt>
      <trkpt lat="48.61" lon="2.12358">
        <ele>88</ele>
        <time>2021-03-07T13:39:42.280Z</time>
      </trkpt>
      <trkpt lat="48.61" lon="2.12355">
        <ele>88</ele>
        <time>2021-03-07T13:39:43.279Z</time>
      </trkpt>
      <trkpt lat="48.61" lon="2.12351">
        <ele>88</ele>
        <time>2021-03-07T13:39:44.280Z</time>
      </trkpt>
      <trkpt lat="48.61001" lon="2.12349">
        <ele>87</ele>
        <time>2021-03-07T13:39:45.280Z</time>
      </trkpt>
      <trkpt lat="48.61001" lon="2.12346">
        <ele>87</ele>
        <time>2021-03-07T13:39:46.280Z</time>
      </trkpt>
      <trkpt lat="48.61001" lon="2.12343">
        <ele>87</ele>
        <time>2021-03-07T13:39:47.280Z</time>
      </trkpt>
      <trkpt lat="48.61001" lon="2.12341">
        <ele>86</ele>
        <time>2021-03-07T13:39:48.280Z</time>
      </trkpt>
      <trkpt lat="48.61001" lon="2.12338">
        <ele>86</ele>
        <time>2021-03-07T13:39:49.279Z</time>
      </trkpt>
      <trkpt lat="48.61001" lon="2.12336">
        <ele>86</ele>
        <time>2021-03-07T13:39:50.280Z</time>
      </trkpt>
      <trkpt lat="48.61" lon="2.12333">
        <ele>85</ele>
        <time>2021-03-07T13:39:51.280Z</time>
      </trkpt>
      <trkpt lat="48.61" lon="2.12331">
        <ele>85</ele>
        <time>2021-03-07T13:39:52.279Z</time>
      </trkpt>
      <trkpt lat="48.61" lon="2.12329">
        <ele>85</ele>
        <time>2021-03-07T13:39:53.280Z</time>
      </trkpt>
      <trkpt lat="48.61" lon="2.12327">
        <ele>85</ele>
        <time>2021-03-07T13:39:54.279Z</time>
      </trkpt>
      <trkpt lat="48.60999" lon="2.12324">
        <ele>85</ele>
        <time>2021-03-07T13:39:55.280Z</time>
      </trkpt>
      <trkpt lat="48.60999" lon="2.12322">
        <ele>85</ele>
        <time>2021-03-07T13:39:56.279Z</time>
      </trkpt>
      <trkpt lat="48.60998" lon="2.12319">
        <ele>85</ele>
        <time>2021-03-07T13:39:57.280Z</time>
      </trkpt>
      <trkpt lat="48.60998" lon="2.12317">
        <ele>86</ele>
        <time>2021-03-07T13:39:58.279Z</time>
      </trkpt>
      <trkpt lat="48.60997" lon="2.12314">
        <ele>86</ele>
        <time>2021-03-07T13:39:59.280Z</time>
      </trkpt>
      <trkpt lat="48.60997" lon="2.12312">
        <ele>86</ele>
        <time>2021-03-07T13:40:00.280Z</time>
      </trkpt>
      <trkpt lat="48.60997" lon="2.12309">
        <ele>86</ele>
        <time>2021-03-07T13:40:01.280Z</time>
      </trkpt>
      <trkpt lat="48.60996" lon="2.12306">
        <ele>86</ele>
        <time>2021-03-07T13:40:02.280Z</time>
      </trkpt>
      <trkpt lat="48.60995" lon="2.12304">
        <ele>85</ele>
        <time>2021-03-07T13:40:03.279Z</time>
      </trkpt>
      <trkpt lat="48.60995" lon="2.12301">
        <ele>85</ele>
        <time>2021-03-07T13:40:04.280Z</time>
      </trkpt>
      <trkpt lat="48.60994" lon="2.12298">
        <ele>85</ele>
        <time>2021-03-07T13:40:05.280Z</time>
      </trkpt>
      <trkpt lat="48.60994" lon="2.12295">
        <ele>84</ele>
        <time>2021-03-07T13:40:06.280Z</time>
      </trkpt>
      <trkpt lat="48.60994" lon="2.12293">
        <ele>84</ele>
        <time>2021-03-07T13:40:07.280Z</time>
      </trkpt>
      <trkpt lat="48.60993" lon="2.1229">
        <ele>84</ele>
        <time>2021-03-07T13:40:08.280Z</time>
      </trkpt>
      <trkpt lat="48.60993" lon="2.12287">
        <ele>83</ele>
        <time>2021-03-07T13:40:09.280Z</time>
      </trkpt>
      <trkpt lat="48.60992" lon="2.12284">
        <ele>83</ele>
        <time>2021-03-07T13:40:10.280Z</time>
      </trkpt>
      <trkpt lat="48.60992" lon="2.12281">
        <ele>83</ele>
        <time>2021-03-07T13:40:11.280Z</time>
      </trkpt>
      <trkpt lat="48.60991" lon="2.12279">
        <ele>83</ele>
        <time>2021-03-07T13:40:12.279Z</time>
      </trkpt>
      <trkpt lat="48.60991" lon="2.12276">
        <ele>83</ele>
        <time>2021-03-07T13:40:13.280Z</time>
      </trkpt>
      <trkpt lat="48.60991" lon="2.12272">
        <ele>82</ele>
        <time>2021-03-07T13:40:14.280Z</time>
      </trkpt>
      <trkpt lat="48.6099" lon="2.1227">
        <ele>82</ele>
        <time>2021-03-07T13:40:15.280Z</time>
      </trkpt>
      <trkpt lat="48.6099" lon="2.12267">
        <ele>82</ele>
        <time>2021-03-07T13:40:16.280Z</time>
      </trkpt>
      <trkpt lat="48.6099" lon="2.12264">
        <ele>83</ele>
        <time>2021-03-07T13:40:17.280Z</time>
      </trkpt>
      <trkpt lat="48.6099" lon="2.12261">
        <ele>83</ele>
        <time>2021-03-07T13:40:18.279Z</time>
      </trkpt>
      <trkpt lat="48.60989" lon="2.12258">
        <ele>83</ele>
        <time>2021-03-07T13:40:19.279Z</time>
      </trkpt>
      <trkpt lat="48.60989" lon="2.12255">
        <ele>83</ele>
        <time>2021-03-07T13:40:20.280Z</time>
      </trkpt>
      <trkpt lat="48.60989" lon="2.12253">
        <ele>83</ele>
        <time>2021-03-07T13:40:21.279Z</time>
      </trkpt>
      <trkpt lat="48.60989" lon="2.1225">
        <ele>83</ele>
        <time>2021-03-07T13:40:22.280Z</time>
      </trkpt>
      <trkpt lat="48.60988" lon="2.12247">
        <ele>83</ele>
        <time>2021-03-07T13:40:23.280Z</time>
      </trkpt>
      <trkpt lat="48.60988" lon="2.12244">
        <ele>83</ele>
        <time>2021-03-07T13:40:24.280Z</time>
      </trkpt>
      <trkpt lat="48.60987" lon="2.12241">
        <ele>83</ele>
        <time>2021-03-07T13:40:25.280Z</time>
      </trkpt>
      <trkpt lat="48.60987" lon="2.12238">
        <ele>83</ele>
        <time>2021-03-07T13:40:26.279Z</time>
      </trkpt>
      <trkpt lat="48.60987" lon="2.12236">
        <ele>83</ele>
        <time>2021-03-07T13:40:27.280Z</time>
      </trkpt>
      <trkpt lat="48.60986" lon="2.12233">
        <ele>83</ele>
        <time>2021-03-07T13:40:28.279Z</time>
      </trkpt>
      <trkpt lat="48.60986" lon="2.1223">
        <ele>84</ele>
        <time>2021-03-07T13:40:29.280Z</time>
      </trkpt>
      <trkpt lat="48.60985" lon="2.12227">
        <ele>85</ele>
        <time>2021-03-07T13:40:30.280Z</time>
      </trkpt>
      <trkpt lat="48.60985" lon="2.12225">
        <ele>85</ele>
        <time>2021-03-07T13:40:31.280Z</time>
      </trkpt>
      <trkpt lat="48.60985" lon="2.12223">
        <ele>86</ele>
        <time>2021-03-07T13:40:32.279Z</time>
      </trkpt>
      <trkpt lat="48.60985" lon="2.1222">
        <ele>85</ele>
        <time>2021-03-07T13:40:33.280Z</time>
      </trkpt>
      <trkpt lat="48.60985" lon="2.12218">
        <ele>85</ele>
        <time>2021-03-07T13:40:34.280Z</time>
      </trkpt>
      <trkpt lat="48.60986" lon="2.12215">
        <ele>84</ele>
        <time>2021-03-07T13:40:35.280Z</time>
      </trkpt>
      <trkpt lat="48.60986" lon="2.12213">
        <ele>84</ele>
        <time>2021-03-07T13:40:36.280Z</time>
      </trkpt>
      <trkpt lat="48.60987" lon="2.1221">
        <ele>85</ele>
        <time>2021-03-07T13:40:37.280Z</time>
      </trkpt>
      <trkpt lat="48.60988" lon="2.12208">
        <ele>85</ele>
        <time>2021-03-07T13:40:38.280Z</time>
      </trkpt>
      <trkpt lat="48.60987" lon="2.12207">
        <ele>85</ele>
        <time>2021-03-07T13:40:39.280Z</time>
      </trkpt>
      <trkpt lat="48.60987" lon="2.12204">
        <ele>85</ele>
        <time>2021-03-07T13:40:40.280Z</time>
      </trkpt>
      <trkpt lat="48.60987" lon="2.12202">
        <ele>86</ele>
        <time>2021-03-07T13:40:41.279Z</time>
      </trkpt>
      <trkpt lat="48.60987" lon="2.122">
        <ele>86</ele>
        <time>2021-03-07T13:40:42.280Z</time>
      </trkpt>
      <trkpt lat="48.60988" lon="2.12198">
        <ele>87</ele>
        <time>2021-03-07T13:40:43.280Z</time>
      </trkpt>
      <trkpt lat="48.60988" lon="2.12196">
        <ele>87</ele>
        <time>2021-03-07T13:40:44.280Z</time>
      </trkpt>
      <trkpt lat="48.60988" lon="2.12194">
        <ele>87</ele>
        <time>2021-03-07T13:40:45.280Z</time>
      </trkpt>
      <trkpt lat="48.60989" lon="2.12192">
        <ele>87</ele>
        <time>2021-03-07T13:40:46.280Z</time>
      </trkpt>
      <trkpt lat="48.6099" lon="2.1219">
        <ele>88</ele>
        <time>2021-03-07T13:40:47.280Z</time>
      </trkpt>
      <trkpt lat="48.60991" lon="2.1219">
        <ele>87</ele>
        <time>2021-03-07T13:40:48.280Z</time>
      </trkpt>
      <trkpt lat="48.60992" lon="2.12189">
        <ele>86</ele>
        <time>2021-03-07T13:40:49.280Z</time>
      </trkpt>
      <trkpt lat="48.60993" lon="2.12188">
        <ele>85</ele>
        <time>2021-03-07T13:40:50.280Z</time>
      </trkpt>
      <trkpt lat="48.60993" lon="2.12185">
        <ele>84</ele>
        <time>2021-03-07T13:40:51.280Z</time>
      </trkpt>
      <trkpt lat="48.60994" lon="2.12183">
        <ele>83</ele>
        <time>2021-03-07T13:40:52.280Z</time>
      </trkpt>
      <trkpt lat="48.60994" lon="2.1218">
        <ele>83</ele>
        <time>2021-03-07T13:40:53.280Z</time>
      </trkpt>
      <trkpt lat="48.60995" lon="2.12177">
        <ele>82</ele>
        <time>2021-03-07T13:40:54.279Z</time>
      </trkpt>
      <trkpt lat="48.60995" lon="2.12175">
        <ele>83</ele>
        <time>2021-03-07T13:40:55.280Z</time>
      </trkpt>
      <trkpt lat="48.60996" lon="2.12173">
        <ele>83</ele>
        <time>2021-03-07T13:40:56.280Z</time>
      </trkpt>
      <trkpt lat="48.60997" lon="2.12171">
        <ele>83</ele>
        <time>2021-03-07T13:40:57.280Z</time>
      </trkpt>
      <trkpt lat="48.60997" lon="2.12168">
        <ele>84</ele>
        <time>2021-03-07T13:40:58.280Z</time>
      </trkpt>
      <trkpt lat="48.60998" lon="2.12167">
        <ele>84</ele>
        <time>2021-03-07T13:40:59.280Z</time>
      </trkpt>
      <trkpt lat="48.60998" lon="2.12166">
        <ele>84</ele>
        <time>2021-03-07T13:41:00.280Z</time>
      </trkpt>
      <trkpt lat="48.60998" lon="2.12165">
        <ele>85</ele>
        <time>2021-03-07T13:41:01.280Z</time>
      </trkpt>
      <trkpt lat="48.60998" lon="2.12164">
        <ele>85</ele>
        <time>2021-03-07T13:41:02.280Z</time>
      </trkpt>
      <trkpt lat="48.60998" lon="2.12164">
        <ele>86</ele>
        <time>2021-03-07T13:41:03.280Z</time>
      </trkpt>
      <trkpt lat="48.60997" lon="2.12165">
        <ele>86</ele>
        <time>2021-03-07T13:41:04.279Z</time>
      </trkpt>
      <trkpt lat="48.60997" lon="2.12166">
        <ele>87</ele>
        <time>2021-03-07T13:41:05.279Z</time>
      </trkpt>
      <trkpt lat="48.60997" lon="2.12166">
        <ele>88</ele>
        <time>2021-03-07T13:41:06.279Z</time>
      </trkpt>
      <trkpt lat="48.60996" lon="2.12166">
        <ele>88</ele>
        <time>2021-03-07T13:41:07.280Z</time>
      </trkpt>
      <trkpt lat="48.60996" lon="2.12167">
        <ele>89</ele>
        <time>2021-03-07T13:41:08.280Z</time>
      </trkpt>
      <trkpt lat="48.60996" lon="2.12166">
        <ele>89</ele>
        <time>2021-03-07T13:41:09.280Z</time>
      </trkpt>
      <trkpt lat="48.60995" lon="2.12165">
        <ele>90</ele>
        <time>2021-03-07T13:41:10.280Z</time>
      </trkpt>
      <trkpt lat="48.60995" lon="2.12163">
        <ele>90</ele>
        <time>2021-03-07T13:41:11.280Z</time>
      </trkpt>
      <trkpt lat="48.60996" lon="2.12162">
        <ele>90</ele>
        <time>2021-03-07T13:41:12.280Z</time>
      </trkpt>
      <trkpt lat="48.60996" lon="2.1216">
        <ele>91</ele>
        <time>2021-03-07T13:41:13.280Z</time>
      </trkpt>
      <trkpt lat="48.60997" lon="2.12158">
        <ele>91</ele>
        <time>2021-03-07T13:41:14.279Z</time>
      </trkpt>
      <trkpt lat="48.60997" lon="2.12157">
        <ele>92</ele>
        <time>2021-03-07T13:41:15.280Z</time>
      </trkpt>
      <trkpt lat="48.60998" lon="2.12156">
        <ele>92</ele>
        <time>2021-03-07T13:41:16.280Z</time>
      </trkpt>
      <trkpt lat="48.60998" lon="2.12155">
        <ele>93</ele>
        <time>2021-03-07T13:41:17.280Z</time>
      </trkpt>
      <trkpt lat="48.60999" lon="2.12154">
        <ele>93</ele>
        <time>2021-03-07T13:41:18.280Z</time>
      </trkpt>
      <trkpt lat="48.60999" lon="2.12152">
        <ele>94</ele>
        <time>2021-03-07T13:41:19.280Z</time>
      </trkpt>
      <trkpt lat="48.60999" lon="2.12151">
        <ele>94</ele>
        <time>2021-03-07T13:41:20.280Z</time>
      </trkpt>
      <trkpt lat="48.61" lon="2.1215">
        <ele>94</ele>
        <time>2021-03-07T13:41:21.279Z</time>
      </trkpt>
      <trkpt lat="48.61" lon="2.12149">
        <ele>94</ele>
        <time>2021-03-07T13:41:22.280Z</time>
      </trkpt>
      <trkpt lat="48.61001" lon="2.12148">
        <ele>95</ele>
        <time>2021-03-07T13:41:23.280Z</time>
      </trkpt>
      <trkpt lat="48.61001" lon="2.12147">
        <ele>95</ele>
        <time>2021-03-07T13:41:24.280Z</time>
      </trkpt>
      <trkpt lat="48.61002" lon="2.12145">
        <ele>95</ele>
        <time>2021-03-07T13:41:25.280Z</time>
      </trkpt>
      <trkpt lat="48.61002" lon="2.12142">
        <ele>96</ele>
        <time>2021-03-07T13:41:26.280Z</time>
      </trkpt>
      <trkpt lat="48.61001" lon="2.12139">
        <ele>96</ele>
        <time>2021-03-07T13:41:27.280Z</time>
      </trkpt>
      <trkpt lat="48.61001" lon="2.12135">
        <ele>96</ele>
        <time>2021-03-07T13:41:28.279Z</time>
      </trkpt>
      <trkpt lat="48.61002" lon="2.12131">
        <ele>96</ele>
        <time>2021-03-07T13:41:29.280Z</time>
      </trkpt>
      <trkpt lat="48.61003" lon="2.12127">
        <ele>95</ele>
        <time>2021-03-07T13:41:30.280Z</time>
      </trkpt>
      <trkpt lat="48.61003" lon="2.12124">
        <ele>95</ele>
        <time>2021-03-07T13:41:31.280Z</time>
      </trkpt>
      <trkpt lat="48.61004" lon="2.12121">
        <ele>95</ele>
        <time>2021-03-07T13:41:32.280Z</time>
      </trkpt>
      <trkpt lat="48.61004" lon="2.12118">
        <ele>94</ele>
        <time>2021-03-07T13:41:33.280Z</time>
      </trkpt>
      <trkpt lat="48.61005" lon="2.12116">
        <ele>94</ele>
        <time>2021-03-07T13:41:34.280Z</time>
      </trkpt>
      <trkpt lat="48.61006" lon="2.12114">
        <ele>93</ele>
        <time>2021-03-07T13:41:35.280Z</time>
      </trkpt>
      <trkpt lat="48.61006" lon="2.12111">
        <ele>92</ele>
        <time>2021-03-07T13:41:36.279Z</time>
      </trkpt>
      <trkpt lat="48.61007" lon="2.12109">
        <ele>92</ele>
        <time>2021-03-07T13:41:37.280Z</time>
      </trkpt>
      <trkpt lat="48.61008" lon="2.12107">
        <ele>91</ele>
        <time>2021-03-07T13:41:38.279Z</time>
      </trkpt>
      <trkpt lat="48.61009" lon="2.12106">
        <ele>91</ele>
        <time>2021-03-07T13:41:39.280Z</time>
      </trkpt>
      <trkpt lat="48.6101" lon="2.12104">
        <ele>91</ele>
        <time>2021-03-07T13:41:40.280Z</time>
      </trkpt>
      <trkpt lat="48.61011" lon="2.12102">
        <ele>91</ele>
        <time>2021-03-07T13:41:41.280Z</time>
      </trkpt>
      <trkpt lat="48.61013" lon="2.12099">
        <ele>90</ele>
        <time>2021-03-07T13:41:42.279Z</time>
      </trkpt>
      <trkpt lat="48.61014" lon="2.12096">
        <ele>90</ele>
        <time>2021-03-07T13:41:43.280Z</time>
      </trkpt>
      <trkpt lat="48.61015" lon="2.12094">
        <ele>89</ele>
        <time>2021-03-07T13:41:44.280Z</time>
      </trkpt>
      <trkpt lat="48.61017" lon="2.12092">
        <ele>89</ele>
        <time>2021-03-07T13:41:45.280Z</time>
      </trkpt>
      <trkpt lat="48.61018" lon="2.1209">
        <ele>88</ele>
        <time>2021-03-07T13:41:46.280Z</time>
      </trkpt>
      <trkpt lat="48.61019" lon="2.12088">
        <ele>88</ele>
        <time>2021-03-07T13:41:47.280Z</time>
      </trkpt>
      <trkpt lat="48.61021" lon="2.12087">
        <ele>88</ele>
        <time>2021-03-07T13:41:48.280Z</time>
      </trkpt>
      <trkpt lat="48.61022" lon="2.12086">
        <ele>87</ele>
        <time>2021-03-07T13:41:49.279Z</time>
      </trkpt>
      <trkpt lat="48.61023" lon="2.12085">
        <ele>87</ele>
        <time>2021-03-07T13:41:50.280Z</time>
      </trkpt>
      <trkpt lat="48.61025" lon="2.12084">
        <ele>86</ele>
        <time>2021-03-07T13:41:51.280Z</time>
      </trkpt>
      <trkpt lat="48.61026" lon="2.12083">
        <ele>85</ele>
        <time>2021-03-07T13:41:52.279Z</time>
      </trkpt>
      <trkpt lat="48.61028" lon="2.12083">
        <ele>85</ele>
        <time>2021-03-07T13:41:53.280Z</time>
      </trkpt>
      <trkpt lat="48.6103" lon="2.12082">
        <ele>84</ele>
        <time>2021-03-07T13:41:54.279Z</time>
      </trkpt>
      <trkpt lat="48.61031" lon="2.12081">
        <ele>83</ele>
        <time>2021-03-07T13:41:55.280Z</time>
      </trkpt>
      <trkpt lat="48.61033" lon="2.1208">
        <ele>81</ele>
        <time>2021-03-07T13:41:56.280Z</time>
      </trkpt>
      <trkpt lat="48.61034" lon="2.12079">
        <ele>81</ele>
        <time>2021-03-07T13:41:57.280Z</time>
      </trkpt>
      <trkpt lat="48.61036" lon="2.12079">
        <ele>81</ele>
        <time>2021-03-07T13:41:58.280Z</time>
      </trkpt>
      <trkpt lat="48.61038" lon="2.12078">
        <ele>80</ele>
        <time>2021-03-07T13:41:59.279Z</time>
      </trkpt>
      <trkpt lat="48.61039" lon="2.12078">
        <ele>80</ele>
        <time>2021-03-07T13:42:00.280Z</time>
      </trkpt>
      <trkpt lat="48.61041" lon="2.12078">
        <ele>79</ele>
        <time>2021-03-07T13:42:01.280Z</time>
      </trkpt>
      <trkpt lat="48.61042" lon="2.12078">
        <ele>79</ele>
        <time>2021-03-07T13:42:02.280Z</time>
      </trkpt>
      <trkpt lat="48.61044" lon="2.12078">
        <ele>78</ele>
        <time>2021-03-07T13:42:03.279Z</time>
      </trkpt>
      <trkpt lat="48.61046" lon="2.12078">
        <ele>78</ele>
        <time>2021-03-07T13:42:04.280Z</time>
      </trkpt>
      <trkpt lat="48.61047" lon="2.12077">
        <ele>78</ele>
        <time>2021-03-07T13:42:05.280Z</time>
      </trkpt>
      <trkpt lat="48.61049" lon="2.12077">
        <ele>78</ele>
        <time>2021-03-07T13:42:06.280Z</time>
      </trkpt>
      <trkpt lat="48.61051" lon="2.12076">
        <ele>77</ele>
        <time>2021-03-07T13:42:07.280Z</time>
      </trkpt>
      <trkpt lat="48.61052" lon="2.12076">
        <ele>77</ele>
        <time>2021-03-07T13:42:08.280Z</time>
      </trkpt>
      <trkpt lat="48.61054" lon="2.12076">
        <ele>77</ele>
        <time>2021-03-07T13:42:09.280Z</time>
      </trkpt>
      <trkpt lat="48.61055" lon="2.12076">
        <ele>78</ele>
        <time>2021-03-07T13:42:10.279Z</time>
      </trkpt>
      <trkpt lat="48.61057" lon="2.12075">
        <ele>78</ele>
        <time>2021-03-07T13:42:11.280Z</time>
      </trkpt>
      <trkpt lat="48.61058" lon="2.12074">
        <ele>78</ele>
        <time>2021-03-07T13:42:12.280Z</time>
      </trkpt>
      <trkpt lat="48.6106" lon="2.12074">
        <ele>79</ele>
        <time>2021-03-07T13:42:13.280Z</time>
      </trkpt>
      <trkpt lat="48.61061" lon="2.12074">
        <ele>79</ele>
        <time>2021-03-07T13:42:14.280Z</time>
      </trkpt>
      <trkpt lat="48.61063" lon="2.12073">
        <ele>80</ele>
        <time>2021-03-07T13:42:15.279Z</time>
      </trkpt>
      <trkpt lat="48.61064" lon="2.12073">
        <ele>81</ele>
        <time>2021-03-07T13:42:16.280Z</time>
      </trkpt>
      <trkpt lat="48.61066" lon="2.12072">
        <ele>81</ele>
        <time>2021-03-07T13:42:17.280Z</time>
      </trkpt>
      <trkpt lat="48.61067" lon="2.12072">
        <ele>81</ele>
        <time>2021-03-07T13:42:18.280Z</time>
      </trkpt>
      <trkpt lat="48.61069" lon="2.12071">
        <ele>81</ele>
        <time>2021-03-07T13:42:19.279Z</time>
      </trkpt>
      <trkpt lat="48.6107" lon="2.12071">
        <ele>81</ele>
        <time>2021-03-07T13:42:20.279Z</time>
      </trkpt>
      <trkpt lat="48.61072" lon="2.1207">
        <ele>81</ele>
        <time>2021-03-07T13:42:21.280Z</time>
      </trkpt>
      <trkpt lat="48.61074" lon="2.1207">
        <ele>81</ele>
        <time>2021-03-07T13:42:22.280Z</time>
      </trkpt>
      <trkpt lat="48.61075" lon="2.1207">
        <ele>81</ele>
        <time>2021-03-07T13:42:23.279Z</time>
      </trkpt>
      <trkpt lat="48.61077" lon="2.12069">
        <ele>80</ele>
        <time>2021-03-07T13:42:24.279Z</time>
      </trkpt>
      <trkpt lat="48.61078" lon="2.12068">
        <ele>80</ele>
        <time>2021-03-07T13:42:25.280Z</time>
      </trkpt>
      <trkpt lat="48.6108" lon="2.12067">
        <ele>81</ele>
        <time>2021-03-07T13:42:26.280Z</time>
      </trkpt>
      <trkpt lat="48.61082" lon="2.12067">
        <ele>81</ele>
        <time>2021-03-07T13:42:27.280Z</time>
      </trkpt>
      <trkpt lat="48.61084" lon="2.12066">
        <ele>81</ele>
        <time>2021-03-07T13:42:28.279Z</time>
      </trkpt>
      <trkpt lat="48.61085" lon="2.12066">
        <ele>82</ele>
        <time>2021-03-07T13:42:29.279Z</time>
      </trkpt>
      <trkpt lat="48.61087" lon="2.12065">
        <ele>82</ele>
        <time>2021-03-07T13:42:30.279Z</time>
      </trkpt>
      <trkpt lat="48.61088" lon="2.12065">
        <ele>82</ele>
        <time>2021-03-07T13:42:31.280Z</time>
      </trkpt>
      <trkpt lat="48.6109" lon="2.12064">
        <ele>82</ele>
        <time>2021-03-07T13:42:32.279Z</time>
      </trkpt>
      <trkpt lat="48.61091" lon="2.12064">
        <ele>82</ele>
        <time>2021-03-07T13:42:33.279Z</time>
      </trkpt>
      <trkpt lat="48.61093" lon="2.12063">
        <ele>82</ele>
        <time>2021-03-07T13:42:34.279Z</time>
      </trkpt>
      <trkpt lat="48.61094" lon="2.12062">
        <ele>81</ele>
        <time>2021-03-07T13:42:35.279Z</time>
      </trkpt>
      <trkpt lat="48.61095" lon="2.12061">
        <ele>81</ele>
        <time>2021-03-07T13:42:36.280Z</time>
      </trkpt>
      <trkpt lat="48.61097" lon="2.1206">
        <ele>81</ele>
        <time>2021-03-07T13:42:37.279Z</time>
      </trkpt>
      <trkpt lat="48.61098" lon="2.12059">
        <ele>80</ele>
        <time>2021-03-07T13:42:38.280Z</time>
      </trkpt>
      <trkpt lat="48.611" lon="2.12059">
        <ele>80</ele>
        <time>2021-03-07T13:42:39.279Z</time>
      </trkpt>
      <trkpt lat="48.61101" lon="2.12058">
        <ele>80</ele>
        <time>2021-03-07T13:42:40.279Z</time>
      </trkpt>
      <trkpt lat="48.61103" lon="2.12058">
        <ele>80</ele>
        <time>2021-03-07T13:42:41.280Z</time>
      </trkpt>
      <trkpt lat="48.61104" lon="2.12057">
        <ele>80</ele>
        <time>2021-03-07T13:42:42.280Z</time>
      </trkpt>
      <trkpt lat="48.61106" lon="2.12056">
        <ele>80</ele>
        <time>2021-03-07T13:42:43.279Z</time>
      </trkpt>
      <trkpt lat="48.61108" lon="2.12055">
        <ele>81</ele>
        <time>2021-03-07T13:42:44.279Z</time>
      </trkpt>
      <trkpt lat="48.61109" lon="2.12054">
        <ele>82</ele>
        <time>2021-03-07T13:42:45.280Z</time>
      </trkpt>
      <trkpt lat="48.61111" lon="2.12054">
        <ele>83</ele>
        <time>2021-03-07T13:42:46.280Z</time>
      </trkpt>
      <trkpt lat="48.61112" lon="2.12053">
        <ele>83</ele>
        <time>2021-03-07T13:42:47.279Z</time>
      </trkpt>
      <trkpt lat="48.61114" lon="2.12052">
        <ele>84</ele>
        <time>2021-03-07T13:42:48.280Z</time>
      </trkpt>
      <trkpt lat="48.61115" lon="2.12052">
        <ele>85</ele>
        <time>2021-03-07T13:42:49.280Z</time>
      </trkpt>
      <trkpt lat="48.61117" lon="2.12051">
        <ele>85</ele>
        <time>2021-03-07T13:42:50.280Z</time>
      </trkpt>
      <trkpt lat="48.61119" lon="2.12051">
        <ele>85</ele>
        <time>2021-03-07T13:42:51.280Z</time>
      </trkpt>
      <trkpt lat="48.6112" lon="2.1205">
        <ele>85</ele>
        <time>2021-03-07T13:42:52.280Z</time>
      </trkpt>
      <trkpt lat="48.61122" lon="2.1205">
        <ele>85</ele>
        <time>2021-03-07T13:42:53.279Z</time>
      </trkpt>
      <trkpt lat="48.61123" lon="2.1205">
        <ele>85</ele>
        <time>2021-03-07T13:42:54.280Z</time>
      </trkpt>
      <trkpt lat="48.61124" lon="2.1205">
        <ele>86</ele>
        <time>2021-03-07T13:42:55.279Z</time>
      </trkpt>
      <trkpt lat="48.61126" lon="2.1205">
        <ele>86</ele>
        <time>2021-03-07T13:42:56.280Z</time>
      </trkpt>
      <trkpt lat="48.61127" lon="2.12049">
        <ele>86</ele>
        <time>2021-03-07T13:42:57.280Z</time>
      </trkpt>
      <trkpt lat="48.61129" lon="2.12049">
        <ele>86</ele>
        <time>2021-03-07T13:42:58.280Z</time>
      </trkpt>
      <trkpt lat="48.61131" lon="2.12049">
        <ele>86</ele>
        <time>2021-03-07T13:42:59.280Z</time>
      </trkpt>
      <trkpt lat="48.61132" lon="2.12049">
        <ele>86</ele>
        <time>2021-03-07T13:43:00.280Z</time>
      </trkpt>
      <trkpt lat="48.61134" lon="2.12048">
        <ele>86</ele>
        <time>2021-03-07T13:43:01.280Z</time>
      </trkpt>
      <trkpt lat="48.61135" lon="2.12048">
        <ele>86</ele>
        <time>2021-03-07T13:43:02.280Z</time>
      </trkpt>
      <trkpt lat="48.61137" lon="2.12048">
        <ele>86</ele>
        <time>2021-03-07T13:43:03.280Z</time>
      </trkpt>
      <trkpt lat="48.61139" lon="2.12047">
        <ele>86</ele>
        <time>2021-03-07T13:43:04.280Z</time>
      </trkpt>
      <trkpt lat="48.61141" lon="2.12047">
        <ele>86</ele>
        <time>2021-03-07T13:43:05.279Z</time>
      </trkpt>
      <trkpt lat="48.61142" lon="2.12046">
        <ele>86</ele>
        <time>2021-03-07T13:43:06.280Z</time>
      </trkpt>
      <trkpt lat="48.61144" lon="2.12045">
        <ele>86</ele>
        <time>2021-03-07T13:43:07.280Z</time>
      </trkpt>
      <trkpt lat="48.61145" lon="2.12044">
        <ele>86</ele>
        <time>2021-03-07T13:43:08.279Z</time>
      </trkpt>
      <trkpt lat="48.61147" lon="2.12043">
        <ele>86</ele>
        <time>2021-03-07T13:43:09.280Z</time>
      </trkpt>
      <trkpt lat="48.61149" lon="2.12042">
        <ele>87</ele>
        <time>2021-03-07T13:43:10.280Z</time>
      </trkpt>
      <trkpt lat="48.61151" lon="2.12042">
        <ele>87</ele>
        <time>2021-03-07T13:43:11.280Z</time>
      </trkpt>
      <trkpt lat="48.61152" lon="2.12041">
        <ele>87</ele>
        <time>2021-03-07T13:43:12.280Z</time>
      </trkpt>
      <trkpt lat="48.61154" lon="2.1204">
        <ele>88</ele>
        <time>2021-03-07T13:43:13.280Z</time>
      </trkpt>
      <trkpt lat="48.61156" lon="2.1204">
        <ele>88</ele>
        <time>2021-03-07T13:43:14.280Z</time>
      </trkpt>
      <trkpt lat="48.61157" lon="2.1204">
        <ele>88</ele>
        <time>2021-03-07T13:43:15.280Z</time>
      </trkpt>
      <trkpt lat="48.61159" lon="2.1204">
        <ele>88</ele>
        <time>2021-03-07T13:43:16.280Z</time>
      </trkpt>
      <trkpt lat="48.61161" lon="2.12039">
        <ele>88</ele>
        <time>2021-03-07T13:43:17.280Z</time>
      </trkpt>
      <trkpt lat="48.61162" lon="2.12039">
        <ele>88</ele>
        <time>2021-03-07T13:43:18.280Z</time>
      </trkpt>
      <trkpt lat="48.61164" lon="2.12038">
        <ele>87</ele>
        <time>2021-03-07T13:43:19.279Z</time>
      </trkpt>
      <trkpt lat="48.61165" lon="2.12038">
        <ele>87</ele>
        <time>2021-03-07T13:43:20.280Z</time>
      </trkpt>
      <trkpt lat="48.61167" lon="2.12037">
        <ele>87</ele>
        <time>2021-03-07T13:43:21.279Z</time>
      </trkpt>
      <trkpt lat="48.61168" lon="2.12037">
        <ele>87</ele>
        <time>2021-03-07T13:43:22.279Z</time>
      </trkpt>
      <trkpt lat="48.6117" lon="2.12036">
        <ele>88</ele>
        <time>2021-03-07T13:43:23.279Z</time>
      </trkpt>
      <trkpt lat="48.61172" lon="2.12036">
        <ele>88</ele>
        <time>2021-03-07T13:43:24.280Z</time>
      </trkpt>
      <trkpt lat="48.61173" lon="2.12035">
        <ele>88</ele>
        <time>2021-03-07T13:43:25.280Z</time>
      </trkpt>
      <trkpt lat="48.61175" lon="2.12035">
        <ele>88</ele>
        <time>2021-03-07T13:43:26.280Z</time>
      </trkpt>
      <trkpt lat="48.61177" lon="2.12035">
        <ele>89</ele>
        <time>2021-03-07T13:43:27.279Z</time>
      </trkpt>
      <trkpt lat="48.61178" lon="2.12035">
        <ele>89</ele>
        <time>2021-03-07T13:43:28.280Z</time>
      </trkpt>
      <trkpt lat="48.61179" lon="2.12034">
        <ele>89</ele>
        <time>2021-03-07T13:43:29.279Z</time>
      </trkpt>
      <trkpt lat="48.61181" lon="2.12033">
        <ele>89</ele>
        <time>2021-03-07T13:43:30.280Z</time>
      </trkpt>
      <trkpt lat="48.61182" lon="2.12032">
        <ele>89</ele>
        <time>2021-03-07T13:43:31.279Z</time>
      </trkpt>
      <trkpt lat="48.61184" lon="2.12031">
        <ele>89</ele>
        <time>2021-03-07T13:43:32.280Z</time>
      </trkpt>
      <trkpt lat="48.61185" lon="2.1203">
        <ele>90</ele>
        <time>2021-03-07T13:43:33.280Z</time>
      </trkpt>
      <trkpt lat="48.61187" lon="2.12029">
        <ele>90</ele>
        <time>2021-03-07T13:43:34.280Z</time>
      </trkpt>
      <trkpt lat="48.61189" lon="2.12029">
        <ele>89</ele>
        <time>2021-03-07T13:43:35.280Z</time>
      </trkpt>
      <trkpt lat="48.6119" lon="2.12028">
        <ele>89</ele>
        <time>2021-03-07T13:43:36.280Z</time>
      </trkpt>
      <trkpt lat="48.61192" lon="2.12028">
        <ele>89</ele>
        <time>2021-03-07T13:43:37.279Z</time>
      </trkpt>
      <trkpt lat="48.61193" lon="2.12028">
        <ele>88</ele>
        <time>2021-03-07T13:43:38.280Z</time>
      </trkpt>
      <trkpt lat="48.61195" lon="2.12028">
        <ele>88</ele>
        <time>2021-03-07T13:43:39.279Z</time>
      </trkpt>
      <trkpt lat="48.61197" lon="2.12027">
        <ele>88</ele>
        <time>2021-03-07T13:43:40.280Z</time>
      </trkpt>
      <trkpt lat="48.61198" lon="2.12027">
        <ele>88</ele>
        <time>2021-03-07T13:43:41.280Z</time>
      </trkpt>
      <trkpt lat="48.612" lon="2.12026">
        <ele>88</ele>
        <time>2021-03-07T13:43:42.280Z</time>
      </trkpt>
      <trkpt lat="48.61201" lon="2.12026">
        <ele>88</ele>
        <time>2021-03-07T13:43:43.280Z</time>
      </trkpt>
      <trkpt lat="48.61203" lon="2.12025">
        <ele>88</ele>
        <time>2021-03-07T13:43:44.280Z</time>
      </trkpt>
      <trkpt lat="48.61205" lon="2.12024">
        <ele>87</ele>
        <time>2021-03-07T13:43:45.280Z</time>
      </trkpt>
      <trkpt lat="48.61206" lon="2.12024">
        <ele>87</ele>
        <time>2021-03-07T13:43:46.279Z</time>
      </trkpt>
      <trkpt lat="48.61208" lon="2.12024">
        <ele>86</ele>
        <time>2021-03-07T13:43:47.280Z</time>
      </trkpt>
      <trkpt lat="48.6121" lon="2.12024">
        <ele>86</ele>
        <time>2021-03-07T13:43:48.279Z</time>
      </trkpt>
      <trkpt lat="48.61211" lon="2.12023">
        <ele>85</ele>
        <time>2021-03-07T13:43:49.280Z</time>
      </trkpt>
      <trkpt lat="48.61213" lon="2.12023">
        <ele>84</ele>
        <time>2021-03-07T13:43:50.280Z</time>
      </trkpt>
      <trkpt lat="48.61214" lon="2.12022">
        <ele>84</ele>
        <time>2021-03-07T13:43:51.280Z</time>
      </trkpt>
      <trkpt lat="48.61216" lon="2.12022">
        <ele>83</ele>
        <time>2021-03-07T13:43:52.280Z</time>
      </trkpt>
      <trkpt lat="48.61217" lon="2.12021">
        <ele>83</ele>
        <time>2021-03-07T13:43:53.279Z</time>
      </trkpt>
      <trkpt lat="48.61219" lon="2.12021">
        <ele>83</ele>
        <time>2021-03-07T13:43:54.280Z</time>
      </trkpt>
      <trkpt lat="48.6122" lon="2.12021">
        <ele>83</ele>
        <time>2021-03-07T13:43:55.280Z</time>
      </trkpt>
      <trkpt lat="48.61222" lon="2.1202">
        <ele>82</ele>
        <time>2021-03-07T13:43:56.279Z</time>
      </trkpt>
      <trkpt lat="48.61224" lon="2.12019">
        <ele>83</ele>
        <time>2021-03-07T13:43:57.280Z</time>
      </trkpt>
      <trkpt lat="48.61225" lon="2.12018">
        <ele>83</ele>
        <time>2021-03-07T13:43:58.280Z</time>
      </trkpt>
      <trkpt lat="48.61227" lon="2.12018">
        <ele>83</ele>
        <time>2021-03-07T13:43:59.280Z</time>
      </trkpt>
      <trkpt lat="48.61229" lon="2.12017">
        <ele>83</ele>
        <time>2021-03-07T13:44:00.280Z</time>
      </trkpt>
      <trkpt lat="48.6123" lon="2.12017">
        <ele>82</ele>
        <time>2021-03-07T13:44:01.280Z</time>
      </trkpt>
      <trkpt lat="48.61232" lon="2.12017">
        <ele>82</ele>
        <time>2021-03-07T13:44:02.279Z</time>
      </trkpt>
      <trkpt lat="48.61233" lon="2.12016">
        <ele>82</ele>
        <time>2021-03-07T13:44:03.280Z</time>
      </trkpt>
      <trkpt lat="48.61235" lon="2.12015">
        <ele>81</ele>
        <time>2021-03-07T13:44:04.279Z</time>
      </trkpt>
      <trkpt lat="48.61237" lon="2.12015">
        <ele>80</ele>
        <time>2021-03-07T13:44:05.280Z</time>
      </trkpt>
      <trkpt lat="48.61239" lon="2.12014">
        <ele>80</ele>
        <time>2021-03-07T13:44:06.280Z</time>
      </trkpt>
      <trkpt lat="48.6124" lon="2.12013">
        <ele>80</ele>
        <time>2021-03-07T13:44:07.280Z</time>
      </trkpt>
      <trkpt lat="48.61242" lon="2.12012">
        <ele>80</ele>
        <time>2021-03-07T13:44:08.280Z</time>
      </trkpt>
      <trkpt lat="48.61244" lon="2.12011">
        <ele>81</ele>
        <time>2021-03-07T13:44:09.280Z</time>
      </trkpt>
      <trkpt lat="48.61245" lon="2.1201">
        <ele>81</ele>
        <time>2021-03-07T13:44:10.280Z</time>
      </trkpt>
      <trkpt lat="48.61247" lon="2.12009">
        <ele>81</ele>
        <time>2021-03-07T13:44:11.279Z</time>
      </trkpt>
      <trkpt lat="48.61248" lon="2.12008">
        <ele>81</ele>
        <time>2021-03-07T13:44:12.280Z</time>
      </trkpt>
      <trkpt lat="48.6125" lon="2.12007">
        <ele>81</ele>
        <time>2021-03-07T13:44:13.280Z</time>
      </trkpt>
      <trkpt lat="48.61251" lon="2.12005">
        <ele>82</ele>
        <time>2021-03-07T13:44:14.280Z</time>
      </trkpt>
      <trkpt lat="48.61252" lon="2.12004">
        <ele>82</ele>
        <time>2021-03-07T13:44:15.280Z</time>
      </trkpt>
      <trkpt lat="48.61254" lon="2.12002">
        <ele>82</ele>
        <time>2021-03-07T13:44:16.280Z</time>
      </trkpt>
      <trkpt lat="48.61255" lon="2.12001">
        <ele>83</ele>
        <time>2021-03-07T13:44:17.279Z</time>
      </trkpt>
      <trkpt lat="48.61257" lon="2.11999">
        <ele>83</ele>
        <time>2021-03-07T13:44:18.280Z</time>
      </trkpt>
      <trkpt lat="48.61258" lon="2.11998">
        <ele>83</ele>
        <time>2021-03-07T13:44:19.280Z</time>
      </trkpt>
      <trkpt lat="48.61259" lon="2.11997">
        <ele>84</ele>
        <time>2021-03-07T13:44:20.280Z</time>
      </trkpt>
      <trkpt lat="48.61261" lon="2.11995">
        <ele>84</ele>
        <time>2021-03-07T13:44:21.280Z</time>
      </trkpt>
      <trkpt lat="48.61262" lon="2.11994">
        <ele>85</ele>
        <time>2021-03-07T13:44:22.280Z</time>
      </trkpt>
      <trkpt lat="48.61264" lon="2.11992">
        <ele>85</ele>
        <time>2021-03-07T13:44:23.280Z</time>
      </trkpt>
      <trkpt lat="48.61265" lon="2.11992">
        <ele>86</ele>
        <time>2021-03-07T13:44:24.280Z</time>
      </trkpt>
      <trkpt lat="48.61267" lon="2.11991">
        <ele>87</ele>
        <time>2021-03-07T13:44:25.280Z</time>
      </trkpt>
      <trkpt lat="48.61268" lon="2.1199">
        <ele>87</ele>
        <time>2021-03-07T13:44:26.279Z</time>
      </trkpt>
      <trkpt lat="48.6127" lon="2.11989">
        <ele>87</ele>
        <time>2021-03-07T13:44:27.280Z</time>
      </trkpt>
      <trkpt lat="48.61271" lon="2.11988">
        <ele>86</ele>
        <time>2021-03-07T13:44:28.280Z</time>
      </trkpt>
      <trkpt lat="48.61273" lon="2.11988">
        <ele>86</ele>
        <time>2021-03-07T13:44:29.280Z</time>
      </trkpt>
      <trkpt lat="48.61274" lon="2.11987">
        <ele>86</ele>
        <time>2021-03-07T13:44:30.280Z</time>
      </trkpt>
      <trkpt lat="48.61276" lon="2.11987">
        <ele>86</ele>
        <time>2021-03-07T13:44:31.280Z</time>
      </trkpt>
      <trkpt lat="48.61278" lon="2.11987">
        <ele>86</ele>
        <time>2021-03-07T13:44:32.279Z</time>
      </trkpt>
      <trkpt lat="48.6128" lon="2.11987">
        <ele>86</ele>
        <time>2021-03-07T13:44:33.280Z</time>
      </trkpt>
      <trkpt lat="48.61281" lon="2.11987">
        <ele>86</ele>
        <time>2021-03-07T13:44:34.280Z</time>
      </trkpt>
      <trkpt lat="48.61283" lon="2.11986">
        <ele>86</ele>
        <time>2021-03-07T13:44:35.280Z</time>
      </trkpt>
      <trkpt lat="48.61284" lon="2.11986">
        <ele>85</ele>
        <time>2021-03-07T13:44:36.280Z</time>
      </trkpt>
      <trkpt lat="48.61285" lon="2.11985">
        <ele>85</ele>
        <time>2021-03-07T13:44:37.280Z</time>
      </trkpt>
      <trkpt lat="48.61286" lon="2.11984">
        <ele>84</ele>
        <time>2021-03-07T13:44:38.280Z</time>
      </trkpt>
      <trkpt lat="48.61287" lon="2.11982">
        <ele>84</ele>
        <time>2021-03-07T13:44:39.280Z</time>
      </trkpt>
      <trkpt lat="48.61288" lon="2.11981">
        <ele>84</ele>
        <time>2021-03-07T13:44:40.279Z</time>
      </trkpt>
      <trkpt lat="48.61289" lon="2.1198">
        <ele>85</ele>
        <time>2021-03-07T13:44:41.280Z</time>
      </trkpt>
      <trkpt lat="48.61289" lon="2.11979">
        <ele>85</ele>
        <time>2021-03-07T13:44:42.280Z</time>
      </trkpt>
      <trkpt lat="48.61289" lon="2.11978">
        <ele>85</ele>
        <time>2021-03-07T13:44:43.280Z</time>
      </trkpt>
      <trkpt lat="48.6129" lon="2.11976">
        <ele>86</ele>
        <time>2021-03-07T13:44:44.280Z</time>
      </trkpt>
      <trkpt lat="48.6129" lon="2.11974">
        <ele>86</ele>
        <time>2021-03-07T13:44:45.279Z</time>
      </trkpt>
      <trkpt lat="48.61291" lon="2.11972">
        <ele>86</ele>
        <time>2021-03-07T13:44:46.279Z</time>
      </trkpt>
      <trkpt lat="48.61292" lon="2.11969">
        <ele>86</ele>
        <time>2021-03-07T13:44:47.279Z</time>
      </trkpt>
      <trkpt lat="48.61293" lon="2.11967">
        <ele>87</ele>
        <time>2021-03-07T13:44:48.279Z</time>
      </trkpt>
      <trkpt lat="48.61294" lon="2.11965">
        <ele>87</ele>
        <time>2021-03-07T13:44:49.279Z</time>
      </trkpt>
      <trkpt lat="48.61295" lon="2.11963">
        <ele>87</ele>
        <time>2021-03-07T13:44:50.279Z</time>
      </trkpt>
      <trkpt lat="48.61296" lon="2.1196">
        <ele>88</ele>
        <time>2021-03-07T13:44:51.279Z</time>
      </trkpt>
      <trkpt lat="48.61297" lon="2.11958">
        <ele>88</ele>
        <time>2021-03-07T13:44:52.279Z</time>
      </trkpt>
      <trkpt lat="48.61298" lon="2.11955">
        <ele>88</ele>
        <time>2021-03-07T13:44:53.280Z</time>
      </trkpt>
      <trkpt lat="48.61299" lon="2.11953">
        <ele>88</ele>
        <time>2021-03-07T13:44:54.280Z</time>
      </trkpt>
      <trkpt lat="48.613" lon="2.11951">
        <ele>88</ele>
        <time>2021-03-07T13:44:55.280Z</time>
      </trkpt>
      <trkpt lat="48.61301" lon="2.11949">
        <ele>89</ele>
        <time>2021-03-07T13:44:56.280Z</time>
      </trkpt>
      <trkpt lat="48.61302" lon="2.11948">
        <ele>89</ele>
        <time>2021-03-07T13:44:57.280Z</time>
      </trkpt>
      <trkpt lat="48.61303" lon="2.11947">
        <ele>89</ele>
        <time>2021-03-07T13:44:58.280Z</time>
      </trkpt>
      <trkpt lat="48.61305" lon="2.11945">
        <ele>89</ele>
        <time>2021-03-07T13:44:59.280Z</time>
      </trkpt>
      <trkpt lat="48.61306" lon="2.11943">
        <ele>88</ele>
        <time>2021-03-07T13:45:00.280Z</time>
      </trkpt>
      <trkpt lat="48.61307" lon="2.11941">
        <ele>88</ele>
        <time>2021-03-07T13:45:01.279Z</time>
      </trkpt>
      <trkpt lat="48.61308" lon="2.1194">
        <ele>88</ele>
        <time>2021-03-07T13:45:02.280Z</time>
      </trkpt>
      <trkpt lat="48.6131" lon="2.11939">
        <ele>88</ele>
        <time>2021-03-07T13:45:03.280Z</time>
      </trkpt>
      <trkpt lat="48.61311" lon="2.11938">
        <ele>88</ele>
        <time>2021-03-07T13:45:04.280Z</time>
      </trkpt>
      <trkpt lat="48.61313" lon="2.11937">
        <ele>88</ele>
        <time>2021-03-07T13:45:05.279Z</time>
      </trkpt>
      <trkpt lat="48.61314" lon="2.11935">
        <ele>88</ele>
        <time>2021-03-07T13:45:06.280Z</time>
      </trkpt>
      <trkpt lat="48.61315" lon="2.11934">
        <ele>88</ele>
        <time>2021-03-07T13:45:07.279Z</time>
      </trkpt>
      <trkpt lat="48.61316" lon="2.11932">
        <ele>88</ele>
        <time>2021-03-07T13:45:08.280Z</time>
      </trkpt>
      <trkpt lat="48.61318" lon="2.1193">
        <ele>88</ele>
        <time>2021-03-07T13:45:09.280Z</time>
      </trkpt>
      <trkpt lat="48.6134" lon="2.11893">
        <ele>87</ele>
        <time>2021-03-07T13:45:31.280Z</time>
      </trkpt>
      <trkpt lat="48.61344" lon="2.11884">
        <ele>86</ele>
        <time>2021-03-07T13:45:32.280Z</time>
      </trkpt>
      <trkpt lat="48.61347" lon="2.1188">
        <ele>86</ele>
        <time>2021-03-07T13:45:33.279Z</time>
      </trkpt>
      <trkpt lat="48.61348" lon="2.1188">
        <ele>86</ele>
        <time>2021-03-07T13:45:34.280Z</time>
      </trkpt>
      <trkpt lat="48.6135" lon="2.11878">
        <ele>86</ele>
        <time>2021-03-07T13:45:35.280Z</time>
      </trkpt>
      <trkpt lat="48.61352" lon="2.11877">
        <ele>86</ele>
        <time>2021-03-07T13:45:36.279Z</time>
      </trkpt>
      <trkpt lat="48.61354" lon="2.11876">
        <ele>87</ele>
        <time>2021-03-07T13:45:37.280Z</time>
      </trkpt>
      <trkpt lat="48.61355" lon="2.11875">
        <ele>87</ele>
        <time>2021-03-07T13:45:38.280Z</time>
      </trkpt>
      <trkpt lat="48.61357" lon="2.11874">
        <ele>88</ele>
        <time>2021-03-07T13:45:39.280Z</time>
      </trkpt>
      <trkpt lat="48.61359" lon="2.11874">
        <ele>88</ele>
        <time>2021-03-07T13:45:40.280Z</time>
      </trkpt>
      <trkpt lat="48.61361" lon="2.11875">
        <ele>88</ele>
        <time>2021-03-07T13:45:41.280Z</time>
      </trkpt>
      <trkpt lat="48.61363" lon="2.11875">
        <ele>89</ele>
        <time>2021-03-07T13:45:42.280Z</time>
      </trkpt>
      <trkpt lat="48.61364" lon="2.11874">
        <ele>89</ele>
        <time>2021-03-07T13:45:43.280Z</time>
      </trkpt>
      <trkpt lat="48.61366" lon="2.11874">
        <ele>89</ele>
        <time>2021-03-07T13:45:44.279Z</time>
      </trkpt>
      <trkpt lat="48.61367" lon="2.11873">
        <ele>90</ele>
        <time>2021-03-07T13:45:45.280Z</time>
      </trkpt>
      <trkpt lat="48.61368" lon="2.11871">
        <ele>90</ele>
        <time>2021-03-07T13:45:46.279Z</time>
      </trkpt>
      <trkpt lat="48.61369" lon="2.1187">
        <ele>90</ele>
        <time>2021-03-07T13:45:47.280Z</time>
      </trkpt>
      <trkpt lat="48.6137" lon="2.1187">
        <ele>91</ele>
        <time>2021-03-07T13:45:48.280Z</time>
      </trkpt>
      <trkpt lat="48.61416" lon="2.11838">
        <ele>89</ele>
        <time>2021-03-07T13:46:21.280Z</time>
      </trkpt>
      <trkpt lat="48.61419" lon="2.11832">
        <ele>88</ele>
        <time>2021-03-07T13:46:22.279Z</time>
      </trkpt>
      <trkpt lat="48.61421" lon="2.11826">
        <ele>88</ele>
        <time>2021-03-07T13:46:23.280Z</time>
      </trkpt>
      <trkpt lat="48.61423" lon="2.11823">
        <ele>87</ele>
        <time>2021-03-07T13:46:24.280Z</time>
      </trkpt>
      <trkpt lat="48.61424" lon="2.11823">
        <ele>87</ele>
        <time>2021-03-07T13:46:25.279Z</time>
      </trkpt>
      <trkpt lat="48.61427" lon="2.11822">
        <ele>86</ele>
        <time>2021-03-07T13:46:26.280Z</time>
      </trkpt>
      <trkpt lat="48.61429" lon="2.11821">
        <ele>86</ele>
        <time>2021-03-07T13:46:27.280Z</time>
      </trkpt>
      <trkpt lat="48.61431" lon="2.11821">
        <ele>85</ele>
        <time>2021-03-07T13:46:28.280Z</time>
      </trkpt>
      <trkpt lat="48.61433" lon="2.1182">
        <ele>84</ele>
        <time>2021-03-07T13:46:29.280Z</time>
      </trkpt>
      <trkpt lat="48.61434" lon="2.11818">
        <ele>84</ele>
        <time>2021-03-07T13:46:30.280Z</time>
      </trkpt>
      <trkpt lat="48.61436" lon="2.11816">
        <ele>84</ele>
        <time>2021-03-07T13:46:31.280Z</time>
      </trkpt>
      <trkpt lat="48.61437" lon="2.11814">
        <ele>84</ele>
        <time>2021-03-07T13:46:32.280Z</time>
      </trkpt>
      <trkpt lat="48.61438" lon="2.11812">
        <ele>84</ele>
        <time>2021-03-07T13:46:33.280Z</time>
      </trkpt>
      <trkpt lat="48.61439" lon="2.11811">
        <ele>85</ele>
        <time>2021-03-07T13:46:34.279Z</time>
      </trkpt>
      <trkpt lat="48.61441" lon="2.11809">
        <ele>86</ele>
        <time>2021-03-07T13:46:35.280Z</time>
      </trkpt>
      <trkpt lat="48.61442" lon="2.11808">
        <ele>86</ele>
        <time>2021-03-07T13:46:36.280Z</time>
      </trkpt>
      <trkpt lat="48.61444" lon="2.11806">
        <ele>86</ele>
        <time>2021-03-07T13:46:37.280Z</time>
      </trkpt>
      <trkpt lat="48.61446" lon="2.11805">
        <ele>86</ele>
        <time>2021-03-07T13:46:38.280Z</time>
      </trkpt>
      <trkpt lat="48.61447" lon="2.11804">
        <ele>87</ele>
        <time>2021-03-07T13:46:39.279Z</time>
      </trkpt>
      <trkpt lat="48.61449" lon="2.11802">
        <ele>87</ele>
        <time>2021-03-07T13:46:40.280Z</time>
      </trkpt>
      <trkpt lat="48.61451" lon="2.118">
        <ele>87</ele>
        <time>2021-03-07T13:46:41.280Z</time>
      </trkpt>
      <trkpt lat="48.61453" lon="2.11798">
        <ele>87</ele>
        <time>2021-03-07T13:46:42.280Z</time>
      </trkpt>
      <trkpt lat="48.61454" lon="2.11798">
        <ele>87</ele>
        <time>2021-03-07T13:46:43.279Z</time>
      </trkpt>
      <trkpt lat="48.61456" lon="2.11798">
        <ele>87</ele>
        <time>2021-03-07T13:46:44.279Z</time>
      </trkpt>
      <trkpt lat="48.61458" lon="2.11797">
        <ele>87</ele>
        <time>2021-03-07T13:46:45.280Z</time>
      </trkpt>
      <trkpt lat="48.61459" lon="2.11796">
        <ele>86</ele>
        <time>2021-03-07T13:46:46.280Z</time>
      </trkpt>
      <trkpt lat="48.61461" lon="2.11795">
        <ele>86</ele>
        <time>2021-03-07T13:46:47.280Z</time>
      </trkpt>
      <trkpt lat="48.61462" lon="2.11795">
        <ele>86</ele>
        <time>2021-03-07T13:46:48.280Z</time>
      </trkpt>
      <trkpt lat="48.61464" lon="2.11795">
        <ele>86</ele>
        <time>2021-03-07T13:46:49.280Z</time>
      </trkpt>
      <trkpt lat="48.61465" lon="2.11794">
        <ele>86</ele>
        <time>2021-03-07T13:46:50.280Z</time>
      </trkpt>
      <trkpt lat="48.61467" lon="2.11793">
        <ele>86</ele>
        <time>2021-03-07T13:46:51.280Z</time>
      </trkpt>
      <trkpt lat="48.61469" lon="2.11793">
        <ele>86</ele>
        <time>2021-03-07T13:46:52.280Z</time>
      </trkpt>
      <trkpt lat="48.6147" lon="2.11792">
        <ele>87</ele>
        <time>2021-03-07T13:46:53.280Z</time>
      </trkpt>
      <trkpt lat="48.61472" lon="2.11792">
        <ele>87</ele>
        <time>2021-03-07T13:46:54.280Z</time>
      </trkpt>
      <trkpt lat="48.61473" lon="2.11792">
        <ele>87</ele>
        <time>2021-03-07T13:46:55.280Z</time>
      </trkpt>
      <trkpt lat="48.61475" lon="2.11793">
        <ele>87</ele>
        <time>2021-03-07T13:46:56.280Z</time>
      </trkpt>
      <trkpt lat="48.61477" lon="2.11792">
        <ele>87</ele>
        <time>2021-03-07T13:46:57.280Z</time>
      </trkpt>
      <trkpt lat="48.61478" lon="2.11792">
        <ele>87</ele>
        <time>2021-03-07T13:46:58.279Z</time>
      </trkpt>
      <trkpt lat="48.6148" lon="2.11792">
        <ele>86</ele>
        <time>2021-03-07T13:46:59.280Z</time>
      </trkpt>
      <trkpt lat="48.61482" lon="2.11792">
        <ele>86</ele>
        <time>2021-03-07T13:47:00.280Z</time>
      </trkpt>
      <trkpt lat="48.61483" lon="2.11792">
        <ele>86</ele>
        <time>2021-03-07T13:47:01.280Z</time>
      </trkpt>
      <trkpt lat="48.61485" lon="2.11792">
        <ele>87</ele>
        <time>2021-03-07T13:47:02.280Z</time>
      </trkpt>
      <trkpt lat="48.61486" lon="2.11792">
        <ele>87</ele>
        <time>2021-03-07T13:47:03.280Z</time>
      </trkpt>
      <trkpt lat="48.61488" lon="2.11792">
        <ele>88</ele>
        <time>2021-03-07T13:47:04.279Z</time>
      </trkpt>
      <trkpt lat="48.61489" lon="2.11793">
        <ele>88</ele>
        <time>2021-03-07T13:47:05.280Z</time>
      </trkpt>
      <trkpt lat="48.61491" lon="2.11793">
        <ele>87</ele>
        <time>2021-03-07T13:47:06.280Z</time>
      </trkpt>
      <trkpt lat="48.61493" lon="2.11794">
        <ele>87</ele>
        <time>2021-03-07T13:47:07.280Z</time>
      </trkpt>
      <trkpt lat="48.61494" lon="2.11794">
        <ele>87</ele>
        <time>2021-03-07T13:47:08.280Z</time>
      </trkpt>
      <trkpt lat="48.61496" lon="2.11794">
        <ele>87</ele>
        <time>2021-03-07T13:47:09.280Z</time>
      </trkpt>
      <trkpt lat="48.61498" lon="2.11795">
        <ele>87</ele>
        <time>2021-03-07T13:47:10.279Z</time>
      </trkpt>
      <trkpt lat="48.615" lon="2.11795">
        <ele>87</ele>
        <time>2021-03-07T13:47:11.280Z</time>
      </trkpt>
      <trkpt lat="48.61501" lon="2.11795">
        <ele>87</ele>
        <time>2021-03-07T13:47:12.279Z</time>
      </trkpt>
      <trkpt lat="48.61502" lon="2.11794">
        <ele>86</ele>
        <time>2021-03-07T13:47:13.280Z</time>
      </trkpt>
      <trkpt lat="48.61503" lon="2.11793">
        <ele>85</ele>
        <time>2021-03-07T13:47:14.280Z</time>
      </trkpt>
      <trkpt lat="48.61504" lon="2.11792">
        <ele>85</ele>
        <time>2021-03-07T13:47:15.280Z</time>
      </trkpt>
      <trkpt lat="48.61504" lon="2.1179">
        <ele>85</ele>
        <time>2021-03-07T13:47:16.279Z</time>
      </trkpt>
      <trkpt lat="48.61505" lon="2.11788">
        <ele>84</ele>
        <time>2021-03-07T13:47:17.280Z</time>
      </trkpt>
      <trkpt lat="48.61505" lon="2.11787">
        <ele>84</ele>
        <time>2021-03-07T13:47:18.280Z</time>
      </trkpt>
      <trkpt lat="48.61505" lon="2.11786">
        <ele>85</ele>
        <time>2021-03-07T13:47:19.279Z</time>
      </trkpt>
      <trkpt lat="48.61505" lon="2.11786">
        <ele>85</ele>
        <time>2021-03-07T13:47:20.280Z</time>
      </trkpt>
      <trkpt lat="48.61504" lon="2.11785">
        <ele>84</ele>
        <time>2021-03-07T13:47:21.280Z</time>
      </trkpt>
      <trkpt lat="48.61504" lon="2.11785">
        <ele>84</ele>
        <time>2021-03-07T13:47:22.280Z</time>
      </trkpt>
      <trkpt lat="48.61504" lon="2.11784">
        <ele>84</ele>
        <time>2021-03-07T13:47:23.280Z</time>
      </trkpt>
      <trkpt lat="48.61504" lon="2.11784">
        <ele>84</ele>
        <time>2021-03-07T13:47:24.280Z</time>
      </trkpt>
      <trkpt lat="48.61504" lon="2.11783">
        <ele>85</ele>
        <time>2021-03-07T13:47:25.280Z</time>
      </trkpt>
      <trkpt lat="48.61504" lon="2.11783">
        <ele>85</ele>
        <time>2021-03-07T13:47:26.280Z</time>
      </trkpt>
      <trkpt lat="48.61504" lon="2.11782">
        <ele>86</ele>
        <time>2021-03-07T13:47:27.279Z</time>
      </trkpt>
      <trkpt lat="48.61504" lon="2.11782">
        <ele>86</ele>
        <time>2021-03-07T13:47:28.280Z</time>
      </trkpt>
      <trkpt lat="48.61504" lon="2.11782">
        <ele>86</ele>
        <time>2021-03-07T13:47:29.280Z</time>
      </trkpt>
      <trkpt lat="48.61504" lon="2.11782">
        <ele>86</ele>
        <time>2021-03-07T13:47:30.279Z</time>
      </trkpt>
      <trkpt lat="48.61504" lon="2.11782">
        <ele>85</ele>
        <time>2021-03-07T13:47:31.280Z</time>
      </trkpt>
      <trkpt lat="48.61502" lon="2.11781">
        <ele>85</ele>
        <time>2021-03-07T13:47:32.280Z</time>
      </trkpt>
      <trkpt lat="48.61502" lon="2.11782">
        <ele>84</ele>
        <time>2021-03-07T13:47:33.280Z</time>
      </trkpt>
      <trkpt lat="48.61501" lon="2.11782">
        <ele>83</ele>
        <time>2021-03-07T13:47:34.280Z</time>
      </trkpt>
      <trkpt lat="48.615" lon="2.11782">
        <ele>83</ele>
        <time>2021-03-07T13:47:35.280Z</time>
      </trkpt>
      <trkpt lat="48.61499" lon="2.11782">
        <ele>83</ele>
        <time>2021-03-07T13:47:36.280Z</time>
      </trkpt>
      <trkpt lat="48.61498" lon="2.11781">
        <ele>83</ele>
        <time>2021-03-07T13:47:37.279Z</time>
      </trkpt>
      <trkpt lat="48.61498" lon="2.1178">
        <ele>83</ele>
        <time>2021-03-07T13:47:38.279Z</time>
      </trkpt>
      <trkpt lat="48.61497" lon="2.11778">
        <ele>83</ele>
        <time>2021-03-07T13:47:39.279Z</time>
      </trkpt>
      <trkpt lat="48.61497" lon="2.11775">
        <ele>83</ele>
        <time>2021-03-07T13:47:40.280Z</time>
      </trkpt>
      <trkpt lat="48.61496" lon="2.11771">
        <ele>83</ele>
        <time>2021-03-07T13:47:41.280Z</time>
      </trkpt>
      <trkpt lat="48.61496" lon="2.11769">
        <ele>83</ele>
        <time>2021-03-07T13:47:42.280Z</time>
      </trkpt>
      <trkpt lat="48.61496" lon="2.11766">
        <ele>83</ele>
        <time>2021-03-07T13:47:43.280Z</time>
      </trkpt>
      <trkpt lat="48.61495" lon="2.11764">
        <ele>83</ele>
        <time>2021-03-07T13:47:44.280Z</time>
      </trkpt>
      <trkpt lat="48.61494" lon="2.11761">
        <ele>83</ele>
        <time>2021-03-07T13:47:45.280Z</time>
      </trkpt>
      <trkpt lat="48.61493" lon="2.1176">
        <ele>84</ele>
        <time>2021-03-07T13:47:46.279Z</time>
      </trkpt>
      <trkpt lat="48.61493" lon="2.11757">
        <ele>84</ele>
        <time>2021-03-07T13:47:47.280Z</time>
      </trkpt>
      <trkpt lat="48.61491" lon="2.11755">
        <ele>84</ele>
        <time>2021-03-07T13:47:48.279Z</time>
      </trkpt>
      <trkpt lat="48.6149" lon="2.11753">
        <ele>84</ele>
        <time>2021-03-07T13:47:49.279Z</time>
      </trkpt>
      <trkpt lat="48.6149" lon="2.11751">
        <ele>84</ele>
        <time>2021-03-07T13:47:50.279Z</time>
      </trkpt>
      <trkpt lat="48.61489" lon="2.11749">
        <ele>84</ele>
        <time>2021-03-07T13:47:51.280Z</time>
      </trkpt>
      <trkpt lat="48.61489" lon="2.11746">
        <ele>84</ele>
        <time>2021-03-07T13:47:52.279Z</time>
      </trkpt>
      <trkpt lat="48.61489" lon="2.11744">
        <ele>84</ele>
        <time>2021-03-07T13:47:53.279Z</time>
      </trkpt>
      <trkpt lat="48.61488" lon="2.11742">
        <ele>84</ele>
        <time>2021-03-07T13:47:54.280Z</time>
      </trkpt>
      <trkpt lat="48.61487" lon="2.1174">
        <ele>84</ele>
        <time>2021-03-07T13:47:55.280Z</time>
      </trkpt>
      <trkpt lat="48.61487" lon="2.11738">
        <ele>84</ele>
        <time>2021-03-07T13:47:56.280Z</time>
      </trkpt>
      <trkpt lat="48.61486" lon="2.11736">
        <ele>84</ele>
        <time>2021-03-07T13:47:57.280Z</time>
      </trkpt>
      <trkpt lat="48.61485" lon="2.11733">
        <ele>85</ele>
        <time>2021-03-07T13:47:58.280Z</time>
      </trkpt>
      <trkpt lat="48.61485" lon="2.11731">
        <ele>85</ele>
        <time>2021-03-07T13:47:59.280Z</time>
      </trkpt>
      <trkpt lat="48.61484" lon="2.11728">
        <ele>85</ele>
        <time>2021-03-07T13:48:00.279Z</time>
      </trkpt>
      <trkpt lat="48.61484" lon="2.11726">
        <ele>85</ele>
        <time>2021-03-07T13:48:01.280Z</time>
      </trkpt>
      <trkpt lat="48.61483" lon="2.11723">
        <ele>85</ele>
        <time>2021-03-07T13:48:02.280Z</time>
      </trkpt>
      <trkpt lat="48.61483" lon="2.11721">
        <ele>85</ele>
        <time>2021-03-07T13:48:03.280Z</time>
      </trkpt>
      <trkpt lat="48.61482" lon="2.11719">
        <ele>85</ele>
        <time>2021-03-07T13:48:04.279Z</time>
      </trkpt>
      <trkpt lat="48.61482" lon="2.11716">
        <ele>86</ele>
        <time>2021-03-07T13:48:05.280Z</time>
      </trkpt>
      <trkpt lat="48.61482" lon="2.11714">
        <ele>86</ele>
        <time>2021-03-07T13:48:06.280Z</time>
      </trkpt>
      <trkpt lat="48.61482" lon="2.11712">
        <ele>87</ele>
        <time>2021-03-07T13:48:07.279Z</time>
      </trkpt>
      <trkpt lat="48.61482" lon="2.11709">
        <ele>88</ele>
        <time>2021-03-07T13:48:08.280Z</time>
      </trkpt>
      <trkpt lat="48.61481" lon="2.11707">
        <ele>88</ele>
        <time>2021-03-07T13:48:09.279Z</time>
      </trkpt>
      <trkpt lat="48.61481" lon="2.11705">
        <ele>88</ele>
        <time>2021-03-07T13:48:10.280Z</time>
      </trkpt>
      <trkpt lat="48.61481" lon="2.11702">
        <ele>88</ele>
        <time>2021-03-07T13:48:11.280Z</time>
      </trkpt>
      <trkpt lat="48.61481" lon="2.117">
        <ele>88</ele>
        <time>2021-03-07T13:48:12.280Z</time>
      </trkpt>
      <trkpt lat="48.61481" lon="2.11697">
        <ele>88</ele>
        <time>2021-03-07T13:48:13.280Z</time>
      </trkpt>
      <trkpt lat="48.61481" lon="2.11695">
        <ele>87</ele>
        <time>2021-03-07T13:48:14.280Z</time>
      </trkpt>
      <trkpt lat="48.6148" lon="2.11692">
        <ele>87</ele>
        <time>2021-03-07T13:48:15.280Z</time>
      </trkpt>
      <trkpt lat="48.6148" lon="2.1169">
        <ele>87</ele>
        <time>2021-03-07T13:48:16.279Z</time>
      </trkpt>
      <trkpt lat="48.6148" lon="2.11688">
        <ele>87</ele>
        <time>2021-03-07T13:48:17.280Z</time>
      </trkpt>
      <trkpt lat="48.6148" lon="2.11686">
        <ele>87</ele>
        <time>2021-03-07T13:48:18.279Z</time>
      </trkpt>
      <trkpt lat="48.6148" lon="2.11683">
        <ele>87</ele>
        <time>2021-03-07T13:48:19.280Z</time>
      </trkpt>
      <trkpt lat="48.6148" lon="2.1168">
        <ele>87</ele>
        <time>2021-03-07T13:48:20.280Z</time>
      </trkpt>
      <trkpt lat="48.6148" lon="2.11678">
        <ele>86</ele>
        <time>2021-03-07T13:48:21.280Z</time>
      </trkpt>
      <trkpt lat="48.6148" lon="2.11676">
        <ele>86</ele>
        <time>2021-03-07T13:48:22.279Z</time>
      </trkpt>
      <trkpt lat="48.6148" lon="2.11673">
        <ele>86</ele>
        <time>2021-03-07T13:48:23.280Z</time>
      </trkpt>
      <trkpt lat="48.6148" lon="2.1167">
        <ele>86</ele>
        <time>2021-03-07T13:48:24.280Z</time>
      </trkpt>
      <trkpt lat="48.6148" lon="2.11668">
        <ele>86</ele>
        <time>2021-03-07T13:48:25.280Z</time>
      </trkpt>
      <trkpt lat="48.61479" lon="2.11665">
        <ele>86</ele>
        <time>2021-03-07T13:48:26.280Z</time>
      </trkpt>
      <trkpt lat="48.61479" lon="2.11662">
        <ele>86</ele>
        <time>2021-03-07T13:48:27.280Z</time>
      </trkpt>
      <trkpt lat="48.61479" lon="2.1166">
        <ele>86</ele>
        <time>2021-03-07T13:48:28.279Z</time>
      </trkpt>
      <trkpt lat="48.61479" lon="2.11657">
        <ele>86</ele>
        <time>2021-03-07T13:48:29.280Z</time>
      </trkpt>
      <trkpt lat="48.61479" lon="2.11655">
        <ele>86</ele>
        <time>2021-03-07T13:48:30.279Z</time>
      </trkpt>
      <trkpt lat="48.61479" lon="2.11652">
        <ele>86</ele>
        <time>2021-03-07T13:48:31.279Z</time>
      </trkpt>
      <trkpt lat="48.61479" lon="2.1165">
        <ele>86</ele>
        <time>2021-03-07T13:48:32.280Z</time>
      </trkpt>
      <trkpt lat="48.61479" lon="2.11648">
        <ele>86</ele>
        <time>2021-03-07T13:48:33.280Z</time>
      </trkpt>
      <trkpt lat="48.61479" lon="2.11645">
        <ele>86</ele>
        <time>2021-03-07T13:48:34.280Z</time>
      </trkpt>
      <trkpt lat="48.61478" lon="2.11643">
        <ele>86</ele>
        <time>2021-03-07T13:48:35.280Z</time>
      </trkpt>
      <trkpt lat="48.61478" lon="2.1164">
        <ele>85</ele>
        <time>2021-03-07T13:48:36.280Z</time>
      </trkpt>
      <trkpt lat="48.61478" lon="2.11638">
        <ele>85</ele>
        <time>2021-03-07T13:48:37.280Z</time>
      </trkpt>
      <trkpt lat="48.61478" lon="2.11636">
        <ele>86</ele>
        <time>2021-03-07T13:48:38.279Z</time>
      </trkpt>
      <trkpt lat="48.61477" lon="2.11633">
        <ele>86</ele>
        <time>2021-03-07T13:48:39.280Z</time>
      </trkpt>
      <trkpt lat="48.61477" lon="2.11631">
        <ele>86</ele>
        <time>2021-03-07T13:48:40.280Z</time>
      </trkpt>
      <trkpt lat="48.61477" lon="2.11629">
        <ele>85</ele>
        <time>2021-03-07T13:48:41.279Z</time>
      </trkpt>
      <trkpt lat="48.61477" lon="2.11627">
        <ele>85</ele>
        <time>2021-03-07T13:48:42.280Z</time>
      </trkpt>
      <trkpt lat="48.61476" lon="2.11624">
        <ele>85</ele>
        <time>2021-03-07T13:48:43.280Z</time>
      </trkpt>
      <trkpt lat="48.61477" lon="2.11622">
        <ele>85</ele>
        <time>2021-03-07T13:48:44.279Z</time>
      </trkpt>
      <trkpt lat="48.61477" lon="2.11621">
        <ele>85</ele>
        <time>2021-03-07T13:48:45.280Z</time>
      </trkpt>
      <trkpt lat="48.61477" lon="2.11619">
        <ele>85</ele>
        <time>2021-03-07T13:48:46.280Z</time>
      </trkpt>
      <trkpt lat="48.61477" lon="2.11617">
        <ele>85</ele>
        <time>2021-03-07T13:48:47.279Z</time>
      </trkpt>
      <trkpt lat="48.61477" lon="2.11615">
        <ele>86</ele>
        <time>2021-03-07T13:48:48.280Z</time>
      </trkpt>
      <trkpt lat="48.61477" lon="2.11613">
        <ele>86</ele>
        <time>2021-03-07T13:48:49.280Z</time>
      </trkpt>
      <trkpt lat="48.61476" lon="2.11611">
        <ele>86</ele>
        <time>2021-03-07T13:48:50.279Z</time>
      </trkpt>
      <trkpt lat="48.61476" lon="2.11608">
        <ele>86</ele>
        <time>2021-03-07T13:48:51.280Z</time>
      </trkpt>
      <trkpt lat="48.61476" lon="2.11606">
        <ele>87</ele>
        <time>2021-03-07T13:48:52.280Z</time>
      </trkpt>
      <trkpt lat="48.61476" lon="2.11604">
        <ele>87</ele>
        <time>2021-03-07T13:48:53.280Z</time>
      </trkpt>
      <trkpt lat="48.61477" lon="2.11602">
        <ele>86</ele>
        <time>2021-03-07T13:48:54.280Z</time>
      </trkpt>
      <trkpt lat="48.61477" lon="2.11601">
        <ele>86</ele>
        <time>2021-03-07T13:48:55.280Z</time>
      </trkpt>
      <trkpt lat="48.61477" lon="2.11601">
        <ele>86</ele>
        <time>2021-03-07T13:48:56.280Z</time>
      </trkpt>
      <trkpt lat="48.61477" lon="2.116">
        <ele>86</ele>
        <time>2021-03-07T13:48:57.279Z</time>
      </trkpt>
      <trkpt lat="48.61477" lon="2.11598">
        <ele>86</ele>
        <time>2021-03-07T13:48:58.280Z</time>
      </trkpt>
      <trkpt lat="48.61477" lon="2.11596">
        <ele>85</ele>
        <time>2021-03-07T13:48:59.280Z</time>
      </trkpt>
      <trkpt lat="48.61476" lon="2.11594">
        <ele>85</ele>
        <time>2021-03-07T13:49:00.280Z</time>
      </trkpt>
      <trkpt lat="48.61476" lon="2.11592">
        <ele>85</ele>
        <time>2021-03-07T13:49:01.280Z</time>
      </trkpt>
      <trkpt lat="48.61476" lon="2.1159">
        <ele>85</ele>
        <time>2021-03-07T13:49:02.280Z</time>
      </trkpt>
      <trkpt lat="48.61477" lon="2.11588">
        <ele>85</ele>
        <time>2021-03-07T13:49:03.280Z</time>
      </trkpt>
      <trkpt lat="48.61477" lon="2.11586">
        <ele>85</ele>
        <time>2021-03-07T13:49:04.280Z</time>
      </trkpt>
      <trkpt lat="48.61477" lon="2.11584">
        <ele>84</ele>
        <time>2021-03-07T13:49:05.280Z</time>
      </trkpt>
      <trkpt lat="48.61477" lon="2.11582">
        <ele>84</ele>
        <time>2021-03-07T13:49:06.280Z</time>
      </trkpt>
      <trkpt lat="48.61477" lon="2.1158">
        <ele>84</ele>
        <time>2021-03-07T13:49:07.280Z</time>
      </trkpt>
      <trkpt lat="48.61476" lon="2.11577">
        <ele>85</ele>
        <time>2021-03-07T13:49:08.280Z</time>
      </trkpt>
      <trkpt lat="48.61476" lon="2.11575">
        <ele>85</ele>
        <time>2021-03-07T13:49:09.280Z</time>
      </trkpt>
      <trkpt lat="48.61476" lon="2.11573">
        <ele>85</ele>
        <time>2021-03-07T13:49:10.280Z</time>
      </trkpt>
      <trkpt lat="48.61476" lon="2.11571">
        <ele>85</ele>
        <time>2021-03-07T13:49:11.279Z</time>
      </trkpt>
      <trkpt lat="48.61476" lon="2.11569">
        <ele>85</ele>
        <time>2021-03-07T13:49:12.280Z</time>
      </trkpt>
      <trkpt lat="48.61475" lon="2.11567">
        <ele>85</ele>
        <time>2021-03-07T13:49:13.280Z</time>
      </trkpt>
      <trkpt lat="48.61475" lon="2.11565">
        <ele>85</ele>
        <time>2021-03-07T13:49:14.279Z</time>
      </trkpt>
      <trkpt lat="48.61475" lon="2.11563">
        <ele>85</ele>
        <time>2021-03-07T13:49:15.280Z</time>
      </trkpt>
      <trkpt lat="48.61475" lon="2.1156">
        <ele>85</ele>
        <time>2021-03-07T13:49:16.280Z</time>
      </trkpt>
      <trkpt lat="48.61475" lon="2.11558">
        <ele>85</ele>
        <time>2021-03-07T13:49:17.280Z</time>
      </trkpt>
      <trkpt lat="48.61475" lon="2.11555">
        <ele>85</ele>
        <time>2021-03-07T13:49:18.280Z</time>
      </trkpt>
      <trkpt lat="48.61475" lon="2.11553">
        <ele>86</ele>
        <time>2021-03-07T13:49:19.279Z</time>
      </trkpt>
      <trkpt lat="48.61475" lon="2.11551">
        <ele>86</ele>
        <time>2021-03-07T13:49:20.280Z</time>
      </trkpt>
      <trkpt lat="48.61475" lon="2.11548">
        <ele>86</ele>
        <time>2021-03-07T13:49:21.280Z</time>
      </trkpt>
      <trkpt lat="48.61475" lon="2.11546">
        <ele>87</ele>
        <time>2021-03-07T13:49:22.280Z</time>
      </trkpt>
      <trkpt lat="48.61475" lon="2.11544">
        <ele>87</ele>
        <time>2021-03-07T13:49:23.279Z</time>
      </trkpt>
      <trkpt lat="48.61475" lon="2.11542">
        <ele>87</ele>
        <time>2021-03-07T13:49:24.279Z</time>
      </trkpt>
      <trkpt lat="48.61475" lon="2.1154">
        <ele>87</ele>
        <time>2021-03-07T13:49:25.280Z</time>
      </trkpt>
      <trkpt lat="48.61474" lon="2.11538">
        <ele>87</ele>
        <time>2021-03-07T13:49:26.280Z</time>
      </trkpt>
      <trkpt lat="48.61474" lon="2.11536">
        <ele>88</ele>
        <time>2021-03-07T13:49:27.280Z</time>
      </trkpt>
      <trkpt lat="48.61474" lon="2.11533">
        <ele>87</ele>
        <time>2021-03-07T13:49:28.280Z</time>
      </trkpt>
      <trkpt lat="48.61474" lon="2.1153">
        <ele>87</ele>
        <time>2021-03-07T13:49:29.280Z</time>
      </trkpt>
      <trkpt lat="48.61474" lon="2.11528">
        <ele>88</ele>
        <time>2021-03-07T13:49:30.280Z</time>
      </trkpt>
      <trkpt lat="48.61474" lon="2.11526">
        <ele>88</ele>
        <time>2021-03-07T13:49:31.280Z</time>
      </trkpt>
      <trkpt lat="48.61474" lon="2.11523">
        <ele>88</ele>
        <time>2021-03-07T13:49:32.280Z</time>
      </trkpt>
      <trkpt lat="48.61474" lon="2.11521">
        <ele>89</ele>
        <time>2021-03-07T13:49:33.280Z</time>
      </trkpt>
      <trkpt lat="48.61474" lon="2.11519">
        <ele>89</ele>
        <time>2021-03-07T13:49:34.280Z</time>
      </trkpt>
      <trkpt lat="48.61474" lon="2.11517">
        <ele>90</ele>
        <time>2021-03-07T13:49:35.279Z</time>
      </trkpt>
      <trkpt lat="48.61475" lon="2.11514">
        <ele>90</ele>
        <time>2021-03-07T13:49:36.280Z</time>
      </trkpt>
      <trkpt lat="48.61475" lon="2.11512">
        <ele>91</ele>
        <time>2021-03-07T13:49:37.280Z</time>
      </trkpt>
      <trkpt lat="48.61474" lon="2.1151">
        <ele>92</ele>
        <time>2021-03-07T13:49:38.280Z</time>
      </trkpt>
      <trkpt lat="48.61474" lon="2.11507">
        <ele>92</ele>
        <time>2021-03-07T13:49:39.279Z</time>
      </trkpt>
      <trkpt lat="48.61475" lon="2.11505">
        <ele>91</ele>
        <time>2021-03-07T13:49:40.280Z</time>
      </trkpt>
      <trkpt lat="48.61474" lon="2.11503">
        <ele>91</ele>
        <time>2021-03-07T13:49:41.280Z</time>
      </trkpt>
      <trkpt lat="48.61474" lon="2.11501">
        <ele>91</ele>
        <time>2021-03-07T13:49:42.280Z</time>
      </trkpt>
      <trkpt lat="48.61474" lon="2.11499">
        <ele>91</ele>
        <time>2021-03-07T13:49:43.280Z</time>
      </trkpt>
      <trkpt lat="48.61474" lon="2.11496">
        <ele>90</ele>
        <time>2021-03-07T13:49:44.280Z</time>
      </trkpt>
      <trkpt lat="48.61474" lon="2.11494">
        <ele>90</ele>
        <time>2021-03-07T13:49:45.280Z</time>
      </trkpt>
      <trkpt lat="48.61474" lon="2.11492">
        <ele>89</ele>
        <time>2021-03-07T13:49:46.280Z</time>
      </trkpt>
      <trkpt lat="48.61473" lon="2.11489">
        <ele>88</ele>
        <time>2021-03-07T13:49:47.280Z</time>
      </trkpt>
      <trkpt lat="48.61473" lon="2.11487">
        <ele>87</ele>
        <time>2021-03-07T13:49:48.279Z</time>
      </trkpt>
      <trkpt lat="48.61472" lon="2.11485">
        <ele>87</ele>
        <time>2021-03-07T13:49:49.280Z</time>
      </trkpt>
      <trkpt lat="48.61472" lon="2.11482">
        <ele>87</ele>
        <time>2021-03-07T13:49:50.280Z</time>
      </trkpt>
      <trkpt lat="48.61471" lon="2.1148">
        <ele>87</ele>
        <time>2021-03-07T13:49:51.280Z</time>
      </trkpt>
      <trkpt lat="48.61471" lon="2.11478">
        <ele>87</ele>
        <time>2021-03-07T13:49:52.280Z</time>
      </trkpt>
      <trkpt lat="48.6147" lon="2.11476">
        <ele>87</ele>
        <time>2021-03-07T13:49:53.280Z</time>
      </trkpt>
      <trkpt lat="48.6147" lon="2.11474">
        <ele>87</ele>
        <time>2021-03-07T13:49:54.280Z</time>
      </trkpt>
      <trkpt lat="48.61469" lon="2.11472">
        <ele>87</ele>
        <time>2021-03-07T13:49:55.280Z</time>
      </trkpt>
      <trkpt lat="48.61468" lon="2.1147">
        <ele>87</ele>
        <time>2021-03-07T13:49:56.279Z</time>
      </trkpt>
      <trkpt lat="48.61468" lon="2.11468">
        <ele>87</ele>
        <time>2021-03-07T13:49:57.280Z</time>
      </trkpt>
      <trkpt lat="48.61467" lon="2.11466">
        <ele>87</ele>
        <time>2021-03-07T13:49:58.280Z</time>
      </trkpt>
      <trkpt lat="48.61467" lon="2.11464">
        <ele>87</ele>
        <time>2021-03-07T13:49:59.280Z</time>
      </trkpt>
      <trkpt lat="48.61467" lon="2.11462">
        <ele>87</ele>
        <time>2021-03-07T13:50:00.279Z</time>
      </trkpt>
      <trkpt lat="48.61466" lon="2.1146">
        <ele>86</ele>
        <time>2021-03-07T13:50:01.280Z</time>
      </trkpt>
      <trkpt lat="48.61466" lon="2.11458">
        <ele>86</ele>
        <time>2021-03-07T13:50:02.280Z</time>
      </trkpt>
      <trkpt lat="48.61465" lon="2.11456">
        <ele>87</ele>
        <time>2021-03-07T13:50:03.280Z</time>
      </trkpt>
      <trkpt lat="48.61464" lon="2.11454">
        <ele>86</ele>
        <time>2021-03-07T13:50:04.280Z</time>
      </trkpt>
      <trkpt lat="48.61464" lon="2.11452">
        <ele>86</ele>
        <time>2021-03-07T13:50:05.280Z</time>
      </trkpt>
      <trkpt lat="48.61463" lon="2.11449">
        <ele>86</ele>
        <time>2021-03-07T13:50:06.280Z</time>
      </trkpt>
      <trkpt lat="48.61463" lon="2.11447">
        <ele>86</ele>
        <time>2021-03-07T13:50:07.280Z</time>
      </trkpt>
      <trkpt lat="48.61462" lon="2.11445">
        <ele>85</ele>
        <time>2021-03-07T13:50:08.280Z</time>
      </trkpt>
      <trkpt lat="48.61461" lon="2.11443">
        <ele>85</ele>
        <time>2021-03-07T13:50:09.280Z</time>
      </trkpt>
      <trkpt lat="48.61461" lon="2.11442">
        <ele>85</ele>
        <time>2021-03-07T13:50:10.280Z</time>
      </trkpt>
      <trkpt lat="48.61461" lon="2.11439">
        <ele>85</ele>
        <time>2021-03-07T13:50:11.280Z</time>
      </trkpt>
      <trkpt lat="48.6146" lon="2.11437">
        <ele>85</ele>
        <time>2021-03-07T13:50:12.280Z</time>
      </trkpt>
      <trkpt lat="48.6146" lon="2.11435">
        <ele>85</ele>
        <time>2021-03-07T13:50:13.280Z</time>
      </trkpt>
      <trkpt lat="48.61459" lon="2.11433">
        <ele>85</ele>
        <time>2021-03-07T13:50:14.280Z</time>
      </trkpt>
      <trkpt lat="48.61459" lon="2.11431">
        <ele>86</ele>
        <time>2021-03-07T13:50:15.280Z</time>
      </trkpt>
      <trkpt lat="48.61458" lon="2.11429">
        <ele>86</ele>
        <time>2021-03-07T13:50:16.280Z</time>
      </trkpt>
      <trkpt lat="48.61458" lon="2.11427">
        <ele>87</ele>
        <time>2021-03-07T13:50:17.280Z</time>
      </trkpt>
      <trkpt lat="48.61458" lon="2.11424">
        <ele>87</ele>
        <time>2021-03-07T13:50:18.280Z</time>
      </trkpt>
      <trkpt lat="48.61457" lon="2.11423">
        <ele>88</ele>
        <time>2021-03-07T13:50:19.280Z</time>
      </trkpt>
      <trkpt lat="48.61457" lon="2.11421">
        <ele>88</ele>
        <time>2021-03-07T13:50:20.280Z</time>
      </trkpt>
      <trkpt lat="48.61457" lon="2.11418">
        <ele>89</ele>
        <time>2021-03-07T13:50:21.280Z</time>
      </trkpt>
      <trkpt lat="48.61457" lon="2.11416">
        <ele>90</ele>
        <time>2021-03-07T13:50:22.280Z</time>
      </trkpt>
      <trkpt lat="48.61456" lon="2.11414">
        <ele>90</ele>
        <time>2021-03-07T13:50:23.280Z</time>
      </trkpt>
      <trkpt lat="48.61456" lon="2.11412">
        <ele>91</ele>
        <time>2021-03-07T13:50:24.280Z</time>
      </trkpt>
      <trkpt lat="48.61455" lon="2.1141">
        <ele>91</ele>
        <time>2021-03-07T13:50:25.280Z</time>
      </trkpt>
      <trkpt lat="48.61454" lon="2.11408">
        <ele>90</ele>
        <time>2021-03-07T13:50:26.280Z</time>
      </trkpt>
      <trkpt lat="48.61454" lon="2.11406">
        <ele>90</ele>
        <time>2021-03-07T13:50:27.280Z</time>
      </trkpt>
      <trkpt lat="48.61453" lon="2.11403">
        <ele>90</ele>
        <time>2021-03-07T13:50:28.280Z</time>
      </trkpt>
      <trkpt lat="48.61453" lon="2.11401">
        <ele>89</ele>
        <time>2021-03-07T13:50:29.280Z</time>
      </trkpt>
      <trkpt lat="48.61453" lon="2.11398">
        <ele>88</ele>
        <time>2021-03-07T13:50:30.280Z</time>
      </trkpt>
      <trkpt lat="48.61452" lon="2.11395">
        <ele>88</ele>
        <time>2021-03-07T13:50:31.280Z</time>
      </trkpt>
      <trkpt lat="48.61452" lon="2.11393">
        <ele>88</ele>
        <time>2021-03-07T13:50:32.280Z</time>
      </trkpt>
      <trkpt lat="48.61452" lon="2.11391">
        <ele>88</ele>
        <time>2021-03-07T13:50:33.280Z</time>
      </trkpt>
      <trkpt lat="48.61451" lon="2.11389">
        <ele>89</ele>
        <time>2021-03-07T13:50:34.280Z</time>
      </trkpt>
      <trkpt lat="48.61451" lon="2.11387">
        <ele>89</ele>
        <time>2021-03-07T13:50:35.280Z</time>
      </trkpt>
      <trkpt lat="48.6145" lon="2.11385">
        <ele>89</ele>
        <time>2021-03-07T13:50:36.279Z</time>
      </trkpt>
      <trkpt lat="48.6145" lon="2.11383">
        <ele>89</ele>
        <time>2021-03-07T13:50:37.280Z</time>
      </trkpt>
      <trkpt lat="48.6145" lon="2.11381">
        <ele>89</ele>
        <time>2021-03-07T13:50:38.279Z</time>
      </trkpt>
      <trkpt lat="48.61449" lon="2.11379">
        <ele>89</ele>
        <time>2021-03-07T13:50:39.280Z</time>
      </trkpt>
      <trkpt lat="48.61449" lon="2.11377">
        <ele>89</ele>
        <time>2021-03-07T13:50:40.279Z</time>
      </trkpt>
      <trkpt lat="48.61448" lon="2.11375">
        <ele>89</ele>
        <time>2021-03-07T13:50:41.280Z</time>
      </trkpt>
      <trkpt lat="48.61447" lon="2.11373">
        <ele>88</ele>
        <time>2021-03-07T13:50:42.280Z</time>
      </trkpt>
      <trkpt lat="48.61447" lon="2.11371">
        <ele>89</ele>
        <time>2021-03-07T13:50:43.280Z</time>
      </trkpt>
      <trkpt lat="48.61446" lon="2.11368">
        <ele>89</ele>
        <time>2021-03-07T13:50:44.279Z</time>
      </trkpt>
      <trkpt lat="48.61446" lon="2.11366">
        <ele>88</ele>
        <time>2021-03-07T13:50:45.280Z</time>
      </trkpt>
      <trkpt lat="48.61446" lon="2.11364">
        <ele>88</ele>
        <time>2021-03-07T13:50:46.280Z</time>
      </trkpt>
      <trkpt lat="48.61445" lon="2.11361">
        <ele>89</ele>
        <time>2021-03-07T13:50:47.280Z</time>
      </trkpt>
      <trkpt lat="48.61445" lon="2.11359">
        <ele>89</ele>
        <time>2021-03-07T13:50:48.280Z</time>
      </trkpt>
      <trkpt lat="48.61445" lon="2.11357">
        <ele>89</ele>
        <time>2021-03-07T13:50:49.279Z</time>
      </trkpt>
      <trkpt lat="48.61444" lon="2.11355">
        <ele>89</ele>
        <time>2021-03-07T13:50:50.280Z</time>
      </trkpt>
      <trkpt lat="48.61444" lon="2.11353">
        <ele>90</ele>
        <time>2021-03-07T13:50:51.280Z</time>
      </trkpt>
      <trkpt lat="48.61444" lon="2.1135">
        <ele>90</ele>
        <time>2021-03-07T13:50:52.279Z</time>
      </trkpt>
      <trkpt lat="48.61444" lon="2.11348">
        <ele>91</ele>
        <time>2021-03-07T13:50:53.280Z</time>
      </trkpt>
      <trkpt lat="48.61443" lon="2.11346">
        <ele>92</ele>
        <time>2021-03-07T13:50:54.280Z</time>
      </trkpt>
      <trkpt lat="48.61443" lon="2.11343">
        <ele>92</ele>
        <time>2021-03-07T13:50:55.279Z</time>
      </trkpt>
      <trkpt lat="48.61443" lon="2.11341">
        <ele>92</ele>
        <time>2021-03-07T13:50:56.280Z</time>
      </trkpt>
      <trkpt lat="48.61443" lon="2.11338">
        <ele>92</ele>
        <time>2021-03-07T13:50:57.280Z</time>
      </trkpt>
      <trkpt lat="48.61443" lon="2.11336">
        <ele>92</ele>
        <time>2021-03-07T13:50:58.280Z</time>
      </trkpt>
      <trkpt lat="48.61443" lon="2.11334">
        <ele>92</ele>
        <time>2021-03-07T13:50:59.279Z</time>
      </trkpt>
      <trkpt lat="48.61443" lon="2.11331">
        <ele>92</ele>
        <time>2021-03-07T13:51:00.280Z</time>
      </trkpt>
      <trkpt lat="48.61443" lon="2.11329">
        <ele>92</ele>
        <time>2021-03-07T13:51:01.280Z</time>
      </trkpt>
      <trkpt lat="48.61442" lon="2.11326">
        <ele>92</ele>
        <time>2021-03-07T13:51:02.280Z</time>
      </trkpt>
      <trkpt lat="48.61443" lon="2.11324">
        <ele>93</ele>
        <time>2021-03-07T13:51:03.279Z</time>
      </trkpt>
      <trkpt lat="48.61443" lon="2.11322">
        <ele>93</ele>
        <time>2021-03-07T13:51:04.280Z</time>
      </trkpt>
      <trkpt lat="48.61443" lon="2.1132">
        <ele>93</ele>
        <time>2021-03-07T13:51:05.280Z</time>
      </trkpt>
      <trkpt lat="48.61443" lon="2.11317">
        <ele>93</ele>
        <time>2021-03-07T13:51:06.279Z</time>
      </trkpt>
      <trkpt lat="48.61444" lon="2.11315">
        <ele>94</ele>
        <time>2021-03-07T13:51:07.280Z</time>
      </trkpt>
      <trkpt lat="48.61444" lon="2.11312">
        <ele>94</ele>
        <time>2021-03-07T13:51:08.280Z</time>
      </trkpt>
      <trkpt lat="48.61444" lon="2.1131">
        <ele>95</ele>
        <time>2021-03-07T13:51:09.280Z</time>
      </trkpt>
      <trkpt lat="48.61444" lon="2.11308">
        <ele>95</ele>
        <time>2021-03-07T13:51:10.280Z</time>
      </trkpt>
      <trkpt lat="48.61443" lon="2.11305">
        <ele>95</ele>
        <time>2021-03-07T13:51:11.280Z</time>
      </trkpt>
      <trkpt lat="48.61443" lon="2.11303">
        <ele>95</ele>
        <time>2021-03-07T13:51:12.279Z</time>
      </trkpt>
      <trkpt lat="48.61444" lon="2.11301">
        <ele>95</ele>
        <time>2021-03-07T13:51:13.280Z</time>
      </trkpt>
      <trkpt lat="48.61444" lon="2.11299">
        <ele>95</ele>
        <time>2021-03-07T13:51:14.280Z</time>
      </trkpt>
      <trkpt lat="48.61445" lon="2.11296">
        <ele>95</ele>
        <time>2021-03-07T13:51:15.280Z</time>
      </trkpt>
      <trkpt lat="48.61445" lon="2.11294">
        <ele>95</ele>
        <time>2021-03-07T13:51:16.280Z</time>
      </trkpt>
      <trkpt lat="48.61445" lon="2.11291">
        <ele>95</ele>
        <time>2021-03-07T13:51:17.279Z</time>
      </trkpt>
      <trkpt lat="48.61445" lon="2.11289">
        <ele>95</ele>
        <time>2021-03-07T13:51:18.280Z</time>
      </trkpt>
      <trkpt lat="48.61445" lon="2.11287">
        <ele>95</ele>
        <time>2021-03-07T13:51:19.280Z</time>
      </trkpt>
      <trkpt lat="48.61445" lon="2.11285">
        <ele>95</ele>
        <time>2021-03-07T13:51:20.280Z</time>
      </trkpt>
      <trkpt lat="48.61445" lon="2.11282">
        <ele>95</ele>
        <time>2021-03-07T13:51:21.279Z</time>
      </trkpt>
      <trkpt lat="48.61445" lon="2.1128">
        <ele>96</ele>
        <time>2021-03-07T13:51:22.280Z</time>
      </trkpt>
      <trkpt lat="48.61445" lon="2.11278">
        <ele>96</ele>
        <time>2021-03-07T13:51:23.280Z</time>
      </trkpt>
      <trkpt lat="48.61445" lon="2.11275">
        <ele>96</ele>
        <time>2021-03-07T13:51:24.280Z</time>
      </trkpt>
      <trkpt lat="48.61445" lon="2.11273">
        <ele>96</ele>
        <time>2021-03-07T13:51:25.280Z</time>
      </trkpt>
      <trkpt lat="48.61445" lon="2.11271">
        <ele>96</ele>
        <time>2021-03-07T13:51:26.280Z</time>
      </trkpt>
      <trkpt lat="48.61445" lon="2.11269">
        <ele>96</ele>
        <time>2021-03-07T13:51:27.280Z</time>
      </trkpt>
      <trkpt lat="48.61445" lon="2.11267">
        <ele>96</ele>
        <time>2021-03-07T13:51:28.280Z</time>
      </trkpt>
      <trkpt lat="48.61446" lon="2.11264">
        <ele>96</ele>
        <time>2021-03-07T13:51:29.279Z</time>
      </trkpt>
      <trkpt lat="48.61446" lon="2.11262">
        <ele>96</ele>
        <time>2021-03-07T13:51:30.280Z</time>
      </trkpt>
      <trkpt lat="48.61447" lon="2.1126">
        <ele>96</ele>
        <time>2021-03-07T13:51:31.280Z</time>
      </trkpt>
      <trkpt lat="48.61447" lon="2.11258">
        <ele>96</ele>
        <time>2021-03-07T13:51:32.280Z</time>
      </trkpt>
      <trkpt lat="48.61447" lon="2.11255">
        <ele>96</ele>
        <time>2021-03-07T13:51:33.280Z</time>
      </trkpt>
      <trkpt lat="48.61448" lon="2.11253">
        <ele>96</ele>
        <time>2021-03-07T13:51:34.280Z</time>
      </trkpt>
      <trkpt lat="48.61448" lon="2.11251">
        <ele>96</ele>
        <time>2021-03-07T13:51:35.280Z</time>
      </trkpt>
      <trkpt lat="48.61448" lon="2.11248">
        <ele>97</ele>
        <time>2021-03-07T13:51:36.279Z</time>
      </trkpt>
      <trkpt lat="48.61449" lon="2.11247">
        <ele>97</ele>
        <time>2021-03-07T13:51:37.280Z</time>
      </trkpt>
      <trkpt lat="48.6145" lon="2.11245">
        <ele>97</ele>
        <time>2021-03-07T13:51:38.279Z</time>
      </trkpt>
      <trkpt lat="48.6145" lon="2.11243">
        <ele>97</ele>
        <time>2021-03-07T13:51:39.280Z</time>
      </trkpt>
      <trkpt lat="48.61451" lon="2.11241">
        <ele>97</ele>
        <time>2021-03-07T13:51:40.280Z</time>
      </trkpt>
      <trkpt lat="48.61452" lon="2.11239">
        <ele>97</ele>
        <time>2021-03-07T13:51:41.280Z</time>
      </trkpt>
      <trkpt lat="48.61453" lon="2.11238">
        <ele>98</ele>
        <time>2021-03-07T13:51:42.280Z</time>
      </trkpt>
      <trkpt lat="48.61454" lon="2.11236">
        <ele>98</ele>
        <time>2021-03-07T13:51:43.280Z</time>
      </trkpt>
      <trkpt lat="48.61455" lon="2.11235">
        <ele>98</ele>
        <time>2021-03-07T13:51:44.280Z</time>
      </trkpt>
      <trkpt lat="48.61456" lon="2.11233">
        <ele>98</ele>
        <time>2021-03-07T13:51:45.279Z</time>
      </trkpt>
      <trkpt lat="48.61456" lon="2.1123">
        <ele>99</ele>
        <time>2021-03-07T13:51:46.280Z</time>
      </trkpt>
      <trkpt lat="48.61456" lon="2.11228">
        <ele>99</ele>
        <time>2021-03-07T13:51:47.280Z</time>
      </trkpt>
      <trkpt lat="48.61457" lon="2.11225">
        <ele>99</ele>
        <time>2021-03-07T13:51:48.280Z</time>
      </trkpt>
      <trkpt lat="48.61457" lon="2.11222">
        <ele>100</ele>
        <time>2021-03-07T13:51:49.280Z</time>
      </trkpt>
      <trkpt lat="48.61458" lon="2.1122">
        <ele>100</ele>
        <time>2021-03-07T13:51:50.279Z</time>
      </trkpt>
      <trkpt lat="48.61458" lon="2.11217">
        <ele>100</ele>
        <time>2021-03-07T13:51:51.280Z</time>
      </trkpt>
      <trkpt lat="48.61459" lon="2.11213">
        <ele>101</ele>
        <time>2021-03-07T13:51:52.280Z</time>
      </trkpt>
      <trkpt lat="48.61459" lon="2.11212">
        <ele>101</ele>
        <time>2021-03-07T13:51:53.280Z</time>
      </trkpt>
      <trkpt lat="48.6146" lon="2.1121">
        <ele>102</ele>
        <time>2021-03-07T13:51:54.280Z</time>
      </trkpt>
      <trkpt lat="48.6146" lon="2.11208">
        <ele>102</ele>
        <time>2021-03-07T13:51:55.279Z</time>
      </trkpt>
      <trkpt lat="48.61461" lon="2.11206">
        <ele>103</ele>
        <time>2021-03-07T13:51:56.280Z</time>
      </trkpt>
      <trkpt lat="48.61461" lon="2.11205">
        <ele>103</ele>
        <time>2021-03-07T13:51:57.280Z</time>
      </trkpt>
      <trkpt lat="48.61462" lon="2.11204">
        <ele>103</ele>
        <time>2021-03-07T13:51:58.280Z</time>
      </trkpt>
      <trkpt lat="48.61462" lon="2.11203">
        <ele>103</ele>
        <time>2021-03-07T13:51:59.280Z</time>
      </trkpt>
      <trkpt lat="48.61463" lon="2.11201">
        <ele>104</ele>
        <time>2021-03-07T13:52:00.280Z</time>
      </trkpt>
      <trkpt lat="48.61463" lon="2.112">
        <ele>104</ele>
        <time>2021-03-07T13:52:01.280Z</time>
      </trkpt>
      <trkpt lat="48.61463" lon="2.11198">
        <ele>105</ele>
        <time>2021-03-07T13:52:02.280Z</time>
      </trkpt>
      <trkpt lat="48.61463" lon="2.11196">
        <ele>105</ele>
        <time>2021-03-07T13:52:03.280Z</time>
      </trkpt>
      <trkpt lat="48.61464" lon="2.11195">
        <ele>105</ele>
        <time>2021-03-07T13:52:04.280Z</time>
      </trkpt>
      <trkpt lat="48.61464" lon="2.11193">
        <ele>105</ele>
        <time>2021-03-07T13:52:05.279Z</time>
      </trkpt>
      <trkpt lat="48.61464" lon="2.11192">
        <ele>106</ele>
        <time>2021-03-07T13:52:06.280Z</time>
      </trkpt>
      <trkpt lat="48.61464" lon="2.1119">
        <ele>106</ele>
        <time>2021-03-07T13:52:07.280Z</time>
      </trkpt>
      <trkpt lat="48.61464" lon="2.11188">
        <ele>106</ele>
        <time>2021-03-07T13:52:08.279Z</time>
      </trkpt>
      <trkpt lat="48.61464" lon="2.11185">
        <ele>106</ele>
        <time>2021-03-07T13:52:09.280Z</time>
      </trkpt>
      <trkpt lat="48.61464" lon="2.11183">
        <ele>106</ele>
        <time>2021-03-07T13:52:10.280Z</time>
      </trkpt>
      <trkpt lat="48.61464" lon="2.1118">
        <ele>106</ele>
        <time>2021-03-07T13:52:11.280Z</time>
      </trkpt>
      <trkpt lat="48.61464" lon="2.11177">
        <ele>106</ele>
        <time>2021-03-07T13:52:12.280Z</time>
      </trkpt>
      <trkpt lat="48.61464" lon="2.11175">
        <ele>106</ele>
        <time>2021-03-07T13:52:13.280Z</time>
      </trkpt>
      <trkpt lat="48.61464" lon="2.11172">
        <ele>105</ele>
        <time>2021-03-07T13:52:14.280Z</time>
      </trkpt>
      <trkpt lat="48.61465" lon="2.11169">
        <ele>105</ele>
        <time>2021-03-07T13:52:15.280Z</time>
      </trkpt>
      <trkpt lat="48.61465" lon="2.11167">
        <ele>104</ele>
        <time>2021-03-07T13:52:16.280Z</time>
      </trkpt>
      <trkpt lat="48.61465" lon="2.11164">
        <ele>104</ele>
        <time>2021-03-07T13:52:17.280Z</time>
      </trkpt>
      <trkpt lat="48.61465" lon="2.11161">
        <ele>104</ele>
        <time>2021-03-07T13:52:18.280Z</time>
      </trkpt>
      <trkpt lat="48.61465" lon="2.11159">
        <ele>104</ele>
        <time>2021-03-07T13:52:19.280Z</time>
      </trkpt>
      <trkpt lat="48.61465" lon="2.11157">
        <ele>103</ele>
        <time>2021-03-07T13:52:20.280Z</time>
      </trkpt>
      <trkpt lat="48.61465" lon="2.11154">
        <ele>103</ele>
        <time>2021-03-07T13:52:21.280Z</time>
      </trkpt>
      <trkpt lat="48.61465" lon="2.11152">
        <ele>103</ele>
        <time>2021-03-07T13:52:22.280Z</time>
      </trkpt>
      <trkpt lat="48.61465" lon="2.11149">
        <ele>103</ele>
        <time>2021-03-07T13:52:23.280Z</time>
      </trkpt>
      <trkpt lat="48.61465" lon="2.11146">
        <ele>103</ele>
        <time>2021-03-07T13:52:24.280Z</time>
      </trkpt>
      <trkpt lat="48.61466" lon="2.11143">
        <ele>102</ele>
        <time>2021-03-07T13:52:25.280Z</time>
      </trkpt>
      <trkpt lat="48.61466" lon="2.11141">
        <ele>102</ele>
        <time>2021-03-07T13:52:26.280Z</time>
      </trkpt>
      <trkpt lat="48.61466" lon="2.11137">
        <ele>102</ele>
        <time>2021-03-07T13:52:27.280Z</time>
      </trkpt>
      <trkpt lat="48.61467" lon="2.11135">
        <ele>102</ele>
        <time>2021-03-07T13:52:28.279Z</time>
      </trkpt>
      <trkpt lat="48.61467" lon="2.11133">
        <ele>102</ele>
        <time>2021-03-07T13:52:29.280Z</time>
      </trkpt>
      <trkpt lat="48.61467" lon="2.1113">
        <ele>101</ele>
        <time>2021-03-07T13:52:30.280Z</time>
      </trkpt>
      <trkpt lat="48.61468" lon="2.11127">
        <ele>101</ele>
        <time>2021-03-07T13:52:31.279Z</time>
      </trkpt>
      <trkpt lat="48.61468" lon="2.11125">
        <ele>100</ele>
        <time>2021-03-07T13:52:32.280Z</time>
      </trkpt>
      <trkpt lat="48.61469" lon="2.11123">
        <ele>100</ele>
        <time>2021-03-07T13:52:33.280Z</time>
      </trkpt>
      <trkpt lat="48.61469" lon="2.1112">
        <ele>99</ele>
        <time>2021-03-07T13:52:34.280Z</time>
      </trkpt>
      <trkpt lat="48.61469" lon="2.11117">
        <ele>99</ele>
        <time>2021-03-07T13:52:35.280Z</time>
      </trkpt>
      <trkpt lat="48.61469" lon="2.11114">
        <ele>100</ele>
        <time>2021-03-07T13:52:36.279Z</time>
      </trkpt>
      <trkpt lat="48.6147" lon="2.11112">
        <ele>100</ele>
        <time>2021-03-07T13:52:37.280Z</time>
      </trkpt>
      <trkpt lat="48.6147" lon="2.1111">
        <ele>100</ele>
        <time>2021-03-07T13:52:38.280Z</time>
      </trkpt>
      <trkpt lat="48.6147" lon="2.11108">
        <ele>100</ele>
        <time>2021-03-07T13:52:39.280Z</time>
      </trkpt>
      <trkpt lat="48.61471" lon="2.11107">
        <ele>100</ele>
        <time>2021-03-07T13:52:40.280Z</time>
      </trkpt>
      <trkpt lat="48.61472" lon="2.11105">
        <ele>100</ele>
        <time>2021-03-07T13:52:41.280Z</time>
      </trkpt>
      <trkpt lat="48.61472" lon="2.11104">
        <ele>100</ele>
        <time>2021-03-07T13:52:42.279Z</time>
      </trkpt>
      <trkpt lat="48.61473" lon="2.11102">
        <ele>100</ele>
        <time>2021-03-07T13:52:43.280Z</time>
      </trkpt>
      <trkpt lat="48.61473" lon="2.111">
        <ele>101</ele>
        <time>2021-03-07T13:52:44.280Z</time>
      </trkpt>
      <trkpt lat="48.61474" lon="2.11098">
        <ele>101</ele>
        <time>2021-03-07T13:52:45.280Z</time>
      </trkpt>
      <trkpt lat="48.61475" lon="2.11096">
        <ele>101</ele>
        <time>2021-03-07T13:52:46.280Z</time>
      </trkpt>
      <trkpt lat="48.61475" lon="2.11094">
        <ele>102</ele>
        <time>2021-03-07T13:52:47.280Z</time>
      </trkpt>
      <trkpt lat="48.61476" lon="2.11091">
        <ele>102</ele>
        <time>2021-03-07T13:52:48.280Z</time>
      </trkpt>
      <trkpt lat="48.61477" lon="2.11089">
        <ele>102</ele>
        <time>2021-03-07T13:52:49.279Z</time>
      </trkpt>
      <trkpt lat="48.61478" lon="2.11087">
        <ele>103</ele>
        <time>2021-03-07T13:52:50.280Z</time>
      </trkpt>
      <trkpt lat="48.61478" lon="2.11085">
        <ele>103</ele>
        <time>2021-03-07T13:52:51.279Z</time>
      </trkpt>
      <trkpt lat="48.61479" lon="2.11083">
        <ele>103</ele>
        <time>2021-03-07T13:52:52.280Z</time>
      </trkpt>
      <trkpt lat="48.6148" lon="2.11081">
        <ele>103</ele>
        <time>2021-03-07T13:52:53.280Z</time>
      </trkpt>
      <trkpt lat="48.61481" lon="2.11079">
        <ele>103</ele>
        <time>2021-03-07T13:52:54.279Z</time>
      </trkpt>
      <trkpt lat="48.61482" lon="2.11078">
        <ele>102</ele>
        <time>2021-03-07T13:52:55.280Z</time>
      </trkpt>
      <trkpt lat="48.61483" lon="2.11076">
        <ele>102</ele>
        <time>2021-03-07T13:52:56.279Z</time>
      </trkpt>
      <trkpt lat="48.61484" lon="2.11075">
        <ele>102</ele>
        <time>2021-03-07T13:52:57.280Z</time>
      </trkpt>
      <trkpt lat="48.61485" lon="2.11073">
        <ele>101</ele>
        <time>2021-03-07T13:52:58.280Z</time>
      </trkpt>
      <trkpt lat="48.61485" lon="2.11072">
        <ele>101</ele>
        <time>2021-03-07T13:52:59.279Z</time>
      </trkpt>
      <trkpt lat="48.61486" lon="2.1107">
        <ele>101</ele>
        <time>2021-03-07T13:53:00.280Z</time>
      </trkpt>
      <trkpt lat="48.61487" lon="2.11068">
        <ele>101</ele>
        <time>2021-03-07T13:53:01.280Z</time>
      </trkpt>
      <trkpt lat="48.61488" lon="2.11066">
        <ele>101</ele>
        <time>2021-03-07T13:53:02.280Z</time>
      </trkpt>
      <trkpt lat="48.61489" lon="2.11065">
        <ele>101</ele>
        <time>2021-03-07T13:53:03.280Z</time>
      </trkpt>
      <trkpt lat="48.6149" lon="2.11063">
        <ele>101</ele>
        <time>2021-03-07T13:53:04.280Z</time>
      </trkpt>
      <trkpt lat="48.61491" lon="2.11061">
        <ele>101</ele>
        <time>2021-03-07T13:53:05.280Z</time>
      </trkpt>
      <trkpt lat="48.61492" lon="2.1106">
        <ele>101</ele>
        <time>2021-03-07T13:53:06.280Z</time>
      </trkpt>
      <trkpt lat="48.61493" lon="2.11058">
        <ele>102</ele>
        <time>2021-03-07T13:53:07.280Z</time>
      </trkpt>
      <trkpt lat="48.61494" lon="2.11056">
        <ele>102</ele>
        <time>2021-03-07T13:53:08.280Z</time>
      </trkpt>
      <trkpt lat="48.61495" lon="2.11055">
        <ele>102</ele>
        <time>2021-03-07T13:53:09.279Z</time>
      </trkpt>
      <trkpt lat="48.61496" lon="2.11053">
        <ele>102</ele>
        <time>2021-03-07T13:53:10.279Z</time>
      </trkpt>
      <trkpt lat="48.61496" lon="2.11052">
        <ele>102</ele>
        <time>2021-03-07T13:53:11.280Z</time>
      </trkpt>
      <trkpt lat="48.61497" lon="2.1105">
        <ele>102</ele>
        <time>2021-03-07T13:53:12.280Z</time>
      </trkpt>
      <trkpt lat="48.61498" lon="2.11049">
        <ele>101</ele>
        <time>2021-03-07T13:53:13.280Z</time>
      </trkpt>
      <trkpt lat="48.61499" lon="2.11048">
        <ele>101</ele>
        <time>2021-03-07T13:53:14.280Z</time>
      </trkpt>
      <trkpt lat="48.615" lon="2.11047">
        <ele>101</ele>
        <time>2021-03-07T13:53:15.279Z</time>
      </trkpt>
      <trkpt lat="48.61501" lon="2.11045">
        <ele>101</ele>
        <time>2021-03-07T13:53:16.280Z</time>
      </trkpt>
      <trkpt lat="48.61502" lon="2.11043">
        <ele>101</ele>
        <time>2021-03-07T13:53:17.279Z</time>
      </trkpt>
      <trkpt lat="48.61503" lon="2.11041">
        <ele>100</ele>
        <time>2021-03-07T13:53:18.280Z</time>
      </trkpt>
      <trkpt lat="48.61504" lon="2.11039">
        <ele>100</ele>
        <time>2021-03-07T13:53:19.280Z</time>
      </trkpt>
      <trkpt lat="48.61505" lon="2.11037">
        <ele>100</ele>
        <time>2021-03-07T13:53:20.280Z</time>
      </trkpt>
      <trkpt lat="48.61505" lon="2.11035">
        <ele>101</ele>
        <time>2021-03-07T13:53:21.280Z</time>
      </trkpt>
      <trkpt lat="48.61506" lon="2.11034">
        <ele>101</ele>
        <time>2021-03-07T13:53:22.279Z</time>
      </trkpt>
      <trkpt lat="48.61507" lon="2.11032">
        <ele>101</ele>
        <time>2021-03-07T13:53:23.280Z</time>
      </trkpt>
      <trkpt lat="48.61507" lon="2.11031">
        <ele>101</ele>
        <time>2021-03-07T13:53:24.280Z</time>
      </trkpt>
      <trkpt lat="48.61508" lon="2.1103">
        <ele>101</ele>
        <time>2021-03-07T13:53:25.279Z</time>
      </trkpt>
      <trkpt lat="48.61508" lon="2.1103">
        <ele>101</ele>
        <time>2021-03-07T13:53:26.280Z</time>
      </trkpt>
      <trkpt lat="48.61508" lon="2.11029">
        <ele>101</ele>
        <time>2021-03-07T13:53:27.280Z</time>
      </trkpt>
      <trkpt lat="48.61508" lon="2.11029">
        <ele>102</ele>
        <time>2021-03-07T13:53:28.279Z</time>
      </trkpt>
      <trkpt lat="48.61508" lon="2.11029">
        <ele>103</ele>
        <time>2021-03-07T13:53:29.280Z</time>
      </trkpt>
      <trkpt lat="48.61508" lon="2.11028">
        <ele>103</ele>
        <time>2021-03-07T13:53:30.280Z</time>
      </trkpt>
      <trkpt lat="48.61508" lon="2.11028">
        <ele>103</ele>
        <time>2021-03-07T13:53:31.280Z</time>
      </trkpt>
      <trkpt lat="48.61508" lon="2.11028">
        <ele>103</ele>
        <time>2021-03-07T13:53:32.280Z</time>
      </trkpt>
      <trkpt lat="48.61508" lon="2.11029">
        <ele>102</ele>
        <time>2021-03-07T13:53:33.280Z</time>
      </trkpt>
      <trkpt lat="48.61508" lon="2.11029">
        <ele>101</ele>
        <time>2021-03-07T13:53:34.279Z</time>
      </trkpt>
      <trkpt lat="48.61508" lon="2.11029">
        <ele>100</ele>
        <time>2021-03-07T13:53:35.280Z</time>
      </trkpt>
      <trkpt lat="48.61508" lon="2.11029">
        <ele>100</ele>
        <time>2021-03-07T13:53:36.280Z</time>
      </trkpt>
      <trkpt lat="48.61508" lon="2.1103">
        <ele>99</ele>
        <time>2021-03-07T13:53:37.280Z</time>
      </trkpt>
      <trkpt lat="48.61508" lon="2.11029">
        <ele>99</ele>
        <time>2021-03-07T13:53:38.280Z</time>
      </trkpt>
      <trkpt lat="48.61508" lon="2.1103">
        <ele>98</ele>
        <time>2021-03-07T13:53:39.280Z</time>
      </trkpt>
      <trkpt lat="48.61508" lon="2.1103">
        <ele>99</ele>
        <time>2021-03-07T13:53:40.280Z</time>
      </trkpt>
    </trkseg>
  </trk>
</gpx>